{
  "fields": [{"id":"_id","type":"int"},{"id":"dev_id","type":"numeric"},{"id":"dev_model","type":"text"},{"id":"dev_manufactor","type":"text"},{"id":"dev_serial","type":"text"},{"id":"dev_latitude","type":"numeric"},{"id":"dev_longitude","type":"numeric"},{"id":"dev_street","type":"text"},{"id":"dev_street_no","type":"text"},{"id":"dev_city","type":"text"},{"id":"dev_name","type":"text"},{"id":"id","type":"numeric"},{"id":"dev_send_time","type":"timestamp"},{"id":"dev_state","type":"numeric"},{"id":"dev_state_description","type":"text"},{"id":"dev_temperature","type":"numeric"},{"id":"dev_humidity","type":"numeric"},{"id":"dev_pressure","type":"numeric"},{"id":"dev_pm_1","type":"numeric"},{"id":"dev_pm_2_5","type":"numeric"},{"id":"dev_pm_10","type":"numeric"}],
  "records": [
    [1,363171,"Vazduh","Libelium","0004A30B0021DF70",44.979,16.7091,"","","Prijedor","",23943139,"2023-12-31T23:49:59",3,"NO ERROR",11.94,82.3,997.26,1.19,1.27,1.27],
    [2,363171,"Vazduh","Libelium","0004A30B0021DF70",44.979,16.7091,"","","Prijedor","",23944295,"2024-01-01T00:50:42",3,"NO ERROR",11.81,82.9,996.54,0.28,0.37,0.38],
    [3,363171,"Vazduh","Libelium","0004A30B0021DF70",44.979,16.7091,"","","Prijedor","",23945198,"2024-01-01T01:51:23",3,"NO ERROR",11.98,83.8,995.52,0.03,0.03,0.03],
    [4,363171,"Vazduh","Libelium","0004A30B0021DF70",44.979,16.7091,"","","Prijedor","",23946025,"2024-01-01T02:52:11",3,"NO ERROR",12.24,84.5,995.19,0.05,0.05,0.05],
    [5,363171,"Vazduh","Libelium","0004A30B0021DF70",44.979,16.7091,"","","Prijedor","",23946938,"2024-01-01T03:52:53",3,"NO ERROR",12.45,81.8,994.35,0.12,0.13,0.13],
    [6,363171,"Vazduh","Libelium","0004A30B0021DF70",44.979,16.7091,"","","Prijedor","",23947887,"2024-01-01T04:53:35",3,"NO ERROR",12.46,83.8,993.8,0.01,0.03,0.04],
    [7,363171,"Vazduh","Libelium","0004A30B0021DF70",44.979,16.7091,"","","Prijedor","",23948791,"2024-01-01T05:54:16",3,"NO ERROR",12.39,95.6,993.71,0.02,0.02,0.02],
    [8,363171,"Vazduh","Libelium","0004A30B0021DF70",44.979,16.7091,"","","Prijedor","",23949648,"2024-01-01T06:54:57",3,"NO ERROR",11.28,100,994.39,0,0,0],
    [9,363171,"Vazduh","Libelium","0004A30B0021DF70",44.979,16.7091,"","","Prijedor","",23950519,"2024-01-01T07:55:39",3,"NO ERROR",10.5,100,995.52,0.21,0.24,0.24],
    [10,363171,"Vazduh","Libelium","0004A30B0021DF70",44.979,16.7091,"","","Prijedor","",23951354,"2024-01-01T08:56:20",3,"NO ERROR",6.81,100,997.77,0.02,0.02,0.02],
    [11,363171,"Vazduh","Libelium","0004A30B0021DF70",44.979,16.7091,"","","Prijedor","",23952171,"2024-01-01T09:57:02",3,"NO ERROR",6.2,100,999.51,0.02,0.02,0.02],
    [12,363171,"Vazduh","Libelium","0004A30B0021DF70",44.979,16.7091,"","","Prijedor","",23953011,"2024-01-01T10:57:44",3,"NO ERROR",7.23,100,1000.08,0,0,0],
    [13,363171,"Vazduh","Libelium","0004A30B0021DF70",44.979,16.7091,"","","Prijedor","",23953953,"2024-01-01T11:58:27",3,"NO ERROR",8.07,100,1000.24,0,0,0],
    [14,363171,"Vazduh","Libelium","0004A30B0021DF70",44.979,16.7091,"","","Prijedor","",23954870,"2024-01-01T12:59:08",3,"NO ERROR",8.64,100,999.89,0,0,0],
    [15,363171,"Vazduh","Libelium","0004A30B0021DF70",44.979,16.7091,"","","Prijedor","",23955771,"2024-01-01T13:59:50",3,"NO ERROR",8.69,100,1000.1,0.04,0.07,0.07],
    [16,363171,"Vazduh","Libelium","0004A30B0021DF70",44.979,16.7091,"","","Prijedor","",23956629,"2024-01-01T15:00:32",3,"NO ERROR",8.5,100,1000.18,0.37,0.47,0.49],
    [17,363171,"Vazduh","Libelium","0004A30B0021DF70",44.979,16.7091,"","","Prijedor","",23957499,"2024-01-01T16:01:14",3,"NO ERROR",8.2,100,1000.22,0.18,0.2,0.2],
    [18,363171,"Vazduh","Libelium","0004A30B0021DF70",44.979,16.7091,"","","Prijedor","",23958371,"2024-01-01T17:01:55",3,"NO ERROR",7.8,100,1000.37,0.17,0.19,0.19],
    [19,363171,"Vazduh","Libelium","0004A30B0021DF70",44.979,16.7091,"","","Prijedor","",23959143,"2024-01-01T18:02:37",3,"NO ERROR",7.08,100,1000.64,0.94,1.07,1.07],
    [20,363171,"Vazduh","Libelium","0004A30B0021DF70",44.979,16.7091,"","","Prijedor","",23959904,"2024-01-01T19:03:25",3,"NO ERROR",6.43,100,1000.83,0.28,0.32,0.32],
    [21,363171,"Vazduh","Libelium","0004A30B0021DF70",44.979,16.7091,"","","Prijedor","",23960815,"2024-01-01T20:04:06",3,"NO ERROR",5.81,100,1000.93,0.19,0.2,0.2],
    [22,363171,"Vazduh","Libelium","0004A30B0021DF70",44.979,16.7091,"","","Prijedor","",23961762,"2024-01-01T21:04:48",3,"NO ERROR",5.53,100,1001.21,2.28,2.6,2.63],
    [23,363171,"Vazduh","Libelium","0004A30B0021DF70",44.979,16.7091,"","","Prijedor","",23962699,"2024-01-01T22:05:30",3,"NO ERROR",4.69,100,1001.65,0.43,0.49,0.49],
    [24,363171,"Vazduh","Libelium","0004A30B0021DF70",44.979,16.7091,"","","Prijedor","",23963629,"2024-01-01T23:06:12",3,"NO ERROR",4.89,100,1001.96,0.4,0.51,0.51],
    [25,363171,"Vazduh","Libelium","0004A30B0021DF70",44.979,16.7091,"","","Prijedor","",23964703,"2024-01-02T00:06:54",3,"NO ERROR",4.54,100,1001.75,1.6,1.78,1.78],
    [26,363171,"Vazduh","Libelium","0004A30B0021DF70",44.979,16.7091,"","","Prijedor","",23965652,"2024-01-02T01:07:35",3,"NO ERROR",4.5,100,1001.55,2.42,2.74,2.74],
    [27,363171,"Vazduh","Libelium","0004A30B0021DF70",44.979,16.7091,"","","Prijedor","",23966577,"2024-01-02T02:08:17",3,"NO ERROR",4.42,100,1001.71,6.82,13.81,161.25],
    [28,363171,"Vazduh","Libelium","0004A30B0021DF70",44.979,16.7091,"","","Prijedor","",24010067,"2024-01-04T01:41:46",3,"NO ERROR",13.86,79.5,989.28,0.24,0.29,0.29],
    [29,363171,"Vazduh","Libelium","0004A30B0021DF70",44.979,16.7091,"","","Prijedor","",24010930,"2024-01-04T02:42:28",3,"NO ERROR",13.84,79.8,989.43,0.18,0.33,0.35],
    [30,363171,"Vazduh","Libelium","0004A30B0021DF70",44.979,16.7091,"","","Prijedor","",24011845,"2024-01-04T03:43:09",3,"NO ERROR",13.52,80.9,989.16,0.07,0.09,0.09],
    [31,363171,"Vazduh","Libelium","0004A30B0021DF70",44.979,16.7091,"","","Prijedor","",24012795,"2024-01-04T04:43:50",3,"NO ERROR",12.5,86,989.34,0.25,0.33,0.34],
    [32,363171,"Vazduh","Libelium","0004A30B0021DF70",44.979,16.7091,"","","Prijedor","",24013728,"2024-01-04T05:44:32",3,"NO ERROR",11.99,90.6,988.95,0.17,0.22,0.22],
    [33,363171,"Vazduh","Libelium","0004A30B0021DF70",44.979,16.7091,"","","Prijedor","",24014677,"2024-01-04T06:45:14",3,"NO ERROR",12.11,86.5,989.37,0.03,0.03,0.03],
    [34,363171,"Vazduh","Libelium","0004A30B0021DF70",44.979,16.7091,"","","Prijedor","",24015563,"2024-01-04T07:45:55",3,"NO ERROR",9.79,99.8,990.2,0.62,0.76,0.76],
    [35,363171,"Vazduh","Libelium","0004A30B0021DF70",44.979,16.7091,"","","Prijedor","",24016436,"2024-01-04T08:46:36",3,"NO ERROR",9.79,100,990.57,0.56,0.93,1.51],
    [36,363171,"Vazduh","Libelium","0004A30B0021DF70",44.979,16.7091,"","","Prijedor","",24017316,"2024-01-04T09:47:18",3,"NO ERROR",13.57,79.3,991.08,0.25,0.49,0.65],
    [37,363171,"Vazduh","Libelium","0004A30B0021DF70",44.979,16.7091,"","","Prijedor","",24018195,"2024-01-04T10:47:59",3,"NO ERROR",15.45,73.8,991.26,0.34,0.6,0.75],
    [38,363171,"Vazduh","Libelium","0004A30B0021DF70",44.979,16.7091,"","","Prijedor","",24019116,"2024-01-04T11:48:41",3,"NO ERROR",16.81,68.3,990.83,0.24,0.3,0.3],
    [39,363171,"Vazduh","Libelium","0004A30B0021DF70",44.979,16.7091,"","","Prijedor","",24020081,"2024-01-04T12:49:22",3,"NO ERROR",17.35,62.3,990.63,0.62,0.94,0.99],
    [40,363171,"Vazduh","Libelium","0004A30B0021DF70",44.979,16.7091,"","","Prijedor","",24020986,"2024-01-04T13:50:03",3,"NO ERROR",18.09,55.7,990.44,0.33,0.5,0.58],
    [41,363171,"Vazduh","Libelium","0004A30B0021DF70",44.979,16.7091,"","","Prijedor","",24021914,"2024-01-04T14:50:44",3,"NO ERROR",20.44,45.6,990.92,0.27,0.69,0.97],
    [42,363171,"Vazduh","Libelium","0004A30B0021DF70",44.979,16.7091,"","","Prijedor","",24022839,"2024-01-04T15:51:25",3,"NO ERROR",18.05,45.6,991.63,0.12,0.17,0.17],
    [43,363171,"Vazduh","Libelium","0004A30B0021DF70",44.979,16.7091,"","","Prijedor","",24023704,"2024-01-04T16:52:13",3,"NO ERROR",13.4,57.5,992.51,0.43,0.64,0.66],
    [44,363171,"Vazduh","Libelium","0004A30B0021DF70",44.979,16.7091,"","","Prijedor","",24024517,"2024-01-04T17:52:55",3,"NO ERROR",11.47,62.8,993.57,0.46,0.58,0.58],
    [45,363171,"Vazduh","Libelium","0004A30B0021DF70",44.979,16.7091,"","","Prijedor","",24025347,"2024-01-04T18:53:36",3,"NO ERROR",10.4,63.8,994.22,0.37,0.44,0.44],
    [46,363171,"Vazduh","Libelium","0004A30B0021DF70",44.979,16.7091,"","","Prijedor","",24026272,"2024-01-04T19:54:17",3,"NO ERROR",7.66,84.6,995.06,3.13,3.73,3.75],
    [47,363171,"Vazduh","Libelium","0004A30B0021DF70",44.979,16.7091,"","","Prijedor","",24027187,"2024-01-04T20:54:58",3,"NO ERROR",6,95.9,995.42,1.11,1.59,2.13],
    [48,363171,"Vazduh","Libelium","0004A30B0021DF70",44.979,16.7091,"","","Prijedor","",24028012,"2024-01-04T21:55:39",3,"NO ERROR",5.1,100,996.18,1.93,2.43,3.05],
    [49,363171,"Vazduh","Libelium","0004A30B0021DF70",44.979,16.7091,"","","Prijedor","",24028858,"2024-01-04T22:56:21",3,"NO ERROR",3.61,100,996.68,0.86,1.31,1.37],
    [50,363171,"Vazduh","Libelium","0004A30B0021DF70",44.979,16.7091,"","","Prijedor","",24029782,"2024-01-04T23:57:03",3,"NO ERROR",2.54,100,996.98,1.09,1.23,1.23],
    [51,363171,"Vazduh","Libelium","0004A30B0021DF70",44.979,16.7091,"","","Prijedor","",24030727,"2024-01-05T00:57:45",3,"NO ERROR",2.2,100,997.29,0.78,0.93,0.93],
    [52,363171,"Vazduh","Libelium","0004A30B0021DF70",44.979,16.7091,"","","Prijedor","",24031601,"2024-01-05T01:58:33",3,"NO ERROR",1.7,100,997.65,0.48,0.6,0.6],
    [53,363171,"Vazduh","Libelium","0004A30B0021DF70",44.979,16.7091,"","","Prijedor","",24032402,"2024-01-05T02:59:15",3,"NO ERROR",0.78,100,997.37,0.42,0.61,0.64],
    [54,363171,"Vazduh","Libelium","0004A30B0021DF70",44.979,16.7091,"","","Prijedor","",24033255,"2024-01-05T03:59:57",3,"NO ERROR",0.74,100,997.54,0.6,0.82,0.97],
    [55,363171,"Vazduh","Libelium","0004A30B0021DF70",44.979,16.7091,"","","Prijedor","",24034142,"2024-01-05T05:00:38",3,"NO ERROR",-0.26,100,997.34,0.46,0.61,0.61],
    [56,363171,"Vazduh","Libelium","0004A30B0021DF70",44.979,16.7091,"","","Prijedor","",24034973,"2024-01-05T06:01:20",3,"NO ERROR",-0.29,100,997.4,0.49,0.61,0.61],
    [57,363171,"Vazduh","Libelium","0004A30B0021DF70",44.979,16.7091,"","","Prijedor","",24035793,"2024-01-05T07:02:01",3,"NO ERROR",-0.47,100,997.51,0.32,0.42,0.42],
    [58,363171,"Vazduh","Libelium","0004A30B0021DF70",44.979,16.7091,"","","Prijedor","",24036663,"2024-01-05T08:02:43",3,"NO ERROR",-0.1,100,997.48,0.43,0.72,0.93],
    [59,363171,"Vazduh","Libelium","0004A30B0021DF70",44.979,16.7091,"","","Prijedor","",24037516,"2024-01-05T09:03:25",3,"NO ERROR",1.16,100,997.19,0.62,0.7,0.7],
    [60,363171,"Vazduh","Libelium","0004A30B0021DF70",44.979,16.7091,"","","Prijedor","",24038358,"2024-01-05T10:04:07",3,"NO ERROR",2.47,100,997.31,0.76,1.03,1.66],
    [61,363171,"Vazduh","Libelium","0004A30B0021DF70",44.979,16.7091,"","","Prijedor","",24039206,"2024-01-05T11:04:49",3,"NO ERROR",3.68,100,996.84,0.96,1.38,1.57],
    [62,363171,"Vazduh","Libelium","0004A30B0021DF70",44.979,16.7091,"","","Prijedor","",24040104,"2024-01-05T12:05:31",3,"NO ERROR",6.61,98.3,995.73,0.71,0.82,0.82],
    [63,363171,"Vazduh","Libelium","0004A30B0021DF70",44.979,16.7091,"","","Prijedor","",24041010,"2024-01-05T13:06:19",3,"NO ERROR",7.29,95.7,994.84,0.7,0.93,0.94],
    [64,363171,"Vazduh","Libelium","0004A30B0021DF70",44.979,16.7091,"","","Prijedor","",24041920,"2024-01-05T14:07:00",3,"NO ERROR",9.22,87.7,994.32,0.32,0.52,0.54],
    [65,363171,"Vazduh","Libelium","0004A30B0021DF70",44.979,16.7091,"","","Prijedor","",24042816,"2024-01-05T15:07:41",3,"NO ERROR",8.87,93.1,993.4,0.6,0.87,1.05],
    [66,363171,"Vazduh","Libelium","0004A30B0021DF70",44.979,16.7091,"","","Prijedor","",24043686,"2024-01-05T16:08:22",3,"NO ERROR",8.38,99.4,993.5,1.45,2.06,2.24],
    [67,363171,"Vazduh","Libelium","0004A30B0021DF70",44.979,16.7091,"","","Prijedor","",24044515,"2024-01-05T17:09:03",3,"NO ERROR",8.21,100,993.39,1.89,2.25,2.25],
    [68,363171,"Vazduh","Libelium","0004A30B0021DF70",44.979,16.7091,"","","Prijedor","",24045305,"2024-01-05T18:09:44",3,"NO ERROR",7.29,100,993.23,2.45,3.42,4.13],
    [69,363171,"Vazduh","Libelium","0004A30B0021DF70",44.979,16.7091,"","","Prijedor","",24046071,"2024-01-05T19:10:26",3,"NO ERROR",6.63,100,992.83,1.92,2.39,2.4],
    [70,363171,"Vazduh","Libelium","0004A30B0021DF70",44.979,16.7091,"","","Prijedor","",24046968,"2024-01-05T20:11:07",3,"NO ERROR",6.62,100,992.39,1.71,2.14,2.28],
    [71,363171,"Vazduh","Libelium","0004A30B0021DF70",44.979,16.7091,"","","Prijedor","",24047826,"2024-01-05T21:11:49",3,"NO ERROR",6.02,100,992.05,1.18,1.44,1.47],
    [72,363171,"Vazduh","Libelium","0004A30B0021DF70",44.979,16.7091,"","","Prijedor","",24048685,"2024-01-05T22:12:31",3,"NO ERROR",5.91,100,992.02,0.48,0.61,0.61],
    [73,363171,"Vazduh","Libelium","0004A30B0021DF70",44.979,16.7091,"","","Prijedor","",24049538,"2024-01-05T23:13:12",3,"NO ERROR",6.06,100,991.3,0.9,1.15,1.16],
    [74,363171,"Vazduh","Libelium","0004A30B0021DF70",44.979,16.7091,"","","Prijedor","",24050577,"2024-01-06T00:13:53",3,"NO ERROR",6.7,100,990.67,1.52,1.85,1.85],
    [75,363171,"Vazduh","Libelium","0004A30B0021DF70",44.979,16.7091,"","","Prijedor","",24051429,"2024-01-06T01:14:34",3,"NO ERROR",6.81,100,990.01,1.34,1.91,2.07],
    [76,363171,"Vazduh","Libelium","0004A30B0021DF70",44.979,16.7091,"","","Prijedor","",24052300,"2024-01-06T02:15:15",3,"NO ERROR",6.87,100,989.5,1.76,2.11,2.12],
    [77,363171,"Vazduh","Libelium","0004A30B0021DF70",44.979,16.7091,"","","Prijedor","",24053194,"2024-01-06T03:15:57",3,"NO ERROR",6.18,100,988.75,1.74,2.16,2.3],
    [78,363171,"Vazduh","Libelium","0004A30B0021DF70",44.979,16.7091,"","","Prijedor","",24054148,"2024-01-06T04:16:39",3,"NO ERROR",6.4,100,988.13,1.25,1.47,1.47],
    [79,363171,"Vazduh","Libelium","0004A30B0021DF70",44.979,16.7091,"","","Prijedor","",24055126,"2024-01-06T05:17:26",3,"NO ERROR",5.9,100,987.85,1.74,2.12,2.13],
    [80,363171,"Vazduh","Libelium","0004A30B0021DF70",44.979,16.7091,"","","Prijedor","",24056010,"2024-01-06T06:18:07",3,"NO ERROR",6.46,100,987.38,1.09,1.36,1.37],
    [81,363171,"Vazduh","Libelium","0004A30B0021DF70",44.979,16.7091,"","","Prijedor","",24056911,"2024-01-06T07:18:50",3,"NO ERROR",6.38,100,987.57,0.87,1,1],
    [82,363171,"Vazduh","Libelium","0004A30B0021DF70",44.979,16.7091,"","","Prijedor","",24057848,"2024-01-06T08:19:31",3,"NO ERROR",6.4,100,987.32,1.54,1.93,1.94],
    [83,363171,"Vazduh","Libelium","0004A30B0021DF70",44.979,16.7091,"","","Prijedor","",24058724,"2024-01-06T09:20:13",3,"NO ERROR",7.03,100,987.42,0.6,0.76,0.77],
    [84,363171,"Vazduh","Libelium","0004A30B0021DF70",44.979,16.7091,"","","Prijedor","",24059562,"2024-01-06T10:20:55",3,"NO ERROR",7.71,100,987.46,0.72,0.86,0.86],
    [85,363171,"Vazduh","Libelium","0004A30B0021DF70",44.979,16.7091,"","","Prijedor","",24060511,"2024-01-06T11:21:42",3,"NO ERROR",8.51,100,986.89,0.8,1.05,1.2],
    [86,363171,"Vazduh","Libelium","0004A30B0021DF70",44.979,16.7091,"","","Prijedor","",24061477,"2024-01-06T12:22:24",3,"NO ERROR",8.92,100,985.88,0.94,1.2,1.23],
    [87,363171,"Vazduh","Libelium","0004A30B0021DF70",44.979,16.7091,"","","Prijedor","",24062354,"2024-01-06T13:23:06",3,"NO ERROR",9.59,100,985.21,0.82,0.88,0.88],
    [88,363171,"Vazduh","Libelium","0004A30B0021DF70",44.979,16.7091,"","","Prijedor","",24063315,"2024-01-06T14:23:48",3,"NO ERROR",9.97,100,984.91,1.07,1.25,1.25],
    [89,363171,"Vazduh","Libelium","0004A30B0021DF70",44.979,16.7091,"","","Prijedor","",24064195,"2024-01-06T15:24:36",3,"NO ERROR",10.2,100,984.57,1.02,1.25,1.26],
    [90,363171,"Vazduh","Libelium","0004A30B0021DF70",44.979,16.7091,"","","Prijedor","",24065109,"2024-01-06T16:25:17",3,"NO ERROR",10.31,100,984.73,1.38,1.88,1.9],
    [91,363171,"Vazduh","Libelium","0004A30B0021DF70",44.979,16.7091,"","","Prijedor","",24065988,"2024-01-06T17:25:59",3,"NO ERROR",9.67,100,984.96,1.96,2.43,2.48],
    [92,363171,"Vazduh","Libelium","0004A30B0021DF70",44.979,16.7091,"","","Prijedor","",24066785,"2024-01-06T18:26:41",3,"NO ERROR",9.54,100,985.3,4.11,5.12,5.17],
    [93,363171,"Vazduh","Libelium","0004A30B0021DF70",44.979,16.7091,"","","Prijedor","",24067637,"2024-01-06T19:27:22",3,"NO ERROR",9.01,100,985.35,37.37,44.73,44.9],
    [94,363171,"Vazduh","Libelium","0004A30B0021DF70",44.979,16.7091,"","","Prijedor","",24068572,"2024-01-06T20:28:04",3,"NO ERROR",8.91,100,984.51,3.13,3.49,3.5],
    [95,363171,"Vazduh","Libelium","0004A30B0021DF70",44.979,16.7091,"","","Prijedor","",24069479,"2024-01-06T21:28:45",3,"NO ERROR",8.88,100,984.01,4.44,5.14,5.15],
    [96,363171,"Vazduh","Libelium","0004A30B0021DF70",44.979,16.7091,"","","Prijedor","",24070329,"2024-01-06T22:29:27",3,"NO ERROR",8.48,100,983.61,0.86,0.92,0.92],
    [97,363171,"Vazduh","Libelium","0004A30B0021DF70",44.979,16.7091,"","","Prijedor","",24071167,"2024-01-06T23:30:08",3,"NO ERROR",7.17,100,983.44,0.07,0.09,0.09],
    [98,363171,"Vazduh","Libelium","0004A30B0021DF70",44.979,16.7091,"","","Prijedor","",24072176,"2024-01-07T00:30:50",3,"NO ERROR",6.42,100,983.49,0.66,0.76,0.76],
    [99,363171,"Vazduh","Libelium","0004A30B0021DF70",44.979,16.7091,"","","Prijedor","",24073003,"2024-01-07T01:31:32",3,"NO ERROR",6.36,100,983.53,0.66,0.75,0.76],
    [100,363171,"Vazduh","Libelium","0004A30B0021DF70",44.979,16.7091,"","","Prijedor","",24073831,"2024-01-07T02:32:14",3,"NO ERROR",6.19,100,983.97,1.84,2.2,2.2],
    [101,363171,"Vazduh","Libelium","0004A30B0021DF70",44.979,16.7091,"","","Prijedor","",24074649,"2024-01-07T03:32:55",3,"NO ERROR",6.19,100,984.25,2.74,3.31,3.48],
    [102,363171,"Vazduh","Libelium","0004A30B0021DF70",44.979,16.7091,"","","Prijedor","",24075554,"2024-01-07T04:33:37",3,"NO ERROR",6.1,100,984.26,1.73,2.01,2.02],
    [103,363171,"Vazduh","Libelium","0004A30B0021DF70",44.979,16.7091,"","","Prijedor","",24076458,"2024-01-07T05:34:18",3,"NO ERROR",5.91,100,984.33,0.9,1.16,1.18],
    [104,363171,"Vazduh","Libelium","0004A30B0021DF70",44.979,16.7091,"","","Prijedor","",24077277,"2024-01-07T06:35:00",3,"NO ERROR",5.74,100,984.57,0.7,0.73,0.73],
    [105,363171,"Vazduh","Libelium","0004A30B0021DF70",44.979,16.7091,"","","Prijedor","",24078082,"2024-01-07T07:35:42",3,"NO ERROR",5.39,100,985.09,0.95,1.24,1.38],
    [106,363171,"Vazduh","Libelium","0004A30B0021DF70",44.979,16.7091,"","","Prijedor","",24078933,"2024-01-07T08:36:30",3,"NO ERROR",4.94,100,986.2,0.51,0.59,0.59],
    [107,363171,"Vazduh","Libelium","0004A30B0021DF70",44.979,16.7091,"","","Prijedor","",24079777,"2024-01-07T09:37:11",3,"NO ERROR",4.5,100,987.21,0.12,0.12,0.12],
    [108,363171,"Vazduh","Libelium","0004A30B0021DF70",44.979,16.7091,"","","Prijedor","",24080587,"2024-01-07T10:37:53",3,"NO ERROR",4.33,100,987.56,0.11,0.12,0.12],
    [109,363171,"Vazduh","Libelium","0004A30B0021DF70",44.979,16.7091,"","","Prijedor","",24081471,"2024-01-07T11:38:41",3,"NO ERROR",3.78,100,987.99,0.07,0.07,0.07],
    [110,363171,"Vazduh","Libelium","0004A30B0021DF70",44.979,16.7091,"","","Prijedor","",24082384,"2024-01-07T12:39:22",3,"NO ERROR",2.99,100,987.81,0.03,0.03,0.03],
    [111,363171,"Vazduh","Libelium","0004A30B0021DF70",44.979,16.7091,"","","Prijedor","",24083260,"2024-01-07T13:40:04",3,"NO ERROR",2.66,100,988.31,0.19,0.24,0.24],
    [112,363171,"Vazduh","Libelium","0004A30B0021DF70",44.979,16.7091,"","","Prijedor","",24084120,"2024-01-07T14:40:45",3,"NO ERROR",2.06,100,988.91,0.11,0.13,0.13],
    [113,363171,"Vazduh","Libelium","0004A30B0021DF70",44.979,16.7091,"","","Prijedor","",24084954,"2024-01-07T15:41:26",3,"NO ERROR",1.6,100,989.56,0.03,0.03,0.03],
    [114,363171,"Vazduh","Libelium","0004A30B0021DF70",44.979,16.7091,"","","Prijedor","",24085755,"2024-01-07T16:42:07",3,"NO ERROR",1.13,100,990.4,0.05,0.05,0.05],
    [115,363171,"Vazduh","Libelium","0004A30B0021DF70",44.979,16.7091,"","","Prijedor","",24086568,"2024-01-07T17:42:49",3,"NO ERROR",0.89,100,991.25,0.29,0.47,0.6],
    [116,363171,"Vazduh","Libelium","0004A30B0021DF70",44.979,16.7091,"","","Prijedor","",24087354,"2024-01-07T18:43:30",3,"NO ERROR",0.65,100,992.12,0.08,0.11,0.11],
    [117,363171,"Vazduh","Libelium","0004A30B0021DF70",44.979,16.7091,"","","Prijedor","",24088189,"2024-01-07T19:44:19",3,"NO ERROR",0.38,100,993.09,1.92,5.1,9.14],
    [118,363171,"Vazduh","Libelium","0004A30B0021DF70",44.979,16.7091,"","","Prijedor","",24089061,"2024-01-07T20:45:01",3,"NO ERROR",0.34,100,993.91,1.27,2.01,8.1],
    [119,363171,"Vazduh","Libelium","0004A30B0021DF70",44.979,16.7091,"","","Prijedor","",24089939,"2024-01-07T21:45:43",3,"NO ERROR",0.29,100,994.72,0.58,0.79,0.79],
    [120,363171,"Vazduh","Libelium","0004A30B0021DF70",44.979,16.7091,"","","Prijedor","",24090766,"2024-01-07T22:46:24",3,"NO ERROR",0.23,100,995.44,0.12,0.17,0.17],
    [121,363171,"Vazduh","Libelium","0004A30B0021DF70",44.979,16.7091,"","","Prijedor","",24091595,"2024-01-07T23:47:06",3,"NO ERROR",-0.13,100,995.95,0.05,0.05,0.05],
    [122,363171,"Vazduh","Libelium","0004A30B0021DF70",44.979,16.7091,"","","Prijedor","",24092657,"2024-01-08T00:47:47",3,"NO ERROR",-0.31,100,996.49,0.4,0.48,0.48],
    [123,363171,"Vazduh","Libelium","0004A30B0021DF70",44.979,16.7091,"","","Prijedor","",24093513,"2024-01-08T01:48:29",3,"NO ERROR",-0.49,100,997.22,0.15,0.16,0.16],
    [124,363171,"Vazduh","Libelium","0004A30B0021DF70",44.979,16.7091,"","","Prijedor","",24094361,"2024-01-08T02:49:17",3,"NO ERROR",-0.71,100,997.51,0.07,0.1,0.1],
    [125,363171,"Vazduh","Libelium","0004A30B0021DF70",44.979,16.7091,"","","Prijedor","",24095298,"2024-01-08T03:49:58",3,"NO ERROR",-0.7,100,997.75,0.03,0.03,0.03],
    [126,363171,"Vazduh","Libelium","0004A30B0021DF70",44.979,16.7091,"","","Prijedor","",24096288,"2024-01-08T04:50:39",3,"NO ERROR",-1.06,100,998.28,0.08,0.09,0.09],
    [127,363171,"Vazduh","Libelium","0004A30B0021DF70",44.979,16.7091,"","","Prijedor","",24097263,"2024-01-08T05:51:20",3,"NO ERROR",-1.37,100,999.1,0.29,0.37,0.37],
    [128,363171,"Vazduh","Libelium","0004A30B0021DF70",44.979,16.7091,"","","Prijedor","",24098253,"2024-01-08T06:52:02",3,"NO ERROR",-1.46,100,999.8,0.12,0.17,0.17],
    [129,363171,"Vazduh","Libelium","0004A30B0021DF70",44.979,16.7091,"","","Prijedor","",24099258,"2024-01-08T07:52:44",3,"NO ERROR",-1.56,100,1000.49,0.12,0.14,0.14],
    [130,363171,"Vazduh","Libelium","0004A30B0021DF70",44.979,16.7091,"","","Prijedor","",24100360,"2024-01-08T08:53:25",3,"NO ERROR",-1.66,100,1001.28,0.45,0.62,0.62],
    [131,363171,"Vazduh","Libelium","0004A30B0021DF70",44.979,16.7091,"","","Prijedor","",24101531,"2024-01-08T09:54:07",3,"NO ERROR",-1.23,100,1002.13,0.28,0.31,0.31],
    [132,363171,"Vazduh","Libelium","0004A30B0021DF70",44.979,16.7091,"","","Prijedor","",24102601,"2024-01-08T10:54:49",3,"NO ERROR",-1.19,100,1002.38,0.06,0.07,0.07],
    [133,363171,"Vazduh","Libelium","0004A30B0021DF70",44.979,16.7091,"","","Prijedor","",24103778,"2024-01-08T11:55:31",3,"NO ERROR",-0.88,100,1002.29,0.33,0.35,0.35],
    [134,363171,"Vazduh","Libelium","0004A30B0021DF70",44.979,16.7091,"","","Prijedor","",24104994,"2024-01-08T12:56:12",3,"NO ERROR",-1,100,1002.45,0.15,0.17,0.17],
    [135,363171,"Vazduh","Libelium","0004A30B0021DF70",44.979,16.7091,"","","Prijedor","",24106068,"2024-01-08T13:56:53",3,"NO ERROR",-1.3,100,1002.54,0.07,0.08,0.08],
    [136,363171,"Vazduh","Libelium","0004A30B0021DF70",44.979,16.7091,"","","Prijedor","",24107141,"2024-01-08T14:57:34",3,"NO ERROR",-1.43,100,1003.37,0.03,0.03,0.03],
    [137,363171,"Vazduh","Libelium","0004A30B0021DF70",44.979,16.7091,"","","Prijedor","",24108192,"2024-01-08T15:58:16",3,"NO ERROR",-1.56,100,1004.16,0.67,0.76,0.76],
    [138,363171,"Vazduh","Libelium","0004A30B0021DF70",44.979,16.7091,"","","Prijedor","",24109060,"2024-01-08T16:58:58",3,"NO ERROR",-1.71,100,1004.91,0.07,0.07,0.07],
    [139,363171,"Vazduh","Libelium","0004A30B0021DF70",44.979,16.7091,"","","Prijedor","",24109830,"2024-01-08T17:59:39",3,"NO ERROR",-1.96,100,1005.51,0.13,0.15,0.15],
    [140,363171,"Vazduh","Libelium","0004A30B0021DF70",44.979,16.7091,"","","Prijedor","",24110609,"2024-01-08T19:00:21",3,"NO ERROR",-1.88,100,1006.37,0.28,0.3,0.3],
    [141,363171,"Vazduh","Libelium","0004A30B0021DF70",44.979,16.7091,"","","Prijedor","",24111415,"2024-01-08T20:01:03",3,"NO ERROR",-2.23,100,1007.19,0.36,0.39,0.39],
    [142,363171,"Vazduh","Libelium","0004A30B0021DF70",44.979,16.7091,"","","Prijedor","",24112246,"2024-01-08T21:01:51",3,"NO ERROR",-2.44,100,1007.83,0.05,0.05,0.05],
    [143,363171,"Vazduh","Libelium","0004A30B0021DF70",44.979,16.7091,"","","Prijedor","",24113053,"2024-01-08T22:02:33",3,"NO ERROR",-2.57,100,1008.3,0.48,0.56,0.56],
    [144,363171,"Vazduh","Libelium","0004A30B0021DF70",44.979,16.7091,"","","Prijedor","",24113841,"2024-01-08T23:03:14",3,"NO ERROR",-2.7,100,1008.77,0.23,0.31,0.39],
    [145,363171,"Vazduh","Libelium","0004A30B0021DF70",44.979,16.7091,"","","Prijedor","",24114835,"2024-01-09T00:03:55",3,"NO ERROR",-2.99,100,1009.17,0.34,0.4,0.4],
    [146,363171,"Vazduh","Libelium","0004A30B0021DF70",44.979,16.7091,"","","Prijedor","",24115669,"2024-01-09T01:04:36",3,"NO ERROR",-2.85,100,1009.44,0.34,0.42,0.42],
    [147,363171,"Vazduh","Libelium","0004A30B0021DF70",44.979,16.7091,"","","Prijedor","",24116470,"2024-01-09T02:05:18",3,"NO ERROR",-2.77,100,1009.94,0.38,0.47,0.47],
    [148,363171,"Vazduh","Libelium","0004A30B0021DF70",44.979,16.7091,"","","Prijedor","",24117235,"2024-01-09T03:05:59",3,"NO ERROR",-2.76,100,1010.44,0.25,0.3,0.3],
    [149,363171,"Vazduh","Libelium","0004A30B0021DF70",44.979,16.7091,"","","Prijedor","",24118091,"2024-01-09T04:06:41",3,"NO ERROR",-2.78,100,1010.48,0.27,0.29,0.29],
    [150,363171,"Vazduh","Libelium","0004A30B0021DF70",44.979,16.7091,"","","Prijedor","",24118972,"2024-01-09T05:07:22",3,"NO ERROR",-2.95,100,1010.86,0.06,0.07,0.07],
    [151,363171,"Vazduh","Libelium","0004A30B0021DF70",44.979,16.7091,"","","Prijedor","",24119852,"2024-01-09T06:08:04",3,"NO ERROR",-3.11,100,1011.37,0.27,0.34,0.34],
    [152,363171,"Vazduh","Libelium","0004A30B0021DF70",44.979,16.7091,"","","Prijedor","",24120754,"2024-01-09T07:08:46",3,"NO ERROR",-3.22,100,1011.89,0.44,0.56,0.56],
    [153,363171,"Vazduh","Libelium","0004A30B0021DF70",44.979,16.7091,"","","Prijedor","",24121753,"2024-01-09T08:09:27",3,"NO ERROR",-3.2,100,1012.61,0.34,0.37,0.37],
    [154,363171,"Vazduh","Libelium","0004A30B0021DF70",44.979,16.7091,"","","Prijedor","",24122832,"2024-01-09T09:10:09",3,"NO ERROR",-3.04,100,1013.48,0.29,0.38,0.4],
    [155,363171,"Vazduh","Libelium","0004A30B0021DF70",44.979,16.7091,"","","Prijedor","",24123921,"2024-01-09T10:10:51",3,"NO ERROR",-2.85,100,1014.1,0.06,0.08,0.09],
    [156,363171,"Vazduh","Libelium","0004A30B0021DF70",44.979,16.7091,"","","Prijedor","",24125026,"2024-01-09T11:11:32",3,"NO ERROR",-2.66,100,1014.48,0.64,0.69,0.69],
    [157,363171,"Vazduh","Libelium","0004A30B0021DF70",44.979,16.7091,"","","Prijedor","",24126124,"2024-01-09T12:12:14",3,"NO ERROR",-2.48,100,1014.44,0.48,0.55,0.55],
    [158,363171,"Vazduh","Libelium","0004A30B0021DF70",44.979,16.7091,"","","Prijedor","",24127340,"2024-01-09T13:12:56",3,"NO ERROR",-2.57,100,1014.62,0.2,0.25,0.25],
    [159,363171,"Vazduh","Libelium","0004A30B0021DF70",44.979,16.7091,"","","Prijedor","",24128493,"2024-01-09T14:13:38",3,"NO ERROR",-2.65,100,1014.8,0.45,0.57,0.57],
    [160,363171,"Vazduh","Libelium","0004A30B0021DF70",44.979,16.7091,"","","Prijedor","",24129595,"2024-01-09T15:14:20",3,"NO ERROR",-2.41,100,1015.18,0.34,0.36,0.36],
    [161,363171,"Vazduh","Libelium","0004A30B0021DF70",44.979,16.7091,"","","Prijedor","",24130548,"2024-01-09T16:15:02",3,"NO ERROR",-2.45,100,1015.39,0.66,0.84,0.85],
    [162,363171,"Vazduh","Libelium","0004A30B0021DF70",44.979,16.7091,"","","Prijedor","",24131410,"2024-01-09T17:15:44",3,"NO ERROR",-2.5,100,1015.83,0.2,0.23,0.23],
    [163,363171,"Vazduh","Libelium","0004A30B0021DF70",44.979,16.7091,"","","Prijedor","",24132177,"2024-01-09T18:16:25",3,"NO ERROR",-2.5,100,1016.3,1.16,1.36,1.37],
    [164,363171,"Vazduh","Libelium","0004A30B0021DF70",44.979,16.7091,"","","Prijedor","",24133003,"2024-01-09T19:17:06",3,"NO ERROR",-2.44,100,1016.57,1.26,1.58,2.19],
    [165,363171,"Vazduh","Libelium","0004A30B0021DF70",44.979,16.7091,"","","Prijedor","",24133910,"2024-01-09T20:17:48",3,"NO ERROR",-1.44,100,1016.7,1.14,1.34,1.34],
    [166,363171,"Vazduh","Libelium","0004A30B0021DF70",44.979,16.7091,"","","Prijedor","",24134783,"2024-01-09T21:18:30",3,"NO ERROR",-1.83,100,1016.77,0.37,0.38,0.38],
    [167,363171,"Vazduh","Libelium","0004A30B0021DF70",44.979,16.7091,"","","Prijedor","",24135657,"2024-01-09T22:19:11",3,"NO ERROR",-1.68,100,1016.97,1.09,1.27,1.27],
    [168,363171,"Vazduh","Libelium","0004A30B0021DF70",44.979,16.7091,"","","Prijedor","",24136559,"2024-01-09T23:19:52",3,"NO ERROR",-2.02,100,1016.93,0.35,0.45,0.46],
    [169,363171,"Vazduh","Libelium","0004A30B0021DF70",44.979,16.7091,"","","Prijedor","",24137668,"2024-01-10T00:20:34",3,"NO ERROR",-2.08,100,1016.92,0.63,0.67,0.67],
    [170,363171,"Vazduh","Libelium","0004A30B0021DF70",44.979,16.7091,"","","Prijedor","",24138576,"2024-01-10T01:21:15",3,"NO ERROR",-1.96,100,1016.75,0.34,0.42,0.42],
    [171,363171,"Vazduh","Libelium","0004A30B0021DF70",44.979,16.7091,"","","Prijedor","",24139425,"2024-01-10T02:21:57",3,"NO ERROR",-1.89,100,1016.8,0.56,0.6,0.6],
    [172,363171,"Vazduh","Libelium","0004A30B0021DF70",44.979,16.7091,"","","Prijedor","",24140301,"2024-01-10T03:22:40",3,"NO ERROR",-2.17,100,1016.68,0.29,0.34,0.34],
    [173,363171,"Vazduh","Libelium","0004A30B0021DF70",44.979,16.7091,"","","Prijedor","",24141286,"2024-01-10T04:23:21",3,"NO ERROR",-2.12,100,1016.4,0.35,0.43,0.43],
    [174,363171,"Vazduh","Libelium","0004A30B0021DF70",44.979,16.7091,"","","Prijedor","",24142233,"2024-01-10T05:24:08",3,"NO ERROR",-2.33,100,1016.48,0.71,0.8,0.8],
    [175,363171,"Vazduh","Libelium","0004A30B0021DF70",44.979,16.7091,"","","Prijedor","",24143158,"2024-01-10T06:24:50",3,"NO ERROR",-2.14,100,1016.95,0.94,0.98,0.98],
    [176,363171,"Vazduh","Libelium","0004A30B0021DF70",44.979,16.7091,"","","Prijedor","",24144059,"2024-01-10T07:25:32",3,"NO ERROR",-2,100,1017.07,0.09,0.13,0.14],
    [177,363171,"Vazduh","Libelium","0004A30B0021DF70",44.979,16.7091,"","","Prijedor","",24144966,"2024-01-10T08:26:13",3,"NO ERROR",-1.63,100,1017.54,0.25,0.28,0.28],
    [178,363171,"Vazduh","Libelium","0004A30B0021DF70",44.979,16.7091,"","","Prijedor","",24145826,"2024-01-10T09:26:54",3,"NO ERROR",-1.47,100,1017.85,0.43,0.51,0.51],
    [179,363171,"Vazduh","Libelium","0004A30B0021DF70",44.979,16.7091,"","","Prijedor","",24146655,"2024-01-10T10:27:37",3,"NO ERROR",-0.88,100,1018,0.16,0.19,0.19],
    [180,363171,"Vazduh","Libelium","0004A30B0021DF70",44.979,16.7091,"","","Prijedor","",24147583,"2024-01-10T11:28:19",3,"NO ERROR",-0.38,95.9,1017.71,0.5,0.55,0.55],
    [181,363171,"Vazduh","Libelium","0004A30B0021DF70",44.979,16.7091,"","","Prijedor","",24148533,"2024-01-10T12:29:01",3,"NO ERROR",-0.8,100,1017.38,0.39,0.47,0.47],
    [182,363171,"Vazduh","Libelium","0004A30B0021DF70",44.979,16.7091,"","","Prijedor","",24149480,"2024-01-10T13:29:43",3,"NO ERROR",-1.04,100,1016.93,0.36,0.51,0.66],
    [183,363171,"Vazduh","Libelium","0004A30B0021DF70",44.979,16.7091,"","","Prijedor","",24150387,"2024-01-10T14:30:25",3,"NO ERROR",-0.81,100,1016.95,0.62,0.71,0.71],
    [184,363171,"Vazduh","Libelium","0004A30B0021DF70",44.979,16.7091,"","","Prijedor","",24151288,"2024-01-10T15:31:06",3,"NO ERROR",-0.93,100,1017.02,0.7,0.92,0.92],
    [185,363171,"Vazduh","Libelium","0004A30B0021DF70",44.979,16.7091,"","","Prijedor","",24152159,"2024-01-10T16:31:47",3,"NO ERROR",-1.66,100,1016.89,0.73,0.89,0.89],
    [186,363171,"Vazduh","Libelium","0004A30B0021DF70",44.979,16.7091,"","","Prijedor","",24153030,"2024-01-10T17:32:29",3,"NO ERROR",-2.87,100,1016.94,0.15,0.2,0.2],
    [187,363171,"Vazduh","Libelium","0004A30B0021DF70",44.979,16.7091,"","","Prijedor","",24153814,"2024-01-10T18:33:12",3,"NO ERROR",-3.87,100,1016.98,0.79,1.08,1.3],
    [188,363171,"Vazduh","Libelium","0004A30B0021DF70",44.979,16.7091,"","","Prijedor","",24154668,"2024-01-10T19:33:54",3,"NO ERROR",-3.64,100,1016.93,0.74,0.81,0.81],
    [189,363171,"Vazduh","Libelium","0004A30B0021DF70",44.979,16.7091,"","","Prijedor","",24155608,"2024-01-10T20:34:36",3,"NO ERROR",-2.97,100,1016.97,0.18,0.21,0.21],
    [190,363171,"Vazduh","Libelium","0004A30B0021DF70",44.979,16.7091,"","","Prijedor","",24156494,"2024-01-10T21:35:18",3,"NO ERROR",-2.65,100,1016.7,0.31,0.34,0.34],
    [191,363171,"Vazduh","Libelium","0004A30B0021DF70",44.979,16.7091,"","","Prijedor","",24157345,"2024-01-10T22:35:59",3,"NO ERROR",-2.57,100,1016.58,0.37,0.43,0.43],
    [192,363171,"Vazduh","Libelium","0004A30B0021DF70",44.979,16.7091,"","","Prijedor","",24158242,"2024-01-10T23:36:41",3,"NO ERROR",-2.56,100,1016.34,0.44,0.53,0.53],
    [193,363171,"Vazduh","Libelium","0004A30B0021DF70",44.979,16.7091,"","","Prijedor","",24159355,"2024-01-11T00:37:23",3,"NO ERROR",-2.65,100,1015.79,0.16,0.19,0.19],
    [194,363171,"Vazduh","Libelium","0004A30B0021DF70",44.979,16.7091,"","","Prijedor","",24160208,"2024-01-11T01:38:06",3,"NO ERROR",-2.51,100,1015.47,0.55,0.59,0.59],
    [195,363171,"Vazduh","Libelium","0004A30B0021DF70",44.979,16.7091,"","","Prijedor","",24161050,"2024-01-11T02:38:48",3,"NO ERROR",-2.63,100,1015.37,0.9,0.95,0.95],
    [196,363171,"Vazduh","Libelium","0004A30B0021DF70",44.979,16.7091,"","","Prijedor","",24161918,"2024-01-11T03:39:29",3,"NO ERROR",-2.66,100,1015.08,0.33,0.37,0.37],
    [197,363171,"Vazduh","Libelium","0004A30B0021DF70",44.979,16.7091,"","","Prijedor","",24162848,"2024-01-11T04:40:17",3,"NO ERROR",-2.75,100,1014.72,0.42,0.47,0.47],
    [198,363171,"Vazduh","Libelium","0004A30B0021DF70",44.979,16.7091,"","","Prijedor","",24163714,"2024-01-11T05:40:59",3,"NO ERROR",-2.75,100,1014.42,0.13,0.14,0.14],
    [199,363171,"Vazduh","Libelium","0004A30B0021DF70",44.979,16.7091,"","","Prijedor","",24164604,"2024-01-11T06:41:41",3,"NO ERROR",-2.87,100,1014.01,0.69,0.83,0.83],
    [200,363171,"Vazduh","Libelium","0004A30B0021DF70",44.979,16.7091,"","","Prijedor","",24165486,"2024-01-11T07:42:22",3,"NO ERROR",-2.8,100,1013.89,0.36,0.4,0.4],
    [201,363171,"Vazduh","Libelium","0004A30B0021DF70",44.979,16.7091,"","","Prijedor","",24166367,"2024-01-11T08:43:04",3,"NO ERROR",-2.49,100,1014.18,0.57,0.67,0.68],
    [202,363171,"Vazduh","Libelium","0004A30B0021DF70",44.979,16.7091,"","","Prijedor","",24167218,"2024-01-11T09:43:45",3,"NO ERROR",-1.52,100,1013.97,0.56,0.63,0.64],
    [203,363171,"Vazduh","Libelium","0004A30B0021DF70",44.979,16.7091,"","","Prijedor","",24168033,"2024-01-11T10:44:27",3,"NO ERROR",-1.21,100,1013.6,0.83,0.99,1.02],
    [204,363171,"Vazduh","Libelium","0004A30B0021DF70",44.979,16.7091,"","","Prijedor","",24168957,"2024-01-11T11:45:08",3,"NO ERROR",-0.57,98.1,1012.98,0.53,0.64,0.64],
    [205,363171,"Vazduh","Libelium","0004A30B0021DF70",44.979,16.7091,"","","Prijedor","",24169926,"2024-01-11T12:45:50",3,"NO ERROR",-0.33,94.8,1011.94,0.43,0.59,0.62],
    [206,363171,"Vazduh","Libelium","0004A30B0021DF70",44.979,16.7091,"","","Prijedor","",24170824,"2024-01-11T13:46:37",3,"NO ERROR",-0.54,95.9,1011.29,0.53,0.61,0.61],
    [207,363171,"Vazduh","Libelium","0004A30B0021DF70",44.979,16.7091,"","","Prijedor","",24183281,"2024-01-12T03:56:22",3,"NO ERROR",-5.36,100,1010.79,0.73,0.82,0.82],
    [208,363171,"Vazduh","Libelium","0004A30B0021DF70",44.979,16.7091,"","","Prijedor","",24184231,"2024-01-12T04:57:04",3,"NO ERROR",-5.02,100,1010.64,0.58,0.65,0.65],
    [209,363171,"Vazduh","Libelium","0004A30B0021DF70",44.979,16.7091,"","","Prijedor","",24185153,"2024-01-12T05:57:46",3,"NO ERROR",-4.46,100,1010.87,0.27,0.29,0.29],
    [210,363171,"Vazduh","Libelium","0004A30B0021DF70",44.979,16.7091,"","","Prijedor","",24186042,"2024-01-12T06:58:28",3,"NO ERROR",-4.48,100,1011.25,0.68,0.74,0.74],
    [211,363171,"Vazduh","Libelium","0004A30B0021DF70",44.979,16.7091,"","","Prijedor","",24186975,"2024-01-12T07:59:15",3,"NO ERROR",-3.92,100,1011.62,0.1,0.11,0.11],
    [212,363171,"Vazduh","Libelium","0004A30B0021DF70",44.979,16.7091,"","","Prijedor","",24187815,"2024-01-12T08:59:56",3,"NO ERROR",-3.29,100,1012.06,0.34,0.36,0.36],
    [213,363171,"Vazduh","Libelium","0004A30B0021DF70",44.979,16.7091,"","","Prijedor","",24188634,"2024-01-12T10:00:37",3,"NO ERROR",-1.59,100,1012.5,0.15,0.15,0.15],
    [214,363171,"Vazduh","Libelium","0004A30B0021DF70",44.979,16.7091,"","","Prijedor","",24189476,"2024-01-12T11:01:19",3,"NO ERROR",0.13,100,1012.62,0.11,0.16,0.16],
    [215,363171,"Vazduh","Libelium","0004A30B0021DF70",44.979,16.7091,"","","Prijedor","",24190410,"2024-01-12T12:02:01",3,"NO ERROR",2.15,93.4,1012.09,0.06,0.12,0.18],
    [216,363171,"Vazduh","Libelium","0004A30B0021DF70",44.979,16.7091,"","","Prijedor","",24191348,"2024-01-12T13:02:42",3,"NO ERROR",2.12,93.3,1011.61,0.4,0.43,0.43],
    [217,363171,"Vazduh","Libelium","0004A30B0021DF70",44.979,16.7091,"","","Prijedor","",24192266,"2024-01-12T14:03:23",3,"NO ERROR",2.03,100,1011.55,0.06,0.08,0.08],
    [218,363171,"Vazduh","Libelium","0004A30B0021DF70",44.979,16.7091,"","","Prijedor","",24193142,"2024-01-12T15:04:05",3,"NO ERROR",4.28,86.7,1011.46,0.39,0.47,0.47],
    [219,363171,"Vazduh","Libelium","0004A30B0021DF70",44.979,16.7091,"","","Prijedor","",24193992,"2024-01-12T16:04:46",3,"NO ERROR",0.82,100,1011.58,0.27,0.35,0.35],
    [220,363171,"Vazduh","Libelium","0004A30B0021DF70",44.979,16.7091,"","","Prijedor","",24194828,"2024-01-12T17:05:28",3,"NO ERROR",-0.75,100,1011.71,0.26,0.31,0.31],
    [221,363171,"Vazduh","Libelium","0004A30B0021DF70",44.979,16.7091,"","","Prijedor","",24196072,"2024-01-12T18:06:09",3,"NO ERROR",-1.24,100,1012.14,0.78,0.94,0.97],
    [222,363171,"Vazduh","Libelium","0004A30B0021DF70",44.979,16.7091,"","","Prijedor","",24196863,"2024-01-12T19:06:52",3,"NO ERROR",-2.17,100,1012.38,1.2,1.25,1.25],
    [223,363171,"Vazduh","Libelium","0004A30B0021DF70",44.979,16.7091,"","","Prijedor","",24197740,"2024-01-12T20:07:33",3,"NO ERROR",-2.73,100,1012.47,1.95,2.14,2.14],
    [224,363171,"Vazduh","Libelium","0004A30B0021DF70",44.979,16.7091,"","","Prijedor","",24198637,"2024-01-12T21:08:14",3,"NO ERROR",-2.57,100,1012.64,1.43,1.55,1.55],
    [225,363171,"Vazduh","Libelium","0004A30B0021DF70",44.979,16.7091,"","","Prijedor","",24199521,"2024-01-12T22:08:56",3,"NO ERROR",-2.33,100,1013.07,0.83,1,1.12],
    [226,363171,"Vazduh","Libelium","0004A30B0021DF70",44.979,16.7091,"","","Prijedor","",24200413,"2024-01-12T23:09:38",3,"NO ERROR",-1.95,100,1013.1,1.18,1.37,1.37],
    [227,363171,"Vazduh","Libelium","0004A30B0021DF70",44.979,16.7091,"","","Prijedor","",24201503,"2024-01-13T00:10:20",3,"NO ERROR",-2.15,100,1012.6,1.04,1.19,1.19],
    [228,363171,"Vazduh","Libelium","0004A30B0021DF70",44.979,16.7091,"","","Prijedor","",24202395,"2024-01-13T01:11:02",3,"NO ERROR",-2.28,100,1012.08,1.19,1.45,1.46],
    [229,363171,"Vazduh","Libelium","0004A30B0021DF70",44.979,16.7091,"","","Prijedor","",24203239,"2024-01-13T02:11:44",3,"NO ERROR",-3.35,100,1011.77,0.8,0.99,0.99],
    [230,363171,"Vazduh","Libelium","0004A30B0021DF70",44.979,16.7091,"","","Prijedor","",24204086,"2024-01-13T03:12:25",3,"NO ERROR",-3.86,100,1011.77,1.15,1.39,1.52],
    [231,363171,"Vazduh","Libelium","0004A30B0021DF70",44.979,16.7091,"","","Prijedor","",24204986,"2024-01-13T04:13:07",3,"NO ERROR",-4.08,100,1011.18,1.41,1.52,1.52],
    [232,363171,"Vazduh","Libelium","0004A30B0021DF70",44.979,16.7091,"","","Prijedor","",24205884,"2024-01-13T05:13:48",3,"NO ERROR",-5.41,100,1010.97,2.15,2.46,2.46],
    [233,363171,"Vazduh","Libelium","0004A30B0021DF70",44.979,16.7091,"","","Prijedor","",24206747,"2024-01-13T06:14:29",3,"NO ERROR",-6.22,100,1010.59,0.99,1.19,1.2],
    [234,363171,"Vazduh","Libelium","0004A30B0021DF70",44.979,16.7091,"","","Prijedor","",24207604,"2024-01-13T07:15:11",3,"NO ERROR",-7.45,100,1010.64,0.6,0.69,0.69],
    [235,363171,"Vazduh","Libelium","0004A30B0021DF70",44.979,16.7091,"","","Prijedor","",24208512,"2024-01-13T08:15:53",3,"NO ERROR",-6.4,100,1010.59,2.49,2.82,2.98],
    [236,363171,"Vazduh","Libelium","0004A30B0021DF70",44.979,16.7091,"","","Prijedor","",24209382,"2024-01-13T09:16:35",3,"NO ERROR",-4.92,100,1010.37,2.69,3.28,3.29],
    [237,363171,"Vazduh","Libelium","0004A30B0021DF70",44.979,16.7091,"","","Prijedor","",24210232,"2024-01-13T10:17:22",3,"NO ERROR",-1.74,100,1010.1,0.12,0.12,0.12],
    [238,363171,"Vazduh","Libelium","0004A30B0021DF70",44.979,16.7091,"","","Prijedor","",24211161,"2024-01-13T11:18:03",3,"NO ERROR",-0.27,100,1009.65,0.17,0.3,0.62],
    [239,363171,"Vazduh","Libelium","0004A30B0021DF70",44.979,16.7091,"","","Prijedor","",24212114,"2024-01-13T12:18:45",3,"NO ERROR",1.41,97.8,1008.39,0.12,0.21,0.23],
    [240,363171,"Vazduh","Libelium","0004A30B0021DF70",44.979,16.7091,"","","Prijedor","",24213032,"2024-01-13T13:19:27",3,"NO ERROR",2.91,90.6,1007.17,0.08,0.09,0.09],
    [241,363171,"Vazduh","Libelium","0004A30B0021DF70",44.979,16.7091,"","","Prijedor","",24213980,"2024-01-13T14:20:08",3,"NO ERROR",4.56,83.4,1005.99,0.03,0.03,0.03],
    [242,363171,"Vazduh","Libelium","0004A30B0021DF70",44.979,16.7091,"","","Prijedor","",24214869,"2024-01-13T15:20:50",3,"NO ERROR",8.21,67.3,1005.08,0.07,0.07,0.07],
    [243,363171,"Vazduh","Libelium","0004A30B0021DF70",44.979,16.7091,"","","Prijedor","",24215741,"2024-01-13T16:21:37",3,"NO ERROR",3.26,84.3,1004.58,0.05,0.05,0.05],
    [244,363171,"Vazduh","Libelium","0004A30B0021DF70",44.979,16.7091,"","","Prijedor","",24216606,"2024-01-13T17:22:18",3,"NO ERROR",0.66,100,1004.02,0.15,0.18,0.18],
    [245,363171,"Vazduh","Libelium","0004A30B0021DF70",44.979,16.7091,"","","Prijedor","",24217395,"2024-01-13T18:22:59",3,"NO ERROR",-0.77,100,1003.52,0.25,0.28,0.28],
    [246,363171,"Vazduh","Libelium","0004A30B0021DF70",44.979,16.7091,"","","Prijedor","",24218220,"2024-01-13T19:23:40",3,"NO ERROR",-1.73,100,1003.4,0.46,0.6,0.6],
    [247,363171,"Vazduh","Libelium","0004A30B0021DF70",44.979,16.7091,"","","Prijedor","",24219158,"2024-01-13T20:24:28",3,"NO ERROR",-2.49,100,1002.92,0.3,0.36,0.36],
    [248,363171,"Vazduh","Libelium","0004A30B0021DF70",44.979,16.7091,"","","Prijedor","",24220042,"2024-01-13T21:25:09",3,"NO ERROR",-3.65,100,1002.36,0.54,0.63,0.63],
    [249,363171,"Vazduh","Libelium","0004A30B0021DF70",44.979,16.7091,"","","Prijedor","",24220873,"2024-01-13T22:25:51",3,"NO ERROR",-3.03,100,1001.86,0.59,0.69,0.69],
    [250,363171,"Vazduh","Libelium","0004A30B0021DF70",44.979,16.7091,"","","Prijedor","",24221716,"2024-01-13T23:26:33",3,"NO ERROR",-4.46,100,1001.72,0.84,1.08,1.08],
    [251,363171,"Vazduh","Libelium","0004A30B0021DF70",44.979,16.7091,"","","Prijedor","",24222788,"2024-01-14T00:27:15",3,"NO ERROR",-4.76,100,1001.16,1.07,1.26,1.26],
    [252,363171,"Vazduh","Libelium","0004A30B0021DF70",44.979,16.7091,"","","Prijedor","",24223677,"2024-01-14T01:27:56",3,"NO ERROR",-5.2,100,1000.76,0.53,0.61,0.62],
    [253,363171,"Vazduh","Libelium","0004A30B0021DF70",44.979,16.7091,"","","Prijedor","",24224505,"2024-01-14T02:28:38",3,"NO ERROR",-5.07,100,1000.49,0.47,0.49,0.49],
    [254,363171,"Vazduh","Libelium","0004A30B0021DF70",44.979,16.7091,"","","Prijedor","",24225332,"2024-01-14T03:29:20",3,"NO ERROR",-5.71,100,999.7,0.21,0.26,0.26],
    [255,363171,"Vazduh","Libelium","0004A30B0021DF70",44.979,16.7091,"","","Prijedor","",24226230,"2024-01-14T04:30:08",3,"NO ERROR",-6.73,100,999.35,1.61,1.71,1.72],
    [256,363171,"Vazduh","Libelium","0004A30B0021DF70",44.979,16.7091,"","","Prijedor","",24227105,"2024-01-14T05:30:50",3,"NO ERROR",-6.61,100,998.75,5.5,6.48,7.12],
    [257,363171,"Vazduh","Libelium","0004A30B0021DF70",44.979,16.7091,"","","Prijedor","",24227944,"2024-01-14T06:31:31",3,"NO ERROR",-6.33,100,998.9,2.33,2.64,2.64],
    [258,363171,"Vazduh","Libelium","0004A30B0021DF70",44.979,16.7091,"","","Prijedor","",24228797,"2024-01-14T07:32:13",3,"NO ERROR",-6.04,100,999.03,1.04,1.15,1.15],
    [259,363171,"Vazduh","Libelium","0004A30B0021DF70",44.979,16.7091,"","","Prijedor","",24229691,"2024-01-14T08:32:55",3,"NO ERROR",-5.48,100,999.06,0.78,0.87,0.87],
    [260,363171,"Vazduh","Libelium","0004A30B0021DF70",44.979,16.7091,"","","Prijedor","",24230532,"2024-01-14T09:33:37",3,"NO ERROR",-3.48,100,999.26,1.44,1.57,1.57],
    [261,363171,"Vazduh","Libelium","0004A30B0021DF70",44.979,16.7091,"","","Prijedor","",24231360,"2024-01-14T10:34:19",3,"NO ERROR",-0.82,100,998.94,0.75,0.83,0.83],
    [262,363171,"Vazduh","Libelium","0004A30B0021DF70",44.979,16.7091,"","","Prijedor","",24232242,"2024-01-14T11:35:00",3,"NO ERROR",0.51,100,998.07,0.94,1,1],
    [263,363171,"Vazduh","Libelium","0004A30B0021DF70",44.979,16.7091,"","","Prijedor","",24233239,"2024-01-14T12:35:42",3,"NO ERROR",3.42,100,997.08,0.14,0.16,0.17],
    [264,363171,"Vazduh","Libelium","0004A30B0021DF70",44.979,16.7091,"","","Prijedor","",24234138,"2024-01-14T13:36:24",3,"NO ERROR",6.23,86.7,996.06,0.57,0.72,0.73],
    [265,363171,"Vazduh","Libelium","0004A30B0021DF70",44.979,16.7091,"","","Prijedor","",24235124,"2024-01-14T14:37:06",3,"NO ERROR",9.09,77.6,995.35,0.39,0.66,9.66],
    [266,363171,"Vazduh","Libelium","0004A30B0021DF70",44.979,16.7091,"","","Prijedor","",24236050,"2024-01-14T15:37:48",3,"NO ERROR",10.68,70.1,995.03,0.4,0.42,0.42],
    [267,363171,"Vazduh","Libelium","0004A30B0021DF70",44.979,16.7091,"","","Prijedor","",24236950,"2024-01-14T16:38:30",3,"NO ERROR",4.5,100,994.96,0.29,0.43,0.45],
    [268,363171,"Vazduh","Libelium","0004A30B0021DF70",44.979,16.7091,"","","Prijedor","",24237767,"2024-01-14T17:39:12",3,"NO ERROR",2.34,100,994.73,0.51,0.63,0.64],
    [269,363171,"Vazduh","Libelium","0004A30B0021DF70",44.979,16.7091,"","","Prijedor","",24238533,"2024-01-14T18:39:54",3,"NO ERROR",1,100,994.84,0.4,0.52,0.53],
    [270,363171,"Vazduh","Libelium","0004A30B0021DF70",44.979,16.7091,"","","Prijedor","",24239400,"2024-01-14T19:40:36",3,"NO ERROR",0.21,100,994.74,0.61,0.7,0.7],
    [271,363171,"Vazduh","Libelium","0004A30B0021DF70",44.979,16.7091,"","","Prijedor","",24240369,"2024-01-14T20:41:18",3,"NO ERROR",-0.24,100,994.35,0.77,0.92,0.92],
    [272,363171,"Vazduh","Libelium","0004A30B0021DF70",44.979,16.7091,"","","Prijedor","",24241253,"2024-01-14T21:42:00",3,"NO ERROR",-0.92,100,993.58,2.62,3.04,3.07],
    [273,363171,"Vazduh","Libelium","0004A30B0021DF70",44.979,16.7091,"","","Prijedor","",24242137,"2024-01-14T22:42:41",3,"NO ERROR",-1.8,100,993.27,2.51,2.73,2.74],
    [274,363171,"Vazduh","Libelium","0004A30B0021DF70",44.979,16.7091,"","","Prijedor","",24243069,"2024-01-14T23:43:23",3,"NO ERROR",-1.52,100,992.58,4,4.61,4.63],
    [275,363171,"Vazduh","Libelium","0004A30B0021DF70",44.979,16.7091,"","","Prijedor","",24244211,"2024-01-15T00:44:05",3,"NO ERROR",-1.93,100,991.87,2.96,3.52,3.53],
    [276,363171,"Vazduh","Libelium","0004A30B0021DF70",44.979,16.7091,"","","Prijedor","",24245100,"2024-01-15T01:44:47",3,"NO ERROR",-1.73,100,990.99,2.19,2.44,2.44],
    [277,363171,"Vazduh","Libelium","0004A30B0021DF70",44.979,16.7091,"","","Prijedor","",24245928,"2024-01-15T02:45:28",3,"NO ERROR",-2.03,100,990.08,1.38,1.56,1.56],
    [278,363171,"Vazduh","Libelium","0004A30B0021DF70",44.979,16.7091,"","","Prijedor","",24246841,"2024-01-15T03:46:11",3,"NO ERROR",-1.1,100,989.09,1.67,1.9,1.9],
    [279,363171,"Vazduh","Libelium","0004A30B0021DF70",44.979,16.7091,"","","Prijedor","",24247824,"2024-01-15T04:46:52",3,"NO ERROR",-0.95,100,988.57,0.78,0.86,0.86],
    [280,363171,"Vazduh","Libelium","0004A30B0021DF70",44.979,16.7091,"","","Prijedor","",24248727,"2024-01-15T05:47:33",3,"NO ERROR",-0.49,100,987.81,0.53,0.57,0.57],
    [281,363171,"Vazduh","Libelium","0004A30B0021DF70",44.979,16.7091,"","","Prijedor","",24249621,"2024-01-15T06:48:14",3,"NO ERROR",-0.29,100,987.72,0.91,1.07,1.07],
    [282,363171,"Vazduh","Libelium","0004A30B0021DF70",44.979,16.7091,"","","Prijedor","",24250530,"2024-01-15T07:49:01",3,"NO ERROR",0.33,100,987.55,0.32,0.34,0.34],
    [283,363171,"Vazduh","Libelium","0004A30B0021DF70",44.979,16.7091,"","","Prijedor","",24251424,"2024-01-15T08:49:43",3,"NO ERROR",1.21,100,987.5,0.42,0.48,0.48],
    [284,363171,"Vazduh","Libelium","0004A30B0021DF70",44.979,16.7091,"","","Prijedor","",24252267,"2024-01-15T09:50:31",3,"NO ERROR",2.09,100,987.41,0.65,0.76,0.78],
    [285,363171,"Vazduh","Libelium","0004A30B0021DF70",44.979,16.7091,"","","Prijedor","",24253107,"2024-01-15T10:51:13",3,"NO ERROR",2.61,100,987.02,1.11,1.32,1.35],
    [286,363171,"Vazduh","Libelium","0004A30B0021DF70",44.979,16.7091,"","","Prijedor","",24253990,"2024-01-15T11:51:54",3,"NO ERROR",3.23,100,986.14,2.32,2.64,2.65],
    [287,363171,"Vazduh","Libelium","0004A30B0021DF70",44.979,16.7091,"","","Prijedor","",24254927,"2024-01-15T12:52:36",3,"NO ERROR",3,100,985.25,2.23,2.48,2.48],
    [288,363171,"Vazduh","Libelium","0004A30B0021DF70",44.979,16.7091,"","","Prijedor","",24255846,"2024-01-15T13:53:17",3,"NO ERROR",3.57,100,984.61,1.9,2.66,2.9],
    [289,363171,"Vazduh","Libelium","0004A30B0021DF70",44.979,16.7091,"","","Prijedor","",24257294,"2024-01-15T14:53:59",3,"NO ERROR",5.44,100,984.33,0.67,0.82,0.82],
    [290,363171,"Vazduh","Libelium","0004A30B0021DF70",44.979,16.7091,"","","Prijedor","",24258166,"2024-01-15T15:54:40",3,"NO ERROR",4.7,100,984.4,0.68,0.82,0.84],
    [291,363171,"Vazduh","Libelium","0004A30B0021DF70",44.979,16.7091,"","","Prijedor","",24259030,"2024-01-15T16:55:21",3,"NO ERROR",3.48,100,984.8,3.37,3.95,3.96],
    [292,363171,"Vazduh","Libelium","0004A30B0021DF70",44.979,16.7091,"","","Prijedor","",24259907,"2024-01-15T17:58:10",3,"NO ERROR",4,100,985.49,0.68,0.83,0.84],
    [293,363171,"Vazduh","Libelium","0004A30B0021DF70",44.979,16.7091,"","","Prijedor","",24259905,"2024-01-15T17:58:09",3,"NO ERROR",4,100,985.49,0.68,0.83,0.84],
    [294,363171,"Vazduh","Libelium","0004A30B0021DF70",44.979,16.7091,"","","Prijedor","",24259823,"2024-01-15T17:56:02",3,"NO ERROR",4,100,985.49,0.68,0.83,0.84],
    [295,363171,"Vazduh","Libelium","0004A30B0021DF70",44.979,16.7091,"","","Prijedor","",24260772,"2024-01-15T18:56:45",3,"NO ERROR",3.99,100,986.07,0.98,1.08,1.09],
    [296,363171,"Vazduh","Libelium","0004A30B0021DF70",44.979,16.7091,"","","Prijedor","",24261687,"2024-01-15T19:57:26",3,"NO ERROR",3.64,100,987.29,0.24,0.26,0.26],
    [297,363171,"Vazduh","Libelium","0004A30B0021DF70",44.979,16.7091,"","","Prijedor","",24262618,"2024-01-15T20:58:08",3,"NO ERROR",2.86,100,987.82,0.08,0.11,0.11],
    [298,363171,"Vazduh","Libelium","0004A30B0021DF70",44.979,16.7091,"","","Prijedor","",24263454,"2024-01-15T21:58:49",3,"NO ERROR",1.99,100,989.73,0.12,0.12,0.12],
    [299,363171,"Vazduh","Libelium","0004A30B0021DF70",44.979,16.7091,"","","Prijedor","",24264322,"2024-01-15T22:59:30",3,"NO ERROR",1.1,100,990.73,0.91,0.96,0.96],
    [300,363171,"Vazduh","Libelium","0004A30B0021DF70",44.979,16.7091,"","","Prijedor","",24265317,"2024-01-16T00:00:12",3,"NO ERROR",0.94,100,992.37,0.38,0.44,0.44],
    [301,363171,"Vazduh","Libelium","0004A30B0021DF70",44.979,16.7091,"","","Prijedor","",24266291,"2024-01-16T01:00:53",3,"NO ERROR",0.86,100,993.04,0.1,0.15,0.15],
    [302,363171,"Vazduh","Libelium","0004A30B0021DF70",44.979,16.7091,"","","Prijedor","",24267175,"2024-01-16T02:01:42",3,"NO ERROR",0.89,100,993.98,0.05,0.05,0.05],
    [303,363171,"Vazduh","Libelium","0004A30B0021DF70",44.979,16.7091,"","","Prijedor","",24268008,"2024-01-16T03:02:23",3,"NO ERROR",0.98,100,994.76,0.05,0.08,0.08],
    [304,363171,"Vazduh","Libelium","0004A30B0021DF70",44.979,16.7091,"","","Prijedor","",24268936,"2024-01-16T04:03:04",3,"NO ERROR",1.11,100,995.37,0.34,0.42,0.43],
    [305,363171,"Vazduh","Libelium","0004A30B0021DF70",44.979,16.7091,"","","Prijedor","",24269893,"2024-01-16T05:03:45",3,"NO ERROR",1.25,100,996.07,0.12,0.12,0.12],
    [306,363171,"Vazduh","Libelium","0004A30B0021DF70",44.979,16.7091,"","","Prijedor","",24270769,"2024-01-16T06:04:27",3,"NO ERROR",1.3,100,996.86,0.21,0.29,0.29],
    [307,363171,"Vazduh","Libelium","0004A30B0021DF70",44.979,16.7091,"","","Prijedor","",24271643,"2024-01-16T07:05:09",3,"NO ERROR",0.47,100,997.37,1.47,1.73,1.73],
    [308,363171,"Vazduh","Libelium","0004A30B0021DF70",44.979,16.7091,"","","Prijedor","",24272547,"2024-01-16T08:05:50",3,"NO ERROR",-0.1,100,998.24,3.16,3.93,3.99],
    [309,363171,"Vazduh","Libelium","0004A30B0021DF70",44.979,16.7091,"","","Prijedor","",24273363,"2024-01-16T09:06:32",3,"NO ERROR",1.21,100,999.13,0.57,0.66,0.66],
    [310,363171,"Vazduh","Libelium","0004A30B0021DF70",44.979,16.7091,"","","Prijedor","",24274200,"2024-01-16T10:07:13",3,"NO ERROR",3.2,100,999.54,0.63,0.76,0.77],
    [311,363171,"Vazduh","Libelium","0004A30B0021DF70",44.979,16.7091,"","","Prijedor","",24275135,"2024-01-16T11:07:56",3,"NO ERROR",4.01,100,999.2,0.19,0.2,0.2],
    [312,363171,"Vazduh","Libelium","0004A30B0021DF70",44.979,16.7091,"","","Prijedor","",24276082,"2024-01-16T12:08:37",3,"NO ERROR",6.21,100,998.73,0.08,0.09,0.09],
    [313,363171,"Vazduh","Libelium","0004A30B0021DF70",44.979,16.7091,"","","Prijedor","",24277036,"2024-01-16T13:09:18",3,"NO ERROR",8.23,90.9,997.8,0.07,0.07,0.07],
    [314,363171,"Vazduh","Libelium","0004A30B0021DF70",44.979,16.7091,"","","Prijedor","",24278032,"2024-01-16T14:09:59",3,"NO ERROR",8.51,58.2,997.39,0.1,0.15,0.15],
    [315,363171,"Vazduh","Libelium","0004A30B0021DF70",44.979,16.7091,"","","Prijedor","",24278962,"2024-01-16T15:10:41",3,"NO ERROR",8.93,50.9,996.68,0.06,0.12,0.13],
    [316,363171,"Vazduh","Libelium","0004A30B0021DF70",44.979,16.7091,"","","Prijedor","",24279865,"2024-01-16T16:11:22",3,"NO ERROR",6.09,65.5,996.78,0.02,0.02,0.02],
    [317,363171,"Vazduh","Libelium","0004A30B0021DF70",44.979,16.7091,"","","Prijedor","",24280715,"2024-01-16T17:12:03",3,"NO ERROR",3.06,100,996.94,0.17,0.17,0.17],
    [318,363171,"Vazduh","Libelium","0004A30B0021DF70",44.979,16.7091,"","","Prijedor","",24281525,"2024-01-16T18:12:45",3,"NO ERROR",1.73,100,996.89,0.93,1.11,1.11],
    [319,363171,"Vazduh","Libelium","0004A30B0021DF70",44.979,16.7091,"","","Prijedor","",24282352,"2024-01-16T19:13:33",3,"NO ERROR",0.7,100,997.29,0.46,0.55,0.56],
    [320,363171,"Vazduh","Libelium","0004A30B0021DF70",44.979,16.7091,"","","Prijedor","",24283251,"2024-01-16T20:14:14",3,"NO ERROR",-0.09,100,997.38,0.49,0.73,0.76],
    [321,363171,"Vazduh","Libelium","0004A30B0021DF70",44.979,16.7091,"","","Prijedor","",24284109,"2024-01-16T21:15:01",3,"NO ERROR",-0.79,100,997.31,0.63,0.7,0.7],
    [322,363171,"Vazduh","Libelium","0004A30B0021DF70",44.979,16.7091,"","","Prijedor","",24284945,"2024-01-16T22:15:43",3,"NO ERROR",-1.05,100,997.41,4.32,5.37,5.38],
    [323,363171,"Vazduh","Libelium","0004A30B0021DF70",44.979,16.7091,"","","Prijedor","",24285845,"2024-01-16T23:16:25",3,"NO ERROR",-0.34,100,997.41,1.78,2.18,2.18],
    [324,363171,"Vazduh","Libelium","0004A30B0021DF70",44.979,16.7091,"","","Prijedor","",24286872,"2024-01-17T00:17:06",3,"NO ERROR",-0.21,100,997,0.84,1,1],
    [325,363171,"Vazduh","Libelium","0004A30B0021DF70",44.979,16.7091,"","","Prijedor","",24287711,"2024-01-17T01:17:48",3,"NO ERROR",0.14,100,996.13,0.52,0.6,0.6],
    [326,363171,"Vazduh","Libelium","0004A30B0021DF70",44.979,16.7091,"","","Prijedor","",24288553,"2024-01-17T02:18:30",3,"NO ERROR",-0.21,100,996.15,0.78,0.96,0.96],
    [327,363171,"Vazduh","Libelium","0004A30B0021DF70",44.979,16.7091,"","","Prijedor","",24289371,"2024-01-17T03:19:18",3,"NO ERROR",0.07,100,995.35,0.31,0.33,0.33],
    [328,363171,"Vazduh","Libelium","0004A30B0021DF70",44.979,16.7091,"","","Prijedor","",24290269,"2024-01-17T04:20:00",3,"NO ERROR",0.4,100,995.02,0.5,0.53,0.53],
    [329,363171,"Vazduh","Libelium","0004A30B0021DF70",44.979,16.7091,"","","Prijedor","",24291185,"2024-01-17T05:20:41",3,"NO ERROR",0.74,100,994.24,0.58,0.72,0.72],
    [330,363171,"Vazduh","Libelium","0004A30B0021DF70",44.979,16.7091,"","","Prijedor","",24292100,"2024-01-17T06:21:23",3,"NO ERROR",0.78,100,993.74,0.2,0.23,0.23],
    [331,363171,"Vazduh","Libelium","0004A30B0021DF70",44.979,16.7091,"","","Prijedor","",24292942,"2024-01-17T07:22:04",3,"NO ERROR",0.55,100,993.59,0.3,0.32,0.32],
    [332,363171,"Vazduh","Libelium","0004A30B0021DF70",44.979,16.7091,"","","Prijedor","",24293838,"2024-01-17T08:22:46",3,"NO ERROR",1.05,100,993.01,0.56,0.83,0.99],
    [333,363171,"Vazduh","Libelium","0004A30B0021DF70",44.979,16.7091,"","","Prijedor","",24294737,"2024-01-17T09:23:40",3,"NO ERROR",2.25,100,992.51,1.04,1.22,1.22],
    [334,363171,"Vazduh","Libelium","0004A30B0021DF70",44.979,16.7091,"","","Prijedor","",24295579,"2024-01-17T10:24:21",3,"NO ERROR",2.21,100,992.63,0.86,1.01,1.01],
    [335,363171,"Vazduh","Libelium","0004A30B0021DF70",44.979,16.7091,"","","Prijedor","",24296510,"2024-01-17T11:25:02",3,"NO ERROR",3.96,100,991.4,0.47,0.5,0.5],
    [336,363171,"Vazduh","Libelium","0004A30B0021DF70",44.979,16.7091,"","","Prijedor","",24297477,"2024-01-17T12:25:43",3,"NO ERROR",5.21,100,989.88,0.68,0.83,0.84],
    [337,363171,"Vazduh","Libelium","0004A30B0021DF70",44.979,16.7091,"","","Prijedor","",24298397,"2024-01-17T13:26:31",3,"NO ERROR",7.44,100,988.25,0.67,0.83,0.83],
    [338,363171,"Vazduh","Libelium","0004A30B0021DF70",44.979,16.7091,"","","Prijedor","",24299317,"2024-01-17T14:27:18",3,"NO ERROR",10.22,100,986.87,0.58,0.8,0.85],
    [339,363171,"Vazduh","Libelium","0004A30B0021DF70",44.979,16.7091,"","","Prijedor","",24300249,"2024-01-17T15:28:00",3,"NO ERROR",9.94,100,986.84,1.22,1.53,1.54],
    [340,363171,"Vazduh","Libelium","0004A30B0021DF70",44.979,16.7091,"","","Prijedor","",24301118,"2024-01-17T16:28:41",3,"NO ERROR",13.86,95,986.22,0.3,0.32,0.32],
    [341,363171,"Vazduh","Libelium","0004A30B0021DF70",44.979,16.7091,"","","Prijedor","",24301977,"2024-01-17T17:29:29",3,"NO ERROR",14,93.7,986.32,0.26,0.3,0.3],
    [342,363171,"Vazduh","Libelium","0004A30B0021DF70",44.979,16.7091,"","","Prijedor","",24302756,"2024-01-17T18:30:11",3,"NO ERROR",14.21,97.5,986.35,0.15,0.17,0.17],
    [343,363171,"Vazduh","Libelium","0004A30B0021DF70",44.979,16.7091,"","","Prijedor","",24303616,"2024-01-17T19:30:52",3,"NO ERROR",14.12,100,985.92,0.07,0.07,0.07],
    [344,363171,"Vazduh","Libelium","0004A30B0021DF70",44.979,16.7091,"","","Prijedor","",24305195,"2024-01-17T20:31:34",3,"NO ERROR",14.14,100,985.4,0.08,0.09,0.09],
    [345,363171,"Vazduh","Libelium","0004A30B0021DF70",44.979,16.7091,"","","Prijedor","",24306142,"2024-01-17T21:32:15",3,"NO ERROR",15.58,99.4,984.98,0.06,0.08,0.08],
    [346,363171,"Vazduh","Libelium","0004A30B0021DF70",44.979,16.7091,"","","Prijedor","",24307036,"2024-01-17T22:32:57",3,"NO ERROR",16.24,94.2,984.55,0.07,0.14,0.15],
    [347,363171,"Vazduh","Libelium","0004A30B0021DF70",44.979,16.7091,"","","Prijedor","",24307941,"2024-01-17T23:33:38",3,"NO ERROR",16.23,91.8,984.03,0.14,0.21,0.21],
    [348,363171,"Vazduh","Libelium","0004A30B0021DF70",44.979,16.7091,"","","Prijedor","",24309118,"2024-01-18T00:34:19",3,"NO ERROR",14.84,100,983.63,0.05,0.05,0.05],
    [349,363171,"Vazduh","Libelium","0004A30B0021DF70",44.979,16.7091,"","","Prijedor","",24310062,"2024-01-18T01:35:00",3,"NO ERROR",14.91,99.6,983.15,0.13,0.22,0.23],
    [350,363171,"Vazduh","Libelium","0004A30B0021DF70",44.979,16.7091,"","","Prijedor","",24311002,"2024-01-18T02:35:42",3,"NO ERROR",14.51,98.2,982.48,0.28,0.38,0.38],
    [351,363171,"Vazduh","Libelium","0004A30B0021DF70",44.979,16.7091,"","","Prijedor","",24311941,"2024-01-18T03:36:23",3,"NO ERROR",12.97,100,981.75,0.21,0.27,0.27],
    [352,363171,"Vazduh","Libelium","0004A30B0021DF70",44.979,16.7091,"","","Prijedor","",24312951,"2024-01-18T04:37:04",3,"NO ERROR",13.26,100,981.11,0.25,0.3,0.3],
    [353,363171,"Vazduh","Libelium","0004A30B0021DF70",44.979,16.7091,"","","Prijedor","",24314957,"2024-01-18T06:38:34",3,"NO ERROR",16.11,81.8,980.82,0.91,1.2,1.2],
    [354,363171,"Vazduh","Libelium","0004A30B0021DF70",44.979,16.7091,"","","Prijedor","",24437740,"2024-01-24T02:16:01",3,"NO ERROR",-1.86,100,1018.23,52.47,87.23,384.7],
    [355,363171,"Vazduh","Libelium","0004A30B0021DF70",44.979,16.7091,"","","Prijedor","",24438582,"2024-01-24T03:16:42",3,"NO ERROR",-2.15,100,1017.55,46.46,65.07,89.31],
    [356,363171,"Vazduh","Libelium","0004A30B0021DF70",44.979,16.7091,"","","Prijedor","",24439471,"2024-01-24T04:17:23",3,"NO ERROR",-1.45,100,1017.04,2.84,3.34,3.35],
    [357,363171,"Vazduh","Libelium","0004A30B0021DF70",44.979,16.7091,"","","Prijedor","",24440392,"2024-01-24T05:18:05",3,"NO ERROR",-0.99,100,1016.71,1.21,1.47,1.48],
    [358,363171,"Vazduh","Libelium","0004A30B0021DF70",44.979,16.7091,"","","Prijedor","",24441270,"2024-01-24T06:18:47",3,"NO ERROR",-0.54,100,1016.14,1.13,1.26,1.26],
    [359,363171,"Vazduh","Libelium","0004A30B0021DF70",44.979,16.7091,"","","Prijedor","",24442128,"2024-01-24T07:19:29",3,"NO ERROR",-0.33,100,1015.52,1.06,1.22,1.22],
    [360,363171,"Vazduh","Libelium","0004A30B0021DF70",44.979,16.7091,"","","Prijedor","",24443004,"2024-01-24T08:20:10",3,"NO ERROR",0.32,100,1014.99,0.47,0.54,0.55],
    [361,363171,"Vazduh","Libelium","0004A30B0021DF70",44.979,16.7091,"","","Prijedor","",24443912,"2024-01-24T09:20:51",3,"NO ERROR",2.34,100,1014.22,0.41,0.5,0.5],
    [362,363171,"Vazduh","Libelium","0004A30B0021DF70",44.979,16.7091,"","","Prijedor","",24444762,"2024-01-24T10:21:33",3,"NO ERROR",4.3,100,1013.67,0.09,0.1,0.1],
    [363,363171,"Vazduh","Libelium","0004A30B0021DF70",44.979,16.7091,"","","Prijedor","",24445681,"2024-01-24T11:22:15",3,"NO ERROR",5.43,100,1012.39,0.05,0.05,0.05],
    [364,363171,"Vazduh","Libelium","0004A30B0021DF70",44.979,16.7091,"","","Prijedor","",24446655,"2024-01-24T12:22:57",3,"NO ERROR",8.94,93.1,1010.57,0.12,0.16,0.17],
    [365,363171,"Vazduh","Libelium","0004A30B0021DF70",44.979,16.7091,"","","Prijedor","",24447588,"2024-01-24T13:23:38",3,"NO ERROR",10.33,83.3,1009.25,0.44,0.81,1],
    [366,363171,"Vazduh","Libelium","0004A30B0021DF70",44.979,16.7091,"","","Prijedor","",24448534,"2024-01-24T14:24:19",3,"NO ERROR",10.52,84,1008.18,0.65,1.08,1.28],
    [367,363171,"Vazduh","Libelium","0004A30B0021DF70",44.979,16.7091,"","","Prijedor","",24449464,"2024-01-24T15:25:01",3,"NO ERROR",9.33,92.2,1007.55,0.27,0.29,0.29],
    [368,363171,"Vazduh","Libelium","0004A30B0021DF70",44.979,16.7091,"","","Prijedor","",24450361,"2024-01-24T16:25:48",3,"NO ERROR",8.58,96,1006.91,0.41,0.73,5.13],
    [369,363171,"Vazduh","Libelium","0004A30B0021DF70",44.979,16.7091,"","","Prijedor","",24451189,"2024-01-24T17:26:29",3,"NO ERROR",6.57,100,1006.92,1.52,1.93,2.08],
    [370,363171,"Vazduh","Libelium","0004A30B0021DF70",44.979,16.7091,"","","Prijedor","",24451985,"2024-01-24T18:27:10",3,"NO ERROR",5.69,100,1007.34,1.08,1.31,1.31],
    [371,363171,"Vazduh","Libelium","0004A30B0021DF70",44.979,16.7091,"","","Prijedor","",24452785,"2024-01-24T19:27:51",3,"NO ERROR",4.94,100,1007.83,0.53,0.61,0.61],
    [372,363171,"Vazduh","Libelium","0004A30B0021DF70",44.979,16.7091,"","","Prijedor","",24453721,"2024-01-24T20:28:39",3,"NO ERROR",4.98,100,1008.12,1.36,1.61,1.74],
    [373,363171,"Vazduh","Libelium","0004A30B0021DF70",44.979,16.7091,"","","Prijedor","",24454618,"2024-01-24T21:29:20",3,"NO ERROR",4.26,100,1008.26,1.56,1.77,1.77],
    [374,363171,"Vazduh","Libelium","0004A30B0021DF70",44.979,16.7091,"","","Prijedor","",24455464,"2024-01-24T22:30:01",3,"NO ERROR",4.21,100,1008.24,1.86,2.09,2.09],
    [375,363171,"Vazduh","Libelium","0004A30B0021DF70",44.979,16.7091,"","","Prijedor","",24456393,"2024-01-24T23:30:43",3,"NO ERROR",3.36,100,1009.04,1.14,1.27,1.27],
    [376,363171,"Vazduh","Libelium","0004A30B0021DF70",44.979,16.7091,"","","Prijedor","",24457552,"2024-01-25T00:31:25",3,"NO ERROR",3.75,100,1009.27,1.98,2.4,2.43],
    [377,363171,"Vazduh","Libelium","0004A30B0021DF70",44.979,16.7091,"","","Prijedor","",24458461,"2024-01-25T01:32:06",3,"NO ERROR",4.19,100,1009.74,1.28,1.49,1.51],
    [378,363171,"Vazduh","Libelium","0004A30B0021DF70",44.979,16.7091,"","","Prijedor","",24459287,"2024-01-25T02:32:47",3,"NO ERROR",3.78,100,1010.13,0.8,1.02,1.04],
    [379,363171,"Vazduh","Libelium","0004A30B0021DF70",44.979,16.7091,"","","Prijedor","",24460135,"2024-01-25T03:33:28",3,"NO ERROR",3.8,100,1009.69,0.81,1.01,1.01],
    [380,363171,"Vazduh","Libelium","0004A30B0021DF70",44.979,16.7091,"","","Prijedor","",24461069,"2024-01-25T04:34:09",3,"NO ERROR",3.83,100,1009.47,1.26,1.64,1.65],
    [381,363171,"Vazduh","Libelium","0004A30B0021DF70",44.979,16.7091,"","","Prijedor","",24461990,"2024-01-25T05:34:50",3,"NO ERROR",4.34,100,1009.42,0.71,0.75,0.75],
    [382,363171,"Vazduh","Libelium","0004A30B0021DF70",44.979,16.7091,"","","Prijedor","",24462838,"2024-01-25T06:35:31",3,"NO ERROR",5.4,100,1009.73,0.45,0.77,0.81],
    [383,363171,"Vazduh","Libelium","0004A30B0021DF70",44.979,16.7091,"","","Prijedor","",24463687,"2024-01-25T07:36:12",3,"NO ERROR",6.13,100,1010.96,0.45,0.7,1.23],
    [384,363171,"Vazduh","Libelium","0004A30B0021DF70",44.979,16.7091,"","","Prijedor","",24464588,"2024-01-25T08:36:54",3,"NO ERROR",5.6,100,1010.68,0.32,0.38,0.38],
    [385,363171,"Vazduh","Libelium","0004A30B0021DF70",44.979,16.7091,"","","Prijedor","",24465498,"2024-01-25T09:37:36",3,"NO ERROR",6.78,100,1010.97,0.85,0.97,0.97],
    [386,363171,"Vazduh","Libelium","0004A30B0021DF70",44.979,16.7091,"","","Prijedor","",24466333,"2024-01-25T10:38:18",3,"NO ERROR",7.81,100,1011.34,0.27,0.34,0.35],
    [387,363171,"Vazduh","Libelium","0004A30B0021DF70",44.979,16.7091,"","","Prijedor","",24467279,"2024-01-25T11:38:59",3,"NO ERROR",8.4,100,1010.73,0.17,0.24,0.24],
    [388,363171,"Vazduh","Libelium","0004A30B0021DF70",44.979,16.7091,"","","Prijedor","",24468263,"2024-01-25T12:39:41",3,"NO ERROR",11.44,100,1010,0.14,0.16,0.16],
    [389,363171,"Vazduh","Libelium","0004A30B0021DF70",44.979,16.7091,"","","Prijedor","",24469205,"2024-01-25T13:40:23",3,"NO ERROR",13.28,98.5,1009.49,0.02,0.02,0.02],
    [390,363171,"Vazduh","Libelium","0004A30B0021DF70",44.979,16.7091,"","","Prijedor","",24470096,"2024-01-25T14:41:10",3,"NO ERROR",16.68,75.2,1008.92,0.27,0.4,0.41],
    [391,363171,"Vazduh","Libelium","0004A30B0021DF70",44.979,16.7091,"","","Prijedor","",24470974,"2024-01-25T15:41:52",3,"NO ERROR",17.99,68.6,1008.84,0.23,0.25,0.25],
    [392,363171,"Vazduh","Libelium","0004A30B0021DF70",44.979,16.7091,"","","Prijedor","",24471878,"2024-01-25T16:42:34",3,"NO ERROR",11.17,100,1008.99,0.85,0.99,0.99],
    [393,363171,"Vazduh","Libelium","0004A30B0021DF70",44.979,16.7091,"","","Prijedor","",24472725,"2024-01-25T17:43:15",3,"NO ERROR",8.17,100,1009.23,1.46,1.72,1.82],
    [394,363171,"Vazduh","Libelium","0004A30B0021DF70",44.979,16.7091,"","","Prijedor","",24473518,"2024-01-25T18:44:04",3,"NO ERROR",6.8,100,1009.53,1.1,1.38,1.39],
    [395,363171,"Vazduh","Libelium","0004A30B0021DF70",44.979,16.7091,"","","Prijedor","",24474355,"2024-01-25T19:44:45",3,"NO ERROR",4.77,100,1009.73,0.91,1.04,1.04],
    [396,363171,"Vazduh","Libelium","0004A30B0021DF70",44.979,16.7091,"","","Prijedor","",24475273,"2024-01-25T20:45:26",3,"NO ERROR",3.15,100,1009.78,1.62,2.08,2.09],
    [397,363171,"Vazduh","Libelium","0004A30B0021DF70",44.979,16.7091,"","","Prijedor","",24476121,"2024-01-25T21:46:14",3,"NO ERROR",2.33,100,1010.01,0.52,0.6,0.61],
    [398,363171,"Vazduh","Libelium","0004A30B0021DF70",44.979,16.7091,"","","Prijedor","",24476952,"2024-01-25T22:47:02",3,"NO ERROR",1.37,100,1010.58,1.11,1.3,1.31],
    [399,363171,"Vazduh","Libelium","0004A30B0021DF70",44.979,16.7091,"","","Prijedor","",24477795,"2024-01-25T23:47:43",3,"NO ERROR",0.4,100,1010.74,0.76,0.92,0.93],
    [400,363171,"Vazduh","Libelium","0004A30B0021DF70",44.979,16.7091,"","","Prijedor","",24478918,"2024-01-26T00:48:24",3,"NO ERROR",-0.33,100,1011.18,0.83,1.09,1.09],
    [401,363171,"Vazduh","Libelium","0004A30B0021DF70",44.979,16.7091,"","","Prijedor","",24479851,"2024-01-26T01:49:05",3,"NO ERROR",-0.01,100,1011.55,1.93,2.16,2.16],
    [402,363171,"Vazduh","Libelium","0004A30B0021DF70",44.979,16.7091,"","","Prijedor","",24480756,"2024-01-26T02:49:47",3,"NO ERROR",-1.2,100,1012.04,3.75,4.33,4.33],
    [403,363171,"Vazduh","Libelium","0004A30B0021DF70",44.979,16.7091,"","","Prijedor","",24481653,"2024-01-26T03:50:28",3,"NO ERROR",-0.68,100,1012.13,3.38,4.17,4.23],
    [404,363171,"Vazduh","Libelium","0004A30B0021DF70",44.979,16.7091,"","","Prijedor","",24482586,"2024-01-26T04:51:10",3,"NO ERROR",-0.99,100,1012.41,1.78,2.06,2.06],
    [405,363171,"Vazduh","Libelium","0004A30B0021DF70",44.979,16.7091,"","","Prijedor","",24483530,"2024-01-26T05:51:51",3,"NO ERROR",-0.79,100,1012.76,1.03,1.21,1.21],
    [406,363171,"Vazduh","Libelium","0004A30B0021DF70",44.979,16.7091,"","","Prijedor","",24484423,"2024-01-26T06:52:40",3,"NO ERROR",-0.08,100,1013.16,0.67,0.7,0.7],
    [407,363171,"Vazduh","Libelium","0004A30B0021DF70",44.979,16.7091,"","","Prijedor","",24485387,"2024-01-26T07:53:21",3,"NO ERROR",0.61,100,1013.82,1.07,1.16,1.17],
    [408,363171,"Vazduh","Libelium","0004A30B0021DF70",44.979,16.7091,"","","Prijedor","",24486300,"2024-01-26T08:54:08",3,"NO ERROR",1.26,100,1013.79,1.32,1.51,1.51],
    [409,363171,"Vazduh","Libelium","0004A30B0021DF70",44.979,16.7091,"","","Prijedor","",24487183,"2024-01-26T09:54:50",3,"NO ERROR",2.87,100,1014.4,0.56,0.64,0.64],
    [410,363171,"Vazduh","Libelium","0004A30B0021DF70",44.979,16.7091,"","","Prijedor","",24488085,"2024-01-26T10:55:32",3,"NO ERROR",5.74,100,1014.09,0.73,0.79,0.79],
    [411,363171,"Vazduh","Libelium","0004A30B0021DF70",44.979,16.7091,"","","Prijedor","",24489038,"2024-01-26T11:56:14",3,"NO ERROR",8.8,97.9,1013.22,0.42,0.64,0.67],
    [412,363171,"Vazduh","Libelium","0004A30B0021DF70",44.979,16.7091,"","","Prijedor","",24489980,"2024-01-26T12:56:56",3,"NO ERROR",10.23,79.5,1012.57,1.07,1.29,1.29],
    [413,363171,"Vazduh","Libelium","0004A30B0021DF70",44.979,16.7091,"","","Prijedor","",24490880,"2024-01-26T13:57:37",3,"NO ERROR",10.85,66.3,1011.5,0.45,0.59,0.59],
    [414,363171,"Vazduh","Libelium","0004A30B0021DF70",44.979,16.7091,"","","Prijedor","",24491823,"2024-01-26T14:58:18",3,"NO ERROR",13.61,58.8,1011.13,0.42,0.55,0.56],
    [415,363171,"Vazduh","Libelium","0004A30B0021DF70",44.979,16.7091,"","","Prijedor","",24492726,"2024-01-26T15:58:59",3,"NO ERROR",13.55,60.5,1010.93,0.91,1.25,1.26],
    [416,363171,"Vazduh","Libelium","0004A30B0021DF70",44.979,16.7091,"","","Prijedor","",24493613,"2024-01-26T16:59:42",3,"NO ERROR",8.15,81.2,1010.51,1.16,1.5,1.51],
    [417,363171,"Vazduh","Libelium","0004A30B0021DF70",44.979,16.7091,"","","Prijedor","",24494424,"2024-01-26T18:00:23",3,"NO ERROR",6.77,92.4,1010.14,1.56,2.11,2.25],
    [418,363171,"Vazduh","Libelium","0004A30B0021DF70",44.979,16.7091,"","","Prijedor","",24495193,"2024-01-26T19:01:04",3,"NO ERROR",5.69,100,1009.77,2.29,2.73,2.74],
    [419,363171,"Vazduh","Libelium","0004A30B0021DF70",44.979,16.7091,"","","Prijedor","",24496086,"2024-01-26T20:01:45",3,"NO ERROR",4.99,100,1009.39,2.71,3.74,4.76],
    [420,363171,"Vazduh","Libelium","0004A30B0021DF70",44.979,16.7091,"","","Prijedor","",24496989,"2024-01-26T21:02:26",3,"NO ERROR",4.56,100,1008.76,1.95,2.35,2.35],
    [421,363171,"Vazduh","Libelium","0004A30B0021DF70",44.979,16.7091,"","","Prijedor","",24497823,"2024-01-26T22:03:07",3,"NO ERROR",4.52,100,1009.02,1.01,1.18,1.18],
    [422,363171,"Vazduh","Libelium","0004A30B0021DF70",44.979,16.7091,"","","Prijedor","",24498683,"2024-01-26T23:03:49",3,"NO ERROR",5.21,100,1008.71,0.99,1.17,1.17],
    [423,363171,"Vazduh","Libelium","0004A30B0021DF70",44.979,16.7091,"","","Prijedor","",24499756,"2024-01-27T00:04:31",3,"NO ERROR",5.06,100,1008.8,1.48,1.93,1.94],
    [424,363171,"Vazduh","Libelium","0004A30B0021DF70",44.979,16.7091,"","","Prijedor","",24500621,"2024-01-27T01:05:13",3,"NO ERROR",4.69,100,1009.07,0.84,1.08,1.11],
    [425,363171,"Vazduh","Libelium","0004A30B0021DF70",44.979,16.7091,"","","Prijedor","",24501539,"2024-01-27T02:05:55",3,"NO ERROR",3.85,100,1009.85,0.99,1.3,1.31],
    [426,363171,"Vazduh","Libelium","0004A30B0021DF70",44.979,16.7091,"","","Prijedor","",24502403,"2024-01-27T03:06:37",3,"NO ERROR",3.28,100,1011.96,0.78,1.01,1.01],
    [427,363171,"Vazduh","Libelium","0004A30B0021DF70",44.979,16.7091,"","","Prijedor","",24503271,"2024-01-27T04:07:18",3,"NO ERROR",5.03,100,1012.6,0.39,0.49,0.49],
    [428,363171,"Vazduh","Libelium","0004A30B0021DF70",44.979,16.7091,"","","Prijedor","",24504184,"2024-01-27T05:07:59",3,"NO ERROR",4.26,100,1013.43,0.52,0.6,0.6],
    [429,363171,"Vazduh","Libelium","0004A30B0021DF70",44.979,16.7091,"","","Prijedor","",24505093,"2024-01-27T06:08:41",3,"NO ERROR",2.73,100,1014.29,0.21,0.26,0.26],
    [430,363171,"Vazduh","Libelium","0004A30B0021DF70",44.979,16.7091,"","","Prijedor","",24505997,"2024-01-27T07:09:23",3,"NO ERROR",1.07,100,1015.01,1.04,1.47,1.48],
    [431,363171,"Vazduh","Libelium","0004A30B0021DF70",44.979,16.7091,"","","Prijedor","",24506942,"2024-01-27T08:10:05",3,"NO ERROR",1.21,100,1016.06,0.58,0.72,0.72],
    [432,363171,"Vazduh","Libelium","0004A30B0021DF70",44.979,16.7091,"","","Prijedor","",24507847,"2024-01-27T09:10:47",3,"NO ERROR",3.83,100,1016.47,0.97,1.16,1.17],
    [433,363171,"Vazduh","Libelium","0004A30B0021DF70",44.979,16.7091,"","","Prijedor","",24508718,"2024-01-27T10:11:28",3,"NO ERROR",6.74,100,1016.84,0.64,0.81,0.81],
    [434,363171,"Vazduh","Libelium","0004A30B0021DF70",44.979,16.7091,"","","Prijedor","",24509641,"2024-01-27T11:12:10",3,"NO ERROR",10.41,77.1,1017.01,0.21,0.26,0.27],
    [435,363171,"Vazduh","Libelium","0004A30B0021DF70",44.979,16.7091,"","","Prijedor","",24510579,"2024-01-27T12:12:51",3,"NO ERROR",11.49,59.7,1016.78,0.05,0.09,0.09],
    [436,363171,"Vazduh","Libelium","0004A30B0021DF70",44.979,16.7091,"","","Prijedor","",24511530,"2024-01-27T13:13:32",3,"NO ERROR",11.81,56.9,1016.48,0.1,0.1,0.1],
    [437,363171,"Vazduh","Libelium","0004A30B0021DF70",44.979,16.7091,"","","Prijedor","",24512467,"2024-01-27T14:14:14",3,"NO ERROR",12.51,53.4,1016.04,0.16,0.18,0.18],
    [438,363171,"Vazduh","Libelium","0004A30B0021DF70",44.979,16.7091,"","","Prijedor","",24513391,"2024-01-27T15:14:55",3,"NO ERROR",16.95,43.8,1016.1,0.22,0.25,0.25],
    [439,363171,"Vazduh","Libelium","0004A30B0021DF70",44.979,16.7091,"","","Prijedor","",24514294,"2024-01-27T16:15:36",3,"NO ERROR",10.38,51,1016.22,0.22,0.32,0.32],
    [440,363171,"Vazduh","Libelium","0004A30B0021DF70",44.979,16.7091,"","","Prijedor","",24515175,"2024-01-27T17:16:17",3,"NO ERROR",7.43,59.5,1016.62,0.48,0.61,0.63],
    [441,363171,"Vazduh","Libelium","0004A30B0021DF70",44.979,16.7091,"","","Prijedor","",24515966,"2024-01-27T18:16:59",3,"NO ERROR",5.49,72.6,1017.04,0.39,0.57,0.57],
    [442,363171,"Vazduh","Libelium","0004A30B0021DF70",44.979,16.7091,"","","Prijedor","",24516804,"2024-01-27T19:17:40",3,"NO ERROR",3.61,86.6,1017.76,0.63,0.81,0.96],
    [443,363171,"Vazduh","Libelium","0004A30B0021DF70",44.979,16.7091,"","","Prijedor","",24517703,"2024-01-27T20:18:22",3,"NO ERROR",2.15,100,1018.24,0.22,0.29,0.29],
    [444,363171,"Vazduh","Libelium","0004A30B0021DF70",44.979,16.7091,"","","Prijedor","",24518554,"2024-01-27T21:19:04",3,"NO ERROR",1.17,100,1018.98,0.51,0.84,0.88],
    [445,363171,"Vazduh","Libelium","0004A30B0021DF70",44.979,16.7091,"","","Prijedor","",24519383,"2024-01-27T22:19:45",3,"NO ERROR",0.43,100,1019.89,0.32,0.43,0.46],
    [446,363171,"Vazduh","Libelium","0004A30B0021DF70",44.979,16.7091,"","","Prijedor","",24520226,"2024-01-27T23:20:26",3,"NO ERROR",-0.31,100,1020.52,0.28,0.29,0.29],
    [447,363171,"Vazduh","Libelium","0004A30B0021DF70",44.979,16.7091,"","","Prijedor","",24521320,"2024-01-28T00:21:07",3,"NO ERROR",-0.44,100,1021.3,0.2,0.34,0.35],
    [448,363171,"Vazduh","Libelium","0004A30B0021DF70",44.979,16.7091,"","","Prijedor","",24522150,"2024-01-28T01:21:49",3,"NO ERROR",-1.21,100,1021.4,0.21,0.26,0.26],
    [449,363171,"Vazduh","Libelium","0004A30B0021DF70",44.979,16.7091,"","","Prijedor","",24522965,"2024-01-28T02:22:30",3,"NO ERROR",-1.27,100,1021.74,0.2,0.26,0.26],
    [450,363171,"Vazduh","Libelium","0004A30B0021DF70",44.979,16.7091,"","","Prijedor","",24523788,"2024-01-28T03:23:11",3,"NO ERROR",-1.56,100,1021.83,0.06,0.08,0.08],
    [451,363171,"Vazduh","Libelium","0004A30B0021DF70",44.979,16.7091,"","","Prijedor","",24524671,"2024-01-28T04:23:52",3,"NO ERROR",-2.01,100,1022.25,0.05,0.08,0.09],
    [452,363171,"Vazduh","Libelium","0004A30B0021DF70",44.979,16.7091,"","","Prijedor","",24525562,"2024-01-28T05:24:34",3,"NO ERROR",-1.99,100,1022.36,0.34,0.5,0.53],
    [453,363171,"Vazduh","Libelium","0004A30B0021DF70",44.979,16.7091,"","","Prijedor","",24526427,"2024-01-28T06:25:16",3,"NO ERROR",-2.18,100,1022.85,0.12,0.14,0.14],
    [454,363171,"Vazduh","Libelium","0004A30B0021DF70",44.979,16.7091,"","","Prijedor","",24527254,"2024-01-28T07:25:58",3,"NO ERROR",-1.42,100,1023.19,0.1,0.17,0.18],
    [455,363171,"Vazduh","Libelium","0004A30B0021DF70",44.979,16.7091,"","","Prijedor","",24528080,"2024-01-28T08:26:40",3,"NO ERROR",-0.84,100,1023.45,0.13,0.15,0.15],
    [456,363171,"Vazduh","Libelium","0004A30B0021DF70",44.979,16.7091,"","","Prijedor","",24528948,"2024-01-28T09:27:21",3,"NO ERROR",2.12,100,1023.6,0.17,0.19,0.19],
    [457,363171,"Vazduh","Libelium","0004A30B0021DF70",44.979,16.7091,"","","Prijedor","",24529743,"2024-01-28T10:28:03",3,"NO ERROR",5.29,93.9,1023.96,0.37,0.55,0.56],
    [458,363171,"Vazduh","Libelium","0004A30B0021DF70",44.979,16.7091,"","","Prijedor","",24530673,"2024-01-28T11:28:45",3,"NO ERROR",8.15,75.3,1023.52,0.36,0.5,0.51],
    [459,363171,"Vazduh","Libelium","0004A30B0021DF70",44.979,16.7091,"","","Prijedor","",24531674,"2024-01-28T12:29:26",3,"NO ERROR",9.53,67.3,1022.82,0.42,0.51,0.51],
    [460,363171,"Vazduh","Libelium","0004A30B0021DF70",44.979,16.7091,"","","Prijedor","",24532620,"2024-01-28T13:30:08",3,"NO ERROR",9.66,64.6,1022.13,0.16,0.2,0.21],
    [461,363171,"Vazduh","Libelium","0004A30B0021DF70",44.979,16.7091,"","","Prijedor","",24533498,"2024-01-28T14:30:50",3,"NO ERROR",13.4,53.2,1021.78,0.23,0.29,0.29],
    [462,363171,"Vazduh","Libelium","0004A30B0021DF70",44.979,16.7091,"","","Prijedor","",24534414,"2024-01-28T15:31:32",3,"NO ERROR",12.38,50,1021.68,0.2,0.25,0.25],
    [463,363171,"Vazduh","Libelium","0004A30B0021DF70",44.979,16.7091,"","","Prijedor","",24535322,"2024-01-28T16:32:13",3,"NO ERROR",7.39,62.4,1021.63,0.25,0.28,0.28],
    [464,363171,"Vazduh","Libelium","0004A30B0021DF70",44.979,16.7091,"","","Prijedor","",24536161,"2024-01-28T17:33:00",3,"NO ERROR",5.99,69,1021.8,0.53,0.73,0.73],
    [465,363171,"Vazduh","Libelium","0004A30B0021DF70",44.979,16.7091,"","","Prijedor","",24536934,"2024-01-28T18:33:42",3,"NO ERROR",3.51,85.5,1022.12,0.28,0.31,0.31],
    [466,363171,"Vazduh","Libelium","0004A30B0021DF70",44.979,16.7091,"","","Prijedor","",24537731,"2024-01-28T19:34:23",3,"NO ERROR",1.94,98,1022.83,1.16,1.42,1.43],
    [467,363171,"Vazduh","Libelium","0004A30B0021DF70",44.979,16.7091,"","","Prijedor","",24538624,"2024-01-28T20:35:05",3,"NO ERROR",0.78,100,1022.95,0.62,0.7,0.7],
    [468,363171,"Vazduh","Libelium","0004A30B0021DF70",44.979,16.7091,"","","Prijedor","",24539523,"2024-01-28T21:35:46",3,"NO ERROR",0.05,100,1023.09,0.44,0.47,0.47],
    [469,363171,"Vazduh","Libelium","0004A30B0021DF70",44.979,16.7091,"","","Prijedor","",24540316,"2024-01-28T22:36:27",3,"NO ERROR",-0.5,100,1023.33,0.65,0.74,0.74],
    [470,363171,"Vazduh","Libelium","0004A30B0021DF70",44.979,16.7091,"","","Prijedor","",24541141,"2024-01-28T23:37:08",3,"NO ERROR",-1.66,100,1023.57,1.06,1.61,2.42],
    [471,363171,"Vazduh","Libelium","0004A30B0021DF70",44.979,16.7091,"","","Prijedor","",24542259,"2024-01-29T00:37:50",3,"NO ERROR",-2.38,100,1023.48,0.78,1,1.01],
    [472,363171,"Vazduh","Libelium","0004A30B0021DF70",44.979,16.7091,"","","Prijedor","",24543135,"2024-01-29T01:38:32",3,"NO ERROR",-2.5,100,1023.55,1.16,1.35,1.36],
    [473,363171,"Vazduh","Libelium","0004A30B0021DF70",44.979,16.7091,"","","Prijedor","",24543950,"2024-01-29T02:39:13",3,"NO ERROR",-3.03,100,1023.6,1.26,1.6,1.61],
    [474,363171,"Vazduh","Libelium","0004A30B0021DF70",44.979,16.7091,"","","Prijedor","",24544806,"2024-01-29T03:39:55",3,"NO ERROR",-3.45,100,1023.46,0.54,0.67,0.67],
    [475,363171,"Vazduh","Libelium","0004A30B0021DF70",44.979,16.7091,"","","Prijedor","",24545747,"2024-01-29T04:40:37",3,"NO ERROR",-3.95,100,1023.19,1.1,1.52,1.57],
    [476,363171,"Vazduh","Libelium","0004A30B0021DF70",44.979,16.7091,"","","Prijedor","",24546579,"2024-01-29T05:41:19",3,"NO ERROR",-4.38,100,1023.37,0.56,0.83,0.85],
    [477,363171,"Vazduh","Libelium","0004A30B0021DF70",44.979,16.7091,"","","Prijedor","",24547423,"2024-01-29T06:42:01",3,"NO ERROR",-4.53,100,1023.59,0.67,0.89,0.9],
    [478,363171,"Vazduh","Libelium","0004A30B0021DF70",44.979,16.7091,"","","Prijedor","",24548256,"2024-01-29T07:42:42",3,"NO ERROR",-3.83,100,1023.88,2,2.81,3],
    [479,363171,"Vazduh","Libelium","0004A30B0021DF70",44.979,16.7091,"","","Prijedor","",24549141,"2024-01-29T08:43:23",3,"NO ERROR",1.53,100,1024.02,0.43,0.65,0.67],
    [480,363171,"Vazduh","Libelium","0004A30B0021DF70",44.979,16.7091,"","","Prijedor","",24549974,"2024-01-29T09:44:05",3,"NO ERROR",1.16,100,1024.19,0.36,0.46,0.47],
    [481,363171,"Vazduh","Libelium","0004A30B0021DF70",44.979,16.7091,"","","Prijedor","",24550793,"2024-01-29T10:44:46",3,"NO ERROR",3.67,95.1,1024.27,0.35,0.44,0.46],
    [482,363171,"Vazduh","Libelium","0004A30B0021DF70",44.979,16.7091,"","","Prijedor","",24551695,"2024-01-29T11:45:28",3,"NO ERROR",5.75,80.9,1023.42,0.39,0.89,1.2],
    [483,363171,"Vazduh","Libelium","0004A30B0021DF70",44.979,16.7091,"","","Prijedor","",24552744,"2024-01-29T12:46:10",3,"NO ERROR",7.47,75.7,1022.68,0.33,0.52,0.63],
    [484,363171,"Vazduh","Libelium","0004A30B0021DF70",44.979,16.7091,"","","Prijedor","",24553698,"2024-01-29T13:46:51",3,"NO ERROR",8.97,65,1021.93,0.69,1.01,1.75],
    [485,363171,"Vazduh","Libelium","0004A30B0021DF70",44.979,16.7091,"","","Prijedor","",24554623,"2024-01-29T14:47:32",3,"NO ERROR",14.94,47.9,1021.45,0.28,0.43,0.43],
    [486,363171,"Vazduh","Libelium","0004A30B0021DF70",44.979,16.7091,"","","Prijedor","",24555543,"2024-01-29T15:48:14",3,"NO ERROR",13.3,45.6,1021.54,0.39,0.51,0.51],
    [487,363171,"Vazduh","Libelium","0004A30B0021DF70",44.979,16.7091,"","","Prijedor","",24556472,"2024-01-29T16:48:55",3,"NO ERROR",7.29,59.8,1021.57,1.51,2.44,3.28],
    [488,363171,"Vazduh","Libelium","0004A30B0021DF70",44.979,16.7091,"","","Prijedor","",24557307,"2024-01-29T17:49:37",3,"NO ERROR",5.54,69.6,1021.89,0.8,1.04,1.05],
    [489,363171,"Vazduh","Libelium","0004A30B0021DF70",44.979,16.7091,"","","Prijedor","",24558096,"2024-01-29T18:50:24",3,"NO ERROR",2.97,89.2,1022.44,1.21,1.68,1.83],
    [490,363171,"Vazduh","Libelium","0004A30B0021DF70",44.979,16.7091,"","","Prijedor","",24558942,"2024-01-29T19:51:06",3,"NO ERROR",0.65,100,1023.09,0.12,0.17,0.18],
    [491,363171,"Vazduh","Libelium","0004A30B0021DF70",44.979,16.7091,"","","Prijedor","",24559810,"2024-01-29T20:51:47",3,"NO ERROR",0.07,100,1023.37,1.15,1.4,1.4],
    [492,363171,"Vazduh","Libelium","0004A30B0021DF70",44.979,16.7091,"","","Prijedor","",24560641,"2024-01-29T21:52:28",3,"NO ERROR",-0.96,100,1023.39,0.8,1.06,1.09],
    [493,363171,"Vazduh","Libelium","0004A30B0021DF70",44.979,16.7091,"","","Prijedor","",24561480,"2024-01-29T22:53:09",3,"NO ERROR",-1.81,100,1023.74,0.67,0.84,0.87],
    [494,363171,"Vazduh","Libelium","0004A30B0021DF70",44.979,16.7091,"","","Prijedor","",24562381,"2024-01-29T23:53:52",3,"NO ERROR",-2.15,100,1023.98,0.53,0.73,0.74],
    [495,363171,"Vazduh","Libelium","0004A30B0021DF70",44.979,16.7091,"","","Prijedor","",24563491,"2024-01-30T00:54:33",3,"NO ERROR",-2.88,100,1023.82,0.35,0.48,0.48],
    [496,363171,"Vazduh","Libelium","0004A30B0021DF70",44.979,16.7091,"","","Prijedor","",24564342,"2024-01-30T01:55:21",3,"NO ERROR",-3.12,100,1024.07,1.01,1.39,1.4],
    [497,363171,"Vazduh","Libelium","0004A30B0021DF70",44.979,16.7091,"","","Prijedor","",24565120,"2024-01-30T02:56:02",3,"NO ERROR",-3.71,100,1023.81,0.31,0.44,0.44],
    [498,363171,"Vazduh","Libelium","0004A30B0021DF70",44.979,16.7091,"","","Prijedor","",24566002,"2024-01-30T03:56:45",3,"NO ERROR",-4.09,100,1024,0.76,0.89,0.89],
    [499,363171,"Vazduh","Libelium","0004A30B0021DF70",44.979,16.7091,"","","Prijedor","",24566936,"2024-01-30T04:57:27",3,"NO ERROR",-4.47,100,1023.81,0.7,1.01,1.04],
    [500,363171,"Vazduh","Libelium","0004A30B0021DF70",44.979,16.7091,"","","Prijedor","",24567783,"2024-01-30T05:58:08",3,"NO ERROR",-5.14,100,1023.94,0.65,0.83,0.84],
    [501,363171,"Vazduh","Libelium","0004A30B0021DF70",44.979,16.7091,"","","Prijedor","",24568617,"2024-01-30T06:58:51",3,"NO ERROR",-5.52,100,1024.19,0.59,0.72,0.73],
    [502,363171,"Vazduh","Libelium","0004A30B0021DF70",44.979,16.7091,"","","Prijedor","",24569508,"2024-01-30T07:59:33",3,"NO ERROR",-5.05,100,1024.43,3.26,7.27,62.29],
    [503,363171,"Vazduh","Libelium","0004A30B0021DF70",44.979,16.7091,"","","Prijedor","",24570324,"2024-01-30T09:00:15",3,"NO ERROR",-2.22,100,1024.57,1.3,1.72,1.75],
    [504,363171,"Vazduh","Libelium","0004A30B0021DF70",44.979,16.7091,"","","Prijedor","",24571157,"2024-01-30T10:00:56",3,"NO ERROR",-0.04,100,1024.17,0.26,0.35,0.36],
    [505,363171,"Vazduh","Libelium","0004A30B0021DF70",44.979,16.7091,"","","Prijedor","",24572017,"2024-01-30T11:01:37",3,"NO ERROR",2.23,100,1023.87,0.56,0.72,0.72],
    [506,363171,"Vazduh","Libelium","0004A30B0021DF70",44.979,16.7091,"","","Prijedor","",24572980,"2024-01-30T12:02:32",3,"NO ERROR",4.28,85.2,1022.97,0.6,0.71,0.71],
    [507,363171,"Vazduh","Libelium","0004A30B0021DF70",44.979,16.7091,"","","Prijedor","",24574010,"2024-01-30T13:03:13",3,"NO ERROR",6.48,74.9,1022.27,0.42,0.53,0.53],
    [508,363171,"Vazduh","Libelium","0004A30B0021DF70",44.979,16.7091,"","","Prijedor","",24574958,"2024-01-30T14:03:55",3,"NO ERROR",8.35,69.4,1021.62,0.65,0.94,0.97],
    [509,363171,"Vazduh","Libelium","0004A30B0021DF70",44.979,16.7091,"","","Prijedor","",24575884,"2024-01-30T15:04:36",3,"NO ERROR",13.73,54.6,1021.13,0.48,0.65,0.65],
    [510,363171,"Vazduh","Libelium","0004A30B0021DF70",44.979,16.7091,"","","Prijedor","",24576767,"2024-01-30T16:05:18",3,"NO ERROR",8.79,64.3,1020.96,0.85,1.06,1.07],
    [511,363171,"Vazduh","Libelium","0004A30B0021DF70",44.979,16.7091,"","","Prijedor","",24577681,"2024-01-30T17:05:59",3,"NO ERROR",5.93,79.9,1021.28,0.37,0.5,0.5],
    [512,363171,"Vazduh","Libelium","0004A30B0021DF70",44.979,16.7091,"","","Prijedor","",24578517,"2024-01-30T18:06:40",3,"NO ERROR",3.94,90.8,1021.39,0.59,0.75,0.75],
    [513,363171,"Vazduh","Libelium","0004A30B0021DF70",44.979,16.7091,"","","Prijedor","",24579329,"2024-01-30T19:07:22",3,"NO ERROR",1.78,100,1021.35,0.76,1,1.03],
    [514,363171,"Vazduh","Libelium","0004A30B0021DF70",44.979,16.7091,"","","Prijedor","",24580243,"2024-01-30T20:08:03",3,"NO ERROR",0.73,100,1021.19,0.37,0.51,0.52],
    [515,363171,"Vazduh","Libelium","0004A30B0021DF70",44.979,16.7091,"","","Prijedor","",24581146,"2024-01-30T21:08:45",3,"NO ERROR",-1.19,100,1021.32,0.96,1.31,1.45],
    [516,363171,"Vazduh","Libelium","0004A30B0021DF70",44.979,16.7091,"","","Prijedor","",24582017,"2024-01-30T22:09:26",3,"NO ERROR",-1.75,100,1021.28,1.15,1.53,1.55],
    [517,363171,"Vazduh","Libelium","0004A30B0021DF70",44.979,16.7091,"","","Prijedor","",24582892,"2024-01-30T23:10:07",3,"NO ERROR",-2.49,100,1021.4,0.56,0.59,0.59],
    [518,363171,"Vazduh","Libelium","0004A30B0021DF70",44.979,16.7091,"","","Prijedor","",24583919,"2024-01-31T00:10:49",3,"NO ERROR",-2.84,100,1021.42,0.2,0.29,0.3],
    [519,363171,"Vazduh","Libelium","0004A30B0021DF70",44.979,16.7091,"","","Prijedor","",24584776,"2024-01-31T01:11:31",3,"NO ERROR",-3.3,100,1021.37,0.84,0.91,0.91],
    [520,363171,"Vazduh","Libelium","0004A30B0021DF70",44.979,16.7091,"","","Prijedor","",24585599,"2024-01-31T02:12:13",3,"NO ERROR",-3.71,100,1021.06,0.81,0.95,0.95],
    [521,363171,"Vazduh","Libelium","0004A30B0021DF70",44.979,16.7091,"","","Prijedor","",24586394,"2024-01-31T03:12:54",3,"NO ERROR",-4.23,100,1020.82,0.7,0.8,0.8],
    [522,363171,"Vazduh","Libelium","0004A30B0021DF70",44.979,16.7091,"","","Prijedor","",24587329,"2024-01-31T04:13:35",3,"NO ERROR",-4.57,100,1020.82,0.73,1.01,1.01],
    [523,363171,"Vazduh","Libelium","0004A30B0021DF70",44.979,16.7091,"","","Prijedor","",24588240,"2024-01-31T05:14:18",3,"NO ERROR",-5.17,100,1020.64,0.37,0.39,0.39],
    [524,363171,"Vazduh","Libelium","0004A30B0021DF70",44.979,16.7091,"","","Prijedor","",24589071,"2024-01-31T06:15:00",3,"NO ERROR",-5.24,100,1020.71,2.47,2.89,2.9],
    [525,363171,"Vazduh","Libelium","0004A30B0021DF70",44.979,16.7091,"","","Prijedor","",24589912,"2024-01-31T07:15:41",3,"NO ERROR",-4.84,100,1021.04,19.55,33.93,106.98],
    [526,363171,"Vazduh","Libelium","0004A30B0021DF70",44.979,16.7091,"","","Prijedor","",24590803,"2024-01-31T08:16:24",3,"NO ERROR",-4.14,100,1021.38,13.98,21.33,67.91],
    [527,363171,"Vazduh","Libelium","0004A30B0021DF70",44.979,16.7091,"","","Prijedor","",24591641,"2024-01-31T09:17:05",3,"NO ERROR",-3.68,100,1020.97,13.47,34.16,203.66],
    [528,363171,"Vazduh","Libelium","0004A30B0021DF70",44.979,16.7091,"","","Prijedor","",24592450,"2024-01-31T10:17:47",3,"NO ERROR",-1.89,100,1021.12,3.27,4.29,5.77],
    [529,363171,"Vazduh","Libelium","0004A30B0021DF70",44.979,16.7091,"","","Prijedor","",24593321,"2024-01-31T11:18:29",3,"NO ERROR",1.43,100,1020.59,1.37,1.78,1.91],
    [530,363171,"Vazduh","Libelium","0004A30B0021DF70",44.979,16.7091,"","","Prijedor","",24594305,"2024-01-31T12:19:11",3,"NO ERROR",4.45,91.3,1019.77,0.76,0.98,1.1],
    [531,363171,"Vazduh","Libelium","0004A30B0021DF70",44.979,16.7091,"","","Prijedor","",24595263,"2024-01-31T13:19:53",3,"NO ERROR",5.92,79.9,1019.2,0.9,1.3,1.34],
    [532,363171,"Vazduh","Libelium","0004A30B0021DF70",44.979,16.7091,"","","Prijedor","",24596169,"2024-01-31T14:20:35",3,"NO ERROR",9.8,66.4,1018.6,0.25,0.26,0.26],
    [533,363171,"Vazduh","Libelium","0004A30B0021DF70",44.979,16.7091,"","","Prijedor","",24597084,"2024-01-31T15:21:28",3,"NO ERROR",13.76,52.9,1018.15,0.39,0.81,1.01],
    [534,363171,"Vazduh","Libelium","0004A30B0021DF70",44.979,16.7091,"","","Prijedor","",24597988,"2024-01-31T16:22:09",3,"NO ERROR",7.8,65.2,1018.05,0.82,1.32,1.52],
    [535,363171,"Vazduh","Libelium","0004A30B0021DF70",44.979,16.7091,"","","Prijedor","",24598866,"2024-01-31T17:22:51",3,"NO ERROR",5.47,77.8,1018.25,1.57,2.02,2.53],
    [536,363171,"Vazduh","Libelium","0004A30B0021DF70",44.979,16.7091,"","","Prijedor","",24599674,"2024-01-31T18:23:32",3,"NO ERROR",4.24,89.5,1018.47,1.16,1.42,1.44],
    [537,363171,"Vazduh","Libelium","0004A30B0021DF70",44.979,16.7091,"","","Prijedor","",24600510,"2024-01-31T19:24:14",3,"NO ERROR",3.08,100,1018.57,0.84,0.99,0.99],
    [538,363171,"Vazduh","Libelium","0004A30B0021DF70",44.979,16.7091,"","","Prijedor","",24601489,"2024-01-31T20:24:56",3,"NO ERROR",1.52,100,1018.1,1.52,1.97,1.98],
    [539,363171,"Vazduh","Libelium","0004A30B0021DF70",44.979,16.7091,"","","Prijedor","",24602403,"2024-01-31T21:25:38",3,"NO ERROR",0.2,100,1017.94,0.66,0.75,0.75],
    [540,363171,"Vazduh","Libelium","0004A30B0021DF70",44.979,16.7091,"","","Prijedor","",24603284,"2024-01-31T22:26:21",3,"NO ERROR",-0.13,100,1017.6,0.84,1.12,1.14],
    [541,363171,"Vazduh","Libelium","0004A30B0021DF70",44.979,16.7091,"","","Prijedor","",24604122,"2024-01-31T23:27:03",3,"NO ERROR",-0.97,100,1017.55,0.59,0.67,0.68],
    [542,363171,"Vazduh","Libelium","0004A30B0021DF70",44.979,16.7091,"","","Prijedor","",24605294,"2024-02-01T00:27:45",3,"NO ERROR",-0.99,100,1016.75,0.55,0.62,0.62],
    [543,363171,"Vazduh","Libelium","0004A30B0021DF70",44.979,16.7091,"","","Prijedor","",24606265,"2024-02-01T01:28:27",3,"NO ERROR",-1.02,100,1016.13,1.04,1.12,1.12],
    [544,363171,"Vazduh","Libelium","0004A30B0021DF70",44.979,16.7091,"","","Prijedor","",24607135,"2024-02-01T02:29:09",3,"NO ERROR",-2.27,100,1015.88,1.17,1.36,1.37],
    [545,363171,"Vazduh","Libelium","0004A30B0021DF70",44.979,16.7091,"","","Prijedor","",24607989,"2024-02-01T03:29:52",3,"NO ERROR",-2.71,100,1015.6,1.54,1.78,1.79],
    [546,363171,"Vazduh","Libelium","0004A30B0021DF70",44.979,16.7091,"","","Prijedor","",24608935,"2024-02-01T04:30:40",3,"NO ERROR",-2.6,100,1015.14,1.69,2.1,2.1],
    [547,363171,"Vazduh","Libelium","0004A30B0021DF70",44.979,16.7091,"","","Prijedor","",24609819,"2024-02-01T05:31:22",3,"NO ERROR",-3.07,100,1014.5,1.27,1.49,1.49],
    [548,363171,"Vazduh","Libelium","0004A30B0021DF70",44.979,16.7091,"","","Prijedor","",24610672,"2024-02-01T06:32:04",3,"NO ERROR",-3.7,100,1014.47,1.14,1.27,1.27],
    [549,363171,"Vazduh","Libelium","0004A30B0021DF70",44.979,16.7091,"","","Prijedor","",24611540,"2024-02-01T07:32:47",3,"NO ERROR",-3.35,100,1014.18,5.08,6.76,7.85],
    [550,363171,"Vazduh","Libelium","0004A30B0021DF70",44.979,16.7091,"","","Prijedor","",24612425,"2024-02-01T08:33:29",3,"NO ERROR",-0.84,100,1014.06,0.51,0.65,0.66],
    [551,363171,"Vazduh","Libelium","0004A30B0021DF70",44.979,16.7091,"","","Prijedor","",24613257,"2024-02-01T09:34:11",3,"NO ERROR",0.38,100,1014.1,1.14,1.37,1.37],
    [552,363171,"Vazduh","Libelium","0004A30B0021DF70",44.979,16.7091,"","","Prijedor","",24614077,"2024-02-01T10:34:53",3,"NO ERROR",3.38,94.3,1013.78,0.2,0.23,0.23],
    [553,363171,"Vazduh","Libelium","0004A30B0021DF70",44.979,16.7091,"","","Prijedor","",24615002,"2024-02-01T11:35:35",3,"NO ERROR",6.61,76.2,1012.59,0.35,0.56,0.67],
    [554,363171,"Vazduh","Libelium","0004A30B0021DF70",44.979,16.7091,"","","Prijedor","",24615980,"2024-02-01T12:36:17",3,"NO ERROR",8.3,63.9,1011.55,0.27,0.44,0.57],
    [555,363171,"Vazduh","Libelium","0004A30B0021DF70",44.979,16.7091,"","","Prijedor","",24616898,"2024-02-01T13:36:59",3,"NO ERROR",9.86,57.1,1010.61,0.12,0.15,0.15],
    [556,363171,"Vazduh","Libelium","0004A30B0021DF70",44.979,16.7091,"","","Prijedor","",24617810,"2024-02-01T14:37:42",3,"NO ERROR",9.84,53,1010.3,0.61,0.94,1.11],
    [557,363171,"Vazduh","Libelium","0004A30B0021DF70",44.979,16.7091,"","","Prijedor","",24618717,"2024-02-01T15:38:30",3,"NO ERROR",10.13,51.3,1010.01,0.37,0.72,0.86],
    [558,363171,"Vazduh","Libelium","0004A30B0021DF70",44.979,16.7091,"","","Prijedor","",24619616,"2024-02-01T16:39:12",3,"NO ERROR",8.05,59.2,1010.34,0.96,1.49,1.65],
    [559,363171,"Vazduh","Libelium","0004A30B0021DF70",44.979,16.7091,"","","Prijedor","",24620422,"2024-02-01T17:39:54",3,"NO ERROR",6.52,68.6,1010.81,1.94,2.79,2.87],
    [560,363171,"Vazduh","Libelium","0004A30B0021DF70",44.979,16.7091,"","","Prijedor","",24621190,"2024-02-01T18:40:36",3,"NO ERROR",6.63,72.5,1011.24,0.3,0.48,0.61],
    [561,363171,"Vazduh","Libelium","0004A30B0021DF70",44.979,16.7091,"","","Prijedor","",24622069,"2024-02-01T19:41:24",3,"NO ERROR",6.07,80,1011.6,0.28,0.35,0.35],
    [562,363171,"Vazduh","Libelium","0004A30B0021DF70",44.979,16.7091,"","","Prijedor","",24622996,"2024-02-01T20:42:06",3,"NO ERROR",4.89,87.2,1011.92,0.58,0.91,1.12],
    [563,363171,"Vazduh","Libelium","0004A30B0021DF70",44.979,16.7091,"","","Prijedor","",24623898,"2024-02-01T21:42:48",3,"NO ERROR",3.78,97.3,1012.5,0.29,0.41,0.43],
    [564,363171,"Vazduh","Libelium","0004A30B0021DF70",44.979,16.7091,"","","Prijedor","",24624790,"2024-02-01T22:43:30",3,"NO ERROR",4.07,99.1,1012.92,0.55,0.63,0.63],
    [565,363171,"Vazduh","Libelium","0004A30B0021DF70",44.979,16.7091,"","","Prijedor","",24625638,"2024-02-01T23:44:13",3,"NO ERROR",4.02,99.2,1013.43,0.35,0.48,0.5],
    [566,363171,"Vazduh","Libelium","0004A30B0021DF70",44.979,16.7091,"","","Prijedor","",24626809,"2024-02-02T00:44:55",3,"NO ERROR",3.73,100,1013.79,0.61,0.74,0.75],
    [567,363171,"Vazduh","Libelium","0004A30B0021DF70",44.979,16.7091,"","","Prijedor","",24627731,"2024-02-02T01:45:37",3,"NO ERROR",3.22,100,1013.83,0.56,0.77,0.87],
    [568,363171,"Vazduh","Libelium","0004A30B0021DF70",44.979,16.7091,"","","Prijedor","",24628537,"2024-02-02T02:46:19",3,"NO ERROR",2.93,100,1014.35,0.42,0.64,0.78],
    [569,363171,"Vazduh","Libelium","0004A30B0021DF70",44.979,16.7091,"","","Prijedor","",24629389,"2024-02-02T03:47:01",3,"NO ERROR",2.7,100,1014.51,0.35,0.42,0.42],
    [570,363171,"Vazduh","Libelium","0004A30B0021DF70",44.979,16.7091,"","","Prijedor","",24630315,"2024-02-02T04:47:43",3,"NO ERROR",2.55,100,1014.8,0.55,0.59,0.59],
    [571,363171,"Vazduh","Libelium","0004A30B0021DF70",44.979,16.7091,"","","Prijedor","",24631174,"2024-02-02T05:48:25",3,"NO ERROR",2.42,100,1015.08,0.63,0.67,0.67],
    [572,363171,"Vazduh","Libelium","0004A30B0021DF70",44.979,16.7091,"","","Prijedor","",24632054,"2024-02-02T06:49:08",3,"NO ERROR",2.36,100,1015.4,1.51,1.9,1.91],
    [573,363171,"Vazduh","Libelium","0004A30B0021DF70",44.979,16.7091,"","","Prijedor","",24632934,"2024-02-02T07:49:50",3,"NO ERROR",2.16,100,1015.82,0.44,0.47,0.47],
    [574,363171,"Vazduh","Libelium","0004A30B0021DF70",44.979,16.7091,"","","Prijedor","",24633819,"2024-02-02T08:50:32",3,"NO ERROR",6.08,94.7,1016.18,0.71,0.79,0.8],
    [575,363171,"Vazduh","Libelium","0004A30B0021DF70",44.979,16.7091,"","","Prijedor","",24634648,"2024-02-02T09:51:14",3,"NO ERROR",4.89,100,1016.65,0.65,0.78,0.78],
    [576,363171,"Vazduh","Libelium","0004A30B0021DF70",44.979,16.7091,"","","Prijedor","",24635533,"2024-02-02T10:51:56",3,"NO ERROR",7.17,88.1,1016.56,0.32,0.44,0.46],
    [577,363171,"Vazduh","Libelium","0004A30B0021DF70",44.979,16.7091,"","","Prijedor","",24636492,"2024-02-02T11:52:38",3,"NO ERROR",11,63.4,1016.13,0.35,0.43,0.43],
    [578,363171,"Vazduh","Libelium","0004A30B0021DF70",44.979,16.7091,"","","Prijedor","",24637457,"2024-02-02T12:53:20",3,"NO ERROR",10.68,62,1015.67,0.24,0.41,0.5],
    [579,363171,"Vazduh","Libelium","0004A30B0021DF70",44.979,16.7091,"","","Prijedor","",24638395,"2024-02-02T13:54:08",3,"NO ERROR",10.79,61.6,1014.99,0.22,0.27,0.27],
    [580,363171,"Vazduh","Libelium","0004A30B0021DF70",44.979,16.7091,"","","Prijedor","",24639296,"2024-02-02T14:54:50",3,"NO ERROR",11.41,58.5,1014.57,0.68,0.92,0.94],
    [581,363171,"Vazduh","Libelium","0004A30B0021DF70",44.979,16.7091,"","","Prijedor","",24640198,"2024-02-02T15:55:56",3,"NO ERROR",14.78,51.1,1014.13,0.12,0.17,0.17],
    [582,363171,"Vazduh","Libelium","0004A30B0021DF70",44.979,16.7091,"","","Prijedor","",24640196,"2024-02-02T15:55:56",3,"NO ERROR",14.78,51.1,1014.13,0.12,0.17,0.17],
    [583,363171,"Vazduh","Libelium","0004A30B0021DF70",44.979,16.7091,"","","Prijedor","",24640181,"2024-02-02T15:55:32",3,"NO ERROR",14.78,51.1,1014.13,0.12,0.17,0.17],
    [584,363171,"Vazduh","Libelium","0004A30B0021DF70",44.979,16.7091,"","","Prijedor","",24641124,"2024-02-02T16:56:15",3,"NO ERROR",8.95,67.5,1014,0.86,1.05,1.05],
    [585,363171,"Vazduh","Libelium","0004A30B0021DF70",44.979,16.7091,"","","Prijedor","",24641966,"2024-02-02T17:56:57",3,"NO ERROR",8.68,70.5,1014.17,1.36,1.76,2.26],
    [586,363171,"Vazduh","Libelium","0004A30B0021DF70",44.979,16.7091,"","","Prijedor","",24642795,"2024-02-02T18:57:39",3,"NO ERROR",7.77,77,1014.19,0.95,1.18,1.19],
    [587,363171,"Vazduh","Libelium","0004A30B0021DF70",44.979,16.7091,"","","Prijedor","",24643640,"2024-02-02T19:58:21",3,"NO ERROR",7.38,80.5,1013.96,1.15,1.87,2.06],
    [588,363171,"Vazduh","Libelium","0004A30B0021DF70",44.979,16.7091,"","","Prijedor","",24644555,"2024-02-02T20:59:03",3,"NO ERROR",6.41,92.1,1013.45,1.55,2.14,2.33],
    [589,363171,"Vazduh","Libelium","0004A30B0021DF70",44.979,16.7091,"","","Prijedor","",24645459,"2024-02-02T21:59:45",3,"NO ERROR",6.22,96.5,1013.19,2.25,2.67,2.69],
    [590,363171,"Vazduh","Libelium","0004A30B0021DF70",44.979,16.7091,"","","Prijedor","",24646348,"2024-02-02T23:00:33",3,"NO ERROR",5.27,100,1012.83,1.77,2.3,2.33],
    [591,363171,"Vazduh","Libelium","0004A30B0021DF70",44.979,16.7091,"","","Prijedor","",24647392,"2024-02-03T00:01:15",3,"NO ERROR",5.27,97.9,1012.41,0.42,0.69,0.71],
    [592,363171,"Vazduh","Libelium","0004A30B0021DF70",44.979,16.7091,"","","Prijedor","",24648337,"2024-02-03T01:01:57",3,"NO ERROR",4.88,100,1011.85,0.46,0.62,0.63],
    [593,363171,"Vazduh","Libelium","0004A30B0021DF70",44.979,16.7091,"","","Prijedor","",24649225,"2024-02-03T02:02:40",3,"NO ERROR",3.73,100,1011.36,0.27,0.33,0.33],
    [594,363171,"Vazduh","Libelium","0004A30B0021DF70",44.979,16.7091,"","","Prijedor","",24650060,"2024-02-03T03:03:22",3,"NO ERROR",2.9,100,1010.59,0.65,0.78,0.78],
    [595,363171,"Vazduh","Libelium","0004A30B0021DF70",44.979,16.7091,"","","Prijedor","",24650954,"2024-02-03T04:04:04",3,"NO ERROR",2.67,100,1010.36,0.13,0.18,0.18],
    [596,363171,"Vazduh","Libelium","0004A30B0021DF70",44.979,16.7091,"","","Prijedor","",24651872,"2024-02-03T05:04:46",3,"NO ERROR",2,100,1010.01,0.02,0.02,0.02],
    [597,363171,"Vazduh","Libelium","0004A30B0021DF70",44.979,16.7091,"","","Prijedor","",24652723,"2024-02-03T06:05:34",3,"NO ERROR",1.44,100,1009.32,0.05,0.05,0.05],
    [598,363171,"Vazduh","Libelium","0004A30B0021DF70",44.979,16.7091,"","","Prijedor","",24653587,"2024-02-03T07:06:16",3,"NO ERROR",-0.47,100,1009.6,0.16,0.18,0.18],
    [599,363171,"Vazduh","Libelium","0004A30B0021DF70",44.979,16.7091,"","","Prijedor","",24654478,"2024-02-03T08:06:59",3,"NO ERROR",0.37,100,1009.87,0.48,0.59,0.59],
    [600,363171,"Vazduh","Libelium","0004A30B0021DF70",44.979,16.7091,"","","Prijedor","",24655347,"2024-02-03T09:07:41",3,"NO ERROR",5.08,96.1,1010.31,0.06,0.07,0.07],
    [601,363171,"Vazduh","Libelium","0004A30B0021DF70",44.979,16.7091,"","","Prijedor","",24656193,"2024-02-03T10:08:23",3,"NO ERROR",7.41,86.1,1010.2,0.09,0.16,0.18],
    [602,363171,"Vazduh","Libelium","0004A30B0021DF70",44.979,16.7091,"","","Prijedor","",24657118,"2024-02-03T11:09:05",3,"NO ERROR",9.1,79.2,1010.06,0.48,0.67,0.7],
    [603,363171,"Vazduh","Libelium","0004A30B0021DF70",44.979,16.7091,"","","Prijedor","",24658069,"2024-02-03T12:09:47",3,"NO ERROR",11.77,65.8,1009.17,0.18,0.33,0.41],
    [604,363171,"Vazduh","Libelium","0004A30B0021DF70",44.979,16.7091,"","","Prijedor","",24659027,"2024-02-03T13:10:29",3,"NO ERROR",14.27,56.3,1008.45,0.53,0.65,0.65],
    [605,363171,"Vazduh","Libelium","0004A30B0021DF70",44.979,16.7091,"","","Prijedor","",24659949,"2024-02-03T14:11:11",3,"NO ERROR",16,49.9,1007.59,0.2,0.23,0.23],
    [606,363171,"Vazduh","Libelium","0004A30B0021DF70",44.979,16.7091,"","","Prijedor","",24660848,"2024-02-03T15:11:53",3,"NO ERROR",14.94,52.5,1007.48,0.33,0.79,4.72],
    [607,363171,"Vazduh","Libelium","0004A30B0021DF70",44.979,16.7091,"","","Prijedor","",24661763,"2024-02-03T16:12:35",3,"NO ERROR",13.17,60.9,1007.22,2.34,3.6,3.86],
    [608,363171,"Vazduh","Libelium","0004A30B0021DF70",44.979,16.7091,"","","Prijedor","",24662667,"2024-02-03T17:13:17",3,"NO ERROR",11.03,72,1007.28,2.66,4.06,4.52],
    [609,363171,"Vazduh","Libelium","0004A30B0021DF70",44.979,16.7091,"","","Prijedor","",24663439,"2024-02-03T18:14:00",3,"NO ERROR",9.53,85,1007.74,1.61,2.46,2.98],
    [610,363171,"Vazduh","Libelium","0004A30B0021DF70",44.979,16.7091,"","","Prijedor","",24664265,"2024-02-03T19:14:42",3,"NO ERROR",8.22,89.4,1007.97,2.62,3.45,3.64],
    [611,363171,"Vazduh","Libelium","0004A30B0021DF70",44.979,16.7091,"","","Prijedor","",24665189,"2024-02-03T20:15:24",3,"NO ERROR",7.33,96.9,1008.36,3.14,3.78,3.81],
    [612,363171,"Vazduh","Libelium","0004A30B0021DF70",44.979,16.7091,"","","Prijedor","",24666076,"2024-02-03T21:16:06",3,"NO ERROR",6.61,100,1008.57,2.31,2.77,2.78],
    [613,363171,"Vazduh","Libelium","0004A30B0021DF70",44.979,16.7091,"","","Prijedor","",24666933,"2024-02-03T22:16:48",3,"NO ERROR",5.48,100,1008.79,0.47,0.59,0.59],
    [614,363171,"Vazduh","Libelium","0004A30B0021DF70",44.979,16.7091,"","","Prijedor","",24667792,"2024-02-03T23:17:30",3,"NO ERROR",4.58,100,1008.64,0.08,0.09,0.09],
    [615,363171,"Vazduh","Libelium","0004A30B0021DF70",44.979,16.7091,"","","Prijedor","",24668930,"2024-02-04T00:18:18",3,"NO ERROR",4.83,100,1008.61,1.03,1.22,1.23],
    [616,363171,"Vazduh","Libelium","0004A30B0021DF70",44.979,16.7091,"","","Prijedor","",24669866,"2024-02-04T01:19:07",3,"NO ERROR",4.05,100,1008.35,0.39,0.51,0.53],
    [617,363171,"Vazduh","Libelium","0004A30B0021DF70",44.979,16.7091,"","","Prijedor","",24670748,"2024-02-04T02:19:48",3,"NO ERROR",3.86,100,1008.03,0.52,0.64,0.65],
    [618,363171,"Vazduh","Libelium","0004A30B0021DF70",44.979,16.7091,"","","Prijedor","",24671629,"2024-02-04T03:20:31",3,"NO ERROR",3.56,100,1007.78,1.05,1.26,1.26],
    [619,363171,"Vazduh","Libelium","0004A30B0021DF70",44.979,16.7091,"","","Prijedor","",24672604,"2024-02-04T04:21:13",3,"NO ERROR",2.92,100,1007.62,0.53,0.64,0.65],
    [620,363171,"Vazduh","Libelium","0004A30B0021DF70",44.979,16.7091,"","","Prijedor","",24673502,"2024-02-04T05:21:55",3,"NO ERROR",2.22,100,1007.63,0.16,0.25,0.26],
    [621,363171,"Vazduh","Libelium","0004A30B0021DF70",44.979,16.7091,"","","Prijedor","",24674441,"2024-02-04T06:22:37",3,"NO ERROR",1.09,100,1007.63,0.42,0.59,0.59],
    [622,363171,"Vazduh","Libelium","0004A30B0021DF70",44.979,16.7091,"","","Prijedor","",24675379,"2024-02-04T07:23:19",3,"NO ERROR",0.8,100,1008.08,0.07,0.12,0.12],
    [623,363171,"Vazduh","Libelium","0004A30B0021DF70",44.979,16.7091,"","","Prijedor","",24676337,"2024-02-04T08:24:01",3,"NO ERROR",2.53,100,1008.56,0.29,0.35,0.36],
    [624,363171,"Vazduh","Libelium","0004A30B0021DF70",44.979,16.7091,"","","Prijedor","",24677239,"2024-02-04T09:24:44",3,"NO ERROR",5.68,100,1008.92,0.37,0.41,0.41],
    [625,363171,"Vazduh","Libelium","0004A30B0021DF70",44.979,16.7091,"","","Prijedor","",24678108,"2024-02-04T10:25:26",3,"NO ERROR",8.8,98.3,1008.49,0.7,0.88,0.88],
    [626,363171,"Vazduh","Libelium","0004A30B0021DF70",44.979,16.7091,"","","Prijedor","",24679048,"2024-02-04T11:26:08",3,"NO ERROR",12.24,78.2,1008.69,0.17,0.19,0.19],
    [627,363171,"Vazduh","Libelium","0004A30B0021DF70",44.979,16.7091,"","","Prijedor","",24680059,"2024-02-04T12:26:50",3,"NO ERROR",13.91,70.8,1007.64,0.4,0.56,0.57],
    [628,363171,"Vazduh","Libelium","0004A30B0021DF70",44.979,16.7091,"","","Prijedor","",24681011,"2024-02-04T13:27:32",3,"NO ERROR",16.45,60.1,1006.67,0.19,0.26,0.26],
    [629,363171,"Vazduh","Libelium","0004A30B0021DF70",44.979,16.7091,"","","Prijedor","",24681932,"2024-02-04T14:28:14",3,"NO ERROR",20.99,48.8,1006.04,0.3,0.41,0.41],
    [630,363171,"Vazduh","Libelium","0004A30B0021DF70",44.979,16.7091,"","","Prijedor","",24682844,"2024-02-04T15:28:56",3,"NO ERROR",18.16,50.8,1005.74,0.4,0.52,0.53],
    [631,363171,"Vazduh","Libelium","0004A30B0021DF70",44.979,16.7091,"","","Prijedor","",24683743,"2024-02-04T16:29:38",3,"NO ERROR",14.63,58.4,1005.54,0.99,1.36,1.38],
    [632,363171,"Vazduh","Libelium","0004A30B0021DF70",44.979,16.7091,"","","Prijedor","",24684568,"2024-02-04T17:30:20",3,"NO ERROR",11.47,71.9,1005.64,2.75,4.37,5.13],
    [633,363171,"Vazduh","Libelium","0004A30B0021DF70",44.979,16.7091,"","","Prijedor","",24685345,"2024-02-04T18:31:02",3,"NO ERROR",9.63,84.7,1005.69,0.5,0.6,0.61],
    [634,363171,"Vazduh","Libelium","0004A30B0021DF70",44.979,16.7091,"","","Prijedor","",24686137,"2024-02-04T19:31:44",3,"NO ERROR",8.04,91,1005.6,0.9,1.29,1.45],
    [635,363171,"Vazduh","Libelium","0004A30B0021DF70",44.979,16.7091,"","","Prijedor","",24687058,"2024-02-04T20:32:27",3,"NO ERROR",5.98,100,1005.7,0.96,1.18,1.2],
    [636,363171,"Vazduh","Libelium","0004A30B0021DF70",44.979,16.7091,"","","Prijedor","",24687931,"2024-02-04T21:33:09",3,"NO ERROR",4.66,100,1005.9,0.64,0.75,0.77],
    [637,363171,"Vazduh","Libelium","0004A30B0021DF70",44.979,16.7091,"","","Prijedor","",24688745,"2024-02-04T22:33:51",3,"NO ERROR",3.59,100,1005.39,0.41,0.53,0.54],
    [638,363171,"Vazduh","Libelium","0004A30B0021DF70",44.979,16.7091,"","","Prijedor","",24689632,"2024-02-04T23:34:33",3,"NO ERROR",2.97,100,1005.27,0.79,0.9,0.9],
    [639,363171,"Vazduh","Libelium","0004A30B0021DF70",44.979,16.7091,"","","Prijedor","",24690874,"2024-02-05T00:35:15",3,"NO ERROR",2.09,100,1005.29,0.51,0.57,0.57],
    [640,363171,"Vazduh","Libelium","0004A30B0021DF70",44.979,16.7091,"","","Prijedor","",24691873,"2024-02-05T01:35:57",3,"NO ERROR",2.22,100,1005.29,0.59,0.72,0.72],
    [641,363171,"Vazduh","Libelium","0004A30B0021DF70",44.979,16.7091,"","","Prijedor","",24692731,"2024-02-05T02:36:40",3,"NO ERROR",1.56,100,1004.63,0.45,0.56,0.56],
    [642,363171,"Vazduh","Libelium","0004A30B0021DF70",44.979,16.7091,"","","Prijedor","",24693641,"2024-02-05T03:37:22",3,"NO ERROR",1.83,100,1004.71,0.26,0.27,0.27],
    [643,363171,"Vazduh","Libelium","0004A30B0021DF70",44.979,16.7091,"","","Prijedor","",24694560,"2024-02-05T04:38:04",3,"NO ERROR",1.83,100,1004.53,0.58,0.71,0.71],
    [644,363171,"Vazduh","Libelium","0004A30B0021DF70",44.979,16.7091,"","","Prijedor","",24695472,"2024-02-05T05:38:46",3,"NO ERROR",1.71,100,1004.48,0.22,0.34,0.42],
    [645,363171,"Vazduh","Libelium","0004A30B0021DF70",44.979,16.7091,"","","Prijedor","",24696340,"2024-02-05T06:39:28",3,"NO ERROR",2,100,1004.7,0.53,0.72,0.85],
    [646,363171,"Vazduh","Libelium","0004A30B0021DF70",44.979,16.7091,"","","Prijedor","",24697184,"2024-02-05T07:40:11",3,"NO ERROR",1.78,100,1005.03,0.74,1.08,1.84],
    [647,363171,"Vazduh","Libelium","0004A30B0021DF70",44.979,16.7091,"","","Prijedor","",24698068,"2024-02-05T08:40:53",3,"NO ERROR",2.59,100,1005.39,2.08,2.54,2.56],
    [648,363171,"Vazduh","Libelium","0004A30B0021DF70",44.979,16.7091,"","","Prijedor","",24698950,"2024-02-05T09:41:35",3,"NO ERROR",3.54,100,1005.73,0.35,0.41,0.41],
    [649,363171,"Vazduh","Libelium","0004A30B0021DF70",44.979,16.7091,"","","Prijedor","",24699751,"2024-02-05T10:42:17",3,"NO ERROR",6.9,100,1005.71,1.04,1.44,1.62],
    [650,363171,"Vazduh","Libelium","0004A30B0021DF70",44.979,16.7091,"","","Prijedor","",24700638,"2024-02-05T11:42:59",3,"NO ERROR",10.69,85.3,1005.49,1.43,2.03,2.63],
    [651,363171,"Vazduh","Libelium","0004A30B0021DF70",44.979,16.7091,"","","Prijedor","",24701607,"2024-02-05T12:43:41",3,"NO ERROR",15.47,64.7,1004.66,0.62,0.71,0.71],
    [652,363171,"Vazduh","Libelium","0004A30B0021DF70",44.979,16.7091,"","","Prijedor","",24702529,"2024-02-05T13:44:23",3,"NO ERROR",18.98,53,1003.9,0.04,0.09,0.13],
    [653,363171,"Vazduh","Libelium","0004A30B0021DF70",44.979,16.7091,"","","Prijedor","",24703432,"2024-02-05T14:45:11",3,"NO ERROR",25.87,40,1003.36,0.29,0.36,0.37],
    [654,363171,"Vazduh","Libelium","0004A30B0021DF70",44.979,16.7091,"","","Prijedor","",24704345,"2024-02-05T15:45:53",3,"NO ERROR",24.27,39.4,1003.62,0.14,0.2,0.2],
    [655,363171,"Vazduh","Libelium","0004A30B0021DF70",44.979,16.7091,"","","Prijedor","",24705273,"2024-02-05T16:46:35",3,"NO ERROR",17.67,47.5,1004.01,0.42,0.56,0.56],
    [656,363171,"Vazduh","Libelium","0004A30B0021DF70",44.979,16.7091,"","","Prijedor","",24706094,"2024-02-05T17:47:18",3,"NO ERROR",14.61,54.2,1004.57,0.37,0.54,0.57],
    [657,363171,"Vazduh","Libelium","0004A30B0021DF70",44.979,16.7091,"","","Prijedor","",24706875,"2024-02-05T18:48:06",3,"NO ERROR",11.33,71.6,1005.3,1.17,1.7,1.85],
    [658,363171,"Vazduh","Libelium","0004A30B0021DF70",44.979,16.7091,"","","Prijedor","",24707725,"2024-02-05T19:48:48",3,"NO ERROR",9.12,84.8,1006,1.16,1.43,1.46],
    [659,363171,"Vazduh","Libelium","0004A30B0021DF70",44.979,16.7091,"","","Prijedor","",24708589,"2024-02-05T20:49:30",3,"NO ERROR",7.77,93.4,1006.45,0.36,0.44,0.5],
    [660,363171,"Vazduh","Libelium","0004A30B0021DF70",44.979,16.7091,"","","Prijedor","",24709435,"2024-02-05T21:50:12",3,"NO ERROR",6.6,100,1006.54,0.91,1.19,1.19],
    [661,363171,"Vazduh","Libelium","0004A30B0021DF70",44.979,16.7091,"","","Prijedor","",24710335,"2024-02-05T22:50:54",3,"NO ERROR",5.59,100,1006.46,0.39,0.45,0.45],
    [662,363171,"Vazduh","Libelium","0004A30B0021DF70",44.979,16.7091,"","","Prijedor","",24711160,"2024-02-05T23:51:36",3,"NO ERROR",3.94,100,1006.59,0.27,0.34,0.34],
    [663,363171,"Vazduh","Libelium","0004A30B0021DF70",44.979,16.7091,"","","Prijedor","",24712244,"2024-02-06T00:52:18",3,"NO ERROR",3.21,100,1006.52,0.14,0.18,0.18],
    [664,363171,"Vazduh","Libelium","0004A30B0021DF70",44.979,16.7091,"","","Prijedor","",24713156,"2024-02-06T01:53:07",3,"NO ERROR",2.74,100,1006.49,0.31,0.34,0.34],
    [665,363171,"Vazduh","Libelium","0004A30B0021DF70",44.979,16.7091,"","","Prijedor","",24713965,"2024-02-06T02:53:55",3,"NO ERROR",1.53,100,1006.19,0.43,0.53,0.53],
    [666,363171,"Vazduh","Libelium","0004A30B0021DF70",44.979,16.7091,"","","Prijedor","",24714867,"2024-02-06T03:54:37",3,"NO ERROR",1.03,100,1005.85,0.23,0.26,0.26],
    [667,363171,"Vazduh","Libelium","0004A30B0021DF70",44.979,16.7091,"","","Prijedor","",24715810,"2024-02-06T04:55:25",3,"NO ERROR",0.59,100,1006,0.56,0.64,0.65],
    [668,363171,"Vazduh","Libelium","0004A30B0021DF70",44.979,16.7091,"","","Prijedor","",24716665,"2024-02-06T05:56:07",3,"NO ERROR",-0.08,100,1005.8,0.63,0.72,0.72],
    [669,363171,"Vazduh","Libelium","0004A30B0021DF70",44.979,16.7091,"","","Prijedor","",24717496,"2024-02-06T06:56:50",3,"NO ERROR",-0.36,100,1005.49,1.07,1.29,1.3],
    [670,363171,"Vazduh","Libelium","0004A30B0021DF70",44.979,16.7091,"","","Prijedor","",24718407,"2024-02-06T07:57:38",3,"NO ERROR",0.3,100,1005.54,0.48,0.57,0.57],
    [671,363171,"Vazduh","Libelium","0004A30B0021DF70",44.979,16.7091,"","","Prijedor","",24719276,"2024-02-06T08:58:20",3,"NO ERROR",4.52,100,1005.82,0.15,0.19,0.19],
    [672,363171,"Vazduh","Libelium","0004A30B0021DF70",44.979,16.7091,"","","Prijedor","",24720132,"2024-02-06T09:59:02",3,"NO ERROR",7.56,96.8,1005.67,0.44,0.65,5.69],
    [673,363171,"Vazduh","Libelium","0004A30B0021DF70",44.979,16.7091,"","","Prijedor","",24721051,"2024-02-06T10:59:44",3,"NO ERROR",10.46,85.8,1005.56,1.14,1.5,1.64],
    [674,363171,"Vazduh","Libelium","0004A30B0021DF70",44.979,16.7091,"","","Prijedor","",24721986,"2024-02-06T12:00:26",3,"NO ERROR",15.15,68.6,1004.36,1.23,1.65,1.68],
    [675,363171,"Vazduh","Libelium","0004A30B0021DF70",44.979,16.7091,"","","Prijedor","",24722996,"2024-02-06T13:01:08",3,"NO ERROR",17.83,58,1003.48,0.18,0.21,0.21],
    [676,363171,"Vazduh","Libelium","0004A30B0021DF70",44.979,16.7091,"","","Prijedor","",24723957,"2024-02-06T14:01:50",3,"NO ERROR",18.19,55.9,1002.81,0.6,0.93,1.65],
    [677,363171,"Vazduh","Libelium","0004A30B0021DF70",44.979,16.7091,"","","Prijedor","",24724839,"2024-02-06T15:02:33",3,"NO ERROR",18.39,54.6,1002.5,0.13,0.2,0.2],
    [678,363171,"Vazduh","Libelium","0004A30B0021DF70",44.979,16.7091,"","","Prijedor","",24725775,"2024-02-06T16:03:15",3,"NO ERROR",16.19,58.8,1002.02,0.25,0.45,0.54],
    [679,363171,"Vazduh","Libelium","0004A30B0021DF70",44.979,16.7091,"","","Prijedor","",24726696,"2024-02-06T17:03:57",3,"NO ERROR",13.95,66.3,1001.96,0.27,0.3,0.3],
    [680,363171,"Vazduh","Libelium","0004A30B0021DF70",44.979,16.7091,"","","Prijedor","",24727521,"2024-02-06T18:04:39",3,"NO ERROR",11.81,77.3,1001.76,0.35,0.45,0.45],
    [681,363171,"Vazduh","Libelium","0004A30B0021DF70",44.979,16.7091,"","","Prijedor","",24728373,"2024-02-06T19:05:21",3,"NO ERROR",9.82,89.3,1001.84,1.95,2.43,10.45],
    [682,363171,"Vazduh","Libelium","0004A30B0021DF70",44.979,16.7091,"","","Prijedor","",24729292,"2024-02-06T20:06:03",3,"NO ERROR",8.03,100,1001.82,1.75,2.54,3.58],
    [683,363171,"Vazduh","Libelium","0004A30B0021DF70",44.979,16.7091,"","","Prijedor","",24730193,"2024-02-06T21:06:45",3,"NO ERROR",7.16,100,1002.02,1.2,1.54,1.65],
    [684,363171,"Vazduh","Libelium","0004A30B0021DF70",44.979,16.7091,"","","Prijedor","",24731037,"2024-02-06T22:07:27",3,"NO ERROR",6.58,100,1002.02,1.85,2.23,2.37],
    [685,363171,"Vazduh","Libelium","0004A30B0021DF70",44.979,16.7091,"","","Prijedor","",24731893,"2024-02-06T23:08:09",3,"NO ERROR",5.84,100,1001.86,0.42,0.63,0.76],
    [686,363171,"Vazduh","Libelium","0004A30B0021DF70",44.979,16.7091,"","","Prijedor","",24733190,"2024-02-07T00:08:51",3,"NO ERROR",5.53,100,1001.5,1.01,1.36,1.55],
    [687,363171,"Vazduh","Libelium","0004A30B0021DF70",44.979,16.7091,"","","Prijedor","",24734147,"2024-02-07T01:09:34",3,"NO ERROR",4.91,100,1001.25,1.4,1.66,1.67],
    [688,363171,"Vazduh","Libelium","0004A30B0021DF70",44.979,16.7091,"","","Prijedor","",24734998,"2024-02-07T02:10:16",3,"NO ERROR",4.92,100,1000.82,0.96,1.14,1.14],
    [689,363171,"Vazduh","Libelium","0004A30B0021DF70",44.979,16.7091,"","","Prijedor","",24735964,"2024-02-07T03:10:58",3,"NO ERROR",4.43,100,1000.32,0.23,0.29,0.29],
    [690,363171,"Vazduh","Libelium","0004A30B0021DF70",44.979,16.7091,"","","Prijedor","",24736901,"2024-02-07T04:11:46",3,"NO ERROR",3.31,100,999.66,0.85,1.02,1.02],
    [691,363171,"Vazduh","Libelium","0004A30B0021DF70",44.979,16.7091,"","","Prijedor","",24737807,"2024-02-07T05:12:28",3,"NO ERROR",3.54,100,999.57,0.13,0.14,0.14],
    [692,363171,"Vazduh","Libelium","0004A30B0021DF70",44.979,16.7091,"","","Prijedor","",24738673,"2024-02-07T06:13:10",3,"NO ERROR",3,100,999.28,0.12,0.16,0.18],
    [693,363171,"Vazduh","Libelium","0004A30B0021DF70",44.979,16.7091,"","","Prijedor","",24739531,"2024-02-07T07:13:52",3,"NO ERROR",3.83,100,999.26,0.6,0.95,1.51],
    [694,363171,"Vazduh","Libelium","0004A30B0021DF70",44.979,16.7091,"","","Prijedor","",24740461,"2024-02-07T08:14:41",3,"NO ERROR",5.2,100,999.07,0.17,0.24,0.24],
    [695,363171,"Vazduh","Libelium","0004A30B0021DF70",44.979,16.7091,"","","Prijedor","",24741318,"2024-02-07T09:15:23",3,"NO ERROR",6.9,100,998.87,0.31,0.38,0.38],
    [696,363171,"Vazduh","Libelium","0004A30B0021DF70",44.979,16.7091,"","","Prijedor","",24742146,"2024-02-07T10:16:11",3,"NO ERROR",10.4,100,998.41,0.7,0.9,0.92],
    [697,363171,"Vazduh","Libelium","0004A30B0021DF70",44.979,16.7091,"","","Prijedor","",24743077,"2024-02-07T11:16:53",3,"NO ERROR",15.76,76.2,998.03,0.44,0.55,0.56],
    [698,363171,"Vazduh","Libelium","0004A30B0021DF70",44.979,16.7091,"","","Prijedor","",24744077,"2024-02-07T12:17:35",3,"NO ERROR",16.53,69.8,997.36,0.2,0.38,0.51],
    [699,363171,"Vazduh","Libelium","0004A30B0021DF70",44.979,16.7091,"","","Prijedor","",24745098,"2024-02-07T13:18:17",3,"NO ERROR",16.55,62.5,996.72,0.3,0.37,0.37],
    [700,363171,"Vazduh","Libelium","0004A30B0021DF70",44.979,16.7091,"","","Prijedor","",24746044,"2024-02-07T14:18:59",3,"NO ERROR",15.94,62.1,996.13,0.26,0.39,0.48],
    [701,363171,"Vazduh","Libelium","0004A30B0021DF70",44.979,16.7091,"","","Prijedor","",24746951,"2024-02-07T15:19:41",3,"NO ERROR",15.29,63.2,996.05,0.44,0.64,0.67],
    [702,363171,"Vazduh","Libelium","0004A30B0021DF70",44.979,16.7091,"","","Prijedor","",24747868,"2024-02-07T16:20:23",3,"NO ERROR",14.78,65.2,996,0.39,0.59,0.6],
    [703,363171,"Vazduh","Libelium","0004A30B0021DF70",44.979,16.7091,"","","Prijedor","",24748737,"2024-02-07T17:21:05",3,"NO ERROR",13.87,68.9,995.65,1,1.09,1.09],
    [704,363171,"Vazduh","Libelium","0004A30B0021DF70",44.979,16.7091,"","","Prijedor","",24749513,"2024-02-07T18:21:47",3,"NO ERROR",13.45,71.6,995.97,0.23,0.25,0.25],
    [705,363171,"Vazduh","Libelium","0004A30B0021DF70",44.979,16.7091,"","","Prijedor","",24750321,"2024-02-07T19:22:30",3,"NO ERROR",13.17,73,995.55,0.6,0.81,0.81],
    [706,363171,"Vazduh","Libelium","0004A30B0021DF70",44.979,16.7091,"","","Prijedor","",24751287,"2024-02-07T20:23:12",3,"NO ERROR",11.09,84.4,995.2,0.89,1.08,1.08],
    [707,363171,"Vazduh","Libelium","0004A30B0021DF70",44.979,16.7091,"","","Prijedor","",24752177,"2024-02-07T21:23:54",3,"NO ERROR",8.77,99.5,995.17,0.89,1.15,1.18],
    [708,363171,"Vazduh","Libelium","0004A30B0021DF70",44.979,16.7091,"","","Prijedor","",24753024,"2024-02-07T22:24:36",3,"NO ERROR",6.9,100,995.05,0.81,1,1],
    [709,363171,"Vazduh","Libelium","0004A30B0021DF70",44.979,16.7091,"","","Prijedor","",24753886,"2024-02-07T23:25:18",3,"NO ERROR",6.24,100,994.78,0.84,1,1.01],
    [710,363171,"Vazduh","Libelium","0004A30B0021DF70",44.979,16.7091,"","","Prijedor","",24754996,"2024-02-08T00:26:00",3,"NO ERROR",5.15,100,994.59,0.88,1.03,1.03],
    [711,363171,"Vazduh","Libelium","0004A30B0021DF70",44.979,16.7091,"","","Prijedor","",24755888,"2024-02-08T01:26:42",3,"NO ERROR",4.35,100,994.44,0.73,1.08,1.22],
    [712,363171,"Vazduh","Libelium","0004A30B0021DF70",44.979,16.7091,"","","Prijedor","",24756708,"2024-02-08T02:27:24",3,"NO ERROR",3.94,100,993.81,1.36,1.73,1.76],
    [713,363171,"Vazduh","Libelium","0004A30B0021DF70",44.979,16.7091,"","","Prijedor","",24757535,"2024-02-08T03:28:07",3,"NO ERROR",2.61,100,993.4,0.17,0.24,0.24],
    [714,363171,"Vazduh","Libelium","0004A30B0021DF70",44.979,16.7091,"","","Prijedor","",24758426,"2024-02-08T04:28:49",3,"NO ERROR",3.31,100,993.26,0.62,0.68,0.68],
    [715,363171,"Vazduh","Libelium","0004A30B0021DF70",44.979,16.7091,"","","Prijedor","",24759333,"2024-02-08T05:29:31",3,"NO ERROR",2.76,100,993.08,0.21,0.22,0.22],
    [716,363171,"Vazduh","Libelium","0004A30B0021DF70",44.979,16.7091,"","","Prijedor","",24760189,"2024-02-08T06:30:13",3,"NO ERROR",2.91,100,993.07,0.17,0.31,0.34],
    [717,363171,"Vazduh","Libelium","0004A30B0021DF70",44.979,16.7091,"","","Prijedor","",24761084,"2024-02-08T07:30:55",3,"NO ERROR",3.36,100,993.71,0.36,0.52,0.53],
    [718,363171,"Vazduh","Libelium","0004A30B0021DF70",44.979,16.7091,"","","Prijedor","",24761989,"2024-02-08T08:31:37",3,"NO ERROR",5.48,100,993.99,0.63,0.92,0.96],
    [719,363171,"Vazduh","Libelium","0004A30B0021DF70",44.979,16.7091,"","","Prijedor","",24762838,"2024-02-08T09:32:19",3,"NO ERROR",8.18,100,994.15,1.11,1.48,1.49],
    [720,363171,"Vazduh","Libelium","0004A30B0021DF70",44.979,16.7091,"","","Prijedor","",24763685,"2024-02-08T10:33:02",3,"NO ERROR",13.69,84.8,993.86,0.64,0.78,0.78],
    [721,363171,"Vazduh","Libelium","0004A30B0021DF70",44.979,16.7091,"","","Prijedor","",24764656,"2024-02-08T11:33:44",3,"NO ERROR",18.26,62.3,993.42,0.45,0.57,0.58],
    [722,363171,"Vazduh","Libelium","0004A30B0021DF70",44.979,16.7091,"","","Prijedor","",24765691,"2024-02-08T12:34:26",3,"NO ERROR",18.38,56.3,992.97,0.46,0.85,5.29],
    [723,363171,"Vazduh","Libelium","0004A30B0021DF70",44.979,16.7091,"","","Prijedor","",24766649,"2024-02-08T13:35:08",3,"NO ERROR",19.27,50.9,992.7,0.12,0.17,0.17],
    [724,363171,"Vazduh","Libelium","0004A30B0021DF70",44.979,16.7091,"","","Prijedor","",24767580,"2024-02-08T14:35:50",3,"NO ERROR",21.96,45.1,992.07,0.26,0.32,0.32],
    [725,363171,"Vazduh","Libelium","0004A30B0021DF70",44.979,16.7091,"","","Prijedor","",24768518,"2024-02-08T15:36:32",3,"NO ERROR",20.83,45.5,992.36,0.31,0.41,0.42],
    [726,363171,"Vazduh","Libelium","0004A30B0021DF70",44.979,16.7091,"","","Prijedor","",24769460,"2024-02-08T16:37:14",3,"NO ERROR",15.74,55.6,992.22,0.1,0.1,0.1],
    [727,363171,"Vazduh","Libelium","0004A30B0021DF70",44.979,16.7091,"","","Prijedor","",24770341,"2024-02-08T17:37:56",3,"NO ERROR",13.4,63.4,992.12,1.37,1.57,1.57],
    [728,363171,"Vazduh","Libelium","0004A30B0021DF70",44.979,16.7091,"","","Prijedor","",24771135,"2024-02-08T18:38:38",3,"NO ERROR",12.27,67.8,992.58,0.37,0.47,0.47],
    [729,363171,"Vazduh","Libelium","0004A30B0021DF70",44.979,16.7091,"","","Prijedor","",24772015,"2024-02-08T19:39:20",3,"NO ERROR",10.1,79.9,992.84,1.73,2.22,2.26],
    [730,363171,"Vazduh","Libelium","0004A30B0021DF70",44.979,16.7091,"","","Prijedor","",24772946,"2024-02-08T20:40:02",3,"NO ERROR",10.38,80.7,992.87,0.22,0.34,0.42],
    [731,363171,"Vazduh","Libelium","0004A30B0021DF70",44.979,16.7091,"","","Prijedor","",24773819,"2024-02-08T21:40:51",3,"NO ERROR",9.3,86.4,992.67,0.51,0.68,0.79],
    [732,363171,"Vazduh","Libelium","0004A30B0021DF70",44.979,16.7091,"","","Prijedor","",24774675,"2024-02-08T22:41:33",3,"NO ERROR",8.93,90.2,992.48,0.62,0.92,1.09],
    [733,363171,"Vazduh","Libelium","0004A30B0021DF70",44.979,16.7091,"","","Prijedor","",24775586,"2024-02-08T23:42:15",3,"NO ERROR",8.37,92,992.07,0.66,0.81,0.81],
    [734,363171,"Vazduh","Libelium","0004A30B0021DF70",44.979,16.7091,"","","Prijedor","",24776667,"2024-02-09T00:42:57",3,"NO ERROR",10.03,83.1,991.88,0.59,0.74,0.74],
    [735,363171,"Vazduh","Libelium","0004A30B0021DF70",44.979,16.7091,"","","Prijedor","",24777570,"2024-02-09T01:43:45",3,"NO ERROR",9.7,86.9,992.01,0.28,0.41,0.41],
    [736,363171,"Vazduh","Libelium","0004A30B0021DF70",44.979,16.7091,"","","Prijedor","",24778413,"2024-02-09T02:44:27",3,"NO ERROR",8.68,90.6,991.7,0.31,0.48,0.52],
    [737,363171,"Vazduh","Libelium","0004A30B0021DF70",44.979,16.7091,"","","Prijedor","",24779311,"2024-02-09T03:45:09",3,"NO ERROR",8.62,93.6,990.69,0.49,0.53,0.53],
    [738,363171,"Vazduh","Libelium","0004A30B0021DF70",44.979,16.7091,"","","Prijedor","",24780282,"2024-02-09T04:45:51",3,"NO ERROR",7.69,99.8,990.38,0.38,0.84,1.81],
    [739,363171,"Vazduh","Libelium","0004A30B0021DF70",44.979,16.7091,"","","Prijedor","",24781166,"2024-02-09T05:46:33",3,"NO ERROR",7.05,100,989.97,0.55,0.63,0.63],
    [740,363171,"Vazduh","Libelium","0004A30B0021DF70",44.979,16.7091,"","","Prijedor","",24782027,"2024-02-09T06:47:15",3,"NO ERROR",6.82,100,989.43,0.57,0.75,0.75],
    [741,363171,"Vazduh","Libelium","0004A30B0021DF70",44.979,16.7091,"","","Prijedor","",24782899,"2024-02-09T07:48:10",3,"NO ERROR",7.9,100,989.58,1.25,1.56,1.57],
    [742,363171,"Vazduh","Libelium","0004A30B0021DF70",44.979,16.7091,"","","Prijedor","",24783819,"2024-02-09T08:48:58",3,"NO ERROR",7.96,100,989.78,0.66,1.01,1.05],
    [743,363171,"Vazduh","Libelium","0004A30B0021DF70",44.979,16.7091,"","","Prijedor","",24784730,"2024-02-09T09:49:40",3,"NO ERROR",11.73,87.5,989.94,0.34,0.61,0.75],
    [744,363171,"Vazduh","Libelium","0004A30B0021DF70",44.979,16.7091,"","","Prijedor","",24785629,"2024-02-09T10:50:22",3,"NO ERROR",12.18,84.8,990.18,1.37,2.05,2.13],
    [745,363171,"Vazduh","Libelium","0004A30B0021DF70",44.979,16.7091,"","","Prijedor","",24786583,"2024-02-09T11:51:04",3,"NO ERROR",13.34,81.6,989.62,1.61,1.99,2.01],
    [746,363171,"Vazduh","Libelium","0004A30B0021DF70",44.979,16.7091,"","","Prijedor","",24787583,"2024-02-09T12:51:46",3,"NO ERROR",17.27,58.7,988.99,0.34,0.52,0.6],
    [747,363171,"Vazduh","Libelium","0004A30B0021DF70",44.979,16.7091,"","","Prijedor","",24788537,"2024-02-09T13:52:28",3,"NO ERROR",17.13,55.1,988.18,0.53,0.99,1.21],
    [748,363171,"Vazduh","Libelium","0004A30B0021DF70",44.979,16.7091,"","","Prijedor","",24789449,"2024-02-09T14:53:10",3,"NO ERROR",17.09,55.6,987.71,0.38,0.68,2.36],
    [749,363171,"Vazduh","Libelium","0004A30B0021DF70",44.979,16.7091,"","","Prijedor","",24790390,"2024-02-09T15:53:58",3,"NO ERROR",17.1,55.6,987.43,0.72,0.93,0.93],
    [750,363171,"Vazduh","Libelium","0004A30B0021DF70",44.979,16.7091,"","","Prijedor","",24791312,"2024-02-09T16:54:40",3,"NO ERROR",15.52,59.5,987.41,0.51,0.77,0.89],
    [751,363171,"Vazduh","Libelium","0004A30B0021DF70",44.979,16.7091,"","","Prijedor","",24792156,"2024-02-09T17:55:22",3,"NO ERROR",14.75,59.8,987.42,0.9,1.23,1.26],
    [752,363171,"Vazduh","Libelium","0004A30B0021DF70",44.979,16.7091,"","","Prijedor","",24793003,"2024-02-09T18:56:04",3,"NO ERROR",14.81,61,987.46,0.87,1.21,1.24],
    [753,363171,"Vazduh","Libelium","0004A30B0021DF70",44.979,16.7091,"","","Prijedor","",24793915,"2024-02-09T19:56:46",3,"NO ERROR",13.39,64.8,987.4,0.73,0.99,1.14],
    [754,363171,"Vazduh","Libelium","0004A30B0021DF70",44.979,16.7091,"","","Prijedor","",24794870,"2024-02-09T20:57:28",3,"NO ERROR",15.01,61.2,987.69,0.28,0.44,0.56],
    [755,363171,"Vazduh","Libelium","0004A30B0021DF70",44.979,16.7091,"","","Prijedor","",24795753,"2024-02-09T21:58:11",3,"NO ERROR",14.91,64.2,987.5,0.82,1.17,1.35],
    [756,363171,"Vazduh","Libelium","0004A30B0021DF70",44.979,16.7091,"","","Prijedor","",24796609,"2024-02-09T22:58:53",3,"NO ERROR",14.19,67.8,987.24,0.33,0.45,0.46],
    [757,363171,"Vazduh","Libelium","0004A30B0021DF70",44.979,16.7091,"","","Prijedor","",24797589,"2024-02-09T23:59:35",3,"NO ERROR",14.27,71.2,987.13,0.47,0.81,3.77],
    [758,363171,"Vazduh","Libelium","0004A30B0021DF70",44.979,16.7091,"","","Prijedor","",24798562,"2024-02-10T01:00:17",3,"NO ERROR",13.96,71.5,986.67,0.42,0.57,0.58],
    [759,363171,"Vazduh","Libelium","0004A30B0021DF70",44.979,16.7091,"","","Prijedor","",24799410,"2024-02-10T02:00:59",3,"NO ERROR",13.56,73.9,986.39,0.38,0.45,0.45],
    [760,363171,"Vazduh","Libelium","0004A30B0021DF70",44.979,16.7091,"","","Prijedor","",24800255,"2024-02-10T03:01:41",3,"NO ERROR",14.05,69.5,985.8,0.16,0.21,0.21],
    [761,363171,"Vazduh","Libelium","0004A30B0021DF70",44.979,16.7091,"","","Prijedor","",24801200,"2024-02-10T04:02:23",3,"NO ERROR",13.4,71.1,985.1,0.02,0.02,0.02],
    [762,363171,"Vazduh","Libelium","0004A30B0021DF70",44.979,16.7091,"","","Prijedor","",24802175,"2024-02-10T05:03:05",3,"NO ERROR",12.84,73.1,984.93,0.14,0.23,0.23],
    [763,363171,"Vazduh","Libelium","0004A30B0021DF70",44.979,16.7091,"","","Prijedor","",24803047,"2024-02-10T06:03:47",3,"NO ERROR",13.39,68.8,984.62,0.28,0.36,0.37],
    [764,363171,"Vazduh","Libelium","0004A30B0021DF70",44.979,16.7091,"","","Prijedor","",24803924,"2024-02-10T07:04:36",3,"NO ERROR",14.09,64.6,984.09,0.29,0.48,4.75],
    [765,363171,"Vazduh","Libelium","0004A30B0021DF70",44.979,16.7091,"","","Prijedor","",24804881,"2024-02-10T08:05:17",3,"NO ERROR",14.87,62.1,983.89,0.96,1.2,1.24],
    [766,363171,"Vazduh","Libelium","0004A30B0021DF70",44.979,16.7091,"","","Prijedor","",24805774,"2024-02-10T09:06:00",3,"NO ERROR",16.47,58.2,983.7,0.52,0.68,0.68],
    [767,363171,"Vazduh","Libelium","0004A30B0021DF70",44.979,16.7091,"","","Prijedor","",24806652,"2024-02-10T10:06:42",3,"NO ERROR",17.89,53.6,983.39,1.3,2.13,3.24],
    [768,363171,"Vazduh","Libelium","0004A30B0021DF70",44.979,16.7091,"","","Prijedor","",24807599,"2024-02-10T11:07:24",3,"NO ERROR",18.9,50.1,983.58,0.86,1.36,1.83],
    [769,363171,"Vazduh","Libelium","0004A30B0021DF70",44.979,16.7091,"","","Prijedor","",24808645,"2024-02-10T12:08:06",3,"NO ERROR",18.93,49.9,983.39,1.38,1.83,1.86],
    [770,363171,"Vazduh","Libelium","0004A30B0021DF70",44.979,16.7091,"","","Prijedor","",24809636,"2024-02-10T13:08:48",3,"NO ERROR",18.26,50.6,982.67,1.34,2.23,2.55],
    [771,363171,"Vazduh","Libelium","0004A30B0021DF70",44.979,16.7091,"","","Prijedor","",24810709,"2024-02-10T14:09:30",3,"NO ERROR",18.14,50.3,982.16,2.32,3.19,3.22],
    [772,363171,"Vazduh","Libelium","0004A30B0021DF70",44.979,16.7091,"","","Prijedor","",24811621,"2024-02-10T15:10:12",3,"NO ERROR",16.72,56,982.02,0.7,1.05,1.17],
    [773,363171,"Vazduh","Libelium","0004A30B0021DF70",44.979,16.7091,"","","Prijedor","",24812574,"2024-02-10T16:10:54",3,"NO ERROR",14.39,78.7,981.83,0.62,0.88,0.88],
    [774,363171,"Vazduh","Libelium","0004A30B0021DF70",44.979,16.7091,"","","Prijedor","",24813477,"2024-02-10T17:11:36",3,"NO ERROR",14.88,66.8,981.42,0.56,0.67,0.67],
    [775,363171,"Vazduh","Libelium","0004A30B0021DF70",44.979,16.7091,"","","Prijedor","",24814306,"2024-02-10T18:12:18",3,"NO ERROR",14.93,66.6,981.04,0.49,0.62,0.62],
    [776,363171,"Vazduh","Libelium","0004A30B0021DF70",44.979,16.7091,"","","Prijedor","",24815145,"2024-02-10T19:13:00",3,"NO ERROR",14.34,71.8,980.87,0.1,0.1,0.1],
    [777,363171,"Vazduh","Libelium","0004A30B0021DF70",44.979,16.7091,"","","Prijedor","",24816081,"2024-02-10T20:13:42",3,"NO ERROR",14.14,73.1,980.37,0.06,0.16,0.23],
    [778,363171,"Vazduh","Libelium","0004A30B0021DF70",44.979,16.7091,"","","Prijedor","",24817002,"2024-02-10T21:14:24",3,"NO ERROR",13.93,73.4,979.75,0.16,0.18,0.18],
    [779,363171,"Vazduh","Libelium","0004A30B0021DF70",44.979,16.7091,"","","Prijedor","",24817879,"2024-02-10T22:15:07",3,"NO ERROR",14.13,71.6,979.12,0.09,0.15,0.15],
    [780,363171,"Vazduh","Libelium","0004A30B0021DF70",44.979,16.7091,"","","Prijedor","",24818772,"2024-02-10T23:15:49",3,"NO ERROR",13.99,72.2,978.33,0.07,0.1,0.1],
    [781,363171,"Vazduh","Libelium","0004A30B0021DF70",44.979,16.7091,"","","Prijedor","",24819810,"2024-02-11T00:16:31",3,"NO ERROR",13.67,75.3,977.93,0.66,1.04,1.24],
    [782,363171,"Vazduh","Libelium","0004A30B0021DF70",44.979,16.7091,"","","Prijedor","",24820693,"2024-02-11T01:17:13",3,"NO ERROR",12.71,83.1,977.46,0.32,0.34,0.34],
    [783,363171,"Vazduh","Libelium","0004A30B0021DF70",44.979,16.7091,"","","Prijedor","",24821556,"2024-02-11T02:17:55",3,"NO ERROR",11.45,100,977.03,0.46,0.53,0.53],
    [784,363171,"Vazduh","Libelium","0004A30B0021DF70",44.979,16.7091,"","","Prijedor","",24822389,"2024-02-11T03:18:37",3,"NO ERROR",11.07,100,976.32,0.74,0.8,0.8],
    [785,363171,"Vazduh","Libelium","0004A30B0021DF70",44.979,16.7091,"","","Prijedor","",24823294,"2024-02-11T04:19:19",3,"NO ERROR",12.33,98.2,976.09,0.15,0.19,0.19],
    [786,363171,"Vazduh","Libelium","0004A30B0021DF70",44.979,16.7091,"","","Prijedor","",24824241,"2024-02-11T05:20:13",3,"NO ERROR",12.52,94.4,975.69,0.19,0.21,0.21],
    [787,363171,"Vazduh","Libelium","0004A30B0021DF70",44.979,16.7091,"","","Prijedor","",24825114,"2024-02-11T06:20:55",3,"NO ERROR",12.54,89.6,975.69,0.04,0.07,0.07],
    [788,363171,"Vazduh","Libelium","0004A30B0021DF70",44.979,16.7091,"","","Prijedor","",24826004,"2024-02-11T07:21:37",3,"NO ERROR",12.71,88.3,976.36,0.05,0.07,0.07],
    [789,363171,"Vazduh","Libelium","0004A30B0021DF70",44.979,16.7091,"","","Prijedor","",24826980,"2024-02-11T08:22:19",3,"NO ERROR",12.78,90.2,977.27,0.12,0.15,0.15],
    [790,363171,"Vazduh","Libelium","0004A30B0021DF70",44.979,16.7091,"","","Prijedor","",24827860,"2024-02-11T09:23:01",3,"NO ERROR",13.91,83.7,977.86,0.21,0.22,0.22],
    [791,363171,"Vazduh","Libelium","0004A30B0021DF70",44.979,16.7091,"","","Prijedor","",24828724,"2024-02-11T10:23:44",3,"NO ERROR",15.22,77.6,978.2,0.74,0.8,0.8],
    [792,363171,"Vazduh","Libelium","0004A30B0021DF70",44.979,16.7091,"","","Prijedor","",24829715,"2024-02-11T11:24:26",3,"NO ERROR",16.66,68.9,978.07,0.04,0.05,0.05],
    [793,363171,"Vazduh","Libelium","0004A30B0021DF70",44.979,16.7091,"","","Prijedor","",24830742,"2024-02-11T12:25:08",3,"NO ERROR",17.09,65.7,977.61,0.21,0.27,0.27],
    [794,363171,"Vazduh","Libelium","0004A30B0021DF70",44.979,16.7091,"","","Prijedor","",24831680,"2024-02-11T13:25:50",3,"NO ERROR",17.52,62.6,978.05,0.31,0.44,0.44],
    [795,363171,"Vazduh","Libelium","0004A30B0021DF70",44.979,16.7091,"","","Prijedor","",24832639,"2024-02-11T14:26:32",3,"NO ERROR",16.91,67.5,978.25,0.65,0.77,0.77],
    [796,363171,"Vazduh","Libelium","0004A30B0021DF70",44.979,16.7091,"","","Prijedor","",24833520,"2024-02-11T15:27:14",3,"NO ERROR",15.72,74.5,978.76,0.02,0.05,0.05],
    [797,363171,"Vazduh","Libelium","0004A30B0021DF70",44.979,16.7091,"","","Prijedor","",24834445,"2024-02-11T16:27:56",3,"NO ERROR",14.26,97.3,979.08,0.4,0.44,0.44],
    [798,363171,"Vazduh","Libelium","0004A30B0021DF70",44.979,16.7091,"","","Prijedor","",24835305,"2024-02-11T17:28:50",3,"NO ERROR",13.15,100,979.73,0.34,0.37,0.37],
    [799,363171,"Vazduh","Libelium","0004A30B0021DF70",44.979,16.7091,"","","Prijedor","",24836084,"2024-02-11T18:29:32",3,"NO ERROR",12.25,100,981.12,0.12,0.17,0.17],
    [800,363171,"Vazduh","Libelium","0004A30B0021DF70",44.979,16.7091,"","","Prijedor","",24836945,"2024-02-11T19:30:20",3,"NO ERROR",11.26,100,981.75,0.89,1,1],
    [801,363171,"Vazduh","Libelium","0004A30B0021DF70",44.979,16.7091,"","","Prijedor","",24837921,"2024-02-11T20:31:02",3,"NO ERROR",11.06,100,982.33,0.16,0.23,0.23],
    [802,363171,"Vazduh","Libelium","0004A30B0021DF70",44.979,16.7091,"","","Prijedor","",24838822,"2024-02-11T21:31:44",3,"NO ERROR",11,100,983.09,0.07,0.17,0.24],
    [803,363171,"Vazduh","Libelium","0004A30B0021DF70",44.979,16.7091,"","","Prijedor","",24839696,"2024-02-11T22:32:26",3,"NO ERROR",10.57,100,983.24,0.77,0.93,0.93],
    [804,363171,"Vazduh","Libelium","0004A30B0021DF70",44.979,16.7091,"","","Prijedor","",24840614,"2024-02-11T23:33:09",3,"NO ERROR",10.35,100,983.65,0.08,0.16,0.24],
    [805,363171,"Vazduh","Libelium","0004A30B0021DF70",44.979,16.7091,"","","Prijedor","",24841727,"2024-02-12T00:33:51",3,"NO ERROR",9.97,100,983.95,0.24,0.32,0.32],
    [806,363171,"Vazduh","Libelium","0004A30B0021DF70",44.979,16.7091,"","","Prijedor","",24842594,"2024-02-12T01:34:33",3,"NO ERROR",9.24,100,984.35,0.25,0.34,0.35],
    [807,363171,"Vazduh","Libelium","0004A30B0021DF70",44.979,16.7091,"","","Prijedor","",24843420,"2024-02-12T02:35:15",3,"NO ERROR",8.87,100,984.63,1.38,1.52,1.53],
    [808,363171,"Vazduh","Libelium","0004A30B0021DF70",44.979,16.7091,"","","Prijedor","",24844283,"2024-02-12T03:35:57",3,"NO ERROR",9.13,100,984.59,0.09,0.13,0.14],
    [809,363171,"Vazduh","Libelium","0004A30B0021DF70",44.979,16.7091,"","","Prijedor","",24845209,"2024-02-12T04:36:39",3,"NO ERROR",9.88,100,985.33,0.06,0.11,0.11],
    [810,363171,"Vazduh","Libelium","0004A30B0021DF70",44.979,16.7091,"","","Prijedor","",24846078,"2024-02-12T05:37:21",3,"NO ERROR",8.31,100,986.14,0.01,0.03,0.03],
    [811,363171,"Vazduh","Libelium","0004A30B0021DF70",44.979,16.7091,"","","Prijedor","",24846919,"2024-02-12T06:38:03",3,"NO ERROR",7.79,100,986.95,0.09,0.1,0.1],
    [812,363171,"Vazduh","Libelium","0004A30B0021DF70",44.979,16.7091,"","","Prijedor","",24847797,"2024-02-12T07:38:45",3,"NO ERROR",7.72,100,987.93,0.07,0.07,0.07],
    [813,363171,"Vazduh","Libelium","0004A30B0021DF70",44.979,16.7091,"","","Prijedor","",24848708,"2024-02-12T08:39:34",3,"NO ERROR",7.85,100,988.95,0.11,0.12,0.12],
    [814,363171,"Vazduh","Libelium","0004A30B0021DF70",44.979,16.7091,"","","Prijedor","",24849528,"2024-02-12T09:40:16",3,"NO ERROR",8.49,100,989.72,0.02,0.02,0.02],
    [815,363171,"Vazduh","Libelium","0004A30B0021DF70",44.979,16.7091,"","","Prijedor","",24850326,"2024-02-12T10:40:58",3,"NO ERROR",9.61,100,990.41,0.16,0.43,1.75],
    [816,363171,"Vazduh","Libelium","0004A30B0021DF70",44.979,16.7091,"","","Prijedor","",24851256,"2024-02-12T11:41:40",3,"NO ERROR",10.67,100,990.49,0,0,0],
    [817,363171,"Vazduh","Libelium","0004A30B0021DF70",44.979,16.7091,"","","Prijedor","",24852212,"2024-02-12T12:42:22",3,"NO ERROR",10.9,100,990.32,0.02,0.03,0.03],
    [818,363171,"Vazduh","Libelium","0004A30B0021DF70",44.979,16.7091,"","","Prijedor","",24853163,"2024-02-12T13:43:04",3,"NO ERROR",11.36,100,990.32,0.14,0.15,0.15],
    [819,363171,"Vazduh","Libelium","0004A30B0021DF70",44.979,16.7091,"","","Prijedor","",24854017,"2024-02-12T14:43:46",3,"NO ERROR",12.93,88,990.44,0,0,0],
    [820,363171,"Vazduh","Libelium","0004A30B0021DF70",44.979,16.7091,"","","Prijedor","",24854868,"2024-02-12T15:44:28",3,"NO ERROR",11.79,92.4,990.6,0.16,0.2,0.21],
    [821,363171,"Vazduh","Libelium","0004A30B0021DF70",44.979,16.7091,"","","Prijedor","",24855757,"2024-02-12T16:45:10",3,"NO ERROR",10.5,100,991.12,0.04,0.07,0.07],
    [822,363171,"Vazduh","Libelium","0004A30B0021DF70",44.979,16.7091,"","","Prijedor","",24856559,"2024-02-12T17:45:52",3,"NO ERROR",9.72,100,991.75,0.48,0.57,0.57],
    [823,363171,"Vazduh","Libelium","0004A30B0021DF70",44.979,16.7091,"","","Prijedor","",24857279,"2024-02-12T18:46:40",3,"NO ERROR",8.74,100,992.51,1.2,1.67,1.82],
    [824,363171,"Vazduh","Libelium","0004A30B0021DF70",44.979,16.7091,"","","Prijedor","",24858113,"2024-02-12T19:47:22",3,"NO ERROR",7.36,100,992.9,0.46,0.62,0.63],
    [825,363171,"Vazduh","Libelium","0004A30B0021DF70",44.979,16.7091,"","","Prijedor","",24859013,"2024-02-12T20:48:05",3,"NO ERROR",7,100,993.68,0.82,1.06,1.09],
    [826,363171,"Vazduh","Libelium","0004A30B0021DF70",44.979,16.7091,"","","Prijedor","",24859845,"2024-02-12T21:48:47",3,"NO ERROR",6.51,100,994.43,0.17,0.31,0.44],
    [827,363171,"Vazduh","Libelium","0004A30B0021DF70",44.979,16.7091,"","","Prijedor","",24860685,"2024-02-12T22:49:29",3,"NO ERROR",6.34,100,994.94,0.46,0.63,0.64],
    [828,363171,"Vazduh","Libelium","0004A30B0021DF70",44.979,16.7091,"","","Prijedor","",24861474,"2024-02-12T23:50:11",3,"NO ERROR",6.46,100,995.57,0.28,0.5,0.61],
    [829,363171,"Vazduh","Libelium","0004A30B0021DF70",44.979,16.7091,"","","Prijedor","",24862604,"2024-02-13T00:50:53",3,"NO ERROR",6.3,100,996.12,0.2,0.4,0.95],
    [830,363171,"Vazduh","Libelium","0004A30B0021DF70",44.979,16.7091,"","","Prijedor","",24863477,"2024-02-13T01:51:35",3,"NO ERROR",6.28,100,996.61,0.24,0.38,0.4],
    [831,363171,"Vazduh","Libelium","0004A30B0021DF70",44.979,16.7091,"","","Prijedor","",24864272,"2024-02-13T02:52:17",3,"NO ERROR",6.1,100,997.22,0.39,0.47,0.47],
    [832,363171,"Vazduh","Libelium","0004A30B0021DF70",44.979,16.7091,"","","Prijedor","",24865112,"2024-02-13T03:52:59",3,"NO ERROR",6.3,100,997.48,0.58,0.78,0.78],
    [833,363171,"Vazduh","Libelium","0004A30B0021DF70",44.979,16.7091,"","","Prijedor","",24866033,"2024-02-13T04:53:42",3,"NO ERROR",6,100,998.06,0.77,0.83,0.83],
    [834,363171,"Vazduh","Libelium","0004A30B0021DF70",44.979,16.7091,"","","Prijedor","",24866844,"2024-02-13T05:54:24",3,"NO ERROR",5.58,100,998.7,0.21,0.25,0.25],
    [835,363171,"Vazduh","Libelium","0004A30B0021DF70",44.979,16.7091,"","","Prijedor","",24867663,"2024-02-13T06:55:12",3,"NO ERROR",5.13,100,999.81,0.58,0.71,0.72],
    [836,363171,"Vazduh","Libelium","0004A30B0021DF70",44.979,16.7091,"","","Prijedor","",24868545,"2024-02-13T07:55:54",3,"NO ERROR",5.43,100,1000.8,0.4,0.52,0.54],
    [837,363171,"Vazduh","Libelium","0004A30B0021DF70",44.979,16.7091,"","","Prijedor","",24869402,"2024-02-13T08:56:36",3,"NO ERROR",8.18,100,1001.66,0.05,0.05,0.05],
    [838,363171,"Vazduh","Libelium","0004A30B0021DF70",44.979,16.7091,"","","Prijedor","",24870253,"2024-02-13T09:57:18",3,"NO ERROR",9.5,100,1002.27,0.21,0.26,0.26],
    [839,363171,"Vazduh","Libelium","0004A30B0021DF70",44.979,16.7091,"","","Prijedor","",24871170,"2024-02-13T10:58:00",3,"NO ERROR",11.41,100,1002.36,0.1,0.15,0.16],
    [840,363171,"Vazduh","Libelium","0004A30B0021DF70",44.979,16.7091,"","","Prijedor","",24872124,"2024-02-13T11:58:42",3,"NO ERROR",12.51,80.8,1002.23,0.18,0.23,0.24],
    [841,363171,"Vazduh","Libelium","0004A30B0021DF70",44.979,16.7091,"","","Prijedor","",24873133,"2024-02-13T12:59:24",3,"NO ERROR",12.75,78.4,1002.26,0.07,0.07,0.07],
    [842,363171,"Vazduh","Libelium","0004A30B0021DF70",44.979,16.7091,"","","Prijedor","",24873999,"2024-02-13T14:00:06",3,"NO ERROR",9.54,100,1002.46,0.06,0.06,0.06],
    [843,363171,"Vazduh","Libelium","0004A30B0021DF70",44.979,16.7091,"","","Prijedor","",24874881,"2024-02-13T15:00:49",3,"NO ERROR",11.77,82.3,1002.96,0.03,0.03,0.03],
    [844,363171,"Vazduh","Libelium","0004A30B0021DF70",44.979,16.7091,"","","Prijedor","",24875816,"2024-02-13T16:01:31",3,"NO ERROR",11.47,71.9,1003.21,0.02,0.02,0.02],
    [845,363171,"Vazduh","Libelium","0004A30B0021DF70",44.979,16.7091,"","","Prijedor","",24876699,"2024-02-13T17:02:13",3,"NO ERROR",10.08,72.1,1003.87,0.03,0.03,0.03],
    [846,363171,"Vazduh","Libelium","0004A30B0021DF70",44.979,16.7091,"","","Prijedor","",24877489,"2024-02-13T18:02:55",3,"NO ERROR",8.54,84.6,1004.88,0.03,0.06,0.06],
    [847,363171,"Vazduh","Libelium","0004A30B0021DF70",44.979,16.7091,"","","Prijedor","",24878265,"2024-02-13T19:03:37",3,"NO ERROR",7.85,95.3,1005.54,0.61,0.68,0.68],
    [848,363171,"Vazduh","Libelium","0004A30B0021DF70",44.979,16.7091,"","","Prijedor","",24879165,"2024-02-13T20:04:19",3,"NO ERROR",6.39,100,1005.91,0.65,0.98,1.12],
    [849,363171,"Vazduh","Libelium","0004A30B0021DF70",44.979,16.7091,"","","Prijedor","",24880068,"2024-02-13T21:05:01",3,"NO ERROR",5.42,100,1006.78,0.87,1.13,1.25],
    [850,363171,"Vazduh","Libelium","0004A30B0021DF70",44.979,16.7091,"","","Prijedor","",24880861,"2024-02-13T22:05:49",3,"NO ERROR",3.79,100,1007.33,0.57,0.72,0.72],
    [851,363171,"Vazduh","Libelium","0004A30B0021DF70",44.979,16.7091,"","","Prijedor","",24881755,"2024-02-13T23:06:31",3,"NO ERROR",2.62,100,1007.64,0.36,0.5,0.53],
    [852,363171,"Vazduh","Libelium","0004A30B0021DF70",44.979,16.7091,"","","Prijedor","",24882801,"2024-02-14T00:07:14",3,"NO ERROR",1.69,100,1007.95,0.11,0.16,0.16],
    [853,363171,"Vazduh","Libelium","0004A30B0021DF70",44.979,16.7091,"","","Prijedor","",24883746,"2024-02-14T01:07:56",3,"NO ERROR",1.06,100,1008.44,0.68,0.82,0.82],
    [854,363171,"Vazduh","Libelium","0004A30B0021DF70",44.979,16.7091,"","","Prijedor","",24884660,"2024-02-14T02:08:38",3,"NO ERROR",0.54,100,1008.71,0.37,0.44,0.45],
    [855,363171,"Vazduh","Libelium","0004A30B0021DF70",44.979,16.7091,"","","Prijedor","",24885559,"2024-02-14T03:09:20",3,"NO ERROR",-0.12,100,1008.93,1.48,1.73,1.73],
    [856,363171,"Vazduh","Libelium","0004A30B0021DF70",44.979,16.7091,"","","Prijedor","",24886521,"2024-02-14T04:10:02",3,"NO ERROR",-0.59,100,1009.27,0.18,0.23,0.23],
    [857,363171,"Vazduh","Libelium","0004A30B0021DF70",44.979,16.7091,"","","Prijedor","",24887591,"2024-02-14T05:10:45",3,"NO ERROR",-0.81,100,1009.82,0.85,0.95,0.95],
    [858,363171,"Vazduh","Libelium","0004A30B0021DF70",44.979,16.7091,"","","Prijedor","",24888478,"2024-02-14T06:11:27",3,"NO ERROR",-1.43,100,1010.18,0.22,0.34,0.42],
    [859,363171,"Vazduh","Libelium","0004A30B0021DF70",44.979,16.7091,"","","Prijedor","",24889332,"2024-02-14T07:12:09",3,"NO ERROR",-1.49,100,1010.69,0.65,1.02,1.25],
    [860,363171,"Vazduh","Libelium","0004A30B0021DF70",44.979,16.7091,"","","Prijedor","",24890279,"2024-02-14T08:12:51",3,"NO ERROR",-0.08,100,1011.17,2.08,2.46,2.46],
    [861,363171,"Vazduh","Libelium","0004A30B0021DF70",44.979,16.7091,"","","Prijedor","",24891160,"2024-02-14T09:13:34",3,"NO ERROR",2.98,100,1011.43,3.8,4.79,5],
    [862,363171,"Vazduh","Libelium","0004A30B0021DF70",44.979,16.7091,"","","Prijedor","",24891951,"2024-02-14T10:14:16",3,"NO ERROR",5.23,100,1011.22,0.03,0.05,0.05],
    [863,363171,"Vazduh","Libelium","0004A30B0021DF70",44.979,16.7091,"","","Prijedor","",24892879,"2024-02-14T11:14:58",3,"NO ERROR",9.47,89.8,1010.98,0.27,0.28,0.28],
    [864,363171,"Vazduh","Libelium","0004A30B0021DF70",44.979,16.7091,"","","Prijedor","",24893855,"2024-02-14T12:15:40",3,"NO ERROR",11.74,61.3,1010.25,0.28,0.4,0.4],
    [865,363171,"Vazduh","Libelium","0004A30B0021DF70",44.979,16.7091,"","","Prijedor","",24894787,"2024-02-14T13:16:22",3,"NO ERROR",12.59,58.5,1009.91,0.02,0.02,0.02],
    [866,363171,"Vazduh","Libelium","0004A30B0021DF70",44.979,16.7091,"","","Prijedor","",24895740,"2024-02-14T14:17:04",3,"NO ERROR",16.22,51.3,1009.37,0.41,0.66,7.25],
    [867,363171,"Vazduh","Libelium","0004A30B0021DF70",44.979,16.7091,"","","Prijedor","",24896634,"2024-02-14T15:17:46",3,"NO ERROR",16.44,47.8,1009.04,0.14,0.27,0.72],
    [868,363171,"Vazduh","Libelium","0004A30B0021DF70",44.979,16.7091,"","","Prijedor","",24897548,"2024-02-14T16:18:28",3,"NO ERROR",12.12,52.3,1008.87,0.09,0.1,0.1],
    [869,363171,"Vazduh","Libelium","0004A30B0021DF70",44.979,16.7091,"","","Prijedor","",24898460,"2024-02-14T17:19:10",3,"NO ERROR",10.28,59.5,1009.23,0.53,0.63,0.64],
    [870,363171,"Vazduh","Libelium","0004A30B0021DF70",44.979,16.7091,"","","Prijedor","",24899183,"2024-02-14T18:19:52",3,"NO ERROR",8.06,74.2,1009.68,0.57,0.89,1.1],
    [871,363171,"Vazduh","Libelium","0004A30B0021DF70",44.979,16.7091,"","","Prijedor","",24899921,"2024-02-14T19:20:34",3,"NO ERROR",6.3,89.8,1010.15,1.15,1.54,1.56],
    [872,363171,"Vazduh","Libelium","0004A30B0021DF70",44.979,16.7091,"","","Prijedor","",24900831,"2024-02-14T20:21:17",3,"NO ERROR",4.78,98.7,1010.34,0.44,0.93,1.18],
    [873,363171,"Vazduh","Libelium","0004A30B0021DF70",44.979,16.7091,"","","Prijedor","",24901678,"2024-02-14T21:21:59",3,"NO ERROR",3.53,100,1010.56,1.15,1.53,1.54],
    [874,363171,"Vazduh","Libelium","0004A30B0021DF70",44.979,16.7091,"","","Prijedor","",24902515,"2024-02-14T22:22:41",3,"NO ERROR",3.21,100,1010.33,0.68,0.8,0.8],
    [875,363171,"Vazduh","Libelium","0004A30B0021DF70",44.979,16.7091,"","","Prijedor","",24903397,"2024-02-14T23:23:23",3,"NO ERROR",3,100,1010.27,1.56,2.27,2.53],
    [876,363171,"Vazduh","Libelium","0004A30B0021DF70",44.979,16.7091,"","","Prijedor","",24904557,"2024-02-15T00:24:05",3,"NO ERROR",2.28,100,1010.25,0.52,0.7,0.73],
    [877,363171,"Vazduh","Libelium","0004A30B0021DF70",44.979,16.7091,"","","Prijedor","",24905468,"2024-02-15T01:24:47",3,"NO ERROR",1.34,100,1010.34,0.69,0.82,0.82],
    [878,363171,"Vazduh","Libelium","0004A30B0021DF70",44.979,16.7091,"","","Prijedor","",24906345,"2024-02-15T02:25:36",3,"NO ERROR",0.78,100,1010.19,0.32,0.4,0.4],
    [879,363171,"Vazduh","Libelium","0004A30B0021DF70",44.979,16.7091,"","","Prijedor","",24907153,"2024-02-15T03:26:18",3,"NO ERROR",1.22,100,1010.21,0.48,0.68,0.68],
    [880,363171,"Vazduh","Libelium","0004A30B0021DF70",44.979,16.7091,"","","Prijedor","",24908082,"2024-02-15T04:27:00",3,"NO ERROR",-0.2,100,1010.04,0.15,0.17,0.17],
    [881,363171,"Vazduh","Libelium","0004A30B0021DF70",44.979,16.7091,"","","Prijedor","",24909003,"2024-02-15T05:27:42",3,"NO ERROR",-0.31,100,1010.08,0.17,0.29,0.37],
    [882,363171,"Vazduh","Libelium","0004A30B0021DF70",44.979,16.7091,"","","Prijedor","",24909865,"2024-02-15T06:28:24",3,"NO ERROR",-0.85,100,1010.18,0.19,0.21,0.21],
    [883,363171,"Vazduh","Libelium","0004A30B0021DF70",44.979,16.7091,"","","Prijedor","",24910701,"2024-02-15T07:29:07",3,"NO ERROR",-0.36,100,1010.58,0.24,0.27,0.27],
    [884,363171,"Vazduh","Libelium","0004A30B0021DF70",44.979,16.7091,"","","Prijedor","",24911624,"2024-02-15T08:29:49",3,"NO ERROR",5.09,98.5,1010.8,0.49,0.62,0.62],
    [885,363171,"Vazduh","Libelium","0004A30B0021DF70",44.979,16.7091,"","","Prijedor","",24912465,"2024-02-15T09:30:31",3,"NO ERROR",5.58,95.4,1010.65,0.67,0.83,0.84],
    [886,363171,"Vazduh","Libelium","0004A30B0021DF70",44.979,16.7091,"","","Prijedor","",24913267,"2024-02-15T10:31:19",3,"NO ERROR",8.08,84.1,1010.32,0.39,0.65,0.81],
    [887,363171,"Vazduh","Libelium","0004A30B0021DF70",44.979,16.7091,"","","Prijedor","",24914210,"2024-02-15T11:32:01",3,"NO ERROR",11.72,66.9,1009.72,0.35,0.49,0.51],
    [888,363171,"Vazduh","Libelium","0004A30B0021DF70",44.979,16.7091,"","","Prijedor","",24915218,"2024-02-15T12:32:43",3,"NO ERROR",14.26,58.9,1008.82,0.64,0.96,1.14],
    [889,363171,"Vazduh","Libelium","0004A30B0021DF70",44.979,16.7091,"","","Prijedor","",24916154,"2024-02-15T13:33:25",3,"NO ERROR",16.84,51.4,1008.01,0.28,0.43,0.44],
    [890,363171,"Vazduh","Libelium","0004A30B0021DF70",44.979,16.7091,"","","Prijedor","",24917125,"2024-02-15T14:34:08",3,"NO ERROR",21.98,42.9,1007.39,0.07,0.09,0.09],
    [891,363171,"Vazduh","Libelium","0004A30B0021DF70",44.979,16.7091,"","","Prijedor","",24918004,"2024-02-15T15:34:50",3,"NO ERROR",20.78,43.7,1007.08,0.05,0.08,0.08],
    [892,363171,"Vazduh","Libelium","0004A30B0021DF70",44.979,16.7091,"","","Prijedor","",24918952,"2024-02-15T16:35:32",3,"NO ERROR",15.72,53.1,1006.84,0.21,0.26,0.27],
    [893,363171,"Vazduh","Libelium","0004A30B0021DF70",44.979,16.7091,"","","Prijedor","",24919847,"2024-02-15T17:36:20",3,"NO ERROR",13.5,61.3,1006.9,0.8,1.12,1.16],
    [894,363171,"Vazduh","Libelium","0004A30B0021DF70",44.979,16.7091,"","","Prijedor","",24920629,"2024-02-15T18:37:02",3,"NO ERROR",12.11,71.3,1007.1,0.22,0.46,0.67],
    [895,363171,"Vazduh","Libelium","0004A30B0021DF70",44.979,16.7091,"","","Prijedor","",24921433,"2024-02-15T19:37:44",3,"NO ERROR",9.75,87.5,1007.43,0.47,0.72,5.24],
    [896,363171,"Vazduh","Libelium","0004A30B0021DF70",44.979,16.7091,"","","Prijedor","",24922346,"2024-02-15T20:38:32",3,"NO ERROR",7.58,100,1007.52,0.99,1.39,1.42],
    [897,363171,"Vazduh","Libelium","0004A30B0021DF70",44.979,16.7091,"","","Prijedor","",24923142,"2024-02-15T21:39:14",3,"NO ERROR",6.73,100,1007.66,0.44,0.58,0.6],
    [898,363171,"Vazduh","Libelium","0004A30B0021DF70",44.979,16.7091,"","","Prijedor","",24923926,"2024-02-15T22:39:56",3,"NO ERROR",5.87,100,1007.36,1.36,2.22,2.38],
    [899,363171,"Vazduh","Libelium","0004A30B0021DF70",44.979,16.7091,"","","Prijedor","",24924751,"2024-02-15T23:40:38",3,"NO ERROR",4.98,100,1007.42,0.72,0.95,1.06],
    [900,363171,"Vazduh","Libelium","0004A30B0021DF70",44.979,16.7091,"","","Prijedor","",24925817,"2024-02-16T00:41:21",3,"NO ERROR",4.47,100,1007.42,0.23,0.31,0.32],
    [901,363171,"Vazduh","Libelium","0004A30B0021DF70",44.979,16.7091,"","","Prijedor","",24926664,"2024-02-16T01:42:03",3,"NO ERROR",3.95,100,1007.13,0.29,0.31,0.31],
    [902,363171,"Vazduh","Libelium","0004A30B0021DF70",44.979,16.7091,"","","Prijedor","",24927480,"2024-02-16T02:42:45",3,"NO ERROR",3.22,100,1007.05,0.23,0.25,0.25],
    [903,363171,"Vazduh","Libelium","0004A30B0021DF70",44.979,16.7091,"","","Prijedor","",24928303,"2024-02-16T03:43:27",3,"NO ERROR",2.7,100,1006.52,0.59,0.68,0.68],
    [904,363171,"Vazduh","Libelium","0004A30B0021DF70",44.979,16.7091,"","","Prijedor","",24929167,"2024-02-16T04:44:09",3,"NO ERROR",2.13,100,1006.48,0.48,0.63,0.63],
    [905,363171,"Vazduh","Libelium","0004A30B0021DF70",44.979,16.7091,"","","Prijedor","",24929989,"2024-02-16T05:44:58",3,"NO ERROR",1.72,100,1006.64,0.27,0.29,0.29],
    [906,363171,"Vazduh","Libelium","0004A30B0021DF70",44.979,16.7091,"","","Prijedor","",24930779,"2024-02-16T06:45:40",3,"NO ERROR",0.13,100,1006.92,0.52,0.61,0.62],
    [907,363171,"Vazduh","Libelium","0004A30B0021DF70",44.979,16.7091,"","","Prijedor","",24931628,"2024-02-16T07:46:22",3,"NO ERROR",1.12,100,1007.41,0.57,0.82,0.97],
    [908,363171,"Vazduh","Libelium","0004A30B0021DF70",44.979,16.7091,"","","Prijedor","",24932523,"2024-02-16T08:47:04",3,"NO ERROR",9.36,81,1007.52,0.06,0.13,0.14],
    [909,363171,"Vazduh","Libelium","0004A30B0021DF70",44.979,16.7091,"","","Prijedor","",24933341,"2024-02-16T09:47:46",3,"NO ERROR",10.64,86.3,1007.2,0.56,0.6,0.6],
    [910,363171,"Vazduh","Libelium","0004A30B0021DF70",44.979,16.7091,"","","Prijedor","",24934154,"2024-02-16T10:48:28",3,"NO ERROR",12.26,77.8,1006.98,0.35,0.68,0.75],
    [911,363171,"Vazduh","Libelium","0004A30B0021DF70",44.979,16.7091,"","","Prijedor","",24935047,"2024-02-16T11:49:10",3,"NO ERROR",14.4,68.5,1006.37,0.16,0.18,0.18],
    [912,363171,"Vazduh","Libelium","0004A30B0021DF70",44.979,16.7091,"","","Prijedor","",24936006,"2024-02-16T12:49:52",3,"NO ERROR",16.34,63.3,1005.79,0.1,0.2,0.22],
    [913,363171,"Vazduh","Libelium","0004A30B0021DF70",44.979,16.7091,"","","Prijedor","",24936938,"2024-02-16T13:50:34",3,"NO ERROR",18.06,58.7,1005.23,0.26,0.33,0.33],
    [914,363171,"Vazduh","Libelium","0004A30B0021DF70",44.979,16.7091,"","","Prijedor","",24937846,"2024-02-16T14:51:17",3,"NO ERROR",22.38,47.5,1004.86,0.15,0.27,0.34],
    [915,363171,"Vazduh","Libelium","0004A30B0021DF70",44.979,16.7091,"","","Prijedor","",24938755,"2024-02-16T15:51:59",3,"NO ERROR",18.36,52.6,1004.77,0.27,0.31,0.32],
    [916,363171,"Vazduh","Libelium","0004A30B0021DF70",44.979,16.7091,"","","Prijedor","",24939666,"2024-02-16T16:52:41",3,"NO ERROR",15.73,58.4,1005.03,0.38,0.5,0.51],
    [917,363171,"Vazduh","Libelium","0004A30B0021DF70",44.979,16.7091,"","","Prijedor","",24940510,"2024-02-16T17:53:23",3,"NO ERROR",13.62,64.4,1005.42,0.21,0.23,0.23],
    [918,363171,"Vazduh","Libelium","0004A30B0021DF70",44.979,16.7091,"","","Prijedor","",24941094,"2024-02-16T18:54:05",3,"NO ERROR",10.49,84.7,1006.13,1.5,2.53,2.96],
    [919,363171,"Vazduh","Libelium","0004A30B0021DF70",44.979,16.7091,"","","Prijedor","",24941902,"2024-02-16T19:54:47",3,"NO ERROR",8.69,95.9,1006.45,0.98,1.26,1.28],
    [920,363171,"Vazduh","Libelium","0004A30B0021DF70",44.979,16.7091,"","","Prijedor","",24942722,"2024-02-16T20:55:29",3,"NO ERROR",7.34,100,1006.79,0.72,0.82,0.82],
    [921,363171,"Vazduh","Libelium","0004A30B0021DF70",44.979,16.7091,"","","Prijedor","",24943505,"2024-02-16T21:56:11",3,"NO ERROR",5.73,100,1007.09,0.94,1.08,1.08],
    [922,363171,"Vazduh","Libelium","0004A30B0021DF70",44.979,16.7091,"","","Prijedor","",24944289,"2024-02-16T22:56:53",3,"NO ERROR",5.06,100,1007.34,0.88,1.12,1.15],
    [923,363171,"Vazduh","Libelium","0004A30B0021DF70",44.979,16.7091,"","","Prijedor","",24945185,"2024-02-16T23:57:35",3,"NO ERROR",4.21,100,1007.87,0.77,1,1.12],
    [924,363171,"Vazduh","Libelium","0004A30B0021DF70",44.979,16.7091,"","","Prijedor","",24946253,"2024-02-17T00:58:18",3,"NO ERROR",3.33,100,1007.86,0.42,0.48,0.48],
    [925,363171,"Vazduh","Libelium","0004A30B0021DF70",44.979,16.7091,"","","Prijedor","",24947150,"2024-02-17T01:59:00",3,"NO ERROR",2.43,100,1008.24,0.73,0.82,0.82],
    [926,363171,"Vazduh","Libelium","0004A30B0021DF70",44.979,16.7091,"","","Prijedor","",24947996,"2024-02-17T02:59:42",3,"NO ERROR",1.86,100,1008.37,0.67,0.73,0.73],
    [927,363171,"Vazduh","Libelium","0004A30B0021DF70",44.979,16.7091,"","","Prijedor","",24948875,"2024-02-17T04:00:24",3,"NO ERROR",1.78,100,1008.59,0.22,0.27,0.27],
    [928,363171,"Vazduh","Libelium","0004A30B0021DF70",44.979,16.7091,"","","Prijedor","",24949767,"2024-02-17T05:01:06",3,"NO ERROR",0.58,100,1009.16,0.76,0.85,0.85],
    [929,363171,"Vazduh","Libelium","0004A30B0021DF70",44.979,16.7091,"","","Prijedor","",24950569,"2024-02-17T06:01:49",3,"NO ERROR",0.45,100,1009.55,0.88,1.07,1.07],
    [930,363171,"Vazduh","Libelium","0004A30B0021DF70",44.979,16.7091,"","","Prijedor","",24951388,"2024-02-17T07:02:31",3,"NO ERROR",-0.05,100,1010.29,0.23,0.26,0.26],
    [931,363171,"Vazduh","Libelium","0004A30B0021DF70",44.979,16.7091,"","","Prijedor","",24952320,"2024-02-17T08:03:13",3,"NO ERROR",1.52,100,1011,0.32,0.45,0.45],
    [932,363171,"Vazduh","Libelium","0004A30B0021DF70",44.979,16.7091,"","","Prijedor","",24953218,"2024-02-17T09:03:55",3,"NO ERROR",7.99,84.7,1011.53,0.4,0.6,0.62],
    [933,363171,"Vazduh","Libelium","0004A30B0021DF70",44.979,16.7091,"","","Prijedor","",24954033,"2024-02-17T10:04:37",3,"NO ERROR",9.46,87.6,1011.74,0.38,0.49,0.5],
    [934,363171,"Vazduh","Libelium","0004A30B0021DF70",44.979,16.7091,"","","Prijedor","",24954916,"2024-02-17T11:05:19",3,"NO ERROR",10.95,80,1011.78,0.17,0.28,1.29],
    [935,363171,"Vazduh","Libelium","0004A30B0021DF70",44.979,16.7091,"","","Prijedor","",24955855,"2024-02-17T12:06:01",3,"NO ERROR",14.17,72.8,1011.39,0.13,0.16,0.16],
    [936,363171,"Vazduh","Libelium","0004A30B0021DF70",44.979,16.7091,"","","Prijedor","",24956842,"2024-02-17T13:06:44",3,"NO ERROR",17.69,58.3,1011.03,0.17,0.25,0.26],
    [937,363171,"Vazduh","Libelium","0004A30B0021DF70",44.979,16.7091,"","","Prijedor","",24957830,"2024-02-17T14:07:26",3,"NO ERROR",19.6,52.8,1010.8,0.1,0.26,0.35],
    [938,363171,"Vazduh","Libelium","0004A30B0021DF70",44.979,16.7091,"","","Prijedor","",24958728,"2024-02-17T15:08:08",3,"NO ERROR",21.43,44.8,1011.11,0.15,0.2,0.2],
    [939,363171,"Vazduh","Libelium","0004A30B0021DF70",44.979,16.7091,"","","Prijedor","",24959596,"2024-02-17T16:08:50",3,"NO ERROR",17.45,52.7,1011.59,0.32,0.43,0.43],
    [940,363171,"Vazduh","Libelium","0004A30B0021DF70",44.979,16.7091,"","","Prijedor","",24960507,"2024-02-17T17:09:32",3,"NO ERROR",16.19,56.9,1012.21,0.46,0.7,0.71],
    [941,363171,"Vazduh","Libelium","0004A30B0021DF70",44.979,16.7091,"","","Prijedor","",24961280,"2024-02-17T18:10:14",3,"NO ERROR",15.07,59.6,1013.37,0.18,0.37,0.47],
    [942,363171,"Vazduh","Libelium","0004A30B0021DF70",44.979,16.7091,"","","Prijedor","",24961982,"2024-02-17T19:10:56",3,"NO ERROR",14.62,60,1013.9,0.73,0.92,0.95],
    [943,363171,"Vazduh","Libelium","0004A30B0021DF70",44.979,16.7091,"","","Prijedor","",24962814,"2024-02-17T20:11:38",3,"NO ERROR",14.4,62.6,1014.7,0.12,0.14,0.14],
    [944,363171,"Vazduh","Libelium","0004A30B0021DF70",44.979,16.7091,"","","Prijedor","",24963633,"2024-02-17T21:12:20",3,"NO ERROR",13.34,75.9,1015.81,0.11,0.19,0.21],
    [945,363171,"Vazduh","Libelium","0004A30B0021DF70",44.979,16.7091,"","","Prijedor","",24964421,"2024-02-17T22:13:02",3,"NO ERROR",12.16,100,1016.42,0.1,0.13,0.13],
    [946,363171,"Vazduh","Libelium","0004A30B0021DF70",44.979,16.7091,"","","Prijedor","",24965243,"2024-02-17T23:13:44",3,"NO ERROR",11.37,100,1016.85,0.45,0.59,0.59],
    [947,363171,"Vazduh","Libelium","0004A30B0021DF70",44.979,16.7091,"","","Prijedor","",24966286,"2024-02-18T00:14:26",3,"NO ERROR",10.86,100,1017.24,0.28,0.35,0.35],
    [948,363171,"Vazduh","Libelium","0004A30B0021DF70",44.979,16.7091,"","","Prijedor","",24967215,"2024-02-18T01:15:08",3,"NO ERROR",10.43,100,1017.45,0.39,0.47,0.47],
    [949,363171,"Vazduh","Libelium","0004A30B0021DF70",44.979,16.7091,"","","Prijedor","",24968117,"2024-02-18T02:15:57",3,"NO ERROR",10.49,100,1017.74,0.96,1.12,1.12],
    [950,363171,"Vazduh","Libelium","0004A30B0021DF70",44.979,16.7091,"","","Prijedor","",24968897,"2024-02-18T03:16:39",3,"NO ERROR",10.49,100,1017.79,0.12,0.13,0.13],
    [951,363171,"Vazduh","Libelium","0004A30B0021DF70",44.979,16.7091,"","","Prijedor","",24969717,"2024-02-18T04:17:21",3,"NO ERROR",9.74,100,1017.8,0.21,0.22,0.22],
    [952,363171,"Vazduh","Libelium","0004A30B0021DF70",44.979,16.7091,"","","Prijedor","",24970519,"2024-02-18T05:18:03",3,"NO ERROR",10.17,100,1018.08,0.13,0.14,0.14],
    [953,363171,"Vazduh","Libelium","0004A30B0021DF70",44.979,16.7091,"","","Prijedor","",24971261,"2024-02-18T06:18:45",3,"NO ERROR",9.77,100,1018.19,0.14,0.17,0.17],
    [954,363171,"Vazduh","Libelium","0004A30B0021DF70",44.979,16.7091,"","","Prijedor","",24972015,"2024-02-18T07:19:27",3,"NO ERROR",8.6,100,1018.58,1.37,1.54,1.54],
    [955,363171,"Vazduh","Libelium","0004A30B0021DF70",44.979,16.7091,"","","Prijedor","",24972926,"2024-02-18T08:20:09",3,"NO ERROR",11.72,100,1018.49,0.51,0.66,0.66],
    [956,363171,"Vazduh","Libelium","0004A30B0021DF70",44.979,16.7091,"","","Prijedor","",24973804,"2024-02-18T09:20:51",3,"NO ERROR",13.38,100,1018.52,0.3,0.37,0.37],
    [957,363171,"Vazduh","Libelium","0004A30B0021DF70",44.979,16.7091,"","","Prijedor","",24974611,"2024-02-18T10:21:33",3,"NO ERROR",12.71,100,1018.53,0.19,0.26,0.32],
    [958,363171,"Vazduh","Libelium","0004A30B0021DF70",44.979,16.7091,"","","Prijedor","",24975559,"2024-02-18T11:22:15",3,"NO ERROR",16,65.8,1017.88,0.2,0.22,0.22],
    [959,363171,"Vazduh","Libelium","0004A30B0021DF70",44.979,16.7091,"","","Prijedor","",24976552,"2024-02-18T12:22:57",3,"NO ERROR",16.88,54.1,1017.13,0.02,0.02,0.02],
    [960,363171,"Vazduh","Libelium","0004A30B0021DF70",44.979,16.7091,"","","Prijedor","",24977481,"2024-02-18T13:23:40",3,"NO ERROR",16.33,54.4,1016.25,0.11,0.12,0.12],
    [961,363171,"Vazduh","Libelium","0004A30B0021DF70",44.979,16.7091,"","","Prijedor","",24978438,"2024-02-18T14:24:22",3,"NO ERROR",20.28,45.5,1015.48,0.08,0.11,0.11],
    [962,363171,"Vazduh","Libelium","0004A30B0021DF70",44.979,16.7091,"","","Prijedor","",24979332,"2024-02-18T15:25:04",3,"NO ERROR",19.73,46.6,1015.07,0.28,0.36,0.37],
    [963,363171,"Vazduh","Libelium","0004A30B0021DF70",44.979,16.7091,"","","Prijedor","",24980248,"2024-02-18T16:25:46",3,"NO ERROR",14.76,53.4,1014.67,0.07,0.08,0.08],
    [964,363171,"Vazduh","Libelium","0004A30B0021DF70",44.979,16.7091,"","","Prijedor","",24981116,"2024-02-18T17:26:28",3,"NO ERROR",12.65,62.8,1014.18,0.42,0.61,0.61],
    [965,363171,"Vazduh","Libelium","0004A30B0021DF70",44.979,16.7091,"","","Prijedor","",24981861,"2024-02-18T18:27:10",3,"NO ERROR",10.95,69.1,1013.94,0.66,1.07,1.78],
    [966,363171,"Vazduh","Libelium","0004A30B0021DF70",44.979,16.7091,"","","Prijedor","",24982577,"2024-02-18T19:27:52",3,"NO ERROR",9.47,80.9,1013.69,0.53,0.67,0.68],
    [967,363171,"Vazduh","Libelium","0004A30B0021DF70",44.979,16.7091,"","","Prijedor","",24983459,"2024-02-18T20:28:34",3,"NO ERROR",7.78,93.4,1013.52,0.28,0.47,0.64],
    [968,363171,"Vazduh","Libelium","0004A30B0021DF70",44.979,16.7091,"","","Prijedor","",24984237,"2024-02-18T21:29:16",3,"NO ERROR",7.73,95.3,1013.26,0.95,1.3,1.43],
    [969,363171,"Vazduh","Libelium","0004A30B0021DF70",44.979,16.7091,"","","Prijedor","",24985047,"2024-02-18T22:29:58",3,"NO ERROR",6.66,100,1012.57,0.67,0.86,1],
    [970,363171,"Vazduh","Libelium","0004A30B0021DF70",44.979,16.7091,"","","Prijedor","",24985924,"2024-02-18T23:30:40",3,"NO ERROR",5.15,100,1012.01,0.71,0.87,0.87],
    [971,363171,"Vazduh","Libelium","0004A30B0021DF70",44.979,16.7091,"","","Prijedor","",24987003,"2024-02-19T00:31:23",3,"NO ERROR",4.61,100,1011.8,0.12,0.15,0.16],
    [972,363171,"Vazduh","Libelium","0004A30B0021DF70",44.979,16.7091,"","","Prijedor","",24987844,"2024-02-19T01:32:17",3,"NO ERROR",3.71,100,1011.34,0.09,0.16,0.18],
    [973,363171,"Vazduh","Libelium","0004A30B0021DF70",44.979,16.7091,"","","Prijedor","",24988656,"2024-02-19T02:32:59",3,"NO ERROR",3.53,100,1010.98,0.6,0.84,0.87],
    [974,363171,"Vazduh","Libelium","0004A30B0021DF70",44.979,16.7091,"","","Prijedor","",24989526,"2024-02-19T03:33:41",3,"NO ERROR",2.73,100,1010.52,0.19,0.2,0.2],
    [975,363171,"Vazduh","Libelium","0004A30B0021DF70",44.979,16.7091,"","","Prijedor","",24990460,"2024-02-19T04:34:23",3,"NO ERROR",1.92,100,1010.44,0.19,0.24,0.24],
    [976,363171,"Vazduh","Libelium","0004A30B0021DF70",44.979,16.7091,"","","Prijedor","",24991378,"2024-02-19T05:35:05",3,"NO ERROR",1.22,100,1010.14,0.44,0.56,0.57],
    [977,363171,"Vazduh","Libelium","0004A30B0021DF70",44.979,16.7091,"","","Prijedor","",24992214,"2024-02-19T06:35:48",3,"NO ERROR",1.53,100,1010.08,0.52,0.77,0.79],
    [978,363171,"Vazduh","Libelium","0004A30B0021DF70",44.979,16.7091,"","","Prijedor","",24993052,"2024-02-19T07:36:30",3,"NO ERROR",2.31,100,1009.81,0.54,1.08,1.46],
    [979,363171,"Vazduh","Libelium","0004A30B0021DF70",44.979,16.7091,"","","Prijedor","",24993980,"2024-02-19T08:37:12",3,"NO ERROR",4.8,100,1010.06,0.71,0.93,0.96],
    [980,363171,"Vazduh","Libelium","0004A30B0021DF70",44.979,16.7091,"","","Prijedor","",24994814,"2024-02-19T09:37:54",3,"NO ERROR",8.31,89.3,1009.87,0.22,0.84,1.96],
    [981,363171,"Vazduh","Libelium","0004A30B0021DF70",44.979,16.7091,"","","Prijedor","",24995613,"2024-02-19T10:38:36",3,"NO ERROR",10.24,76.3,1009.71,0.24,0.44,1],
    [982,363171,"Vazduh","Libelium","0004A30B0021DF70",44.979,16.7091,"","","Prijedor","",24996573,"2024-02-19T11:39:18",3,"NO ERROR",13.27,62.9,1009.58,0.09,0.1,0.1],
    [983,363171,"Vazduh","Libelium","0004A30B0021DF70",44.979,16.7091,"","","Prijedor","",24997535,"2024-02-19T12:40:00",3,"NO ERROR",14.98,53.2,1008.71,0.08,0.1,0.1],
    [984,363171,"Vazduh","Libelium","0004A30B0021DF70",44.979,16.7091,"","","Prijedor","",24998467,"2024-02-19T13:40:43",3,"NO ERROR",14.59,56.6,1008.55,0.02,0.02,0.02],
    [985,363171,"Vazduh","Libelium","0004A30B0021DF70",44.979,16.7091,"","","Prijedor","",24999415,"2024-02-19T14:41:25",3,"NO ERROR",13.94,59.1,1008.34,0.08,0.1,0.1],
    [986,363171,"Vazduh","Libelium","0004A30B0021DF70",44.979,16.7091,"","","Prijedor","",25000315,"2024-02-19T15:42:07",3,"NO ERROR",14.21,58.9,1007.97,0.28,0.38,0.38],
    [987,363171,"Vazduh","Libelium","0004A30B0021DF70",44.979,16.7091,"","","Prijedor","",25001206,"2024-02-19T16:42:49",3,"NO ERROR",13.28,62,1007.93,0.32,0.41,0.41],
    [988,363171,"Vazduh","Libelium","0004A30B0021DF70",44.979,16.7091,"","","Prijedor","",25002089,"2024-02-19T17:43:31",3,"NO ERROR",11.52,74.4,1008.18,0.29,0.44,0.52],
    [989,363171,"Vazduh","Libelium","0004A30B0021DF70",44.979,16.7091,"","","Prijedor","",25002879,"2024-02-19T18:44:13",3,"NO ERROR",11.04,77.6,1008.64,0.5,0.59,0.6],
    [990,363171,"Vazduh","Libelium","0004A30B0021DF70",44.979,16.7091,"","","Prijedor","",25003695,"2024-02-19T19:45:01",3,"NO ERROR",10.06,85.5,1008.67,0.61,0.89,1.3],
    [991,363171,"Vazduh","Libelium","0004A30B0021DF70",44.979,16.7091,"","","Prijedor","",25004598,"2024-02-19T20:45:43",3,"NO ERROR",9.33,88.8,1009.02,0.34,0.53,0.54],
    [992,363171,"Vazduh","Libelium","0004A30B0021DF70",44.979,16.7091,"","","Prijedor","",25005467,"2024-02-19T21:46:25",3,"NO ERROR",8.72,95.6,1009.28,0.18,0.23,0.23],
    [993,363171,"Vazduh","Libelium","0004A30B0021DF70",44.979,16.7091,"","","Prijedor","",25006311,"2024-02-19T22:47:07",3,"NO ERROR",9.04,99.4,1009.39,0.66,0.94,1.13],
    [994,363171,"Vazduh","Libelium","0004A30B0021DF70",44.979,16.7091,"","","Prijedor","",25007123,"2024-02-19T23:47:56",3,"NO ERROR",8.99,100,1009.69,0.3,0.35,0.35],
    [995,363171,"Vazduh","Libelium","0004A30B0021DF70",44.979,16.7091,"","","Prijedor","",25008336,"2024-02-20T00:48:38",3,"NO ERROR",8.61,100,1010.47,0.74,0.91,0.91],
    [996,363171,"Vazduh","Libelium","0004A30B0021DF70",44.979,16.7091,"","","Prijedor","",25009291,"2024-02-20T01:49:20",3,"NO ERROR",7.9,100,1010.25,0.23,0.24,0.24],
    [997,363171,"Vazduh","Libelium","0004A30B0021DF70",44.979,16.7091,"","","Prijedor","",25010169,"2024-02-20T02:50:02",3,"NO ERROR",7.58,100,1009.98,1.28,1.52,1.53],
    [998,363171,"Vazduh","Libelium","0004A30B0021DF70",44.979,16.7091,"","","Prijedor","",25011083,"2024-02-20T03:50:44",3,"NO ERROR",7.05,100,1009.84,0.73,0.85,0.85],
    [999,363171,"Vazduh","Libelium","0004A30B0021DF70",44.979,16.7091,"","","Prijedor","",25012031,"2024-02-20T04:51:26",3,"NO ERROR",7.13,100,1010.15,0.47,0.58,0.59],
    [1000,363171,"Vazduh","Libelium","0004A30B0021DF70",44.979,16.7091,"","","Prijedor","",25012917,"2024-02-20T05:52:08",3,"NO ERROR",6.32,100,1010.33,3.7,4.34,4.35],
    [1001,363171,"Vazduh","Libelium","0004A30B0021DF70",44.979,16.7091,"","","Prijedor","",25013748,"2024-02-20T06:53:03",3,"NO ERROR",5.92,100,1010.58,3.06,3.71,3.74],
    [1002,363171,"Vazduh","Libelium","0004A30B0021DF70",44.979,16.7091,"","","Prijedor","",25014576,"2024-02-20T07:53:44",3,"NO ERROR",5.91,100,1011.05,1.34,1.48,1.48],
    [1003,363171,"Vazduh","Libelium","0004A30B0021DF70",44.979,16.7091,"","","Prijedor","",25015399,"2024-02-20T08:54:26",3,"NO ERROR",12.44,100,1011.01,1.19,1.37,1.38],
    [1004,363171,"Vazduh","Libelium","0004A30B0021DF70",44.979,16.7091,"","","Prijedor","",25016103,"2024-02-20T09:55:09",3,"NO ERROR",10.54,100,1011,1.06,1.23,1.23],
    [1005,363171,"Vazduh","Libelium","0004A30B0021DF70",44.979,16.7091,"","","Prijedor","",25016912,"2024-02-20T10:55:51",3,"NO ERROR",13.14,90.3,1010.82,0.11,0.18,0.19],
    [1006,363171,"Vazduh","Libelium","0004A30B0021DF70",44.979,16.7091,"","","Prijedor","",25017829,"2024-02-20T11:56:33",3,"NO ERROR",14.01,64,1010.33,0,0,0],
    [1007,363171,"Vazduh","Libelium","0004A30B0021DF70",44.979,16.7091,"","","Prijedor","",25018811,"2024-02-20T12:57:15",3,"NO ERROR",15.09,60.5,1009.63,0.02,0.02,0.02],
    [1008,363171,"Vazduh","Libelium","0004A30B0021DF70",44.979,16.7091,"","","Prijedor","",25019713,"2024-02-20T13:57:57",3,"NO ERROR",16.17,56.3,1009.1,0.15,0.31,0.4],
    [1009,363171,"Vazduh","Libelium","0004A30B0021DF70",44.979,16.7091,"","","Prijedor","",25022384,"2024-02-20T17:00:09",3,"NO ERROR",13.51,56.1,1009.28,0.29,0.38,0.39],
    [1010,363171,"Vazduh","Libelium","0004A30B0021DF70",44.979,16.7091,"","","Prijedor","",25023195,"2024-02-20T18:00:51",3,"NO ERROR",12.95,57.4,1009.69,0.18,0.25,0.25],
    [1011,363171,"Vazduh","Libelium","0004A30B0021DF70",44.979,16.7091,"","","Prijedor","",25023939,"2024-02-20T19:01:33",3,"NO ERROR",11.51,66.5,1010.06,0.75,0.99,1.01],
    [1012,363171,"Vazduh","Libelium","0004A30B0021DF70",44.979,16.7091,"","","Prijedor","",25057073,"2024-02-22T09:28:26",3,"NO ERROR",5.67,98.1,999.7,0.38,0.42,0.42],
    [1013,363171,"Vazduh","Libelium","0004A30B0021DF70",44.979,16.7091,"","","Prijedor","",25057853,"2024-02-22T10:29:08",3,"NO ERROR",8.36,92.3,998.99,0.27,0.42,0.44],
    [1014,363171,"Vazduh","Libelium","0004A30B0021DF70",44.979,16.7091,"","","Prijedor","",25058756,"2024-02-22T11:29:50",3,"NO ERROR",13.24,65.8,998.14,0.35,0.56,0.57],
    [1015,363171,"Vazduh","Libelium","0004A30B0021DF70",44.979,16.7091,"","","Prijedor","",25059762,"2024-02-22T12:30:32",3,"NO ERROR",17.22,45.4,997.11,0.22,0.24,0.24],
    [1016,363171,"Vazduh","Libelium","0004A30B0021DF70",44.979,16.7091,"","","Prijedor","",25060696,"2024-02-22T13:31:15",3,"NO ERROR",16.86,42.8,996.95,0.04,0.27,2.29],
    [1017,363171,"Vazduh","Libelium","0004A30B0021DF70",44.979,16.7091,"","","Prijedor","",25061644,"2024-02-22T14:31:57",3,"NO ERROR",15.46,46.5,996.92,0.07,0.07,0.07],
    [1018,363171,"Vazduh","Libelium","0004A30B0021DF70",44.979,16.7091,"","","Prijedor","",25062520,"2024-02-22T15:32:39",3,"NO ERROR",13.47,60.4,996.86,0.15,0.15,0.15],
    [1019,363171,"Vazduh","Libelium","0004A30B0021DF70",44.979,16.7091,"","","Prijedor","",25063416,"2024-02-22T16:33:21",3,"NO ERROR",12.73,64.2,995.86,0.06,0.06,0.06],
    [1020,363171,"Vazduh","Libelium","0004A30B0021DF70",44.979,16.7091,"","","Prijedor","",25064333,"2024-02-22T17:34:03",3,"NO ERROR",12.37,64.1,995.09,0.11,0.12,0.12],
    [1021,363171,"Vazduh","Libelium","0004A30B0021DF70",44.979,16.7091,"","","Prijedor","",25065063,"2024-02-22T18:34:45",3,"NO ERROR",11.89,63.4,994.3,0.07,0.17,0.24],
    [1022,363171,"Vazduh","Libelium","0004A30B0021DF70",44.979,16.7091,"","","Prijedor","",25065843,"2024-02-22T19:35:33",3,"NO ERROR",11.42,62.9,993.7,0.61,0.64,0.64],
    [1023,363171,"Vazduh","Libelium","0004A30B0021DF70",44.979,16.7091,"","","Prijedor","",25066747,"2024-02-22T20:36:15",3,"NO ERROR",11.45,61,993.06,0.31,0.37,0.37],
    [1024,363171,"Vazduh","Libelium","0004A30B0021DF70",44.979,16.7091,"","","Prijedor","",25067608,"2024-02-22T21:36:57",3,"NO ERROR",11.5,60.3,992.63,0.14,0.19,0.19],
    [1025,363171,"Vazduh","Libelium","0004A30B0021DF70",44.979,16.7091,"","","Prijedor","",25068430,"2024-02-22T22:37:39",3,"NO ERROR",12.69,56.9,991.84,0.4,0.43,0.43],
    [1026,363171,"Vazduh","Libelium","0004A30B0021DF70",44.979,16.7091,"","","Prijedor","",25069290,"2024-02-22T23:38:21",3,"NO ERROR",10.74,67.1,991.65,1.59,2.04,2.19],
    [1027,363171,"Vazduh","Libelium","0004A30B0021DF70",44.979,16.7091,"","","Prijedor","",25070339,"2024-02-23T00:39:03",3,"NO ERROR",11.57,64.3,991.26,0.22,0.24,0.24],
    [1028,363171,"Vazduh","Libelium","0004A30B0021DF70",44.979,16.7091,"","","Prijedor","",25071219,"2024-02-23T01:39:46",3,"NO ERROR",13.53,57.2,991.08,0.27,0.44,0.44],
    [1029,363171,"Vazduh","Libelium","0004A30B0021DF70",44.979,16.7091,"","","Prijedor","",25072106,"2024-02-23T02:40:28",3,"NO ERROR",13.51,61.3,990.59,0.06,0.08,0.08],
    [1030,363171,"Vazduh","Libelium","0004A30B0021DF70",44.979,16.7091,"","","Prijedor","",25073009,"2024-02-23T03:41:10",3,"NO ERROR",12.67,64.7,990.11,0.07,0.07,0.07],
    [1031,363171,"Vazduh","Libelium","0004A30B0021DF70",44.979,16.7091,"","","Prijedor","",25074007,"2024-02-23T04:41:52",3,"NO ERROR",13.15,64,989.76,0.05,0.08,0.08],
    [1032,363171,"Vazduh","Libelium","0004A30B0021DF70",44.979,16.7091,"","","Prijedor","",25074949,"2024-02-23T05:42:34",3,"NO ERROR",12.21,89.8,990.19,0.06,0.1,0.11],
    [1033,363171,"Vazduh","Libelium","0004A30B0021DF70",44.979,16.7091,"","","Prijedor","",25075803,"2024-02-23T06:43:16",3,"NO ERROR",11.49,82.3,989.9,0.1,0.11,0.11],
    [1034,363171,"Vazduh","Libelium","0004A30B0021DF70",44.979,16.7091,"","","Prijedor","",25076595,"2024-02-23T07:43:58",3,"NO ERROR",11.82,78.1,989.7,0.11,0.12,0.12],
    [1035,363171,"Vazduh","Libelium","0004A30B0021DF70",44.979,16.7091,"","","Prijedor","",25077422,"2024-02-23T08:44:40",3,"NO ERROR",12.31,70.6,989.76,0.04,0.08,0.09],
    [1036,363171,"Vazduh","Libelium","0004A30B0021DF70",44.979,16.7091,"","","Prijedor","",25078261,"2024-02-23T09:45:22",3,"NO ERROR",12.97,65.4,989.83,0.03,0.03,0.03],
    [1037,363171,"Vazduh","Libelium","0004A30B0021DF70",44.979,16.7091,"","","Prijedor","",25079082,"2024-02-23T10:46:10",3,"NO ERROR",13.36,65.3,989.47,0.2,0.22,0.22],
    [1038,363171,"Vazduh","Libelium","0004A30B0021DF70",44.979,16.7091,"","","Prijedor","",25079980,"2024-02-23T11:46:52",3,"NO ERROR",14.73,59.9,988.96,0.08,0.11,0.11],
    [1039,363171,"Vazduh","Libelium","0004A30B0021DF70",44.979,16.7091,"","","Prijedor","",25080955,"2024-02-23T12:47:34",3,"NO ERROR",15.71,56.5,988,0.2,0.24,0.24],
    [1040,363171,"Vazduh","Libelium","0004A30B0021DF70",44.979,16.7091,"","","Prijedor","",25081704,"2024-02-23T13:48:17",3,"NO ERROR",15.87,54.8,987.5,0.05,0.05,0.05],
    [1041,363171,"Vazduh","Libelium","0004A30B0021DF70",44.979,16.7091,"","","Prijedor","",25082576,"2024-02-23T14:48:59",3,"NO ERROR",15.48,55.5,987.43,0.23,0.34,0.34],
    [1042,363171,"Vazduh","Libelium","0004A30B0021DF70",44.979,16.7091,"","","Prijedor","",25083455,"2024-02-23T15:49:41",3,"NO ERROR",14.49,56.7,987.2,0,0,0],
    [1043,363171,"Vazduh","Libelium","0004A30B0021DF70",44.979,16.7091,"","","Prijedor","",25084344,"2024-02-23T16:50:23",3,"NO ERROR",14.5,56.8,986.53,0,0,0],
    [1044,363171,"Vazduh","Libelium","0004A30B0021DF70",44.979,16.7091,"","","Prijedor","",25085163,"2024-02-23T17:51:05",3,"NO ERROR",14.77,55.6,986.19,0.02,0.02,0.02],
    [1045,363171,"Vazduh","Libelium","0004A30B0021DF70",44.979,16.7091,"","","Prijedor","",25085944,"2024-02-23T18:51:47",3,"NO ERROR",14.92,55.1,986.16,0.03,0.03,0.03],
    [1046,363171,"Vazduh","Libelium","0004A30B0021DF70",44.979,16.7091,"","","Prijedor","",25086837,"2024-02-23T19:52:29",3,"NO ERROR",15.16,56.1,985.46,0.15,0.23,0.23],
    [1047,363171,"Vazduh","Libelium","0004A30B0021DF70",44.979,16.7091,"","","Prijedor","",25087759,"2024-02-23T20:53:11",3,"NO ERROR",15.57,54.3,985.41,0.08,0.13,0.14],
    [1048,363171,"Vazduh","Libelium","0004A30B0021DF70",44.979,16.7091,"","","Prijedor","",25088574,"2024-02-23T21:53:53",3,"NO ERROR",15.46,54.7,984.99,0.22,0.28,0.28],
    [1049,363171,"Vazduh","Libelium","0004A30B0021DF70",44.979,16.7091,"","","Prijedor","",25089460,"2024-02-23T22:54:35",3,"NO ERROR",16.06,51.1,984.16,0.23,0.45,0.51],
    [1050,363171,"Vazduh","Libelium","0004A30B0021DF70",44.979,16.7091,"","","Prijedor","",25090390,"2024-02-23T23:55:17",3,"NO ERROR",16.16,50.2,986.42,0.11,0.12,0.12],
    [1051,363171,"Vazduh","Libelium","0004A30B0021DF70",44.979,16.7091,"","","Prijedor","",25091458,"2024-02-24T00:55:59",3,"NO ERROR",15.26,54,986.55,0.04,0.04,0.04],
    [1052,363171,"Vazduh","Libelium","0004A30B0021DF70",44.979,16.7091,"","","Prijedor","",25092305,"2024-02-24T01:56:41",3,"NO ERROR",14.98,57.8,987.52,0,0,0],
    [1053,363171,"Vazduh","Libelium","0004A30B0021DF70",44.979,16.7091,"","","Prijedor","",25093139,"2024-02-24T02:57:24",3,"NO ERROR",10.15,100,989.02,0.03,0.06,0.06],
    [1054,363171,"Vazduh","Libelium","0004A30B0021DF70",44.979,16.7091,"","","Prijedor","",25094037,"2024-02-24T03:58:06",3,"NO ERROR",11.19,100,988.86,0.08,0.09,0.09],
    [1055,363171,"Vazduh","Libelium","0004A30B0021DF70",44.979,16.7091,"","","Prijedor","",25095031,"2024-02-24T04:58:48",3,"NO ERROR",10.64,100,989.64,0.06,0.06,0.06],
    [1056,363171,"Vazduh","Libelium","0004A30B0021DF70",44.979,16.7091,"","","Prijedor","",25095900,"2024-02-24T05:59:30",3,"NO ERROR",10.77,100,990.86,0,0,0],
    [1057,363171,"Vazduh","Libelium","0004A30B0021DF70",44.979,16.7091,"","","Prijedor","",25096726,"2024-02-24T07:00:12",3,"NO ERROR",9.93,100,991.74,0.09,0.1,0.1],
    [1058,363171,"Vazduh","Libelium","0004A30B0021DF70",44.979,16.7091,"","","Prijedor","",25097602,"2024-02-24T08:00:54",3,"NO ERROR",9.91,100,992.41,0.05,0.12,0.2],
    [1059,363171,"Vazduh","Libelium","0004A30B0021DF70",44.979,16.7091,"","","Prijedor","",25098429,"2024-02-24T09:01:36",3,"NO ERROR",11.91,96.3,993.12,0.53,0.62,0.62],
    [1060,363171,"Vazduh","Libelium","0004A30B0021DF70",44.979,16.7091,"","","Prijedor","",25099276,"2024-02-24T10:02:18",3,"NO ERROR",13.61,81.6,993.76,0.05,0.05,0.05],
    [1061,363171,"Vazduh","Libelium","0004A30B0021DF70",44.979,16.7091,"","","Prijedor","",25100190,"2024-02-24T11:03:00",3,"NO ERROR",14.58,69.7,994.38,0.39,0.57,0.58],
    [1062,363171,"Vazduh","Libelium","0004A30B0021DF70",44.979,16.7091,"","","Prijedor","",25101079,"2024-02-24T12:03:48",3,"NO ERROR",14.42,64.5,994.29,0.12,0.19,0.19],
    [1063,363171,"Vazduh","Libelium","0004A30B0021DF70",44.979,16.7091,"","","Prijedor","",25102003,"2024-02-24T13:04:37",3,"NO ERROR",14.86,60.4,994.02,0.07,0.1,0.1],
    [1064,363171,"Vazduh","Libelium","0004A30B0021DF70",44.979,16.7091,"","","Prijedor","",25102968,"2024-02-24T14:05:19",3,"NO ERROR",14.9,57.9,994.2,0.29,0.32,0.32],
    [1065,363171,"Vazduh","Libelium","0004A30B0021DF70",44.979,16.7091,"","","Prijedor","",25103853,"2024-02-24T15:06:01",3,"NO ERROR",15.42,53,994.39,0.13,0.15,0.15],
    [1066,363171,"Vazduh","Libelium","0004A30B0021DF70",44.979,16.7091,"","","Prijedor","",25104732,"2024-02-24T16:06:43",3,"NO ERROR",14.82,54.3,994.7,0.3,0.41,0.42],
    [1067,363171,"Vazduh","Libelium","0004A30B0021DF70",44.979,16.7091,"","","Prijedor","",25105588,"2024-02-24T17:07:25",3,"NO ERROR",13.59,64.8,995.25,0.37,0.5,0.51],
    [1068,363171,"Vazduh","Libelium","0004A30B0021DF70",44.979,16.7091,"","","Prijedor","",25106362,"2024-02-24T18:08:07",3,"NO ERROR",11.98,81.5,995.77,0.22,0.24,0.24],
    [1069,363171,"Vazduh","Libelium","0004A30B0021DF70",44.979,16.7091,"","","Prijedor","",25107069,"2024-02-24T19:08:49",3,"NO ERROR",11.2,90.9,996.25,0.19,0.21,0.21],
    [1070,363171,"Vazduh","Libelium","0004A30B0021DF70",44.979,16.7091,"","","Prijedor","",25108752,"2024-02-24T21:10:31",3,"NO ERROR",10.52,98.3,996.79,0.34,0.46,0.48],
    [1071,363171,"Vazduh","Libelium","0004A30B0021DF70",44.979,16.7091,"","","Prijedor","",25109541,"2024-02-24T22:11:13",3,"NO ERROR",9.23,100,996.73,0.12,0.15,0.15],
    [1072,363171,"Vazduh","Libelium","0004A30B0021DF70",44.979,16.7091,"","","Prijedor","",25110363,"2024-02-24T23:11:55",3,"NO ERROR",9.07,100,997.05,0.33,0.35,0.35],
    [1073,363171,"Vazduh","Libelium","0004A30B0021DF70",44.979,16.7091,"","","Prijedor","",25111418,"2024-02-25T00:12:37",3,"NO ERROR",7.79,100,997.05,0.44,0.59,0.59],
    [1074,363171,"Vazduh","Libelium","0004A30B0021DF70",44.979,16.7091,"","","Prijedor","",25112326,"2024-02-25T01:13:19",3,"NO ERROR",7,100,997.35,0.18,0.21,0.21],
    [1075,363171,"Vazduh","Libelium","0004A30B0021DF70",44.979,16.7091,"","","Prijedor","",25113209,"2024-02-25T02:14:02",3,"NO ERROR",6.33,100,997.16,0.24,0.35,0.35],
    [1076,363171,"Vazduh","Libelium","0004A30B0021DF70",44.979,16.7091,"","","Prijedor","",25114041,"2024-02-25T03:14:44",3,"NO ERROR",5.36,100,997.25,0.28,0.34,0.35],
    [1077,363171,"Vazduh","Libelium","0004A30B0021DF70",44.979,16.7091,"","","Prijedor","",25114988,"2024-02-25T04:15:32",3,"NO ERROR",4.65,100,997.39,0.68,0.95,0.97],
    [1078,363171,"Vazduh","Libelium","0004A30B0021DF70",44.979,16.7091,"","","Prijedor","",25115933,"2024-02-25T05:16:14",3,"NO ERROR",3.7,100,997.29,0.44,0.58,0.6],
    [1079,363171,"Vazduh","Libelium","0004A30B0021DF70",44.979,16.7091,"","","Prijedor","",25116785,"2024-02-25T06:16:56",3,"NO ERROR",2.14,100,996.41,1.23,1.35,1.35],
    [1080,363171,"Vazduh","Libelium","0004A30B0021DF70",44.979,16.7091,"","","Prijedor","",25117616,"2024-02-25T07:17:38",3,"NO ERROR",3.41,100,997.49,0.6,0.63,0.63],
    [1081,363171,"Vazduh","Libelium","0004A30B0021DF70",44.979,16.7091,"","","Prijedor","",25118460,"2024-02-25T08:18:20",3,"NO ERROR",4.68,100,997.93,0.13,0.14,0.14],
    [1082,363171,"Vazduh","Libelium","0004A30B0021DF70",44.979,16.7091,"","","Prijedor","",25119244,"2024-02-25T09:19:03",3,"NO ERROR",6.97,100,997.3,0.08,0.1,0.1],
    [1083,363171,"Vazduh","Libelium","0004A30B0021DF70",44.979,16.7091,"","","Prijedor","",25120012,"2024-02-25T10:19:45",3,"NO ERROR",8.45,100,996.83,0.06,0.07,0.07],
    [1084,363171,"Vazduh","Libelium","0004A30B0021DF70",44.979,16.7091,"","","Prijedor","",25120831,"2024-02-25T11:20:27",3,"NO ERROR",10.75,95.1,996.32,0.07,0.07,0.07],
    [1085,363171,"Vazduh","Libelium","0004A30B0021DF70",44.979,16.7091,"","","Prijedor","",25121764,"2024-02-25T12:21:09",3,"NO ERROR",12.07,82.3,995.84,0.05,0.05,0.05],
    [1086,363171,"Vazduh","Libelium","0004A30B0021DF70",44.979,16.7091,"","","Prijedor","",25122600,"2024-02-25T13:21:51",3,"NO ERROR",13.04,80.3,994.64,0.05,0.05,0.05],
    [1087,363171,"Vazduh","Libelium","0004A30B0021DF70",44.979,16.7091,"","","Prijedor","",25123460,"2024-02-25T14:22:33",3,"NO ERROR",13.95,75.2,993.96,0.07,0.08,0.08],
    [1088,363171,"Vazduh","Libelium","0004A30B0021DF70",44.979,16.7091,"","","Prijedor","",25124322,"2024-02-25T15:23:15",3,"NO ERROR",13.17,79.1,993.82,0.1,0.2,0.28],
    [1089,363171,"Vazduh","Libelium","0004A30B0021DF70",44.979,16.7091,"","","Prijedor","",25125234,"2024-02-25T16:23:57",3,"NO ERROR",12.92,89.6,993.76,0.13,0.16,0.16],
    [1090,363171,"Vazduh","Libelium","0004A30B0021DF70",44.979,16.7091,"","","Prijedor","",25126127,"2024-02-25T17:24:39",3,"NO ERROR",12.22,94.8,994.02,0.06,0.08,0.09],
    [1091,363171,"Vazduh","Libelium","0004A30B0021DF70",44.979,16.7091,"","","Prijedor","",25126894,"2024-02-25T18:25:21",3,"NO ERROR",11.15,100,994.07,0.22,0.29,0.31],
    [1092,363171,"Vazduh","Libelium","0004A30B0021DF70",44.979,16.7091,"","","Prijedor","",25127641,"2024-02-25T19:26:16",3,"NO ERROR",10.26,100,994.12,0.13,0.14,0.14],
    [1093,363171,"Vazduh","Libelium","0004A30B0021DF70",44.979,16.7091,"","","Prijedor","",25128522,"2024-02-25T20:26:58",3,"NO ERROR",10.07,100,993.9,0.35,0.53,0.53],
    [1094,363171,"Vazduh","Libelium","0004A30B0021DF70",44.979,16.7091,"","","Prijedor","",25129341,"2024-02-25T21:27:40",3,"NO ERROR",9.85,100,993.64,0.41,0.52,0.52],
    [1095,363171,"Vazduh","Libelium","0004A30B0021DF70",44.979,16.7091,"","","Prijedor","",25130140,"2024-02-25T22:28:22",3,"NO ERROR",9.5,100,993.47,0.15,0.2,0.2],
    [1096,363171,"Vazduh","Libelium","0004A30B0021DF70",44.979,16.7091,"","","Prijedor","",25130966,"2024-02-25T23:29:04",3,"NO ERROR",9.39,100,993.36,0.56,0.64,0.64],
    [1097,363171,"Vazduh","Libelium","0004A30B0021DF70",44.979,16.7091,"","","Prijedor","",25132031,"2024-02-26T00:29:46",3,"NO ERROR",9.2,100,992.97,0.63,0.67,0.67],
    [1098,363171,"Vazduh","Libelium","0004A30B0021DF70",44.979,16.7091,"","","Prijedor","",25132839,"2024-02-26T01:30:28",3,"NO ERROR",8.81,100,992.89,0.93,1.01,1.01],
    [1099,363171,"Vazduh","Libelium","0004A30B0021DF70",44.979,16.7091,"","","Prijedor","",25133622,"2024-02-26T02:31:10",3,"NO ERROR",8.84,100,992.29,0.63,0.7,0.7],
    [1100,363171,"Vazduh","Libelium","0004A30B0021DF70",44.979,16.7091,"","","Prijedor","",25135305,"2024-02-26T04:32:57",3,"NO ERROR",8.45,100,992.49,0.73,0.89,0.89],
    [1101,363171,"Vazduh","Libelium","0004A30B0021DF70",44.979,16.7091,"","","Prijedor","",25136199,"2024-02-26T05:33:46",3,"NO ERROR",7.67,100,992.11,11.67,14.38,14.44],
    [1102,363171,"Vazduh","Libelium","0004A30B0021DF70",44.979,16.7091,"","","Prijedor","",25136975,"2024-02-26T06:34:28",3,"NO ERROR",7.71,100,992.08,6.04,9.29,59.75],
    [1103,363171,"Vazduh","Libelium","0004A30B0021DF70",44.979,16.7091,"","","Prijedor","",25137792,"2024-02-26T07:35:10",3,"NO ERROR",8.02,100,992.68,8.09,11.66,29.16],
    [1104,363171,"Vazduh","Libelium","0004A30B0021DF70",44.979,16.7091,"","","Prijedor","",25138673,"2024-02-26T08:35:52",3,"NO ERROR",8.52,100,993.01,8.96,15.58,113.35],
    [1105,363171,"Vazduh","Libelium","0004A30B0021DF70",44.979,16.7091,"","","Prijedor","",25139548,"2024-02-26T09:36:34",3,"NO ERROR",9.59,100,993.1,4.26,4.84,4.86],
    [1106,363171,"Vazduh","Libelium","0004A30B0021DF70",44.979,16.7091,"","","Prijedor","",25140344,"2024-02-26T10:37:16",3,"NO ERROR",12.08,100,992.89,1.47,1.62,1.63],
    [1107,363171,"Vazduh","Libelium","0004A30B0021DF70",44.979,16.7091,"","","Prijedor","",25141310,"2024-02-26T11:38:04",3,"NO ERROR",15.01,89.7,992.57,0.53,0.61,0.63],
    [1108,363171,"Vazduh","Libelium","0004A30B0021DF70",44.979,16.7091,"","","Prijedor","",25142267,"2024-02-26T12:38:46",3,"NO ERROR",16.85,71.9,991.66,0.16,0.19,0.19],
    [1109,363171,"Vazduh","Libelium","0004A30B0021DF70",44.979,16.7091,"","","Prijedor","",25143153,"2024-02-26T13:39:28",3,"NO ERROR",18.27,63.2,991.2,0.07,0.07,0.07],
    [1110,363171,"Vazduh","Libelium","0004A30B0021DF70",44.979,16.7091,"","","Prijedor","",25144073,"2024-02-26T14:40:10",3,"NO ERROR",19.25,56.1,990.99,0.06,0.12,0.13],
    [1111,363171,"Vazduh","Libelium","0004A30B0021DF70",44.979,16.7091,"","","Prijedor","",25144977,"2024-02-26T15:40:52",3,"NO ERROR",18.69,56.1,990.91,0.17,0.18,0.18],
    [1112,363171,"Vazduh","Libelium","0004A30B0021DF70",44.979,16.7091,"","","Prijedor","",25145884,"2024-02-26T16:41:34",3,"NO ERROR",17.69,58.1,991.25,0.02,0.06,0.07],
    [1113,363171,"Vazduh","Libelium","0004A30B0021DF70",44.979,16.7091,"","","Prijedor","",25146788,"2024-02-26T17:42:16",3,"NO ERROR",16.3,59.7,991.65,0.16,0.22,0.22],
    [1114,363171,"Vazduh","Libelium","0004A30B0021DF70",44.979,16.7091,"","","Prijedor","",25147550,"2024-02-26T18:42:59",3,"NO ERROR",15.27,75.1,992.4,0.64,0.9,2],
    [1115,363171,"Vazduh","Libelium","0004A30B0021DF70",44.979,16.7091,"","","Prijedor","",25148357,"2024-02-26T19:43:41",3,"NO ERROR",13.46,84.8,992.77,1.01,1.22,1.22],
    [1116,363171,"Vazduh","Libelium","0004A30B0021DF70",44.979,16.7091,"","","Prijedor","",25149291,"2024-02-26T20:44:35",3,"NO ERROR",13.02,80.5,993.28,0.09,0.12,0.12],
    [1117,363171,"Vazduh","Libelium","0004A30B0021DF70",44.979,16.7091,"","","Prijedor","",25150177,"2024-02-26T21:45:23",3,"NO ERROR",11.72,91.4,993.55,0.46,0.65,0.67],
    [1118,363171,"Vazduh","Libelium","0004A30B0021DF70",44.979,16.7091,"","","Prijedor","",25151044,"2024-02-26T22:46:05",3,"NO ERROR",11.05,99.5,993.87,1.39,1.67,1.68],
    [1119,363171,"Vazduh","Libelium","0004A30B0021DF70",44.979,16.7091,"","","Prijedor","",25151888,"2024-02-26T23:46:47",3,"NO ERROR",9.52,100,994.08,0.64,0.84,0.87],
    [1120,363171,"Vazduh","Libelium","0004A30B0021DF70",44.979,16.7091,"","","Prijedor","",25152938,"2024-02-27T00:47:29",3,"NO ERROR",8.53,100,994.19,0.38,0.52,0.52],
    [1121,363171,"Vazduh","Libelium","0004A30B0021DF70",44.979,16.7091,"","","Prijedor","",25153787,"2024-02-27T01:48:11",3,"NO ERROR",9.04,100,994.16,0.2,0.21,0.21],
    [1122,363171,"Vazduh","Libelium","0004A30B0021DF70",44.979,16.7091,"","","Prijedor","",25154485,"2024-02-27T02:48:53",3,"NO ERROR",7.71,100,994.45,0.39,0.5,0.5],
    [1123,363171,"Vazduh","Libelium","0004A30B0021DF70",44.979,16.7091,"","","Prijedor","",25155352,"2024-02-27T03:49:35",3,"NO ERROR",7.65,100,994.73,0.12,0.13,0.13],
    [1124,363171,"Vazduh","Libelium","0004A30B0021DF70",44.979,16.7091,"","","Prijedor","",25156308,"2024-02-27T04:50:17",3,"NO ERROR",7.53,100,994.96,0.21,0.31,0.31],
    [1125,363171,"Vazduh","Libelium","0004A30B0021DF70",44.979,16.7091,"","","Prijedor","",25157157,"2024-02-27T05:51:00",3,"NO ERROR",7.87,100,994.96,0.43,0.49,0.49],
    [1126,363171,"Vazduh","Libelium","0004A30B0021DF70",44.979,16.7091,"","","Prijedor","",25157974,"2024-02-27T06:51:42",3,"NO ERROR",8.16,100,995.69,0.4,0.6,0.64],
    [1127,363171,"Vazduh","Libelium","0004A30B0021DF70",44.979,16.7091,"","","Prijedor","",25158875,"2024-02-27T07:52:24",3,"NO ERROR",9.26,100,995.99,0.46,0.76,1.22],
    [1128,363171,"Vazduh","Libelium","0004A30B0021DF70",44.979,16.7091,"","","Prijedor","",25159722,"2024-02-27T08:53:06",3,"NO ERROR",10.23,100,996.26,0.49,0.58,0.59],
    [1129,363171,"Vazduh","Libelium","0004A30B0021DF70",44.979,16.7091,"","","Prijedor","",25160547,"2024-02-27T09:53:48",3,"NO ERROR",11.31,100,996.4,0.71,0.96,1.09],
    [1130,363171,"Vazduh","Libelium","0004A30B0021DF70",44.979,16.7091,"","","Prijedor","",25161430,"2024-02-27T10:54:30",3,"NO ERROR",13,99.4,996.83,0.31,0.47,0.58],
    [1131,363171,"Vazduh","Libelium","0004A30B0021DF70",44.979,16.7091,"","","Prijedor","",25162362,"2024-02-27T11:55:12",3,"NO ERROR",14.56,89.4,996.76,0.44,0.56,0.56],
    [1132,363171,"Vazduh","Libelium","0004A30B0021DF70",44.979,16.7091,"","","Prijedor","",25163293,"2024-02-27T12:55:54",3,"NO ERROR",15.4,84.3,996.7,0.26,0.44,0.48],
    [1133,363171,"Vazduh","Libelium","0004A30B0021DF70",44.979,16.7091,"","","Prijedor","",25164188,"2024-02-27T13:56:36",3,"NO ERROR",16.18,81.1,996.23,0.57,0.7,0.71],
    [1134,363171,"Vazduh","Libelium","0004A30B0021DF70",44.979,16.7091,"","","Prijedor","",25165103,"2024-02-27T14:57:18",3,"NO ERROR",17.27,75.8,995.67,0.73,0.88,0.89],
    [1135,363171,"Vazduh","Libelium","0004A30B0021DF70",44.979,16.7091,"","","Prijedor","",25166031,"2024-02-27T15:58:00",3,"NO ERROR",18.27,61.7,995.59,0.41,0.67,0.79],
    [1136,363171,"Vazduh","Libelium","0004A30B0021DF70",44.979,16.7091,"","","Prijedor","",25166989,"2024-02-27T16:58:49",3,"NO ERROR",17.16,67.4,995.93,0.37,0.56,0.58],
    [1137,363171,"Vazduh","Libelium","0004A30B0021DF70",44.979,16.7091,"","","Prijedor","",25167881,"2024-02-27T17:59:31",3,"NO ERROR",16.31,67.3,996.48,0.49,0.85,1],
    [1138,363171,"Vazduh","Libelium","0004A30B0021DF70",44.979,16.7091,"","","Prijedor","",25168694,"2024-02-27T19:00:13",3,"NO ERROR",15.25,72.9,997.36,0.3,0.49,0.89],
    [1139,363171,"Vazduh","Libelium","0004A30B0021DF70",44.979,16.7091,"","","Prijedor","",25169582,"2024-02-27T20:00:55",3,"NO ERROR",14.66,66.8,997.77,0.26,0.41,0.82],
    [1140,363171,"Vazduh","Libelium","0004A30B0021DF70",44.979,16.7091,"","","Prijedor","",25170477,"2024-02-27T21:01:37",3,"NO ERROR",12.58,92.5,998.62,0.2,0.23,0.23],
    [1141,363171,"Vazduh","Libelium","0004A30B0021DF70",44.979,16.7091,"","","Prijedor","",25171327,"2024-02-27T22:02:19",3,"NO ERROR",10.89,100,998.84,0.22,0.24,0.24],
    [1142,363171,"Vazduh","Libelium","0004A30B0021DF70",44.979,16.7091,"","","Prijedor","",25172158,"2024-02-27T23:03:01",3,"NO ERROR",9.75,100,999.18,0.22,0.26,0.26],
    [1143,363171,"Vazduh","Libelium","0004A30B0021DF70",44.979,16.7091,"","","Prijedor","",25173149,"2024-02-28T00:03:43",3,"NO ERROR",8.9,100,999.86,0.3,0.44,0.45],
    [1144,363171,"Vazduh","Libelium","0004A30B0021DF70",44.979,16.7091,"","","Prijedor","",25173970,"2024-02-28T01:04:25",3,"NO ERROR",8.03,100,1000.13,0.61,0.65,0.65],
    [1145,363171,"Vazduh","Libelium","0004A30B0021DF70",44.979,16.7091,"","","Prijedor","",25174806,"2024-02-28T02:05:13",3,"NO ERROR",7.33,100,1000.27,0.18,0.21,0.21],
    [1146,363171,"Vazduh","Libelium","0004A30B0021DF70",44.979,16.7091,"","","Prijedor","",25175608,"2024-02-28T03:05:55",3,"NO ERROR",6.94,100,1000.53,0.67,0.86,0.86],
    [1147,363171,"Vazduh","Libelium","0004A30B0021DF70",44.979,16.7091,"","","Prijedor","",25176506,"2024-02-28T04:06:44",3,"NO ERROR",6.45,100,1000.76,0.24,0.38,0.4],
    [1148,363171,"Vazduh","Libelium","0004A30B0021DF70",44.979,16.7091,"","","Prijedor","",25177416,"2024-02-28T05:07:26",3,"NO ERROR",6,100,1001.43,0.09,0.13,0.14],
    [1149,363171,"Vazduh","Libelium","0004A30B0021DF70",44.979,16.7091,"","","Prijedor","",25178257,"2024-02-28T06:08:08",3,"NO ERROR",6.15,100,1001.38,0.33,0.38,0.38],
    [1150,363171,"Vazduh","Libelium","0004A30B0021DF70",44.979,16.7091,"","","Prijedor","",25179081,"2024-02-28T07:08:56",3,"NO ERROR",5.89,100,1002.47,0.4,0.48,0.48],
    [1151,363171,"Vazduh","Libelium","0004A30B0021DF70",44.979,16.7091,"","","Prijedor","",25179982,"2024-02-28T08:09:38",3,"NO ERROR",6.69,100,1002.93,0.85,1.03,1.03],
    [1152,363171,"Vazduh","Libelium","0004A30B0021DF70",44.979,16.7091,"","","Prijedor","",25180809,"2024-02-28T09:10:20",3,"NO ERROR",7.93,100,1003.14,0.22,0.28,0.28],
    [1153,363171,"Vazduh","Libelium","0004A30B0021DF70",44.979,16.7091,"","","Prijedor","",25181592,"2024-02-28T10:11:02",3,"NO ERROR",10.31,100,1003.26,0.41,0.71,1.05],
    [1154,363171,"Vazduh","Libelium","0004A30B0021DF70",44.979,16.7091,"","","Prijedor","",25182447,"2024-02-28T11:11:50",3,"NO ERROR",10.75,100,1003.58,0.36,0.46,0.48],
    [1155,363171,"Vazduh","Libelium","0004A30B0021DF70",44.979,16.7091,"","","Prijedor","",25183360,"2024-02-28T12:12:32",3,"NO ERROR",13.94,94.6,1003.09,0.25,0.33,0.33],
    [1156,363171,"Vazduh","Libelium","0004A30B0021DF70",44.979,16.7091,"","","Prijedor","",25184285,"2024-02-28T13:13:14",3,"NO ERROR",16.53,84.1,1002.41,0.55,0.66,0.66],
    [1157,363171,"Vazduh","Libelium","0004A30B0021DF70",44.979,16.7091,"","","Prijedor","",25185222,"2024-02-28T14:13:57",3,"NO ERROR",16.52,82.3,1001.95,0.32,0.4,0.42],
    [1158,363171,"Vazduh","Libelium","0004A30B0021DF70",44.979,16.7091,"","","Prijedor","",25186058,"2024-02-28T15:14:39",3,"NO ERROR",15.88,85.1,1002.07,0.71,0.91,0.92],
    [1159,363171,"Vazduh","Libelium","0004A30B0021DF70",44.979,16.7091,"","","Prijedor","",25186944,"2024-02-28T16:15:21",3,"NO ERROR",15.03,89.9,1002.14,0.69,1.02,1.04],
    [1160,363171,"Vazduh","Libelium","0004A30B0021DF70",44.979,16.7091,"","","Prijedor","",25187846,"2024-02-28T17:16:03",3,"NO ERROR",13.42,100,1002.57,0.74,0.95,0.95],
    [1161,363171,"Vazduh","Libelium","0004A30B0021DF70",44.979,16.7091,"","","Prijedor","",25188635,"2024-02-28T18:16:51",3,"NO ERROR",12.4,100,1002.86,0.77,1.08,1.19],
    [1162,363171,"Vazduh","Libelium","0004A30B0021DF70",44.979,16.7091,"","","Prijedor","",25189389,"2024-02-28T19:17:33",3,"NO ERROR",11.38,100,1003.32,0.24,0.29,0.29],
    [1163,363171,"Vazduh","Libelium","0004A30B0021DF70",44.979,16.7091,"","","Prijedor","",25190270,"2024-02-28T20:18:15",3,"NO ERROR",10.6,100,1003.69,0.92,1.24,1.4],
    [1164,363171,"Vazduh","Libelium","0004A30B0021DF70",44.979,16.7091,"","","Prijedor","",25191075,"2024-02-28T21:18:57",3,"NO ERROR",10.29,100,1003.92,1.15,1.46,1.47],
    [1165,363171,"Vazduh","Libelium","0004A30B0021DF70",44.979,16.7091,"","","Prijedor","",25191884,"2024-02-28T22:19:39",3,"NO ERROR",9.11,100,1003.89,0.73,0.91,0.92],
    [1166,363171,"Vazduh","Libelium","0004A30B0021DF70",44.979,16.7091,"","","Prijedor","",25192743,"2024-02-28T23:20:21",3,"NO ERROR",8.77,100,1004.07,0.59,0.72,0.72],
    [1167,363171,"Vazduh","Libelium","0004A30B0021DF70",44.979,16.7091,"","","Prijedor","",25193846,"2024-02-29T00:21:03",3,"NO ERROR",8.31,100,1004.34,1.12,1.46,1.47],
    [1168,363171,"Vazduh","Libelium","0004A30B0021DF70",44.979,16.7091,"","","Prijedor","",25194689,"2024-02-29T01:21:45",3,"NO ERROR",7.73,100,1004.29,0.76,0.97,1],
    [1169,363171,"Vazduh","Libelium","0004A30B0021DF70",44.979,16.7091,"","","Prijedor","",25195521,"2024-02-29T02:22:28",3,"NO ERROR",7.42,100,1003.76,1,1.2,1.23],
    [1170,363171,"Vazduh","Libelium","0004A30B0021DF70",44.979,16.7091,"","","Prijedor","",25196348,"2024-02-29T03:23:10",3,"NO ERROR",7.58,100,1003.37,0.82,0.92,0.92],
    [1171,363171,"Vazduh","Libelium","0004A30B0021DF70",44.979,16.7091,"","","Prijedor","",25197234,"2024-02-29T04:23:58",3,"NO ERROR",7.3,100,1003.51,1.02,1.36,1.48],
    [1172,363171,"Vazduh","Libelium","0004A30B0021DF70",44.979,16.7091,"","","Prijedor","",25198138,"2024-02-29T05:24:40",3,"NO ERROR",7.57,100,1003.47,1.14,1.48,1.5],
    [1173,363171,"Vazduh","Libelium","0004A30B0021DF70",44.979,16.7091,"","","Prijedor","",25198981,"2024-02-29T06:25:22",3,"NO ERROR",7.44,100,1003.37,1.39,1.99,2.09],
    [1174,363171,"Vazduh","Libelium","0004A30B0021DF70",44.979,16.7091,"","","Prijedor","",25199824,"2024-02-29T07:26:04",3,"NO ERROR",7.6,100,1003.43,1.41,1.78,1.79],
    [1175,363171,"Vazduh","Libelium","0004A30B0021DF70",44.979,16.7091,"","","Prijedor","",25200726,"2024-02-29T08:26:46",3,"NO ERROR",8.31,100,1003.28,3.08,3.56,3.56],
    [1176,363171,"Vazduh","Libelium","0004A30B0021DF70",44.979,16.7091,"","","Prijedor","",25201576,"2024-02-29T09:27:28",3,"NO ERROR",10.23,100,1002.97,1.32,1.48,1.48],
    [1177,363171,"Vazduh","Libelium","0004A30B0021DF70",44.979,16.7091,"","","Prijedor","",25202369,"2024-02-29T10:28:10",3,"NO ERROR",11.65,100,1002.83,1.51,1.68,1.68],
    [1178,363171,"Vazduh","Libelium","0004A30B0021DF70",44.979,16.7091,"","","Prijedor","",25203287,"2024-02-29T11:28:53",3,"NO ERROR",13.93,99.8,1002.44,0.76,0.89,0.89],
    [1179,363171,"Vazduh","Libelium","0004A30B0021DF70",44.979,16.7091,"","","Prijedor","",25204278,"2024-02-29T12:29:35",3,"NO ERROR",15.26,91.9,1002.1,0.66,0.97,1.11],
    [1180,363171,"Vazduh","Libelium","0004A30B0021DF70",44.979,16.7091,"","","Prijedor","",25205212,"2024-02-29T13:30:17",3,"NO ERROR",15.76,87.7,1001.32,0.53,0.82,0.99],
    [1181,363171,"Vazduh","Libelium","0004A30B0021DF70",44.979,16.7091,"","","Prijedor","",25206153,"2024-02-29T14:31:05",3,"NO ERROR",15.68,88.4,1000.37,0.98,1.23,1.25],
    [1182,363171,"Vazduh","Libelium","0004A30B0021DF70",44.979,16.7091,"","","Prijedor","",25207070,"2024-02-29T15:31:53",3,"NO ERROR",14.44,96.7,999.61,1.25,1.65,1.67],
    [1183,363171,"Vazduh","Libelium","0004A30B0021DF70",44.979,16.7091,"","","Prijedor","",25207956,"2024-02-29T16:32:41",3,"NO ERROR",13.79,100,999.18,0.5,0.55,0.55],
    [1184,363171,"Vazduh","Libelium","0004A30B0021DF70",44.979,16.7091,"","","Prijedor","",25208917,"2024-02-29T17:33:23",3,"NO ERROR",12.76,100,999.18,1.04,1.24,1.25],
    [1185,363171,"Vazduh","Libelium","0004A30B0021DF70",44.979,16.7091,"","","Prijedor","",25209664,"2024-02-29T18:34:05",3,"NO ERROR",11.72,100,998.8,1.02,1.3,1.41],
    [1186,363171,"Vazduh","Libelium","0004A30B0021DF70",44.979,16.7091,"","","Prijedor","",25210367,"2024-02-29T19:34:47",3,"NO ERROR",11.16,100,998.53,1.26,1.49,1.51],
    [1187,363171,"Vazduh","Libelium","0004A30B0021DF70",44.979,16.7091,"","","Prijedor","",25211283,"2024-02-29T20:35:35",3,"NO ERROR",10.57,100,997.94,1.49,1.81,1.82],
    [1188,363171,"Vazduh","Libelium","0004A30B0021DF70",44.979,16.7091,"","","Prijedor","",25212113,"2024-02-29T21:36:17",3,"NO ERROR",10.34,100,997.46,1.44,1.6,1.6],
    [1189,363171,"Vazduh","Libelium","0004A30B0021DF70",44.979,16.7091,"","","Prijedor","",25212961,"2024-02-29T22:36:59",3,"NO ERROR",10.22,100,996.56,1.25,1.52,1.55],
    [1190,363171,"Vazduh","Libelium","0004A30B0021DF70",44.979,16.7091,"","","Prijedor","",25213881,"2024-02-29T23:37:42",3,"NO ERROR",9.91,100,995.52,1.25,1.44,1.45],
    [1191,363171,"Vazduh","Libelium","0004A30B0021DF70",44.979,16.7091,"","","Prijedor","",25215011,"2024-03-01T00:38:24",3,"NO ERROR",10.51,100,995.34,1.56,1.89,1.92],
    [1192,363171,"Vazduh","Libelium","0004A30B0021DF70",44.979,16.7091,"","","Prijedor","",25215797,"2024-03-01T01:39:06",3,"NO ERROR",10.07,100,994.97,4.28,5.17,5.2],
    [1193,363171,"Vazduh","Libelium","0004A30B0021DF70",44.979,16.7091,"","","Prijedor","",25216650,"2024-03-01T02:39:48",3,"NO ERROR",9.26,100,993.82,7.78,9.04,9.06],
    [1194,363171,"Vazduh","Libelium","0004A30B0021DF70",44.979,16.7091,"","","Prijedor","",25217521,"2024-03-01T03:40:30",3,"NO ERROR",9.15,100,993.19,11.18,13.48,13.52],
    [1195,363171,"Vazduh","Libelium","0004A30B0021DF70",44.979,16.7091,"","","Prijedor","",25218470,"2024-03-01T04:41:12",3,"NO ERROR",9.29,100,993.03,14.67,17.35,18.08],
    [1196,363171,"Vazduh","Libelium","0004A30B0021DF70",44.979,16.7091,"","","Prijedor","",25219421,"2024-03-01T05:41:54",3,"NO ERROR",9.31,100,992.76,5.81,6.98,7.12],
    [1197,363171,"Vazduh","Libelium","0004A30B0021DF70",44.979,16.7091,"","","Prijedor","",25220249,"2024-03-01T06:42:36",3,"NO ERROR",9.37,100,993.13,7.47,8.87,8.93],
    [1198,363171,"Vazduh","Libelium","0004A30B0021DF70",44.979,16.7091,"","","Prijedor","",25221074,"2024-03-01T07:43:18",3,"NO ERROR",9.84,100,993.29,6.05,6.98,7.03],
    [1199,363171,"Vazduh","Libelium","0004A30B0021DF70",44.979,16.7091,"","","Prijedor","",25221944,"2024-03-01T08:44:00",3,"NO ERROR",10.27,100,993.53,3.06,3.44,3.44],
    [1200,363171,"Vazduh","Libelium","0004A30B0021DF70",44.979,16.7091,"","","Prijedor","",25222765,"2024-03-01T09:44:43",3,"NO ERROR",11.64,100,992.9,2.59,3.11,3.12],
    [1201,363171,"Vazduh","Libelium","0004A30B0021DF70",44.979,16.7091,"","","Prijedor","",25223620,"2024-03-01T10:45:25",3,"NO ERROR",11.66,100,993.13,2.01,2.38,2.39],
    [1202,363171,"Vazduh","Libelium","0004A30B0021DF70",44.979,16.7091,"","","Prijedor","",25224581,"2024-03-01T11:46:07",3,"NO ERROR",13.14,100,993.15,1.4,1.69,1.71],
    [1203,363171,"Vazduh","Libelium","0004A30B0021DF70",44.979,16.7091,"","","Prijedor","",25225574,"2024-03-01T12:46:49",3,"NO ERROR",14.74,100,992.39,1.75,2,2],
    [1204,363171,"Vazduh","Libelium","0004A30B0021DF70",44.979,16.7091,"","","Prijedor","",25226519,"2024-03-01T13:47:31",3,"NO ERROR",17.66,86,991.98,0.99,1.08,1.08],
    [1205,363171,"Vazduh","Libelium","0004A30B0021DF70",44.979,16.7091,"","","Prijedor","",25227474,"2024-03-01T14:48:13",3,"NO ERROR",17.49,79.2,991.83,0.92,1.09,1.1],
    [1206,363171,"Vazduh","Libelium","0004A30B0021DF70",44.979,16.7091,"","","Prijedor","",25228357,"2024-03-01T15:48:55",3,"NO ERROR",16.28,87.6,992.11,1.38,1.74,1.76],
    [1207,363171,"Vazduh","Libelium","0004A30B0021DF70",44.979,16.7091,"","","Prijedor","",25229273,"2024-03-01T16:49:37",3,"NO ERROR",15.65,93.2,992.15,0.89,1.05,1.05],
    [1208,363171,"Vazduh","Libelium","0004A30B0021DF70",44.979,16.7091,"","","Prijedor","",25230152,"2024-03-01T17:50:19",3,"NO ERROR",15.01,64.6,992.68,0.81,1.14,1.18],
    [1209,363171,"Vazduh","Libelium","0004A30B0021DF70",44.979,16.7091,"","","Prijedor","",25230939,"2024-03-01T18:51:01",3,"NO ERROR",14,67.4,993.09,0.36,0.45,0.45],
    [1210,363171,"Vazduh","Libelium","0004A30B0021DF70",44.979,16.7091,"","","Prijedor","",25231828,"2024-03-01T19:51:43",3,"NO ERROR",13.14,80.6,993.69,0.41,0.54,0.62],
    [1211,363171,"Vazduh","Libelium","0004A30B0021DF70",44.979,16.7091,"","","Prijedor","",25232755,"2024-03-01T20:52:25",3,"NO ERROR",11.95,100,993.87,1.46,1.8,1.81],
    [1212,363171,"Vazduh","Libelium","0004A30B0021DF70",44.979,16.7091,"","","Prijedor","",25233584,"2024-03-01T21:53:14",3,"NO ERROR",10.92,100,993.91,0.77,0.91,0.91],
    [1213,363171,"Vazduh","Libelium","0004A30B0021DF70",44.979,16.7091,"","","Prijedor","",25234412,"2024-03-01T22:53:56",3,"NO ERROR",9.05,100,993.99,1.45,1.76,1.77],
    [1214,363171,"Vazduh","Libelium","0004A30B0021DF70",44.979,16.7091,"","","Prijedor","",25235300,"2024-03-01T23:54:38",3,"NO ERROR",8.11,100,993.81,3.97,4.78,4.91],
    [1215,363171,"Vazduh","Libelium","0004A30B0021DF70",44.979,16.7091,"","","Prijedor","",25236326,"2024-03-02T00:55:20",3,"NO ERROR",7.3,100,993.96,7.73,9.15,9.18],
    [1216,363171,"Vazduh","Libelium","0004A30B0021DF70",44.979,16.7091,"","","Prijedor","",25237153,"2024-03-02T01:56:02",3,"NO ERROR",5.99,100,994.11,11.62,14.45,28.24],
    [1217,363171,"Vazduh","Libelium","0004A30B0021DF70",44.979,16.7091,"","","Prijedor","",25237956,"2024-03-02T02:56:44",3,"NO ERROR",5.8,100,994.4,27.66,40.62,144.31],
    [1218,363171,"Vazduh","Libelium","0004A30B0021DF70",44.979,16.7091,"","","Prijedor","",25238815,"2024-03-02T03:57:26",3,"NO ERROR",5.82,100,994.43,46.66,67.54,193.89],
    [1219,363171,"Vazduh","Libelium","0004A30B0021DF70",44.979,16.7091,"","","Prijedor","",25239719,"2024-03-02T04:58:08",3,"NO ERROR",5.66,100,994.49,4.48,13.71,309.22],
    [1220,363171,"Vazduh","Libelium","0004A30B0021DF70",44.979,16.7091,"","","Prijedor","",25240521,"2024-03-02T05:58:50",3,"NO ERROR",4.98,100,995.02,17.5,33.09,320.84],
    [1221,363171,"Vazduh","Libelium","0004A30B0021DF70",44.979,16.7091,"","","Prijedor","",25241346,"2024-03-02T06:59:39",3,"NO ERROR",4.97,100,995.57,18.58,34.5,323.17],
    [1222,363171,"Vazduh","Libelium","0004A30B0021DF70",44.979,16.7091,"","","Prijedor","",25242201,"2024-03-02T08:00:21",3,"NO ERROR",5.53,100,995.89,5.48,16.42,404.27],
    [1223,363171,"Vazduh","Libelium","0004A30B0021DF70",44.979,16.7091,"","","Prijedor","",25243036,"2024-03-02T09:01:03",3,"NO ERROR",6.07,100,996.19,0.5,0.99,3.63],
    [1224,363171,"Vazduh","Libelium","0004A30B0021DF70",44.979,16.7091,"","","Prijedor","",25243840,"2024-03-02T10:01:45",3,"NO ERROR",6.94,100,996.2,0.22,0.3,0.37],
    [1225,363171,"Vazduh","Libelium","0004A30B0021DF70",44.979,16.7091,"","","Prijedor","",25244668,"2024-03-02T11:02:27",3,"NO ERROR",11.95,99.1,995.97,0.81,1.17,1.45],
    [1226,363171,"Vazduh","Libelium","0004A30B0021DF70",44.979,16.7091,"","","Prijedor","",25245583,"2024-03-02T12:03:09",3,"NO ERROR",14.65,76.5,995.61,0.35,0.59,1.14],
    [1227,363171,"Vazduh","Libelium","0004A30B0021DF70",44.979,16.7091,"","","Prijedor","",25246520,"2024-03-02T13:03:57",3,"NO ERROR",16.82,59.3,994.89,0.3,0.45,0.45],
    [1228,363171,"Vazduh","Libelium","0004A30B0021DF70",44.979,16.7091,"","","Prijedor","",25247452,"2024-03-02T14:04:45",3,"NO ERROR",18.38,53.9,994.35,0.06,0.08,0.09],
    [1229,363171,"Vazduh","Libelium","0004A30B0021DF70",44.979,16.7091,"","","Prijedor","",25248358,"2024-03-02T15:05:27",3,"NO ERROR",17.5,54.8,994.48,0.22,0.3,0.31],
    [1230,363171,"Vazduh","Libelium","0004A30B0021DF70",44.979,16.7091,"","","Prijedor","",25249253,"2024-03-02T16:06:09",3,"NO ERROR",15.4,74.1,994.69,0.1,0.12,0.12],
    [1231,363171,"Vazduh","Libelium","0004A30B0021DF70",44.979,16.7091,"","","Prijedor","",25250182,"2024-03-02T17:06:51",3,"NO ERROR",14.45,87.2,994.62,0.15,0.23,0.24],
    [1232,363171,"Vazduh","Libelium","0004A30B0021DF70",44.979,16.7091,"","","Prijedor","",25251017,"2024-03-02T18:07:33",3,"NO ERROR",12.87,95.7,995.04,0.15,0.28,0.35],
    [1233,363171,"Vazduh","Libelium","0004A30B0021DF70",44.979,16.7091,"","","Prijedor","",25251764,"2024-03-02T19:08:16",3,"NO ERROR",11.93,100,995.44,0.94,1.43,1.96],
    [1234,363171,"Vazduh","Libelium","0004A30B0021DF70",44.979,16.7091,"","","Prijedor","",25252648,"2024-03-02T20:08:58",3,"NO ERROR",11.09,100,995.78,0.67,0.72,0.72],
    [1235,363171,"Vazduh","Libelium","0004A30B0021DF70",44.979,16.7091,"","","Prijedor","",25253543,"2024-03-02T21:09:40",3,"NO ERROR",11.1,100,996.18,1.41,1.53,1.53],
    [1236,363171,"Vazduh","Libelium","0004A30B0021DF70",44.979,16.7091,"","","Prijedor","",25254405,"2024-03-02T22:10:22",3,"NO ERROR",10.99,100,996.23,0.14,0.17,0.18],
    [1237,363171,"Vazduh","Libelium","0004A30B0021DF70",44.979,16.7091,"","","Prijedor","",25255305,"2024-03-02T23:11:04",3,"NO ERROR",10.41,100,996.14,0.77,0.98,2.38],
    [1238,363171,"Vazduh","Libelium","0004A30B0021DF70",44.979,16.7091,"","","Prijedor","",25256393,"2024-03-03T00:11:46",3,"NO ERROR",10.09,100,996.31,0.98,1.11,1.12],
    [1239,363171,"Vazduh","Libelium","0004A30B0021DF70",44.979,16.7091,"","","Prijedor","",25257309,"2024-03-03T01:12:34",3,"NO ERROR",10.19,100,996.25,0.43,0.5,0.5],
    [1240,363171,"Vazduh","Libelium","0004A30B0021DF70",44.979,16.7091,"","","Prijedor","",25258184,"2024-03-03T02:13:16",3,"NO ERROR",9.6,100,996,0.21,0.26,0.26],
    [1241,363171,"Vazduh","Libelium","0004A30B0021DF70",44.979,16.7091,"","","Prijedor","",25259038,"2024-03-03T03:14:04",3,"NO ERROR",8.24,100,995.53,1.07,1.29,1.29],
    [1242,363171,"Vazduh","Libelium","0004A30B0021DF70",44.979,16.7091,"","","Prijedor","",25259943,"2024-03-03T04:14:53",3,"NO ERROR",6.87,100,995.65,0.36,0.45,0.45],
    [1243,363171,"Vazduh","Libelium","0004A30B0021DF70",44.979,16.7091,"","","Prijedor","",25260883,"2024-03-03T05:15:34",3,"NO ERROR",5.86,100,996.02,0.05,0.05,0.05],
    [1244,363171,"Vazduh","Libelium","0004A30B0021DF70",44.979,16.7091,"","","Prijedor","",25261759,"2024-03-03T06:16:17",3,"NO ERROR",5.05,100,996,0.03,0.03,0.03],
    [1245,363171,"Vazduh","Libelium","0004A30B0021DF70",44.979,16.7091,"","","Prijedor","",25262638,"2024-03-03T07:16:59",3,"NO ERROR",4.83,100,996.49,0.16,0.19,0.19],
    [1246,363171,"Vazduh","Libelium","0004A30B0021DF70",44.979,16.7091,"","","Prijedor","",25263545,"2024-03-03T08:17:41",3,"NO ERROR",11.81,91.7,996.53,0.24,0.3,0.3],
    [1247,363171,"Vazduh","Libelium","0004A30B0021DF70",44.979,16.7091,"","","Prijedor","",25264356,"2024-03-03T09:18:23",3,"NO ERROR",15.26,74.5,996.38,0.43,0.62,0.66],
    [1248,363171,"Vazduh","Libelium","0004A30B0021DF70",44.979,16.7091,"","","Prijedor","",25265184,"2024-03-03T10:19:05",3,"NO ERROR",19.23,58.9,995.85,0.24,0.31,0.31],
    [1249,363171,"Vazduh","Libelium","0004A30B0021DF70",44.979,16.7091,"","","Prijedor","",25266104,"2024-03-03T11:19:47",3,"NO ERROR",17.8,57.4,995.27,0.37,0.45,0.45],
    [1250,363171,"Vazduh","Libelium","0004A30B0021DF70",44.979,16.7091,"","","Prijedor","",25267092,"2024-03-03T12:20:29",3,"NO ERROR",19.16,49.6,994.46,0.07,0.07,0.07],
    [1251,363171,"Vazduh","Libelium","0004A30B0021DF70",44.979,16.7091,"","","Prijedor","",25267995,"2024-03-03T13:21:11",3,"NO ERROR",18.9,48.4,993.85,0.37,0.48,0.49],
    [1252,363171,"Vazduh","Libelium","0004A30B0021DF70",44.979,16.7091,"","","Prijedor","",25268897,"2024-03-03T14:21:53",3,"NO ERROR",19.15,48.6,993.21,0.26,0.28,0.28],
    [1253,363171,"Vazduh","Libelium","0004A30B0021DF70",44.979,16.7091,"","","Prijedor","",25269751,"2024-03-03T15:22:35",3,"NO ERROR",19.63,46.2,992.74,0.05,0.08,0.09],
    [1254,363171,"Vazduh","Libelium","0004A30B0021DF70",44.979,16.7091,"","","Prijedor","",25270615,"2024-03-03T16:23:17",3,"NO ERROR",17.9,48,992.3,0.51,0.65,0.66],
    [1255,363171,"Vazduh","Libelium","0004A30B0021DF70",44.979,16.7091,"","","Prijedor","",25271533,"2024-03-03T17:24:00",3,"NO ERROR",16.74,51.7,992.13,0.62,0.71,0.71],
    [1256,363171,"Vazduh","Libelium","0004A30B0021DF70",44.979,16.7091,"","","Prijedor","",25272349,"2024-03-03T18:24:42",3,"NO ERROR",14.43,64.4,992.35,2.28,2.85,3.05],
    [1257,363171,"Vazduh","Libelium","0004A30B0021DF70",44.979,16.7091,"","","Prijedor","",25273073,"2024-03-03T19:25:24",3,"NO ERROR",13.43,65.4,992.65,0.8,0.95,0.96],
    [1258,363171,"Vazduh","Libelium","0004A30B0021DF70",44.979,16.7091,"","","Prijedor","",25273969,"2024-03-03T20:26:06",3,"NO ERROR",12.79,65.4,993,1.08,1.36,1.39],
    [1259,363171,"Vazduh","Libelium","0004A30B0021DF70",44.979,16.7091,"","","Prijedor","",25274777,"2024-03-03T21:26:48",3,"NO ERROR",12.39,63.5,992.9,0.43,0.47,0.47],
    [1260,363171,"Vazduh","Libelium","0004A30B0021DF70",44.979,16.7091,"","","Prijedor","",25275569,"2024-03-03T22:27:30",3,"NO ERROR",10.77,69.5,993.05,0.78,1.1,1.13],
    [1261,363171,"Vazduh","Libelium","0004A30B0021DF70",44.979,16.7091,"","","Prijedor","",25276412,"2024-03-03T23:28:12",3,"NO ERROR",11.02,68.6,992.58,0.17,0.17,0.17],
    [1262,363171,"Vazduh","Libelium","0004A30B0021DF70",44.979,16.7091,"","","Prijedor","",25277536,"2024-03-04T00:28:54",3,"NO ERROR",8.22,85,993.01,0.72,0.98,1.12],
    [1263,363171,"Vazduh","Libelium","0004A30B0021DF70",44.979,16.7091,"","","Prijedor","",25278428,"2024-03-04T01:29:36",3,"NO ERROR",8.83,81.1,992.99,0.4,0.49,0.49],
    [1264,363171,"Vazduh","Libelium","0004A30B0021DF70",44.979,16.7091,"","","Prijedor","",25279247,"2024-03-04T02:30:18",3,"NO ERROR",8.22,80.5,992.57,0.46,0.68,0.7],
    [1265,363171,"Vazduh","Libelium","0004A30B0021DF70",44.979,16.7091,"","","Prijedor","",25280037,"2024-03-04T03:31:00",3,"NO ERROR",7.07,92.7,992.47,0.37,0.56,0.67],
    [1266,363171,"Vazduh","Libelium","0004A30B0021DF70",44.979,16.7091,"","","Prijedor","",25280908,"2024-03-04T04:31:43",3,"NO ERROR",6.69,97.8,992.5,0.53,0.72,0.72],
    [1267,363171,"Vazduh","Libelium","0004A30B0021DF70",44.979,16.7091,"","","Prijedor","",25281800,"2024-03-04T05:32:25",3,"NO ERROR",6.48,100,992.73,0.59,0.66,0.66],
    [1268,363171,"Vazduh","Libelium","0004A30B0021DF70",44.979,16.7091,"","","Prijedor","",25282608,"2024-03-04T06:33:07",3,"NO ERROR",6.77,100,993.12,0.37,0.56,0.57],
    [1269,363171,"Vazduh","Libelium","0004A30B0021DF70",44.979,16.7091,"","","Prijedor","",25283457,"2024-03-04T07:33:49",3,"NO ERROR",7.38,100,993.28,0.07,0.07,0.07],
    [1270,363171,"Vazduh","Libelium","0004A30B0021DF70",44.979,16.7091,"","","Prijedor","",25284328,"2024-03-04T08:34:31",3,"NO ERROR",8.37,100,993.51,0.34,0.4,0.4],
    [1271,363171,"Vazduh","Libelium","0004A30B0021DF70",44.979,16.7091,"","","Prijedor","",25285134,"2024-03-04T09:35:13",3,"NO ERROR",12.13,73.5,993.02,0.58,0.71,0.72],
    [1272,363171,"Vazduh","Libelium","0004A30B0021DF70",44.979,16.7091,"","","Prijedor","",25285890,"2024-03-04T10:35:55",3,"NO ERROR",14.79,65.8,992.45,0.66,0.98,1.01],
    [1273,363171,"Vazduh","Libelium","0004A30B0021DF70",44.979,16.7091,"","","Prijedor","",25286856,"2024-03-04T11:36:37",3,"NO ERROR",16.71,58.9,992.11,0.52,0.72,0.73],
    [1274,363171,"Vazduh","Libelium","0004A30B0021DF70",44.979,16.7091,"","","Prijedor","",25287843,"2024-03-04T12:37:19",3,"NO ERROR",19.09,42.7,991.67,0.31,0.33,0.33],
    [1275,363171,"Vazduh","Libelium","0004A30B0021DF70",44.979,16.7091,"","","Prijedor","",25288737,"2024-03-04T13:38:01",3,"NO ERROR",19.44,42.1,991.6,0.41,0.69,0.72],
    [1276,363171,"Vazduh","Libelium","0004A30B0021DF70",44.979,16.7091,"","","Prijedor","",25289617,"2024-03-04T14:38:43",3,"NO ERROR",20.74,40.3,991.09,0.84,1.2,1.2],
    [1277,363171,"Vazduh","Libelium","0004A30B0021DF70",44.979,16.7091,"","","Prijedor","",25290543,"2024-03-04T15:39:26",3,"NO ERROR",18.76,45.3,990.71,0.39,0.47,0.47],
    [1278,363171,"Vazduh","Libelium","0004A30B0021DF70",44.979,16.7091,"","","Prijedor","",25291471,"2024-03-04T16:40:08",3,"NO ERROR",17.08,47.6,990.71,0.45,0.62,0.62],
    [1279,363171,"Vazduh","Libelium","0004A30B0021DF70",44.979,16.7091,"","","Prijedor","",25292370,"2024-03-04T17:40:50",3,"NO ERROR",15.15,53.7,991.26,0.55,0.79,1.18],
    [1280,363171,"Vazduh","Libelium","0004A30B0021DF70",44.979,16.7091,"","","Prijedor","",25293157,"2024-03-04T18:41:32",3,"NO ERROR",13.86,54.1,991.61,0.35,0.71,0.88],
    [1281,363171,"Vazduh","Libelium","0004A30B0021DF70",44.979,16.7091,"","","Prijedor","",25293963,"2024-03-04T19:42:14",3,"NO ERROR",12.73,61.2,991.74,0.65,0.78,0.79],
    [1282,363171,"Vazduh","Libelium","0004A30B0021DF70",44.979,16.7091,"","","Prijedor","",25294881,"2024-03-04T20:42:56",3,"NO ERROR",11.53,65.4,992.02,0.38,0.56,0.65],
    [1283,363171,"Vazduh","Libelium","0004A30B0021DF70",44.979,16.7091,"","","Prijedor","",25295717,"2024-03-04T21:43:38",3,"NO ERROR",10.69,71.4,992.59,1.1,1.47,1.49],
    [1284,363171,"Vazduh","Libelium","0004A30B0021DF70",44.979,16.7091,"","","Prijedor","",25296537,"2024-03-04T22:44:20",3,"NO ERROR",9.31,83,992.73,0.72,1.12,1.29],
    [1285,363171,"Vazduh","Libelium","0004A30B0021DF70",44.979,16.7091,"","","Prijedor","",25297374,"2024-03-04T23:45:02",3,"NO ERROR",7.6,93.5,992.91,0.52,1.01,2.7],
    [1286,363171,"Vazduh","Libelium","0004A30B0021DF70",44.979,16.7091,"","","Prijedor","",25298444,"2024-03-05T00:45:44",3,"NO ERROR",6.67,99.5,993.16,0.29,0.5,0.53],
    [1287,363171,"Vazduh","Libelium","0004A30B0021DF70",44.979,16.7091,"","","Prijedor","",25299309,"2024-03-05T01:46:26",3,"NO ERROR",5.64,100,993.64,0.48,0.67,0.68],
    [1288,363171,"Vazduh","Libelium","0004A30B0021DF70",44.979,16.7091,"","","Prijedor","",25300156,"2024-03-05T02:47:09",3,"NO ERROR",4.78,100,993.65,0.43,0.5,0.5],
    [1289,363171,"Vazduh","Libelium","0004A30B0021DF70",44.979,16.7091,"","","Prijedor","",25301011,"2024-03-05T03:47:51",3,"NO ERROR",3.59,100,994.34,0.34,0.39,0.39],
    [1290,363171,"Vazduh","Libelium","0004A30B0021DF70",44.979,16.7091,"","","Prijedor","",25301907,"2024-03-05T04:48:33",3,"NO ERROR",3.31,100,994.88,0.14,0.17,0.17],
    [1291,363171,"Vazduh","Libelium","0004A30B0021DF70",44.979,16.7091,"","","Prijedor","",25302777,"2024-03-05T05:49:21",3,"NO ERROR",3,100,995.42,1.09,1.55,1.57],
    [1292,363171,"Vazduh","Libelium","0004A30B0021DF70",44.979,16.7091,"","","Prijedor","",25303623,"2024-03-05T06:50:03",3,"NO ERROR",2.77,100,995.77,0.51,1.09,1.42],
    [1293,363171,"Vazduh","Libelium","0004A30B0021DF70",44.979,16.7091,"","","Prijedor","",25304484,"2024-03-05T07:50:45",3,"NO ERROR",5.9,100,996.16,0.59,1.01,1.16],
    [1294,363171,"Vazduh","Libelium","0004A30B0021DF70",44.979,16.7091,"","","Prijedor","",25305306,"2024-03-05T08:51:28",3,"NO ERROR",9.59,86.2,996.64,0.45,0.6,0.62],
    [1295,363171,"Vazduh","Libelium","0004A30B0021DF70",44.979,16.7091,"","","Prijedor","",25306164,"2024-03-05T09:52:10",3,"NO ERROR",13.7,73.9,996.65,1.03,1.31,1.31],
    [1296,363171,"Vazduh","Libelium","0004A30B0021DF70",44.979,16.7091,"","","Prijedor","",25307046,"2024-03-05T10:52:52",3,"NO ERROR",14.89,67.1,996.63,0.32,0.45,0.47],
    [1297,363171,"Vazduh","Libelium","0004A30B0021DF70",44.979,16.7091,"","","Prijedor","",25307984,"2024-03-05T11:53:40",3,"NO ERROR",17.01,61,996.35,0.42,0.54,0.55],
    [1298,363171,"Vazduh","Libelium","0004A30B0021DF70",44.979,16.7091,"","","Prijedor","",25308967,"2024-03-05T12:54:22",3,"NO ERROR",18.39,54.6,996.04,0.65,0.95,0.95],
    [1299,363171,"Vazduh","Libelium","0004A30B0021DF70",44.979,16.7091,"","","Prijedor","",25309894,"2024-03-05T13:55:04",3,"NO ERROR",19.73,48.6,995.79,0.32,0.45,0.46],
    [1300,363171,"Vazduh","Libelium","0004A30B0021DF70",44.979,16.7091,"","","Prijedor","",25310763,"2024-03-05T14:55:46",3,"NO ERROR",20.15,48.6,995.76,0.39,0.58,0.61],
    [1301,363171,"Vazduh","Libelium","0004A30B0021DF70",44.979,16.7091,"","","Prijedor","",25311662,"2024-03-05T15:56:34",3,"NO ERROR",17.88,51.8,996.11,0.95,1.36,1.4],
    [1302,363171,"Vazduh","Libelium","0004A30B0021DF70",44.979,16.7091,"","","Prijedor","",25312573,"2024-03-05T16:57:16",3,"NO ERROR",16.75,56.6,996.64,0.67,1.34,3.34],
    [1303,363171,"Vazduh","Libelium","0004A30B0021DF70",44.979,16.7091,"","","Prijedor","",25313390,"2024-03-05T17:57:58",3,"NO ERROR",14.72,65.7,997.28,0.5,0.71,0.8],
    [1304,363171,"Vazduh","Libelium","0004A30B0021DF70",44.979,16.7091,"","","Prijedor","",25314173,"2024-03-05T18:58:46",3,"NO ERROR",13.59,68.5,998.12,1.26,1.77,2.38],
    [1305,363171,"Vazduh","Libelium","0004A30B0021DF70",44.979,16.7091,"","","Prijedor","",25315018,"2024-03-05T19:59:28",3,"NO ERROR",11.99,77.1,998.63,1.29,1.69,1.72],
    [1306,363171,"Vazduh","Libelium","0004A30B0021DF70",44.979,16.7091,"","","Prijedor","",25315841,"2024-03-05T21:00:10",3,"NO ERROR",10.18,89,998.95,1.36,2.09,2.19],
    [1307,363171,"Vazduh","Libelium","0004A30B0021DF70",44.979,16.7091,"","","Prijedor","",25316656,"2024-03-05T22:00:53",3,"NO ERROR",8.99,97.5,999.12,0.62,0.84,0.86],
    [1308,363171,"Vazduh","Libelium","0004A30B0021DF70",44.979,16.7091,"","","Prijedor","",25317470,"2024-03-05T23:01:35",3,"NO ERROR",7.34,100,999.43,1.06,1.42,1.43],
    [1309,363171,"Vazduh","Libelium","0004A30B0021DF70",44.979,16.7091,"","","Prijedor","",25318485,"2024-03-06T00:02:17",3,"NO ERROR",6.87,100,999.49,0.89,1.11,1.12],
    [1310,363171,"Vazduh","Libelium","0004A30B0021DF70",44.979,16.7091,"","","Prijedor","",25319476,"2024-03-06T01:02:59",3,"NO ERROR",6.12,100,999.83,0.47,0.5,0.5],
    [1311,363171,"Vazduh","Libelium","0004A30B0021DF70",44.979,16.7091,"","","Prijedor","",25320343,"2024-03-06T02:03:41",3,"NO ERROR",5.35,100,1000.07,0.91,1.15,1.16],
    [1312,363171,"Vazduh","Libelium","0004A30B0021DF70",44.979,16.7091,"","","Prijedor","",25321134,"2024-03-06T03:04:23",3,"NO ERROR",5.08,100,1000.17,0.35,0.42,0.42],
    [1313,363171,"Vazduh","Libelium","0004A30B0021DF70",44.979,16.7091,"","","Prijedor","",25321946,"2024-03-06T04:05:11",3,"NO ERROR",3.54,100,1000.18,1.41,1.82,1.83],
    [1314,363171,"Vazduh","Libelium","0004A30B0021DF70",44.979,16.7091,"","","Prijedor","",25322833,"2024-03-06T05:05:53",3,"NO ERROR",3.78,100,1000.29,0.8,1.02,1.02],
    [1315,363171,"Vazduh","Libelium","0004A30B0021DF70",44.979,16.7091,"","","Prijedor","",25323702,"2024-03-06T06:06:36",3,"NO ERROR",2.58,100,1000.38,1.31,1.66,1.67],
    [1316,363171,"Vazduh","Libelium","0004A30B0021DF70",44.979,16.7091,"","","Prijedor","",25324527,"2024-03-06T07:07:18",3,"NO ERROR",3.93,100,1000.81,0.9,1.33,1.37],
    [1317,363171,"Vazduh","Libelium","0004A30B0021DF70",44.979,16.7091,"","","Prijedor","",25325439,"2024-03-06T08:08:00",3,"NO ERROR",6.37,100,1000.9,0.68,1.24,2.05],
    [1318,363171,"Vazduh","Libelium","0004A30B0021DF70",44.979,16.7091,"","","Prijedor","",25326270,"2024-03-06T09:08:42",3,"NO ERROR",12.83,77.5,1000.73,0.51,0.64,0.64],
    [1319,363171,"Vazduh","Libelium","0004A30B0021DF70",44.979,16.7091,"","","Prijedor","",25327048,"2024-03-06T10:09:24",3,"NO ERROR",15.51,71.7,1000.55,0.58,0.72,0.72],
    [1320,363171,"Vazduh","Libelium","0004A30B0021DF70",44.979,16.7091,"","","Prijedor","",25327942,"2024-03-06T11:10:06",3,"NO ERROR",15.08,70.1,1000.33,0.71,0.92,0.93],
    [1321,363171,"Vazduh","Libelium","0004A30B0021DF70",44.979,16.7091,"","","Prijedor","",25328883,"2024-03-06T12:10:48",3,"NO ERROR",17.44,64.2,999.39,0.72,0.93,0.94],
    [1322,363171,"Vazduh","Libelium","0004A30B0021DF70",44.979,16.7091,"","","Prijedor","",25329843,"2024-03-06T13:11:30",3,"NO ERROR",18.26,57.3,998.44,0.11,0.22,0.31],
    [1323,363171,"Vazduh","Libelium","0004A30B0021DF70",44.979,16.7091,"","","Prijedor","",25330698,"2024-03-06T14:12:19",3,"NO ERROR",16.21,63,998.18,0.29,0.39,0.39],
    [1324,363171,"Vazduh","Libelium","0004A30B0021DF70",44.979,16.7091,"","","Prijedor","",25331625,"2024-03-06T15:13:01",3,"NO ERROR",11.35,84.7,998.93,0.07,0.08,0.08],
    [1325,363171,"Vazduh","Libelium","0004A30B0021DF70",44.979,16.7091,"","","Prijedor","",25332476,"2024-03-06T16:13:43",3,"NO ERROR",9.61,97.1,1000,0.18,0.54,0.78],
    [1326,363171,"Vazduh","Libelium","0004A30B0021DF70",44.979,16.7091,"","","Prijedor","",25333353,"2024-03-06T17:14:31",3,"NO ERROR",7.56,100,1000.86,0.59,0.72,0.73],
    [1327,363171,"Vazduh","Libelium","0004A30B0021DF70",44.979,16.7091,"","","Prijedor","",25334125,"2024-03-06T18:15:13",3,"NO ERROR",7.28,100,1001,0.03,0.05,0.05],
    [1328,363171,"Vazduh","Libelium","0004A30B0021DF70",44.979,16.7091,"","","Prijedor","",25334882,"2024-03-06T19:15:55",3,"NO ERROR",6.6,100,1001.22,0.02,0.02,0.02],
    [1329,363171,"Vazduh","Libelium","0004A30B0021DF70",44.979,16.7091,"","","Prijedor","",25335734,"2024-03-06T20:16:37",3,"NO ERROR",6.3,100,1000.88,0.29,0.36,0.36],
    [1330,363171,"Vazduh","Libelium","0004A30B0021DF70",44.979,16.7091,"","","Prijedor","",25336559,"2024-03-06T21:17:19",3,"NO ERROR",6.39,100,1000.81,0.1,0.1,0.1],
    [1331,363171,"Vazduh","Libelium","0004A30B0021DF70",44.979,16.7091,"","","Prijedor","",25337364,"2024-03-06T22:18:07",3,"NO ERROR",6.67,100,1000.73,0.03,0.03,0.03],
    [1332,363171,"Vazduh","Libelium","0004A30B0021DF70",44.979,16.7091,"","","Prijedor","",25338204,"2024-03-06T23:18:55",3,"NO ERROR",6.75,100,1000.79,0.48,0.61,0.61],
    [1333,363171,"Vazduh","Libelium","0004A30B0021DF70",44.979,16.7091,"","","Prijedor","",25339249,"2024-03-07T00:19:37",3,"NO ERROR",6.6,100,1000.51,0.1,0.16,0.18],
    [1334,363171,"Vazduh","Libelium","0004A30B0021DF70",44.979,16.7091,"","","Prijedor","",25340151,"2024-03-07T01:20:20",3,"NO ERROR",6.78,100,1000.38,0.43,0.52,0.52],
    [1335,363171,"Vazduh","Libelium","0004A30B0021DF70",44.979,16.7091,"","","Prijedor","",25341010,"2024-03-07T02:21:02",3,"NO ERROR",7.33,100,1000.34,0.75,0.89,0.9],
    [1336,363171,"Vazduh","Libelium","0004A30B0021DF70",44.979,16.7091,"","","Prijedor","",25341845,"2024-03-07T03:21:50",3,"NO ERROR",7.32,100,1000.32,0.44,0.52,0.52],
    [1337,363171,"Vazduh","Libelium","0004A30B0021DF70",44.979,16.7091,"","","Prijedor","",25342764,"2024-03-07T04:22:32",3,"NO ERROR",7.34,100,1000.54,0.48,0.52,0.52],
    [1338,363171,"Vazduh","Libelium","0004A30B0021DF70",44.979,16.7091,"","","Prijedor","",25343667,"2024-03-07T05:23:14",3,"NO ERROR",7.33,100,1000.73,0.75,0.89,0.9],
    [1339,363171,"Vazduh","Libelium","0004A30B0021DF70",44.979,16.7091,"","","Prijedor","",25344501,"2024-03-07T06:23:56",3,"NO ERROR",6.81,100,1001.27,0.26,0.32,0.32],
    [1340,363171,"Vazduh","Libelium","0004A30B0021DF70",44.979,16.7091,"","","Prijedor","",25345299,"2024-03-07T07:24:38",3,"NO ERROR",6.77,100,1001.84,0.49,0.59,0.59],
    [1341,363171,"Vazduh","Libelium","0004A30B0021DF70",44.979,16.7091,"","","Prijedor","",25346207,"2024-03-07T08:25:20",3,"NO ERROR",6.7,100,1002.22,0.3,0.38,0.39],
    [1342,363171,"Vazduh","Libelium","0004A30B0021DF70",44.979,16.7091,"","","Prijedor","",25347023,"2024-03-07T09:26:02",3,"NO ERROR",6.2,100,1002.57,0.81,0.99,0.99],
    [1343,363171,"Vazduh","Libelium","0004A30B0021DF70",44.979,16.7091,"","","Prijedor","",25347797,"2024-03-07T10:26:45",3,"NO ERROR",6.02,100,1003.14,0.76,0.82,0.82],
    [1344,363171,"Vazduh","Libelium","0004A30B0021DF70",44.979,16.7091,"","","Prijedor","",25348671,"2024-03-07T11:27:27",3,"NO ERROR",5.61,100,1003.68,0.28,0.3,0.3],
    [1345,363171,"Vazduh","Libelium","0004A30B0021DF70",44.979,16.7091,"","","Prijedor","",25349634,"2024-03-07T12:28:09",3,"NO ERROR",5.38,100,1003.52,1.01,1.13,1.14],
    [1346,363171,"Vazduh","Libelium","0004A30B0021DF70",44.979,16.7091,"","","Prijedor","",25350477,"2024-03-07T13:28:51",3,"NO ERROR",6.77,100,1003.14,0.88,1.05,1.05],
    [1347,363171,"Vazduh","Libelium","0004A30B0021DF70",44.979,16.7091,"","","Prijedor","",25351331,"2024-03-07T14:29:33",3,"NO ERROR",6.97,100,1003.23,0.54,0.64,0.64],
    [1348,363171,"Vazduh","Libelium","0004A30B0021DF70",44.979,16.7091,"","","Prijedor","",25352157,"2024-03-07T15:30:15",3,"NO ERROR",6.83,100,1003.31,0.94,0.98,0.98],
    [1349,363171,"Vazduh","Libelium","0004A30B0021DF70",44.979,16.7091,"","","Prijedor","",25353023,"2024-03-07T16:30:57",3,"NO ERROR",6.88,100,1003.28,0.73,0.84,0.84],
    [1350,363171,"Vazduh","Libelium","0004A30B0021DF70",44.979,16.7091,"","","Prijedor","",25353861,"2024-03-07T17:31:39",3,"NO ERROR",6.75,100,1003.36,1.26,1.44,1.44],
    [1351,363171,"Vazduh","Libelium","0004A30B0021DF70",44.979,16.7091,"","","Prijedor","",25354622,"2024-03-07T18:32:21",3,"NO ERROR",6.62,100,1003.74,1.83,2.25,2.27],
    [1352,363171,"Vazduh","Libelium","0004A30B0021DF70",44.979,16.7091,"","","Prijedor","",25355367,"2024-03-07T19:33:04",3,"NO ERROR",6.52,100,1004.07,1.82,2.27,2.94],
    [1353,363171,"Vazduh","Libelium","0004A30B0021DF70",44.979,16.7091,"","","Prijedor","",25356249,"2024-03-07T20:33:52",3,"NO ERROR",6.27,100,1004.22,2.19,2.6,2.61],
    [1354,363171,"Vazduh","Libelium","0004A30B0021DF70",44.979,16.7091,"","","Prijedor","",25357065,"2024-03-07T21:34:34",3,"NO ERROR",6,100,1004.45,1,1.22,1.22],
    [1355,363171,"Vazduh","Libelium","0004A30B0021DF70",44.979,16.7091,"","","Prijedor","",25357846,"2024-03-07T22:35:16",3,"NO ERROR",5.79,100,1004.45,0.92,1.04,1.04],
    [1356,363171,"Vazduh","Libelium","0004A30B0021DF70",44.979,16.7091,"","","Prijedor","",25358674,"2024-03-07T23:35:58",3,"NO ERROR",5.92,100,1004.37,0.37,0.44,0.44],
    [1357,363171,"Vazduh","Libelium","0004A30B0021DF70",44.979,16.7091,"","","Prijedor","",25359816,"2024-03-08T00:36:40",3,"NO ERROR",5.68,100,1004.25,0.24,0.29,0.29],
    [1358,363171,"Vazduh","Libelium","0004A30B0021DF70",44.979,16.7091,"","","Prijedor","",25360665,"2024-03-08T01:37:22",3,"NO ERROR",5.72,100,1004.4,0.2,0.22,0.22],
    [1359,363171,"Vazduh","Libelium","0004A30B0021DF70",44.979,16.7091,"","","Prijedor","",25361481,"2024-03-08T02:38:11",3,"NO ERROR",5.64,100,1003.92,0.79,0.91,0.92],
    [1360,363171,"Vazduh","Libelium","0004A30B0021DF70",44.979,16.7091,"","","Prijedor","",25362334,"2024-03-08T03:38:53",3,"NO ERROR",5.52,100,1003.87,0.67,0.77,0.77],
    [1361,363171,"Vazduh","Libelium","0004A30B0021DF70",44.979,16.7091,"","","Prijedor","",25363243,"2024-03-08T04:39:35",3,"NO ERROR",5.31,100,1003.84,0.55,0.61,0.61],
    [1362,363171,"Vazduh","Libelium","0004A30B0021DF70",44.979,16.7091,"","","Prijedor","",25364106,"2024-03-08T05:40:17",3,"NO ERROR",5.44,100,1003.84,0.46,0.54,0.55],
    [1363,363171,"Vazduh","Libelium","0004A30B0021DF70",44.979,16.7091,"","","Prijedor","",25364973,"2024-03-08T06:40:59",3,"NO ERROR",5.76,100,1004.14,0.34,0.44,0.45],
    [1364,363171,"Vazduh","Libelium","0004A30B0021DF70",44.979,16.7091,"","","Prijedor","",25365856,"2024-03-08T07:41:41",3,"NO ERROR",5.76,100,1004.51,0.34,0.39,0.39],
    [1365,363171,"Vazduh","Libelium","0004A30B0021DF70",44.979,16.7091,"","","Prijedor","",25366739,"2024-03-08T08:42:23",3,"NO ERROR",5.76,100,1004.65,1.14,1.23,1.23],
    [1366,363171,"Vazduh","Libelium","0004A30B0021DF70",44.979,16.7091,"","","Prijedor","",25367578,"2024-03-08T09:43:05",3,"NO ERROR",6.3,100,1004.86,1.45,1.77,1.78],
    [1367,363171,"Vazduh","Libelium","0004A30B0021DF70",44.979,16.7091,"","","Prijedor","",25368355,"2024-03-08T10:43:47",3,"NO ERROR",7.08,100,1004.66,0.24,0.27,0.28],
    [1368,363171,"Vazduh","Libelium","0004A30B0021DF70",44.979,16.7091,"","","Prijedor","",25369213,"2024-03-08T11:44:30",3,"NO ERROR",8.67,100,1004.68,0.44,0.51,0.51],
    [1369,363171,"Vazduh","Libelium","0004A30B0021DF70",44.979,16.7091,"","","Prijedor","",25370189,"2024-03-08T12:45:12",3,"NO ERROR",8.82,100,1004.22,0.07,0.07,0.07],
    [1370,363171,"Vazduh","Libelium","0004A30B0021DF70",44.979,16.7091,"","","Prijedor","",25371006,"2024-03-08T13:45:54",3,"NO ERROR",9.76,98.4,1003.72,0.39,0.43,0.43],
    [1371,363171,"Vazduh","Libelium","0004A30B0021DF70",44.979,16.7091,"","","Prijedor","",25371860,"2024-03-08T14:46:36",3,"NO ERROR",9.83,100,1003.5,0.36,0.5,0.53],
    [1372,363171,"Vazduh","Libelium","0004A30B0021DF70",44.979,16.7091,"","","Prijedor","",25372720,"2024-03-08T15:47:18",3,"NO ERROR",11.98,79,1002.78,0.4,0.42,0.42],
    [1373,363171,"Vazduh","Libelium","0004A30B0021DF70",44.979,16.7091,"","","Prijedor","",25373617,"2024-03-08T16:48:00",3,"NO ERROR",9.43,95,1002.76,0.21,0.29,0.3],
    [1374,363171,"Vazduh","Libelium","0004A30B0021DF70",44.979,16.7091,"","","Prijedor","",25374415,"2024-03-08T17:48:42",3,"NO ERROR",9.25,97,1002.94,0.28,0.38,0.4],
    [1375,363171,"Vazduh","Libelium","0004A30B0021DF70",44.979,16.7091,"","","Prijedor","",25375162,"2024-03-08T18:49:24",3,"NO ERROR",8.61,100,1002.7,0.1,0.11,0.11],
    [1376,363171,"Vazduh","Libelium","0004A30B0021DF70",44.979,16.7091,"","","Prijedor","",25375944,"2024-03-08T19:50:06",3,"NO ERROR",7.66,100,1002.7,0.45,0.5,0.5],
    [1377,363171,"Vazduh","Libelium","0004A30B0021DF70",44.979,16.7091,"","","Prijedor","",25376751,"2024-03-08T20:50:48",3,"NO ERROR",8.08,100,1002.66,0.95,1.24,1.39],
    [1378,363171,"Vazduh","Libelium","0004A30B0021DF70",44.979,16.7091,"","","Prijedor","",25377540,"2024-03-08T21:51:37",3,"NO ERROR",7.38,100,1002.35,0.67,0.82,0.83],
    [1379,363171,"Vazduh","Libelium","0004A30B0021DF70",44.979,16.7091,"","","Prijedor","",25378343,"2024-03-08T22:52:19",3,"NO ERROR",5.81,100,1002.11,1.59,1.83,1.84],
    [1380,363171,"Vazduh","Libelium","0004A30B0021DF70",44.979,16.7091,"","","Prijedor","",25379149,"2024-03-08T23:53:01",3,"NO ERROR",4.94,100,1001.81,1.1,1.34,1.35],
    [1381,363171,"Vazduh","Libelium","0004A30B0021DF70",44.979,16.7091,"","","Prijedor","",25380188,"2024-03-09T00:53:43",3,"NO ERROR",5.08,100,1001.54,0.47,0.55,0.55],
    [1382,363171,"Vazduh","Libelium","0004A30B0021DF70",44.979,16.7091,"","","Prijedor","",25380970,"2024-03-09T01:54:25",3,"NO ERROR",4.93,100,1000.96,1.35,1.53,1.53],
    [1383,363171,"Vazduh","Libelium","0004A30B0021DF70",44.979,16.7091,"","","Prijedor","",25381694,"2024-03-09T02:55:07",3,"NO ERROR",4.56,100,1000.25,1.86,2.16,2.16],
    [1384,363171,"Vazduh","Libelium","0004A30B0021DF70",44.979,16.7091,"","","Prijedor","",25382532,"2024-03-09T03:55:49",3,"NO ERROR",4.53,100,999.84,1.66,1.81,1.81],
    [1385,363171,"Vazduh","Libelium","0004A30B0021DF70",44.979,16.7091,"","","Prijedor","",25383438,"2024-03-09T04:56:31",3,"NO ERROR",5.08,100,999.43,0.98,1.24,1.73],
    [1386,363171,"Vazduh","Libelium","0004A30B0021DF70",44.979,16.7091,"","","Prijedor","",25384242,"2024-03-09T05:57:13",3,"NO ERROR",4.91,100,999.27,1.33,1.65,1.82],
    [1387,363171,"Vazduh","Libelium","0004A30B0021DF70",44.979,16.7091,"","","Prijedor","",25385055,"2024-03-09T06:57:56",3,"NO ERROR",5.2,100,999.35,0.9,1.01,1.01],
    [1388,363171,"Vazduh","Libelium","0004A30B0021DF70",44.979,16.7091,"","","Prijedor","",25385885,"2024-03-09T07:58:38",3,"NO ERROR",6.32,100,999.28,0.72,0.9,0.91],
    [1389,363171,"Vazduh","Libelium","0004A30B0021DF70",44.979,16.7091,"","","Prijedor","",25386724,"2024-03-09T08:59:20",3,"NO ERROR",8.18,100,999.39,1.16,1.25,1.25],
    [1390,363171,"Vazduh","Libelium","0004A30B0021DF70",44.979,16.7091,"","","Prijedor","",25387477,"2024-03-09T10:00:02",3,"NO ERROR",10.51,100,998.86,0.22,0.27,0.27],
    [1391,363171,"Vazduh","Libelium","0004A30B0021DF70",44.979,16.7091,"","","Prijedor","",25388355,"2024-03-09T11:00:44",3,"NO ERROR",13.66,88.1,998.29,0.39,0.45,0.45],
    [1392,363171,"Vazduh","Libelium","0004A30B0021DF70",44.979,16.7091,"","","Prijedor","",25389235,"2024-03-09T12:01:26",3,"NO ERROR",15.57,68.1,997.68,0.13,0.14,0.14],
    [1393,363171,"Vazduh","Libelium","0004A30B0021DF70",44.979,16.7091,"","","Prijedor","",25390235,"2024-03-09T13:02:08",3,"NO ERROR",14.49,73.4,997.11,0.49,0.72,0.75],
    [1394,363171,"Vazduh","Libelium","0004A30B0021DF70",44.979,16.7091,"","","Prijedor","",25391151,"2024-03-09T14:02:50",3,"NO ERROR",13.44,85.4,997.17,0.45,0.54,0.54],
    [1395,363171,"Vazduh","Libelium","0004A30B0021DF70",44.979,16.7091,"","","Prijedor","",25391998,"2024-03-09T15:03:32",3,"NO ERROR",11.68,100,997.27,1.39,1.56,1.56],
    [1396,363171,"Vazduh","Libelium","0004A30B0021DF70",44.979,16.7091,"","","Prijedor","",25392862,"2024-03-09T16:04:14",3,"NO ERROR",11.1,100,996.74,1.39,1.55,1.55],
    [1397,363171,"Vazduh","Libelium","0004A30B0021DF70",44.979,16.7091,"","","Prijedor","",25393700,"2024-03-09T17:04:57",3,"NO ERROR",10.62,100,996.67,2.92,3.33,3.33],
    [1398,363171,"Vazduh","Libelium","0004A30B0021DF70",44.979,16.7091,"","","Prijedor","",25394481,"2024-03-09T18:05:45",3,"NO ERROR",10.35,100,996.88,2.74,3.13,3.14],
    [1399,363171,"Vazduh","Libelium","0004A30B0021DF70",44.979,16.7091,"","","Prijedor","",25395234,"2024-03-09T19:06:27",3,"NO ERROR",10.45,100,996.85,1.31,1.54,1.54],
    [1400,363171,"Vazduh","Libelium","0004A30B0021DF70",44.979,16.7091,"","","Prijedor","",25396095,"2024-03-09T20:07:09",3,"NO ERROR",10,100,996.18,1.09,1.55,1.7],
    [1401,363171,"Vazduh","Libelium","0004A30B0021DF70",44.979,16.7091,"","","Prijedor","",25396865,"2024-03-09T21:07:51",3,"NO ERROR",9.96,100,996.35,1.26,1.49,1.5],
    [1402,363171,"Vazduh","Libelium","0004A30B0021DF70",44.979,16.7091,"","","Prijedor","",25397689,"2024-03-09T22:08:33",3,"NO ERROR",10.22,100,996.04,0.27,0.33,0.33],
    [1403,363171,"Vazduh","Libelium","0004A30B0021DF70",44.979,16.7091,"","","Prijedor","",25398525,"2024-03-09T23:09:15",3,"NO ERROR",9.65,100,995.75,0.86,1.03,1.03],
    [1404,363171,"Vazduh","Libelium","0004A30B0021DF70",44.979,16.7091,"","","Prijedor","",25399546,"2024-03-10T00:10:03",3,"NO ERROR",9.71,100,995.86,0.82,0.94,0.95],
    [1405,363171,"Vazduh","Libelium","0004A30B0021DF70",44.979,16.7091,"","","Prijedor","",25401254,"2024-03-10T02:11:33",3,"NO ERROR",8,100,995.24,2.51,2.83,2.84],
    [1406,363171,"Vazduh","Libelium","0004A30B0021DF70",44.979,16.7091,"","","Prijedor","",25402017,"2024-03-10T03:12:28",3,"NO ERROR",7.36,100,995.02,4.37,5.12,5.3],
    [1407,363171,"Vazduh","Libelium","0004A30B0021DF70",44.979,16.7091,"","","Prijedor","",25402887,"2024-03-10T04:13:10",3,"NO ERROR",7.86,100,994.75,0.84,1.04,1.15],
    [1408,363171,"Vazduh","Libelium","0004A30B0021DF70",44.979,16.7091,"","","Prijedor","",25403763,"2024-03-10T05:14:04",3,"NO ERROR",7.08,100,994.58,3.18,3.5,3.5],
    [1409,363171,"Vazduh","Libelium","0004A30B0021DF70",44.979,16.7091,"","","Prijedor","",25404579,"2024-03-10T06:14:46",3,"NO ERROR",6.91,100,994.29,5.95,6.87,6.88],
    [1410,363171,"Vazduh","Libelium","0004A30B0021DF70",44.979,16.7091,"","","Prijedor","",25405413,"2024-03-10T07:15:28",3,"NO ERROR",7.54,100,993.99,4.53,5.17,5.18],
    [1411,363171,"Vazduh","Libelium","0004A30B0021DF70",44.979,16.7091,"","","Prijedor","",25406276,"2024-03-10T08:16:10",3,"NO ERROR",8.39,100,993.61,3.21,3.76,3.77],
    [1412,363171,"Vazduh","Libelium","0004A30B0021DF70",44.979,16.7091,"","","Prijedor","",25407105,"2024-03-10T09:16:52",3,"NO ERROR",9.35,100,993.5,1.45,1.57,1.57],
    [1413,363171,"Vazduh","Libelium","0004A30B0021DF70",44.979,16.7091,"","","Prijedor","",25407887,"2024-03-10T10:17:34",3,"NO ERROR",13.91,100,993.18,0.31,0.4,0.4],
    [1414,363171,"Vazduh","Libelium","0004A30B0021DF70",44.979,16.7091,"","","Prijedor","",25408785,"2024-03-10T11:18:16",3,"NO ERROR",15.22,100,992.46,0.62,0.88,0.93],
    [1415,363171,"Vazduh","Libelium","0004A30B0021DF70",44.979,16.7091,"","","Prijedor","",25409724,"2024-03-10T12:18:58",3,"NO ERROR",18.03,76.8,991.27,0.51,0.68,0.69],
    [1416,363171,"Vazduh","Libelium","0004A30B0021DF70",44.979,16.7091,"","","Prijedor","",25410666,"2024-03-10T13:19:47",3,"NO ERROR",19.88,61.6,990.75,0.72,1.06,4.44],
    [1417,363171,"Vazduh","Libelium","0004A30B0021DF70",44.979,16.7091,"","","Prijedor","",25411588,"2024-03-10T14:20:28",3,"NO ERROR",19.84,58.3,989.72,0.89,1.48,1.7],
    [1418,363171,"Vazduh","Libelium","0004A30B0021DF70",44.979,16.7091,"","","Prijedor","",25412449,"2024-03-10T15:21:11",3,"NO ERROR",19.49,58.4,989.53,0.89,1.2,1.22],
    [1419,363171,"Vazduh","Libelium","0004A30B0021DF70",44.979,16.7091,"","","Prijedor","",25413298,"2024-03-10T16:21:53",3,"NO ERROR",18.62,59.2,988.33,0.73,0.98,1.01],
    [1420,363171,"Vazduh","Libelium","0004A30B0021DF70",44.979,16.7091,"","","Prijedor","",25414094,"2024-03-10T17:22:35",3,"NO ERROR",17.09,65.2,988.5,0.89,1.17,1.17],
    [1421,363171,"Vazduh","Libelium","0004A30B0021DF70",44.979,16.7091,"","","Prijedor","",25414889,"2024-03-10T18:23:17",3,"NO ERROR",16.49,67.1,988.39,1.34,1.81,1.84],
    [1422,363171,"Vazduh","Libelium","0004A30B0021DF70",44.979,16.7091,"","","Prijedor","",25415611,"2024-03-10T19:23:59",3,"NO ERROR",16.88,63.3,988.14,0.5,0.69,0.81],
    [1423,363171,"Vazduh","Libelium","0004A30B0021DF70",44.979,16.7091,"","","Prijedor","",25416525,"2024-03-10T20:24:41",3,"NO ERROR",16.63,64.5,988.13,0.73,1.03,1.05],
    [1424,363171,"Vazduh","Libelium","0004A30B0021DF70",44.979,16.7091,"","","Prijedor","",25417375,"2024-03-10T21:25:23",3,"NO ERROR",16.84,65.7,988.68,0.43,0.54,0.56],
    [1425,363171,"Vazduh","Libelium","0004A30B0021DF70",44.979,16.7091,"","","Prijedor","",25418203,"2024-03-10T22:26:11",3,"NO ERROR",16.5,68.5,989.01,0.77,1.07,1.07],
    [1426,363171,"Vazduh","Libelium","0004A30B0021DF70",44.979,16.7091,"","","Prijedor","",25419058,"2024-03-10T23:26:53",3,"NO ERROR",16.55,66.8,989.19,0.34,0.42,0.42],
    [1427,363171,"Vazduh","Libelium","0004A30B0021DF70",44.979,16.7091,"","","Prijedor","",25420154,"2024-03-11T00:27:35",3,"NO ERROR",17.28,64.1,990.02,0.32,0.44,0.46],
    [1428,363171,"Vazduh","Libelium","0004A30B0021DF70",44.979,16.7091,"","","Prijedor","",25421038,"2024-03-11T01:28:17",3,"NO ERROR",10.2,100,991.7,0.53,1.03,1.23],
    [1429,363171,"Vazduh","Libelium","0004A30B0021DF70",44.979,16.7091,"","","Prijedor","",25421896,"2024-03-11T02:28:59",3,"NO ERROR",9.98,100,991.25,0.07,0.12,0.12],
    [1430,363171,"Vazduh","Libelium","0004A30B0021DF70",44.979,16.7091,"","","Prijedor","",25422590,"2024-03-11T03:29:41",3,"NO ERROR",9.71,100,991.19,0.22,0.62,1.48],
    [1431,363171,"Vazduh","Libelium","0004A30B0021DF70",44.979,16.7091,"","","Prijedor","",25423475,"2024-03-11T04:30:24",3,"NO ERROR",9.57,100,990.72,1.11,1.37,1.37],
    [1432,363171,"Vazduh","Libelium","0004A30B0021DF70",44.979,16.7091,"","","Prijedor","",25424317,"2024-03-11T05:31:06",3,"NO ERROR",9.63,100,990.7,0.54,0.69,0.71],
    [1433,363171,"Vazduh","Libelium","0004A30B0021DF70",44.979,16.7091,"","","Prijedor","",25425155,"2024-03-11T06:31:48",3,"NO ERROR",9.48,100,990.08,0.59,0.72,0.73],
    [1434,363171,"Vazduh","Libelium","0004A30B0021DF70",44.979,16.7091,"","","Prijedor","",25425970,"2024-03-11T07:32:30",3,"NO ERROR",9.33,100,989.48,2.29,2.74,2.74],
    [1435,363171,"Vazduh","Libelium","0004A30B0021DF70",44.979,16.7091,"","","Prijedor","",25426868,"2024-03-11T08:33:12",3,"NO ERROR",9.48,100,989,1.99,2.25,2.26],
    [1436,363171,"Vazduh","Libelium","0004A30B0021DF70",44.979,16.7091,"","","Prijedor","",25427704,"2024-03-11T09:33:54",3,"NO ERROR",10.09,100,988.65,0.32,0.37,0.37],
    [1437,363171,"Vazduh","Libelium","0004A30B0021DF70",44.979,16.7091,"","","Prijedor","",25428467,"2024-03-11T10:34:36",3,"NO ERROR",9.82,100,988.84,0.69,0.75,0.75],
    [1438,363171,"Vazduh","Libelium","0004A30B0021DF70",44.979,16.7091,"","","Prijedor","",25429372,"2024-03-11T11:35:18",3,"NO ERROR",10.68,100,987.71,0.05,0.05,0.05],
    [1439,363171,"Vazduh","Libelium","0004A30B0021DF70",44.979,16.7091,"","","Prijedor","",25430374,"2024-03-11T12:36:06",3,"NO ERROR",11.61,100,987.36,0.08,0.11,0.11],
    [1440,363171,"Vazduh","Libelium","0004A30B0021DF70",44.979,16.7091,"","","Prijedor","",25431266,"2024-03-11T13:36:48",3,"NO ERROR",12.78,100,986.69,0,0,0],
    [1441,363171,"Vazduh","Libelium","0004A30B0021DF70",44.979,16.7091,"","","Prijedor","",25432189,"2024-03-11T14:37:31",3,"NO ERROR",12.25,100,986.71,0.02,0.06,0.07],
    [1442,363171,"Vazduh","Libelium","0004A30B0021DF70",44.979,16.7091,"","","Prijedor","",25433077,"2024-03-11T15:38:13",3,"NO ERROR",10.39,100,987.77,0,0,0],
    [1443,363171,"Vazduh","Libelium","0004A30B0021DF70",44.979,16.7091,"","","Prijedor","",25433986,"2024-03-11T16:38:55",3,"NO ERROR",10.49,100,988.67,0.04,0.08,0.09],
    [1444,363171,"Vazduh","Libelium","0004A30B0021DF70",44.979,16.7091,"","","Prijedor","",25434874,"2024-03-11T17:39:37",3,"NO ERROR",9.28,100,989.75,0.08,0.1,0.1],
    [1445,363171,"Vazduh","Libelium","0004A30B0021DF70",44.979,16.7091,"","","Prijedor","",25435641,"2024-03-11T18:40:19",3,"NO ERROR",8.52,100,990.67,0.02,0.02,0.02],
    [1446,363171,"Vazduh","Libelium","0004A30B0021DF70",44.979,16.7091,"","","Prijedor","",25436476,"2024-03-11T19:41:01",3,"NO ERROR",8.24,100,991.16,0.1,0.1,0.1],
    [1447,363171,"Vazduh","Libelium","0004A30B0021DF70",44.979,16.7091,"","","Prijedor","",25437392,"2024-03-11T20:41:43",3,"NO ERROR",7.82,100,991.35,0.07,0.1,0.1],
    [1448,363171,"Vazduh","Libelium","0004A30B0021DF70",44.979,16.7091,"","","Prijedor","",25438203,"2024-03-11T21:42:37",3,"NO ERROR",7.41,100,991.93,0.31,0.34,0.34],
    [1449,363171,"Vazduh","Libelium","0004A30B0021DF70",44.979,16.7091,"","","Prijedor","",25439027,"2024-03-11T22:43:19",3,"NO ERROR",6.87,100,992.44,0.05,0.08,0.08],
    [1450,363171,"Vazduh","Libelium","0004A30B0021DF70",44.979,16.7091,"","","Prijedor","",25439837,"2024-03-11T23:44:01",3,"NO ERROR",7.91,100,992.85,0.31,0.39,0.4],
    [1451,363171,"Vazduh","Libelium","0004A30B0021DF70",44.979,16.7091,"","","Prijedor","",25440929,"2024-03-12T00:44:43",3,"NO ERROR",8.42,100,993.31,0.37,0.4,0.4],
    [1452,363171,"Vazduh","Libelium","0004A30B0021DF70",44.979,16.7091,"","","Prijedor","",25441793,"2024-03-12T01:45:26",3,"NO ERROR",8.93,100,993.71,0.14,0.21,0.21],
    [1453,363171,"Vazduh","Libelium","0004A30B0021DF70",44.979,16.7091,"","","Prijedor","",25442556,"2024-03-12T02:46:08",3,"NO ERROR",8.74,100,993.64,0.15,0.19,0.19],
    [1454,363171,"Vazduh","Libelium","0004A30B0021DF70",44.979,16.7091,"","","Prijedor","",25443365,"2024-03-12T03:46:50",3,"NO ERROR",8.59,100,993.49,0.08,0.11,0.11],
    [1455,363171,"Vazduh","Libelium","0004A30B0021DF70",44.979,16.7091,"","","Prijedor","",25444309,"2024-03-12T04:47:32",3,"NO ERROR",8.56,100,993.92,0.09,0.13,0.13],
    [1456,363171,"Vazduh","Libelium","0004A30B0021DF70",44.979,16.7091,"","","Prijedor","",25445163,"2024-03-12T05:48:14",3,"NO ERROR",8.19,100,994.17,0.34,0.42,0.42],
    [1457,363171,"Vazduh","Libelium","0004A30B0021DF70",44.979,16.7091,"","","Prijedor","",25446049,"2024-03-12T06:48:56",3,"NO ERROR",8.17,100,994.73,0.07,0.13,0.13],
    [1458,363171,"Vazduh","Libelium","0004A30B0021DF70",44.979,16.7091,"","","Prijedor","",25446919,"2024-03-12T07:49:44",3,"NO ERROR",8.7,100,995.5,0.18,0.23,0.24],
    [1459,363171,"Vazduh","Libelium","0004A30B0021DF70",44.979,16.7091,"","","Prijedor","",25447739,"2024-03-12T08:50:26",3,"NO ERROR",9.22,100,996.13,0.16,0.19,0.19],
    [1460,363171,"Vazduh","Libelium","0004A30B0021DF70",44.979,16.7091,"","","Prijedor","",25448510,"2024-03-12T09:51:08",3,"NO ERROR",9.41,100,996.72,0.03,0.05,0.05],
    [1461,363171,"Vazduh","Libelium","0004A30B0021DF70",44.979,16.7091,"","","Prijedor","",25449346,"2024-03-12T10:51:50",3,"NO ERROR",9.15,100,997.39,0.06,0.08,0.08],
    [1462,363171,"Vazduh","Libelium","0004A30B0021DF70",44.979,16.7091,"","","Prijedor","",25450195,"2024-03-12T11:52:32",3,"NO ERROR",10.73,100,997.77,0.14,0.16,0.16],
    [1463,363171,"Vazduh","Libelium","0004A30B0021DF70",44.979,16.7091,"","","Prijedor","",25451130,"2024-03-12T12:53:15",3,"NO ERROR",9.96,100,997.67,0.29,0.34,0.34],
    [1464,363171,"Vazduh","Libelium","0004A30B0021DF70",44.979,16.7091,"","","Prijedor","",25452029,"2024-03-12T13:53:57",3,"NO ERROR",10.39,100,998.04,0.11,0.16,0.16],
    [1465,363171,"Vazduh","Libelium","0004A30B0021DF70",44.979,16.7091,"","","Prijedor","",25452868,"2024-03-12T14:54:39",3,"NO ERROR",10.43,100,998.3,0.05,0.05,0.05],
    [1466,363171,"Vazduh","Libelium","0004A30B0021DF70",44.979,16.7091,"","","Prijedor","",25453700,"2024-03-12T15:55:21",3,"NO ERROR",10.58,100,998.58,0.16,0.18,0.18],
    [1467,363171,"Vazduh","Libelium","0004A30B0021DF70",44.979,16.7091,"","","Prijedor","",25454586,"2024-03-12T16:56:03",3,"NO ERROR",10.31,100,998.84,0.02,0.02,0.02],
    [1468,363171,"Vazduh","Libelium","0004A30B0021DF70",44.979,16.7091,"","","Prijedor","",25455363,"2024-03-12T17:56:45",3,"NO ERROR",9.88,100,999.14,0,0.04,0.06],
    [1469,363171,"Vazduh","Libelium","0004A30B0021DF70",44.979,16.7091,"","","Prijedor","",25456102,"2024-03-12T18:57:27",3,"NO ERROR",9.58,100,999.55,0.41,0.44,0.44],
    [1470,363171,"Vazduh","Libelium","0004A30B0021DF70",44.979,16.7091,"","","Prijedor","",25456913,"2024-03-12T19:58:09",3,"NO ERROR",8.93,100,999.85,0.08,0.09,0.09],
    [1471,363171,"Vazduh","Libelium","0004A30B0021DF70",44.979,16.7091,"","","Prijedor","",25457731,"2024-03-12T20:58:51",3,"NO ERROR",8.84,100,1000.5,0.06,0.08,0.08],
    [1472,363171,"Vazduh","Libelium","0004A30B0021DF70",44.979,16.7091,"","","Prijedor","",25458543,"2024-03-12T21:59:40",3,"NO ERROR",8.45,100,1000.71,0.44,0.64,0.78],
    [1473,363171,"Vazduh","Libelium","0004A30B0021DF70",44.979,16.7091,"","","Prijedor","",25459366,"2024-03-12T23:00:21",3,"NO ERROR",8.33,100,1000.98,0.58,0.94,1.2],
    [1474,363171,"Vazduh","Libelium","0004A30B0021DF70",44.979,16.7091,"","","Prijedor","",25460313,"2024-03-13T00:01:04",3,"NO ERROR",8.1,100,1001.08,1.22,1.37,1.37],
    [1475,363171,"Vazduh","Libelium","0004A30B0021DF70",44.979,16.7091,"","","Prijedor","",25461336,"2024-03-13T01:01:46",3,"NO ERROR",7.83,100,1001.16,0.94,1.11,1.13],
    [1476,363171,"Vazduh","Libelium","0004A30B0021DF70",44.979,16.7091,"","","Prijedor","",25462270,"2024-03-13T02:02:28",3,"NO ERROR",8.1,100,1001.18,0.24,0.3,0.3],
    [1477,363171,"Vazduh","Libelium","0004A30B0021DF70",44.979,16.7091,"","","Prijedor","",25463149,"2024-03-13T03:03:10",3,"NO ERROR",8.1,100,1001.01,0.07,0.09,0.09],
    [1478,363171,"Vazduh","Libelium","0004A30B0021DF70",44.979,16.7091,"","","Prijedor","",25464057,"2024-03-13T04:03:52",3,"NO ERROR",7.78,100,1000.9,0.15,0.17,0.17],
    [1479,363171,"Vazduh","Libelium","0004A30B0021DF70",44.979,16.7091,"","","Prijedor","",25465051,"2024-03-13T05:04:34",3,"NO ERROR",7.42,100,1001.01,0.09,0.1,0.1],
    [1480,363171,"Vazduh","Libelium","0004A30B0021DF70",44.979,16.7091,"","","Prijedor","",25465908,"2024-03-13T06:05:16",3,"NO ERROR",6.09,100,1001.44,3.66,5.6,38.91],
    [1481,363171,"Vazduh","Libelium","0004A30B0021DF70",44.979,16.7091,"","","Prijedor","",25466777,"2024-03-13T07:05:58",3,"NO ERROR",6.3,100,1001.83,8.79,13.4,191.29],
    [1482,363171,"Vazduh","Libelium","0004A30B0021DF70",44.979,16.7091,"","","Prijedor","",25467772,"2024-03-13T08:06:40",3,"NO ERROR",7.44,100,1002.21,0.09,0.09,0.09],
    [1483,363171,"Vazduh","Libelium","0004A30B0021DF70",44.979,16.7091,"","","Prijedor","",25468604,"2024-03-13T09:07:22",3,"NO ERROR",9.54,100,1002.62,0.12,0.14,0.14],
    [1484,363171,"Vazduh","Libelium","0004A30B0021DF70",44.979,16.7091,"","","Prijedor","",25469472,"2024-03-13T10:08:05",3,"NO ERROR",11.82,100,1002.89,0.06,0.07,0.07],
    [1485,363171,"Vazduh","Libelium","0004A30B0021DF70",44.979,16.7091,"","","Prijedor","",25470367,"2024-03-13T11:08:53",3,"NO ERROR",13.45,100,1002.77,0.02,0.02,0.02],
    [1486,363171,"Vazduh","Libelium","0004A30B0021DF70",44.979,16.7091,"","","Prijedor","",25471301,"2024-03-13T12:09:35",3,"NO ERROR",14.82,75.1,1002.17,0.02,0.02,0.02],
    [1487,363171,"Vazduh","Libelium","0004A30B0021DF70",44.979,16.7091,"","","Prijedor","",25472223,"2024-03-13T13:10:17",3,"NO ERROR",16.5,58,1001.55,0.1,0.24,0.38],
    [1488,363171,"Vazduh","Libelium","0004A30B0021DF70",44.979,16.7091,"","","Prijedor","",25473167,"2024-03-13T14:10:59",3,"NO ERROR",18.47,50.4,1001.04,0.09,0.1,0.1],
    [1489,363171,"Vazduh","Libelium","0004A30B0021DF70",44.979,16.7091,"","","Prijedor","",25474253,"2024-03-13T15:11:41",3,"NO ERROR",20.54,45.1,1000.73,0.02,0.04,0.04],
    [1490,363171,"Vazduh","Libelium","0004A30B0021DF70",44.979,16.7091,"","","Prijedor","",25475191,"2024-03-13T16:12:23",3,"NO ERROR",17.15,49.4,1000.65,0.09,0.1,0.1],
    [1491,363171,"Vazduh","Libelium","0004A30B0021DF70",44.979,16.7091,"","","Prijedor","",25476123,"2024-03-13T17:13:05",3,"NO ERROR",14.24,56.4,1000.74,0.16,0.18,0.18],
    [1492,363171,"Vazduh","Libelium","0004A30B0021DF70",44.979,16.7091,"","","Prijedor","",25476974,"2024-03-13T18:13:47",3,"NO ERROR",12.67,61.9,1001.27,0.43,0.48,0.48],
    [1493,363171,"Vazduh","Libelium","0004A30B0021DF70",44.979,16.7091,"","","Prijedor","",25477766,"2024-03-13T19:14:29",3,"NO ERROR",10.93,79.4,1001.66,2.37,3.55,4.01],
    [1494,363171,"Vazduh","Libelium","0004A30B0021DF70",44.979,16.7091,"","","Prijedor","",25478625,"2024-03-13T20:15:11",3,"NO ERROR",8.91,97.2,1002.32,1.36,1.94,2.18],
    [1495,363171,"Vazduh","Libelium","0004A30B0021DF70",44.979,16.7091,"","","Prijedor","",25479466,"2024-03-13T21:15:53",3,"NO ERROR",7.42,100,1002.85,0.73,0.89,0.91],
    [1496,363171,"Vazduh","Libelium","0004A30B0021DF70",44.979,16.7091,"","","Prijedor","",25480277,"2024-03-13T22:16:36",3,"NO ERROR",6.33,100,1002.87,0.5,0.59,0.59],
    [1497,363171,"Vazduh","Libelium","0004A30B0021DF70",44.979,16.7091,"","","Prijedor","",25481126,"2024-03-13T23:17:18",3,"NO ERROR",5.34,100,1003.17,0.53,0.7,0.73],
    [1498,363171,"Vazduh","Libelium","0004A30B0021DF70",44.979,16.7091,"","","Prijedor","",25482261,"2024-03-14T00:18:00",3,"NO ERROR",4.38,100,1003.79,0.02,0.06,0.07],
    [1499,363171,"Vazduh","Libelium","0004A30B0021DF70",44.979,16.7091,"","","Prijedor","",25483207,"2024-03-14T01:18:42",3,"NO ERROR",4.66,100,1004.02,0.12,0.12,0.12],
    [1500,363171,"Vazduh","Libelium","0004A30B0021DF70",44.979,16.7091,"","","Prijedor","",25484118,"2024-03-14T02:19:30",3,"NO ERROR",3.9,100,1003.57,0.23,0.31,0.31],
    [1501,363171,"Vazduh","Libelium","0004A30B0021DF70",44.979,16.7091,"","","Prijedor","",25484988,"2024-03-14T03:20:12",3,"NO ERROR",4.65,100,1003.48,0.05,0.05,0.05],
    [1502,363171,"Vazduh","Libelium","0004A30B0021DF70",44.979,16.7091,"","","Prijedor","",25485959,"2024-03-14T04:20:54",3,"NO ERROR",4.55,100,1003.53,0.54,0.77,0.78],
    [1503,363171,"Vazduh","Libelium","0004A30B0021DF70",44.979,16.7091,"","","Prijedor","",25486919,"2024-03-14T05:21:37",3,"NO ERROR",4.81,100,1003.62,0.28,0.45,0.48],
    [1504,363171,"Vazduh","Libelium","0004A30B0021DF70",44.979,16.7091,"","","Prijedor","",25487826,"2024-03-14T06:22:19",3,"NO ERROR",3.99,100,1003.75,0.07,0.11,0.12],
    [1505,363171,"Vazduh","Libelium","0004A30B0021DF70",44.979,16.7091,"","","Prijedor","",25488711,"2024-03-14T07:23:07",3,"NO ERROR",5.01,100,1004.18,0.26,0.44,0.45],
    [1506,363171,"Vazduh","Libelium","0004A30B0021DF70",44.979,16.7091,"","","Prijedor","",25489562,"2024-03-14T08:23:49",3,"NO ERROR",7.06,100,1004.38,0.1,0.3,2.61],
    [1507,363171,"Vazduh","Libelium","0004A30B0021DF70",44.979,16.7091,"","","Prijedor","",25490422,"2024-03-14T09:24:31",3,"NO ERROR",9.27,100,1004.48,0.33,0.45,0.45],
    [1508,363171,"Vazduh","Libelium","0004A30B0021DF70",44.979,16.7091,"","","Prijedor","",25492175,"2024-03-14T11:25:55",3,"NO ERROR",14.1,79.4,1003.84,0.07,0.11,0.13],
    [1509,363171,"Vazduh","Libelium","0004A30B0021DF70",44.979,16.7091,"","","Prijedor","",25493156,"2024-03-14T12:26:37",3,"NO ERROR",15.9,62.8,1003.13,0.23,0.44,0.48],
    [1510,363171,"Vazduh","Libelium","0004A30B0021DF70",44.979,16.7091,"","","Prijedor","",25494098,"2024-03-14T13:27:19",3,"NO ERROR",18.51,52,1002.33,0.11,0.11,0.11],
    [1511,363171,"Vazduh","Libelium","0004A30B0021DF70",44.979,16.7091,"","","Prijedor","",25495030,"2024-03-14T14:28:01",3,"NO ERROR",19.29,48.1,1001.81,0.14,0.21,0.22],
    [1512,363171,"Vazduh","Libelium","0004A30B0021DF70",44.979,16.7091,"","","Prijedor","",25495902,"2024-03-14T15:28:50",3,"NO ERROR",19.56,45.9,1001.33,0.03,0.08,0.09],
    [1513,363171,"Vazduh","Libelium","0004A30B0021DF70",44.979,16.7091,"","","Prijedor","",25496842,"2024-03-14T16:29:32",3,"NO ERROR",17.71,47.5,1000.98,0.16,0.29,0.75],
    [1514,363171,"Vazduh","Libelium","0004A30B0021DF70",44.979,16.7091,"","","Prijedor","",25497727,"2024-03-14T17:30:14",3,"NO ERROR",16.03,51.4,1000.79,0.03,0.03,0.03],
    [1515,363171,"Vazduh","Libelium","0004A30B0021DF70",44.979,16.7091,"","","Prijedor","",25498474,"2024-03-14T18:30:56",3,"NO ERROR",13.86,58.3,1000.81,0.14,0.19,0.2],
    [1516,363171,"Vazduh","Libelium","0004A30B0021DF70",44.979,16.7091,"","","Prijedor","",25499238,"2024-03-14T19:31:38",3,"NO ERROR",12.87,74.6,1001.13,0.83,1.24,1.46],
    [1517,363171,"Vazduh","Libelium","0004A30B0021DF70",44.979,16.7091,"","","Prijedor","",25500125,"2024-03-14T20:32:20",3,"NO ERROR",10.88,87.7,1001.17,0.89,1.28,1.75],
    [1518,363171,"Vazduh","Libelium","0004A30B0021DF70",44.979,16.7091,"","","Prijedor","",25500997,"2024-03-14T21:33:02",3,"NO ERROR",10.56,91.2,1001.18,0.25,0.39,0.42],
    [1519,363171,"Vazduh","Libelium","0004A30B0021DF70",44.979,16.7091,"","","Prijedor","",25501875,"2024-03-14T22:33:44",3,"NO ERROR",10.35,90.3,1001.33,0.26,0.37,0.38],
    [1520,363171,"Vazduh","Libelium","0004A30B0021DF70",44.979,16.7091,"","","Prijedor","",25502761,"2024-03-14T23:34:26",3,"NO ERROR",10.55,95.3,1001.3,1.22,1.54,1.55],
    [1521,363171,"Vazduh","Libelium","0004A30B0021DF70",44.979,16.7091,"","","Prijedor","",25503894,"2024-03-15T00:35:08",3,"NO ERROR",9.38,100,1001.13,0.44,0.79,0.96],
    [1522,363171,"Vazduh","Libelium","0004A30B0021DF70",44.979,16.7091,"","","Prijedor","",25504797,"2024-03-15T01:35:50",3,"NO ERROR",8.89,100,1001.1,0.59,0.75,0.76],
    [1523,363171,"Vazduh","Libelium","0004A30B0021DF70",44.979,16.7091,"","","Prijedor","",25505627,"2024-03-15T02:36:32",3,"NO ERROR",7.47,100,1000.8,0.35,0.44,0.45],
    [1524,363171,"Vazduh","Libelium","0004A30B0021DF70",44.979,16.7091,"","","Prijedor","",25506463,"2024-03-15T03:37:15",3,"NO ERROR",6.55,100,1000.79,0.32,0.44,0.45],
    [1525,363171,"Vazduh","Libelium","0004A30B0021DF70",44.979,16.7091,"","","Prijedor","",25507437,"2024-03-15T04:37:57",3,"NO ERROR",5.53,100,1001.05,0.15,0.23,0.23],
    [1526,363171,"Vazduh","Libelium","0004A30B0021DF70",44.979,16.7091,"","","Prijedor","",25508373,"2024-03-15T05:38:39",3,"NO ERROR",4.53,100,1001.2,0.2,0.23,0.23],
    [1527,363171,"Vazduh","Libelium","0004A30B0021DF70",44.979,16.7091,"","","Prijedor","",25509227,"2024-03-15T06:39:21",3,"NO ERROR",4.09,100,1001.63,0.64,1.01,1.24],
    [1528,363171,"Vazduh","Libelium","0004A30B0021DF70",44.979,16.7091,"","","Prijedor","",25510143,"2024-03-15T07:40:03",3,"NO ERROR",10.33,97.7,1001.67,0.84,1.55,3.54],
    [1529,363171,"Vazduh","Libelium","0004A30B0021DF70",44.979,16.7091,"","","Prijedor","",25510999,"2024-03-15T08:40:45",3,"NO ERROR",13.09,78.2,1001.59,0.24,0.5,2.27],
    [1530,363171,"Vazduh","Libelium","0004A30B0021DF70",44.979,16.7091,"","","Prijedor","",25511846,"2024-03-15T09:41:27",3,"NO ERROR",15.1,65.3,1001.52,0.45,0.63,0.66],
    [1531,363171,"Vazduh","Libelium","0004A30B0021DF70",44.979,16.7091,"","","Prijedor","",25512721,"2024-03-15T10:42:09",3,"NO ERROR",16.62,54.9,1001.03,0.06,0.13,0.14],
    [1532,363171,"Vazduh","Libelium","0004A30B0021DF70",44.979,16.7091,"","","Prijedor","",25513682,"2024-03-15T11:42:51",3,"NO ERROR",18.74,48.5,1000.6,0.2,0.24,0.24],
    [1533,363171,"Vazduh","Libelium","0004A30B0021DF70",44.979,16.7091,"","","Prijedor","",25514629,"2024-03-15T12:43:34",3,"NO ERROR",20.8,42.6,999.83,0.16,0.27,0.65],
    [1534,363171,"Vazduh","Libelium","0004A30B0021DF70",44.979,16.7091,"","","Prijedor","",25515591,"2024-03-15T13:44:16",3,"NO ERROR",22.65,39.4,999.28,0.05,0.11,0.12],
    [1535,363171,"Vazduh","Libelium","0004A30B0021DF70",44.979,16.7091,"","","Prijedor","",25516484,"2024-03-15T14:44:58",3,"NO ERROR",25.65,35.1,998.97,0.08,0.08,0.08],
    [1536,363171,"Vazduh","Libelium","0004A30B0021DF70",44.979,16.7091,"","","Prijedor","",25517336,"2024-03-15T15:45:40",3,"NO ERROR",23.79,36.4,998.59,0.05,0.05,0.05],
    [1537,363171,"Vazduh","Libelium","0004A30B0021DF70",44.979,16.7091,"","","Prijedor","",25518249,"2024-03-15T16:46:22",3,"NO ERROR",20.33,41.4,998.65,0.16,0.22,0.27],
    [1538,363171,"Vazduh","Libelium","0004A30B0021DF70",44.979,16.7091,"","","Prijedor","",25519150,"2024-03-15T17:47:04",3,"NO ERROR",18.18,46.3,999.02,0.32,0.4,0.4],
    [1539,363171,"Vazduh","Libelium","0004A30B0021DF70",44.979,16.7091,"","","Prijedor","",25519919,"2024-03-15T18:47:46",3,"NO ERROR",16.38,54,999.45,0.61,0.8,0.82],
    [1540,363171,"Vazduh","Libelium","0004A30B0021DF70",44.979,16.7091,"","","Prijedor","",25520770,"2024-03-15T19:48:28",3,"NO ERROR",14.75,63.2,1000.07,1.18,1.45,1.45],
    [1541,363171,"Vazduh","Libelium","0004A30B0021DF70",44.979,16.7091,"","","Prijedor","",25521677,"2024-03-15T20:49:16",3,"NO ERROR",12.8,76.5,1000.55,0.67,0.97,1.49],
    [1542,363171,"Vazduh","Libelium","0004A30B0021DF70",44.979,16.7091,"","","Prijedor","",25522531,"2024-03-15T21:49:58",3,"NO ERROR",11.95,81,1000.74,0.59,0.78,0.8],
    [1543,363171,"Vazduh","Libelium","0004A30B0021DF70",44.979,16.7091,"","","Prijedor","",25523378,"2024-03-15T22:50:40",3,"NO ERROR",10.81,92,1001,0.3,0.36,0.36],
    [1544,363171,"Vazduh","Libelium","0004A30B0021DF70",44.979,16.7091,"","","Prijedor","",25524194,"2024-03-15T23:51:22",3,"NO ERROR",10.07,95.6,1001.2,0.21,0.31,0.31],
    [1545,363171,"Vazduh","Libelium","0004A30B0021DF70",44.979,16.7091,"","","Prijedor","",25525309,"2024-03-16T00:52:05",3,"NO ERROR",9.76,99.3,1001.5,0.15,0.19,0.19],
    [1546,363171,"Vazduh","Libelium","0004A30B0021DF70",44.979,16.7091,"","","Prijedor","",25526171,"2024-03-16T01:52:47",3,"NO ERROR",9.77,99.1,1001.49,0.33,0.42,0.42],
    [1547,363171,"Vazduh","Libelium","0004A30B0021DF70",44.979,16.7091,"","","Prijedor","",25526924,"2024-03-16T02:53:29",3,"NO ERROR",9.61,100,1001.6,0.36,0.43,0.43],
    [1548,363171,"Vazduh","Libelium","0004A30B0021DF70",44.979,16.7091,"","","Prijedor","",25527759,"2024-03-16T03:54:17",3,"NO ERROR",9.45,100,1001.71,0.51,0.67,0.69],
    [1549,363171,"Vazduh","Libelium","0004A30B0021DF70",44.979,16.7091,"","","Prijedor","",25528699,"2024-03-16T04:54:59",3,"NO ERROR",9.04,100,1001.96,0.27,0.4,0.42],
    [1550,363171,"Vazduh","Libelium","0004A30B0021DF70",44.979,16.7091,"","","Prijedor","",25529552,"2024-03-16T05:55:41",3,"NO ERROR",8.82,100,1002.2,0.32,0.41,0.42],
    [1551,363171,"Vazduh","Libelium","0004A30B0021DF70",44.979,16.7091,"","","Prijedor","",25530436,"2024-03-16T06:56:35",3,"NO ERROR",8.89,100,1002.4,0.52,0.73,0.75],
    [1552,363171,"Vazduh","Libelium","0004A30B0021DF70",44.979,16.7091,"","","Prijedor","",25531361,"2024-03-16T07:57:17",3,"NO ERROR",12.5,97.6,1002.88,0.64,1.07,1.84],
    [1553,363171,"Vazduh","Libelium","0004A30B0021DF70",44.979,16.7091,"","","Prijedor","",25532209,"2024-03-16T08:57:59",3,"NO ERROR",12.81,98.2,1003.37,0.12,0.21,0.22],
    [1554,363171,"Vazduh","Libelium","0004A30B0021DF70",44.979,16.7091,"","","Prijedor","",25532987,"2024-03-16T09:58:41",3,"NO ERROR",15.27,79.4,1003.37,0.1,0.19,0.27],
    [1555,363171,"Vazduh","Libelium","0004A30B0021DF70",44.979,16.7091,"","","Prijedor","",25533831,"2024-03-16T10:59:23",3,"NO ERROR",17.46,66.6,1003.25,0.29,0.31,0.31],
    [1556,363171,"Vazduh","Libelium","0004A30B0021DF70",44.979,16.7091,"","","Prijedor","",25534746,"2024-03-16T12:00:06",3,"NO ERROR",18.7,54.5,1003.12,0.11,0.21,0.56],
    [1557,363171,"Vazduh","Libelium","0004A30B0021DF70",44.979,16.7091,"","","Prijedor","",25535713,"2024-03-16T13:00:48",3,"NO ERROR",19.02,51.1,1002.82,0.1,0.22,0.31],
    [1558,363171,"Vazduh","Libelium","0004A30B0021DF70",44.979,16.7091,"","","Prijedor","",25536640,"2024-03-16T14:01:30",3,"NO ERROR",19.15,52.4,1002.49,0.16,0.17,0.17],
    [1559,363171,"Vazduh","Libelium","0004A30B0021DF70",44.979,16.7091,"","","Prijedor","",25537515,"2024-03-16T15:02:12",3,"NO ERROR",19.33,51.8,1002.1,0.1,0.1,0.1],
    [1560,363171,"Vazduh","Libelium","0004A30B0021DF70",44.979,16.7091,"","","Prijedor","",25538406,"2024-03-16T16:02:54",3,"NO ERROR",17.44,64,1002.3,0.29,0.35,0.36],
    [1561,363171,"Vazduh","Libelium","0004A30B0021DF70",44.979,16.7091,"","","Prijedor","",25539336,"2024-03-16T17:03:42",3,"NO ERROR",16.8,68.1,1002.47,0.38,0.54,0.54],
    [1562,363171,"Vazduh","Libelium","0004A30B0021DF70",44.979,16.7091,"","","Prijedor","",25540175,"2024-03-16T18:04:24",3,"NO ERROR",15.93,74.2,1003.21,0.36,0.52,0.54],
    [1563,363171,"Vazduh","Libelium","0004A30B0021DF70",44.979,16.7091,"","","Prijedor","",25540973,"2024-03-16T19:05:06",3,"NO ERROR",15.02,78,1003.75,0.28,0.33,0.33],
    [1564,363171,"Vazduh","Libelium","0004A30B0021DF70",44.979,16.7091,"","","Prijedor","",25541842,"2024-03-16T20:05:48",3,"NO ERROR",13.96,90.5,1004.31,0.08,0.09,0.09],
    [1565,363171,"Vazduh","Libelium","0004A30B0021DF70",44.979,16.7091,"","","Prijedor","",25542690,"2024-03-16T21:06:30",3,"NO ERROR",13.37,97.8,1004.9,0.15,0.15,0.15],
    [1566,363171,"Vazduh","Libelium","0004A30B0021DF70",44.979,16.7091,"","","Prijedor","",25543502,"2024-03-16T22:07:12",3,"NO ERROR",12.69,100,1005.31,0.25,0.35,0.35],
    [1567,363171,"Vazduh","Libelium","0004A30B0021DF70",44.979,16.7091,"","","Prijedor","",25544301,"2024-03-16T23:07:54",3,"NO ERROR",11.18,100,1005.6,0.18,0.25,0.25],
    [1568,363171,"Vazduh","Libelium","0004A30B0021DF70",44.979,16.7091,"","","Prijedor","",25545328,"2024-03-17T00:08:37",3,"NO ERROR",10.37,100,1005.57,0.43,0.88,1.35],
    [1569,363171,"Vazduh","Libelium","0004A30B0021DF70",44.979,16.7091,"","","Prijedor","",25546212,"2024-03-17T01:09:19",3,"NO ERROR",9.13,100,1006.1,0.45,0.52,0.52],
    [1570,363171,"Vazduh","Libelium","0004A30B0021DF70",44.979,16.7091,"","","Prijedor","",25570264,"2024-03-18T04:28:33",3,"NO ERROR",6.24,100,1002.26,0.05,0.12,0.13],
    [1571,363171,"Vazduh","Libelium","0004A30B0021DF70",44.979,16.7091,"","","Prijedor","",25571190,"2024-03-18T05:29:15",3,"NO ERROR",6.29,100,1002.31,0.07,0.13,0.17],
    [1572,363171,"Vazduh","Libelium","0004A30B0021DF70",44.979,16.7091,"","","Prijedor","",25572068,"2024-03-18T06:29:57",3,"NO ERROR",5.94,100,1002.41,0.23,0.3,0.3],
    [1573,363171,"Vazduh","Libelium","0004A30B0021DF70",44.979,16.7091,"","","Prijedor","",25572923,"2024-03-18T07:30:39",3,"NO ERROR",7.72,100,1002.46,0.11,0.16,0.16],
    [1574,363171,"Vazduh","Libelium","0004A30B0021DF70",44.979,16.7091,"","","Prijedor","",25573829,"2024-03-18T08:31:22",3,"NO ERROR",11.35,92.6,1002.38,0.56,0.87,1.49],
    [1575,363171,"Vazduh","Libelium","0004A30B0021DF70",44.979,16.7091,"","","Prijedor","",25574652,"2024-03-18T09:32:04",3,"NO ERROR",18.5,55.7,1001.9,0.35,0.51,0.51],
    [1576,363171,"Vazduh","Libelium","0004A30B0021DF70",44.979,16.7091,"","","Prijedor","",25575493,"2024-03-18T10:32:46",3,"NO ERROR",16.11,59,1001.06,0.38,0.49,0.5],
    [1577,363171,"Vazduh","Libelium","0004A30B0021DF70",44.979,16.7091,"","","Prijedor","",25576455,"2024-03-18T11:33:28",3,"NO ERROR",17.08,58.6,1000.26,0.07,0.13,0.13],
    [1578,363171,"Vazduh","Libelium","0004A30B0021DF70",44.979,16.7091,"","","Prijedor","",25577463,"2024-03-18T12:34:16",3,"NO ERROR",18.98,54.5,999.31,0.12,0.15,0.15],
    [1579,363171,"Vazduh","Libelium","0004A30B0021DF70",44.979,16.7091,"","","Prijedor","",25578405,"2024-03-18T13:34:58",3,"NO ERROR",20.4,49.8,998.18,0.03,0.03,0.03],
    [1580,363171,"Vazduh","Libelium","0004A30B0021DF70",44.979,16.7091,"","","Prijedor","",25579356,"2024-03-18T14:35:40",3,"NO ERROR",20.5,47.8,997.63,0.22,0.27,0.27],
    [1581,363171,"Vazduh","Libelium","0004A30B0021DF70",44.979,16.7091,"","","Prijedor","",25580256,"2024-03-18T15:36:22",3,"NO ERROR",18.95,50.2,996.93,0.17,0.19,0.19],
    [1582,363171,"Vazduh","Libelium","0004A30B0021DF70",44.979,16.7091,"","","Prijedor","",25581166,"2024-03-18T16:37:04",3,"NO ERROR",15.83,69.4,996.93,0.2,0.26,0.26],
    [1583,363171,"Vazduh","Libelium","0004A30B0021DF70",44.979,16.7091,"","","Prijedor","",25582050,"2024-03-18T17:37:46",3,"NO ERROR",15.16,71.2,997.44,0.14,0.18,0.19],
    [1584,363171,"Vazduh","Libelium","0004A30B0021DF70",44.979,16.7091,"","","Prijedor","",25582807,"2024-03-18T18:38:28",3,"NO ERROR",12.88,100,998.36,0.07,0.07,0.07],
    [1585,363171,"Vazduh","Libelium","0004A30B0021DF70",44.979,16.7091,"","","Prijedor","",25583547,"2024-03-18T19:39:10",3,"NO ERROR",12.47,100,998.97,0.27,0.28,0.28],
    [1586,363171,"Vazduh","Libelium","0004A30B0021DF70",44.979,16.7091,"","","Prijedor","",25584427,"2024-03-18T20:39:59",3,"NO ERROR",12.01,100,999.32,0.5,0.59,0.59],
    [1587,363171,"Vazduh","Libelium","0004A30B0021DF70",44.979,16.7091,"","","Prijedor","",25586053,"2024-03-18T22:41:35",3,"NO ERROR",11.11,100,1000.05,0.15,0.2,0.2],
    [1588,363171,"Vazduh","Libelium","0004A30B0021DF70",44.979,16.7091,"","","Prijedor","",25586914,"2024-03-18T23:42:23",3,"NO ERROR",10.55,100,1000.37,0.3,0.37,0.37],
    [1589,363171,"Vazduh","Libelium","0004A30B0021DF70",44.979,16.7091,"","","Prijedor","",25588114,"2024-03-19T00:43:05",3,"NO ERROR",10.77,100,1000.68,0.21,0.23,0.23],
    [1590,363171,"Vazduh","Libelium","0004A30B0021DF70",44.979,16.7091,"","","Prijedor","",25589109,"2024-03-19T01:43:47",3,"NO ERROR",10.45,100,1000.94,0.13,0.16,0.16],
    [1591,363171,"Vazduh","Libelium","0004A30B0021DF70",44.979,16.7091,"","","Prijedor","",25589996,"2024-03-19T02:44:29",3,"NO ERROR",10.56,100,1001.01,0.32,0.42,0.43],
    [1592,363171,"Vazduh","Libelium","0004A30B0021DF70",44.979,16.7091,"","","Prijedor","",25590912,"2024-03-19T03:45:11",3,"NO ERROR",10.09,100,1001.14,0.47,0.62,0.62],
    [1593,363171,"Vazduh","Libelium","0004A30B0021DF70",44.979,16.7091,"","","Prijedor","",25591948,"2024-03-19T04:45:53",3,"NO ERROR",9.43,100,1001.76,0.6,0.81,0.82],
    [1594,363171,"Vazduh","Libelium","0004A30B0021DF70",44.979,16.7091,"","","Prijedor","",25592932,"2024-03-19T05:46:35",3,"NO ERROR",9.14,100,1002.35,0.4,0.48,0.48],
    [1595,363171,"Vazduh","Libelium","0004A30B0021DF70",44.979,16.7091,"","","Prijedor","",25593809,"2024-03-19T06:47:17",3,"NO ERROR",8.45,96.8,1003.03,0.15,0.22,0.24],
    [1596,363171,"Vazduh","Libelium","0004A30B0021DF70",44.979,16.7091,"","","Prijedor","",25594656,"2024-03-19T07:48:00",3,"NO ERROR",8.06,90.2,1003.89,0.11,0.11,0.11],
    [1597,363171,"Vazduh","Libelium","0004A30B0021DF70",44.979,16.7091,"","","Prijedor","",25595504,"2024-03-19T08:48:42",3,"NO ERROR",8.13,81.1,1004.85,0.12,0.15,0.16],
    [1598,363171,"Vazduh","Libelium","0004A30B0021DF70",44.979,16.7091,"","","Prijedor","",25596338,"2024-03-19T09:49:24",3,"NO ERROR",8.98,69.2,1005.47,0.21,0.32,0.34],
    [1599,363171,"Vazduh","Libelium","0004A30B0021DF70",44.979,16.7091,"","","Prijedor","",25597214,"2024-03-19T10:50:06",3,"NO ERROR",9.58,65.4,1005.66,0.25,0.32,0.32],
    [1600,363171,"Vazduh","Libelium","0004A30B0021DF70",44.979,16.7091,"","","Prijedor","",25598114,"2024-03-19T11:50:48",3,"NO ERROR",12.71,51.8,1005.63,0.09,0.11,0.11],
    [1601,363171,"Vazduh","Libelium","0004A30B0021DF70",44.979,16.7091,"","","Prijedor","",25599109,"2024-03-19T12:51:30",3,"NO ERROR",13.33,50.9,1005.66,0.07,0.1,0.1],
    [1602,363171,"Vazduh","Libelium","0004A30B0021DF70",44.979,16.7091,"","","Prijedor","",25600060,"2024-03-19T13:52:12",3,"NO ERROR",15.42,48.4,1005.33,0.27,0.35,0.35],
    [1603,363171,"Vazduh","Libelium","0004A30B0021DF70",44.979,16.7091,"","","Prijedor","",25600977,"2024-03-19T14:52:54",3,"NO ERROR",15.75,46.7,1005.08,0.11,0.25,0.79],
    [1604,363171,"Vazduh","Libelium","0004A30B0021DF70",44.979,16.7091,"","","Prijedor","",25601881,"2024-03-19T15:53:36",3,"NO ERROR",15.57,45.5,1005.04,0.13,0.16,0.16],
    [1605,363171,"Vazduh","Libelium","0004A30B0021DF70",44.979,16.7091,"","","Prijedor","",25602802,"2024-03-19T16:54:18",3,"NO ERROR",11.68,52.5,1005.48,0.47,0.78,0.81],
    [1606,363171,"Vazduh","Libelium","0004A30B0021DF70",44.979,16.7091,"","","Prijedor","",25603656,"2024-03-19T17:55:00",3,"NO ERROR",9.89,54.3,1006.31,0.14,0.27,0.37],
    [1607,363171,"Vazduh","Libelium","0004A30B0021DF70",44.979,16.7091,"","","Prijedor","",25604390,"2024-03-19T18:55:49",3,"NO ERROR",8.54,61.6,1006.9,0.75,0.85,0.85],
    [1608,363171,"Vazduh","Libelium","0004A30B0021DF70",44.979,16.7091,"","","Prijedor","",25605173,"2024-03-19T19:56:31",3,"NO ERROR",6.05,80.9,1007.53,0.51,0.75,2.25],
    [1609,363171,"Vazduh","Libelium","0004A30B0021DF70",44.979,16.7091,"","","Prijedor","",25606010,"2024-03-19T20:57:13",3,"NO ERROR",4.72,88.3,1007.98,0.17,0.22,0.22],
    [1610,363171,"Vazduh","Libelium","0004A30B0021DF70",44.979,16.7091,"","","Prijedor","",25606826,"2024-03-19T21:57:55",3,"NO ERROR",3.49,96.4,1008.56,0.14,0.25,0.27],
    [1611,363171,"Vazduh","Libelium","0004A30B0021DF70",44.979,16.7091,"","","Prijedor","",25607648,"2024-03-19T22:58:37",3,"NO ERROR",2.66,100,1008.76,0.41,0.56,0.56],
    [1612,363171,"Vazduh","Libelium","0004A30B0021DF70",44.979,16.7091,"","","Prijedor","",25608607,"2024-03-19T23:59:19",3,"NO ERROR",1.49,100,1008.84,0.41,0.64,0.65],
    [1613,363171,"Vazduh","Libelium","0004A30B0021DF70",44.979,16.7091,"","","Prijedor","",25609680,"2024-03-20T01:00:08",3,"NO ERROR",0.95,100,1009.08,0.38,0.46,0.46],
    [1614,363171,"Vazduh","Libelium","0004A30B0021DF70",44.979,16.7091,"","","Prijedor","",25610640,"2024-03-20T02:00:50",3,"NO ERROR",0.64,100,1008.79,0.53,0.64,0.64],
    [1615,363171,"Vazduh","Libelium","0004A30B0021DF70",44.979,16.7091,"","","Prijedor","",25611557,"2024-03-20T03:01:32",3,"NO ERROR",0.12,100,1008.64,0.15,0.17,0.17],
    [1616,363171,"Vazduh","Libelium","0004A30B0021DF70",44.979,16.7091,"","","Prijedor","",25612529,"2024-03-20T04:02:20",3,"NO ERROR",-0.34,100,1008.74,0.21,0.29,0.29],
    [1617,363171,"Vazduh","Libelium","0004A30B0021DF70",44.979,16.7091,"","","Prijedor","",25613567,"2024-03-20T05:03:02",3,"NO ERROR",-0.61,100,1008.96,0.1,0.1,0.1],
    [1618,363171,"Vazduh","Libelium","0004A30B0021DF70",44.979,16.7091,"","","Prijedor","",25614475,"2024-03-20T06:03:45",3,"NO ERROR",-1.49,100,1009.38,0.11,0.14,0.14],
    [1619,363171,"Vazduh","Libelium","0004A30B0021DF70",44.979,16.7091,"","","Prijedor","",25615303,"2024-03-20T07:04:27",3,"NO ERROR",3.59,99.4,1009.81,0.32,0.45,0.46],
    [1620,363171,"Vazduh","Libelium","0004A30B0021DF70",44.979,16.7091,"","","Prijedor","",25616148,"2024-03-20T08:05:09",3,"NO ERROR",8.01,74.4,1010.03,0.26,0.37,0.38],
    [1621,363171,"Vazduh","Libelium","0004A30B0021DF70",44.979,16.7091,"","","Prijedor","",25616996,"2024-03-20T09:05:51",3,"NO ERROR",9.52,65.6,1010.14,0.15,0.16,0.16],
    [1622,363171,"Vazduh","Libelium","0004A30B0021DF70",44.979,16.7091,"","","Prijedor","",25617834,"2024-03-20T10:06:33",3,"NO ERROR",12.11,56.9,1009.93,0.11,0.29,0.43],
    [1623,363171,"Vazduh","Libelium","0004A30B0021DF70",44.979,16.7091,"","","Prijedor","",25618680,"2024-03-20T11:07:15",3,"NO ERROR",11.88,48.7,1009.44,0.02,0.02,0.02],
    [1624,363171,"Vazduh","Libelium","0004A30B0021DF70",44.979,16.7091,"","","Prijedor","",25619638,"2024-03-20T12:07:57",3,"NO ERROR",12.47,47.5,1008.85,0.05,0.06,0.06],
    [1625,363171,"Vazduh","Libelium","0004A30B0021DF70",44.979,16.7091,"","","Prijedor","",25620608,"2024-03-20T13:08:39",3,"NO ERROR",13.76,45.2,1008.08,0.08,0.09,0.09],
    [1626,363171,"Vazduh","Libelium","0004A30B0021DF70",44.979,16.7091,"","","Prijedor","",25621601,"2024-03-20T14:09:22",3,"NO ERROR",19,37.8,1007.41,0.07,0.07,0.07],
    [1627,363171,"Vazduh","Libelium","0004A30B0021DF70",44.979,16.7091,"","","Prijedor","",25622483,"2024-03-20T15:10:04",3,"NO ERROR",20.18,35,1006.75,0.05,0.05,0.05],
    [1628,363171,"Vazduh","Libelium","0004A30B0021DF70",44.979,16.7091,"","","Prijedor","",25623375,"2024-03-20T16:10:46",3,"NO ERROR",20,30.8,1006.6,0.02,0.02,0.02],
    [1629,363171,"Vazduh","Libelium","0004A30B0021DF70",44.979,16.7091,"","","Prijedor","",25624320,"2024-03-20T17:11:28",3,"NO ERROR",14.34,37.9,1006.59,0.23,0.26,0.26],
    [1630,363171,"Vazduh","Libelium","0004A30B0021DF70",44.979,16.7091,"","","Prijedor","",25625160,"2024-03-20T18:12:10",3,"NO ERROR",12.34,41.4,1006.45,0.2,0.25,0.25],
    [1631,363171,"Vazduh","Libelium","0004A30B0021DF70",44.979,16.7091,"","","Prijedor","",25625879,"2024-03-20T19:12:52",3,"NO ERROR",10.39,51.5,1006.88,0.25,0.36,0.38],
    [1632,363171,"Vazduh","Libelium","0004A30B0021DF70",44.979,16.7091,"","","Prijedor","",25626695,"2024-03-20T20:13:34",3,"NO ERROR",8.43,62.1,1007.14,0.72,1.12,1.35],
    [1633,363171,"Vazduh","Libelium","0004A30B0021DF70",44.979,16.7091,"","","Prijedor","",25627515,"2024-03-20T21:14:16",3,"NO ERROR",6.26,74.6,1007.53,1.19,1.51,13.89],
    [1634,363171,"Vazduh","Libelium","0004A30B0021DF70",44.979,16.7091,"","","Prijedor","",25628322,"2024-03-20T22:14:58",3,"NO ERROR",5.67,76.2,1007.74,0.17,0.19,0.19],
    [1635,363171,"Vazduh","Libelium","0004A30B0021DF70",44.979,16.7091,"","","Prijedor","",25629130,"2024-03-20T23:15:47",3,"NO ERROR",5.08,88.1,1007.57,0.44,0.58,0.59],
    [1636,363171,"Vazduh","Libelium","0004A30B0021DF70",44.979,16.7091,"","","Prijedor","",25630202,"2024-03-21T00:16:29",3,"NO ERROR",3.74,96.4,1007.64,0.05,0.05,0.05],
    [1637,363171,"Vazduh","Libelium","0004A30B0021DF70",44.979,16.7091,"","","Prijedor","",25631040,"2024-03-21T01:17:11",3,"NO ERROR",3.71,96.3,1007.48,0.4,0.47,0.48],
    [1638,363171,"Vazduh","Libelium","0004A30B0021DF70",44.979,16.7091,"","","Prijedor","",25631867,"2024-03-21T02:17:53",3,"NO ERROR",2.61,100,1007.1,0.53,0.68,0.68],
    [1639,363171,"Vazduh","Libelium","0004A30B0021DF70",44.979,16.7091,"","","Prijedor","",25632656,"2024-03-21T03:18:35",3,"NO ERROR",3.43,100,1006.92,0.41,0.7,0.76],
    [1640,363171,"Vazduh","Libelium","0004A30B0021DF70",44.979,16.7091,"","","Prijedor","",25633526,"2024-03-21T04:19:23",3,"NO ERROR",2.9,100,1006.91,0.02,0.02,0.02],
    [1641,363171,"Vazduh","Libelium","0004A30B0021DF70",44.979,16.7091,"","","Prijedor","",25634395,"2024-03-21T05:20:05",3,"NO ERROR",2.49,100,1006.7,0.11,0.13,0.14],
    [1642,363171,"Vazduh","Libelium","0004A30B0021DF70",44.979,16.7091,"","","Prijedor","",25635243,"2024-03-21T06:20:54",3,"NO ERROR",2.67,100,1006.81,0.03,0.03,0.03],
    [1643,363171,"Vazduh","Libelium","0004A30B0021DF70",44.979,16.7091,"","","Prijedor","",25636941,"2024-03-21T08:22:30",3,"NO ERROR",13.58,56.4,1006.43,0.47,0.66,0.66],
    [1644,363171,"Vazduh","Libelium","0004A30B0021DF70",44.979,16.7091,"","","Prijedor","",25637788,"2024-03-21T09:23:12",3,"NO ERROR",14.45,48.9,1006.29,0.57,0.81,0.98],
    [1645,363171,"Vazduh","Libelium","0004A30B0021DF70",44.979,16.7091,"","","Prijedor","",25638607,"2024-03-21T10:23:54",3,"NO ERROR",16.09,47.9,1005.83,0.23,0.3,0.3],
    [1646,363171,"Vazduh","Libelium","0004A30B0021DF70",44.979,16.7091,"","","Prijedor","",25639510,"2024-03-21T11:24:36",3,"NO ERROR",18.23,45.3,1004.92,0.1,0.14,0.14],
    [1647,363171,"Vazduh","Libelium","0004A30B0021DF70",44.979,16.7091,"","","Prijedor","",25640505,"2024-03-21T12:25:18",3,"NO ERROR",20.11,43.3,1003.98,0.08,0.13,0.14],
    [1648,363171,"Vazduh","Libelium","0004A30B0021DF70",44.979,16.7091,"","","Prijedor","",25641400,"2024-03-21T13:26:00",3,"NO ERROR",21.5,41.1,1003.43,0.15,0.18,0.18],
    [1649,363171,"Vazduh","Libelium","0004A30B0021DF70",44.979,16.7091,"","","Prijedor","",25642333,"2024-03-21T14:26:42",3,"NO ERROR",22.71,39.4,1002.72,0.05,0.11,0.13],
    [1650,363171,"Vazduh","Libelium","0004A30B0021DF70",44.979,16.7091,"","","Prijedor","",25643236,"2024-03-21T15:27:24",3,"NO ERROR",24.96,35.2,1002.03,0.03,0.03,0.03],
    [1651,363171,"Vazduh","Libelium","0004A30B0021DF70",44.979,16.7091,"","","Prijedor","",25644141,"2024-03-21T16:28:13",3,"NO ERROR",21.07,38.1,1001.75,0.12,0.17,0.17],
    [1652,363171,"Vazduh","Libelium","0004A30B0021DF70",44.979,16.7091,"","","Prijedor","",25645068,"2024-03-21T17:29:07",3,"NO ERROR",19.46,38.7,1002.09,0.12,0.25,0.54],
    [1653,363171,"Vazduh","Libelium","0004A30B0021DF70",44.979,16.7091,"","","Prijedor","",25645897,"2024-03-21T18:29:49",3,"NO ERROR",17.95,43.2,1002.36,0.31,0.34,0.34],
    [1654,363171,"Vazduh","Libelium","0004A30B0021DF70",44.979,16.7091,"","","Prijedor","",25646676,"2024-03-21T19:30:37",3,"NO ERROR",17.51,45.7,1003.06,0.07,0.08,0.08],
    [1655,363171,"Vazduh","Libelium","0004A30B0021DF70",44.979,16.7091,"","","Prijedor","",25647640,"2024-03-21T20:31:19",3,"NO ERROR",17,48.5,1003.6,0.07,0.08,0.08],
    [1656,363171,"Vazduh","Libelium","0004A30B0021DF70",44.979,16.7091,"","","Prijedor","",25648470,"2024-03-21T21:32:01",3,"NO ERROR",15.88,55.6,1004.04,0.3,0.48,0.49],
    [1657,363171,"Vazduh","Libelium","0004A30B0021DF70",44.979,16.7091,"","","Prijedor","",25649282,"2024-03-21T22:32:43",3,"NO ERROR",14.3,76.7,1004.65,0.15,0.19,0.19],
    [1658,363171,"Vazduh","Libelium","0004A30B0021DF70",44.979,16.7091,"","","Prijedor","",25650118,"2024-03-21T23:33:25",3,"NO ERROR",13.41,92.7,1005.04,0.24,0.34,0.35],
    [1659,363171,"Vazduh","Libelium","0004A30B0021DF70",44.979,16.7091,"","","Prijedor","",25651228,"2024-03-22T00:34:07",3,"NO ERROR",12.83,100,1005.43,0.11,0.12,0.12],
    [1660,363171,"Vazduh","Libelium","0004A30B0021DF70",44.979,16.7091,"","","Prijedor","",25652107,"2024-03-22T01:34:49",3,"NO ERROR",12.32,100,1005.63,0.13,0.16,0.16],
    [1661,363171,"Vazduh","Libelium","0004A30B0021DF70",44.979,16.7091,"","","Prijedor","",25653005,"2024-03-22T02:35:31",3,"NO ERROR",11.88,100,1005.39,0.42,0.53,0.54],
    [1662,363171,"Vazduh","Libelium","0004A30B0021DF70",44.979,16.7091,"","","Prijedor","",25653914,"2024-03-22T03:36:13",3,"NO ERROR",11.69,100,1005.44,0.34,0.38,0.38],
    [1663,363171,"Vazduh","Libelium","0004A30B0021DF70",44.979,16.7091,"","","Prijedor","",25654864,"2024-03-22T04:36:56",3,"NO ERROR",11.44,100,1005.71,0.55,0.65,0.65],
    [1664,363171,"Vazduh","Libelium","0004A30B0021DF70",44.979,16.7091,"","","Prijedor","",25655846,"2024-03-22T05:37:38",3,"NO ERROR",10.83,100,1005.84,0.07,0.07,0.07],
    [1665,363171,"Vazduh","Libelium","0004A30B0021DF70",44.979,16.7091,"","","Prijedor","",25656749,"2024-03-22T06:38:20",3,"NO ERROR",11.49,100,1006.09,0.33,0.41,0.41],
    [1666,363171,"Vazduh","Libelium","0004A30B0021DF70",44.979,16.7091,"","","Prijedor","",25657592,"2024-03-22T07:39:02",3,"NO ERROR",14.32,100,1006.29,0.07,0.07,0.07],
    [1667,363171,"Vazduh","Libelium","0004A30B0021DF70",44.979,16.7091,"","","Prijedor","",25658522,"2024-03-22T08:39:44",3,"NO ERROR",16.92,86.3,1006.2,0.12,0.15,0.15],
    [1668,363171,"Vazduh","Libelium","0004A30B0021DF70",44.979,16.7091,"","","Prijedor","",25659386,"2024-03-22T09:40:26",3,"NO ERROR",17.34,76.8,1006.06,0.26,0.39,0.39],
    [1669,363171,"Vazduh","Libelium","0004A30B0021DF70",44.979,16.7091,"","","Prijedor","",25660211,"2024-03-22T10:41:08",3,"NO ERROR",17.86,68.2,1005.92,0.11,0.14,0.14],
    [1670,363171,"Vazduh","Libelium","0004A30B0021DF70",44.979,16.7091,"","","Prijedor","",25661150,"2024-03-22T11:41:50",3,"NO ERROR",17.44,67.6,1005.48,0.11,0.13,0.14],
    [1671,363171,"Vazduh","Libelium","0004A30B0021DF70",44.979,16.7091,"","","Prijedor","",25662149,"2024-03-22T12:42:32",3,"NO ERROR",19.43,59.2,1004.69,0.1,0.1,0.1],
    [1672,363171,"Vazduh","Libelium","0004A30B0021DF70",44.979,16.7091,"","","Prijedor","",25663063,"2024-03-22T13:43:14",3,"NO ERROR",21.66,51.9,1003.7,0.24,0.25,0.25],
    [1673,363171,"Vazduh","Libelium","0004A30B0021DF70",44.979,16.7091,"","","Prijedor","",25663978,"2024-03-22T14:43:56",3,"NO ERROR",20.21,55.2,1002.97,0.11,0.13,0.14],
    [1674,363171,"Vazduh","Libelium","0004A30B0021DF70",44.979,16.7091,"","","Prijedor","",25664881,"2024-03-22T15:44:39",3,"NO ERROR",21.27,48.1,1002.32,0.12,0.16,0.18],
    [1675,363171,"Vazduh","Libelium","0004A30B0021DF70",44.979,16.7091,"","","Prijedor","",25665800,"2024-03-22T16:45:21",3,"NO ERROR",19.76,50.7,1001.54,0.25,0.27,0.27],
    [1676,363171,"Vazduh","Libelium","0004A30B0021DF70",44.979,16.7091,"","","Prijedor","",25666721,"2024-03-22T17:46:09",3,"NO ERROR",17.44,57.1,1001.4,0.23,0.29,0.29],
    [1677,363171,"Vazduh","Libelium","0004A30B0021DF70",44.979,16.7091,"","","Prijedor","",25667477,"2024-03-22T18:46:51",3,"NO ERROR",15.47,67.5,1001.53,1.12,1.3,1.43],
    [1678,363171,"Vazduh","Libelium","0004A30B0021DF70",44.979,16.7091,"","","Prijedor","",25668263,"2024-03-22T19:47:33",3,"NO ERROR",13.74,78.1,1001.54,1.91,2.69,3.39],
    [1679,363171,"Vazduh","Libelium","0004A30B0021DF70",44.979,16.7091,"","","Prijedor","",25669135,"2024-03-22T20:48:15",3,"NO ERROR",12.11,93.2,1001.47,1.69,1.92,1.93],
    [1680,363171,"Vazduh","Libelium","0004A30B0021DF70",44.979,16.7091,"","","Prijedor","",25669973,"2024-03-22T21:48:57",3,"NO ERROR",10.94,100,1001.42,2.07,2.43,2.46],
    [1681,363171,"Vazduh","Libelium","0004A30B0021DF70",44.979,16.7091,"","","Prijedor","",25670822,"2024-03-22T22:49:40",3,"NO ERROR",10.29,100,1001.42,1.3,1.48,1.48],
    [1682,363171,"Vazduh","Libelium","0004A30B0021DF70",44.979,16.7091,"","","Prijedor","",25671650,"2024-03-22T23:50:22",3,"NO ERROR",9.21,100,1001.07,0.21,0.33,0.41],
    [1683,363171,"Vazduh","Libelium","0004A30B0021DF70",44.979,16.7091,"","","Prijedor","",25672775,"2024-03-23T00:51:10",3,"NO ERROR",7.93,100,1000.81,0.53,0.59,0.59],
    [1684,363171,"Vazduh","Libelium","0004A30B0021DF70",44.979,16.7091,"","","Prijedor","",25673651,"2024-03-23T01:51:52",3,"NO ERROR",6.88,100,1000.03,0.67,0.71,0.71],
    [1685,363171,"Vazduh","Libelium","0004A30B0021DF70",44.979,16.7091,"","","Prijedor","",25674436,"2024-03-23T02:52:35",3,"NO ERROR",7.73,100,999.72,0.62,0.88,0.89],
    [1686,363171,"Vazduh","Libelium","0004A30B0021DF70",44.979,16.7091,"","","Prijedor","",25675265,"2024-03-23T03:53:23",3,"NO ERROR",7.3,100,999.01,0.99,1.3,1.32],
    [1687,363171,"Vazduh","Libelium","0004A30B0021DF70",44.979,16.7091,"","","Prijedor","",25676212,"2024-03-23T04:54:05",3,"NO ERROR",6.27,100,998.82,0.13,0.21,0.29],
    [1688,363171,"Vazduh","Libelium","0004A30B0021DF70",44.979,16.7091,"","","Prijedor","",25677047,"2024-03-23T05:54:47",3,"NO ERROR",5.94,100,998.55,0.29,0.32,0.32],
    [1689,363171,"Vazduh","Libelium","0004A30B0021DF70",44.979,16.7091,"","","Prijedor","",25677904,"2024-03-23T06:55:29",3,"NO ERROR",10.18,100,998.26,0.46,0.55,3.14],
    [1690,363171,"Vazduh","Libelium","0004A30B0021DF70",44.979,16.7091,"","","Prijedor","",25678811,"2024-03-23T07:56:11",3,"NO ERROR",10.39,100,998.13,0.12,0.12,0.12],
    [1691,363171,"Vazduh","Libelium","0004A30B0021DF70",44.979,16.7091,"","","Prijedor","",25679676,"2024-03-23T08:56:54",3,"NO ERROR",19.75,56.1,997.35,0.22,0.32,0.34],
    [1692,363171,"Vazduh","Libelium","0004A30B0021DF70",44.979,16.7091,"","","Prijedor","",25680558,"2024-03-23T09:57:42",3,"NO ERROR",18.38,56.5,996.58,0.2,0.3,0.38],
    [1693,363171,"Vazduh","Libelium","0004A30B0021DF70",44.979,16.7091,"","","Prijedor","",25681446,"2024-03-23T10:58:24",3,"NO ERROR",20.26,47.9,995.36,0.33,0.35,0.35],
    [1694,363171,"Vazduh","Libelium","0004A30B0021DF70",44.979,16.7091,"","","Prijedor","",25682393,"2024-03-23T11:59:06",3,"NO ERROR",22.76,39.5,994.03,0.09,0.15,0.17],
    [1695,363171,"Vazduh","Libelium","0004A30B0021DF70",44.979,16.7091,"","","Prijedor","",25683388,"2024-03-23T12:59:48",3,"NO ERROR",24.38,36.9,992.9,0.15,0.21,0.21],
    [1696,363171,"Vazduh","Libelium","0004A30B0021DF70",44.979,16.7091,"","","Prijedor","",25684313,"2024-03-23T14:00:30",3,"NO ERROR",22.53,39.3,992.28,0.05,0.13,1.14],
    [1697,363171,"Vazduh","Libelium","0004A30B0021DF70",44.979,16.7091,"","","Prijedor","",25685210,"2024-03-23T15:01:18",3,"NO ERROR",21.93,39.1,992,0.14,0.17,0.17],
    [1698,363171,"Vazduh","Libelium","0004A30B0021DF70",44.979,16.7091,"","","Prijedor","",25686136,"2024-03-23T16:02:00",3,"NO ERROR",20.92,42.2,991.76,0.13,0.16,0.17],
    [1699,363171,"Vazduh","Libelium","0004A30B0021DF70",44.979,16.7091,"","","Prijedor","",25687040,"2024-03-23T17:02:42",3,"NO ERROR",19.33,44.3,991.76,0.15,0.23,0.54],
    [1700,363171,"Vazduh","Libelium","0004A30B0021DF70",44.979,16.7091,"","","Prijedor","",25687869,"2024-03-23T18:03:24",3,"NO ERROR",17.76,47.4,992.02,0.56,0.58,0.58],
    [1701,363171,"Vazduh","Libelium","0004A30B0021DF70",44.979,16.7091,"","","Prijedor","",25688597,"2024-03-23T19:04:07",3,"NO ERROR",17.29,48.9,992.31,0.09,0.13,0.14],
    [1702,363171,"Vazduh","Libelium","0004A30B0021DF70",44.979,16.7091,"","","Prijedor","",25689427,"2024-03-23T20:04:49",3,"NO ERROR",15.78,54.3,992.08,0.87,1.55,2.16],
    [1703,363171,"Vazduh","Libelium","0004A30B0021DF70",44.979,16.7091,"","","Prijedor","",25690310,"2024-03-23T21:05:31",3,"NO ERROR",13.85,65.9,991.73,1.43,1.66,1.8],
    [1704,363171,"Vazduh","Libelium","0004A30B0021DF70",44.979,16.7091,"","","Prijedor","",25691114,"2024-03-23T22:06:13",3,"NO ERROR",12.96,69.1,992.01,0.61,0.72,4.73],
    [1705,363171,"Vazduh","Libelium","0004A30B0021DF70",44.979,16.7091,"","","Prijedor","",25691910,"2024-03-23T23:06:55",3,"NO ERROR",8.87,87.3,994.36,0.05,0.05,0.05],
    [1706,363171,"Vazduh","Libelium","0004A30B0021DF70",44.979,16.7091,"","","Prijedor","",25692881,"2024-03-24T00:07:38",3,"NO ERROR",7.03,100,994.31,0,0,0],
    [1707,363171,"Vazduh","Libelium","0004A30B0021DF70",44.979,16.7091,"","","Prijedor","",25693741,"2024-03-24T01:08:20",3,"NO ERROR",6.71,100,997.37,0.02,0.02,0.02],
    [1708,363171,"Vazduh","Libelium","0004A30B0021DF70",44.979,16.7091,"","","Prijedor","",25694592,"2024-03-24T02:09:02",3,"NO ERROR",5.05,100,997.38,0.02,0.02,0.02],
    [1709,363171,"Vazduh","Libelium","0004A30B0021DF70",44.979,16.7091,"","","Prijedor","",25695334,"2024-03-24T03:09:44",3,"NO ERROR",4.68,100,996.72,0.02,0.02,0.02],
    [1710,363171,"Vazduh","Libelium","0004A30B0021DF70",44.979,16.7091,"","","Prijedor","",25696165,"2024-03-24T04:10:26",3,"NO ERROR",4.43,100,997.08,0,0,0],
    [1711,363171,"Vazduh","Libelium","0004A30B0021DF70",44.979,16.7091,"","","Prijedor","",25696990,"2024-03-24T05:11:09",3,"NO ERROR",3.53,100,997.45,0.02,0.02,0.02],
    [1712,363171,"Vazduh","Libelium","0004A30B0021DF70",44.979,16.7091,"","","Prijedor","",25697826,"2024-03-24T06:11:51",3,"NO ERROR",2.96,100,997.89,0.02,0.02,0.02],
    [1713,363171,"Vazduh","Libelium","0004A30B0021DF70",44.979,16.7091,"","","Prijedor","",25698657,"2024-03-24T07:12:33",3,"NO ERROR",2.38,100,997.6,0.03,0.03,0.03],
    [1714,363171,"Vazduh","Libelium","0004A30B0021DF70",44.979,16.7091,"","","Prijedor","",25699493,"2024-03-24T08:13:15",3,"NO ERROR",2.73,100,998.01,0.03,0.03,0.03],
    [1715,363171,"Vazduh","Libelium","0004A30B0021DF70",44.979,16.7091,"","","Prijedor","",25700325,"2024-03-24T09:13:57",3,"NO ERROR",4.68,100,997.18,0,0,0],
    [1716,363171,"Vazduh","Libelium","0004A30B0021DF70",44.979,16.7091,"","","Prijedor","",25701082,"2024-03-24T10:14:39",3,"NO ERROR",5.71,100,996.52,0,0,0],
    [1717,363171,"Vazduh","Libelium","0004A30B0021DF70",44.979,16.7091,"","","Prijedor","",25701927,"2024-03-24T11:15:22",3,"NO ERROR",7.45,100,995.45,0.02,0.02,0.02],
    [1718,363171,"Vazduh","Libelium","0004A30B0021DF70",44.979,16.7091,"","","Prijedor","",25702856,"2024-03-24T12:16:04",3,"NO ERROR",9.03,100,995.04,0.06,0.11,0.11],
    [1719,363171,"Vazduh","Libelium","0004A30B0021DF70",44.979,16.7091,"","","Prijedor","",25703749,"2024-03-24T13:16:52",3,"NO ERROR",12.45,71,994.1,0,0,0],
    [1720,363171,"Vazduh","Libelium","0004A30B0021DF70",44.979,16.7091,"","","Prijedor","",25704613,"2024-03-24T14:17:40",3,"NO ERROR",12.36,67.9,992.92,0.03,0.05,0.05],
    [1721,363171,"Vazduh","Libelium","0004A30B0021DF70",44.979,16.7091,"","","Prijedor","",25705465,"2024-03-24T15:18:29",3,"NO ERROR",14.61,62.4,992.29,0.05,0.05,0.05],
    [1722,363171,"Vazduh","Libelium","0004A30B0021DF70",44.979,16.7091,"","","Prijedor","",25706307,"2024-03-24T16:19:11",3,"NO ERROR",16.33,53.2,991.76,0.02,0.02,0.02],
    [1723,363171,"Vazduh","Libelium","0004A30B0021DF70",44.979,16.7091,"","","Prijedor","",25707154,"2024-03-24T17:19:53",3,"NO ERROR",10.73,66.4,991.71,0,0,0],
    [1724,363171,"Vazduh","Libelium","0004A30B0021DF70",44.979,16.7091,"","","Prijedor","",25707948,"2024-03-24T18:20:35",3,"NO ERROR",9.49,76.4,991.76,0.08,0.09,0.09],
    [1725,363171,"Vazduh","Libelium","0004A30B0021DF70",44.979,16.7091,"","","Prijedor","",25709577,"2024-03-24T20:21:59",3,"NO ERROR",6.63,100,992.8,0.13,0.15,0.15],
    [1726,363171,"Vazduh","Libelium","0004A30B0021DF70",44.979,16.7091,"","","Prijedor","",25710352,"2024-03-24T21:22:42",3,"NO ERROR",5.78,100,993.24,0.2,0.21,0.21],
    [1727,363171,"Vazduh","Libelium","0004A30B0021DF70",44.979,16.7091,"","","Prijedor","",25711165,"2024-03-24T22:23:24",3,"NO ERROR",3.71,100,993.42,0.3,0.37,0.37],
    [1728,363171,"Vazduh","Libelium","0004A30B0021DF70",44.979,16.7091,"","","Prijedor","",25711974,"2024-03-24T23:24:06",3,"NO ERROR",3.49,100,993.53,0.22,0.22,0.22],
    [1729,363171,"Vazduh","Libelium","0004A30B0021DF70",44.979,16.7091,"","","Prijedor","",25713032,"2024-03-25T00:24:48",3,"NO ERROR",2.49,100,993.73,0.25,0.26,0.26],
    [1730,363171,"Vazduh","Libelium","0004A30B0021DF70",44.979,16.7091,"","","Prijedor","",25713852,"2024-03-25T01:25:30",3,"NO ERROR",2.57,100,993.82,0.2,0.21,0.21],
    [1731,363171,"Vazduh","Libelium","0004A30B0021DF70",44.979,16.7091,"","","Prijedor","",25714687,"2024-03-25T02:26:19",3,"NO ERROR",2.61,100,993.37,0.39,0.49,0.49],
    [1732,363171,"Vazduh","Libelium","0004A30B0021DF70",44.979,16.7091,"","","Prijedor","",25715461,"2024-03-25T03:27:01",3,"NO ERROR",2.08,100,993.77,0.33,0.39,0.39],
    [1733,363171,"Vazduh","Libelium","0004A30B0021DF70",44.979,16.7091,"","","Prijedor","",25716368,"2024-03-25T04:27:43",3,"NO ERROR",1.63,100,994.03,2.04,2.24,2.24],
    [1734,363171,"Vazduh","Libelium","0004A30B0021DF70",44.979,16.7091,"","","Prijedor","",25717249,"2024-03-25T05:28:25",3,"NO ERROR",0.91,100,994.54,29.02,77.16,1029.21],
    [1735,363171,"Vazduh","Libelium","0004A30B0021DF70",44.979,16.7091,"","","Prijedor","",25718110,"2024-03-25T06:29:07",3,"NO ERROR",1.88,100,995.15,13.14,23.77,243.48],
    [1736,363171,"Vazduh","Libelium","0004A30B0021DF70",44.979,16.7091,"","","Prijedor","",25719847,"2024-03-25T08:30:43",3,"NO ERROR",9.47,88.2,995.89,0.09,0.13,0.14],
    [1737,363171,"Vazduh","Libelium","0004A30B0021DF70",44.979,16.7091,"","","Prijedor","",25720686,"2024-03-25T09:31:32",3,"NO ERROR",12.2,73.2,995.96,0.17,0.25,0.25],
    [1738,363171,"Vazduh","Libelium","0004A30B0021DF70",44.979,16.7091,"","","Prijedor","",25721482,"2024-03-25T10:32:14",3,"NO ERROR",13.38,64.4,995.64,0.14,0.15,0.15],
    [1739,363171,"Vazduh","Libelium","0004A30B0021DF70",44.979,16.7091,"","","Prijedor","",25722376,"2024-03-25T11:32:56",3,"NO ERROR",14.58,46.1,995.12,0.05,0.08,0.08],
    [1740,363171,"Vazduh","Libelium","0004A30B0021DF70",44.979,16.7091,"","","Prijedor","",25723314,"2024-03-25T12:33:38",3,"NO ERROR",15.29,40,994.54,0.05,0.05,0.05],
    [1741,363171,"Vazduh","Libelium","0004A30B0021DF70",44.979,16.7091,"","","Prijedor","",25724242,"2024-03-25T13:34:21",3,"NO ERROR",17.15,34.7,993.96,0.1,0.14,0.14],
    [1742,363171,"Vazduh","Libelium","0004A30B0021DF70",44.979,16.7091,"","","Prijedor","",25725182,"2024-03-25T14:35:03",3,"NO ERROR",19.45,31.9,993.26,0.02,0.02,0.02],
    [1743,363171,"Vazduh","Libelium","0004A30B0021DF70",44.979,16.7091,"","","Prijedor","",25726059,"2024-03-25T15:35:45",3,"NO ERROR",20.57,30,992.71,0.04,0.07,0.07],
    [1744,363171,"Vazduh","Libelium","0004A30B0021DF70",44.979,16.7091,"","","Prijedor","",25726934,"2024-03-25T16:36:27",3,"NO ERROR",15.95,32.5,992.31,0.07,0.07,0.07],
    [1745,363171,"Vazduh","Libelium","0004A30B0021DF70",44.979,16.7091,"","","Prijedor","",25727839,"2024-03-25T17:37:09",3,"NO ERROR",14.48,33.5,992.11,0.28,0.3,0.3],
    [1746,363171,"Vazduh","Libelium","0004A30B0021DF70",44.979,16.7091,"","","Prijedor","",25728638,"2024-03-25T18:37:51",3,"NO ERROR",12.36,38.8,992.12,0.21,0.23,0.23],
    [1747,363171,"Vazduh","Libelium","0004A30B0021DF70",44.979,16.7091,"","","Prijedor","",25729397,"2024-03-25T19:38:33",3,"NO ERROR",10.68,46,992.63,0.25,0.26,0.26],
    [1748,363171,"Vazduh","Libelium","0004A30B0021DF70",44.979,16.7091,"","","Prijedor","",25730279,"2024-03-25T20:39:16",3,"NO ERROR",9.57,50.8,993.13,0.08,0.16,0.24],
    [1749,363171,"Vazduh","Libelium","0004A30B0021DF70",44.979,16.7091,"","","Prijedor","",25731102,"2024-03-25T21:39:58",3,"NO ERROR",7.86,64.6,993.27,0.22,0.22,0.22],
    [1750,363171,"Vazduh","Libelium","0004A30B0021DF70",44.979,16.7091,"","","Prijedor","",25731912,"2024-03-25T22:40:40",3,"NO ERROR",8.25,67.5,993.77,0.51,0.54,0.54],
    [1751,363171,"Vazduh","Libelium","0004A30B0021DF70",44.979,16.7091,"","","Prijedor","",25732775,"2024-03-25T23:41:22",3,"NO ERROR",7.23,72.6,993.64,0.41,0.48,0.48],
    [1752,363171,"Vazduh","Libelium","0004A30B0021DF70",44.979,16.7091,"","","Prijedor","",25733940,"2024-03-26T00:42:04",3,"NO ERROR",6.79,78.5,993.28,0.38,0.42,0.42],
    [1753,363171,"Vazduh","Libelium","0004A30B0021DF70",44.979,16.7091,"","","Prijedor","",25734904,"2024-03-26T01:42:47",3,"NO ERROR",5.69,89.5,993.08,0.12,0.14,0.14],
    [1754,363171,"Vazduh","Libelium","0004A30B0021DF70",44.979,16.7091,"","","Prijedor","",25735767,"2024-03-26T02:43:29",3,"NO ERROR",5.01,92.1,992.95,0.39,0.41,0.41],
    [1755,363171,"Vazduh","Libelium","0004A30B0021DF70",44.979,16.7091,"","","Prijedor","",25736648,"2024-03-26T03:44:11",3,"NO ERROR",5.33,83.8,992.53,0.03,0.03,0.03],
    [1756,363171,"Vazduh","Libelium","0004A30B0021DF70",44.979,16.7091,"","","Prijedor","",25737600,"2024-03-26T04:44:53",3,"NO ERROR",4.33,93,992.55,0.42,0.44,0.44],
    [1757,363171,"Vazduh","Libelium","0004A30B0021DF70",44.979,16.7091,"","","Prijedor","",25738527,"2024-03-26T05:45:35",3,"NO ERROR",3.8,92,991.1,0.36,0.39,0.39],
    [1758,363171,"Vazduh","Libelium","0004A30B0021DF70",44.979,16.7091,"","","Prijedor","",25739391,"2024-03-26T06:46:24",3,"NO ERROR",7.05,79.1,991.98,0.06,0.16,0.23],
    [1759,363171,"Vazduh","Libelium","0004A30B0021DF70",44.979,16.7091,"","","Prijedor","",25740250,"2024-03-26T07:47:06",3,"NO ERROR",13.17,55.6,991.25,0.12,0.16,0.18],
    [1760,363171,"Vazduh","Libelium","0004A30B0021DF70",44.979,16.7091,"","","Prijedor","",25741104,"2024-03-26T08:47:54",3,"NO ERROR",15.09,48.7,991.64,0.03,0.03,0.03],
    [1761,363171,"Vazduh","Libelium","0004A30B0021DF70",44.979,16.7091,"","","Prijedor","",25741926,"2024-03-26T09:48:36",3,"NO ERROR",15.22,48.3,990.51,0.17,0.31,0.39],
    [1762,363171,"Vazduh","Libelium","0004A30B0021DF70",44.979,16.7091,"","","Prijedor","",25742742,"2024-03-26T10:49:18",3,"NO ERROR",16.75,38.3,989.67,0.1,0.11,0.11],
    [1763,363171,"Vazduh","Libelium","0004A30B0021DF70",44.979,16.7091,"","","Prijedor","",25743578,"2024-03-26T11:50:01",3,"NO ERROR",17.85,34.7,989.03,0.04,0.07,0.07],
    [1764,363171,"Vazduh","Libelium","0004A30B0021DF70",44.979,16.7091,"","","Prijedor","",25744569,"2024-03-26T12:50:43",3,"NO ERROR",17.56,34.8,988.1,0.02,0.02,0.02],
    [1765,363171,"Vazduh","Libelium","0004A30B0021DF70",44.979,16.7091,"","","Prijedor","",25745490,"2024-03-26T13:51:25",3,"NO ERROR",18.46,35.3,987.37,0.07,0.07,0.07],
    [1766,363171,"Vazduh","Libelium","0004A30B0021DF70",44.979,16.7091,"","","Prijedor","",25746345,"2024-03-26T14:52:07",3,"NO ERROR",17.6,38.6,986.84,0.33,0.35,0.35],
    [1767,363171,"Vazduh","Libelium","0004A30B0021DF70",44.979,16.7091,"","","Prijedor","",25747203,"2024-03-26T15:52:49",3,"NO ERROR",17.1,39.5,986.6,0.33,0.58,1.95],
    [1768,363171,"Vazduh","Libelium","0004A30B0021DF70",44.979,16.7091,"","","Prijedor","",25748064,"2024-03-26T16:53:31",3,"NO ERROR",16.33,41.7,986.26,0.42,0.8,1],
    [1769,363171,"Vazduh","Libelium","0004A30B0021DF70",44.979,16.7091,"","","Prijedor","",25748891,"2024-03-26T17:54:13",3,"NO ERROR",15.19,50.3,985.64,0.34,0.4,0.4],
    [1770,363171,"Vazduh","Libelium","0004A30B0021DF70",44.979,16.7091,"","","Prijedor","",25749647,"2024-03-26T18:54:56",3,"NO ERROR",13.14,69.7,985.35,0.31,0.37,0.38],
    [1771,363171,"Vazduh","Libelium","0004A30B0021DF70",44.979,16.7091,"","","Prijedor","",25750451,"2024-03-26T19:55:38",3,"NO ERROR",12.25,81.4,985.07,0.28,0.29,0.29],
    [1772,363171,"Vazduh","Libelium","0004A30B0021DF70",44.979,16.7091,"","","Prijedor","",25751238,"2024-03-26T20:56:20",3,"NO ERROR",11.26,90.7,985.16,0.57,0.7,0.73],
    [1773,363171,"Vazduh","Libelium","0004A30B0021DF70",44.979,16.7091,"","","Prijedor","",25752051,"2024-03-26T21:57:02",3,"NO ERROR",10.83,95.8,985.44,0.77,0.96,0.99],
    [1774,363171,"Vazduh","Libelium","0004A30B0021DF70",44.979,16.7091,"","","Prijedor","",25752891,"2024-03-26T22:57:44",3,"NO ERROR",10.74,98.4,985.71,0.77,0.85,0.85],
    [1775,363171,"Vazduh","Libelium","0004A30B0021DF70",44.979,16.7091,"","","Prijedor","",25753829,"2024-03-26T23:58:27",3,"NO ERROR",10.35,100,984.82,0.82,0.86,0.86],
    [1776,363171,"Vazduh","Libelium","0004A30B0021DF70",44.979,16.7091,"","","Prijedor","",25754813,"2024-03-27T00:59:09",3,"NO ERROR",9.6,100,984.12,0.51,0.6,0.6],
    [1777,363171,"Vazduh","Libelium","0004A30B0021DF70",44.979,16.7091,"","","Prijedor","",25755727,"2024-03-27T01:59:51",3,"NO ERROR",9.41,100,984.59,0.39,0.42,0.43],
    [1778,363171,"Vazduh","Libelium","0004A30B0021DF70",44.979,16.7091,"","","Prijedor","",25756558,"2024-03-27T03:00:33",3,"NO ERROR",9.71,100,984.49,0.2,0.25,0.25],
    [1779,363171,"Vazduh","Libelium","0004A30B0021DF70",44.979,16.7091,"","","Prijedor","",25757466,"2024-03-27T04:01:16",3,"NO ERROR",8.6,100,983.94,0.67,0.75,0.75],
    [1780,363171,"Vazduh","Libelium","0004A30B0021DF70",44.979,16.7091,"","","Prijedor","",25758492,"2024-03-27T05:01:58",3,"NO ERROR",7.43,100,983.68,0.32,0.35,0.35],
    [1781,363171,"Vazduh","Libelium","0004A30B0021DF70",44.979,16.7091,"","","Prijedor","",25759437,"2024-03-27T06:02:40",3,"NO ERROR",7.15,100,984.2,0.77,0.92,0.92],
    [1782,363171,"Vazduh","Libelium","0004A30B0021DF70",44.979,16.7091,"","","Prijedor","",25760266,"2024-03-27T07:03:22",3,"NO ERROR",9.77,100,984.21,0.4,0.82,1.06],
    [1783,363171,"Vazduh","Libelium","0004A30B0021DF70",44.979,16.7091,"","","Prijedor","",25761187,"2024-03-27T08:04:04",3,"NO ERROR",13.14,89.6,983.84,0.61,0.83,0.98],
    [1784,363171,"Vazduh","Libelium","0004A30B0021DF70",44.979,16.7091,"","","Prijedor","",25762042,"2024-03-27T09:04:47",3,"NO ERROR",15.38,77.6,983.43,0.23,0.3,0.31],
    [1785,363171,"Vazduh","Libelium","0004A30B0021DF70",44.979,16.7091,"","","Prijedor","",25762905,"2024-03-27T10:05:29",3,"NO ERROR",18.11,68.6,982.8,0.21,0.26,0.26],
    [1786,363171,"Vazduh","Libelium","0004A30B0021DF70",44.979,16.7091,"","","Prijedor","",25763754,"2024-03-27T11:06:11",3,"NO ERROR",20.86,58.3,982.22,0.13,0.15,0.15],
    [1787,363171,"Vazduh","Libelium","0004A30B0021DF70",44.979,16.7091,"","","Prijedor","",25764614,"2024-03-27T12:06:53",3,"NO ERROR",20.92,60.2,981.38,0.27,0.32,0.32],
    [1788,363171,"Vazduh","Libelium","0004A30B0021DF70",44.979,16.7091,"","","Prijedor","",25765492,"2024-03-27T13:07:35",3,"NO ERROR",21.13,60.6,980.49,0.87,1.2,1.63],
    [1789,363171,"Vazduh","Libelium","0004A30B0021DF70",44.979,16.7091,"","","Prijedor","",25766410,"2024-03-27T14:08:17",3,"NO ERROR",22.24,58.4,979.46,1.89,2.33,2.77],
    [1790,363171,"Vazduh","Libelium","0004A30B0021DF70",44.979,16.7091,"","","Prijedor","",25767232,"2024-03-27T15:08:59",3,"NO ERROR",23.76,48.8,978.96,3.16,4.37,4.57],
    [1791,363171,"Vazduh","Libelium","0004A30B0021DF70",44.979,16.7091,"","","Prijedor","",25768087,"2024-03-27T16:09:41",3,"NO ERROR",21.9,51.8,978.41,4,4.96,5.11],
    [1792,363171,"Vazduh","Libelium","0004A30B0021DF70",44.979,16.7091,"","","Prijedor","",25768939,"2024-03-27T17:10:23",3,"NO ERROR",21.33,51,977.81,5.44,7.08,8],
    [1793,363171,"Vazduh","Libelium","0004A30B0021DF70",44.979,16.7091,"","","Prijedor","",25769748,"2024-03-27T18:11:06",3,"NO ERROR",20.66,52.3,976.71,4.86,6.35,7.14],
    [1794,363171,"Vazduh","Libelium","0004A30B0021DF70",44.979,16.7091,"","","Prijedor","",25770499,"2024-03-27T19:11:54",3,"NO ERROR",19.83,59,976.07,5.9,7.77,8.21],
    [1795,363171,"Vazduh","Libelium","0004A30B0021DF70",44.979,16.7091,"","","Prijedor","",25771371,"2024-03-27T20:12:36",3,"NO ERROR",16.29,86.1,978.35,1.62,2.09,2.2],
    [1796,363171,"Vazduh","Libelium","0004A30B0021DF70",44.979,16.7091,"","","Prijedor","",25772193,"2024-03-27T21:13:18",3,"NO ERROR",11.59,100,981.39,0.43,0.55,0.55],
    [1797,363171,"Vazduh","Libelium","0004A30B0021DF70",44.979,16.7091,"","","Prijedor","",25772988,"2024-03-27T22:14:00",3,"NO ERROR",12.04,100,981.26,0.53,0.68,0.68],
    [1798,363171,"Vazduh","Libelium","0004A30B0021DF70",44.979,16.7091,"","","Prijedor","",25773801,"2024-03-27T23:14:42",3,"NO ERROR",11.5,100,981.02,0.22,0.44,0.6],
    [1799,363171,"Vazduh","Libelium","0004A30B0021DF70",44.979,16.7091,"","","Prijedor","",25774832,"2024-03-28T00:15:31",3,"NO ERROR",11.13,100,981.63,0.19,0.25,0.25],
    [1800,363171,"Vazduh","Libelium","0004A30B0021DF70",44.979,16.7091,"","","Prijedor","",25775707,"2024-03-28T01:16:13",3,"NO ERROR",10.36,100,982.32,0.08,0.09,0.09],
    [1801,363171,"Vazduh","Libelium","0004A30B0021DF70",44.979,16.7091,"","","Prijedor","",25776586,"2024-03-28T02:16:55",3,"NO ERROR",9.96,100,983.08,0.05,0.05,0.05],
    [1802,363171,"Vazduh","Libelium","0004A30B0021DF70",44.979,16.7091,"","","Prijedor","",25777400,"2024-03-28T03:17:37",3,"NO ERROR",9.86,82,984.3,0,0,0],
    [1803,363171,"Vazduh","Libelium","0004A30B0021DF70",44.979,16.7091,"","","Prijedor","",25778339,"2024-03-28T04:18:19",3,"NO ERROR",10.15,74.1,985.34,0.18,0.28,0.3],
    [1804,363171,"Vazduh","Libelium","0004A30B0021DF70",44.979,16.7091,"","","Prijedor","",25779282,"2024-03-28T05:19:08",3,"NO ERROR",10.06,71.1,985.8,0.05,0.05,0.05],
    [1805,363171,"Vazduh","Libelium","0004A30B0021DF70",44.979,16.7091,"","","Prijedor","",25780188,"2024-03-28T06:19:50",3,"NO ERROR",11.55,65.7,986.71,0.06,0.16,0.23],
    [1806,363171,"Vazduh","Libelium","0004A30B0021DF70",44.979,16.7091,"","","Prijedor","",25781046,"2024-03-28T07:20:32",3,"NO ERROR",17.08,52.4,986.81,0.26,0.32,0.33],
    [1807,363171,"Vazduh","Libelium","0004A30B0021DF70",44.979,16.7091,"","","Prijedor","",25781961,"2024-03-28T08:21:14",3,"NO ERROR",18.54,47.2,986.95,0.24,0.27,0.27],
    [1808,363171,"Vazduh","Libelium","0004A30B0021DF70",44.979,16.7091,"","","Prijedor","",25782773,"2024-03-28T09:21:56",3,"NO ERROR",20.37,42.6,987.47,0.14,0.17,0.17],
    [1809,363171,"Vazduh","Libelium","0004A30B0021DF70",44.979,16.7091,"","","Prijedor","",25783586,"2024-03-28T10:22:39",3,"NO ERROR",19.29,43.8,987.47,0.21,0.33,0.42],
    [1810,363171,"Vazduh","Libelium","0004A30B0021DF70",44.979,16.7091,"","","Prijedor","",25784486,"2024-03-28T11:23:21",3,"NO ERROR",19.11,45,988.23,0.12,0.29,0.44],
    [1811,363171,"Vazduh","Libelium","0004A30B0021DF70",44.979,16.7091,"","","Prijedor","",25785431,"2024-03-28T12:24:03",3,"NO ERROR",18.44,47.3,988.33,0.11,0.2,0.22],
    [1812,363171,"Vazduh","Libelium","0004A30B0021DF70",44.979,16.7091,"","","Prijedor","",25786311,"2024-03-28T13:24:45",3,"NO ERROR",18.5,48.7,988.09,0,0,0],
    [1813,363171,"Vazduh","Libelium","0004A30B0021DF70",44.979,16.7091,"","","Prijedor","",25787223,"2024-03-28T14:25:27",3,"NO ERROR",19.28,46.4,987.72,0.22,0.24,0.24],
    [1814,363171,"Vazduh","Libelium","0004A30B0021DF70",44.979,16.7091,"","","Prijedor","",25788080,"2024-03-28T15:26:09",3,"NO ERROR",23.03,40,987.66,0.32,0.54,0.57],
    [1815,363171,"Vazduh","Libelium","0004A30B0021DF70",44.979,16.7091,"","","Prijedor","",25788950,"2024-03-28T16:26:51",3,"NO ERROR",20.7,43.5,987.72,0.08,0.18,0.27],
    [1816,363171,"Vazduh","Libelium","0004A30B0021DF70",44.979,16.7091,"","","Prijedor","",25789804,"2024-03-28T17:27:33",3,"NO ERROR",18.49,49.9,988.03,0.17,0.18,0.18],
    [1817,363171,"Vazduh","Libelium","0004A30B0021DF70",44.979,16.7091,"","","Prijedor","",25790595,"2024-03-28T18:28:15",3,"NO ERROR",16.89,56.3,987.87,0.19,0.25,0.25],
    [1818,363171,"Vazduh","Libelium","0004A30B0021DF70",44.979,16.7091,"","","Prijedor","",25791349,"2024-03-28T19:28:57",3,"NO ERROR",16.5,60.2,988.75,0.34,0.43,0.43],
    [1819,363171,"Vazduh","Libelium","0004A30B0021DF70",44.979,16.7091,"","","Prijedor","",25792233,"2024-03-28T20:29:46",3,"NO ERROR",17.91,58,989.64,0.88,1.19,1.77],
    [1820,363171,"Vazduh","Libelium","0004A30B0021DF70",44.979,16.7091,"","","Prijedor","",25793088,"2024-03-28T21:30:28",3,"NO ERROR",17.39,63.5,990.36,0.49,0.58,0.58],
    [1821,363171,"Vazduh","Libelium","0004A30B0021DF70",44.979,16.7091,"","","Prijedor","",25793908,"2024-03-28T22:31:10",3,"NO ERROR",17.09,62.6,991.4,1.01,1.11,1.11],
    [1822,363171,"Vazduh","Libelium","0004A30B0021DF70",44.979,16.7091,"","","Prijedor","",25794737,"2024-03-28T23:31:52",3,"NO ERROR",16.84,62.9,992.65,0.59,0.68,0.68],
    [1823,363171,"Vazduh","Libelium","0004A30B0021DF70",44.979,16.7091,"","","Prijedor","",25795805,"2024-03-29T00:32:34",3,"NO ERROR",16.13,67.1,993.87,0.89,1.13,1.15],
    [1824,363171,"Vazduh","Libelium","0004A30B0021DF70",44.979,16.7091,"","","Prijedor","",25796610,"2024-03-29T01:33:16",3,"NO ERROR",14.87,72.6,994.71,0.85,1.04,1.06],
    [1825,363171,"Vazduh","Libelium","0004A30B0021DF70",44.979,16.7091,"","","Prijedor","",25797406,"2024-03-29T02:33:59",3,"NO ERROR",14.43,75.8,995.59,0.65,0.89,1.38],
    [1826,363171,"Vazduh","Libelium","0004A30B0021DF70",44.979,16.7091,"","","Prijedor","",25798220,"2024-03-29T03:34:41",3,"NO ERROR",11.97,93.1,996.12,1.07,1.23,1.24],
    [1827,363171,"Vazduh","Libelium","0004A30B0021DF70",44.979,16.7091,"","","Prijedor","",25799144,"2024-03-29T04:35:23",3,"NO ERROR",11.34,100,996.47,1,1.24,1.25],
    [1828,363171,"Vazduh","Libelium","0004A30B0021DF70",44.979,16.7091,"","","Prijedor","",25800045,"2024-03-29T05:36:05",3,"NO ERROR",10.28,100,997.36,0.8,0.92,0.92],
    [1829,363171,"Vazduh","Libelium","0004A30B0021DF70",44.979,16.7091,"","","Prijedor","",25800925,"2024-03-29T06:36:47",3,"NO ERROR",16.45,74.7,997.65,1.12,1.58,1.75],
    [1830,363171,"Vazduh","Libelium","0004A30B0021DF70",44.979,16.7091,"","","Prijedor","",25801812,"2024-03-29T07:37:29",3,"NO ERROR",20.22,60,998.09,0.81,1.03,1.14],
    [1831,363171,"Vazduh","Libelium","0004A30B0021DF70",44.979,16.7091,"","","Prijedor","",25802675,"2024-03-29T08:38:18",3,"NO ERROR",23.89,48.8,997.91,0.67,0.83,0.85],
    [1832,363171,"Vazduh","Libelium","0004A30B0021DF70",44.979,16.7091,"","","Prijedor","",25803504,"2024-03-29T09:39:06",3,"NO ERROR",23.34,49.6,998.3,0.53,0.76,0.86],
    [1833,363171,"Vazduh","Libelium","0004A30B0021DF70",44.979,16.7091,"","","Prijedor","",25804307,"2024-03-29T10:39:48",3,"NO ERROR",22.83,48.8,998.79,0.69,0.85,0.87],
    [1834,363171,"Vazduh","Libelium","0004A30B0021DF70",44.979,16.7091,"","","Prijedor","",25805188,"2024-03-29T11:40:30",3,"NO ERROR",22.98,48.1,998.45,0.48,0.6,0.61],
    [1835,363171,"Vazduh","Libelium","0004A30B0021DF70",44.979,16.7091,"","","Prijedor","",25806122,"2024-03-29T12:41:12",3,"NO ERROR",24.23,44.6,997.68,0.33,0.44,0.45],
    [1836,363171,"Vazduh","Libelium","0004A30B0021DF70",44.979,16.7091,"","","Prijedor","",25807047,"2024-03-29T13:41:54",3,"NO ERROR",23.94,46.2,997.51,0.43,0.71,0.82],
    [1837,363171,"Vazduh","Libelium","0004A30B0021DF70",44.979,16.7091,"","","Prijedor","",25808011,"2024-03-29T14:42:36",3,"NO ERROR",25.97,41,997.22,0.5,0.7,0.71],
    [1838,363171,"Vazduh","Libelium","0004A30B0021DF70",44.979,16.7091,"","","Prijedor","",25808949,"2024-03-29T15:43:18",3,"NO ERROR",24.43,40.1,996.72,0.38,0.6,1.02],
    [1839,363171,"Vazduh","Libelium","0004A30B0021DF70",44.979,16.7091,"","","Prijedor","",25809878,"2024-03-29T16:44:00",3,"NO ERROR",23.96,40.6,996.46,0.28,0.31,0.31],
    [1840,363171,"Vazduh","Libelium","0004A30B0021DF70",44.979,16.7091,"","","Prijedor","",25810767,"2024-03-29T17:44:42",3,"NO ERROR",22.42,41.5,996.2,0.24,0.55,0.74],
    [1841,363171,"Vazduh","Libelium","0004A30B0021DF70",44.979,16.7091,"","","Prijedor","",25811585,"2024-03-29T18:45:24",3,"NO ERROR",19.7,49,996.29,0.42,0.69,0.79],
    [1842,363171,"Vazduh","Libelium","0004A30B0021DF70",44.979,16.7091,"","","Prijedor","",25812454,"2024-03-29T19:46:06",3,"NO ERROR",17.99,56.9,996.6,1.24,1.63,1.79],
    [1843,363171,"Vazduh","Libelium","0004A30B0021DF70",44.979,16.7091,"","","Prijedor","",25813372,"2024-03-29T20:46:48",3,"NO ERROR",16.69,66,996.85,0.97,1.11,1.11],
    [1844,363171,"Vazduh","Libelium","0004A30B0021DF70",44.979,16.7091,"","","Prijedor","",25814240,"2024-03-29T21:47:31",3,"NO ERROR",14.55,79,996.91,0.68,0.92,2.23],
    [1845,363171,"Vazduh","Libelium","0004A30B0021DF70",44.979,16.7091,"","","Prijedor","",25815131,"2024-03-29T22:48:13",3,"NO ERROR",15.99,69.3,997.09,0.76,0.91,0.91],
    [1846,363171,"Vazduh","Libelium","0004A30B0021DF70",44.979,16.7091,"","","Prijedor","",25815983,"2024-03-29T23:48:55",3,"NO ERROR",16.08,65.7,997.16,0.19,0.26,0.26],
    [1847,363171,"Vazduh","Libelium","0004A30B0021DF70",44.979,16.7091,"","","Prijedor","",25817097,"2024-03-30T00:49:37",3,"NO ERROR",15.37,68.4,997.04,0.78,1.05,1.07],
    [1848,363171,"Vazduh","Libelium","0004A30B0021DF70",44.979,16.7091,"","","Prijedor","",25818041,"2024-03-30T01:50:19",3,"NO ERROR",12.54,92.9,996.52,0.72,1.04,1.05],
    [1849,363171,"Vazduh","Libelium","0004A30B0021DF70",44.979,16.7091,"","","Prijedor","",25818894,"2024-03-30T02:51:01",3,"NO ERROR",11.08,98.9,996.29,0.46,0.53,0.53],
    [1850,363171,"Vazduh","Libelium","0004A30B0021DF70",44.979,16.7091,"","","Prijedor","",25819756,"2024-03-30T03:51:43",3,"NO ERROR",10.13,100,996.11,0.87,1.32,1.45],
    [1851,363171,"Vazduh","Libelium","0004A30B0021DF70",44.979,16.7091,"","","Prijedor","",25820670,"2024-03-30T04:52:25",3,"NO ERROR",9.37,100,996.07,0.64,1.12,1.17],
    [1852,363171,"Vazduh","Libelium","0004A30B0021DF70",44.979,16.7091,"","","Prijedor","",25821489,"2024-03-30T05:53:07",3,"NO ERROR",9.36,100,996.21,0.82,1.18,1.23],
    [1853,363171,"Vazduh","Libelium","0004A30B0021DF70",44.979,16.7091,"","","Prijedor","",25822331,"2024-03-30T06:53:49",3,"NO ERROR",12.68,91,996.03,0.79,1.17,4.8],
    [1854,363171,"Vazduh","Libelium","0004A30B0021DF70",44.979,16.7091,"","","Prijedor","",25823196,"2024-03-30T07:54:31",3,"NO ERROR",13.81,85.4,995.86,0.81,1.12,1.14],
    [1855,363171,"Vazduh","Libelium","0004A30B0021DF70",44.979,16.7091,"","","Prijedor","",25824044,"2024-03-30T08:55:13",3,"NO ERROR",21.75,60,995.97,1.22,1.69,1.73],
    [1856,363171,"Vazduh","Libelium","0004A30B0021DF70",44.979,16.7091,"","","Prijedor","",25824897,"2024-03-30T09:55:56",3,"NO ERROR",22.74,46.2,995.66,0.41,0.52,0.53],
    [1857,363171,"Vazduh","Libelium","0004A30B0021DF70",44.979,16.7091,"","","Prijedor","",25825817,"2024-03-30T10:56:38",3,"NO ERROR",25.63,39.8,995.02,0.17,0.2,0.2],
    [1858,363171,"Vazduh","Libelium","0004A30B0021DF70",44.979,16.7091,"","","Prijedor","",25826747,"2024-03-30T11:57:20",3,"NO ERROR",26.12,37.9,994.44,0.25,0.33,0.34],
    [1859,363171,"Vazduh","Libelium","0004A30B0021DF70",44.979,16.7091,"","","Prijedor","",25827711,"2024-03-30T12:58:08",3,"NO ERROR",28.14,35.7,993.19,0.81,1.48,1.74],
    [1860,363171,"Vazduh","Libelium","0004A30B0021DF70",44.979,16.7091,"","","Prijedor","",25828660,"2024-03-30T13:58:50",3,"NO ERROR",28.18,33.7,992.5,1.12,1.54,1.56],
    [1861,363171,"Vazduh","Libelium","0004A30B0021DF70",44.979,16.7091,"","","Prijedor","",25829552,"2024-03-30T14:59:32",3,"NO ERROR",28.96,31.1,992.06,1.49,2.26,2.31],
    [1862,363171,"Vazduh","Libelium","0004A30B0021DF70",44.979,16.7091,"","","Prijedor","",25830434,"2024-03-30T16:00:14",3,"NO ERROR",28.1,29.5,991.42,0.95,1.47,2.05],
    [1863,363171,"Vazduh","Libelium","0004A30B0021DF70",44.979,16.7091,"","","Prijedor","",25831342,"2024-03-30T17:00:56",3,"NO ERROR",25.48,29.8,991.67,0.81,1.19,1.32],
    [1864,363171,"Vazduh","Libelium","0004A30B0021DF70",44.979,16.7091,"","","Prijedor","",25832230,"2024-03-30T18:01:38",3,"NO ERROR",23.88,26.2,992.03,0.41,0.51,0.51],
    [1865,363171,"Vazduh","Libelium","0004A30B0021DF70",44.979,16.7091,"","","Prijedor","",25833040,"2024-03-30T19:02:20",3,"NO ERROR",22.03,26.4,992.21,0.47,0.73,0.76],
    [1866,363171,"Vazduh","Libelium","0004A30B0021DF70",44.979,16.7091,"","","Prijedor","",25833918,"2024-03-30T20:03:02",3,"NO ERROR",21.53,27.6,992.61,0.94,1.47,1.51],
    [1867,363171,"Vazduh","Libelium","0004A30B0021DF70",44.979,16.7091,"","","Prijedor","",25834786,"2024-03-30T21:03:44",3,"NO ERROR",20.09,29.3,992.36,0.5,1.16,24.23],
    [1868,363171,"Vazduh","Libelium","0004A30B0021DF70",44.979,16.7091,"","","Prijedor","",25835635,"2024-03-30T22:04:26",3,"NO ERROR",19.47,30.4,992.77,0.99,1.34,1.36],
    [1869,363171,"Vazduh","Libelium","0004A30B0021DF70",44.979,16.7091,"","","Prijedor","",25836504,"2024-03-30T23:05:09",3,"NO ERROR",19.7,30.2,992.74,0.53,0.96,1.14],
    [1870,363171,"Vazduh","Libelium","0004A30B0021DF70",44.979,16.7091,"","","Prijedor","",25837596,"2024-03-31T00:05:51",3,"NO ERROR",17.6,34.6,992.73,0.62,0.87,0.89],
    [1871,363171,"Vazduh","Libelium","0004A30B0021DF70",44.979,16.7091,"","","Prijedor","",25838577,"2024-03-31T01:06:33",3,"NO ERROR",17.19,35.7,992.24,1.05,1.7,1.89],
    [1872,363171,"Vazduh","Libelium","0004A30B0021DF70",44.979,16.7091,"","","Prijedor","",25839677,"2024-03-31T03:07:15",3,"NO ERROR",16.7,37.9,991.78,0.98,1.76,2.48],
    [1873,363171,"Vazduh","Libelium","0004A30B0021DF70",44.979,16.7091,"","","Prijedor","",25840592,"2024-03-31T04:08:03",3,"NO ERROR",14.62,45.1,992.16,0.93,1.53,11.6],
    [1874,363171,"Vazduh","Libelium","0004A30B0021DF70",44.979,16.7091,"","","Prijedor","",25841553,"2024-03-31T05:08:45",3,"NO ERROR",13.01,52.9,993.02,0.69,1.04,1.08],
    [1875,363171,"Vazduh","Libelium","0004A30B0021DF70",44.979,16.7091,"","","Prijedor","",25842564,"2024-03-31T06:09:27",3,"NO ERROR",12.91,54.1,992.77,0.23,0.36,0.38],
    [1876,363171,"Vazduh","Libelium","0004A30B0021DF70",44.979,16.7091,"","","Prijedor","",25843399,"2024-03-31T07:10:09",3,"NO ERROR",12.23,61.6,992.54,1.09,1.83,2.47],
    [1877,363171,"Vazduh","Libelium","0004A30B0021DF70",44.979,16.7091,"","","Prijedor","",25844264,"2024-03-31T08:10:51",3,"NO ERROR",17.81,45.7,991.4,0.58,1.11,1.31],
    [1878,363171,"Vazduh","Libelium","0004A30B0021DF70",44.979,16.7091,"","","Prijedor","",25845200,"2024-03-31T09:11:33",3,"NO ERROR",22.62,36.7,991.78,0.96,1.58,2.09],
    [1879,363171,"Vazduh","Libelium","0004A30B0021DF70",44.979,16.7091,"","","Prijedor","",25846064,"2024-03-31T10:12:21",3,"NO ERROR",23.65,37.5,991.53,1.78,2.69,2.9],
    [1880,363171,"Vazduh","Libelium","0004A30B0021DF70",44.979,16.7091,"","","Prijedor","",25846902,"2024-03-31T11:13:03",3,"NO ERROR",25.51,34.4,990.9,2.87,4.13,5.63],
    [1881,363171,"Vazduh","Libelium","0004A30B0021DF70",44.979,16.7091,"","","Prijedor","",25847842,"2024-03-31T12:13:45",3,"NO ERROR",27.79,30.6,990.99,3.1,5.3,10.81],
    [1882,363171,"Vazduh","Libelium","0004A30B0021DF70",44.979,16.7091,"","","Prijedor","",25848810,"2024-03-31T13:14:28",3,"NO ERROR",28.71,29.4,990.85,5.81,8.14,11.95],
    [1883,363171,"Vazduh","Libelium","0004A30B0021DF70",44.979,16.7091,"","","Prijedor","",25849742,"2024-03-31T14:15:16",3,"NO ERROR",27.65,29.8,990.33,4.2,6.53,7],
    [1884,363171,"Vazduh","Libelium","0004A30B0021DF70",44.979,16.7091,"","","Prijedor","",25850723,"2024-03-31T15:15:58",3,"NO ERROR",28.17,30.1,990.42,5.55,8.65,10.67],
    [1885,363171,"Vazduh","Libelium","0004A30B0021DF70",44.979,16.7091,"","","Prijedor","",25851649,"2024-03-31T16:16:40",3,"NO ERROR",28.23,29.8,990.86,5.24,7.93,22.52],
    [1886,363171,"Vazduh","Libelium","0004A30B0021DF70",44.979,16.7091,"","","Prijedor","",25852563,"2024-03-31T17:17:22",3,"NO ERROR",25.97,32.5,991.59,5.53,8.07,8.59],
    [1887,363171,"Vazduh","Libelium","0004A30B0021DF70",44.979,16.7091,"","","Prijedor","",25853487,"2024-03-31T18:18:04",3,"NO ERROR",24.27,35.4,991.36,5.01,7.96,9.32],
    [1888,363171,"Vazduh","Libelium","0004A30B0021DF70",44.979,16.7091,"","","Prijedor","",25854364,"2024-03-31T19:18:46",3,"NO ERROR",23.27,37.5,992.12,5.1,8.02,8.99],
    [1889,363171,"Vazduh","Libelium","0004A30B0021DF70",44.979,16.7091,"","","Prijedor","",25855194,"2024-03-31T20:19:28",3,"NO ERROR",22.37,39.6,992.53,5,7.53,8.36],
    [1890,363171,"Vazduh","Libelium","0004A30B0021DF70",44.979,16.7091,"","","Prijedor","",25856113,"2024-03-31T21:20:10",3,"NO ERROR",20.97,42.4,992.92,3.57,4.94,5.21],
    [1891,363171,"Vazduh","Libelium","0004A30B0021DF70",44.979,16.7091,"","","Prijedor","",25857008,"2024-03-31T22:20:58",3,"NO ERROR",19.96,45.9,993.08,4.15,6.13,7.9],
    [1892,363171,"Vazduh","Libelium","0004A30B0021DF70",44.979,16.7091,"","","Prijedor","",25857910,"2024-03-31T23:21:40",3,"NO ERROR",20.34,45.8,992.79,4.48,6.48,6.58],
    [1893,363171,"Vazduh","Libelium","0004A30B0021DF70",44.979,16.7091,"","","Prijedor","",25859090,"2024-04-01T00:22:22",3,"NO ERROR",19.65,47.7,992.35,4.7,6.77,7.51],
    [1894,363171,"Vazduh","Libelium","0004A30B0021DF70",44.979,16.7091,"","","Prijedor","",25860065,"2024-04-01T01:23:04",3,"NO ERROR",19.52,51.1,991.92,4.42,7.45,8.79],
    [1895,363171,"Vazduh","Libelium","0004A30B0021DF70",44.979,16.7091,"","","Prijedor","",25860949,"2024-04-01T02:23:47",3,"NO ERROR",19.71,50.4,991.53,4.19,6.1,6.59],
    [1896,363171,"Vazduh","Libelium","0004A30B0021DF70",44.979,16.7091,"","","Prijedor","",25861878,"2024-04-01T03:24:29",3,"NO ERROR",19.88,49.5,991.01,3.88,5.97,6.9],
    [1897,363171,"Vazduh","Libelium","0004A30B0021DF70",44.979,16.7091,"","","Prijedor","",25862751,"2024-04-01T04:25:11",3,"NO ERROR",17.95,55.8,990.77,4.58,6.92,7.94],
    [1898,363171,"Vazduh","Libelium","0004A30B0021DF70",44.979,16.7091,"","","Prijedor","",25863763,"2024-04-01T05:25:53",3,"NO ERROR",14.96,71.8,990.76,3.93,5.94,6.64],
    [1899,363171,"Vazduh","Libelium","0004A30B0021DF70",44.979,16.7091,"","","Prijedor","",25864725,"2024-04-01T06:26:35",3,"NO ERROR",16.86,59.3,990.06,4.77,6.68,6.98],
    [1900,363171,"Vazduh","Libelium","0004A30B0021DF70",44.979,16.7091,"","","Prijedor","",25865662,"2024-04-01T07:27:23",3,"NO ERROR",20.39,45.7,990.15,7.31,10.53,10.97],
    [1901,363171,"Vazduh","Libelium","0004A30B0021DF70",44.979,16.7091,"","","Prijedor","",25866535,"2024-04-01T08:28:11",3,"NO ERROR",21.75,43.5,990.38,7.18,10.37,11.13],
    [1902,363171,"Vazduh","Libelium","0004A30B0021DF70",44.979,16.7091,"","","Prijedor","",25867474,"2024-04-01T09:28:53",3,"NO ERROR",25.85,37,990.2,6.74,9.86,10.87],
    [1903,363171,"Vazduh","Libelium","0004A30B0021DF70",44.979,16.7091,"","","Prijedor","",25868329,"2024-04-01T10:29:35",3,"NO ERROR",27.62,35.4,989.8,6.94,9.92,10.72],
    [1904,363171,"Vazduh","Libelium","0004A30B0021DF70",44.979,16.7091,"","","Prijedor","",25869173,"2024-04-01T11:30:23",3,"NO ERROR",27.61,33.8,989.1,4.53,7.16,8.68],
    [1905,363171,"Vazduh","Libelium","0004A30B0021DF70",44.979,16.7091,"","","Prijedor","",25870107,"2024-04-01T12:31:05",3,"NO ERROR",28.27,33.5,988.62,4.98,6.95,7.5],
    [1906,363171,"Vazduh","Libelium","0004A30B0021DF70",44.979,16.7091,"","","Prijedor","",25871078,"2024-04-01T13:31:47",3,"NO ERROR",29.02,30.9,987.78,3.4,4.85,5.63],
    [1907,363171,"Vazduh","Libelium","0004A30B0021DF70",44.979,16.7091,"","","Prijedor","",25871992,"2024-04-01T14:32:29",3,"NO ERROR",30.74,28.8,986.26,2.85,4.26,4.66],
    [1908,363171,"Vazduh","Libelium","0004A30B0021DF70",44.979,16.7091,"","","Prijedor","",25873798,"2024-04-01T16:34:06",3,"NO ERROR",30.63,27.2,984.69,3.4,4.9,5.49],
    [1909,363171,"Vazduh","Libelium","0004A30B0021DF70",44.979,16.7091,"","","Prijedor","",25874704,"2024-04-01T17:34:48",3,"NO ERROR",27.67,28.6,984.16,3.34,5.3,6.26],
    [1910,363171,"Vazduh","Libelium","0004A30B0021DF70",44.979,16.7091,"","","Prijedor","",25875608,"2024-04-01T18:35:30",3,"NO ERROR",25.94,32.4,983.21,3.84,5.67,31.09],
    [1911,363171,"Vazduh","Libelium","0004A30B0021DF70",44.979,16.7091,"","","Prijedor","",25876445,"2024-04-01T19:36:12",3,"NO ERROR",24.77,34.4,983.29,3.46,5.23,6.14],
    [1912,363171,"Vazduh","Libelium","0004A30B0021DF70",44.979,16.7091,"","","Prijedor","",25877257,"2024-04-01T20:36:54",3,"NO ERROR",23.78,36.9,983.63,3.85,5.32,7.35],
    [1913,363171,"Vazduh","Libelium","0004A30B0021DF70",44.979,16.7091,"","","Prijedor","",25878202,"2024-04-01T21:37:36",3,"NO ERROR",13.73,100,987.08,0.36,0.43,0.44],
    [1914,363171,"Vazduh","Libelium","0004A30B0021DF70",44.979,16.7091,"","","Prijedor","",25879030,"2024-04-01T22:38:18",3,"NO ERROR",11.81,100,989.95,0.03,0.05,0.05],
    [1915,363171,"Vazduh","Libelium","0004A30B0021DF70",44.979,16.7091,"","","Prijedor","",25879873,"2024-04-01T23:39:00",3,"NO ERROR",11.69,100,990.3,0.03,0.06,0.06],
    [1916,363171,"Vazduh","Libelium","0004A30B0021DF70",44.979,16.7091,"","","Prijedor","",25881047,"2024-04-02T00:39:42",3,"NO ERROR",11.85,100,990.7,0.18,0.19,0.2],
    [1917,363171,"Vazduh","Libelium","0004A30B0021DF70",44.979,16.7091,"","","Prijedor","",25882040,"2024-04-02T01:40:24",3,"NO ERROR",11.74,100,990.67,0.03,0.03,0.03],
    [1918,363171,"Vazduh","Libelium","0004A30B0021DF70",44.979,16.7091,"","","Prijedor","",25882949,"2024-04-02T02:41:06",3,"NO ERROR",11.75,100,991.63,0.14,0.16,0.16],
    [1919,363171,"Vazduh","Libelium","0004A30B0021DF70",44.979,16.7091,"","","Prijedor","",25883831,"2024-04-02T03:41:49",3,"NO ERROR",10.97,100,992.3,0.02,0.02,0.02],
    [1920,363171,"Vazduh","Libelium","0004A30B0021DF70",44.979,16.7091,"","","Prijedor","",25884730,"2024-04-02T04:42:31",3,"NO ERROR",11.21,100,993.22,0.03,0.06,0.06],
    [1921,363171,"Vazduh","Libelium","0004A30B0021DF70",44.979,16.7091,"","","Prijedor","",25885654,"2024-04-02T05:43:13",3,"NO ERROR",10.86,100,993.99,0.09,0.15,0.17],
    [1922,363171,"Vazduh","Libelium","0004A30B0021DF70",44.979,16.7091,"","","Prijedor","",25886519,"2024-04-02T06:43:55",3,"NO ERROR",10.65,100,994.96,0.08,0.09,0.09],
    [1923,363171,"Vazduh","Libelium","0004A30B0021DF70",44.979,16.7091,"","","Prijedor","",25887346,"2024-04-02T07:44:37",3,"NO ERROR",9.12,100,996.29,0.25,0.43,0.55],
    [1924,363171,"Vazduh","Libelium","0004A30B0021DF70",44.979,16.7091,"","","Prijedor","",25888170,"2024-04-02T08:45:19",3,"NO ERROR",10,100,997.3,0.04,0.08,0.08],
    [1925,363171,"Vazduh","Libelium","0004A30B0021DF70",44.979,16.7091,"","","Prijedor","",25889033,"2024-04-02T09:46:01",3,"NO ERROR",17.18,100,997.53,0.03,0.03,0.03],
    [1926,363171,"Vazduh","Libelium","0004A30B0021DF70",44.979,16.7091,"","","Prijedor","",25889832,"2024-04-02T10:46:43",3,"NO ERROR",16.85,75.8,997.83,0.07,0.07,0.07],
    [1927,363171,"Vazduh","Libelium","0004A30B0021DF70",44.979,16.7091,"","","Prijedor","",25890683,"2024-04-02T11:47:31",3,"NO ERROR",17.11,74.8,997.68,0.12,0.14,0.14],
    [1928,363171,"Vazduh","Libelium","0004A30B0021DF70",44.979,16.7091,"","","Prijedor","",25891531,"2024-04-02T12:48:13",3,"NO ERROR",18.89,68.1,997.06,0.08,0.12,0.13],
    [1929,363171,"Vazduh","Libelium","0004A30B0021DF70",44.979,16.7091,"","","Prijedor","",25892413,"2024-04-02T13:48:55",3,"NO ERROR",20.56,53.8,996.79,0.12,0.18,0.19],
    [1930,363171,"Vazduh","Libelium","0004A30B0021DF70",44.979,16.7091,"","","Prijedor","",25893321,"2024-04-02T14:49:37",3,"NO ERROR",24.17,38.8,996.7,0.11,0.16,0.16],
    [1931,363171,"Vazduh","Libelium","0004A30B0021DF70",44.979,16.7091,"","","Prijedor","",25895052,"2024-04-02T16:51:14",3,"NO ERROR",23.79,34.3,997.18,0.15,0.17,0.17],
    [1932,363171,"Vazduh","Libelium","0004A30B0021DF70",44.979,16.7091,"","","Prijedor","",25895974,"2024-04-02T17:51:56",3,"NO ERROR",19.41,38.3,997.44,0.11,0.13,0.14],
    [1933,363171,"Vazduh","Libelium","0004A30B0021DF70",44.979,16.7091,"","","Prijedor","",25896865,"2024-04-02T18:52:38",3,"NO ERROR",17.69,41,998.08,0.17,0.18,0.18],
    [1934,363171,"Vazduh","Libelium","0004A30B0021DF70",44.979,16.7091,"","","Prijedor","",25897683,"2024-04-02T19:53:20",3,"NO ERROR",15.35,47.6,998.79,0.38,0.72,0.9],
    [1935,363171,"Vazduh","Libelium","0004A30B0021DF70",44.979,16.7091,"","","Prijedor","",25898541,"2024-04-02T20:54:02",3,"NO ERROR",13.53,55.9,999.81,0.3,0.45,0.47],
    [1936,363171,"Vazduh","Libelium","0004A30B0021DF70",44.979,16.7091,"","","Prijedor","",25899438,"2024-04-02T21:54:44",3,"NO ERROR",12.89,62.4,1000.3,0.02,0.05,0.05],
    [1937,363171,"Vazduh","Libelium","0004A30B0021DF70",44.979,16.7091,"","","Prijedor","",25900323,"2024-04-02T22:55:32",3,"NO ERROR",11.48,72.6,1000.62,0.18,0.25,0.25],
    [1938,363171,"Vazduh","Libelium","0004A30B0021DF70",44.979,16.7091,"","","Prijedor","",25901299,"2024-04-02T23:56:14",3,"NO ERROR",9.8,88.6,1001.13,0.2,0.24,0.24],
    [1939,363171,"Vazduh","Libelium","0004A30B0021DF70",44.979,16.7091,"","","Prijedor","",25902409,"2024-04-03T00:56:56",3,"NO ERROR",8.76,99.6,1001.31,0.27,0.28,0.28],
    [1940,363171,"Vazduh","Libelium","0004A30B0021DF70",44.979,16.7091,"","","Prijedor","",25903321,"2024-04-03T01:57:38",3,"NO ERROR",7.35,100,1001.02,0.12,0.13,0.13],
    [1941,363171,"Vazduh","Libelium","0004A30B0021DF70",44.979,16.7091,"","","Prijedor","",25904253,"2024-04-03T02:58:20",3,"NO ERROR",6.66,100,1000.82,0.56,0.79,0.79],
    [1942,363171,"Vazduh","Libelium","0004A30B0021DF70",44.979,16.7091,"","","Prijedor","",25905070,"2024-04-03T03:59:03",3,"NO ERROR",6.32,100,1000.53,0.44,0.66,0.67],
    [1943,363171,"Vazduh","Libelium","0004A30B0021DF70",44.979,16.7091,"","","Prijedor","",25905911,"2024-04-03T04:59:45",3,"NO ERROR",5.06,100,1000.67,0.14,0.19,0.19],
    [1944,363171,"Vazduh","Libelium","0004A30B0021DF70",44.979,16.7091,"","","Prijedor","",25906870,"2024-04-03T06:00:27",3,"NO ERROR",5.55,100,1000.6,0.18,0.33,0.34],
    [1945,363171,"Vazduh","Libelium","0004A30B0021DF70",44.979,16.7091,"","","Prijedor","",25907748,"2024-04-03T07:01:09",3,"NO ERROR",4.45,100,1000.79,0.51,0.77,0.8],
    [1946,363171,"Vazduh","Libelium","0004A30B0021DF70",44.979,16.7091,"","","Prijedor","",25908560,"2024-04-03T08:01:51",3,"NO ERROR",8.1,100,1000.54,0.31,0.52,0.56],
    [1947,363171,"Vazduh","Libelium","0004A30B0021DF70",44.979,16.7091,"","","Prijedor","",25909444,"2024-04-03T09:02:33",3,"NO ERROR",10.93,87.5,1000.69,0.43,0.47,0.47],
    [1948,363171,"Vazduh","Libelium","0004A30B0021DF70",44.979,16.7091,"","","Prijedor","",25910271,"2024-04-03T10:03:15",3,"NO ERROR",15.24,70.8,1000.67,0.58,0.84,5.76],
    [1949,363171,"Vazduh","Libelium","0004A30B0021DF70",44.979,16.7091,"","","Prijedor","",25911056,"2024-04-03T11:03:57",3,"NO ERROR",18.52,47.4,1000.38,0.21,0.37,0.39],
    [1950,363171,"Vazduh","Libelium","0004A30B0021DF70",44.979,16.7091,"","","Prijedor","",25911910,"2024-04-03T12:04:39",3,"NO ERROR",20.27,46.4,1000.01,0.45,0.63,0.66],
    [1951,363171,"Vazduh","Libelium","0004A30B0021DF70",44.979,16.7091,"","","Prijedor","",25912846,"2024-04-03T13:05:34",3,"NO ERROR",22.31,36.3,999.51,0.08,0.19,1.2],
    [1952,363171,"Vazduh","Libelium","0004A30B0021DF70",44.979,16.7091,"","","Prijedor","",25913830,"2024-04-03T14:06:16",3,"NO ERROR",22.56,35.8,999.36,0.04,0.06,0.06],
    [1953,363171,"Vazduh","Libelium","0004A30B0021DF70",44.979,16.7091,"","","Prijedor","",25914816,"2024-04-03T15:06:58",3,"NO ERROR",19.52,36.6,999.59,0.09,0.17,0.22],
    [1954,363171,"Vazduh","Libelium","0004A30B0021DF70",44.979,16.7091,"","","Prijedor","",25915688,"2024-04-03T16:07:46",3,"NO ERROR",19.12,37.9,999.33,0.07,0.09,0.09],
    [1955,363171,"Vazduh","Libelium","0004A30B0021DF70",44.979,16.7091,"","","Prijedor","",25916743,"2024-04-03T17:22:00",3,"NO ERROR",18.88,37.7,999.44,0.05,0.15,0.23],
    [1956,363171,"Vazduh","Libelium","0004A30B0021DF70",44.979,16.7091,"","","Prijedor","",25916741,"2024-04-03T17:22:00",3,"NO ERROR",18.88,37.7,999.44,0.05,0.15,0.23],
    [1957,363171,"Vazduh","Libelium","0004A30B0021DF70",44.979,16.7091,"","","Prijedor","",25916509,"2024-04-03T17:08:28",3,"NO ERROR",18.88,37.7,999.44,0.05,0.15,0.23],
    [1958,363171,"Vazduh","Libelium","0004A30B0021DF70",44.979,16.7091,"","","Prijedor","",25917419,"2024-04-03T18:09:10",3,"NO ERROR",18.19,40.2,999.04,0.09,0.24,0.6],
    [1959,363171,"Vazduh","Libelium","0004A30B0021DF70",44.979,16.7091,"","","Prijedor","",25918213,"2024-04-03T19:09:52",3,"NO ERROR",17.13,43.2,999.09,0.11,0.28,0.36],
    [1960,363171,"Vazduh","Libelium","0004A30B0021DF70",44.979,16.7091,"","","Prijedor","",25918974,"2024-04-03T20:10:34",3,"NO ERROR",16.49,44.5,999.31,0.07,0.1,0.1],
    [1961,363171,"Vazduh","Libelium","0004A30B0021DF70",44.979,16.7091,"","","Prijedor","",25919866,"2024-04-03T21:11:22",3,"NO ERROR",15.95,47.2,999.94,0.25,0.31,0.31],
    [1962,363171,"Vazduh","Libelium","0004A30B0021DF70",44.979,16.7091,"","","Prijedor","",25920686,"2024-04-03T22:12:04",3,"NO ERROR",15.6,48.1,1000.2,0.1,0.14,0.14],
    [1963,363171,"Vazduh","Libelium","0004A30B0021DF70",44.979,16.7091,"","","Prijedor","",25921486,"2024-04-03T23:12:46",3,"NO ERROR",14.27,52,1000.19,0.36,0.69,0.94],
    [1964,363171,"Vazduh","Libelium","0004A30B0021DF70",44.979,16.7091,"","","Prijedor","",25922567,"2024-04-04T00:13:28",3,"NO ERROR",11.71,71.7,1000.36,0.1,0.1,0.1],
    [1965,363171,"Vazduh","Libelium","0004A30B0021DF70",44.979,16.7091,"","","Prijedor","",25923426,"2024-04-04T01:14:10",3,"NO ERROR",11.29,72.7,1000.48,0.14,0.21,0.22],
    [1966,363171,"Vazduh","Libelium","0004A30B0021DF70",44.979,16.7091,"","","Prijedor","",25924175,"2024-04-04T02:14:52",3,"NO ERROR",10.7,81.8,1000.61,0.03,0.03,0.03],
    [1967,363171,"Vazduh","Libelium","0004A30B0021DF70",44.979,16.7091,"","","Prijedor","",25925014,"2024-04-04T03:15:35",3,"NO ERROR",10.14,90.6,1000.91,0.03,0.06,0.06],
    [1968,363171,"Vazduh","Libelium","0004A30B0021DF70",44.979,16.7091,"","","Prijedor","",25925788,"2024-04-04T04:16:17",3,"NO ERROR",9.85,96.2,1001.05,0.28,0.41,0.41],
    [1969,363171,"Vazduh","Libelium","0004A30B0021DF70",44.979,16.7091,"","","Prijedor","",25926664,"2024-04-04T05:16:59",3,"NO ERROR",10.39,92.4,1001.34,0.09,0.14,0.15],
    [1970,363171,"Vazduh","Libelium","0004A30B0021DF70",44.979,16.7091,"","","Prijedor","",25927552,"2024-04-04T06:17:41",3,"NO ERROR",9.95,100,1001.48,0.1,0.13,0.13],
    [1971,363171,"Vazduh","Libelium","0004A30B0021DF70",44.979,16.7091,"","","Prijedor","",25928409,"2024-04-04T07:18:23",3,"NO ERROR",10.2,100,1001.77,0.25,0.52,0.56],
    [1972,363171,"Vazduh","Libelium","0004A30B0021DF70",44.979,16.7091,"","","Prijedor","",25929235,"2024-04-04T08:19:05",3,"NO ERROR",18.05,60.6,1002.37,0.34,0.51,0.58],
    [1973,363171,"Vazduh","Libelium","0004A30B0021DF70",44.979,16.7091,"","","Prijedor","",25930127,"2024-04-04T09:19:47",3,"NO ERROR",21.82,50.9,1002.79,0.31,0.54,0.88],
    [1974,363171,"Vazduh","Libelium","0004A30B0021DF70",44.979,16.7091,"","","Prijedor","",25930992,"2024-04-04T10:20:41",3,"NO ERROR",19.81,48.2,1002.91,0.47,0.67,0.7],
    [1975,363171,"Vazduh","Libelium","0004A30B0021DF70",44.979,16.7091,"","","Prijedor","",25931842,"2024-04-04T11:21:23",3,"NO ERROR",20.29,48.3,1002.45,0.3,0.35,0.35],
    [1976,363171,"Vazduh","Libelium","0004A30B0021DF70",44.979,16.7091,"","","Prijedor","",25932760,"2024-04-04T12:22:05",3,"NO ERROR",22.43,42.1,1001.93,0.14,0.21,0.23],
    [1977,363171,"Vazduh","Libelium","0004A30B0021DF70",44.979,16.7091,"","","Prijedor","",25933713,"2024-04-04T13:22:47",3,"NO ERROR",23.38,40.3,1001.44,0.1,0.1,0.1],
    [1978,363171,"Vazduh","Libelium","0004A30B0021DF70",44.979,16.7091,"","","Prijedor","",25934603,"2024-04-04T14:23:36",3,"NO ERROR",23.63,40.5,1000.87,0,0.07,0.15],
    [1979,363171,"Vazduh","Libelium","0004A30B0021DF70",44.979,16.7091,"","","Prijedor","",25935543,"2024-04-04T15:24:18",3,"NO ERROR",24.9,37.1,1000.59,0.09,0.13,0.13],
    [1980,363171,"Vazduh","Libelium","0004A30B0021DF70",44.979,16.7091,"","","Prijedor","",25936367,"2024-04-04T16:25:00",3,"NO ERROR",24.98,35,999.95,0.11,0.14,0.14],
    [1981,363171,"Vazduh","Libelium","0004A30B0021DF70",44.979,16.7091,"","","Prijedor","",25937263,"2024-04-04T17:25:42",3,"NO ERROR",24.08,36.1,999.91,0.4,0.73,1.45],
    [1982,363171,"Vazduh","Libelium","0004A30B0021DF70",44.979,16.7091,"","","Prijedor","",25938173,"2024-04-04T18:26:24",3,"NO ERROR",22.48,39.9,1000.24,0.13,0.23,0.23],
    [1983,363171,"Vazduh","Libelium","0004A30B0021DF70",44.979,16.7091,"","","Prijedor","",25939027,"2024-04-04T19:27:06",3,"NO ERROR",20.49,46.1,1000.66,0.32,0.54,0.7],
    [1984,363171,"Vazduh","Libelium","0004A30B0021DF70",44.979,16.7091,"","","Prijedor","",25939838,"2024-04-04T20:27:48",3,"NO ERROR",18.82,50.4,1002.09,0.13,0.14,0.14],
    [1985,363171,"Vazduh","Libelium","0004A30B0021DF70",44.979,16.7091,"","","Prijedor","",25940782,"2024-04-04T21:28:30",3,"NO ERROR",17.83,52,1002.72,0.13,0.17,0.17],
    [1986,363171,"Vazduh","Libelium","0004A30B0021DF70",44.979,16.7091,"","","Prijedor","",25941613,"2024-04-04T22:29:12",3,"NO ERROR",17.29,54,1002.92,0.24,0.4,0.5],
    [1987,363171,"Vazduh","Libelium","0004A30B0021DF70",44.979,16.7091,"","","Prijedor","",25942452,"2024-04-04T23:29:54",3,"NO ERROR",16.37,56.6,1003.31,0.08,0.11,0.11],
    [1988,363171,"Vazduh","Libelium","0004A30B0021DF70",44.979,16.7091,"","","Prijedor","",25943656,"2024-04-05T00:30:36",3,"NO ERROR",14.22,69.2,1003.88,0.25,0.29,0.29],
    [1989,363171,"Vazduh","Libelium","0004A30B0021DF70",44.979,16.7091,"","","Prijedor","",25944597,"2024-04-05T01:31:18",3,"NO ERROR",12,90.4,1004.28,0.38,0.44,0.44],
    [1990,363171,"Vazduh","Libelium","0004A30B0021DF70",44.979,16.7091,"","","Prijedor","",25945538,"2024-04-05T02:32:00",3,"NO ERROR",10.56,97.1,1004.61,0.22,0.27,0.27],
    [1991,363171,"Vazduh","Libelium","0004A30B0021DF70",44.979,16.7091,"","","Prijedor","",25946503,"2024-04-05T03:32:49",3,"NO ERROR",10.2,100,1004.88,0.4,0.54,0.56],
    [1992,363171,"Vazduh","Libelium","0004A30B0021DF70",44.979,16.7091,"","","Prijedor","",25947398,"2024-04-05T04:33:31",3,"NO ERROR",8.79,100,1005.1,0.23,0.37,0.38],
    [1993,363171,"Vazduh","Libelium","0004A30B0021DF70",44.979,16.7091,"","","Prijedor","",25948407,"2024-04-05T05:34:13",3,"NO ERROR",7.55,100,1005.37,0.12,0.2,0.28],
    [1994,363171,"Vazduh","Libelium","0004A30B0021DF70",44.979,16.7091,"","","Prijedor","",25949362,"2024-04-05T06:34:55",3,"NO ERROR",7.31,100,1005.75,0.11,0.16,0.16],
    [1995,363171,"Vazduh","Libelium","0004A30B0021DF70",44.979,16.7091,"","","Prijedor","",25950259,"2024-04-05T07:35:37",3,"NO ERROR",13.11,82.2,1006.53,0.39,0.5,0.5],
    [1996,363171,"Vazduh","Libelium","0004A30B0021DF70",44.979,16.7091,"","","Prijedor","",25951091,"2024-04-05T08:36:19",3,"NO ERROR",16.42,67.1,1006.8,0.45,0.72,1.23],
    [1997,363171,"Vazduh","Libelium","0004A30B0021DF70",44.979,16.7091,"","","Prijedor","",25952014,"2024-04-05T09:37:01",3,"NO ERROR",19.92,56.9,1006.98,0.12,0.14,0.14],
    [1998,363171,"Vazduh","Libelium","0004A30B0021DF70",44.979,16.7091,"","","Prijedor","",25952820,"2024-04-05T10:37:49",3,"NO ERROR",23.22,48.4,1007.03,0.1,0.12,0.12],
    [1999,363171,"Vazduh","Libelium","0004A30B0021DF70",44.979,16.7091,"","","Prijedor","",25953653,"2024-04-05T11:38:31",3,"NO ERROR",21.13,50.6,1006.83,0.15,0.21,0.21],
    [2000,363171,"Vazduh","Libelium","0004A30B0021DF70",44.979,16.7091,"","","Prijedor","",25954619,"2024-04-05T12:39:13",3,"NO ERROR",23.35,46.1,1006.16,0.42,0.58,0.59],
    [2001,363171,"Vazduh","Libelium","0004A30B0021DF70",44.979,16.7091,"","","Prijedor","",25955556,"2024-04-05T13:39:55",3,"NO ERROR",23.47,46.1,1005.41,0.26,0.32,0.32],
    [2002,363171,"Vazduh","Libelium","0004A30B0021DF70",44.979,16.7091,"","","Prijedor","",25956481,"2024-04-05T14:40:44",3,"NO ERROR",27.81,37.8,1004.71,0.26,0.28,0.28],
    [2003,363171,"Vazduh","Libelium","0004A30B0021DF70",44.979,16.7091,"","","Prijedor","",25957423,"2024-04-05T15:41:26",3,"NO ERROR",26.97,37.6,1004.27,0.1,0.19,0.37],
    [2004,363171,"Vazduh","Libelium","0004A30B0021DF70",44.979,16.7091,"","","Prijedor","",25958287,"2024-04-05T16:42:08",3,"NO ERROR",28.72,36.1,1003.83,0.23,0.31,0.33],
    [2005,363171,"Vazduh","Libelium","0004A30B0021DF70",44.979,16.7091,"","","Prijedor","",25959177,"2024-04-05T17:42:50",3,"NO ERROR",25.11,39.5,1003.57,0.19,0.23,0.23],
    [2006,363171,"Vazduh","Libelium","0004A30B0021DF70",44.979,16.7091,"","","Prijedor","",25960080,"2024-04-05T18:43:32",3,"NO ERROR",23.22,45.2,1003.7,0.46,0.75,1.21],
    [2007,363171,"Vazduh","Libelium","0004A30B0021DF70",44.979,16.7091,"","","Prijedor","",25960893,"2024-04-05T19:44:20",3,"NO ERROR",20.87,50.7,1004.02,0.14,0.36,0.79],
    [2008,363171,"Vazduh","Libelium","0004A30B0021DF70",44.979,16.7091,"","","Prijedor","",25961676,"2024-04-05T20:45:02",3,"NO ERROR",18.62,60.5,1004.84,0.48,0.81,0.92],
    [2009,363171,"Vazduh","Libelium","0004A30B0021DF70",44.979,16.7091,"","","Prijedor","",25962532,"2024-04-05T21:45:44",3,"NO ERROR",16.71,74,1005.45,0.76,1.23,1.4],
    [2010,363171,"Vazduh","Libelium","0004A30B0021DF70",44.979,16.7091,"","","Prijedor","",25963349,"2024-04-05T22:46:26",3,"NO ERROR",14.53,89.2,1005.93,0.34,0.59,1.75],
    [2011,363171,"Vazduh","Libelium","0004A30B0021DF70",44.979,16.7091,"","","Prijedor","",25964159,"2024-04-05T23:47:20",3,"NO ERROR",13.92,95.4,1005.97,0.35,0.5,0.51],
    [2012,363171,"Vazduh","Libelium","0004A30B0021DF70",44.979,16.7091,"","","Prijedor","",25965298,"2024-04-06T00:48:02",3,"NO ERROR",12.29,100,1006.17,0.32,0.57,0.61],
    [2013,363171,"Vazduh","Libelium","0004A30B0021DF70",44.979,16.7091,"","","Prijedor","",25966170,"2024-04-06T01:48:50",3,"NO ERROR",11.58,100,1005.7,0.49,0.62,0.63],
    [2014,363171,"Vazduh","Libelium","0004A30B0021DF70",44.979,16.7091,"","","Prijedor","",25966977,"2024-04-06T02:49:32",3,"NO ERROR",10.15,100,1005.68,0.54,0.7,0.7],
    [2015,363171,"Vazduh","Libelium","0004A30B0021DF70",44.979,16.7091,"","","Prijedor","",25967872,"2024-04-06T03:50:14",3,"NO ERROR",9.16,100,1005.53,0.22,0.27,0.28],
    [2016,363171,"Vazduh","Libelium","0004A30B0021DF70",44.979,16.7091,"","","Prijedor","",25968733,"2024-04-06T04:50:57",3,"NO ERROR",9.02,100,1005.86,0.41,0.52,0.52],
    [2017,363171,"Vazduh","Libelium","0004A30B0021DF70",44.979,16.7091,"","","Prijedor","",25969717,"2024-04-06T05:51:39",3,"NO ERROR",8.05,100,1006.2,0.31,0.36,0.36],
    [2018,363171,"Vazduh","Libelium","0004A30B0021DF70",44.979,16.7091,"","","Prijedor","",25970687,"2024-04-06T06:52:21",3,"NO ERROR",7.97,100,1006.71,0.68,1.1,1.26],
    [2019,363171,"Vazduh","Libelium","0004A30B0021DF70",44.979,16.7091,"","","Prijedor","",25971507,"2024-04-06T07:53:03",3,"NO ERROR",14.92,84,1006.68,2.37,2.87,3.02],
    [2020,363171,"Vazduh","Libelium","0004A30B0021DF70",44.979,16.7091,"","","Prijedor","",25972346,"2024-04-06T08:53:45",3,"NO ERROR",17.44,76.7,1006.63,0.14,0.17,0.17],
    [2021,363171,"Vazduh","Libelium","0004A30B0021DF70",44.979,16.7091,"","","Prijedor","",25973201,"2024-04-06T09:54:27",3,"NO ERROR",20.47,63.1,1007.21,0.42,0.7,1.22],
    [2022,363171,"Vazduh","Libelium","0004A30B0021DF70",44.979,16.7091,"","","Prijedor","",25974073,"2024-04-06T10:55:09",3,"NO ERROR",23.28,50.9,1006.45,0.32,0.53,1.69],
    [2023,363171,"Vazduh","Libelium","0004A30B0021DF70",44.979,16.7091,"","","Prijedor","",25974979,"2024-04-06T11:55:51",3,"NO ERROR",23.39,50.9,1005.68,0.25,0.34,0.34],
    [2024,363171,"Vazduh","Libelium","0004A30B0021DF70",44.979,16.7091,"","","Prijedor","",25975852,"2024-04-06T12:56:33",3,"NO ERROR",25.61,44.5,1004.91,0.24,0.35,0.36],
    [2025,363171,"Vazduh","Libelium","0004A30B0021DF70",44.979,16.7091,"","","Prijedor","",25976806,"2024-04-06T13:57:15",3,"NO ERROR",26.27,42.8,1004.39,0.29,0.38,0.39],
    [2026,363171,"Vazduh","Libelium","0004A30B0021DF70",44.979,16.7091,"","","Prijedor","",25977787,"2024-04-06T14:57:57",3,"NO ERROR",27.73,39.7,1003.57,0.25,0.42,0.44],
    [2027,363171,"Vazduh","Libelium","0004A30B0021DF70",44.979,16.7091,"","","Prijedor","",25978714,"2024-04-06T15:58:40",3,"NO ERROR",30.26,36.2,1003.19,0.08,0.1,0.1],
    [2028,363171,"Vazduh","Libelium","0004A30B0021DF70",44.979,16.7091,"","","Prijedor","",25979575,"2024-04-06T16:59:22",3,"NO ERROR",31.08,35.3,1002.65,0.24,0.28,0.28],
    [2029,363171,"Vazduh","Libelium","0004A30B0021DF70",44.979,16.7091,"","","Prijedor","",25980526,"2024-04-06T18:00:04",3,"NO ERROR",26.84,40.3,1002.37,0.2,0.24,0.24],
    [2030,363171,"Vazduh","Libelium","0004A30B0021DF70",44.979,16.7091,"","","Prijedor","",25981434,"2024-04-06T19:00:46",3,"NO ERROR",24.87,46,1002.63,0.21,0.47,0.67],
    [2031,363171,"Vazduh","Libelium","0004A30B0021DF70",44.979,16.7091,"","","Prijedor","",25982223,"2024-04-06T20:01:34",3,"NO ERROR",21.88,58.5,1003.11,0.65,1.03,1.17],
    [2032,363171,"Vazduh","Libelium","0004A30B0021DF70",44.979,16.7091,"","","Prijedor","",25983056,"2024-04-06T21:02:16",3,"NO ERROR",19.94,71.3,1003.55,1,2.09,3.64],
    [2033,363171,"Vazduh","Libelium","0004A30B0021DF70",44.979,16.7091,"","","Prijedor","",25983919,"2024-04-06T22:02:58",3,"NO ERROR",17.37,87.2,1003.95,0.85,1.36,1.98],
    [2034,363171,"Vazduh","Libelium","0004A30B0021DF70",44.979,16.7091,"","","Prijedor","",25984716,"2024-04-06T23:03:40",3,"NO ERROR",16.34,95.5,1004.23,0.4,0.59,0.62],
    [2035,363171,"Vazduh","Libelium","0004A30B0021DF70",44.979,16.7091,"","","Prijedor","",25985727,"2024-04-07T00:04:28",3,"NO ERROR",14.67,100,1004.64,0.78,0.92,0.92],
    [2036,363171,"Vazduh","Libelium","0004A30B0021DF70",44.979,16.7091,"","","Prijedor","",25986754,"2024-04-07T01:05:10",3,"NO ERROR",13.49,100,1004.65,0.34,0.55,4.43],
    [2037,363171,"Vazduh","Libelium","0004A30B0021DF70",44.979,16.7091,"","","Prijedor","",25987661,"2024-04-07T02:05:52",3,"NO ERROR",13,100,1004.73,0.28,0.39,0.41],
    [2038,363171,"Vazduh","Libelium","0004A30B0021DF70",44.979,16.7091,"","","Prijedor","",25988591,"2024-04-07T03:06:34",3,"NO ERROR",11.72,100,1004.64,0.46,0.94,1.04],
    [2039,363171,"Vazduh","Libelium","0004A30B0021DF70",44.979,16.7091,"","","Prijedor","",25989398,"2024-04-07T04:07:17",3,"NO ERROR",10.52,100,1005.05,0.39,0.66,0.84],
    [2040,363171,"Vazduh","Libelium","0004A30B0021DF70",44.979,16.7091,"","","Prijedor","",25990217,"2024-04-07T05:07:59",3,"NO ERROR",9.94,100,1004.95,0.35,0.45,0.46],
    [2041,363171,"Vazduh","Libelium","0004A30B0021DF70",44.979,16.7091,"","","Prijedor","",25991146,"2024-04-07T06:08:41",3,"NO ERROR",9.32,100,1005.07,0.38,0.53,0.53],
    [2042,363171,"Vazduh","Libelium","0004A30B0021DF70",44.979,16.7091,"","","Prijedor","",25992073,"2024-04-07T07:09:23",3,"NO ERROR",12.24,100,1005.27,0.22,0.32,0.32],
    [2043,363171,"Vazduh","Libelium","0004A30B0021DF70",44.979,16.7091,"","","Prijedor","",25992650,"2024-04-07T08:10:05",3,"NO ERROR",16.92,78.9,1005.41,0.08,0.11,0.11],
    [2044,363171,"Vazduh","Libelium","0004A30B0021DF70",44.979,16.7091,"","","Prijedor","",25993256,"2024-04-07T09:10:47",3,"NO ERROR",19.05,77.1,1005.33,0.21,0.26,0.26],
    [2045,363171,"Vazduh","Libelium","0004A30B0021DF70",44.979,16.7091,"","","Prijedor","",25993826,"2024-04-07T10:11:29",3,"NO ERROR",21.29,68,1005.46,0.52,0.61,0.61],
    [2046,363171,"Vazduh","Libelium","0004A30B0021DF70",44.979,16.7091,"","","Prijedor","",25994429,"2024-04-07T11:12:11",3,"NO ERROR",23.77,55.8,1005.05,0.25,0.36,0.37],
    [2047,363171,"Vazduh","Libelium","0004A30B0021DF70",44.979,16.7091,"","","Prijedor","",25995064,"2024-04-07T12:12:53",3,"NO ERROR",25.25,46.1,1004.54,0.36,0.39,0.39],
    [2048,363171,"Vazduh","Libelium","0004A30B0021DF70",44.979,16.7091,"","","Prijedor","",25995699,"2024-04-07T13:13:35",3,"NO ERROR",27.55,45.4,1004.29,0.2,0.24,0.24],
    [2049,363171,"Vazduh","Libelium","0004A30B0021DF70",44.979,16.7091,"","","Prijedor","",25996382,"2024-04-07T14:14:17",3,"NO ERROR",28.85,43.1,1003.9,0.1,0.19,0.35],
    [2050,363171,"Vazduh","Libelium","0004A30B0021DF70",44.979,16.7091,"","","Prijedor","",25997096,"2024-04-07T15:14:59",3,"NO ERROR",32.01,35.8,1003.3,0.17,0.18,0.18],
    [2051,363171,"Vazduh","Libelium","0004A30B0021DF70",44.979,16.7091,"","","Prijedor","",25997676,"2024-04-07T16:15:42",3,"NO ERROR",31.74,37.2,1002.9,0.28,0.37,0.39],
    [2052,363171,"Vazduh","Libelium","0004A30B0021DF70",44.979,16.7091,"","","Prijedor","",25998252,"2024-04-07T17:16:24",3,"NO ERROR",31.12,35.4,1002.67,0.13,0.17,0.17],
    [2053,363171,"Vazduh","Libelium","0004A30B0021DF70",44.979,16.7091,"","","Prijedor","",25998896,"2024-04-07T18:17:06",3,"NO ERROR",27.24,40.6,1002.66,0.06,0.08,0.09],
    [2054,363171,"Vazduh","Libelium","0004A30B0021DF70",44.979,16.7091,"","","Prijedor","",25999498,"2024-04-07T19:17:48",3,"NO ERROR",25.13,45.6,1002.46,0.37,0.48,0.49],
    [2055,363171,"Vazduh","Libelium","0004A30B0021DF70",44.979,16.7091,"","","Prijedor","",26000000,"2024-04-07T20:18:30",3,"NO ERROR",21.97,56.6,1002.83,0.25,0.39,0.48],
    [2056,363171,"Vazduh","Libelium","0004A30B0021DF70",44.979,16.7091,"","","Prijedor","",26000593,"2024-04-07T21:19:12",3,"NO ERROR",18.89,74.1,1003.43,0.45,0.71,0.82],
    [2057,363171,"Vazduh","Libelium","0004A30B0021DF70",44.979,16.7091,"","","Prijedor","",26001112,"2024-04-07T22:19:54",3,"NO ERROR",16.79,84.3,1003.4,0.06,0.06,0.06],
    [2058,363171,"Vazduh","Libelium","0004A30B0021DF70",44.979,16.7091,"","","Prijedor","",26001636,"2024-04-07T23:20:36",3,"NO ERROR",15.48,96.4,1003.7,0.31,0.36,0.36],
    [2059,363171,"Vazduh","Libelium","0004A30B0021DF70",44.979,16.7091,"","","Prijedor","",26002456,"2024-04-08T00:21:18",3,"NO ERROR",14.34,100,1003.66,0.26,0.38,0.38],
    [2060,363171,"Vazduh","Libelium","0004A30B0021DF70",44.979,16.7091,"","","Prijedor","",26003121,"2024-04-08T01:22:00",3,"NO ERROR",13.24,100,1003.59,0.11,0.2,0.22],
    [2061,363171,"Vazduh","Libelium","0004A30B0021DF70",44.979,16.7091,"","","Prijedor","",26003736,"2024-04-08T02:22:48",3,"NO ERROR",12.61,100,1003.27,0.42,0.71,1.26],
    [2062,363171,"Vazduh","Libelium","0004A30B0021DF70",44.979,16.7091,"","","Prijedor","",26004338,"2024-04-08T03:23:30",3,"NO ERROR",11.89,100,1003.22,0.07,0.08,0.08],
    [2063,363171,"Vazduh","Libelium","0004A30B0021DF70",44.979,16.7091,"","","Prijedor","",26004903,"2024-04-08T04:24:12",3,"NO ERROR",10.69,100,1003.11,0.26,0.55,0.71],
    [2064,363171,"Vazduh","Libelium","0004A30B0021DF70",44.979,16.7091,"","","Prijedor","",26005531,"2024-04-08T05:24:55",3,"NO ERROR",10.51,100,1003.39,0.09,0.11,0.11],
    [2065,363171,"Vazduh","Libelium","0004A30B0021DF70",44.979,16.7091,"","","Prijedor","",26006164,"2024-04-08T06:25:37",3,"NO ERROR",9.87,100,1003.35,0.33,0.53,0.56],
    [2066,363171,"Vazduh","Libelium","0004A30B0021DF70",44.979,16.7091,"","","Prijedor","",26006847,"2024-04-08T07:26:19",3,"NO ERROR",14.14,100,1003.43,0.54,0.78,0.81],
    [2067,363171,"Vazduh","Libelium","0004A30B0021DF70",44.979,16.7091,"","","Prijedor","",26007391,"2024-04-08T08:27:01",3,"NO ERROR",17.14,85,1003.43,0.5,0.8,0.83],
    [2068,363171,"Vazduh","Libelium","0004A30B0021DF70",44.979,16.7091,"","","Prijedor","",26008032,"2024-04-08T09:27:43",3,"NO ERROR",20.7,68.4,1003.28,0.28,0.37,0.38],
    [2069,363171,"Vazduh","Libelium","0004A30B0021DF70",44.979,16.7091,"","","Prijedor","",26008626,"2024-04-08T10:28:25",3,"NO ERROR",22.44,58.9,1003.07,0.33,0.53,0.55],
    [2070,363171,"Vazduh","Libelium","0004A30B0021DF70",44.979,16.7091,"","","Prijedor","",26009206,"2024-04-08T11:29:07",3,"NO ERROR",24.06,55.4,1002.79,0.51,0.74,0.75],
    [2071,363171,"Vazduh","Libelium","0004A30B0021DF70",44.979,16.7091,"","","Prijedor","",26009839,"2024-04-08T12:29:49",3,"NO ERROR",25.67,51.7,1002.11,0.11,0.14,0.14],
    [2072,363171,"Vazduh","Libelium","0004A30B0021DF70",44.979,16.7091,"","","Prijedor","",26010568,"2024-04-08T13:30:37",3,"NO ERROR",28.56,43.5,1001.37,0.16,0.32,0.45],
    [2073,363171,"Vazduh","Libelium","0004A30B0021DF70",44.979,16.7091,"","","Prijedor","",26011193,"2024-04-08T14:31:19",3,"NO ERROR",31.89,39.6,1000.7,0.16,0.31,0.61],
    [2074,363171,"Vazduh","Libelium","0004A30B0021DF70",44.979,16.7091,"","","Prijedor","",26011903,"2024-04-08T15:32:01",3,"NO ERROR",31.33,37.3,1000.03,0.21,0.42,1.34],
    [2075,363171,"Vazduh","Libelium","0004A30B0021DF70",44.979,16.7091,"","","Prijedor","",26012502,"2024-04-08T16:32:44",3,"NO ERROR",31.79,36,999.56,0.15,0.23,0.23],
    [2076,363171,"Vazduh","Libelium","0004A30B0021DF70",44.979,16.7091,"","","Prijedor","",26013120,"2024-04-08T17:33:26",3,"NO ERROR",29.6,41.1,999.26,0.08,0.22,0.49],
    [2077,363171,"Vazduh","Libelium","0004A30B0021DF70",44.979,16.7091,"","","Prijedor","",26013774,"2024-04-08T18:34:08",3,"NO ERROR",26.97,45,999.12,0.17,0.3,10.25],
    [2078,363171,"Vazduh","Libelium","0004A30B0021DF70",44.979,16.7091,"","","Prijedor","",26014338,"2024-04-08T19:34:50",3,"NO ERROR",24.55,49.4,999.29,0.21,0.29,0.29],
    [2079,363171,"Vazduh","Libelium","0004A30B0021DF70",44.979,16.7091,"","","Prijedor","",26014827,"2024-04-08T20:35:32",3,"NO ERROR",21.76,62.6,999.6,0.48,0.75,0.77],
    [2080,363171,"Vazduh","Libelium","0004A30B0021DF70",44.979,16.7091,"","","Prijedor","",26015437,"2024-04-08T21:36:14",3,"NO ERROR",19.15,81.1,999.75,0.79,1.19,1.35],
    [2081,363171,"Vazduh","Libelium","0004A30B0021DF70",44.979,16.7091,"","","Prijedor","",26015959,"2024-04-08T22:36:56",3,"NO ERROR",17.1,95.6,999.96,0.41,0.67,0.76],
    [2082,363171,"Vazduh","Libelium","0004A30B0021DF70",44.979,16.7091,"","","Prijedor","",26016503,"2024-04-08T23:37:38",3,"NO ERROR",16.05,100,1000.03,0.32,0.49,0.52],
    [2083,363171,"Vazduh","Libelium","0004A30B0021DF70",44.979,16.7091,"","","Prijedor","",26017401,"2024-04-09T00:38:20",3,"NO ERROR",15.43,100,1000.14,0.11,0.17,0.17],
    [2084,363171,"Vazduh","Libelium","0004A30B0021DF70",44.979,16.7091,"","","Prijedor","",26018083,"2024-04-09T01:39:02",3,"NO ERROR",14.62,100,1000.02,0.27,0.38,0.38],
    [2085,363171,"Vazduh","Libelium","0004A30B0021DF70",44.979,16.7091,"","","Prijedor","",26018731,"2024-04-09T02:39:57",3,"NO ERROR",13.45,100,1000.01,0.29,0.46,0.48],
    [2086,363171,"Vazduh","Libelium","0004A30B0021DF70",44.979,16.7091,"","","Prijedor","",26019389,"2024-04-09T03:40:38",3,"NO ERROR",12.52,100,1000.04,0.15,0.2,0.2],
    [2087,363171,"Vazduh","Libelium","0004A30B0021DF70",44.979,16.7091,"","","Prijedor","",26020015,"2024-04-09T04:41:20",3,"NO ERROR",12.71,100,999.87,0.18,0.23,0.23],
    [2088,363171,"Vazduh","Libelium","0004A30B0021DF70",44.979,16.7091,"","","Prijedor","",26020745,"2024-04-09T05:42:03",3,"NO ERROR",11.64,100,999.77,0.21,0.27,0.27],
    [2089,363171,"Vazduh","Libelium","0004A30B0021DF70",44.979,16.7091,"","","Prijedor","",26021469,"2024-04-09T06:42:45",3,"NO ERROR",11.27,100,999.78,0.53,0.85,1.01],
    [2090,363171,"Vazduh","Libelium","0004A30B0021DF70",44.979,16.7091,"","","Prijedor","",26022091,"2024-04-09T07:43:27",3,"NO ERROR",12.71,100,999.93,0.27,0.36,0.36],
    [2091,363171,"Vazduh","Libelium","0004A30B0021DF70",44.979,16.7091,"","","Prijedor","",26022697,"2024-04-09T08:44:09",3,"NO ERROR",16.71,93.2,999.95,0.33,0.48,0.58],
    [2092,363171,"Vazduh","Libelium","0004A30B0021DF70",44.979,16.7091,"","","Prijedor","",26023304,"2024-04-09T09:44:51",3,"NO ERROR",20.88,74,999.66,0.7,1.19,1.81],
    [2093,363171,"Vazduh","Libelium","0004A30B0021DF70",44.979,16.7091,"","","Prijedor","",26023947,"2024-04-09T10:45:33",3,"NO ERROR",25.06,53.3,999.29,0.23,0.29,0.29],
    [2094,363171,"Vazduh","Libelium","0004A30B0021DF70",44.979,16.7091,"","","Prijedor","",26024574,"2024-04-09T11:46:15",3,"NO ERROR",26.93,46.8,998.63,0.13,0.16,0.16],
    [2095,363171,"Vazduh","Libelium","0004A30B0021DF70",44.979,16.7091,"","","Prijedor","",26025214,"2024-04-09T12:46:57",3,"NO ERROR",28.56,43.4,998.35,0.47,0.64,0.64],
    [2096,363171,"Vazduh","Libelium","0004A30B0021DF70",44.979,16.7091,"","","Prijedor","",26025898,"2024-04-09T13:47:39",3,"NO ERROR",29.22,38.3,997.74,0.17,0.22,0.22],
    [2097,363171,"Vazduh","Libelium","0004A30B0021DF70",44.979,16.7091,"","","Prijedor","",26026594,"2024-04-09T14:48:21",3,"NO ERROR",32.22,34.5,996.87,0.16,0.19,0.19],
    [2098,363171,"Vazduh","Libelium","0004A30B0021DF70",44.979,16.7091,"","","Prijedor","",26027241,"2024-04-09T15:49:03",3,"NO ERROR",32.48,32.2,996.27,0.16,0.19,0.2],
    [2099,363171,"Vazduh","Libelium","0004A30B0021DF70",44.979,16.7091,"","","Prijedor","",26027819,"2024-04-09T16:49:46",3,"NO ERROR",35.31,29.3,996.17,0.14,0.17,0.17],
    [2100,363171,"Vazduh","Libelium","0004A30B0021DF70",44.979,16.7091,"","","Prijedor","",26028469,"2024-04-09T17:50:28",3,"NO ERROR",29.27,34,995.99,0.34,0.72,0.97],
    [2101,363171,"Vazduh","Libelium","0004A30B0021DF70",44.979,16.7091,"","","Prijedor","",26029095,"2024-04-09T18:51:10",3,"NO ERROR",26.46,36.4,996.3,0.35,0.54,1.16],
    [2102,363171,"Vazduh","Libelium","0004A30B0021DF70",44.979,16.7091,"","","Prijedor","",26029656,"2024-04-09T19:52:04",3,"NO ERROR",24.64,41.6,996.74,3.25,3.62,3.72],
    [2103,363171,"Vazduh","Libelium","0004A30B0021DF70",44.979,16.7091,"","","Prijedor","",26030244,"2024-04-09T20:52:46",3,"NO ERROR",21.86,51.2,997.5,0.81,1.18,1.32],
    [2104,363171,"Vazduh","Libelium","0004A30B0021DF70",44.979,16.7091,"","","Prijedor","",26030883,"2024-04-09T21:53:34",3,"NO ERROR",19.28,63.2,997.9,0.54,0.62,0.62],
    [2105,363171,"Vazduh","Libelium","0004A30B0021DF70",44.979,16.7091,"","","Prijedor","",26031481,"2024-04-09T22:54:16",3,"NO ERROR",18.5,68.6,998.01,0.62,0.83,0.83],
    [2106,363171,"Vazduh","Libelium","0004A30B0021DF70",44.979,16.7091,"","","Prijedor","",26032149,"2024-04-09T23:54:58",3,"NO ERROR",16.26,81.9,998.08,0.6,0.83,0.86],
    [2107,363171,"Vazduh","Libelium","0004A30B0021DF70",44.979,16.7091,"","","Prijedor","",26032979,"2024-04-10T00:55:40",3,"NO ERROR",14.98,93,998.2,0.45,0.6,0.61],
    [2108,363171,"Vazduh","Libelium","0004A30B0021DF70",44.979,16.7091,"","","Prijedor","",26033574,"2024-04-10T01:56:22",3,"NO ERROR",13.97,100,998.42,0.45,0.63,0.63],
    [2109,363171,"Vazduh","Libelium","0004A30B0021DF70",44.979,16.7091,"","","Prijedor","",26034165,"2024-04-10T02:57:04",3,"NO ERROR",13.43,100,998.61,0.07,0.14,0.39],
    [2110,363171,"Vazduh","Libelium","0004A30B0021DF70",44.979,16.7091,"","","Prijedor","",26034698,"2024-04-10T03:57:46",3,"NO ERROR",12.54,100,998.65,0.51,0.73,0.75],
    [2111,363171,"Vazduh","Libelium","0004A30B0021DF70",44.979,16.7091,"","","Prijedor","",26035286,"2024-04-10T04:58:29",3,"NO ERROR",12.52,100,999.21,0.16,0.25,0.25],
    [2112,363171,"Vazduh","Libelium","0004A30B0021DF70",44.979,16.7091,"","","Prijedor","",26035961,"2024-04-10T05:59:11",3,"NO ERROR",11.58,100,999.59,0.12,0.2,0.22],
    [2113,363171,"Vazduh","Libelium","0004A30B0021DF70",44.979,16.7091,"","","Prijedor","",26036583,"2024-04-10T06:59:53",3,"NO ERROR",12.9,100,1000.32,0.17,0.22,0.23],
    [2114,363171,"Vazduh","Libelium","0004A30B0021DF70",44.979,16.7091,"","","Prijedor","",26037113,"2024-04-10T08:00:35",3,"NO ERROR",15.24,98.4,1000.65,0.53,0.67,0.68],
    [2115,363171,"Vazduh","Libelium","0004A30B0021DF70",44.979,16.7091,"","","Prijedor","",26037736,"2024-04-10T09:01:17",3,"NO ERROR",20.4,71.9,1000.91,0.32,0.52,0.64],
    [2116,363171,"Vazduh","Libelium","0004A30B0021DF70",44.979,16.7091,"","","Prijedor","",26038295,"2024-04-10T10:01:59",3,"NO ERROR",19.67,74.1,1001.48,0.24,0.48,3.14],
    [2117,363171,"Vazduh","Libelium","0004A30B0021DF70",44.979,16.7091,"","","Prijedor","",26038838,"2024-04-10T11:02:41",3,"NO ERROR",19.55,63.4,1002.43,0.33,0.54,0.89],
    [2118,363171,"Vazduh","Libelium","0004A30B0021DF70",44.979,16.7091,"","","Prijedor","",26039473,"2024-04-10T12:03:23",3,"NO ERROR",20.11,60.9,1003.18,0.41,0.6,4.73],
    [2119,363171,"Vazduh","Libelium","0004A30B0021DF70",44.979,16.7091,"","","Prijedor","",26040112,"2024-04-10T13:04:05",3,"NO ERROR",19.56,60,1003.27,0.34,0.54,0.66],
    [2120,363171,"Vazduh","Libelium","0004A30B0021DF70",44.979,16.7091,"","","Prijedor","",26040799,"2024-04-10T14:04:47",3,"NO ERROR",20.14,59,1003.93,0.3,0.75,12.37],
    [2121,363171,"Vazduh","Libelium","0004A30B0021DF70",44.979,16.7091,"","","Prijedor","",26041463,"2024-04-10T15:05:29",3,"NO ERROR",20.3,57.5,1004.2,0.12,0.36,0.45],
    [2122,363171,"Vazduh","Libelium","0004A30B0021DF70",44.979,16.7091,"","","Prijedor","",26042067,"2024-04-10T16:06:11",3,"NO ERROR",19.86,58.4,1004.72,0.42,0.64,0.67],
    [2123,363171,"Vazduh","Libelium","0004A30B0021DF70",44.979,16.7091,"","","Prijedor","",26042687,"2024-04-10T17:06:53",3,"NO ERROR",18.45,60.9,1005.44,0.24,0.64,0.79],
    [2124,363171,"Vazduh","Libelium","0004A30B0021DF70",44.979,16.7091,"","","Prijedor","",26043318,"2024-04-10T18:07:36",3,"NO ERROR",17.47,63.7,1006.27,0.23,0.41,0.43],
    [2125,363171,"Vazduh","Libelium","0004A30B0021DF70",44.979,16.7091,"","","Prijedor","",26043933,"2024-04-10T19:08:18",3,"NO ERROR",16.55,65.7,1007.48,0.11,0.3,0.4],
    [2126,363171,"Vazduh","Libelium","0004A30B0021DF70",44.979,16.7091,"","","Prijedor","",26044489,"2024-04-10T20:09:06",3,"NO ERROR",15.5,68.8,1008.74,0.26,0.41,0.42],
    [2127,363171,"Vazduh","Libelium","0004A30B0021DF70",44.979,16.7091,"","","Prijedor","",26045104,"2024-04-10T21:09:48",3,"NO ERROR",14.77,71.9,1010.1,0.18,0.28,0.37],
    [2128,363171,"Vazduh","Libelium","0004A30B0021DF70",44.979,16.7091,"","","Prijedor","",26045705,"2024-04-10T22:10:30",3,"NO ERROR",13.62,73.1,1010.91,0.12,0.23,0.26],
    [2129,363171,"Vazduh","Libelium","0004A30B0021DF70",44.979,16.7091,"","","Prijedor","",26046233,"2024-04-10T23:11:12",3,"NO ERROR",13.05,74.3,1011.55,0.22,0.44,0.61],
    [2130,363171,"Vazduh","Libelium","0004A30B0021DF70",44.979,16.7091,"","","Prijedor","",26047009,"2024-04-11T00:11:54",3,"NO ERROR",12.75,76.1,1012.52,0.08,0.15,0.15],
    [2131,363171,"Vazduh","Libelium","0004A30B0021DF70",44.979,16.7091,"","","Prijedor","",26047582,"2024-04-11T01:12:36",3,"NO ERROR",12.02,81.5,1012.75,0.26,0.33,0.33],
    [2132,363171,"Vazduh","Libelium","0004A30B0021DF70",44.979,16.7091,"","","Prijedor","",26048089,"2024-04-11T02:13:24",3,"NO ERROR",12.13,81.4,1012.73,0.16,0.36,0.48],
    [2133,363171,"Vazduh","Libelium","0004A30B0021DF70",44.979,16.7091,"","","Prijedor","",26048659,"2024-04-11T03:14:06",3,"NO ERROR",11.54,85.5,1012.74,0.05,0.05,0.05],
    [2134,363171,"Vazduh","Libelium","0004A30B0021DF70",44.979,16.7091,"","","Prijedor","",26049168,"2024-04-11T04:14:48",3,"NO ERROR",11.17,89.2,1012.84,0.19,0.2,0.2],
    [2135,363171,"Vazduh","Libelium","0004A30B0021DF70",44.979,16.7091,"","","Prijedor","",26049717,"2024-04-11T05:15:37",3,"NO ERROR",10.96,91.8,1013.28,0.18,0.3,0.3],
    [2136,363171,"Vazduh","Libelium","0004A30B0021DF70",44.979,16.7091,"","","Prijedor","",26050332,"2024-04-11T06:16:19",3,"NO ERROR",10.58,93.1,1013.73,0.02,0.03,0.03],
    [2137,363171,"Vazduh","Libelium","0004A30B0021DF70",44.979,16.7091,"","","Prijedor","",26050943,"2024-04-11T07:17:01",3,"NO ERROR",11.96,87.8,1014.19,0.02,0.09,0.17],
    [2138,363171,"Vazduh","Libelium","0004A30B0021DF70",44.979,16.7091,"","","Prijedor","",26051495,"2024-04-11T08:17:43",3,"NO ERROR",14.41,72.7,1014.58,0.1,0.14,0.15],
    [2139,363171,"Vazduh","Libelium","0004A30B0021DF70",44.979,16.7091,"","","Prijedor","",26052113,"2024-04-11T09:18:25",3,"NO ERROR",16.88,62.1,1014.87,0.26,0.36,0.36],
    [2140,363171,"Vazduh","Libelium","0004A30B0021DF70",44.979,16.7091,"","","Prijedor","",26052708,"2024-04-11T10:19:07",3,"NO ERROR",17.25,61.5,1015.04,0.1,0.15,0.15],
    [2141,363171,"Vazduh","Libelium","0004A30B0021DF70",44.979,16.7091,"","","Prijedor","",26053276,"2024-04-11T11:19:49",3,"NO ERROR",17.66,62.4,1015.26,0.18,0.22,0.22],
    [2142,363171,"Vazduh","Libelium","0004A30B0021DF70",44.979,16.7091,"","","Prijedor","",26053896,"2024-04-11T12:20:31",3,"NO ERROR",18.19,62.4,1015.31,0.19,0.21,0.21],
    [2143,363171,"Vazduh","Libelium","0004A30B0021DF70",44.979,16.7091,"","","Prijedor","",26054526,"2024-04-11T13:21:13",3,"NO ERROR",18.82,61.3,1015.07,0.37,0.55,0.56],
    [2144,363171,"Vazduh","Libelium","0004A30B0021DF70",44.979,16.7091,"","","Prijedor","",26055170,"2024-04-11T14:21:55",3,"NO ERROR",20.04,59.9,1014.4,0.09,0.09,0.09],
    [2145,363171,"Vazduh","Libelium","0004A30B0021DF70",44.979,16.7091,"","","Prijedor","",26055871,"2024-04-11T15:22:37",3,"NO ERROR",21.35,56.3,1013.97,0.13,0.19,0.2],
    [2146,363171,"Vazduh","Libelium","0004A30B0021DF70",44.979,16.7091,"","","Prijedor","",26056484,"2024-04-11T16:23:19",3,"NO ERROR",21.55,57,1013.57,0.44,0.54,0.55],
    [2147,363171,"Vazduh","Libelium","0004A30B0021DF70",44.979,16.7091,"","","Prijedor","",26057103,"2024-04-11T17:24:01",3,"NO ERROR",20.96,60.5,1013.62,0.23,0.28,0.28],
    [2148,363171,"Vazduh","Libelium","0004A30B0021DF70",44.979,16.7091,"","","Prijedor","",26057708,"2024-04-11T18:24:43",3,"NO ERROR",19.4,66.5,1013.45,0.22,0.25,0.25],
    [2149,363171,"Vazduh","Libelium","0004A30B0021DF70",44.979,16.7091,"","","Prijedor","",26058240,"2024-04-11T19:25:26",3,"NO ERROR",18.23,73.7,1013.71,0.65,0.91,0.92],
    [2150,363171,"Vazduh","Libelium","0004A30B0021DF70",44.979,16.7091,"","","Prijedor","",26058755,"2024-04-11T20:26:08",3,"NO ERROR",17.32,79.9,1014.2,0.47,0.64,0.66],
    [2151,363171,"Vazduh","Libelium","0004A30B0021DF70",44.979,16.7091,"","","Prijedor","",26059399,"2024-04-11T21:26:50",3,"NO ERROR",16.24,85.9,1014.73,0.37,0.63,1.01],
    [2152,363171,"Vazduh","Libelium","0004A30B0021DF70",44.979,16.7091,"","","Prijedor","",26059923,"2024-04-11T22:27:32",3,"NO ERROR",14.35,100,1014.82,0.48,0.63,0.65],
    [2153,363171,"Vazduh","Libelium","0004A30B0021DF70",44.979,16.7091,"","","Prijedor","",26060482,"2024-04-11T23:28:14",3,"NO ERROR",12.84,100,1015.35,0.2,0.28,0.33],
    [2154,363171,"Vazduh","Libelium","0004A30B0021DF70",44.979,16.7091,"","","Prijedor","",26061343,"2024-04-12T00:28:56",3,"NO ERROR",11.99,100,1015.46,0.95,1.39,2.03],
    [2155,363171,"Vazduh","Libelium","0004A30B0021DF70",44.979,16.7091,"","","Prijedor","",26061975,"2024-04-12T01:29:38",3,"NO ERROR",11.22,100,1015.64,0.35,0.47,0.55],
    [2156,363171,"Vazduh","Libelium","0004A30B0021DF70",44.979,16.7091,"","","Prijedor","",26062543,"2024-04-12T02:30:20",3,"NO ERROR",12.15,100,1015.36,0.74,0.94,0.94],
    [2157,363171,"Vazduh","Libelium","0004A30B0021DF70",44.979,16.7091,"","","Prijedor","",26063116,"2024-04-12T03:31:02",3,"NO ERROR",11.73,100,1015.43,0.28,0.31,0.31],
    [2158,363171,"Vazduh","Libelium","0004A30B0021DF70",44.979,16.7091,"","","Prijedor","",26063670,"2024-04-12T04:31:44",3,"NO ERROR",12.04,100,1015.27,0.29,0.36,0.36],
    [2159,363171,"Vazduh","Libelium","0004A30B0021DF70",44.979,16.7091,"","","Prijedor","",26064318,"2024-04-12T05:32:26",3,"NO ERROR",12.49,100,1015.52,0.3,0.45,0.46],
    [2160,363171,"Vazduh","Libelium","0004A30B0021DF70",44.979,16.7091,"","","Prijedor","",26064920,"2024-04-12T06:33:08",3,"NO ERROR",12.7,100,1015.97,0.43,0.61,0.64],
    [2161,363171,"Vazduh","Libelium","0004A30B0021DF70",44.979,16.7091,"","","Prijedor","",26065523,"2024-04-12T07:33:50",3,"NO ERROR",13.13,100,1016.25,0.53,0.97,1.28],
    [2162,363171,"Vazduh","Libelium","0004A30B0021DF70",44.979,16.7091,"","","Prijedor","",26066069,"2024-04-12T08:34:33",3,"NO ERROR",13.8,100,1016.45,0.27,0.33,0.33],
    [2163,363171,"Vazduh","Libelium","0004A30B0021DF70",44.979,16.7091,"","","Prijedor","",26066723,"2024-04-12T09:35:15",3,"NO ERROR",17.35,97.4,1016.38,0.29,0.34,0.34],
    [2164,363171,"Vazduh","Libelium","0004A30B0021DF70",44.979,16.7091,"","","Prijedor","",26067336,"2024-04-12T10:35:57",3,"NO ERROR",20.27,63.8,1016.32,0.25,0.36,0.36],
    [2165,363171,"Vazduh","Libelium","0004A30B0021DF70",44.979,16.7091,"","","Prijedor","",26067912,"2024-04-12T11:36:39",3,"NO ERROR",22.33,53.5,1016.09,0.4,0.52,0.52],
    [2166,363171,"Vazduh","Libelium","0004A30B0021DF70",44.979,16.7091,"","","Prijedor","",26068558,"2024-04-12T12:37:21",3,"NO ERROR",22.31,55.6,1015.57,0.26,0.35,0.37],
    [2167,363171,"Vazduh","Libelium","0004A30B0021DF70",44.979,16.7091,"","","Prijedor","",26069239,"2024-04-12T13:38:03",3,"NO ERROR",23.39,55.1,1014.83,0.21,0.27,0.28],
    [2168,363171,"Vazduh","Libelium","0004A30B0021DF70",44.979,16.7091,"","","Prijedor","",26069895,"2024-04-12T14:38:45",3,"NO ERROR",25.49,49.7,1013.96,0.48,0.9,1.4],
    [2169,363171,"Vazduh","Libelium","0004A30B0021DF70",44.979,16.7091,"","","Prijedor","",26070544,"2024-04-12T15:39:27",3,"NO ERROR",24.99,49,1012.89,0.09,0.2,0.26],
    [2170,363171,"Vazduh","Libelium","0004A30B0021DF70",44.979,16.7091,"","","Prijedor","",26071148,"2024-04-12T16:40:09",3,"NO ERROR",28.49,43.3,1012.13,0.15,0.21,0.21],
    [2171,363171,"Vazduh","Libelium","0004A30B0021DF70",44.979,16.7091,"","","Prijedor","",26071750,"2024-04-12T17:40:51",3,"NO ERROR",24.19,50.3,1011.7,0.35,0.63,0.88],
    [2172,363171,"Vazduh","Libelium","0004A30B0021DF70",44.979,16.7091,"","","Prijedor","",26072404,"2024-04-12T18:41:33",3,"NO ERROR",22.66,55.1,1011.55,0.27,0.31,0.31],
    [2173,363171,"Vazduh","Libelium","0004A30B0021DF70",44.979,16.7091,"","","Prijedor","",26072938,"2024-04-12T19:42:15",3,"NO ERROR",20.71,60.6,1011.61,0.47,0.73,0.75],
    [2174,363171,"Vazduh","Libelium","0004A30B0021DF70",44.979,16.7091,"","","Prijedor","",26073507,"2024-04-12T20:42:57",3,"NO ERROR",18.79,68,1012.1,0.34,0.58,0.69],
    [2175,363171,"Vazduh","Libelium","0004A30B0021DF70",44.979,16.7091,"","","Prijedor","",26074088,"2024-04-12T21:43:40",3,"NO ERROR",16.98,87.8,1012.56,1.03,1.35,1.38],
    [2176,363171,"Vazduh","Libelium","0004A30B0021DF70",44.979,16.7091,"","","Prijedor","",26074652,"2024-04-12T22:44:22",3,"NO ERROR",15.17,97.8,1012.71,0.41,0.83,1.21],
    [2177,363171,"Vazduh","Libelium","0004A30B0021DF70",44.979,16.7091,"","","Prijedor","",26075238,"2024-04-12T23:45:04",3,"NO ERROR",13.42,100,1012.72,0.5,0.95,0.99],
    [2178,363171,"Vazduh","Libelium","0004A30B0021DF70",44.979,16.7091,"","","Prijedor","",26076127,"2024-04-13T00:45:52",3,"NO ERROR",12.45,100,1013.06,0.29,0.37,0.37],
    [2179,363171,"Vazduh","Libelium","0004A30B0021DF70",44.979,16.7091,"","","Prijedor","",26076750,"2024-04-13T01:46:34",3,"NO ERROR",11.7,100,1013.05,0.07,0.09,0.1],
    [2180,363171,"Vazduh","Libelium","0004A30B0021DF70",44.979,16.7091,"","","Prijedor","",26077382,"2024-04-13T02:47:16",3,"NO ERROR",11.33,100,1012.95,0.65,0.94,0.97],
    [2181,363171,"Vazduh","Libelium","0004A30B0021DF70",44.979,16.7091,"","","Prijedor","",26077932,"2024-04-13T03:47:58",3,"NO ERROR",10.83,100,1012.96,0.73,1.06,1.09],
    [2182,363171,"Vazduh","Libelium","0004A30B0021DF70",44.979,16.7091,"","","Prijedor","",26078485,"2024-04-13T04:48:40",3,"NO ERROR",9.85,100,1013.31,0.56,0.79,0.8],
    [2183,363171,"Vazduh","Libelium","0004A30B0021DF70",44.979,16.7091,"","","Prijedor","",26079167,"2024-04-13T05:49:22",3,"NO ERROR",9.03,100,1013.48,0.37,0.51,0.52],
    [2184,363171,"Vazduh","Libelium","0004A30B0021DF70",44.979,16.7091,"","","Prijedor","",26079759,"2024-04-13T06:50:04",3,"NO ERROR",9.47,100,1013.64,0.34,0.44,0.45],
    [2185,363171,"Vazduh","Libelium","0004A30B0021DF70",44.979,16.7091,"","","Prijedor","",26080329,"2024-04-13T07:50:46",3,"NO ERROR",15.73,84.6,1014.02,0.27,0.39,0.39],
    [2186,363171,"Vazduh","Libelium","0004A30B0021DF70",44.979,16.7091,"","","Prijedor","",26080912,"2024-04-13T08:51:29",3,"NO ERROR",19.12,72,1014.05,0.18,0.27,0.28],
    [2187,363171,"Vazduh","Libelium","0004A30B0021DF70",44.979,16.7091,"","","Prijedor","",26081524,"2024-04-13T09:52:11",3,"NO ERROR",18.85,78,1013.9,0.3,0.4,0.41],
    [2188,363171,"Vazduh","Libelium","0004A30B0021DF70",44.979,16.7091,"","","Prijedor","",26082118,"2024-04-13T10:52:59",3,"NO ERROR",24.15,60.3,1013.62,0.25,0.33,0.33],
    [2189,363171,"Vazduh","Libelium","0004A30B0021DF70",44.979,16.7091,"","","Prijedor","",26082755,"2024-04-13T11:53:47",3,"NO ERROR",24.68,54.7,1013.17,0.38,0.42,0.42],
    [2190,363171,"Vazduh","Libelium","0004A30B0021DF70",44.979,16.7091,"","","Prijedor","",26083340,"2024-04-13T12:54:35",3,"NO ERROR",24.26,51,1012.74,0.2,0.32,0.39],
    [2191,363171,"Vazduh","Libelium","0004A30B0021DF70",44.979,16.7091,"","","Prijedor","",26084039,"2024-04-13T13:55:17",3,"NO ERROR",25.93,46.3,1011.81,0.23,0.32,0.32],
    [2192,363171,"Vazduh","Libelium","0004A30B0021DF70",44.979,16.7091,"","","Prijedor","",26084702,"2024-04-13T14:55:59",3,"NO ERROR",26.67,43.5,1010.94,0.2,0.38,0.85],
    [2193,363171,"Vazduh","Libelium","0004A30B0021DF70",44.979,16.7091,"","","Prijedor","",26085308,"2024-04-13T15:56:41",3,"NO ERROR",30.21,37.5,1010.33,0.2,0.22,0.22],
    [2194,363171,"Vazduh","Libelium","0004A30B0021DF70",44.979,16.7091,"","","Prijedor","",26085939,"2024-04-13T16:57:23",3,"NO ERROR",29.23,37.4,1009.72,0.17,0.3,0.39],
    [2195,363171,"Vazduh","Libelium","0004A30B0021DF70",44.979,16.7091,"","","Prijedor","",26086598,"2024-04-13T17:58:05",3,"NO ERROR",24.86,43.9,1009.47,0.25,0.38,0.63],
    [2196,363171,"Vazduh","Libelium","0004A30B0021DF70",44.979,16.7091,"","","Prijedor","",26087183,"2024-04-13T18:58:47",3,"NO ERROR",23.3,46.9,1009.29,0.59,1.14,1.8],
    [2197,363171,"Vazduh","Libelium","0004A30B0021DF70",44.979,16.7091,"","","Prijedor","",26087732,"2024-04-13T19:59:29",3,"NO ERROR",20.42,57.3,1009.47,0.51,0.87,1.02],
    [2198,363171,"Vazduh","Libelium","0004A30B0021DF70",44.979,16.7091,"","","Prijedor","",26088309,"2024-04-13T21:00:11",3,"NO ERROR",18.03,71.2,1009.77,0.37,0.51,0.54],
    [2199,363171,"Vazduh","Libelium","0004A30B0021DF70",44.979,16.7091,"","","Prijedor","",26088939,"2024-04-13T22:01:00",3,"NO ERROR",15.41,87.4,1010.2,0.28,0.36,0.37],
    [2200,363171,"Vazduh","Libelium","0004A30B0021DF70",44.979,16.7091,"","","Prijedor","",26089554,"2024-04-13T23:01:42",3,"NO ERROR",14.23,99.4,1010.18,0.45,0.49,0.49],
    [2201,363171,"Vazduh","Libelium","0004A30B0021DF70",44.979,16.7091,"","","Prijedor","",26090288,"2024-04-14T00:02:36",3,"NO ERROR",12.63,100,1010.06,0.46,0.62,0.63],
    [2202,363171,"Vazduh","Libelium","0004A30B0021DF70",44.979,16.7091,"","","Prijedor","",26090927,"2024-04-14T01:03:18",3,"NO ERROR",11.67,100,1010,0.47,0.69,0.7],
    [2203,363171,"Vazduh","Libelium","0004A30B0021DF70",44.979,16.7091,"","","Prijedor","",26091469,"2024-04-14T02:04:00",3,"NO ERROR",10.95,100,1009.69,0.72,1.06,1.09],
    [2204,363171,"Vazduh","Libelium","0004A30B0021DF70",44.979,16.7091,"","","Prijedor","",26092032,"2024-04-14T03:04:42",3,"NO ERROR",10.01,100,1009.6,0.3,0.37,0.37],
    [2205,363171,"Vazduh","Libelium","0004A30B0021DF70",44.979,16.7091,"","","Prijedor","",26092544,"2024-04-14T04:05:24",3,"NO ERROR",9.53,100,1009.52,0.3,0.48,0.51],
    [2206,363171,"Vazduh","Libelium","0004A30B0021DF70",44.979,16.7091,"","","Prijedor","",26093103,"2024-04-14T05:06:06",3,"NO ERROR",9.58,100,1009.32,0.08,0.09,0.09],
    [2207,363171,"Vazduh","Libelium","0004A30B0021DF70",44.979,16.7091,"","","Prijedor","",26093774,"2024-04-14T06:06:48",3,"NO ERROR",9.91,100,1009.29,0.13,0.24,0.26],
    [2208,363171,"Vazduh","Libelium","0004A30B0021DF70",44.979,16.7091,"","","Prijedor","",26094406,"2024-04-14T07:07:30",3,"NO ERROR",9.36,100,1009.56,0.2,0.28,0.29],
    [2209,363171,"Vazduh","Libelium","0004A30B0021DF70",44.979,16.7091,"","","Prijedor","",26094977,"2024-04-14T08:08:12",3,"NO ERROR",16.91,76.1,1009.4,0.15,0.2,0.21],
    [2210,363171,"Vazduh","Libelium","0004A30B0021DF70",44.979,16.7091,"","","Prijedor","",26095590,"2024-04-14T09:08:55",3,"NO ERROR",21.54,61,1009.03,0.29,0.35,0.35],
    [2211,363171,"Vazduh","Libelium","0004A30B0021DF70",44.979,16.7091,"","","Prijedor","",26096173,"2024-04-14T10:09:37",3,"NO ERROR",20.82,67,1008.46,0.23,0.43,0.44],
    [2212,363171,"Vazduh","Libelium","0004A30B0021DF70",44.979,16.7091,"","","Prijedor","",26096809,"2024-04-14T11:10:19",3,"NO ERROR",21.43,61.9,1008.12,0.15,0.31,2.97],
    [2213,363171,"Vazduh","Libelium","0004A30B0021DF70",44.979,16.7091,"","","Prijedor","",26097458,"2024-04-14T12:11:01",3,"NO ERROR",24.46,51.6,1007.15,0.19,0.28,0.28],
    [2214,363171,"Vazduh","Libelium","0004A30B0021DF70",44.979,16.7091,"","","Prijedor","",26098116,"2024-04-14T13:11:43",3,"NO ERROR",27.9,39.4,1006.46,0.08,0.11,0.11],
    [2215,363171,"Vazduh","Libelium","0004A30B0021DF70",44.979,16.7091,"","","Prijedor","",26098791,"2024-04-14T14:12:25",3,"NO ERROR",29.74,35.6,1005.33,0.1,0.13,0.13],
    [2216,363171,"Vazduh","Libelium","0004A30B0021DF70",44.979,16.7091,"","","Prijedor","",26099480,"2024-04-14T15:13:07",3,"NO ERROR",32.02,30.6,1004.18,0.08,0.09,0.09],
    [2217,363171,"Vazduh","Libelium","0004A30B0021DF70",44.979,16.7091,"","","Prijedor","",26100079,"2024-04-14T16:13:49",3,"NO ERROR",36.14,27.6,1003.28,0.16,0.17,0.17],
    [2218,363171,"Vazduh","Libelium","0004A30B0021DF70",44.979,16.7091,"","","Prijedor","",26100677,"2024-04-14T17:14:31",3,"NO ERROR",35.75,27.3,1002.61,0.24,0.3,0.3],
    [2219,363171,"Vazduh","Libelium","0004A30B0021DF70",44.979,16.7091,"","","Prijedor","",26101321,"2024-04-14T18:15:13",3,"NO ERROR",29.41,33.6,1002.19,0.12,0.15,0.15],
    [2220,363171,"Vazduh","Libelium","0004A30B0021DF70",44.979,16.7091,"","","Prijedor","",26101889,"2024-04-14T19:15:55",3,"NO ERROR",26.99,40.1,1001.8,0.3,0.4,0.41],
    [2221,363171,"Vazduh","Libelium","0004A30B0021DF70",44.979,16.7091,"","","Prijedor","",26102419,"2024-04-14T20:16:37",3,"NO ERROR",22.76,57.9,1002.31,0.57,0.95,1.2],
    [2222,363171,"Vazduh","Libelium","0004A30B0021DF70",44.979,16.7091,"","","Prijedor","",26103039,"2024-04-14T21:17:20",3,"NO ERROR",19.91,75.7,1002.64,0.57,1.08,2.04],
    [2223,363171,"Vazduh","Libelium","0004A30B0021DF70",44.979,16.7091,"","","Prijedor","",26103634,"2024-04-14T22:18:02",3,"NO ERROR",18.23,80,1002.56,0.37,0.6,0.75],
    [2224,363171,"Vazduh","Libelium","0004A30B0021DF70",44.979,16.7091,"","","Prijedor","",26104231,"2024-04-14T23:18:44",3,"NO ERROR",15.74,98.3,1002.54,0.36,0.84,1.15],
    [2225,363171,"Vazduh","Libelium","0004A30B0021DF70",44.979,16.7091,"","","Prijedor","",26105179,"2024-04-15T00:19:38",3,"NO ERROR",14.81,97.1,1002.21,0.58,0.83,0.86],
    [2226,363171,"Vazduh","Libelium","0004A30B0021DF70",44.979,16.7091,"","","Prijedor","",26105940,"2024-04-15T01:20:20",3,"NO ERROR",12.36,100,1002.08,0.16,0.23,0.24],
    [2227,363171,"Vazduh","Libelium","0004A30B0021DF70",44.979,16.7091,"","","Prijedor","",26106628,"2024-04-15T02:21:02",3,"NO ERROR",12.37,100,1001.51,0.21,0.31,0.32],
    [2228,363171,"Vazduh","Libelium","0004A30B0021DF70",44.979,16.7091,"","","Prijedor","",26107297,"2024-04-15T03:21:44",3,"NO ERROR",10.48,100,1001.36,0.1,0.1,0.1],
    [2229,363171,"Vazduh","Libelium","0004A30B0021DF70",44.979,16.7091,"","","Prijedor","",26107876,"2024-04-15T04:22:26",3,"NO ERROR",9.77,100,1000.81,0.09,0.1,0.1],
    [2230,363171,"Vazduh","Libelium","0004A30B0021DF70",44.979,16.7091,"","","Prijedor","",26108566,"2024-04-15T05:23:08",3,"NO ERROR",9.14,100,1000.16,0.41,0.49,0.49],
    [2231,363171,"Vazduh","Libelium","0004A30B0021DF70",44.979,16.7091,"","","Prijedor","",26109290,"2024-04-15T06:23:50",3,"NO ERROR",8.74,100,999.97,0.39,0.65,0.79],
    [2232,363171,"Vazduh","Libelium","0004A30B0021DF70",44.979,16.7091,"","","Prijedor","",26109948,"2024-04-15T07:24:32",3,"NO ERROR",16.1,78.8,999.56,0.36,0.48,0.5],
    [2233,363171,"Vazduh","Libelium","0004A30B0021DF70",44.979,16.7091,"","","Prijedor","",26110525,"2024-04-15T08:25:15",3,"NO ERROR",18.67,67.1,998.95,0.32,0.61,1.38],
    [2234,363171,"Vazduh","Libelium","0004A30B0021DF70",44.979,16.7091,"","","Prijedor","",26111132,"2024-04-15T09:25:57",3,"NO ERROR",25.54,47,998.39,0.63,1.44,2.17],
    [2235,363171,"Vazduh","Libelium","0004A30B0021DF70",44.979,16.7091,"","","Prijedor","",26111730,"2024-04-15T10:26:39",3,"NO ERROR",27.78,42.6,997.81,0.31,0.39,0.39],
    [2236,363171,"Vazduh","Libelium","0004A30B0021DF70",44.979,16.7091,"","","Prijedor","",26112316,"2024-04-15T11:27:21",3,"NO ERROR",28.62,41.7,997.19,0.54,0.79,0.81],
    [2237,363171,"Vazduh","Libelium","0004A30B0021DF70",44.979,16.7091,"","","Prijedor","",26112950,"2024-04-15T12:28:03",3,"NO ERROR",29.88,35.9,996.58,0.45,0.65,0.66],
    [2238,363171,"Vazduh","Libelium","0004A30B0021DF70",44.979,16.7091,"","","Prijedor","",26113637,"2024-04-15T13:28:45",3,"NO ERROR",30.63,31.7,995.83,0.53,1.09,14.48],
    [2239,363171,"Vazduh","Libelium","0004A30B0021DF70",44.979,16.7091,"","","Prijedor","",26114267,"2024-04-15T14:29:27",3,"NO ERROR",29.59,30.1,995.32,0.49,1.04,3.27],
    [2240,363171,"Vazduh","Libelium","0004A30B0021DF70",44.979,16.7091,"","","Prijedor","",26114938,"2024-04-15T15:30:09",3,"NO ERROR",28.57,33.5,994.8,0.18,0.2,0.2],
    [2241,363171,"Vazduh","Libelium","0004A30B0021DF70",44.979,16.7091,"","","Prijedor","",26115531,"2024-04-15T16:30:51",3,"NO ERROR",26.78,35.8,994.3,0.25,0.39,0.4],
    [2242,363171,"Vazduh","Libelium","0004A30B0021DF70",44.979,16.7091,"","","Prijedor","",26116169,"2024-04-15T17:31:39",3,"NO ERROR",25.43,38.1,993.79,0.25,0.28,0.28],
    [2243,363171,"Vazduh","Libelium","0004A30B0021DF70",44.979,16.7091,"","","Prijedor","",26116814,"2024-04-15T18:32:21",3,"NO ERROR",24.24,40.1,992.86,0.41,0.55,0.56],
    [2244,363171,"Vazduh","Libelium","0004A30B0021DF70",44.979,16.7091,"","","Prijedor","",26117970,"2024-04-15T20:33:52",3,"NO ERROR",20.84,42.4,992.38,0.32,0.77,1.34],
    [2245,363171,"Vazduh","Libelium","0004A30B0021DF70",44.979,16.7091,"","","Prijedor","",26126767,"2024-04-16T09:43:10",3,"NO ERROR",28.04,35.6,985.42,0.42,0.61,0.7],
    [2246,363171,"Vazduh","Libelium","0004A30B0021DF70",44.979,16.7091,"","","Prijedor","",26127393,"2024-04-16T10:43:52",3,"NO ERROR",28.33,36,984.76,0.68,0.89,0.91],
    [2247,363171,"Vazduh","Libelium","0004A30B0021DF70",44.979,16.7091,"","","Prijedor","",26128000,"2024-04-16T11:44:35",3,"NO ERROR",27.8,33.8,984.65,0.68,1.05,1.09],
    [2248,363171,"Vazduh","Libelium","0004A30B0021DF70",44.979,16.7091,"","","Prijedor","",26128610,"2024-04-16T12:45:17",3,"NO ERROR",26.54,39.3,984.91,0.59,1.66,7.21],
    [2249,363171,"Vazduh","Libelium","0004A30B0021DF70",44.979,16.7091,"","","Prijedor","",26129288,"2024-04-16T13:45:59",3,"NO ERROR",15.33,63.7,986.23,0.29,0.74,4.12],
    [2250,363171,"Vazduh","Libelium","0004A30B0021DF70",44.979,16.7091,"","","Prijedor","",26129950,"2024-04-16T14:46:41",3,"NO ERROR",11.83,76.5,988,0.06,0.12,16.52],
    [2251,363171,"Vazduh","Libelium","0004A30B0021DF70",44.979,16.7091,"","","Prijedor","",26130594,"2024-04-16T15:47:23",3,"NO ERROR",8.53,92.8,990.55,0.05,0.05,0.05],
    [2252,363171,"Vazduh","Libelium","0004A30B0021DF70",44.979,16.7091,"","","Prijedor","",26131173,"2024-04-16T16:48:05",3,"NO ERROR",7.23,90.5,992.67,0.03,0.03,0.03],
    [2253,363171,"Vazduh","Libelium","0004A30B0021DF70",44.979,16.7091,"","","Prijedor","",26131789,"2024-04-16T17:48:47",3,"NO ERROR",4.17,100,995.1,0.02,0.02,0.02],
    [2254,363171,"Vazduh","Libelium","0004A30B0021DF70",44.979,16.7091,"","","Prijedor","",26132308,"2024-04-16T18:49:29",3,"NO ERROR",4.06,100,995.35,0.05,0.06,0.06],
    [2255,363171,"Vazduh","Libelium","0004A30B0021DF70",44.979,16.7091,"","","Prijedor","",26132790,"2024-04-16T19:50:11",3,"NO ERROR",3.09,100,995.7,0.03,0.03,0.03],
    [2256,363171,"Vazduh","Libelium","0004A30B0021DF70",44.979,16.7091,"","","Prijedor","",26133265,"2024-04-16T20:50:53",3,"NO ERROR",2.48,100,995.84,0.06,0.08,0.09],
    [2257,363171,"Vazduh","Libelium","0004A30B0021DF70",44.979,16.7091,"","","Prijedor","",26133786,"2024-04-16T21:51:36",3,"NO ERROR",2.04,100,996.03,0,0,0],
    [2258,363171,"Vazduh","Libelium","0004A30B0021DF70",44.979,16.7091,"","","Prijedor","",26134297,"2024-04-16T22:52:18",3,"NO ERROR",1.73,100,994.99,0.02,0.02,0.02],
    [2259,363171,"Vazduh","Libelium","0004A30B0021DF70",44.979,16.7091,"","","Prijedor","",26134860,"2024-04-16T23:53:00",3,"NO ERROR",1.94,100,994.35,0.07,0.07,0.07],
    [2260,363171,"Vazduh","Libelium","0004A30B0021DF70",44.979,16.7091,"","","Prijedor","",26135629,"2024-04-17T00:53:42",3,"NO ERROR",2.19,100,993.76,0.05,0.06,0.06],
    [2261,363171,"Vazduh","Libelium","0004A30B0021DF70",44.979,16.7091,"","","Prijedor","",26136152,"2024-04-17T01:54:24",3,"NO ERROR",2.25,100,992.93,0.05,0.05,0.05],
    [2262,363171,"Vazduh","Libelium","0004A30B0021DF70",44.979,16.7091,"","","Prijedor","",26136662,"2024-04-17T02:55:06",3,"NO ERROR",2.32,100,992.28,0.03,0.03,0.03],
    [2263,363171,"Vazduh","Libelium","0004A30B0021DF70",44.979,16.7091,"","","Prijedor","",26137161,"2024-04-17T03:55:48",3,"NO ERROR",2.58,100,991.31,0.02,0.02,0.02],
    [2264,363171,"Vazduh","Libelium","0004A30B0021DF70",44.979,16.7091,"","","Prijedor","",26137703,"2024-04-17T04:56:31",3,"NO ERROR",2.46,100,990.36,0.12,0.26,0.35],
    [2265,363171,"Vazduh","Libelium","0004A30B0021DF70",44.979,16.7091,"","","Prijedor","",26138341,"2024-04-17T05:57:13",3,"NO ERROR",2.54,100,990.65,0,0,0],
    [2266,363171,"Vazduh","Libelium","0004A30B0021DF70",44.979,16.7091,"","","Prijedor","",26138890,"2024-04-17T06:57:55",3,"NO ERROR",2.92,100,990.75,0.08,0.09,0.09],
    [2267,363171,"Vazduh","Libelium","0004A30B0021DF70",44.979,16.7091,"","","Prijedor","",26139455,"2024-04-17T07:58:37",3,"NO ERROR",3.92,100,990.88,0.05,0.09,0.09],
    [2268,363171,"Vazduh","Libelium","0004A30B0021DF70",44.979,16.7091,"","","Prijedor","",26140047,"2024-04-17T08:59:19",3,"NO ERROR",4.78,100,991.12,0.04,0.04,0.04],
    [2269,363171,"Vazduh","Libelium","0004A30B0021DF70",44.979,16.7091,"","","Prijedor","",26140563,"2024-04-17T10:00:01",3,"NO ERROR",6.41,100,991.06,0.19,0.35,0.39],
    [2270,363171,"Vazduh","Libelium","0004A30B0021DF70",44.979,16.7091,"","","Prijedor","",26140563,"2024-04-17T10:00:01",3,"NO ERROR",6.41,100,991.06,0.19,0.35,0.39],
    [2271,363171,"Vazduh","Libelium","0004A30B0021DF70",44.979,16.7091,"","","Prijedor","",26141096,"2024-04-17T11:00:43",3,"NO ERROR",7.54,100,991.2,0.05,0.06,0.06],
    [2272,363171,"Vazduh","Libelium","0004A30B0021DF70",44.979,16.7091,"","","Prijedor","",26141615,"2024-04-17T12:01:25",3,"NO ERROR",7.58,100,991.11,0,0,0],
    [2273,363171,"Vazduh","Libelium","0004A30B0021DF70",44.979,16.7091,"","","Prijedor","",26142163,"2024-04-17T13:02:07",3,"NO ERROR",7.2,100,991.15,0.02,0.09,0.17],
    [2274,363171,"Vazduh","Libelium","0004A30B0021DF70",44.979,16.7091,"","","Prijedor","",26142838,"2024-04-17T14:03:02",3,"NO ERROR",10.33,90.2,991.11,0.03,0.03,0.03],
    [2275,363171,"Vazduh","Libelium","0004A30B0021DF70",44.979,16.7091,"","","Prijedor","",26143479,"2024-04-17T15:03:44",3,"NO ERROR",10.85,86.1,990.9,0.07,0.09,0.09],
    [2276,363171,"Vazduh","Libelium","0004A30B0021DF70",44.979,16.7091,"","","Prijedor","",26144065,"2024-04-17T16:04:26",3,"NO ERROR",13.81,73.5,990.27,0.03,0.12,1.12],
    [2277,363171,"Vazduh","Libelium","0004A30B0021DF70",44.979,16.7091,"","","Prijedor","",26144673,"2024-04-17T17:05:08",3,"NO ERROR",12.1,69.7,990.16,0.1,0.13,0.13],
    [2278,363171,"Vazduh","Libelium","0004A30B0021DF70",44.979,16.7091,"","","Prijedor","",26145307,"2024-04-17T18:05:50",3,"NO ERROR",10.45,75.3,990.51,0.08,0.11,0.11],
    [2279,363171,"Vazduh","Libelium","0004A30B0021DF70",44.979,16.7091,"","","Prijedor","",26145883,"2024-04-17T19:06:32",3,"NO ERROR",9.36,83.6,990.91,0.18,0.23,0.23],
    [2280,363171,"Vazduh","Libelium","0004A30B0021DF70",44.979,16.7091,"","","Prijedor","",26146391,"2024-04-17T20:07:14",3,"NO ERROR",8.42,100,991.44,0.07,0.09,0.09],
    [2281,363171,"Vazduh","Libelium","0004A30B0021DF70",44.979,16.7091,"","","Prijedor","",26146924,"2024-04-17T21:07:56",3,"NO ERROR",7.64,100,991.99,0,0,0],
    [2282,363171,"Vazduh","Libelium","0004A30B0021DF70",44.979,16.7091,"","","Prijedor","",26147458,"2024-04-17T22:08:38",3,"NO ERROR",7.01,100,991.87,0.04,0.07,0.07],
    [2283,363171,"Vazduh","Libelium","0004A30B0021DF70",44.979,16.7091,"","","Prijedor","",26147998,"2024-04-17T23:09:20",3,"NO ERROR",6.58,100,992.09,0.11,0.12,0.12],
    [2284,363171,"Vazduh","Libelium","0004A30B0021DF70",44.979,16.7091,"","","Prijedor","",26148721,"2024-04-18T00:10:02",3,"NO ERROR",6.33,100,992.48,0.17,0.18,0.18],
    [2285,363171,"Vazduh","Libelium","0004A30B0021DF70",44.979,16.7091,"","","Prijedor","",26149339,"2024-04-18T01:10:45",3,"NO ERROR",5.3,100,993.16,0.06,0.13,0.37],
    [2286,363171,"Vazduh","Libelium","0004A30B0021DF70",44.979,16.7091,"","","Prijedor","",26149903,"2024-04-18T02:11:27",3,"NO ERROR",4.59,100,993,0.24,0.32,0.32],
    [2287,363171,"Vazduh","Libelium","0004A30B0021DF70",44.979,16.7091,"","","Prijedor","",26150484,"2024-04-18T03:12:09",3,"NO ERROR",4.05,100,993.01,0.14,0.16,0.16],
    [2288,363171,"Vazduh","Libelium","0004A30B0021DF70",44.979,16.7091,"","","Prijedor","",26151015,"2024-04-18T04:12:51",3,"NO ERROR",2.79,100,993.01,0.22,0.38,0.4],
    [2289,363171,"Vazduh","Libelium","0004A30B0021DF70",44.979,16.7091,"","","Prijedor","",26151660,"2024-04-18T05:13:33",3,"NO ERROR",2.29,100,993.16,1.85,15.31,269.39],
    [2290,363171,"Vazduh","Libelium","0004A30B0021DF70",44.979,16.7091,"","","Prijedor","",26152325,"2024-04-18T06:14:15",3,"NO ERROR",2.42,100,993.64,6.75,18.02,418.23],
    [2291,363171,"Vazduh","Libelium","0004A30B0021DF70",44.979,16.7091,"","","Prijedor","",26152908,"2024-04-18T07:14:57",3,"NO ERROR",3.21,100,994.54,1.6,5.66,59.18],
    [2292,363171,"Vazduh","Libelium","0004A30B0021DF70",44.979,16.7091,"","","Prijedor","",26153461,"2024-04-18T08:15:46",3,"NO ERROR",4.89,100,994.72,2.19,8.13,61.74],
    [2293,363171,"Vazduh","Libelium","0004A30B0021DF70",44.979,16.7091,"","","Prijedor","",26154043,"2024-04-18T09:16:28",3,"NO ERROR",10.61,92.7,995.08,0.18,0.25,0.25],
    [2294,363171,"Vazduh","Libelium","0004A30B0021DF70",44.979,16.7091,"","","Prijedor","",26154637,"2024-04-18T10:17:16",3,"NO ERROR",13.35,68.7,995.13,0.03,0.05,0.05],
    [2295,363171,"Vazduh","Libelium","0004A30B0021DF70",44.979,16.7091,"","","Prijedor","",26155237,"2024-04-18T11:17:58",3,"NO ERROR",13.61,58.8,995.21,0.07,0.09,0.09],
    [2296,363171,"Vazduh","Libelium","0004A30B0021DF70",44.979,16.7091,"","","Prijedor","",26155875,"2024-04-18T12:18:46",3,"NO ERROR",14.49,52.1,995.1,0.09,0.1,0.1],
    [2297,363171,"Vazduh","Libelium","0004A30B0021DF70",44.979,16.7091,"","","Prijedor","",26156524,"2024-04-18T13:19:28",3,"NO ERROR",13.96,55.7,995.31,0.05,0.05,0.05],
    [2298,363171,"Vazduh","Libelium","0004A30B0021DF70",44.979,16.7091,"","","Prijedor","",26157176,"2024-04-18T14:20:10",3,"NO ERROR",14.83,51.7,995.27,0.04,0.09,0.09],
    [2299,363171,"Vazduh","Libelium","0004A30B0021DF70",44.979,16.7091,"","","Prijedor","",26157851,"2024-04-18T15:20:52",3,"NO ERROR",16.72,46.1,995.06,0.02,0.02,0.02],
    [2300,363171,"Vazduh","Libelium","0004A30B0021DF70",44.979,16.7091,"","","Prijedor","",26158498,"2024-04-18T16:21:34",3,"NO ERROR",15.58,45.2,995.23,0.02,0.02,0.02],
    [2301,363171,"Vazduh","Libelium","0004A30B0021DF70",44.979,16.7091,"","","Prijedor","",26159130,"2024-04-18T17:22:22",3,"NO ERROR",13.8,48.8,995.37,0.27,0.36,0.36],
    [2302,363171,"Vazduh","Libelium","0004A30B0021DF70",44.979,16.7091,"","","Prijedor","",26159763,"2024-04-18T18:23:04",3,"NO ERROR",13.09,52.7,995.82,0.02,0.02,0.02],
    [2303,363171,"Vazduh","Libelium","0004A30B0021DF70",44.979,16.7091,"","","Prijedor","",26160326,"2024-04-18T19:23:46",3,"NO ERROR",12.43,54.1,996.4,0.08,0.14,0.15],
    [2304,363171,"Vazduh","Libelium","0004A30B0021DF70",44.979,16.7091,"","","Prijedor","",26160899,"2024-04-18T20:24:28",3,"NO ERROR",10.26,61.5,997.37,0.17,0.19,0.19],
    [2305,363171,"Vazduh","Libelium","0004A30B0021DF70",44.979,16.7091,"","","Prijedor","",26161561,"2024-04-18T21:25:11",3,"NO ERROR",8.87,70.7,998.13,0.22,0.37,0.5],
    [2306,363171,"Vazduh","Libelium","0004A30B0021DF70",44.979,16.7091,"","","Prijedor","",26162078,"2024-04-18T22:25:53",3,"NO ERROR",6.99,91.1,998.56,0.1,0.1,0.1],
    [2307,363171,"Vazduh","Libelium","0004A30B0021DF70",44.979,16.7091,"","","Prijedor","",26162567,"2024-04-18T23:26:41",3,"NO ERROR",5.09,100,999.04,0.11,0.25,0.38],
    [2308,363171,"Vazduh","Libelium","0004A30B0021DF70",44.979,16.7091,"","","Prijedor","",26163264,"2024-04-19T00:27:23",3,"NO ERROR",3.77,100,999.66,0.29,0.39,0.4],
    [2309,363171,"Vazduh","Libelium","0004A30B0021DF70",44.979,16.7091,"","","Prijedor","",26163799,"2024-04-19T01:28:05",3,"NO ERROR",3.7,100,1000.05,0.05,0.11,0.12],
    [2310,363171,"Vazduh","Libelium","0004A30B0021DF70",44.979,16.7091,"","","Prijedor","",26164322,"2024-04-19T02:28:47",3,"NO ERROR",3.81,100,1000.34,0.02,0.02,0.02],
    [2311,363171,"Vazduh","Libelium","0004A30B0021DF70",44.979,16.7091,"","","Prijedor","",26164837,"2024-04-19T03:29:29",3,"NO ERROR",3.98,100,1000.6,0.22,0.36,0.36],
    [2312,363171,"Vazduh","Libelium","0004A30B0021DF70",44.979,16.7091,"","","Prijedor","",26165326,"2024-04-19T04:30:11",3,"NO ERROR",3.59,100,1000.8,0.03,0.06,0.06],
    [2313,363171,"Vazduh","Libelium","0004A30B0021DF70",44.979,16.7091,"","","Prijedor","",26165927,"2024-04-19T05:30:54",3,"NO ERROR",4.43,100,1000.97,0.14,0.19,0.19],
    [2314,363171,"Vazduh","Libelium","0004A30B0021DF70",44.979,16.7091,"","","Prijedor","",26166563,"2024-04-19T06:31:36",3,"NO ERROR",4.8,100,1001.65,0.12,0.15,0.15],
    [2315,363171,"Vazduh","Libelium","0004A30B0021DF70",44.979,16.7091,"","","Prijedor","",26167161,"2024-04-19T07:32:24",3,"NO ERROR",10.06,75.3,1002.05,0.21,0.31,0.31],
    [2316,363171,"Vazduh","Libelium","0004A30B0021DF70",44.979,16.7091,"","","Prijedor","",26167716,"2024-04-19T08:33:06",3,"NO ERROR",12.77,63.1,1002.07,0.05,0.08,0.08],
    [2317,363171,"Vazduh","Libelium","0004A30B0021DF70",44.979,16.7091,"","","Prijedor","",26168352,"2024-04-19T09:33:48",3,"NO ERROR",14.26,49.4,1001.76,0.36,0.47,0.47],
    [2318,363171,"Vazduh","Libelium","0004A30B0021DF70",44.979,16.7091,"","","Prijedor","",26168948,"2024-04-19T10:34:30",3,"NO ERROR",12.34,46.9,1001.66,0.03,0.03,0.03],
    [2319,363171,"Vazduh","Libelium","0004A30B0021DF70",44.979,16.7091,"","","Prijedor","",26169528,"2024-04-19T11:35:12",3,"NO ERROR",12.4,46.4,1001.17,0.02,0.02,0.02],
    [2320,363171,"Vazduh","Libelium","0004A30B0021DF70",44.979,16.7091,"","","Prijedor","",26170149,"2024-04-19T12:36:00",3,"NO ERROR",13.8,44.5,1000.11,0.03,0.03,0.03],
    [2321,363171,"Vazduh","Libelium","0004A30B0021DF70",44.979,16.7091,"","","Prijedor","",26170805,"2024-04-19T13:36:42",3,"NO ERROR",14.23,37.9,999.29,0.02,0.02,0.02],
    [2322,363171,"Vazduh","Libelium","0004A30B0021DF70",44.979,16.7091,"","","Prijedor","",26171446,"2024-04-19T14:37:24",3,"NO ERROR",16.3,35.8,998.39,0.03,0.05,0.05],
    [2323,363171,"Vazduh","Libelium","0004A30B0021DF70",44.979,16.7091,"","","Prijedor","",26172062,"2024-04-19T15:38:19",3,"NO ERROR",16.63,35.9,997.6,0.23,0.3,0.3],
    [2324,363171,"Vazduh","Libelium","0004A30B0021DF70",44.979,16.7091,"","","Prijedor","",26172674,"2024-04-19T16:39:00",3,"NO ERROR",17.34,32.4,996.7,0.01,0.03,0.03],
    [2325,363171,"Vazduh","Libelium","0004A30B0021DF70",44.979,16.7091,"","","Prijedor","",26173315,"2024-04-19T17:39:43",3,"NO ERROR",13.98,36.5,996.42,0,0,0],
    [2326,363171,"Vazduh","Libelium","0004A30B0021DF70",44.979,16.7091,"","","Prijedor","",26173932,"2024-04-19T18:40:31",3,"NO ERROR",13.26,38.9,996.07,0.05,0.08,0.08],
    [2327,363171,"Vazduh","Libelium","0004A30B0021DF70",44.979,16.7091,"","","Prijedor","",26174490,"2024-04-19T19:41:13",3,"NO ERROR",12.05,42.2,995.63,0.13,0.16,0.16],
    [2328,363171,"Vazduh","Libelium","0004A30B0021DF70",44.979,16.7091,"","","Prijedor","",26175063,"2024-04-19T20:41:55",3,"NO ERROR",9.13,61.2,995.87,0.32,0.45,0.8],
    [2329,363171,"Vazduh","Libelium","0004A30B0021DF70",44.979,16.7091,"","","Prijedor","",26175665,"2024-04-19T21:42:37",3,"NO ERROR",7.41,73.6,995.62,0.18,0.24,0.24],
    [2330,363171,"Vazduh","Libelium","0004A30B0021DF70",44.979,16.7091,"","","Prijedor","",26176234,"2024-04-19T22:43:19",3,"NO ERROR",6.01,88.5,995.54,0.52,0.61,0.61],
    [2331,363171,"Vazduh","Libelium","0004A30B0021DF70",44.979,16.7091,"","","Prijedor","",26176802,"2024-04-19T23:44:01",3,"NO ERROR",4.27,97.4,995.41,0.86,0.99,1],
    [2332,363171,"Vazduh","Libelium","0004A30B0021DF70",44.979,16.7091,"","","Prijedor","",26177614,"2024-04-20T00:44:55",3,"NO ERROR",3.74,100,995.05,0.24,0.3,0.3],
    [2333,363171,"Vazduh","Libelium","0004A30B0021DF70",44.979,16.7091,"","","Prijedor","",26178185,"2024-04-20T01:45:37",3,"NO ERROR",4.96,96.8,994.48,0.25,0.31,0.31],
    [2334,363171,"Vazduh","Libelium","0004A30B0021DF70",44.979,16.7091,"","","Prijedor","",26178757,"2024-04-20T02:46:19",3,"NO ERROR",3.5,100,994.13,0.26,0.32,0.32],
    [2335,363171,"Vazduh","Libelium","0004A30B0021DF70",44.979,16.7091,"","","Prijedor","",26179305,"2024-04-20T03:47:02",3,"NO ERROR",3.52,100,993.74,0.14,0.19,0.19],
    [2336,363171,"Vazduh","Libelium","0004A30B0021DF70",44.979,16.7091,"","","Prijedor","",26179844,"2024-04-20T04:47:44",3,"NO ERROR",2.85,100,993.76,0.07,0.07,0.07],
    [2337,363171,"Vazduh","Libelium","0004A30B0021DF70",44.979,16.7091,"","","Prijedor","",26180503,"2024-04-20T05:48:26",3,"NO ERROR",2.46,100,993.53,0.1,0.19,0.21],
    [2338,363171,"Vazduh","Libelium","0004A30B0021DF70",44.979,16.7091,"","","Prijedor","",26181101,"2024-04-20T06:49:08",3,"NO ERROR",4.69,100,994.06,0.05,0.05,0.05],
    [2339,363171,"Vazduh","Libelium","0004A30B0021DF70",44.979,16.7091,"","","Prijedor","",26181694,"2024-04-20T07:49:50",3,"NO ERROR",9.19,73,994.34,0.16,0.21,0.21],
    [2340,363171,"Vazduh","Libelium","0004A30B0021DF70",44.979,16.7091,"","","Prijedor","",26182294,"2024-04-20T08:50:32",3,"NO ERROR",12.13,58,994.76,0.18,0.21,0.21],
    [2341,363171,"Vazduh","Libelium","0004A30B0021DF70",44.979,16.7091,"","","Prijedor","",26182892,"2024-04-20T09:51:14",3,"NO ERROR",11.86,59.1,994.87,0.02,0.12,2.71],
    [2342,363171,"Vazduh","Libelium","0004A30B0021DF70",44.979,16.7091,"","","Prijedor","",26183474,"2024-04-20T10:51:56",3,"NO ERROR",14.53,54.4,994.88,0.38,0.45,0.45],
    [2343,363171,"Vazduh","Libelium","0004A30B0021DF70",44.979,16.7091,"","","Prijedor","",26184130,"2024-04-20T11:52:39",3,"NO ERROR",16.69,46.4,994.86,0.09,0.1,0.1],
    [2344,363171,"Vazduh","Libelium","0004A30B0021DF70",44.979,16.7091,"","","Prijedor","",26184744,"2024-04-20T12:53:21",3,"NO ERROR",14.92,49.3,994.91,0,0,0],
    [2345,363171,"Vazduh","Libelium","0004A30B0021DF70",44.979,16.7091,"","","Prijedor","",26185423,"2024-04-20T13:54:03",3,"NO ERROR",14.69,51.5,995.19,0.05,0.08,0.08],
    [2346,363171,"Vazduh","Libelium","0004A30B0021DF70",44.979,16.7091,"","","Prijedor","",26186084,"2024-04-20T14:54:45",3,"NO ERROR",16.91,44.9,995.06,0.07,0.12,0.12],
    [2347,363171,"Vazduh","Libelium","0004A30B0021DF70",44.979,16.7091,"","","Prijedor","",26186728,"2024-04-20T15:55:27",3,"NO ERROR",16.29,43.5,994.79,0.03,0.06,0.06],
    [2348,363171,"Vazduh","Libelium","0004A30B0021DF70",44.979,16.7091,"","","Prijedor","",26187346,"2024-04-20T16:56:09",3,"NO ERROR",15.2,50.3,995.02,0.06,0.08,0.09],
    [2349,363171,"Vazduh","Libelium","0004A30B0021DF70",44.979,16.7091,"","","Prijedor","",26208150,"2024-04-22T03:20:18",3,"NO ERROR",5.05,80,1001.99,0.02,0.02,0.02],
    [2350,363171,"Vazduh","Libelium","0004A30B0021DF70",44.979,16.7091,"","","Prijedor","",26208651,"2024-04-22T04:21:00",3,"NO ERROR",3.18,93.9,1002.31,0.03,0.03,0.03],
    [2351,363171,"Vazduh","Libelium","0004A30B0021DF70",44.979,16.7091,"","","Prijedor","",26209250,"2024-04-22T05:21:42",3,"NO ERROR",2.21,100,1002.46,0.02,0.02,0.02],
    [2352,363171,"Vazduh","Libelium","0004A30B0021DF70",44.979,16.7091,"","","Prijedor","",26209863,"2024-04-22T06:22:24",3,"NO ERROR",0.81,100,1002.59,0.04,0.07,0.07],
    [2353,363171,"Vazduh","Libelium","0004A30B0021DF70",44.979,16.7091,"","","Prijedor","",26210469,"2024-04-22T07:23:19",3,"NO ERROR",4.47,87.9,1003.33,0.03,0.03,0.03],
    [2354,363171,"Vazduh","Libelium","0004A30B0021DF70",44.979,16.7091,"","","Prijedor","",26211038,"2024-04-22T08:24:01",3,"NO ERROR",7.92,82.1,1003.25,0.16,0.39,0.57],
    [2355,363171,"Vazduh","Libelium","0004A30B0021DF70",44.979,16.7091,"","","Prijedor","",26211649,"2024-04-22T09:24:43",3,"NO ERROR",9.13,67.1,1003.51,0.07,0.09,0.09],
    [2356,363171,"Vazduh","Libelium","0004A30B0021DF70",44.979,16.7091,"","","Prijedor","",26212182,"2024-04-22T10:25:25",3,"NO ERROR",10.07,65.5,1003.4,0.02,0.02,0.02],
    [2357,363171,"Vazduh","Libelium","0004A30B0021DF70",44.979,16.7091,"","","Prijedor","",26212691,"2024-04-22T11:26:07",3,"NO ERROR",10.01,62.7,1003.48,0.03,0.04,0.04],
    [2358,363171,"Vazduh","Libelium","0004A30B0021DF70",44.979,16.7091,"","","Prijedor","",26213309,"2024-04-22T12:26:49",3,"NO ERROR",11.87,57.6,1002.72,0.07,0.11,0.12],
    [2359,363171,"Vazduh","Libelium","0004A30B0021DF70",44.979,16.7091,"","","Prijedor","",26213908,"2024-04-22T13:27:31",3,"NO ERROR",12.5,57.8,1001.97,0,0,0],
    [2360,363171,"Vazduh","Libelium","0004A30B0021DF70",44.979,16.7091,"","","Prijedor","",26214472,"2024-04-22T14:28:13",3,"NO ERROR",14.28,53.4,1001.37,0.17,0.21,0.21],
    [2361,363171,"Vazduh","Libelium","0004A30B0021DF70",44.979,16.7091,"","","Prijedor","",26215128,"2024-04-22T15:28:55",3,"NO ERROR",13.92,54.8,1000.71,0,0.04,0.06],
    [2362,363171,"Vazduh","Libelium","0004A30B0021DF70",44.979,16.7091,"","","Prijedor","",26215715,"2024-04-22T16:29:37",3,"NO ERROR",13.21,55.6,1000.23,0.05,0.08,0.08],
    [2363,363171,"Vazduh","Libelium","0004A30B0021DF70",44.979,16.7091,"","","Prijedor","",26216336,"2024-04-22T17:30:19",3,"NO ERROR",13.57,54.2,999.98,0.14,0.18,0.18],
    [2364,363171,"Vazduh","Libelium","0004A30B0021DF70",44.979,16.7091,"","","Prijedor","",26216975,"2024-04-22T18:31:02",3,"NO ERROR",13.23,51.3,999.3,0.29,0.47,0.49],
    [2365,363171,"Vazduh","Libelium","0004A30B0021DF70",44.979,16.7091,"","","Prijedor","",26217533,"2024-04-22T19:31:44",3,"NO ERROR",11.78,61.3,999.07,0,0,0],
    [2366,363171,"Vazduh","Libelium","0004A30B0021DF70",44.979,16.7091,"","","Prijedor","",26218108,"2024-04-22T20:32:26",3,"NO ERROR",10.88,63.9,998.98,0.61,0.81,0.84],
    [2367,363171,"Vazduh","Libelium","0004A30B0021DF70",44.979,16.7091,"","","Prijedor","",26218810,"2024-04-22T21:33:08",3,"NO ERROR",10.87,58.8,998.86,0.03,0.03,0.03],
    [2368,363171,"Vazduh","Libelium","0004A30B0021DF70",44.979,16.7091,"","","Prijedor","",26219456,"2024-04-22T22:33:50",3,"NO ERROR",8.12,82.7,998.42,0.23,0.28,0.29],
    [2369,363171,"Vazduh","Libelium","0004A30B0021DF70",44.979,16.7091,"","","Prijedor","",26220061,"2024-04-22T23:34:32",3,"NO ERROR",7.28,92.9,998.11,0.21,0.23,0.23],
    [2370,363171,"Vazduh","Libelium","0004A30B0021DF70",44.979,16.7091,"","","Prijedor","",26221015,"2024-04-23T00:35:20",3,"NO ERROR",5.72,100,997.83,0.07,0.17,0.48],
    [2371,363171,"Vazduh","Libelium","0004A30B0021DF70",44.979,16.7091,"","","Prijedor","",26221719,"2024-04-23T01:36:08",3,"NO ERROR",4.67,100,997.44,0.02,0.05,0.05],
    [2372,363171,"Vazduh","Libelium","0004A30B0021DF70",44.979,16.7091,"","","Prijedor","",26222344,"2024-04-23T02:36:50",3,"NO ERROR",4.59,100,996.91,0.06,0.08,0.08],
    [2373,363171,"Vazduh","Libelium","0004A30B0021DF70",44.979,16.7091,"","","Prijedor","",26222922,"2024-04-23T03:37:32",3,"NO ERROR",4.21,100,996.97,0.02,0.02,0.02],
    [2374,363171,"Vazduh","Libelium","0004A30B0021DF70",44.979,16.7091,"","","Prijedor","",26223512,"2024-04-23T04:38:15",3,"NO ERROR",4.72,100,996.73,0.18,0.2,0.2],
    [2375,363171,"Vazduh","Libelium","0004A30B0021DF70",44.979,16.7091,"","","Prijedor","",26224178,"2024-04-23T05:38:57",3,"NO ERROR",5.03,100,996.63,0.08,0.09,0.09],
    [2376,363171,"Vazduh","Libelium","0004A30B0021DF70",44.979,16.7091,"","","Prijedor","",26224816,"2024-04-23T06:39:39",3,"NO ERROR",6.42,100,996.45,0.07,0.07,0.07],
    [2377,363171,"Vazduh","Libelium","0004A30B0021DF70",44.979,16.7091,"","","Prijedor","",26225433,"2024-04-23T07:40:21",3,"NO ERROR",9.68,89.6,996.2,0.03,0.08,0.09],
    [2378,363171,"Vazduh","Libelium","0004A30B0021DF70",44.979,16.7091,"","","Prijedor","",26225991,"2024-04-23T08:41:03",3,"NO ERROR",13.66,72.6,996.2,0,0,0],
    [2379,363171,"Vazduh","Libelium","0004A30B0021DF70",44.979,16.7091,"","","Prijedor","",26226534,"2024-04-23T09:41:45",3,"NO ERROR",13.28,63.7,995.46,0.17,0.2,0.2],
    [2380,363171,"Vazduh","Libelium","0004A30B0021DF70",44.979,16.7091,"","","Prijedor","",26227085,"2024-04-23T10:42:27",3,"NO ERROR",16.88,59.5,994.45,0.09,0.11,0.11],
    [2381,363171,"Vazduh","Libelium","0004A30B0021DF70",44.979,16.7091,"","","Prijedor","",26227677,"2024-04-23T11:43:09",3,"NO ERROR",15.25,63.9,993.78,0.06,0.08,0.09],
    [2382,363171,"Vazduh","Libelium","0004A30B0021DF70",44.979,16.7091,"","","Prijedor","",26228300,"2024-04-23T12:43:51",3,"NO ERROR",16.61,60.1,992.98,0.28,0.34,0.34],
    [2383,363171,"Vazduh","Libelium","0004A30B0021DF70",44.979,16.7091,"","","Prijedor","",26228952,"2024-04-23T13:44:33",3,"NO ERROR",17.51,58.6,992.61,0.17,0.22,0.22],
    [2384,363171,"Vazduh","Libelium","0004A30B0021DF70",44.979,16.7091,"","","Prijedor","",26229566,"2024-04-23T14:45:15",3,"NO ERROR",15.7,64.3,991.73,0.06,0.07,0.07],
    [2385,363171,"Vazduh","Libelium","0004A30B0021DF70",44.979,16.7091,"","","Prijedor","",26230208,"2024-04-23T15:45:57",3,"NO ERROR",16.38,61.6,990.85,0.08,0.15,0.17],
    [2386,363171,"Vazduh","Libelium","0004A30B0021DF70",44.979,16.7091,"","","Prijedor","",26230819,"2024-04-23T16:46:40",3,"NO ERROR",14.98,68.5,990.31,0.06,0.16,0.24],
    [2387,363171,"Vazduh","Libelium","0004A30B0021DF70",44.979,16.7091,"","","Prijedor","",26231419,"2024-04-23T17:47:22",3,"NO ERROR",13.71,75.1,990.48,0.24,0.26,0.26],
    [2388,363171,"Vazduh","Libelium","0004A30B0021DF70",44.979,16.7091,"","","Prijedor","",26231981,"2024-04-23T18:48:04",3,"NO ERROR",11.21,100,990.24,0.1,0.13,0.13],
    [2389,363171,"Vazduh","Libelium","0004A30B0021DF70",44.979,16.7091,"","","Prijedor","",26232567,"2024-04-23T19:48:46",3,"NO ERROR",10.52,100,990.63,0.15,0.17,0.17],
    [2390,363171,"Vazduh","Libelium","0004A30B0021DF70",44.979,16.7091,"","","Prijedor","",26233133,"2024-04-23T20:49:28",3,"NO ERROR",9.6,100,991.12,0.2,0.21,0.21],
    [2391,363171,"Vazduh","Libelium","0004A30B0021DF70",44.979,16.7091,"","","Prijedor","",26233715,"2024-04-23T21:50:10",3,"NO ERROR",8.61,100,991.48,2.2,2.48,2.48],
    [2392,363171,"Vazduh","Libelium","0004A30B0021DF70",44.979,16.7091,"","","Prijedor","",26234309,"2024-04-23T22:50:52",3,"NO ERROR",7.86,100,991.62,4.1,4.67,4.68],
    [2393,363171,"Vazduh","Libelium","0004A30B0021DF70",44.979,16.7091,"","","Prijedor","",26234971,"2024-04-23T23:51:34",3,"NO ERROR",7.97,100,991.73,1.89,2.24,2.24],
    [2394,363171,"Vazduh","Libelium","0004A30B0021DF70",44.979,16.7091,"","","Prijedor","",26235885,"2024-04-24T00:52:16",3,"NO ERROR",7.59,100,991.79,0.94,1.16,1.17],
    [2395,363171,"Vazduh","Libelium","0004A30B0021DF70",44.979,16.7091,"","","Prijedor","",26236511,"2024-04-24T01:52:58",3,"NO ERROR",7.39,100,991.55,0.39,0.58,0.77],
    [2396,363171,"Vazduh","Libelium","0004A30B0021DF70",44.979,16.7091,"","","Prijedor","",26237127,"2024-04-24T02:53:47",3,"NO ERROR",7.49,100,991.56,0.44,0.47,0.47],
    [2397,363171,"Vazduh","Libelium","0004A30B0021DF70",44.979,16.7091,"","","Prijedor","",26237696,"2024-04-24T03:54:29",3,"NO ERROR",7.28,100,991.44,1.21,1.44,1.44],
    [2398,363171,"Vazduh","Libelium","0004A30B0021DF70",44.979,16.7091,"","","Prijedor","",26238338,"2024-04-24T04:55:11",3,"NO ERROR",7.07,100,991.31,1.27,1.49,1.52],
    [2399,363171,"Vazduh","Libelium","0004A30B0021DF70",44.979,16.7091,"","","Prijedor","",26239065,"2024-04-24T05:55:53",3,"NO ERROR",6.96,100,991.67,0.47,0.53,0.53],
    [2400,363171,"Vazduh","Libelium","0004A30B0021DF70",44.979,16.7091,"","","Prijedor","",26239741,"2024-04-24T06:56:35",3,"NO ERROR",6.99,100,991.42,0.25,0.28,0.28],
    [2401,363171,"Vazduh","Libelium","0004A30B0021DF70",44.979,16.7091,"","","Prijedor","",26240372,"2024-04-24T07:57:17",3,"NO ERROR",7.13,100,991.89,0.54,0.58,0.58],
    [2402,363171,"Vazduh","Libelium","0004A30B0021DF70",44.979,16.7091,"","","Prijedor","",26240974,"2024-04-24T08:57:59",3,"NO ERROR",7.72,100,992.22,0.1,0.1,0.1],
    [2403,363171,"Vazduh","Libelium","0004A30B0021DF70",44.979,16.7091,"","","Prijedor","",26241508,"2024-04-24T09:58:47",3,"NO ERROR",8.12,100,992.2,0.06,0.13,0.14],
    [2404,363171,"Vazduh","Libelium","0004A30B0021DF70",44.979,16.7091,"","","Prijedor","",26242072,"2024-04-24T10:59:29",3,"NO ERROR",7.96,100,992.74,0.07,0.07,0.07],
    [2405,363171,"Vazduh","Libelium","0004A30B0021DF70",44.979,16.7091,"","","Prijedor","",26242659,"2024-04-24T12:00:11",3,"NO ERROR",9.45,100,992.5,0,0,0],
    [2406,363171,"Vazduh","Libelium","0004A30B0021DF70",44.979,16.7091,"","","Prijedor","",26243247,"2024-04-24T13:01:00",3,"NO ERROR",9.78,100,992.29,0.08,0.09,0.09],
    [2407,363171,"Vazduh","Libelium","0004A30B0021DF70",44.979,16.7091,"","","Prijedor","",26243868,"2024-04-24T14:01:42",3,"NO ERROR",10.27,100,992.45,0.13,0.14,0.14],
    [2408,363171,"Vazduh","Libelium","0004A30B0021DF70",44.979,16.7091,"","","Prijedor","",26244475,"2024-04-24T15:02:24",3,"NO ERROR",9.47,100,992.67,0.02,0.09,0.17],
    [2409,363171,"Vazduh","Libelium","0004A30B0021DF70",44.979,16.7091,"","","Prijedor","",26245035,"2024-04-24T16:03:06",3,"NO ERROR",8.84,100,992.83,0.1,0.1,0.1],
    [2410,363171,"Vazduh","Libelium","0004A30B0021DF70",44.979,16.7091,"","","Prijedor","",26245627,"2024-04-24T17:03:48",3,"NO ERROR",9,100,992.7,0.02,0.02,0.02],
    [2411,363171,"Vazduh","Libelium","0004A30B0021DF70",44.979,16.7091,"","","Prijedor","",26246233,"2024-04-24T18:04:30",3,"NO ERROR",8.85,100,992.64,0.02,0.02,0.02],
    [2412,363171,"Vazduh","Libelium","0004A30B0021DF70",44.979,16.7091,"","","Prijedor","",26246770,"2024-04-24T19:05:12",3,"NO ERROR",8.78,100,992.93,0.05,0.05,0.05],
    [2413,363171,"Vazduh","Libelium","0004A30B0021DF70",44.979,16.7091,"","","Prijedor","",26247265,"2024-04-24T20:05:54",3,"NO ERROR",8.01,100,993.05,0.13,0.14,0.14],
    [2414,363171,"Vazduh","Libelium","0004A30B0021DF70",44.979,16.7091,"","","Prijedor","",26247783,"2024-04-24T21:06:36",3,"NO ERROR",7.33,100,993.84,0.33,0.38,0.38],
    [2415,363171,"Vazduh","Libelium","0004A30B0021DF70",44.979,16.7091,"","","Prijedor","",26248326,"2024-04-24T22:07:18",3,"NO ERROR",6.36,100,993.82,0.42,0.51,0.52],
    [2416,363171,"Vazduh","Libelium","0004A30B0021DF70",44.979,16.7091,"","","Prijedor","",26248878,"2024-04-24T23:08:07",3,"NO ERROR",6.61,100,994.01,0.48,0.51,0.51],
    [2417,363171,"Vazduh","Libelium","0004A30B0021DF70",44.979,16.7091,"","","Prijedor","",26249689,"2024-04-25T00:08:49",3,"NO ERROR",6.73,100,993.98,1.24,1.44,1.45],
    [2418,363171,"Vazduh","Libelium","0004A30B0021DF70",44.979,16.7091,"","","Prijedor","",26250365,"2024-04-25T01:09:43",3,"NO ERROR",6.14,100,993.97,3.06,3.71,3.72],
    [2419,363171,"Vazduh","Libelium","0004A30B0021DF70",44.979,16.7091,"","","Prijedor","",26250920,"2024-04-25T02:10:25",3,"NO ERROR",5.92,100,993.54,1.24,1.52,5.4],
    [2420,363171,"Vazduh","Libelium","0004A30B0021DF70",44.979,16.7091,"","","Prijedor","",26251509,"2024-04-25T03:11:07",3,"NO ERROR",5.44,100,993.51,2.74,12.83,160.13],
    [2421,363171,"Vazduh","Libelium","0004A30B0021DF70",44.979,16.7091,"","","Prijedor","",26252030,"2024-04-25T04:11:49",3,"NO ERROR",5.13,100,993.49,1.13,2.92,37.8],
    [2422,363171,"Vazduh","Libelium","0004A30B0021DF70",44.979,16.7091,"","","Prijedor","",26252627,"2024-04-25T05:12:31",3,"NO ERROR",5,100,993.49,0.58,0.68,0.68],
    [2423,363171,"Vazduh","Libelium","0004A30B0021DF70",44.979,16.7091,"","","Prijedor","",26253250,"2024-04-25T06:13:13",3,"NO ERROR",5.26,100,993.53,0.59,1.14,9.04],
    [2424,363171,"Vazduh","Libelium","0004A30B0021DF70",44.979,16.7091,"","","Prijedor","",26253844,"2024-04-25T07:13:55",3,"NO ERROR",6.38,100,993.77,1.11,1.26,1.26],
    [2425,363171,"Vazduh","Libelium","0004A30B0021DF70",44.979,16.7091,"","","Prijedor","",26254441,"2024-04-25T08:14:37",3,"NO ERROR",7,100,993.96,0.85,0.99,0.99],
    [2426,363171,"Vazduh","Libelium","0004A30B0021DF70",44.979,16.7091,"","","Prijedor","",26255048,"2024-04-25T09:15:19",3,"NO ERROR",8.27,100,994.4,0.45,0.49,0.49],
    [2427,363171,"Vazduh","Libelium","0004A30B0021DF70",44.979,16.7091,"","","Prijedor","",26255629,"2024-04-25T10:16:02",3,"NO ERROR",10.88,95,994.35,0.12,0.13,0.13],
    [2428,363171,"Vazduh","Libelium","0004A30B0021DF70",44.979,16.7091,"","","Prijedor","",26256236,"2024-04-25T11:16:44",3,"NO ERROR",13.29,84.3,994.14,0.17,0.19,0.19],
    [2429,363171,"Vazduh","Libelium","0004A30B0021DF70",44.979,16.7091,"","","Prijedor","",26256897,"2024-04-25T12:17:26",3,"NO ERROR",13.38,75.1,993.76,0.06,0.12,0.29],
    [2430,363171,"Vazduh","Libelium","0004A30B0021DF70",44.979,16.7091,"","","Prijedor","",26257553,"2024-04-25T13:18:08",3,"NO ERROR",15.09,63,993.33,0.05,0.08,0.08],
    [2431,363171,"Vazduh","Libelium","0004A30B0021DF70",44.979,16.7091,"","","Prijedor","",26258203,"2024-04-25T14:18:50",3,"NO ERROR",15.06,65.5,993.11,0,0,0],
    [2432,363171,"Vazduh","Libelium","0004A30B0021DF70",44.979,16.7091,"","","Prijedor","",26258850,"2024-04-25T15:19:32",3,"NO ERROR",16.87,58.3,992.85,0.07,0.09,0.09],
    [2433,363171,"Vazduh","Libelium","0004A30B0021DF70",44.979,16.7091,"","","Prijedor","",26259461,"2024-04-25T16:20:14",3,"NO ERROR",15.1,61.3,992.84,0.04,0.07,0.07],
    [2434,363171,"Vazduh","Libelium","0004A30B0021DF70",44.979,16.7091,"","","Prijedor","",26260115,"2024-04-25T17:20:56",3,"NO ERROR",13.33,70.3,993.12,0.02,0.02,0.02],
    [2435,363171,"Vazduh","Libelium","0004A30B0021DF70",44.979,16.7091,"","","Prijedor","",26260730,"2024-04-25T18:21:38",3,"NO ERROR",12.36,83.7,993.39,0.25,0.44,0.57],
    [2436,363171,"Vazduh","Libelium","0004A30B0021DF70",44.979,16.7091,"","","Prijedor","",26261293,"2024-04-25T19:22:20",3,"NO ERROR",12.02,90.6,993.93,0.28,0.3,0.3],
    [2437,363171,"Vazduh","Libelium","0004A30B0021DF70",44.979,16.7091,"","","Prijedor","",26261855,"2024-04-25T20:23:02",3,"NO ERROR",10.1,100,994.96,0.14,0.18,0.18],
    [2438,363171,"Vazduh","Libelium","0004A30B0021DF70",44.979,16.7091,"","","Prijedor","",26262422,"2024-04-25T21:23:44",3,"NO ERROR",8.9,100,995.75,0.07,0.07,0.07],
    [2439,363171,"Vazduh","Libelium","0004A30B0021DF70",44.979,16.7091,"","","Prijedor","",26262937,"2024-04-25T22:24:27",3,"NO ERROR",8.45,100,995.81,0.38,0.41,0.41],
    [2440,363171,"Vazduh","Libelium","0004A30B0021DF70",44.979,16.7091,"","","Prijedor","",26263505,"2024-04-25T23:25:09",3,"NO ERROR",7.4,100,996.25,4.7,5.98,7.14],
    [2441,363171,"Vazduh","Libelium","0004A30B0021DF70",44.979,16.7091,"","","Prijedor","",26264317,"2024-04-26T00:25:57",3,"NO ERROR",7.21,100,996.64,1.26,1.42,1.42],
    [2442,363171,"Vazduh","Libelium","0004A30B0021DF70",44.979,16.7091,"","","Prijedor","",26264964,"2024-04-26T01:26:39",3,"NO ERROR",6.51,100,996.62,4.4,18.82,435.02],
    [2443,363171,"Vazduh","Libelium","0004A30B0021DF70",44.979,16.7091,"","","Prijedor","",26265602,"2024-04-26T02:27:21",3,"NO ERROR",6.26,100,996.69,6.29,19.53,298.93],
    [2444,363171,"Vazduh","Libelium","0004A30B0021DF70",44.979,16.7091,"","","Prijedor","",26266233,"2024-04-26T03:28:03",3,"NO ERROR",6.45,100,996.93,2.59,12.04,282.56],
    [2445,363171,"Vazduh","Libelium","0004A30B0021DF70",44.979,16.7091,"","","Prijedor","",26266822,"2024-04-26T04:28:45",3,"NO ERROR",6.43,100,997.11,0.15,0.27,11.33],
    [2446,363171,"Vazduh","Libelium","0004A30B0021DF70",44.979,16.7091,"","","Prijedor","",26267507,"2024-04-26T05:29:27",3,"NO ERROR",6.11,100,997.4,1.47,3.02,49.87],
    [2447,363171,"Vazduh","Libelium","0004A30B0021DF70",44.979,16.7091,"","","Prijedor","",26268214,"2024-04-26T06:30:09",3,"NO ERROR",6.61,100,997.66,0.8,1.01,1.01],
    [2448,363171,"Vazduh","Libelium","0004A30B0021DF70",44.979,16.7091,"","","Prijedor","",26268872,"2024-04-26T07:30:51",3,"NO ERROR",7.04,100,998.07,0.03,0.03,0.03],
    [2449,363171,"Vazduh","Libelium","0004A30B0021DF70",44.979,16.7091,"","","Prijedor","",26269457,"2024-04-26T08:31:34",3,"NO ERROR",8.54,100,998.36,0.1,0.11,0.11],
    [2450,363171,"Vazduh","Libelium","0004A30B0021DF70",44.979,16.7091,"","","Prijedor","",26270065,"2024-04-26T09:32:16",3,"NO ERROR",13.18,100,998.51,0.03,0.09,0.15],
    [2451,363171,"Vazduh","Libelium","0004A30B0021DF70",44.979,16.7091,"","","Prijedor","",26270664,"2024-04-26T10:32:58",3,"NO ERROR",12.4,94.7,998.55,0.12,0.13,0.13],
    [2452,363171,"Vazduh","Libelium","0004A30B0021DF70",44.979,16.7091,"","","Prijedor","",26271240,"2024-04-26T11:33:40",3,"NO ERROR",14.62,81.2,998.25,0.21,0.32,0.34],
    [2453,363171,"Vazduh","Libelium","0004A30B0021DF70",44.979,16.7091,"","","Prijedor","",26271884,"2024-04-26T12:34:22",3,"NO ERROR",17.13,53.5,997.66,0,0,0],
    [2454,363171,"Vazduh","Libelium","0004A30B0021DF70",44.979,16.7091,"","","Prijedor","",26272583,"2024-04-26T13:35:04",3,"NO ERROR",18.03,43.8,996.96,0.02,0.02,0.02],
    [2455,363171,"Vazduh","Libelium","0004A30B0021DF70",44.979,16.7091,"","","Prijedor","",26273257,"2024-04-26T14:35:46",3,"NO ERROR",20.07,43.3,996.97,0.04,0.07,0.07],
    [2456,363171,"Vazduh","Libelium","0004A30B0021DF70",44.979,16.7091,"","","Prijedor","",26273942,"2024-04-26T15:36:28",3,"NO ERROR",19.46,44.3,996.57,0.03,0.03,0.03],
    [2457,363171,"Vazduh","Libelium","0004A30B0021DF70",44.979,16.7091,"","","Prijedor","",26274584,"2024-04-26T16:37:10",3,"NO ERROR",19.41,44.1,996.65,0.02,0.02,0.02],
    [2458,363171,"Vazduh","Libelium","0004A30B0021DF70",44.979,16.7091,"","","Prijedor","",26275222,"2024-04-26T17:37:52",3,"NO ERROR",19.04,48.4,996.65,0.07,0.12,0.12],
    [2459,363171,"Vazduh","Libelium","0004A30B0021DF70",44.979,16.7091,"","","Prijedor","",26275878,"2024-04-26T18:38:34",3,"NO ERROR",13.08,100,997.62,0.1,0.11,0.11],
    [2460,363171,"Vazduh","Libelium","0004A30B0021DF70",44.979,16.7091,"","","Prijedor","",26276460,"2024-04-26T19:39:16",3,"NO ERROR",12.35,100,998.42,0.03,0.03,0.03],
    [2461,363171,"Vazduh","Libelium","0004A30B0021DF70",44.979,16.7091,"","","Prijedor","",26277029,"2024-04-26T20:39:58",3,"NO ERROR",11.66,100,998.81,0.03,0.03,0.03],
    [2462,363171,"Vazduh","Libelium","0004A30B0021DF70",44.979,16.7091,"","","Prijedor","",26277612,"2024-04-26T21:40:41",3,"NO ERROR",10.72,100,999.2,0.05,0.05,0.05],
    [2463,363171,"Vazduh","Libelium","0004A30B0021DF70",44.979,16.7091,"","","Prijedor","",26278173,"2024-04-26T22:41:23",3,"NO ERROR",9.92,100,999.43,0.57,0.67,0.67],
    [2464,363171,"Vazduh","Libelium","0004A30B0021DF70",44.979,16.7091,"","","Prijedor","",26278749,"2024-04-26T23:42:05",3,"NO ERROR",8.96,100,999.65,0.19,0.22,0.22],
    [2465,363171,"Vazduh","Libelium","0004A30B0021DF70",44.979,16.7091,"","","Prijedor","",26279593,"2024-04-27T00:42:47",3,"NO ERROR",8.43,100,999.92,0.22,0.28,0.28],
    [2466,363171,"Vazduh","Libelium","0004A30B0021DF70",44.979,16.7091,"","","Prijedor","",26280775,"2024-04-27T02:44:23",3,"NO ERROR",7.38,100,1000.19,13.55,54.55,1250.0599],
    [2467,363171,"Vazduh","Libelium","0004A30B0021DF70",44.979,16.7091,"","","Prijedor","",26281366,"2024-04-27T03:45:05",3,"NO ERROR",7.36,100,1000.49,14.14,24.98,162.18],
    [2468,363171,"Vazduh","Libelium","0004A30B0021DF70",44.979,16.7091,"","","Prijedor","",26281972,"2024-04-27T04:45:47",3,"NO ERROR",7.17,100,1000.68,2.16,7.6,67.76],
    [2469,363171,"Vazduh","Libelium","0004A30B0021DF70",44.979,16.7091,"","","Prijedor","",26282644,"2024-04-27T05:46:35",3,"NO ERROR",6.18,100,1001.18,13.34,19.38,89.05],
    [2470,363171,"Vazduh","Libelium","0004A30B0021DF70",44.979,16.7091,"","","Prijedor","",26283313,"2024-04-27T06:47:17",3,"NO ERROR",6.44,100,1001.8,0.88,4.03,41.17],
    [2471,363171,"Vazduh","Libelium","0004A30B0021DF70",44.979,16.7091,"","","Prijedor","",26283937,"2024-04-27T07:48:00",3,"NO ERROR",6.88,100,1002.14,1.38,7.29,163.54],
    [2472,363171,"Vazduh","Libelium","0004A30B0021DF70",44.979,16.7091,"","","Prijedor","",26284534,"2024-04-27T08:48:42",3,"NO ERROR",9.72,100,1002.63,0.22,0.34,0.4],
    [2473,363171,"Vazduh","Libelium","0004A30B0021DF70",44.979,16.7091,"","","Prijedor","",26285147,"2024-04-27T09:49:24",3,"NO ERROR",14.3,87.3,1002.64,0.29,0.34,0.34],
    [2474,363171,"Vazduh","Libelium","0004A30B0021DF70",44.979,16.7091,"","","Prijedor","",26285798,"2024-04-27T10:50:06",3,"NO ERROR",17.15,67.9,1002.59,0.19,0.27,0.27],
    [2475,363171,"Vazduh","Libelium","0004A30B0021DF70",44.979,16.7091,"","","Prijedor","",26286435,"2024-04-27T11:50:48",3,"NO ERROR",19.48,56.8,1002.27,0.15,0.17,0.17],
    [2476,363171,"Vazduh","Libelium","0004A30B0021DF70",44.979,16.7091,"","","Prijedor","",26287073,"2024-04-27T12:51:30",3,"NO ERROR",20.84,52.2,1001.94,0,0,0],
    [2477,363171,"Vazduh","Libelium","0004A30B0021DF70",44.979,16.7091,"","","Prijedor","",26287810,"2024-04-27T13:52:12",3,"NO ERROR",21.68,51.2,1001.9,0.16,0.22,0.23],
    [2478,363171,"Vazduh","Libelium","0004A30B0021DF70",44.979,16.7091,"","","Prijedor","",26288519,"2024-04-27T14:52:54",3,"NO ERROR",23.54,45.5,1001.62,0.12,0.16,0.16],
    [2479,363171,"Vazduh","Libelium","0004A30B0021DF70",44.979,16.7091,"","","Prijedor","",26289175,"2024-04-27T15:53:36",3,"NO ERROR",25.66,43.6,1001.31,0.24,0.35,0.37],
    [2480,363171,"Vazduh","Libelium","0004A30B0021DF70",44.979,16.7091,"","","Prijedor","",26289844,"2024-04-27T16:54:24",3,"NO ERROR",27.54,38.2,1001.09,0.09,0.13,0.13],
    [2481,363171,"Vazduh","Libelium","0004A30B0021DF70",44.979,16.7091,"","","Prijedor","",26290516,"2024-04-27T17:55:06",3,"NO ERROR",22.08,46.5,1001.46,0.29,0.37,0.37],
    [2482,363171,"Vazduh","Libelium","0004A30B0021DF70",44.979,16.7091,"","","Prijedor","",26291174,"2024-04-27T18:55:48",3,"NO ERROR",20.1,57.6,1001.26,0.08,0.13,0.14],
    [2483,363171,"Vazduh","Libelium","0004A30B0021DF70",44.979,16.7091,"","","Prijedor","",26291792,"2024-04-27T19:56:30",3,"NO ERROR",18.35,62.8,1001.67,0.05,0.08,0.08],
    [2484,363171,"Vazduh","Libelium","0004A30B0021DF70",44.979,16.7091,"","","Prijedor","",26292372,"2024-04-27T20:57:13",3,"NO ERROR",15.52,83.9,1002.5,0.17,0.21,0.22],
    [2485,363171,"Vazduh","Libelium","0004A30B0021DF70",44.979,16.7091,"","","Prijedor","",26292983,"2024-04-27T21:57:55",3,"NO ERROR",13.43,100,1003.44,0.27,0.3,0.3],
    [2486,363171,"Vazduh","Libelium","0004A30B0021DF70",44.979,16.7091,"","","Prijedor","",26293604,"2024-04-27T22:58:43",3,"NO ERROR",11.97,100,1003.78,0.24,0.34,0.4],
    [2487,363171,"Vazduh","Libelium","0004A30B0021DF70",44.979,16.7091,"","","Prijedor","",26294371,"2024-04-27T23:59:25",3,"NO ERROR",11.02,100,1003.83,0.43,0.67,0.69],
    [2488,363171,"Vazduh","Libelium","0004A30B0021DF70",44.979,16.7091,"","","Prijedor","",26295216,"2024-04-28T01:00:07",3,"NO ERROR",9.64,100,1003.95,0.25,0.4,0.42],
    [2489,363171,"Vazduh","Libelium","0004A30B0021DF70",44.979,16.7091,"","","Prijedor","",26295986,"2024-04-28T02:00:49",3,"NO ERROR",8.69,100,1003.93,0.19,0.24,0.24],
    [2490,363171,"Vazduh","Libelium","0004A30B0021DF70",44.979,16.7091,"","","Prijedor","",26296702,"2024-04-28T03:01:31",3,"NO ERROR",8.3,100,1004.35,0.2,0.25,0.25],
    [2491,363171,"Vazduh","Libelium","0004A30B0021DF70",44.979,16.7091,"","","Prijedor","",26297270,"2024-04-28T04:02:13",3,"NO ERROR",7.19,100,1004.79,0.13,0.14,0.14],
    [2492,363171,"Vazduh","Libelium","0004A30B0021DF70",44.979,16.7091,"","","Prijedor","",26297824,"2024-04-28T05:02:55",3,"NO ERROR",7.17,100,1004.88,0.21,0.3,0.31],
    [2493,363171,"Vazduh","Libelium","0004A30B0021DF70",44.979,16.7091,"","","Prijedor","",26298441,"2024-04-28T06:03:37",3,"NO ERROR",7.3,100,1005.29,1.03,1.22,1.23],
    [2494,363171,"Vazduh","Libelium","0004A30B0021DF70",44.979,16.7091,"","","Prijedor","",26299031,"2024-04-28T07:04:26",3,"NO ERROR",13.74,97.1,1005.46,0.05,0.1,0.11],
    [2495,363171,"Vazduh","Libelium","0004A30B0021DF70",44.979,16.7091,"","","Prijedor","",26299612,"2024-04-28T08:05:08",3,"NO ERROR",15,85,1005.65,0.15,0.21,0.21],
    [2496,363171,"Vazduh","Libelium","0004A30B0021DF70",44.979,16.7091,"","","Prijedor","",26300180,"2024-04-28T09:05:50",3,"NO ERROR",20.82,61.7,1005.69,0.24,0.5,2.16],
    [2497,363171,"Vazduh","Libelium","0004A30B0021DF70",44.979,16.7091,"","","Prijedor","",26300783,"2024-04-28T10:06:32",3,"NO ERROR",19.61,58.1,1005.61,0.17,0.2,0.2],
    [2498,363171,"Vazduh","Libelium","0004A30B0021DF70",44.979,16.7091,"","","Prijedor","",26301392,"2024-04-28T11:07:14",3,"NO ERROR",21.81,50.8,1005.34,0.17,0.25,0.26],
    [2499,363171,"Vazduh","Libelium","0004A30B0021DF70",44.979,16.7091,"","","Prijedor","",26302023,"2024-04-28T12:08:02",3,"NO ERROR",24.09,42.5,1005.01,0.21,0.3,0.31],
    [2500,363171,"Vazduh","Libelium","0004A30B0021DF70",44.979,16.7091,"","","Prijedor","",26302657,"2024-04-28T13:08:44",3,"NO ERROR",25.52,38.2,1004.54,0.13,0.14,0.14],
    [2501,363171,"Vazduh","Libelium","0004A30B0021DF70",44.979,16.7091,"","","Prijedor","",26303348,"2024-04-28T14:09:26",3,"NO ERROR",27.35,33.1,1003.95,0.42,0.65,0.67],
    [2502,363171,"Vazduh","Libelium","0004A30B0021DF70",44.979,16.7091,"","","Prijedor","",26304001,"2024-04-28T15:10:14",3,"NO ERROR",28.25,35.9,1003.34,0.16,0.19,0.19],
    [2503,363171,"Vazduh","Libelium","0004A30B0021DF70",44.979,16.7091,"","","Prijedor","",26304635,"2024-04-28T16:10:56",3,"NO ERROR",28.15,37.7,1003,0.13,0.2,0.21],
    [2504,363171,"Vazduh","Libelium","0004A30B0021DF70",44.979,16.7091,"","","Prijedor","",26305337,"2024-04-28T17:11:38",3,"NO ERROR",28.58,39,1002.9,0.16,0.2,0.2],
    [2505,363171,"Vazduh","Libelium","0004A30B0021DF70",44.979,16.7091,"","","Prijedor","",26306019,"2024-04-28T18:12:20",3,"NO ERROR",24.75,45.3,1002.66,0.05,0.08,0.08],
    [2506,363171,"Vazduh","Libelium","0004A30B0021DF70",44.979,16.7091,"","","Prijedor","",26306618,"2024-04-28T19:13:02",3,"NO ERROR",23.28,49.7,1002.99,0.39,0.67,0.7],
    [2507,363171,"Vazduh","Libelium","0004A30B0021DF70",44.979,16.7091,"","","Prijedor","",26307176,"2024-04-28T20:13:45",3,"NO ERROR",20.43,61.8,1003.36,0.23,0.32,0.33],
    [2508,363171,"Vazduh","Libelium","0004A30B0021DF70",44.979,16.7091,"","","Prijedor","",26307745,"2024-04-28T21:14:27",3,"NO ERROR",17.53,83.9,1003.98,0.32,0.55,0.99],
    [2509,363171,"Vazduh","Libelium","0004A30B0021DF70",44.979,16.7091,"","","Prijedor","",26308325,"2024-04-28T22:15:09",3,"NO ERROR",15.45,97.2,1004.36,0.43,0.54,0.54],
    [2510,363171,"Vazduh","Libelium","0004A30B0021DF70",44.979,16.7091,"","","Prijedor","",26308918,"2024-04-28T23:15:51",3,"NO ERROR",13.69,100,1004.76,0.13,0.17,0.17],
    [2511,363171,"Vazduh","Libelium","0004A30B0021DF70",44.979,16.7091,"","","Prijedor","",26309716,"2024-04-29T00:16:33",3,"NO ERROR",12.96,100,1004.91,0.13,0.18,0.18],
    [2512,363171,"Vazduh","Libelium","0004A30B0021DF70",44.979,16.7091,"","","Prijedor","",26310401,"2024-04-29T01:17:15",3,"NO ERROR",11.94,100,1005.23,0.2,0.27,0.27],
    [2513,363171,"Vazduh","Libelium","0004A30B0021DF70",44.979,16.7091,"","","Prijedor","",26311077,"2024-04-29T02:17:57",3,"NO ERROR",11.02,100,1005.27,0.39,0.59,0.59],
    [2514,363171,"Vazduh","Libelium","0004A30B0021DF70",44.979,16.7091,"","","Prijedor","",26311741,"2024-04-29T03:18:39",3,"NO ERROR",10.55,100,1005.5,0.37,0.47,0.47],
    [2515,363171,"Vazduh","Libelium","0004A30B0021DF70",44.979,16.7091,"","","Prijedor","",26312390,"2024-04-29T04:19:21",3,"NO ERROR",9.08,100,1005.7,0.42,0.53,0.53],
    [2516,363171,"Vazduh","Libelium","0004A30B0021DF70",44.979,16.7091,"","","Prijedor","",26313051,"2024-04-29T05:20:09",3,"NO ERROR",8.9,100,1005.99,0.41,0.68,0.71],
    [2517,363171,"Vazduh","Libelium","0004A30B0021DF70",44.979,16.7091,"","","Prijedor","",26313733,"2024-04-29T06:20:51",3,"NO ERROR",8.93,100,1006.53,0.1,0.1,0.1],
    [2518,363171,"Vazduh","Libelium","0004A30B0021DF70",44.979,16.7091,"","","Prijedor","",26314374,"2024-04-29T07:21:34",3,"NO ERROR",13.26,94.6,1006.92,0.04,0.07,0.07],
    [2519,363171,"Vazduh","Libelium","0004A30B0021DF70",44.979,16.7091,"","","Prijedor","",26315006,"2024-04-29T08:22:16",3,"NO ERROR",18.02,72.7,1006.72,0.22,0.49,0.62],
    [2520,363171,"Vazduh","Libelium","0004A30B0021DF70",44.979,16.7091,"","","Prijedor","",26315626,"2024-04-29T09:22:58",3,"NO ERROR",22.22,57.6,1006.73,0.41,0.75,1.29],
    [2521,363171,"Vazduh","Libelium","0004A30B0021DF70",44.979,16.7091,"","","Prijedor","",26316273,"2024-04-29T10:23:40",3,"NO ERROR",20.96,64.1,1006.45,0.67,0.87,0.9],
    [2522,363171,"Vazduh","Libelium","0004A30B0021DF70",44.979,16.7091,"","","Prijedor","",26316890,"2024-04-29T11:24:22",3,"NO ERROR",23.27,53.7,1006.39,0.16,0.23,0.23],
    [2523,363171,"Vazduh","Libelium","0004A30B0021DF70",44.979,16.7091,"","","Prijedor","",26317530,"2024-04-29T12:25:10",3,"NO ERROR",25.14,55.3,1005.91,0.15,0.18,0.18],
    [2524,363171,"Vazduh","Libelium","0004A30B0021DF70",44.979,16.7091,"","","Prijedor","",26318230,"2024-04-29T13:25:52",3,"NO ERROR",26.4,53.5,1005.25,0.13,0.19,0.19],
    [2525,363171,"Vazduh","Libelium","0004A30B0021DF70",44.979,16.7091,"","","Prijedor","",26318921,"2024-04-29T14:26:40",3,"NO ERROR",29.54,43.7,1004.92,0.13,0.14,0.14],
    [2526,363171,"Vazduh","Libelium","0004A30B0021DF70",44.979,16.7091,"","","Prijedor","",26319570,"2024-04-29T15:27:22",3,"NO ERROR",31.44,37.6,1004.3,0.17,0.22,0.22],
    [2527,363171,"Vazduh","Libelium","0004A30B0021DF70",44.979,16.7091,"","","Prijedor","",26320215,"2024-04-29T16:28:04",3,"NO ERROR",31.02,36,1003.98,0.06,0.08,0.09],
    [2528,363171,"Vazduh","Libelium","0004A30B0021DF70",44.979,16.7091,"","","Prijedor","",26320899,"2024-04-29T17:28:46",3,"NO ERROR",27.92,35.9,1004.03,0.16,0.29,0.31],
    [2529,363171,"Vazduh","Libelium","0004A30B0021DF70",44.979,16.7091,"","","Prijedor","",26321607,"2024-04-29T18:29:28",3,"NO ERROR",26.58,38.4,1004.04,0.1,0.28,0.59],
    [2530,363171,"Vazduh","Libelium","0004A30B0021DF70",44.979,16.7091,"","","Prijedor","",26322306,"2024-04-29T19:30:10",3,"NO ERROR",24.89,39.6,1004.08,0.21,0.27,0.28],
    [2531,363171,"Vazduh","Libelium","0004A30B0021DF70",44.979,16.7091,"","","Prijedor","",26322898,"2024-04-29T20:30:53",3,"NO ERROR",21.54,50.6,1004.33,0.24,0.38,0.39],
    [2532,363171,"Vazduh","Libelium","0004A30B0021DF70",44.979,16.7091,"","","Prijedor","",26323492,"2024-04-29T21:31:35",3,"NO ERROR",18.3,73.1,1005.13,0.07,0.13,0.13],
    [2533,363171,"Vazduh","Libelium","0004A30B0021DF70",44.979,16.7091,"","","Prijedor","",26324064,"2024-04-29T22:32:17",3,"NO ERROR",16.15,89.2,1005.45,0.24,0.43,0.88],
    [2534,363171,"Vazduh","Libelium","0004A30B0021DF70",44.979,16.7091,"","","Prijedor","",26324650,"2024-04-29T23:32:59",3,"NO ERROR",14.43,100,1005.36,0.24,0.38,0.39],
    [2535,363171,"Vazduh","Libelium","0004A30B0021DF70",44.979,16.7091,"","","Prijedor","",26325515,"2024-04-30T00:33:41",3,"NO ERROR",13.13,100,1005.69,0.12,0.12,0.12],
    [2536,363171,"Vazduh","Libelium","0004A30B0021DF70",44.979,16.7091,"","","Prijedor","",26326180,"2024-04-30T01:34:23",3,"NO ERROR",12.42,100,1005.73,0.12,0.14,0.14],
    [2537,363171,"Vazduh","Libelium","0004A30B0021DF70",44.979,16.7091,"","","Prijedor","",26326751,"2024-04-30T02:35:05",3,"NO ERROR",11.03,100,1005.89,0.46,0.62,0.62],
    [2538,363171,"Vazduh","Libelium","0004A30B0021DF70",44.979,16.7091,"","","Prijedor","",26327315,"2024-04-30T03:35:47",3,"NO ERROR",10.22,100,1006.02,0.72,0.84,0.84],
    [2539,363171,"Vazduh","Libelium","0004A30B0021DF70",44.979,16.7091,"","","Prijedor","",26327886,"2024-04-30T04:36:29",3,"NO ERROR",9.36,100,1006.06,0.22,0.28,0.28],
    [2540,363171,"Vazduh","Libelium","0004A30B0021DF70",44.979,16.7091,"","","Prijedor","",26328537,"2024-04-30T05:37:11",3,"NO ERROR",9.09,100,1005.75,0.05,0.05,0.05],
    [2541,363171,"Vazduh","Libelium","0004A30B0021DF70",44.979,16.7091,"","","Prijedor","",26329168,"2024-04-30T06:37:53",3,"NO ERROR",10.96,100,1006.24,0.27,0.38,0.39],
    [2542,363171,"Vazduh","Libelium","0004A30B0021DF70",44.979,16.7091,"","","Prijedor","",26329800,"2024-04-30T07:38:35",3,"NO ERROR",16.36,81.4,1006.33,0.13,0.24,0.26],
    [2543,363171,"Vazduh","Libelium","0004A30B0021DF70",44.979,16.7091,"","","Prijedor","",26330409,"2024-04-30T08:39:18",3,"NO ERROR",21.68,60.4,1006.13,0.3,0.37,0.37],
    [2544,363171,"Vazduh","Libelium","0004A30B0021DF70",44.979,16.7091,"","","Prijedor","",26331040,"2024-04-30T09:40:06",3,"NO ERROR",22.29,53.7,1006.26,0.3,0.39,0.4],
    [2545,363171,"Vazduh","Libelium","0004A30B0021DF70",44.979,16.7091,"","","Prijedor","",26331645,"2024-04-30T10:40:48",3,"NO ERROR",22.21,56.4,1005.91,0.04,0.05,0.05],
    [2546,363171,"Vazduh","Libelium","0004A30B0021DF70",44.979,16.7091,"","","Prijedor","",26332215,"2024-04-30T11:41:30",3,"NO ERROR",23.35,54.2,1005.41,0.19,0.29,0.3],
    [2547,363171,"Vazduh","Libelium","0004A30B0021DF70",44.979,16.7091,"","","Prijedor","",26332841,"2024-04-30T12:42:12",3,"NO ERROR",24.1,52.9,1004.9,0.32,0.43,0.43],
    [2548,363171,"Vazduh","Libelium","0004A30B0021DF70",44.979,16.7091,"","","Prijedor","",26333543,"2024-04-30T13:42:54",3,"NO ERROR",25.63,47.9,1004.07,0.12,0.12,0.12],
    [2549,363171,"Vazduh","Libelium","0004A30B0021DF70",44.979,16.7091,"","","Prijedor","",26334223,"2024-04-30T14:43:36",3,"NO ERROR",27.69,38,1003.27,0.06,0.24,0.29],
    [2550,363171,"Vazduh","Libelium","0004A30B0021DF70",44.979,16.7091,"","","Prijedor","",26334888,"2024-04-30T15:44:18",3,"NO ERROR",29.1,36.9,1002.16,0.23,0.48,0.76],
    [2551,363171,"Vazduh","Libelium","0004A30B0021DF70",44.979,16.7091,"","","Prijedor","",26335552,"2024-04-30T16:45:00",3,"NO ERROR",29,36.9,1001.47,0.12,0.13,0.13],
    [2552,363171,"Vazduh","Libelium","0004A30B0021DF70",44.979,16.7091,"","","Prijedor","",26336232,"2024-04-30T17:45:42",3,"NO ERROR",26.09,42.4,1000.78,0.35,0.52,0.62],
    [2553,363171,"Vazduh","Libelium","0004A30B0021DF70",44.979,16.7091,"","","Prijedor","",26336908,"2024-04-30T18:46:31",3,"NO ERROR",24.62,46.1,1000.49,0.29,0.39,0.39],
    [2554,363171,"Vazduh","Libelium","0004A30B0021DF70",44.979,16.7091,"","","Prijedor","",26337535,"2024-04-30T19:47:12",3,"NO ERROR",22.81,50.4,1000.77,0.37,0.87,1.14],
    [2555,363171,"Vazduh","Libelium","0004A30B0021DF70",44.979,16.7091,"","","Prijedor","",26338119,"2024-04-30T20:47:55",3,"NO ERROR",21.41,54,1000.98,0.17,0.23,0.23],
    [2556,363171,"Vazduh","Libelium","0004A30B0021DF70",44.979,16.7091,"","","Prijedor","",26338707,"2024-04-30T21:48:37",3,"NO ERROR",20.31,57.4,1000.89,0.3,0.41,0.41],
    [2557,363171,"Vazduh","Libelium","0004A30B0021DF70",44.979,16.7091,"","","Prijedor","",26339322,"2024-04-30T22:49:19",3,"NO ERROR",17.28,79.6,1001.16,0.55,0.82,0.85],
    [2558,363171,"Vazduh","Libelium","0004A30B0021DF70",44.979,16.7091,"","","Prijedor","",26339941,"2024-04-30T23:50:01",3,"NO ERROR",15.2,96.7,1000.99,0.36,0.49,0.49],
    [2559,363171,"Vazduh","Libelium","0004A30B0021DF70",44.979,16.7091,"","","Prijedor","",26340721,"2024-05-01T00:50:43",3,"NO ERROR",14.06,100,1000.82,0.24,0.34,0.35],
    [2560,363171,"Vazduh","Libelium","0004A30B0021DF70",44.979,16.7091,"","","Prijedor","",26341288,"2024-05-01T01:51:25",3,"NO ERROR",13.34,100,1000.35,0.13,0.2,0.21],
    [2561,363171,"Vazduh","Libelium","0004A30B0021DF70",44.979,16.7091,"","","Prijedor","",26341872,"2024-05-01T02:52:07",3,"NO ERROR",12.77,100,1000.19,0.12,0.26,0.28],
    [2562,363171,"Vazduh","Libelium","0004A30B0021DF70",44.979,16.7091,"","","Prijedor","",26342401,"2024-05-01T03:52:49",3,"NO ERROR",12.94,100,999.75,0.22,0.28,0.28],
    [2563,363171,"Vazduh","Libelium","0004A30B0021DF70",44.979,16.7091,"","","Prijedor","",26342997,"2024-05-01T04:53:31",3,"NO ERROR",12.36,100,999.54,0.41,0.71,0.72],
    [2564,363171,"Vazduh","Libelium","0004A30B0021DF70",44.979,16.7091,"","","Prijedor","",26343646,"2024-05-01T05:54:13",3,"NO ERROR",11.49,100,999.78,0.3,0.37,0.37],
    [2565,363171,"Vazduh","Libelium","0004A30B0021DF70",44.979,16.7091,"","","Prijedor","",26344264,"2024-05-01T06:54:55",3,"NO ERROR",12.19,100,999.53,0.1,0.15,0.16],
    [2566,363171,"Vazduh","Libelium","0004A30B0021DF70",44.979,16.7091,"","","Prijedor","",26344917,"2024-05-01T07:55:37",3,"NO ERROR",12.83,100,999.46,0.28,0.45,0.47],
    [2567,363171,"Vazduh","Libelium","0004A30B0021DF70",44.979,16.7091,"","","Prijedor","",26345536,"2024-05-01T08:56:20",3,"NO ERROR",14.99,100,999.18,0.23,0.26,0.26],
    [2568,363171,"Vazduh","Libelium","0004A30B0021DF70",44.979,16.7091,"","","Prijedor","",26346070,"2024-05-01T09:57:02",3,"NO ERROR",15.66,99.2,999.12,0.27,0.36,0.37],
    [2569,363171,"Vazduh","Libelium","0004A30B0021DF70",44.979,16.7091,"","","Prijedor","",26346693,"2024-05-01T10:57:44",3,"NO ERROR",19.1,81,998.83,0.05,0.12,0.2],
    [2570,363171,"Vazduh","Libelium","0004A30B0021DF70",44.979,16.7091,"","","Prijedor","",26347334,"2024-05-01T11:58:26",3,"NO ERROR",20.65,74.5,998.46,0.2,0.37,0.76],
    [2571,363171,"Vazduh","Libelium","0004A30B0021DF70",44.979,16.7091,"","","Prijedor","",26347944,"2024-05-01T12:59:08",3,"NO ERROR",21.38,73.4,997.85,0.06,0.07,0.07],
    [2572,363171,"Vazduh","Libelium","0004A30B0021DF70",44.979,16.7091,"","","Prijedor","",26348618,"2024-05-01T13:59:50",3,"NO ERROR",21.22,76.2,997.59,0.22,0.32,0.33],
    [2573,363171,"Vazduh","Libelium","0004A30B0021DF70",44.979,16.7091,"","","Prijedor","",26349276,"2024-05-01T15:00:32",3,"NO ERROR",21.92,76.7,996.73,0.46,0.64,0.65],
    [2574,363171,"Vazduh","Libelium","0004A30B0021DF70",44.979,16.7091,"","","Prijedor","",26349855,"2024-05-01T16:01:14",3,"NO ERROR",20.29,91.7,996.59,0.16,0.22,0.22],
    [2575,363171,"Vazduh","Libelium","0004A30B0021DF70",44.979,16.7091,"","","Prijedor","",26350481,"2024-05-01T17:01:56",3,"NO ERROR",18.88,100,996.3,0.37,0.43,0.43],
    [2576,363171,"Vazduh","Libelium","0004A30B0021DF70",44.979,16.7091,"","","Prijedor","",26351099,"2024-05-01T18:02:38",3,"NO ERROR",17.5,100,996.2,0.66,0.8,0.8],
    [2577,363171,"Vazduh","Libelium","0004A30B0021DF70",44.979,16.7091,"","","Prijedor","",26351649,"2024-05-01T19:03:20",3,"NO ERROR",17.3,100,995.31,0.82,1.09,1.12],
    [2578,363171,"Vazduh","Libelium","0004A30B0021DF70",44.979,16.7091,"","","Prijedor","",26352225,"2024-05-01T20:04:02",3,"NO ERROR",16.95,100,995.37,0.12,0.14,0.14],
    [2579,363171,"Vazduh","Libelium","0004A30B0021DF70",44.979,16.7091,"","","Prijedor","",26352791,"2024-05-01T21:04:44",3,"NO ERROR",16.02,100,995.08,0.29,0.41,0.48],
    [2580,363171,"Vazduh","Libelium","0004A30B0021DF70",44.979,16.7091,"","","Prijedor","",26353357,"2024-05-01T22:05:26",3,"NO ERROR",16.03,100,994.83,0.54,0.67,0.67],
    [2581,363171,"Vazduh","Libelium","0004A30B0021DF70",44.979,16.7091,"","","Prijedor","",26353914,"2024-05-01T23:06:09",3,"NO ERROR",15.65,100,994.17,0.35,0.37,0.37],
    [2582,363171,"Vazduh","Libelium","0004A30B0021DF70",44.979,16.7091,"","","Prijedor","",26354682,"2024-05-02T00:06:51",3,"NO ERROR",15.38,100,994.1,0.75,0.91,0.91],
    [2583,363171,"Vazduh","Libelium","0004A30B0021DF70",44.979,16.7091,"","","Prijedor","",26355263,"2024-05-02T01:07:33",3,"NO ERROR",14.46,100,993.95,0.83,0.96,0.96],
    [2584,363171,"Vazduh","Libelium","0004A30B0021DF70",44.979,16.7091,"","","Prijedor","",26355849,"2024-05-02T02:08:15",3,"NO ERROR",13.82,100,993.6,0.4,0.46,0.46],
    [2585,363171,"Vazduh","Libelium","0004A30B0021DF70",44.979,16.7091,"","","Prijedor","",26356403,"2024-05-02T03:08:57",3,"NO ERROR",13.3,100,993.68,0.77,0.96,0.97],
    [2586,363171,"Vazduh","Libelium","0004A30B0021DF70",44.979,16.7091,"","","Prijedor","",26356875,"2024-05-02T04:09:39",3,"NO ERROR",13.72,100,994.11,1.1,1.25,1.25],
    [2587,363171,"Vazduh","Libelium","0004A30B0021DF70",44.979,16.7091,"","","Prijedor","",26357446,"2024-05-02T05:10:21",3,"NO ERROR",13.86,100,993.81,0.59,0.69,0.7],
    [2588,363171,"Vazduh","Libelium","0004A30B0021DF70",44.979,16.7091,"","","Prijedor","",26358088,"2024-05-02T06:11:09",3,"NO ERROR",12.99,100,993.74,0.26,0.28,0.29],
    [2589,363171,"Vazduh","Libelium","0004A30B0021DF70",44.979,16.7091,"","","Prijedor","",26358639,"2024-05-02T07:11:51",3,"NO ERROR",17.82,100,994.12,0.28,0.48,0.59],
    [2590,363171,"Vazduh","Libelium","0004A30B0021DF70",44.979,16.7091,"","","Prijedor","",26359271,"2024-05-02T08:12:33",3,"NO ERROR",22.87,79.7,994.36,0.19,0.23,0.23],
    [2591,363171,"Vazduh","Libelium","0004A30B0021DF70",44.979,16.7091,"","","Prijedor","",26359907,"2024-05-02T09:13:15",3,"NO ERROR",23.55,73,994.35,0.63,0.89,0.89],
    [2592,363171,"Vazduh","Libelium","0004A30B0021DF70",44.979,16.7091,"","","Prijedor","",26360466,"2024-05-02T10:13:57",3,"NO ERROR",23.3,57.7,994.41,0.33,0.41,0.42],
    [2593,363171,"Vazduh","Libelium","0004A30B0021DF70",44.979,16.7091,"","","Prijedor","",26361073,"2024-05-02T11:14:46",3,"NO ERROR",23.85,52.4,993.99,0.08,0.11,0.11],
    [2594,363171,"Vazduh","Libelium","0004A30B0021DF70",44.979,16.7091,"","","Prijedor","",26361718,"2024-05-02T12:15:28",3,"NO ERROR",24.79,48.9,993.66,0.13,0.18,0.18],
    [2595,363171,"Vazduh","Libelium","0004A30B0021DF70",44.979,16.7091,"","","Prijedor","",26362356,"2024-05-02T13:16:10",3,"NO ERROR",25.69,46.1,993.2,0.09,0.19,0.27],
    [2596,363171,"Vazduh","Libelium","0004A30B0021DF70",44.979,16.7091,"","","Prijedor","",26363018,"2024-05-02T14:16:52",3,"NO ERROR",28.42,40.2,992.42,0.1,0.13,0.13],
    [2597,363171,"Vazduh","Libelium","0004A30B0021DF70",44.979,16.7091,"","","Prijedor","",26363668,"2024-05-02T15:17:40",3,"NO ERROR",25.74,43.9,992,0.13,0.18,0.18],
    [2598,363171,"Vazduh","Libelium","0004A30B0021DF70",44.979,16.7091,"","","Prijedor","",26364275,"2024-05-02T16:18:22",3,"NO ERROR",26.29,50.5,991.33,0.2,0.24,0.24],
    [2599,363171,"Vazduh","Libelium","0004A30B0021DF70",44.979,16.7091,"","","Prijedor","",26364892,"2024-05-02T17:19:04",3,"NO ERROR",20.75,79.3,992.4,0.25,0.43,0.44],
    [2600,363171,"Vazduh","Libelium","0004A30B0021DF70",44.979,16.7091,"","","Prijedor","",26365525,"2024-05-02T18:19:46",3,"NO ERROR",16.53,100,991.92,0.19,0.22,0.23],
    [2601,363171,"Vazduh","Libelium","0004A30B0021DF70",44.979,16.7091,"","","Prijedor","",26366095,"2024-05-02T19:20:28",3,"NO ERROR",16.96,100,992.19,0.05,0.06,0.06],
    [2602,363171,"Vazduh","Libelium","0004A30B0021DF70",44.979,16.7091,"","","Prijedor","",26366639,"2024-05-02T20:21:10",3,"NO ERROR",14.88,100,992.63,0.13,0.2,0.2],
    [2603,363171,"Vazduh","Libelium","0004A30B0021DF70",44.979,16.7091,"","","Prijedor","",26367241,"2024-05-02T21:21:52",3,"NO ERROR",14.63,100,993.7,0.29,0.43,0.45],
    [2604,363171,"Vazduh","Libelium","0004A30B0021DF70",44.979,16.7091,"","","Prijedor","",26367836,"2024-05-02T22:22:34",3,"NO ERROR",14.18,100,994.11,0.24,0.45,0.49],
    [2605,363171,"Vazduh","Libelium","0004A30B0021DF70",44.979,16.7091,"","","Prijedor","",26368457,"2024-05-02T23:23:16",3,"NO ERROR",12.73,100,994.62,0.2,0.3,0.3],
    [2606,363171,"Vazduh","Libelium","0004A30B0021DF70",44.979,16.7091,"","","Prijedor","",26369272,"2024-05-03T00:23:59",3,"NO ERROR",12.46,100,994.76,0.35,0.47,0.47],
    [2607,363171,"Vazduh","Libelium","0004A30B0021DF70",44.979,16.7091,"","","Prijedor","",26369888,"2024-05-03T01:24:41",3,"NO ERROR",12.24,100,994.16,0.03,0.03,0.03],
    [2608,363171,"Vazduh","Libelium","0004A30B0021DF70",44.979,16.7091,"","","Prijedor","",26370493,"2024-05-03T02:25:23",3,"NO ERROR",12.08,100,993.97,0.04,0.08,0.09],
    [2609,363171,"Vazduh","Libelium","0004A30B0021DF70",44.979,16.7091,"","","Prijedor","",26371117,"2024-05-03T03:26:05",3,"NO ERROR",11.84,100,993.76,0.06,0.12,0.12],
    [2610,363171,"Vazduh","Libelium","0004A30B0021DF70",44.979,16.7091,"","","Prijedor","",26371701,"2024-05-03T04:26:47",3,"NO ERROR",11.93,100,993.1,0.08,0.11,0.11],
    [2611,363171,"Vazduh","Libelium","0004A30B0021DF70",44.979,16.7091,"","","Prijedor","",26372392,"2024-05-03T05:27:29",3,"NO ERROR",11.58,100,992.95,0.07,0.12,0.12],
    [2612,363171,"Vazduh","Libelium","0004A30B0021DF70",44.979,16.7091,"","","Prijedor","",26373080,"2024-05-03T06:28:11",3,"NO ERROR",11.45,100,993.01,0.1,0.23,0.25],
    [2613,363171,"Vazduh","Libelium","0004A30B0021DF70",44.979,16.7091,"","","Prijedor","",26373710,"2024-05-03T07:28:53",3,"NO ERROR",12.36,100,993.41,0.08,0.08,0.08],
    [2614,363171,"Vazduh","Libelium","0004A30B0021DF70",44.979,16.7091,"","","Prijedor","",26374299,"2024-05-03T08:29:35",3,"NO ERROR",15.2,100,993.81,0.12,0.15,0.15],
    [2615,363171,"Vazduh","Libelium","0004A30B0021DF70",44.979,16.7091,"","","Prijedor","",26374937,"2024-05-03T09:30:17",3,"NO ERROR",18.74,100,994.07,0.12,0.16,0.16],
    [2616,363171,"Vazduh","Libelium","0004A30B0021DF70",44.979,16.7091,"","","Prijedor","",26375533,"2024-05-03T10:30:59",3,"NO ERROR",18.86,78.5,994.12,0.09,0.15,0.17],
    [2617,363171,"Vazduh","Libelium","0004A30B0021DF70",44.979,16.7091,"","","Prijedor","",26376103,"2024-05-03T11:31:41",3,"NO ERROR",19.2,79.6,994.02,0.1,0.11,0.11],
    [2618,363171,"Vazduh","Libelium","0004A30B0021DF70",44.979,16.7091,"","","Prijedor","",26376710,"2024-05-03T12:32:24",3,"NO ERROR",21.24,58.5,993.93,0.11,0.15,0.15],
    [2619,363171,"Vazduh","Libelium","0004A30B0021DF70",44.979,16.7091,"","","Prijedor","",26377372,"2024-05-03T13:33:06",3,"NO ERROR",20.35,59.2,993.6,0.02,0.02,0.02],
    [2620,363171,"Vazduh","Libelium","0004A30B0021DF70",44.979,16.7091,"","","Prijedor","",26378033,"2024-05-03T14:33:48",3,"NO ERROR",18.64,65.4,993.72,0.16,0.21,0.21],
    [2621,363171,"Vazduh","Libelium","0004A30B0021DF70",44.979,16.7091,"","","Prijedor","",26378682,"2024-05-03T15:34:30",3,"NO ERROR",18.7,69.6,993.79,0.02,0.02,0.02],
    [2622,363171,"Vazduh","Libelium","0004A30B0021DF70",44.979,16.7091,"","","Prijedor","",26379260,"2024-05-03T16:35:12",3,"NO ERROR",16.86,78.7,994.54,0.15,0.2,0.2],
    [2623,363171,"Vazduh","Libelium","0004A30B0021DF70",44.979,16.7091,"","","Prijedor","",26379905,"2024-05-03T17:35:54",3,"NO ERROR",15.94,93.8,994.84,0.09,0.13,0.13],
    [2624,363171,"Vazduh","Libelium","0004A30B0021DF70",44.979,16.7091,"","","Prijedor","",26380523,"2024-05-03T18:36:36",3,"NO ERROR",15.37,98,995.09,0.13,0.17,0.17],
    [2625,363171,"Vazduh","Libelium","0004A30B0021DF70",44.979,16.7091,"","","Prijedor","",26381100,"2024-05-03T19:37:18",3,"NO ERROR",15.05,100,995.51,0.24,0.7,1.05],
    [2626,363171,"Vazduh","Libelium","0004A30B0021DF70",44.979,16.7091,"","","Prijedor","",26381667,"2024-05-03T20:38:00",3,"NO ERROR",14.25,100,995.85,0.21,0.32,0.35],
    [2627,363171,"Vazduh","Libelium","0004A30B0021DF70",44.979,16.7091,"","","Prijedor","",26382292,"2024-05-03T21:38:42",3,"NO ERROR",13.76,100,996.28,0.2,0.22,0.22],
    [2628,363171,"Vazduh","Libelium","0004A30B0021DF70",44.979,16.7091,"","","Prijedor","",26382877,"2024-05-03T22:39:24",3,"NO ERROR",13.19,100,996.39,0.05,0.08,0.08],
    [2629,363171,"Vazduh","Libelium","0004A30B0021DF70",44.979,16.7091,"","","Prijedor","",26383523,"2024-05-03T23:40:06",3,"NO ERROR",13,100,996.35,0.05,0.1,0.1],
    [2630,363171,"Vazduh","Libelium","0004A30B0021DF70",44.979,16.7091,"","","Prijedor","",26384450,"2024-05-04T00:40:48",3,"NO ERROR",12.4,100,996.41,0.29,0.37,0.37],
    [2631,363171,"Vazduh","Libelium","0004A30B0021DF70",44.979,16.7091,"","","Prijedor","",26385112,"2024-05-04T01:41:31",3,"NO ERROR",12.43,100,996.47,0.24,0.33,0.33],
    [2632,363171,"Vazduh","Libelium","0004A30B0021DF70",44.979,16.7091,"","","Prijedor","",26385781,"2024-05-04T02:42:13",3,"NO ERROR",12.31,100,996.37,0.11,0.15,0.15],
    [2633,363171,"Vazduh","Libelium","0004A30B0021DF70",44.979,16.7091,"","","Prijedor","",26386400,"2024-05-04T03:42:55",3,"NO ERROR",12.49,100,996.42,0.13,0.15,0.15],
    [2634,363171,"Vazduh","Libelium","0004A30B0021DF70",44.979,16.7091,"","","Prijedor","",26387061,"2024-05-04T04:43:37",3,"NO ERROR",12.23,100,996.92,0.02,0.06,0.07],
    [2635,363171,"Vazduh","Libelium","0004A30B0021DF70",44.979,16.7091,"","","Prijedor","",26387828,"2024-05-04T05:44:19",3,"NO ERROR",12.44,100,997.26,0.01,0.03,0.04],
    [2636,363171,"Vazduh","Libelium","0004A30B0021DF70",44.979,16.7091,"","","Prijedor","",26388559,"2024-05-04T06:45:01",3,"NO ERROR",12.57,100,998.11,0.31,0.39,0.39],
    [2637,363171,"Vazduh","Libelium","0004A30B0021DF70",44.979,16.7091,"","","Prijedor","",26389268,"2024-05-04T07:45:43",3,"NO ERROR",13.7,100,998.87,0.14,0.16,0.16],
    [2638,363171,"Vazduh","Libelium","0004A30B0021DF70",44.979,16.7091,"","","Prijedor","",26389919,"2024-05-04T08:46:25",3,"NO ERROR",16,100,999.88,0.1,0.13,0.13],
    [2639,363171,"Vazduh","Libelium","0004A30B0021DF70",44.979,16.7091,"","","Prijedor","",26390524,"2024-05-04T09:47:07",3,"NO ERROR",16.94,100,1000.26,0.14,0.19,0.19],
    [2640,363171,"Vazduh","Libelium","0004A30B0021DF70",44.979,16.7091,"","","Prijedor","",26391121,"2024-05-04T10:47:55",3,"NO ERROR",19.83,93.5,999.89,0.2,0.25,0.26],
    [2641,363171,"Vazduh","Libelium","0004A30B0021DF70",44.979,16.7091,"","","Prijedor","",26391741,"2024-05-04T11:48:37",3,"NO ERROR",19.68,85.4,999.68,0.18,0.25,0.26],
    [2642,363171,"Vazduh","Libelium","0004A30B0021DF70",44.979,16.7091,"","","Prijedor","",26392344,"2024-05-04T12:49:26",3,"NO ERROR",20.41,75.6,999.65,0.07,0.14,0.15],
    [2643,363171,"Vazduh","Libelium","0004A30B0021DF70",44.979,16.7091,"","","Prijedor","",26393002,"2024-05-04T13:50:07",3,"NO ERROR",21.76,66,999.28,0.06,0.12,0.13],
    [2644,363171,"Vazduh","Libelium","0004A30B0021DF70",44.979,16.7091,"","","Prijedor","",26393717,"2024-05-04T14:51:02",3,"NO ERROR",23.52,58,999.13,0.07,0.14,0.15],
    [2645,363171,"Vazduh","Libelium","0004A30B0021DF70",44.979,16.7091,"","","Prijedor","",26394342,"2024-05-04T15:51:50",3,"NO ERROR",25.26,56.6,998.9,0.1,0.13,0.13],
    [2646,363171,"Vazduh","Libelium","0004A30B0021DF70",44.979,16.7091,"","","Prijedor","",26394935,"2024-05-04T16:52:32",3,"NO ERROR",25.26,54.8,998.83,0.03,0.03,0.03],
    [2647,363171,"Vazduh","Libelium","0004A30B0021DF70",44.979,16.7091,"","","Prijedor","",26395579,"2024-05-04T17:53:14",3,"NO ERROR",22.24,61.7,999,0.03,0.04,0.04],
    [2648,363171,"Vazduh","Libelium","0004A30B0021DF70",44.979,16.7091,"","","Prijedor","",26396181,"2024-05-04T18:53:56",3,"NO ERROR",20.83,70.6,999.07,0.16,0.23,0.23],
    [2649,363171,"Vazduh","Libelium","0004A30B0021DF70",44.979,16.7091,"","","Prijedor","",26396768,"2024-05-04T19:54:38",3,"NO ERROR",19.16,80.6,999.39,0.2,0.22,0.23],
    [2650,363171,"Vazduh","Libelium","0004A30B0021DF70",44.979,16.7091,"","","Prijedor","",26397361,"2024-05-04T20:55:20",3,"NO ERROR",17.01,100,999.55,0.07,0.07,0.07],
    [2651,363171,"Vazduh","Libelium","0004A30B0021DF70",44.979,16.7091,"","","Prijedor","",26397931,"2024-05-04T21:56:02",3,"NO ERROR",15,100,1000.31,0.5,0.54,0.54],
    [2652,363171,"Vazduh","Libelium","0004A30B0021DF70",44.979,16.7091,"","","Prijedor","",26398551,"2024-05-04T22:56:44",3,"NO ERROR",13.64,100,1000.49,0.66,0.84,0.85],
    [2653,363171,"Vazduh","Libelium","0004A30B0021DF70",44.979,16.7091,"","","Prijedor","",26399289,"2024-05-04T23:57:26",3,"NO ERROR",12.73,100,1000.72,0.51,0.65,0.65],
    [2654,363171,"Vazduh","Libelium","0004A30B0021DF70",44.979,16.7091,"","","Prijedor","",26400119,"2024-05-05T00:58:08",3,"NO ERROR",12.43,100,1000.55,0.28,0.35,0.35],
    [2655,363171,"Vazduh","Libelium","0004A30B0021DF70",44.979,16.7091,"","","Prijedor","",26400791,"2024-05-05T01:58:50",3,"NO ERROR",10.74,100,1000.37,0.17,0.26,0.28],
    [2656,363171,"Vazduh","Libelium","0004A30B0021DF70",44.979,16.7091,"","","Prijedor","",26401445,"2024-05-05T02:59:33",3,"NO ERROR",10.76,100,1000.33,0.08,0.11,0.12],
    [2657,363171,"Vazduh","Libelium","0004A30B0021DF70",44.979,16.7091,"","","Prijedor","",26401991,"2024-05-05T04:00:15",3,"NO ERROR",9.93,100,1000.17,0.09,0.11,0.11],
    [2658,363171,"Vazduh","Libelium","0004A30B0021DF70",44.979,16.7091,"","","Prijedor","",26402608,"2024-05-05T05:00:57",3,"NO ERROR",9.33,100,1000.27,0.13,0.14,0.14],
    [2659,363171,"Vazduh","Libelium","0004A30B0021DF70",44.979,16.7091,"","","Prijedor","",26403300,"2024-05-05T06:01:39",3,"NO ERROR",10.1,100,1000.39,4.44,20.44,684.51],
    [2660,363171,"Vazduh","Libelium","0004A30B0021DF70",44.979,16.7091,"","","Prijedor","",26403930,"2024-05-05T07:02:21",3,"NO ERROR",10.8,100,1000.7,2.45,8.19,186.14],
    [2661,363171,"Vazduh","Libelium","0004A30B0021DF70",44.979,16.7091,"","","Prijedor","",26404581,"2024-05-05T08:03:03",3,"NO ERROR",19.92,81.2,1000.66,0.07,0.07,0.07],
    [2662,363171,"Vazduh","Libelium","0004A30B0021DF70",44.979,16.7091,"","","Prijedor","",26405254,"2024-05-05T09:03:45",3,"NO ERROR",20.68,80.7,1000.38,0.17,0.18,0.18],
    [2663,363171,"Vazduh","Libelium","0004A30B0021DF70",44.979,16.7091,"","","Prijedor","",26405838,"2024-05-05T10:04:27",3,"NO ERROR",21.48,78.4,1000.13,0.12,0.12,0.12],
    [2664,363171,"Vazduh","Libelium","0004A30B0021DF70",44.979,16.7091,"","","Prijedor","",26406451,"2024-05-05T11:05:15",3,"NO ERROR",25.27,59.4,999.73,0.05,0.12,0.2],
    [2665,363171,"Vazduh","Libelium","0004A30B0021DF70",44.979,16.7091,"","","Prijedor","",26407107,"2024-05-05T12:05:57",3,"NO ERROR",23.99,54,999.13,0.05,0.06,0.06],
    [2666,363171,"Vazduh","Libelium","0004A30B0021DF70",44.979,16.7091,"","","Prijedor","",26407711,"2024-05-05T13:06:39",3,"NO ERROR",25.04,51.7,998.39,0.13,0.17,0.17],
    [2667,363171,"Vazduh","Libelium","0004A30B0021DF70",44.979,16.7091,"","","Prijedor","",26408404,"2024-05-05T14:07:21",3,"NO ERROR",27.84,46.2,997.99,0.07,0.13,0.13],
    [2668,363171,"Vazduh","Libelium","0004A30B0021DF70",44.979,16.7091,"","","Prijedor","",26409076,"2024-05-05T15:08:04",3,"NO ERROR",26.81,44.4,997.32,0.13,0.2,0.21],
    [2669,363171,"Vazduh","Libelium","0004A30B0021DF70",44.979,16.7091,"","","Prijedor","",26409674,"2024-05-05T16:08:46",3,"NO ERROR",30.97,35.2,996.79,0.11,0.24,0.27],
    [2670,363171,"Vazduh","Libelium","0004A30B0021DF70",44.979,16.7091,"","","Prijedor","",26410293,"2024-05-05T17:09:28",3,"NO ERROR",30.89,35.3,996.42,0.21,0.31,0.31],
    [2671,363171,"Vazduh","Libelium","0004A30B0021DF70",44.979,16.7091,"","","Prijedor","",26410933,"2024-05-05T18:10:10",3,"NO ERROR",25.38,40.9,996.31,0.12,0.17,0.17],
    [2672,363171,"Vazduh","Libelium","0004A30B0021DF70",44.979,16.7091,"","","Prijedor","",26411519,"2024-05-05T19:10:52",3,"NO ERROR",22.78,52.3,996.98,0.01,0.03,0.03],
    [2673,363171,"Vazduh","Libelium","0004A30B0021DF70",44.979,16.7091,"","","Prijedor","",26412103,"2024-05-05T20:11:34",3,"NO ERROR",20.48,59.9,997.37,0.07,0.12,0.13],
    [2674,363171,"Vazduh","Libelium","0004A30B0021DF70",44.979,16.7091,"","","Prijedor","",26412714,"2024-05-05T21:12:16",3,"NO ERROR",18.76,70.7,998.11,0.11,0.14,0.14],
    [2675,363171,"Vazduh","Libelium","0004A30B0021DF70",44.979,16.7091,"","","Prijedor","",26413304,"2024-05-05T22:12:58",3,"NO ERROR",16.57,90,998.19,0.36,0.51,0.53],
    [2676,363171,"Vazduh","Libelium","0004A30B0021DF70",44.979,16.7091,"","","Prijedor","",26413882,"2024-05-05T23:13:40",3,"NO ERROR",14.26,100,998.32,0.22,0.36,0.37],
    [2677,363171,"Vazduh","Libelium","0004A30B0021DF70",44.979,16.7091,"","","Prijedor","",26414793,"2024-05-06T00:14:28",3,"NO ERROR",13.37,100,998.48,0.03,0.05,0.05],
    [2678,363171,"Vazduh","Libelium","0004A30B0021DF70",44.979,16.7091,"","","Prijedor","",26415487,"2024-05-06T01:15:16",3,"NO ERROR",12.4,100,998.42,0.05,0.13,0.43],
    [2679,363171,"Vazduh","Libelium","0004A30B0021DF70",44.979,16.7091,"","","Prijedor","",26416122,"2024-05-06T02:15:58",3,"NO ERROR",11.38,100,998.3,0.05,0.05,0.05],
    [2680,363171,"Vazduh","Libelium","0004A30B0021DF70",44.979,16.7091,"","","Prijedor","",26416789,"2024-05-06T03:16:40",3,"NO ERROR",10.68,100,998.32,0.15,0.16,0.16],
    [2681,363171,"Vazduh","Libelium","0004A30B0021DF70",44.979,16.7091,"","","Prijedor","",26417365,"2024-05-06T04:17:23",3,"NO ERROR",9.9,100,998.28,0.08,0.1,0.1],
    [2682,363171,"Vazduh","Libelium","0004A30B0021DF70",44.979,16.7091,"","","Prijedor","",26418042,"2024-05-06T05:18:05",3,"NO ERROR",9.54,100,998.34,0.2,0.3,0.31],
    [2683,363171,"Vazduh","Libelium","0004A30B0021DF70",44.979,16.7091,"","","Prijedor","",26418790,"2024-05-06T06:18:47",3,"NO ERROR",10.5,100,998.59,0.1,0.24,0.38],
    [2684,363171,"Vazduh","Libelium","0004A30B0021DF70",44.979,16.7091,"","","Prijedor","",26419411,"2024-05-06T07:19:29",3,"NO ERROR",16.86,84,998.46,0.05,0.05,0.05],
    [2685,363171,"Vazduh","Libelium","0004A30B0021DF70",44.979,16.7091,"","","Prijedor","",26420022,"2024-05-06T08:20:11",3,"NO ERROR",21.13,65.4,998.39,0.24,0.32,0.32],
    [2686,363171,"Vazduh","Libelium","0004A30B0021DF70",44.979,16.7091,"","","Prijedor","",26420660,"2024-05-06T09:20:53",3,"NO ERROR",22.53,59.4,998.06,0.09,0.1,0.1],
    [2687,363171,"Vazduh","Libelium","0004A30B0021DF70",44.979,16.7091,"","","Prijedor","",26421254,"2024-05-06T10:21:35",3,"NO ERROR",23.16,54.2,997.79,0.06,0.07,0.07],
    [2688,363171,"Vazduh","Libelium","0004A30B0021DF70",44.979,16.7091,"","","Prijedor","",26421855,"2024-05-06T11:22:17",3,"NO ERROR",25.12,50.8,997.37,0.18,0.25,0.25],
    [2689,363171,"Vazduh","Libelium","0004A30B0021DF70",44.979,16.7091,"","","Prijedor","",26422479,"2024-05-06T12:22:59",3,"NO ERROR",26.43,45.7,997.01,0.1,0.15,0.15],
    [2690,363171,"Vazduh","Libelium","0004A30B0021DF70",44.979,16.7091,"","","Prijedor","",26423119,"2024-05-06T13:23:41",3,"NO ERROR",27.6,42.7,996.78,0.08,0.11,0.11],
    [2691,363171,"Vazduh","Libelium","0004A30B0021DF70",44.979,16.7091,"","","Prijedor","",26423812,"2024-05-06T14:24:23",3,"NO ERROR",28.81,41,996.46,0.07,0.07,0.07],
    [2692,363171,"Vazduh","Libelium","0004A30B0021DF70",44.979,16.7091,"","","Prijedor","",26424492,"2024-05-06T15:25:05",3,"NO ERROR",28.84,41.1,996.05,0.03,0.03,0.03],
    [2693,363171,"Vazduh","Libelium","0004A30B0021DF70",44.979,16.7091,"","","Prijedor","",26425090,"2024-05-06T16:25:48",3,"NO ERROR",27.74,41.5,996.02,0.04,0.07,0.07],
    [2694,363171,"Vazduh","Libelium","0004A30B0021DF70",44.979,16.7091,"","","Prijedor","",26425720,"2024-05-06T17:26:30",3,"NO ERROR",26.15,43.7,996.26,0.11,0.17,0.18],
    [2695,363171,"Vazduh","Libelium","0004A30B0021DF70",44.979,16.7091,"","","Prijedor","",26426373,"2024-05-06T18:27:12",3,"NO ERROR",24.25,47.5,996.26,0.02,0.02,0.02],
    [2696,363171,"Vazduh","Libelium","0004A30B0021DF70",44.979,16.7091,"","","Prijedor","",26426944,"2024-05-06T19:28:00",3,"NO ERROR",22.8,51.2,996.5,0.07,0.09,0.09],
    [2697,363171,"Vazduh","Libelium","0004A30B0021DF70",44.979,16.7091,"","","Prijedor","",26427491,"2024-05-06T20:28:42",3,"NO ERROR",20.64,59.1,996.5,0.11,0.11,0.11],
    [2698,363171,"Vazduh","Libelium","0004A30B0021DF70",44.979,16.7091,"","","Prijedor","",26428116,"2024-05-06T21:29:24",3,"NO ERROR",19.3,66.1,997.08,0.36,0.42,0.42],
    [2699,363171,"Vazduh","Libelium","0004A30B0021DF70",44.979,16.7091,"","","Prijedor","",26428694,"2024-05-06T22:30:06",3,"NO ERROR",17.02,80.2,997.06,0.24,0.31,0.31],
    [2700,363171,"Vazduh","Libelium","0004A30B0021DF70",44.979,16.7091,"","","Prijedor","",26429300,"2024-05-06T23:30:48",3,"NO ERROR",15.17,95.6,997.3,0.1,0.13,0.13],
    [2701,363171,"Vazduh","Libelium","0004A30B0021DF70",44.979,16.7091,"","","Prijedor","",26430151,"2024-05-07T00:31:30",3,"NO ERROR",15.18,93,997.23,0.16,0.24,0.25],
    [2702,363171,"Vazduh","Libelium","0004A30B0021DF70",44.979,16.7091,"","","Prijedor","",26430759,"2024-05-07T01:32:12",3,"NO ERROR",13.81,100,997.23,0.16,0.21,0.21],
    [2703,363171,"Vazduh","Libelium","0004A30B0021DF70",44.979,16.7091,"","","Prijedor","",26431365,"2024-05-07T02:32:54",3,"NO ERROR",13.81,100,997.05,0.1,0.11,0.11],
    [2704,363171,"Vazduh","Libelium","0004A30B0021DF70",44.979,16.7091,"","","Prijedor","",26431956,"2024-05-07T03:33:36",3,"NO ERROR",12.9,100,997.2,0.08,0.08,0.08],
    [2705,363171,"Vazduh","Libelium","0004A30B0021DF70",44.979,16.7091,"","","Prijedor","",26432533,"2024-05-07T04:34:19",3,"NO ERROR",12.97,100,996.92,0.09,0.23,0.32],
    [2706,363171,"Vazduh","Libelium","0004A30B0021DF70",44.979,16.7091,"","","Prijedor","",26433234,"2024-05-07T05:35:01",3,"NO ERROR",12.01,100,996.99,0.05,0.06,0.06],
    [2707,363171,"Vazduh","Libelium","0004A30B0021DF70",44.979,16.7091,"","","Prijedor","",26433923,"2024-05-07T06:35:43",3,"NO ERROR",13.48,100,997.01,0.22,0.27,0.27],
    [2708,363171,"Vazduh","Libelium","0004A30B0021DF70",44.979,16.7091,"","","Prijedor","",26434562,"2024-05-07T07:36:25",3,"NO ERROR",15.12,100,997.3,0.07,0.19,0.27],
    [2709,363171,"Vazduh","Libelium","0004A30B0021DF70",44.979,16.7091,"","","Prijedor","",26435184,"2024-05-07T08:37:07",3,"NO ERROR",18.47,86,997.53,0.05,0.05,0.05],
    [2710,363171,"Vazduh","Libelium","0004A30B0021DF70",44.979,16.7091,"","","Prijedor","",26435823,"2024-05-07T09:37:49",3,"NO ERROR",22.65,68.2,997.6,0.05,0.06,0.06],
    [2711,363171,"Vazduh","Libelium","0004A30B0021DF70",44.979,16.7091,"","","Prijedor","",26436430,"2024-05-07T10:38:31",3,"NO ERROR",21.5,68.8,998.12,0.13,0.16,0.16],
    [2712,363171,"Vazduh","Libelium","0004A30B0021DF70",44.979,16.7091,"","","Prijedor","",26437029,"2024-05-07T11:39:13",3,"NO ERROR",22.47,64.8,998.15,0.29,0.46,0.48],
    [2713,363171,"Vazduh","Libelium","0004A30B0021DF70",44.979,16.7091,"","","Prijedor","",26437663,"2024-05-07T12:39:55",3,"NO ERROR",22.83,63.9,998.09,0.08,0.32,0.48],
    [2714,363171,"Vazduh","Libelium","0004A30B0021DF70",44.979,16.7091,"","","Prijedor","",26438353,"2024-05-07T13:40:43",3,"NO ERROR",21.39,69.4,998.29,0.07,0.07,0.07],
    [2715,363171,"Vazduh","Libelium","0004A30B0021DF70",44.979,16.7091,"","","Prijedor","",26439038,"2024-05-07T14:41:25",3,"NO ERROR",20.52,87.9,997.95,0.17,0.26,0.27],
    [2716,363171,"Vazduh","Libelium","0004A30B0021DF70",44.979,16.7091,"","","Prijedor","",26439686,"2024-05-07T15:42:07",3,"NO ERROR",19.41,94.4,997.83,0.21,0.26,0.26],
    [2717,363171,"Vazduh","Libelium","0004A30B0021DF70",44.979,16.7091,"","","Prijedor","",26440259,"2024-05-07T16:42:49",3,"NO ERROR",20.23,87.8,997.69,0.07,0.08,0.08],
    [2718,363171,"Vazduh","Libelium","0004A30B0021DF70",44.979,16.7091,"","","Prijedor","",26440872,"2024-05-07T17:43:31",3,"NO ERROR",20.59,85.4,997.35,0.03,0.05,0.05],
    [2719,363171,"Vazduh","Libelium","0004A30B0021DF70",44.979,16.7091,"","","Prijedor","",26441490,"2024-05-07T18:44:14",3,"NO ERROR",19.35,90.7,997.91,0.06,0.08,0.08],
    [2720,363171,"Vazduh","Libelium","0004A30B0021DF70",44.979,16.7091,"","","Prijedor","",26442044,"2024-05-07T19:44:56",3,"NO ERROR",18.4,98.2,998.27,0.18,0.24,0.24],
    [2721,363171,"Vazduh","Libelium","0004A30B0021DF70",44.979,16.7091,"","","Prijedor","",26442613,"2024-05-07T20:45:38",3,"NO ERROR",17.8,100,998.56,0.02,0.02,0.02],
    [2722,363171,"Vazduh","Libelium","0004A30B0021DF70",44.979,16.7091,"","","Prijedor","",26443206,"2024-05-07T21:46:20",3,"NO ERROR",17.35,100,999.41,0.15,0.37,0.49],
    [2723,363171,"Vazduh","Libelium","0004A30B0021DF70",44.979,16.7091,"","","Prijedor","",26443837,"2024-05-07T22:47:08",3,"NO ERROR",16.85,100,999.29,0.08,0.09,0.09],
    [2724,363171,"Vazduh","Libelium","0004A30B0021DF70",44.979,16.7091,"","","Prijedor","",26444489,"2024-05-07T23:47:50",3,"NO ERROR",16.43,100,999.41,0.27,0.38,0.38],
    [2725,363171,"Vazduh","Libelium","0004A30B0021DF70",44.979,16.7091,"","","Prijedor","",26445417,"2024-05-08T00:48:32",3,"NO ERROR",15.6,100,999.2,0.19,0.22,0.22],
    [2726,363171,"Vazduh","Libelium","0004A30B0021DF70",44.979,16.7091,"","","Prijedor","",26446051,"2024-05-08T01:49:14",3,"NO ERROR",15.46,100,999.38,0.07,0.08,0.08],
    [2727,363171,"Vazduh","Libelium","0004A30B0021DF70",44.979,16.7091,"","","Prijedor","",26446768,"2024-05-08T02:49:56",3,"NO ERROR",14.26,100,999.23,0.11,0.12,0.12],
    [2728,363171,"Vazduh","Libelium","0004A30B0021DF70",44.979,16.7091,"","","Prijedor","",26447381,"2024-05-08T03:50:51",3,"NO ERROR",13.86,100,999.24,0.2,0.23,0.23],
    [2729,363171,"Vazduh","Libelium","0004A30B0021DF70",44.979,16.7091,"","","Prijedor","",26447988,"2024-05-08T04:51:32",3,"NO ERROR",14.45,100,999.68,0.47,0.51,0.51],
    [2730,363171,"Vazduh","Libelium","0004A30B0021DF70",44.979,16.7091,"","","Prijedor","",26448727,"2024-05-08T05:52:21",3,"NO ERROR",13.93,100,999.79,0.84,1,1],
    [2731,363171,"Vazduh","Libelium","0004A30B0021DF70",44.979,16.7091,"","","Prijedor","",26449416,"2024-05-08T06:53:02",3,"NO ERROR",14.81,100,1000.12,1,1.13,1.13],
    [2732,363171,"Vazduh","Libelium","0004A30B0021DF70",44.979,16.7091,"","","Prijedor","",26450024,"2024-05-08T07:53:45",3,"NO ERROR",16.4,100,1000.68,0.05,0.05,0.05],
    [2733,363171,"Vazduh","Libelium","0004A30B0021DF70",44.979,16.7091,"","","Prijedor","",26450635,"2024-05-08T08:54:27",3,"NO ERROR",17.9,100,1000.93,0.24,0.27,0.27],
    [2734,363171,"Vazduh","Libelium","0004A30B0021DF70",44.979,16.7091,"","","Prijedor","",26451220,"2024-05-08T09:55:09",3,"NO ERROR",18.89,100,1001.27,0.17,0.21,0.21],
    [2735,363171,"Vazduh","Libelium","0004A30B0021DF70",44.979,16.7091,"","","Prijedor","",26451801,"2024-05-08T10:55:51",3,"NO ERROR",21.58,90.9,1001.19,0.16,0.24,0.25],
    [2736,363171,"Vazduh","Libelium","0004A30B0021DF70",44.979,16.7091,"","","Prijedor","",26452417,"2024-05-08T11:56:33",3,"NO ERROR",21.2,82.9,1000.94,0.32,0.41,0.42],
    [2737,363171,"Vazduh","Libelium","0004A30B0021DF70",44.979,16.7091,"","","Prijedor","",26453013,"2024-05-08T12:57:15",3,"NO ERROR",24.05,68.6,1000.57,0.36,0.47,0.48],
    [2738,363171,"Vazduh","Libelium","0004A30B0021DF70",44.979,16.7091,"","","Prijedor","",26453688,"2024-05-08T13:57:57",3,"NO ERROR",24.46,60.5,1000.31,0.13,0.14,0.14],
    [2739,363171,"Vazduh","Libelium","0004A30B0021DF70",44.979,16.7091,"","","Prijedor","",26454400,"2024-05-08T14:58:39",3,"NO ERROR",24.88,56.8,1000.26,0.06,0.06,0.06],
    [2740,363171,"Vazduh","Libelium","0004A30B0021DF70",44.979,16.7091,"","","Prijedor","",26455010,"2024-05-08T15:59:21",3,"NO ERROR",25.53,55.9,1000.06,0.17,0.26,0.28],
    [2741,363171,"Vazduh","Libelium","0004A30B0021DF70",44.979,16.7091,"","","Prijedor","",26455622,"2024-05-08T17:00:03",3,"NO ERROR",24.3,61.8,1000.32,0.07,0.08,0.08],
    [2742,363171,"Vazduh","Libelium","0004A30B0021DF70",44.979,16.7091,"","","Prijedor","",26456255,"2024-05-08T18:00:51",3,"NO ERROR",20.43,81.4,1000.66,0.12,0.13,0.13],
    [2743,363171,"Vazduh","Libelium","0004A30B0021DF70",44.979,16.7091,"","","Prijedor","",26456832,"2024-05-08T19:01:33",3,"NO ERROR",19.79,85.3,1000.96,0.05,0.05,0.05],
    [2744,363171,"Vazduh","Libelium","0004A30B0021DF70",44.979,16.7091,"","","Prijedor","",26457377,"2024-05-08T20:02:16",3,"NO ERROR",18.7,95.7,1002.18,0.02,0.02,0.02],
    [2745,363171,"Vazduh","Libelium","0004A30B0021DF70",44.979,16.7091,"","","Prijedor","",26457953,"2024-05-08T21:02:58",3,"NO ERROR",16.09,100,1003.5,0.75,1.71,4.96],
    [2746,363171,"Vazduh","Libelium","0004A30B0021DF70",44.979,16.7091,"","","Prijedor","",26458524,"2024-05-08T22:03:40",3,"NO ERROR",15.4,100,1004.08,0.87,1.08,1.1],
    [2747,363171,"Vazduh","Libelium","0004A30B0021DF70",44.979,16.7091,"","","Prijedor","",26459107,"2024-05-08T23:04:22",3,"NO ERROR",15.32,100,1004.3,1.21,1.56,1.58],
    [2748,363171,"Vazduh","Libelium","0004A30B0021DF70",44.979,16.7091,"","","Prijedor","",26459939,"2024-05-09T00:05:04",3,"NO ERROR",15.42,100,1004.85,0.21,0.32,0.34],
    [2749,363171,"Vazduh","Libelium","0004A30B0021DF70",44.979,16.7091,"","","Prijedor","",26460635,"2024-05-09T01:05:52",3,"NO ERROR",15.36,100,1004.88,0.25,0.36,0.37],
    [2750,363171,"Vazduh","Libelium","0004A30B0021DF70",44.979,16.7091,"","","Prijedor","",26461251,"2024-05-09T02:06:34",3,"NO ERROR",15.15,100,1004.65,0.13,0.2,0.21],
    [2751,363171,"Vazduh","Libelium","0004A30B0021DF70",44.979,16.7091,"","","Prijedor","",26461916,"2024-05-09T03:07:16",3,"NO ERROR",14.74,100,1004.56,0.12,0.15,0.15],
    [2752,363171,"Vazduh","Libelium","0004A30B0021DF70",44.979,16.7091,"","","Prijedor","",26462504,"2024-05-09T04:07:58",3,"NO ERROR",14.58,100,1004.41,0.21,0.28,0.28],
    [2753,363171,"Vazduh","Libelium","0004A30B0021DF70",44.979,16.7091,"","","Prijedor","",26463133,"2024-05-09T05:08:40",3,"NO ERROR",14.72,100,1004.37,0.1,0.1,0.1],
    [2754,363171,"Vazduh","Libelium","0004A30B0021DF70",44.979,16.7091,"","","Prijedor","",26463897,"2024-05-09T06:09:35",3,"NO ERROR",13.39,100,1005.16,0.23,0.31,0.32],
    [2755,363171,"Vazduh","Libelium","0004A30B0021DF70",44.979,16.7091,"","","Prijedor","",26464557,"2024-05-09T07:10:16",3,"NO ERROR",13.1,100,1005.62,0.15,0.18,0.18],
    [2756,363171,"Vazduh","Libelium","0004A30B0021DF70",44.979,16.7091,"","","Prijedor","",26465189,"2024-05-09T08:10:58",3,"NO ERROR",13.5,100,1006.08,0.14,0.21,0.22],
    [2757,363171,"Vazduh","Libelium","0004A30B0021DF70",44.979,16.7091,"","","Prijedor","",26465878,"2024-05-09T09:11:53",3,"NO ERROR",14.31,100,1006.28,0.22,0.34,0.35],
    [2758,363171,"Vazduh","Libelium","0004A30B0021DF70",44.979,16.7091,"","","Prijedor","",26466506,"2024-05-09T10:12:35",3,"NO ERROR",16.81,89.4,1006.41,0.16,0.23,0.23],
    [2759,363171,"Vazduh","Libelium","0004A30B0021DF70",44.979,16.7091,"","","Prijedor","",26467093,"2024-05-09T11:13:17",3,"NO ERROR",17,81.1,1006.29,0.09,0.23,0.37],
    [2760,363171,"Vazduh","Libelium","0004A30B0021DF70",44.979,16.7091,"","","Prijedor","",26467723,"2024-05-09T12:13:59",3,"NO ERROR",18.39,71.8,1006.2,0.18,0.31,0.34],
    [2761,363171,"Vazduh","Libelium","0004A30B0021DF70",44.979,16.7091,"","","Prijedor","",26468365,"2024-05-09T13:14:41",3,"NO ERROR",20.71,63.1,1005.82,0.05,0.11,0.12],
    [2762,363171,"Vazduh","Libelium","0004A30B0021DF70",44.979,16.7091,"","","Prijedor","",26469029,"2024-05-09T14:15:23",3,"NO ERROR",21.25,59.5,1005.38,0.17,0.23,0.23],
    [2763,363171,"Vazduh","Libelium","0004A30B0021DF70",44.979,16.7091,"","","Prijedor","",26469728,"2024-05-09T15:16:05",3,"NO ERROR",21.55,60.2,1004.83,0.03,0.12,0.2],
    [2764,363171,"Vazduh","Libelium","0004A30B0021DF70",44.979,16.7091,"","","Prijedor","",26470341,"2024-05-09T16:16:47",3,"NO ERROR",22.87,55.1,1004.15,0.07,0.14,0.22],
    [2765,363171,"Vazduh","Libelium","0004A30B0021DF70",44.979,16.7091,"","","Prijedor","",26470926,"2024-05-09T17:17:29",3,"NO ERROR",21.11,58.4,1004.03,0.19,0.36,0.46],
    [2766,363171,"Vazduh","Libelium","0004A30B0021DF70",44.979,16.7091,"","","Prijedor","",26471588,"2024-05-09T18:18:23",3,"NO ERROR",19.75,77.5,1003.88,0.11,0.16,0.16],
    [2767,363171,"Vazduh","Libelium","0004A30B0021DF70",44.979,16.7091,"","","Prijedor","",26472149,"2024-05-09T19:19:05",3,"NO ERROR",19.09,76.9,1003.87,0.09,0.18,0.2],
    [2768,363171,"Vazduh","Libelium","0004A30B0021DF70",44.979,16.7091,"","","Prijedor","",26472689,"2024-05-09T20:19:47",3,"NO ERROR",18.36,82.2,1004.21,0.08,0.1,0.1],
    [2769,363171,"Vazduh","Libelium","0004A30B0021DF70",44.979,16.7091,"","","Prijedor","",26473299,"2024-05-09T21:20:29",3,"NO ERROR",17.34,100,1004.88,0.13,0.15,0.15],
    [2770,363171,"Vazduh","Libelium","0004A30B0021DF70",44.979,16.7091,"","","Prijedor","",26473863,"2024-05-09T22:21:11",3,"NO ERROR",16.76,100,1005.08,0.2,0.25,0.25],
    [2771,363171,"Vazduh","Libelium","0004A30B0021DF70",44.979,16.7091,"","","Prijedor","",26474430,"2024-05-09T23:21:54",3,"NO ERROR",15.57,100,1005.22,0.05,0.05,0.05],
    [2772,363171,"Vazduh","Libelium","0004A30B0021DF70",44.979,16.7091,"","","Prijedor","",26475337,"2024-05-10T00:22:42",3,"NO ERROR",14.21,100,1005.48,0.36,0.51,0.53],
    [2773,363171,"Vazduh","Libelium","0004A30B0021DF70",44.979,16.7091,"","","Prijedor","",26476044,"2024-05-10T01:23:24",3,"NO ERROR",12.7,100,1005.38,0.19,0.23,0.25],
    [2774,363171,"Vazduh","Libelium","0004A30B0021DF70",44.979,16.7091,"","","Prijedor","",26476714,"2024-05-10T02:24:06",3,"NO ERROR",11.76,100,1004.92,0.37,0.43,0.43],
    [2775,363171,"Vazduh","Libelium","0004A30B0021DF70",44.979,16.7091,"","","Prijedor","",26477403,"2024-05-10T03:24:48",3,"NO ERROR",11.14,100,1004.86,0.48,0.56,0.56],
    [2776,363171,"Vazduh","Libelium","0004A30B0021DF70",44.979,16.7091,"","","Prijedor","",26478034,"2024-05-10T04:25:30",3,"NO ERROR",10.55,100,1004.64,1.3,1.43,1.43],
    [2777,363171,"Vazduh","Libelium","0004A30B0021DF70",44.979,16.7091,"","","Prijedor","",26478764,"2024-05-10T05:26:12",3,"NO ERROR",9.62,100,1004.75,6.98,9.89,93.5],
    [2778,363171,"Vazduh","Libelium","0004A30B0021DF70",44.979,16.7091,"","","Prijedor","",26479505,"2024-05-10T06:26:54",3,"NO ERROR",9.75,100,1004.97,0.85,6.8,232.79],
    [2779,363171,"Vazduh","Libelium","0004A30B0021DF70",44.979,16.7091,"","","Prijedor","",26480084,"2024-05-10T07:27:36",3,"NO ERROR",12.05,100,1005.24,0.12,0.38,1.76],
    [2780,363171,"Vazduh","Libelium","0004A30B0021DF70",44.979,16.7091,"","","Prijedor","",26480605,"2024-05-10T08:28:18",3,"NO ERROR",19.3,81.7,1005.3,0.07,0.07,0.07],
    [2781,363171,"Vazduh","Libelium","0004A30B0021DF70",44.979,16.7091,"","","Prijedor","",26481228,"2024-05-10T09:29:00",3,"NO ERROR",23.06,62.4,1005.11,0.09,0.1,0.1],
    [2782,363171,"Vazduh","Libelium","0004A30B0021DF70",44.979,16.7091,"","","Prijedor","",26481822,"2024-05-10T10:29:42",3,"NO ERROR",21.71,66.6,1005.1,0.22,0.3,0.32],
    [2783,363171,"Vazduh","Libelium","0004A30B0021DF70",44.979,16.7091,"","","Prijedor","",26482367,"2024-05-10T11:30:25",3,"NO ERROR",21.25,67,1004.86,0.23,0.26,0.27],
    [2784,363171,"Vazduh","Libelium","0004A30B0021DF70",44.979,16.7091,"","","Prijedor","",26483008,"2024-05-10T12:31:13",3,"NO ERROR",22.43,61.7,1004.52,0.07,0.13,0.13],
    [2785,363171,"Vazduh","Libelium","0004A30B0021DF70",44.979,16.7091,"","","Prijedor","",26483701,"2024-05-10T13:31:55",3,"NO ERROR",23.19,55.1,1003.99,0.08,0.12,0.13],
    [2786,363171,"Vazduh","Libelium","0004A30B0021DF70",44.979,16.7091,"","","Prijedor","",26484343,"2024-05-10T14:32:37",3,"NO ERROR",25.29,48.7,1003.42,0.02,0.02,0.02],
    [2787,363171,"Vazduh","Libelium","0004A30B0021DF70",44.979,16.7091,"","","Prijedor","",26485039,"2024-05-10T15:33:19",3,"NO ERROR",25.92,39.1,1002.91,0.33,0.53,0.63],
    [2788,363171,"Vazduh","Libelium","0004A30B0021DF70",44.979,16.7091,"","","Prijedor","",26485623,"2024-05-10T16:34:01",3,"NO ERROR",26.58,39.8,1002.63,0.21,0.27,0.27],
    [2789,363171,"Vazduh","Libelium","0004A30B0021DF70",44.979,16.7091,"","","Prijedor","",26486229,"2024-05-10T17:34:43",3,"NO ERROR",23.41,42.3,1002.38,0.1,0.11,0.11],
    [2790,363171,"Vazduh","Libelium","0004A30B0021DF70",44.979,16.7091,"","","Prijedor","",26486876,"2024-05-10T18:35:25",3,"NO ERROR",22.38,44.4,1002.42,0.12,0.32,0.48],
    [2791,363171,"Vazduh","Libelium","0004A30B0021DF70",44.979,16.7091,"","","Prijedor","",26487439,"2024-05-10T19:36:07",3,"NO ERROR",21.01,47.4,1002.52,0.19,0.27,0.28],
    [2792,363171,"Vazduh","Libelium","0004A30B0021DF70",44.979,16.7091,"","","Prijedor","",26487968,"2024-05-10T20:36:49",3,"NO ERROR",18.22,56.4,1002.94,0.11,0.21,4.36],
    [2793,363171,"Vazduh","Libelium","0004A30B0021DF70",44.979,16.7091,"","","Prijedor","",26488614,"2024-05-10T21:37:37",3,"NO ERROR",15.99,68.5,1003.85,0.31,0.48,0.5],
    [2794,363171,"Vazduh","Libelium","0004A30B0021DF70",44.979,16.7091,"","","Prijedor","",26489179,"2024-05-10T22:38:26",3,"NO ERROR",14.62,87.5,1004.15,0.47,0.85,0.89],
    [2795,363171,"Vazduh","Libelium","0004A30B0021DF70",44.979,16.7091,"","","Prijedor","",26489751,"2024-05-10T23:39:07",3,"NO ERROR",12.86,100,1004.33,0.07,0.08,0.08],
    [2796,363171,"Vazduh","Libelium","0004A30B0021DF70",44.979,16.7091,"","","Prijedor","",26490598,"2024-05-11T00:39:50",3,"NO ERROR",12.2,100,1004.42,0.19,0.21,0.21],
    [2797,363171,"Vazduh","Libelium","0004A30B0021DF70",44.979,16.7091,"","","Prijedor","",26491153,"2024-05-11T01:40:32",3,"NO ERROR",11.3,100,1004.46,0.04,0.07,0.07],
    [2798,363171,"Vazduh","Libelium","0004A30B0021DF70",44.979,16.7091,"","","Prijedor","",26491734,"2024-05-11T02:41:14",3,"NO ERROR",11.05,100,1004.28,0.18,0.3,0.42],
    [2799,363171,"Vazduh","Libelium","0004A30B0021DF70",44.979,16.7091,"","","Prijedor","",26492303,"2024-05-11T03:41:56",3,"NO ERROR",10.66,100,1004.27,0.17,0.24,0.24],
    [2800,363171,"Vazduh","Libelium","0004A30B0021DF70",44.979,16.7091,"","","Prijedor","",26492873,"2024-05-11T04:42:38",3,"NO ERROR",10.59,100,1004.3,0.24,0.39,0.41],
    [2801,363171,"Vazduh","Libelium","0004A30B0021DF70",44.979,16.7091,"","","Prijedor","",26493509,"2024-05-11T05:43:26",3,"NO ERROR",10.22,100,1004.41,0.09,0.1,0.1],
    [2802,363171,"Vazduh","Libelium","0004A30B0021DF70",44.979,16.7091,"","","Prijedor","",26494180,"2024-05-11T06:44:08",3,"NO ERROR",12.28,100,1004.67,0.05,0.08,0.08],
    [2803,363171,"Vazduh","Libelium","0004A30B0021DF70",44.979,16.7091,"","","Prijedor","",26494798,"2024-05-11T07:44:50",3,"NO ERROR",17.9,81.4,1004.87,0.34,0.54,0.57],
    [2804,363171,"Vazduh","Libelium","0004A30B0021DF70",44.979,16.7091,"","","Prijedor","",26495354,"2024-05-11T08:45:32",3,"NO ERROR",14.84,97.8,1005,0.06,0.08,0.08],
    [2805,363171,"Vazduh","Libelium","0004A30B0021DF70",44.979,16.7091,"","","Prijedor","",26495959,"2024-05-11T09:46:14",3,"NO ERROR",22.65,61.4,1004.86,0.16,0.35,0.73],
    [2806,363171,"Vazduh","Libelium","0004A30B0021DF70",44.979,16.7091,"","","Prijedor","",26496538,"2024-05-11T10:46:56",3,"NO ERROR",23.61,47,1004.46,0.13,0.17,0.17],
    [2807,363171,"Vazduh","Libelium","0004A30B0021DF70",44.979,16.7091,"","","Prijedor","",26497139,"2024-05-11T11:47:38",3,"NO ERROR",22.79,47,1004.37,0.1,0.15,0.15],
    [2808,363171,"Vazduh","Libelium","0004A30B0021DF70",44.979,16.7091,"","","Prijedor","",26497748,"2024-05-11T12:48:21",3,"NO ERROR",23.59,47.4,1003.94,0.12,0.15,0.15],
    [2809,363171,"Vazduh","Libelium","0004A30B0021DF70",44.979,16.7091,"","","Prijedor","",26498424,"2024-05-11T13:49:03",3,"NO ERROR",24.83,42.5,1003.41,0.15,0.22,0.24],
    [2810,363171,"Vazduh","Libelium","0004A30B0021DF70",44.979,16.7091,"","","Prijedor","",26499089,"2024-05-11T14:49:57",3,"NO ERROR",26.22,39.9,1003.17,0.15,0.2,0.2],
    [2811,363171,"Vazduh","Libelium","0004A30B0021DF70",44.979,16.7091,"","","Prijedor","",26499749,"2024-05-11T15:50:39",3,"NO ERROR",26.98,38,1002.71,0.25,0.4,0.4],
    [2812,363171,"Vazduh","Libelium","0004A30B0021DF70",44.979,16.7091,"","","Prijedor","",26500331,"2024-05-11T16:51:21",3,"NO ERROR",27.5,37.5,1002.37,0.1,0.15,0.15],
    [2813,363171,"Vazduh","Libelium","0004A30B0021DF70",44.979,16.7091,"","","Prijedor","",26500942,"2024-05-11T17:52:03",3,"NO ERROR",24.63,39.6,1002.07,0.11,0.12,0.12],
    [2814,363171,"Vazduh","Libelium","0004A30B0021DF70",44.979,16.7091,"","","Prijedor","",26501534,"2024-05-11T18:52:45",3,"NO ERROR",23.86,39.4,1002.2,0.09,0.13,0.13],
    [2815,363171,"Vazduh","Libelium","0004A30B0021DF70",44.979,16.7091,"","","Prijedor","",26502118,"2024-05-11T19:53:27",3,"NO ERROR",21.61,45.7,1002.31,0.18,0.25,0.26],
    [2816,363171,"Vazduh","Libelium","0004A30B0021DF70",44.979,16.7091,"","","Prijedor","",26502693,"2024-05-11T20:54:09",3,"NO ERROR",19.05,67.2,1002.57,0.22,0.26,0.26],
    [2817,363171,"Vazduh","Libelium","0004A30B0021DF70",44.979,16.7091,"","","Prijedor","",26503281,"2024-05-11T21:54:51",3,"NO ERROR",16.78,85.1,1002.98,0.16,0.32,0.36],
    [2818,363171,"Vazduh","Libelium","0004A30B0021DF70",44.979,16.7091,"","","Prijedor","",26503876,"2024-05-11T22:55:33",3,"NO ERROR",14.88,91.3,1003.46,0.24,0.34,0.36],
    [2819,363171,"Vazduh","Libelium","0004A30B0021DF70",44.979,16.7091,"","","Prijedor","",26504586,"2024-05-11T23:56:15",3,"NO ERROR",13.99,100,1003.61,0.11,0.12,0.12],
    [2820,363171,"Vazduh","Libelium","0004A30B0021DF70",44.979,16.7091,"","","Prijedor","",26505328,"2024-05-12T00:56:57",3,"NO ERROR",12.61,100,1003.63,0.23,0.36,0.45],
    [2821,363171,"Vazduh","Libelium","0004A30B0021DF70",44.979,16.7091,"","","Prijedor","",26505925,"2024-05-12T01:57:40",3,"NO ERROR",11.57,100,1003.66,0.28,0.43,0.44],
    [2822,363171,"Vazduh","Libelium","0004A30B0021DF70",44.979,16.7091,"","","Prijedor","",26506554,"2024-05-12T02:58:22",3,"NO ERROR",11.41,100,1003.47,0.1,0.13,0.13],
    [2823,363171,"Vazduh","Libelium","0004A30B0021DF70",44.979,16.7091,"","","Prijedor","",26507118,"2024-05-12T03:59:04",3,"NO ERROR",10.59,100,1003.43,0.08,0.11,0.11],
    [2824,363171,"Vazduh","Libelium","0004A30B0021DF70",44.979,16.7091,"","","Prijedor","",26507751,"2024-05-12T04:59:52",3,"NO ERROR",10.07,100,1003.31,0.3,0.36,0.36],
    [2825,363171,"Vazduh","Libelium","0004A30B0021DF70",44.979,16.7091,"","","Prijedor","",26508430,"2024-05-12T06:00:34",3,"NO ERROR",9.64,100,1003.74,0.19,0.24,0.24],
    [2826,363171,"Vazduh","Libelium","0004A30B0021DF70",44.979,16.7091,"","","Prijedor","",26509073,"2024-05-12T07:01:22",3,"NO ERROR",14.83,95.7,1003.98,0,0,0],
    [2827,363171,"Vazduh","Libelium","0004A30B0021DF70",44.979,16.7091,"","","Prijedor","",26509670,"2024-05-12T08:02:04",3,"NO ERROR",19.51,73.8,1004,0.18,0.2,0.2],
    [2828,363171,"Vazduh","Libelium","0004A30B0021DF70",44.979,16.7091,"","","Prijedor","",26510298,"2024-05-12T09:02:46",3,"NO ERROR",21.13,66.5,1003.8,0.4,0.47,0.47],
    [2829,363171,"Vazduh","Libelium","0004A30B0021DF70",44.979,16.7091,"","","Prijedor","",26510888,"2024-05-12T10:03:28",3,"NO ERROR",21.93,58.8,1003.51,0.22,0.33,0.35],
    [2830,363171,"Vazduh","Libelium","0004A30B0021DF70",44.979,16.7091,"","","Prijedor","",26511487,"2024-05-12T11:04:10",3,"NO ERROR",23.54,55.4,1003.24,0.1,0.13,0.13],
    [2831,363171,"Vazduh","Libelium","0004A30B0021DF70",44.979,16.7091,"","","Prijedor","",26512113,"2024-05-12T12:04:52",3,"NO ERROR",24.73,52.2,1002.86,0.12,0.19,0.21],
    [2832,363171,"Vazduh","Libelium","0004A30B0021DF70",44.979,16.7091,"","","Prijedor","",26512717,"2024-05-12T13:05:34",3,"NO ERROR",25.35,45,1002.32,0.06,0.14,0.37],
    [2833,363171,"Vazduh","Libelium","0004A30B0021DF70",44.979,16.7091,"","","Prijedor","",26513377,"2024-05-12T14:06:17",3,"NO ERROR",26.2,39.2,1002.05,0.23,0.37,0.38],
    [2834,363171,"Vazduh","Libelium","0004A30B0021DF70",44.979,16.7091,"","","Prijedor","",26514040,"2024-05-12T15:06:59",3,"NO ERROR",26.82,38.2,1001.55,0.06,0.09,0.09],
    [2835,363171,"Vazduh","Libelium","0004A30B0021DF70",44.979,16.7091,"","","Prijedor","",26514645,"2024-05-12T16:07:41",3,"NO ERROR",25.84,40,1001.26,0.08,0.09,0.09],
    [2836,363171,"Vazduh","Libelium","0004A30B0021DF70",44.979,16.7091,"","","Prijedor","",26515241,"2024-05-12T17:08:23",3,"NO ERROR",28.84,36.7,1000.83,0.1,0.1,0.1],
    [2837,363171,"Vazduh","Libelium","0004A30B0021DF70",44.979,16.7091,"","","Prijedor","",26515860,"2024-05-12T18:09:05",3,"NO ERROR",24.53,44,1000.69,0.07,0.11,0.11],
    [2838,363171,"Vazduh","Libelium","0004A30B0021DF70",44.979,16.7091,"","","Prijedor","",26516455,"2024-05-12T19:09:47",3,"NO ERROR",23.52,45.4,1000.92,0.06,0.08,0.09],
    [2839,363171,"Vazduh","Libelium","0004A30B0021DF70",44.979,16.7091,"","","Prijedor","",26517032,"2024-05-12T20:10:29",3,"NO ERROR",21.36,55.8,1001.75,0.05,0.06,0.06],
    [2840,363171,"Vazduh","Libelium","0004A30B0021DF70",44.979,16.7091,"","","Prijedor","",26517655,"2024-05-12T21:11:11",3,"NO ERROR",19.05,72.1,1002.2,0.27,0.44,0.46],
    [2841,363171,"Vazduh","Libelium","0004A30B0021DF70",44.979,16.7091,"","","Prijedor","",26518259,"2024-05-12T22:11:53",3,"NO ERROR",16.87,84.7,1002.56,0.08,0.13,0.14],
    [2842,363171,"Vazduh","Libelium","0004A30B0021DF70",44.979,16.7091,"","","Prijedor","",26518826,"2024-05-12T23:12:35",3,"NO ERROR",14.96,95.1,1002.68,0.02,0.02,0.02],
    [2843,363171,"Vazduh","Libelium","0004A30B0021DF70",44.979,16.7091,"","","Prijedor","",26519656,"2024-05-13T00:13:17",3,"NO ERROR",14.03,100,1002.78,0.14,0.22,0.22],
    [2844,363171,"Vazduh","Libelium","0004A30B0021DF70",44.979,16.7091,"","","Prijedor","",26520230,"2024-05-13T01:13:59",3,"NO ERROR",12.5,100,1002.61,0.28,0.4,0.4],
    [2845,363171,"Vazduh","Libelium","0004A30B0021DF70",44.979,16.7091,"","","Prijedor","",26520796,"2024-05-13T02:14:42",3,"NO ERROR",11.9,100,1002.65,0.1,0.14,0.14],
    [2846,363171,"Vazduh","Libelium","0004A30B0021DF70",44.979,16.7091,"","","Prijedor","",26521395,"2024-05-13T03:15:24",3,"NO ERROR",11.45,100,1002.72,0.17,0.26,0.26],
    [2847,363171,"Vazduh","Libelium","0004A30B0021DF70",44.979,16.7091,"","","Prijedor","",26521928,"2024-05-13T04:16:06",3,"NO ERROR",11,100,1002.64,0.17,0.21,0.21],
    [2848,363171,"Vazduh","Libelium","0004A30B0021DF70",44.979,16.7091,"","","Prijedor","",26522532,"2024-05-13T05:16:48",3,"NO ERROR",9.85,100,1002.96,0.24,0.29,0.29],
    [2849,363171,"Vazduh","Libelium","0004A30B0021DF70",44.979,16.7091,"","","Prijedor","",26523185,"2024-05-13T06:17:30",3,"NO ERROR",11.14,100,1002.95,0.35,0.42,0.42],
    [2850,363171,"Vazduh","Libelium","0004A30B0021DF70",44.979,16.7091,"","","Prijedor","",26523809,"2024-05-13T07:18:12",3,"NO ERROR",17.9,82.5,1002.95,0.15,0.2,0.21],
    [2851,363171,"Vazduh","Libelium","0004A30B0021DF70",44.979,16.7091,"","","Prijedor","",26524389,"2024-05-13T08:18:54",3,"NO ERROR",19.22,75.4,1003.08,0.24,0.39,0.5],
    [2852,363171,"Vazduh","Libelium","0004A30B0021DF70",44.979,16.7091,"","","Prijedor","",26525021,"2024-05-13T09:19:36",3,"NO ERROR",20.92,66.2,1002.82,0.25,0.57,1.17],
    [2853,363171,"Vazduh","Libelium","0004A30B0021DF70",44.979,16.7091,"","","Prijedor","",26525589,"2024-05-13T10:20:18",3,"NO ERROR",24.45,59.8,1002.47,0.43,0.91,1.19],
    [2854,363171,"Vazduh","Libelium","0004A30B0021DF70",44.979,16.7091,"","","Prijedor","",26526162,"2024-05-13T11:21:06",3,"NO ERROR",23.05,57.2,1001.89,0.08,0.09,0.09],
    [2855,363171,"Vazduh","Libelium","0004A30B0021DF70",44.979,16.7091,"","","Prijedor","",26526772,"2024-05-13T12:21:54",3,"NO ERROR",24.69,45.8,1001.28,0.01,0.11,0.19],
    [2856,363171,"Vazduh","Libelium","0004A30B0021DF70",44.979,16.7091,"","","Prijedor","",26527424,"2024-05-13T13:22:36",3,"NO ERROR",25.26,42.2,1000.57,0.06,0.08,0.09],
    [2857,363171,"Vazduh","Libelium","0004A30B0021DF70",44.979,16.7091,"","","Prijedor","",26528040,"2024-05-13T14:23:19",3,"NO ERROR",27.58,39.1,999.47,0.17,0.23,0.24],
    [2858,363171,"Vazduh","Libelium","0004A30B0021DF70",44.979,16.7091,"","","Prijedor","",26528696,"2024-05-13T15:24:01",3,"NO ERROR",27.91,37.2,999.01,0.05,0.1,0.11],
    [2859,363171,"Vazduh","Libelium","0004A30B0021DF70",44.979,16.7091,"","","Prijedor","",26529284,"2024-05-13T16:24:43",3,"NO ERROR",25.18,40.4,998.69,0.23,0.28,0.28],
    [2860,363171,"Vazduh","Libelium","0004A30B0021DF70",44.979,16.7091,"","","Prijedor","",26529871,"2024-05-13T17:25:25",3,"NO ERROR",24.38,39.9,998.54,0.25,0.3,0.3],
    [2861,363171,"Vazduh","Libelium","0004A30B0021DF70",44.979,16.7091,"","","Prijedor","",26530515,"2024-05-13T18:26:07",3,"NO ERROR",23.68,39.2,998.41,0.23,0.26,0.26],
    [2862,363171,"Vazduh","Libelium","0004A30B0021DF70",44.979,16.7091,"","","Prijedor","",26531096,"2024-05-13T19:26:49",3,"NO ERROR",21.18,59.9,998.48,0.15,0.19,0.19],
    [2863,363171,"Vazduh","Libelium","0004A30B0021DF70",44.979,16.7091,"","","Prijedor","",26531620,"2024-05-13T20:27:31",3,"NO ERROR",20.13,65,998.51,0.27,0.4,0.42],
    [2864,363171,"Vazduh","Libelium","0004A30B0021DF70",44.979,16.7091,"","","Prijedor","",26532279,"2024-05-13T21:28:19",3,"NO ERROR",19.53,71.3,998.67,0.31,0.37,0.37],
    [2865,363171,"Vazduh","Libelium","0004A30B0021DF70",44.979,16.7091,"","","Prijedor","",26532867,"2024-05-13T22:29:01",3,"NO ERROR",18.02,79.5,998.55,0.21,0.45,1.03],
    [2866,363171,"Vazduh","Libelium","0004A30B0021DF70",44.979,16.7091,"","","Prijedor","",26533464,"2024-05-13T23:29:43",3,"NO ERROR",18.02,84.2,998.36,0.36,0.51,0.52],
    [2867,363171,"Vazduh","Libelium","0004A30B0021DF70",44.979,16.7091,"","","Prijedor","",26534391,"2024-05-14T00:30:25",3,"NO ERROR",16.41,100,998.54,0.26,0.28,0.28],
    [2868,363171,"Vazduh","Libelium","0004A30B0021DF70",44.979,16.7091,"","","Prijedor","",26535077,"2024-05-14T01:31:07",3,"NO ERROR",15.38,100,998.45,0.26,0.32,0.32],
    [2869,363171,"Vazduh","Libelium","0004A30B0021DF70",44.979,16.7091,"","","Prijedor","",26535709,"2024-05-14T02:31:49",3,"NO ERROR",14.92,100,998.04,0.14,0.2,0.2],
    [2870,363171,"Vazduh","Libelium","0004A30B0021DF70",44.979,16.7091,"","","Prijedor","",26536350,"2024-05-14T03:32:32",3,"NO ERROR",14.5,100,998.14,0.23,0.26,0.26],
    [2871,363171,"Vazduh","Libelium","0004A30B0021DF70",44.979,16.7091,"","","Prijedor","",26536916,"2024-05-14T04:33:20",3,"NO ERROR",14.23,100,998.27,0.36,0.42,0.42],
    [2872,363171,"Vazduh","Libelium","0004A30B0021DF70",44.979,16.7091,"","","Prijedor","",26537564,"2024-05-14T05:34:02",3,"NO ERROR",14.24,100,998.39,0.31,0.4,0.41],
    [2873,363171,"Vazduh","Libelium","0004A30B0021DF70",44.979,16.7091,"","","Prijedor","",26538271,"2024-05-14T06:34:44",3,"NO ERROR",13.88,100,998.74,0.25,0.27,0.27],
    [2874,363171,"Vazduh","Libelium","0004A30B0021DF70",44.979,16.7091,"","","Prijedor","",26538901,"2024-05-14T07:35:26",3,"NO ERROR",14.16,100,998.66,0.25,0.43,0.55],
    [2875,363171,"Vazduh","Libelium","0004A30B0021DF70",44.979,16.7091,"","","Prijedor","",26539451,"2024-05-14T08:36:08",3,"NO ERROR",14.71,100,998.94,0.19,0.25,0.26],
    [2876,363171,"Vazduh","Libelium","0004A30B0021DF70",44.979,16.7091,"","","Prijedor","",26540048,"2024-05-14T09:36:50",3,"NO ERROR",15.21,100,999.09,0.22,0.23,0.23],
    [2877,363171,"Vazduh","Libelium","0004A30B0021DF70",44.979,16.7091,"","","Prijedor","",26540652,"2024-05-14T10:37:32",3,"NO ERROR",15.79,100,999.26,0.09,0.13,0.14],
    [2878,363171,"Vazduh","Libelium","0004A30B0021DF70",44.979,16.7091,"","","Prijedor","",26541212,"2024-05-14T11:38:14",3,"NO ERROR",16.64,100,999.12,0.17,0.26,0.34],
    [2879,363171,"Vazduh","Libelium","0004A30B0021DF70",44.979,16.7091,"","","Prijedor","",26541831,"2024-05-14T12:38:56",3,"NO ERROR",17.82,100,999.07,0.05,0.08,0.08],
    [2880,363171,"Vazduh","Libelium","0004A30B0021DF70",44.979,16.7091,"","","Prijedor","",26542445,"2024-05-14T13:39:44",3,"NO ERROR",18.8,91.2,998.76,0.07,0.07,0.07],
    [2881,363171,"Vazduh","Libelium","0004A30B0021DF70",44.979,16.7091,"","","Prijedor","",26543068,"2024-05-14T14:40:26",3,"NO ERROR",18.51,88.6,998.67,0.33,0.45,0.47],
    [2882,363171,"Vazduh","Libelium","0004A30B0021DF70",44.979,16.7091,"","","Prijedor","",26543710,"2024-05-14T15:41:08",3,"NO ERROR",19.21,84.3,998.24,0.06,0.07,0.07],
    [2883,363171,"Vazduh","Libelium","0004A30B0021DF70",44.979,16.7091,"","","Prijedor","",26544304,"2024-05-14T16:41:57",3,"NO ERROR",18.62,90.1,998.1,0.15,0.19,0.19],
    [2884,363171,"Vazduh","Libelium","0004A30B0021DF70",44.979,16.7091,"","","Prijedor","",26544868,"2024-05-14T17:42:39",3,"NO ERROR",18.15,88.1,998.04,0.13,0.14,0.14],
    [2885,363171,"Vazduh","Libelium","0004A30B0021DF70",44.979,16.7091,"","","Prijedor","",26545500,"2024-05-14T18:43:21",3,"NO ERROR",17.65,90.3,997.83,0.25,0.32,0.32],
    [2886,363171,"Vazduh","Libelium","0004A30B0021DF70",44.979,16.7091,"","","Prijedor","",26546060,"2024-05-14T19:44:03",3,"NO ERROR",17.04,94.6,998.18,0.15,0.2,0.21],
    [2887,363171,"Vazduh","Libelium","0004A30B0021DF70",44.979,16.7091,"","","Prijedor","",26546584,"2024-05-14T20:44:45",3,"NO ERROR",15.48,100,998.43,0.14,0.18,0.18],
    [2888,363171,"Vazduh","Libelium","0004A30B0021DF70",44.979,16.7091,"","","Prijedor","",26547208,"2024-05-14T21:45:33",3,"NO ERROR",13.56,100,998.67,0.2,0.33,0.41],
    [2889,363171,"Vazduh","Libelium","0004A30B0021DF70",44.979,16.7091,"","","Prijedor","",26547826,"2024-05-14T22:46:15",3,"NO ERROR",12.37,100,998.71,0.48,0.58,0.58],
    [2890,363171,"Vazduh","Libelium","0004A30B0021DF70",44.979,16.7091,"","","Prijedor","",26548427,"2024-05-14T23:46:57",3,"NO ERROR",11.27,100,998.81,0.77,0.84,0.84],
    [2891,363171,"Vazduh","Libelium","0004A30B0021DF70",44.979,16.7091,"","","Prijedor","",26549358,"2024-05-15T00:47:39",3,"NO ERROR",11.23,100,998.64,0.33,0.4,0.4],
    [2892,363171,"Vazduh","Libelium","0004A30B0021DF70",44.979,16.7091,"","","Prijedor","",26550032,"2024-05-15T01:48:21",3,"NO ERROR",11.31,100,998.73,0.07,0.07,0.07],
    [2893,363171,"Vazduh","Libelium","0004A30B0021DF70",44.979,16.7091,"","","Prijedor","",26550722,"2024-05-15T02:49:03",3,"NO ERROR",11,100,998.43,1.05,1.29,1.31],
    [2894,363171,"Vazduh","Libelium","0004A30B0021DF70",44.979,16.7091,"","","Prijedor","",26551393,"2024-05-15T03:49:45",3,"NO ERROR",11.71,100,998.12,1.57,1.81,2.09],
    [2895,363171,"Vazduh","Libelium","0004A30B0021DF70",44.979,16.7091,"","","Prijedor","",26552054,"2024-05-15T04:50:34",3,"NO ERROR",11.76,100,998.2,1.38,1.66,1.74],
    [2896,363171,"Vazduh","Libelium","0004A30B0021DF70",44.979,16.7091,"","","Prijedor","",26552759,"2024-05-15T05:51:16",3,"NO ERROR",12.23,100,998.2,0.08,0.09,0.09],
    [2897,363171,"Vazduh","Libelium","0004A30B0021DF70",44.979,16.7091,"","","Prijedor","",26553401,"2024-05-15T06:51:58",3,"NO ERROR",15.02,100,998.51,0.02,0.02,0.02],
    [2898,363171,"Vazduh","Libelium","0004A30B0021DF70",44.979,16.7091,"","","Prijedor","",26554032,"2024-05-15T07:52:40",3,"NO ERROR",16.53,99.6,998.48,0,0,0],
    [2899,363171,"Vazduh","Libelium","0004A30B0021DF70",44.979,16.7091,"","","Prijedor","",26554633,"2024-05-15T08:53:22",3,"NO ERROR",15.01,100,998.85,0.09,0.16,0.16],
    [2900,363171,"Vazduh","Libelium","0004A30B0021DF70",44.979,16.7091,"","","Prijedor","",26555191,"2024-05-15T09:54:04",3,"NO ERROR",18.4,91,998.68,0.08,0.28,1.04],
    [2901,363171,"Vazduh","Libelium","0004A30B0021DF70",44.979,16.7091,"","","Prijedor","",26555777,"2024-05-15T10:54:46",3,"NO ERROR",21.85,74.1,998.59,0.17,0.23,0.23],
    [2902,363171,"Vazduh","Libelium","0004A30B0021DF70",44.979,16.7091,"","","Prijedor","",26556362,"2024-05-15T11:55:28",3,"NO ERROR",21.33,72.9,998.62,0.09,0.13,0.14],
    [2903,363171,"Vazduh","Libelium","0004A30B0021DF70",44.979,16.7091,"","","Prijedor","",26556992,"2024-05-15T12:56:10",3,"NO ERROR",22.5,67.7,998.19,0.05,0.08,0.08],
    [2904,363171,"Vazduh","Libelium","0004A30B0021DF70",44.979,16.7091,"","","Prijedor","",26557637,"2024-05-15T13:56:58",3,"NO ERROR",22.33,62.5,997.92,0.02,0.02,0.02],
    [2905,363171,"Vazduh","Libelium","0004A30B0021DF70",44.979,16.7091,"","","Prijedor","",26558312,"2024-05-15T14:57:40",3,"NO ERROR",23.84,60.9,997.34,0.07,0.14,0.14],
    [2906,363171,"Vazduh","Libelium","0004A30B0021DF70",44.979,16.7091,"","","Prijedor","",26558934,"2024-05-15T15:58:28",3,"NO ERROR",23.3,63.4,996.85,0.07,0.12,0.12],
    [2907,363171,"Vazduh","Libelium","0004A30B0021DF70",44.979,16.7091,"","","Prijedor","",26559550,"2024-05-15T16:59:17",3,"NO ERROR",22.45,66.4,996.9,0.05,0.05,0.05],
    [2908,363171,"Vazduh","Libelium","0004A30B0021DF70",44.979,16.7091,"","","Prijedor","",26560156,"2024-05-15T17:59:58",3,"NO ERROR",22.17,68.5,996.63,0.3,0.4,0.4],
    [2909,363171,"Vazduh","Libelium","0004A30B0021DF70",44.979,16.7091,"","","Prijedor","",26560783,"2024-05-15T19:00:41",3,"NO ERROR",21.24,69.8,996.83,0.38,0.64,0.76],
    [2910,363171,"Vazduh","Libelium","0004A30B0021DF70",44.979,16.7091,"","","Prijedor","",26561348,"2024-05-15T20:01:29",3,"NO ERROR",20.35,80.4,996.63,0.17,0.22,0.23],
    [2911,363171,"Vazduh","Libelium","0004A30B0021DF70",44.979,16.7091,"","","Prijedor","",26561928,"2024-05-15T21:02:11",3,"NO ERROR",18.64,99.9,997.2,0.54,0.62,0.62],
    [2912,363171,"Vazduh","Libelium","0004A30B0021DF70",44.979,16.7091,"","","Prijedor","",26562532,"2024-05-15T22:02:53",3,"NO ERROR",18.21,95.5,997.51,0.18,0.22,0.22],
    [2913,363171,"Vazduh","Libelium","0004A30B0021DF70",44.979,16.7091,"","","Prijedor","",26563133,"2024-05-15T23:03:35",3,"NO ERROR",17.39,100,997.37,0.16,0.18,0.18],
    [2914,363171,"Vazduh","Libelium","0004A30B0021DF70",44.979,16.7091,"","","Prijedor","",26563912,"2024-05-16T00:04:17",3,"NO ERROR",16.07,100,997.34,0.15,0.22,0.28],
    [2915,363171,"Vazduh","Libelium","0004A30B0021DF70",44.979,16.7091,"","","Prijedor","",26564564,"2024-05-16T01:05:05",3,"NO ERROR",14.78,100,997.1,0.32,0.47,0.5],
    [2916,363171,"Vazduh","Libelium","0004A30B0021DF70",44.979,16.7091,"","","Prijedor","",26565134,"2024-05-16T02:05:53",3,"NO ERROR",13.94,100,996.82,0.38,0.54,0.57],
    [2917,363171,"Vazduh","Libelium","0004A30B0021DF70",44.979,16.7091,"","","Prijedor","",26565726,"2024-05-16T03:06:41",3,"NO ERROR",13.61,100,996.54,0.29,0.31,0.31],
    [2918,363171,"Vazduh","Libelium","0004A30B0021DF70",44.979,16.7091,"","","Prijedor","",26566272,"2024-05-16T04:07:29",3,"NO ERROR",13.3,100,996.63,0.07,0.07,0.07],
    [2919,363171,"Vazduh","Libelium","0004A30B0021DF70",44.979,16.7091,"","","Prijedor","",26566882,"2024-05-16T05:08:18",3,"NO ERROR",13.25,100,996.78,0.28,0.31,0.31],
    [2920,363171,"Vazduh","Libelium","0004A30B0021DF70",44.979,16.7091,"","","Prijedor","",26567586,"2024-05-16T06:08:59",3,"NO ERROR",13.97,100,996.59,0.21,0.24,0.24],
    [2921,363171,"Vazduh","Libelium","0004A30B0021DF70",44.979,16.7091,"","","Prijedor","",26568244,"2024-05-16T07:09:41",3,"NO ERROR",14.53,100,996.97,0.28,0.47,0.5],
    [2922,363171,"Vazduh","Libelium","0004A30B0021DF70",44.979,16.7091,"","","Prijedor","",26568818,"2024-05-16T08:10:24",3,"NO ERROR",16.57,100,997,0.08,0.13,0.13],
    [2923,363171,"Vazduh","Libelium","0004A30B0021DF70",44.979,16.7091,"","","Prijedor","",26569409,"2024-05-16T09:11:06",3,"NO ERROR",18.68,99.1,996.7,0.05,0.06,0.06],
    [2924,363171,"Vazduh","Libelium","0004A30B0021DF70",44.979,16.7091,"","","Prijedor","",26569968,"2024-05-16T10:11:48",3,"NO ERROR",19.84,92.4,996.26,0.38,0.73,2.36],
    [2925,363171,"Vazduh","Libelium","0004A30B0021DF70",44.979,16.7091,"","","Prijedor","",26570426,"2024-05-16T11:12:30",3,"NO ERROR",21.16,87.3,995.88,0.28,0.51,0.61],
    [2926,363171,"Vazduh","Libelium","0004A30B0021DF70",44.979,16.7091,"","","Prijedor","",26570883,"2024-05-16T12:13:12",3,"NO ERROR",22.78,79.4,995.24,0.11,0.16,0.16],
    [2927,363171,"Vazduh","Libelium","0004A30B0021DF70",44.979,16.7091,"","","Prijedor","",26571387,"2024-05-16T13:13:54",3,"NO ERROR",24.91,67.6,994.78,0.21,0.32,0.4],
    [2928,363171,"Vazduh","Libelium","0004A30B0021DF70",44.979,16.7091,"","","Prijedor","",26572145,"2024-05-16T14:14:36",3,"NO ERROR",24.46,63.7,994.3,0.22,0.44,0.89],
    [2929,363171,"Vazduh","Libelium","0004A30B0021DF70",44.979,16.7091,"","","Prijedor","",26572979,"2024-05-16T15:15:18",3,"NO ERROR",23.1,71.8,994.18,0.08,0.09,0.09],
    [2930,363171,"Vazduh","Libelium","0004A30B0021DF70",44.979,16.7091,"","","Prijedor","",26573704,"2024-05-16T16:16:00",3,"NO ERROR",26.04,62,993.22,0.18,0.28,0.3],
    [2931,363171,"Vazduh","Libelium","0004A30B0021DF70",44.979,16.7091,"","","Prijedor","",26574419,"2024-05-16T17:16:42",3,"NO ERROR",23.68,69.1,992.65,0.09,0.12,0.12],
    [2932,363171,"Vazduh","Libelium","0004A30B0021DF70",44.979,16.7091,"","","Prijedor","",26575149,"2024-05-16T18:17:30",3,"NO ERROR",23.12,72.4,991.78,0.32,0.4,0.4],
    [2933,363171,"Vazduh","Libelium","0004A30B0021DF70",44.979,16.7091,"","","Prijedor","",26575839,"2024-05-16T19:18:12",3,"NO ERROR",22.91,72.5,990.8,0.21,0.37,0.48],
    [2934,363171,"Vazduh","Libelium","0004A30B0021DF70",44.979,16.7091,"","","Prijedor","",26576489,"2024-05-16T20:18:54",3,"NO ERROR",21.43,83.6,990.78,0.49,0.74,0.92],
    [2935,363171,"Vazduh","Libelium","0004A30B0021DF70",44.979,16.7091,"","","Prijedor","",26577169,"2024-05-16T21:19:37",3,"NO ERROR",19.56,99.3,991.11,0.59,0.77,0.78],
    [2936,363171,"Vazduh","Libelium","0004A30B0021DF70",44.979,16.7091,"","","Prijedor","",26577830,"2024-05-16T22:20:19",3,"NO ERROR",19.07,100,990.54,0.16,0.24,2.18],
    [2937,363171,"Vazduh","Libelium","0004A30B0021DF70",44.979,16.7091,"","","Prijedor","",26578475,"2024-05-16T23:21:07",3,"NO ERROR",18.63,100,989.91,0.24,0.28,0.28],
    [2938,363171,"Vazduh","Libelium","0004A30B0021DF70",44.979,16.7091,"","","Prijedor","",26579476,"2024-05-17T00:21:49",3,"NO ERROR",17.66,100,990.02,0.64,0.77,0.77],
    [2939,363171,"Vazduh","Libelium","0004A30B0021DF70",44.979,16.7091,"","","Prijedor","",26580207,"2024-05-17T01:22:31",3,"NO ERROR",17.04,100,990.19,0.47,0.61,0.63],
    [2940,363171,"Vazduh","Libelium","0004A30B0021DF70",44.979,16.7091,"","","Prijedor","",26580917,"2024-05-17T02:23:13",3,"NO ERROR",16.6,100,991.04,0.47,0.54,0.54],
    [2941,363171,"Vazduh","Libelium","0004A30B0021DF70",44.979,16.7091,"","","Prijedor","",26581633,"2024-05-17T03:23:55",3,"NO ERROR",15.43,100,991.64,2.44,3.01,3.04],
    [2942,363171,"Vazduh","Libelium","0004A30B0021DF70",44.979,16.7091,"","","Prijedor","",26582354,"2024-05-17T04:24:37",3,"NO ERROR",15.4,100,992.04,2,2.34,2.36],
    [2943,363171,"Vazduh","Libelium","0004A30B0021DF70",44.979,16.7091,"","","Prijedor","",26583128,"2024-05-17T05:25:25",3,"NO ERROR",15.65,100,992.58,2.12,2.51,2.62],
    [2944,363171,"Vazduh","Libelium","0004A30B0021DF70",44.979,16.7091,"","","Prijedor","",26583915,"2024-05-17T06:26:07",3,"NO ERROR",15.74,100,993.3,2,2.39,2.39],
    [2945,363171,"Vazduh","Libelium","0004A30B0021DF70",44.979,16.7091,"","","Prijedor","",26584728,"2024-05-17T07:26:49",3,"NO ERROR",17.25,100,993.66,0.65,0.82,0.83],
    [2946,363171,"Vazduh","Libelium","0004A30B0021DF70",44.979,16.7091,"","","Prijedor","",26585384,"2024-05-17T08:27:37",3,"NO ERROR",20.82,100,993.94,0.47,0.63,0.63],
    [2947,363171,"Vazduh","Libelium","0004A30B0021DF70",44.979,16.7091,"","","Prijedor","",26586071,"2024-05-17T09:28:19",3,"NO ERROR",24.23,89.9,994.54,0.57,0.87,1.29],
    [2948,363171,"Vazduh","Libelium","0004A30B0021DF70",44.979,16.7091,"","","Prijedor","",26586748,"2024-05-17T10:29:02",3,"NO ERROR",23.3,83.1,994.78,0.52,0.62,0.62],
    [2949,363171,"Vazduh","Libelium","0004A30B0021DF70",44.979,16.7091,"","","Prijedor","",26587367,"2024-05-17T11:29:44",3,"NO ERROR",24.82,65.2,995.05,0.3,0.36,0.36],
    [2950,363171,"Vazduh","Libelium","0004A30B0021DF70",44.979,16.7091,"","","Prijedor","",26588052,"2024-05-17T12:30:26",3,"NO ERROR",26.64,44.9,995.3,0.09,0.11,0.11],
    [2951,363171,"Vazduh","Libelium","0004A30B0021DF70",44.979,16.7091,"","","Prijedor","",26588819,"2024-05-17T13:31:08",3,"NO ERROR",27.39,40,995.27,0.11,0.12,0.12],
    [2952,363171,"Vazduh","Libelium","0004A30B0021DF70",44.979,16.7091,"","","Prijedor","",26589510,"2024-05-17T14:31:50",3,"NO ERROR",28.13,37,995.52,0.06,0.12,0.16],
    [2953,363171,"Vazduh","Libelium","0004A30B0021DF70",44.979,16.7091,"","","Prijedor","",26590249,"2024-05-17T15:32:32",3,"NO ERROR",29.84,34.7,995.32,0.12,0.23,0.3],
    [2954,363171,"Vazduh","Libelium","0004A30B0021DF70",44.979,16.7091,"","","Prijedor","",26590935,"2024-05-17T16:33:14",3,"NO ERROR",29.98,33.6,995.22,0.13,0.23,0.24],
    [2955,363171,"Vazduh","Libelium","0004A30B0021DF70",44.979,16.7091,"","","Prijedor","",26591608,"2024-05-17T17:33:56",3,"NO ERROR",26.54,35.5,995.38,0.08,0.1,0.1],
    [2956,363171,"Vazduh","Libelium","0004A30B0021DF70",44.979,16.7091,"","","Prijedor","",26592332,"2024-05-17T18:34:38",3,"NO ERROR",25.06,36.7,995.58,0.24,0.28,0.29],
    [2957,363171,"Vazduh","Libelium","0004A30B0021DF70",44.979,16.7091,"","","Prijedor","",26592998,"2024-05-17T19:35:20",3,"NO ERROR",22.71,39.4,996.18,0.08,0.11,0.11],
    [2958,363171,"Vazduh","Libelium","0004A30B0021DF70",44.979,16.7091,"","","Prijedor","",26593614,"2024-05-17T20:36:02",3,"NO ERROR",20.43,45.6,996.68,0.24,0.43,0.57],
    [2959,363171,"Vazduh","Libelium","0004A30B0021DF70",44.979,16.7091,"","","Prijedor","",26594271,"2024-05-17T21:36:44",3,"NO ERROR",17.49,62.8,997.49,0.11,0.24,0.29],
    [2960,363171,"Vazduh","Libelium","0004A30B0021DF70",44.979,16.7091,"","","Prijedor","",26594938,"2024-05-17T22:37:27",3,"NO ERROR",15.18,77.3,998.19,0.17,0.22,0.22],
    [2961,363171,"Vazduh","Libelium","0004A30B0021DF70",44.979,16.7091,"","","Prijedor","",26595603,"2024-05-17T23:38:15",3,"NO ERROR",13.99,87.7,998.86,0.09,0.12,0.12],
    [2962,363171,"Vazduh","Libelium","0004A30B0021DF70",44.979,16.7091,"","","Prijedor","",26596519,"2024-05-18T00:38:57",3,"NO ERROR",13.69,93.4,999.09,0.09,0.13,0.14],
    [2963,363171,"Vazduh","Libelium","0004A30B0021DF70",44.979,16.7091,"","","Prijedor","",26597190,"2024-05-18T01:39:39",3,"NO ERROR",12.63,100,998.97,0.25,0.35,0.36],
    [2964,363171,"Vazduh","Libelium","0004A30B0021DF70",44.979,16.7091,"","","Prijedor","",26597856,"2024-05-18T02:40:21",3,"NO ERROR",12.68,100,999.08,0.17,0.22,0.22],
    [2965,363171,"Vazduh","Libelium","0004A30B0021DF70",44.979,16.7091,"","","Prijedor","",26598529,"2024-05-18T03:41:03",3,"NO ERROR",12.12,100,999.12,0.16,0.28,0.35],
    [2966,363171,"Vazduh","Libelium","0004A30B0021DF70",44.979,16.7091,"","","Prijedor","",26599187,"2024-05-18T04:41:45",3,"NO ERROR",11.66,100,999.48,0.21,0.46,0.61],
    [2967,363171,"Vazduh","Libelium","0004A30B0021DF70",44.979,16.7091,"","","Prijedor","",26599920,"2024-05-18T05:42:27",3,"NO ERROR",11.15,100,999.75,0.35,0.42,0.42],
    [2968,363171,"Vazduh","Libelium","0004A30B0021DF70",44.979,16.7091,"","","Prijedor","",26600608,"2024-05-18T06:43:09",3,"NO ERROR",14.22,97.7,1000.02,0.03,0.03,0.03],
    [2969,363171,"Vazduh","Libelium","0004A30B0021DF70",44.979,16.7091,"","","Prijedor","",26601224,"2024-05-18T07:43:51",3,"NO ERROR",19.5,69.4,999.81,0.18,0.34,0.45],
    [2970,363171,"Vazduh","Libelium","0004A30B0021DF70",44.979,16.7091,"","","Prijedor","",26601824,"2024-05-18T08:44:39",3,"NO ERROR",23.77,54.6,999.98,0.15,0.19,0.19],
    [2971,363171,"Vazduh","Libelium","0004A30B0021DF70",44.979,16.7091,"","","Prijedor","",26602411,"2024-05-18T09:45:21",3,"NO ERROR",25.34,47,999.35,0.11,0.2,0.22],
    [2972,363171,"Vazduh","Libelium","0004A30B0021DF70",44.979,16.7091,"","","Prijedor","",26603005,"2024-05-18T10:46:03",3,"NO ERROR",27.2,46.5,999.06,0.33,0.48,0.92],
    [2973,363171,"Vazduh","Libelium","0004A30B0021DF70",44.979,16.7091,"","","Prijedor","",26603654,"2024-05-18T11:46:46",3,"NO ERROR",25.98,46.1,998.56,0.07,0.1,0.1],
    [2974,363171,"Vazduh","Libelium","0004A30B0021DF70",44.979,16.7091,"","","Prijedor","",26604263,"2024-05-18T12:47:28",3,"NO ERROR",26.21,41.5,998.14,0.22,0.24,0.24],
    [2975,363171,"Vazduh","Libelium","0004A30B0021DF70",44.979,16.7091,"","","Prijedor","",26604925,"2024-05-18T13:48:10",3,"NO ERROR",28.2,39.2,997.45,0.1,0.14,0.14],
    [2976,363171,"Vazduh","Libelium","0004A30B0021DF70",44.979,16.7091,"","","Prijedor","",26605591,"2024-05-18T14:48:52",3,"NO ERROR",30.87,36,996.91,0.13,0.22,0.23],
    [2977,363171,"Vazduh","Libelium","0004A30B0021DF70",44.979,16.7091,"","","Prijedor","",26606249,"2024-05-18T15:49:34",3,"NO ERROR",29.86,38,996.62,0.08,0.12,0.14],
    [2978,363171,"Vazduh","Libelium","0004A30B0021DF70",44.979,16.7091,"","","Prijedor","",26606894,"2024-05-18T16:50:16",3,"NO ERROR",30.57,38.1,996.23,0.3,0.41,0.5],
    [2979,363171,"Vazduh","Libelium","0004A30B0021DF70",44.979,16.7091,"","","Prijedor","",26607536,"2024-05-18T17:50:58",3,"NO ERROR",28.98,39.8,995.91,0.07,0.09,0.09],
    [2980,363171,"Vazduh","Libelium","0004A30B0021DF70",44.979,16.7091,"","","Prijedor","",26608135,"2024-05-18T18:51:40",3,"NO ERROR",27.64,43,996.06,0.15,0.26,0.28],
    [2981,363171,"Vazduh","Libelium","0004A30B0021DF70",44.979,16.7091,"","","Prijedor","",26709371,"2024-05-25T03:39:04",3,"NO ERROR",13.51,100,1002.57,0.62,0.82,0.83],
    [2982,363171,"Vazduh","Libelium","0004A30B0021DF70",44.979,16.7091,"","","Prijedor","",26710068,"2024-05-25T04:39:46",3,"NO ERROR",12.92,100,1002.76,0.09,0.17,0.18],
    [2983,363171,"Vazduh","Libelium","0004A30B0021DF70",44.979,16.7091,"","","Prijedor","",26710858,"2024-05-25T05:40:28",3,"NO ERROR",12.8,100,1002.89,0.12,0.16,0.16],
    [2984,363171,"Vazduh","Libelium","0004A30B0021DF70",44.979,16.7091,"","","Prijedor","",26711610,"2024-05-25T06:41:10",3,"NO ERROR",15.18,100,1002.88,0.09,0.14,0.15],
    [2985,363171,"Vazduh","Libelium","0004A30B0021DF70",44.979,16.7091,"","","Prijedor","",26712329,"2024-05-25T07:41:53",3,"NO ERROR",15.56,100,1002.71,0.09,0.14,0.15],
    [2986,363171,"Vazduh","Libelium","0004A30B0021DF70",44.979,16.7091,"","","Prijedor","",26713010,"2024-05-25T08:42:41",3,"NO ERROR",17.44,100,1002.56,0.02,0.14,0.22],
    [2987,363171,"Vazduh","Libelium","0004A30B0021DF70",44.979,16.7091,"","","Prijedor","",26713642,"2024-05-25T09:43:23",3,"NO ERROR",23.23,70.5,1002.25,0.1,0.17,0.19],
    [2988,363171,"Vazduh","Libelium","0004A30B0021DF70",44.979,16.7091,"","","Prijedor","",26714288,"2024-05-25T10:44:05",3,"NO ERROR",23.53,75.3,1001.77,0.07,0.07,0.07],
    [2989,363171,"Vazduh","Libelium","0004A30B0021DF70",44.979,16.7091,"","","Prijedor","",26714949,"2024-05-25T11:44:47",3,"NO ERROR",24.83,69.3,1001.53,0.07,0.11,0.12],
    [2990,363171,"Vazduh","Libelium","0004A30B0021DF70",44.979,16.7091,"","","Prijedor","",26715592,"2024-05-25T12:45:29",3,"NO ERROR",25.66,72.9,1001.17,0.36,0.53,0.63],
    [2991,363171,"Vazduh","Libelium","0004A30B0021DF70",44.979,16.7091,"","","Prijedor","",26716294,"2024-05-25T13:46:11",3,"NO ERROR",25.61,72.4,1000.56,0.21,0.45,0.82],
    [2992,363171,"Vazduh","Libelium","0004A30B0021DF70",44.979,16.7091,"","","Prijedor","",26717035,"2024-05-25T14:46:53",3,"NO ERROR",26.46,68.4,999.74,0.09,0.12,0.12],
    [2993,363171,"Vazduh","Libelium","0004A30B0021DF70",44.979,16.7091,"","","Prijedor","",26717699,"2024-05-25T15:47:35",3,"NO ERROR",28.53,52,999.16,0.12,0.17,0.18],
    [2994,363171,"Vazduh","Libelium","0004A30B0021DF70",44.979,16.7091,"","","Prijedor","",26718349,"2024-05-25T16:48:17",3,"NO ERROR",24.62,65.7,999.17,0.21,0.38,0.69],
    [2995,363171,"Vazduh","Libelium","0004A30B0021DF70",44.979,16.7091,"","","Prijedor","",26719050,"2024-05-25T17:48:59",3,"NO ERROR",20.78,100,999.82,0.24,0.45,0.54],
    [2996,363171,"Vazduh","Libelium","0004A30B0021DF70",44.979,16.7091,"","","Prijedor","",26719671,"2024-05-25T18:49:41",3,"NO ERROR",17.64,100,999.78,0.08,0.1,0.1],
    [2997,363171,"Vazduh","Libelium","0004A30B0021DF70",44.979,16.7091,"","","Prijedor","",26720283,"2024-05-25T19:50:23",3,"NO ERROR",17.62,100,1000.13,0.08,0.09,0.09],
    [2998,363171,"Vazduh","Libelium","0004A30B0021DF70",44.979,16.7091,"","","Prijedor","",26720920,"2024-05-25T20:51:05",3,"NO ERROR",16.73,100,1000.79,0.04,0.07,0.07],
    [2999,363171,"Vazduh","Libelium","0004A30B0021DF70",44.979,16.7091,"","","Prijedor","",26721578,"2024-05-25T21:51:48",3,"NO ERROR",17.37,100,1001,0.18,0.36,0.47],
    [3000,363171,"Vazduh","Libelium","0004A30B0021DF70",44.979,16.7091,"","","Prijedor","",26722258,"2024-05-25T22:52:30",3,"NO ERROR",17.19,100,1000.78,0.13,0.15,0.15],
    [3001,363171,"Vazduh","Libelium","0004A30B0021DF70",44.979,16.7091,"","","Prijedor","",26722993,"2024-05-25T23:53:12",3,"NO ERROR",16.51,100,1000.74,0.3,0.52,0.55],
    [3002,363171,"Vazduh","Libelium","0004A30B0021DF70",44.979,16.7091,"","","Prijedor","",26740809,"2024-05-27T02:11:56",3,"NO ERROR",14.83,100,1005.3,1.7,2.04,2.41],
    [3003,363171,"Vazduh","Libelium","0004A30B0021DF70",44.979,16.7091,"","","Prijedor","",26741479,"2024-05-27T03:12:38",3,"NO ERROR",15.13,100,1004.97,0.31,0.35,0.35],
    [3004,363171,"Vazduh","Libelium","0004A30B0021DF70",44.979,16.7091,"","","Prijedor","",26742102,"2024-05-27T04:13:20",3,"NO ERROR",14.75,100,1004.82,1.29,1.73,32.21],
    [3005,363171,"Vazduh","Libelium","0004A30B0021DF70",44.979,16.7091,"","","Prijedor","",26742807,"2024-05-27T05:14:02",3,"NO ERROR",15.03,100,1004.95,0.46,0.57,0.58],
    [3006,363171,"Vazduh","Libelium","0004A30B0021DF70",44.979,16.7091,"","","Prijedor","",26743584,"2024-05-27T06:14:44",3,"NO ERROR",14.94,100,1005.28,0.37,0.39,0.39],
    [3007,363171,"Vazduh","Libelium","0004A30B0021DF70",44.979,16.7091,"","","Prijedor","",26744246,"2024-05-27T07:15:26",3,"NO ERROR",15.87,100,1005.54,0.02,0.02,0.02],
    [3008,363171,"Vazduh","Libelium","0004A30B0021DF70",44.979,16.7091,"","","Prijedor","",26744956,"2024-05-27T08:16:20",3,"NO ERROR",17,100,1005.79,0.03,0.05,0.05],
    [3009,363171,"Vazduh","Libelium","0004A30B0021DF70",44.979,16.7091,"","","Prijedor","",26745657,"2024-05-27T09:17:02",3,"NO ERROR",19.29,100,1005.7,0.06,0.07,0.07],
    [3010,363171,"Vazduh","Libelium","0004A30B0021DF70",44.979,16.7091,"","","Prijedor","",26746548,"2024-05-27T10:28:34",3,"NO ERROR",21.97,83.6,1005.19,0.43,0.52,0.52],
    [3011,363171,"Vazduh","Libelium","0004A30B0021DF70",44.979,16.7091,"","","Prijedor","",26746545,"2024-05-27T10:28:34",3,"NO ERROR",21.97,83.6,1005.19,0.43,0.52,0.52],
    [3012,363171,"Vazduh","Libelium","0004A30B0021DF70",44.979,16.7091,"","","Prijedor","",26746307,"2024-05-27T10:18:09",3,"NO ERROR",21.97,83.6,1005.19,0.43,0.52,0.52],
    [3013,363171,"Vazduh","Libelium","0004A30B0021DF70",44.979,16.7091,"","","Prijedor","",26747213,"2024-05-27T11:18:26",3,"NO ERROR",22.75,86.8,1005.04,0.12,0.16,0.16],
    [3014,363171,"Vazduh","Libelium","0004A30B0021DF70",44.979,16.7091,"","","Prijedor","",26747868,"2024-05-27T12:19:08",3,"NO ERROR",24.31,77.2,1004.35,0.08,0.11,0.12],
    [3015,363171,"Vazduh","Libelium","0004A30B0021DF70",44.979,16.7091,"","","Prijedor","",26748543,"2024-05-27T13:19:51",3,"NO ERROR",25.27,72.9,1003.81,0.17,0.18,0.18],
    [3016,363171,"Vazduh","Libelium","0004A30B0021DF70",44.979,16.7091,"","","Prijedor","",26749247,"2024-05-27T14:20:33",3,"NO ERROR",26.9,63.8,1002.9,0.12,0.34,0.55],
    [3017,363171,"Vazduh","Libelium","0004A30B0021DF70",44.979,16.7091,"","","Prijedor","",26749944,"2024-05-27T15:21:15",3,"NO ERROR",29.26,54.7,1002.2,0.12,0.17,0.17],
    [3018,363171,"Vazduh","Libelium","0004A30B0021DF70",44.979,16.7091,"","","Prijedor","",26750556,"2024-05-27T16:21:57",3,"NO ERROR",26.26,59.7,1001.54,0.25,0.38,0.39],
    [3019,363171,"Vazduh","Libelium","0004A30B0021DF70",44.979,16.7091,"","","Prijedor","",26751168,"2024-05-27T17:22:39",3,"NO ERROR",25.37,60.1,1001.53,0.13,0.22,0.23],
    [3020,363171,"Vazduh","Libelium","0004A30B0021DF70",44.979,16.7091,"","","Prijedor","",26751820,"2024-05-27T18:23:21",3,"NO ERROR",24.11,67.2,1001.31,0.21,0.26,0.26],
    [3021,363171,"Vazduh","Libelium","0004A30B0021DF70",44.979,16.7091,"","","Prijedor","",26752394,"2024-05-27T19:24:03",3,"NO ERROR",22.18,79.1,1001.58,0.13,0.16,0.17],
    [3022,363171,"Vazduh","Libelium","0004A30B0021DF70",44.979,16.7091,"","","Prijedor","",26752952,"2024-05-27T20:24:51",3,"NO ERROR",20.52,79.9,1001.82,0.13,0.2,0.2],
    [3023,363171,"Vazduh","Libelium","0004A30B0021DF70",44.979,16.7091,"","","Prijedor","",26753607,"2024-05-27T21:25:45",3,"NO ERROR",19.22,87.7,1001.81,0.14,0.22,0.24],
    [3024,363171,"Vazduh","Libelium","0004A30B0021DF70",44.979,16.7091,"","","Prijedor","",26754205,"2024-05-27T22:26:27",3,"NO ERROR",18.09,96.5,1001.86,0.1,0.14,0.14],
    [3025,363171,"Vazduh","Libelium","0004A30B0021DF70",44.979,16.7091,"","","Prijedor","",26754799,"2024-05-27T23:27:09",3,"NO ERROR",17.02,100,1001.71,0.11,0.13,0.13],
    [3026,363171,"Vazduh","Libelium","0004A30B0021DF70",44.979,16.7091,"","","Prijedor","",26755706,"2024-05-28T00:27:51",3,"NO ERROR",16.46,100,1001.42,0.18,0.41,0.47],
    [3027,363171,"Vazduh","Libelium","0004A30B0021DF70",44.979,16.7091,"","","Prijedor","",26756416,"2024-05-28T01:28:33",3,"NO ERROR",15.16,100,1001.04,0.26,0.58,0.74],
    [3028,363171,"Vazduh","Libelium","0004A30B0021DF70",44.979,16.7091,"","","Prijedor","",26757124,"2024-05-28T02:29:22",3,"NO ERROR",14.52,100,1000.77,0.2,0.22,0.22],
    [3029,363171,"Vazduh","Libelium","0004A30B0021DF70",44.979,16.7091,"","","Prijedor","",26757842,"2024-05-28T03:30:04",3,"NO ERROR",13.38,100,1000.34,0.31,0.61,0.8],
    [3030,363171,"Vazduh","Libelium","0004A30B0021DF70",44.979,16.7091,"","","Prijedor","",26758372,"2024-05-28T04:30:46",3,"NO ERROR",13.02,100,1000.17,0.13,0.14,0.14],
    [3031,363171,"Vazduh","Libelium","0004A30B0021DF70",44.979,16.7091,"","","Prijedor","",26759023,"2024-05-28T05:31:34",3,"NO ERROR",11.94,100,1000.32,0.14,0.19,0.21],
    [3032,363171,"Vazduh","Libelium","0004A30B0021DF70",44.979,16.7091,"","","Prijedor","",26759698,"2024-05-28T06:32:16",3,"NO ERROR",15.04,100,1000.42,0.21,0.26,0.26],
    [3033,363171,"Vazduh","Libelium","0004A30B0021DF70",44.979,16.7091,"","","Prijedor","",26760284,"2024-05-28T07:33:10",3,"NO ERROR",17.83,100,1000.6,0.27,0.51,0.54],
    [3034,363171,"Vazduh","Libelium","0004A30B0021DF70",44.979,16.7091,"","","Prijedor","",26760846,"2024-05-28T08:33:52",3,"NO ERROR",21.08,86.3,1000.5,0.05,0.08,0.08],
    [3035,363171,"Vazduh","Libelium","0004A30B0021DF70",44.979,16.7091,"","","Prijedor","",26761432,"2024-05-28T09:34:34",3,"NO ERROR",24.87,69.7,1000.4,0.12,0.25,0.35],
    [3036,363171,"Vazduh","Libelium","0004A30B0021DF70",44.979,16.7091,"","","Prijedor","",26762029,"2024-05-28T10:35:16",3,"NO ERROR",24.11,67.8,999.96,0.21,0.29,0.29],
    [3037,363171,"Vazduh","Libelium","0004A30B0021DF70",44.979,16.7091,"","","Prijedor","",26762630,"2024-05-28T11:35:58",3,"NO ERROR",25.24,61.4,999.47,0.08,0.11,0.11],
    [3038,363171,"Vazduh","Libelium","0004A30B0021DF70",44.979,16.7091,"","","Prijedor","",26763247,"2024-05-28T12:36:40",3,"NO ERROR",27.1,56.8,998.67,0.22,0.42,0.57],
    [3039,363171,"Vazduh","Libelium","0004A30B0021DF70",44.979,16.7091,"","","Prijedor","",26763904,"2024-05-28T13:37:22",3,"NO ERROR",26.48,57.7,997.86,0.26,0.36,0.38],
    [3040,363171,"Vazduh","Libelium","0004A30B0021DF70",44.979,16.7091,"","","Prijedor","",26764560,"2024-05-28T14:38:05",3,"NO ERROR",24.53,66.3,997.97,0.03,0.09,0.11],
    [3041,363171,"Vazduh","Libelium","0004A30B0021DF70",44.979,16.7091,"","","Prijedor","",26765204,"2024-05-28T15:38:47",3,"NO ERROR",29.35,49,997.34,0.07,0.07,0.07],
    [3042,363171,"Vazduh","Libelium","0004A30B0021DF70",44.979,16.7091,"","","Prijedor","",26765791,"2024-05-28T16:39:29",3,"NO ERROR",22.36,72,998.49,0.06,0.2,1.08],
    [3043,363171,"Vazduh","Libelium","0004A30B0021DF70",44.979,16.7091,"","","Prijedor","",26766424,"2024-05-28T17:40:11",3,"NO ERROR",19.57,93.6,999.29,0.13,0.28,0.63],
    [3044,363171,"Vazduh","Libelium","0004A30B0021DF70",44.979,16.7091,"","","Prijedor","",26767034,"2024-05-28T18:40:53",3,"NO ERROR",17.84,100,1000.44,0.74,1.04,1.08],
    [3045,363171,"Vazduh","Libelium","0004A30B0021DF70",44.979,16.7091,"","","Prijedor","",26767570,"2024-05-28T19:41:35",3,"NO ERROR",16.86,100,1000.83,0.26,0.33,0.33],
    [3046,363171,"Vazduh","Libelium","0004A30B0021DF70",44.979,16.7091,"","","Prijedor","",26768137,"2024-05-28T20:42:17",3,"NO ERROR",16.94,100,1001.18,0.23,0.24,0.24],
    [3047,363171,"Vazduh","Libelium","0004A30B0021DF70",44.979,16.7091,"","","Prijedor","",26768746,"2024-05-28T21:42:59",3,"NO ERROR",16.23,100,1001.83,0.23,0.36,0.39],
    [3048,363171,"Vazduh","Libelium","0004A30B0021DF70",44.979,16.7091,"","","Prijedor","",26769332,"2024-05-28T22:43:41",3,"NO ERROR",16.38,100,1002.12,0.11,0.11,0.11],
    [3049,363171,"Vazduh","Libelium","0004A30B0021DF70",44.979,16.7091,"","","Prijedor","",26769970,"2024-05-28T23:44:29",3,"NO ERROR",16.08,100,1002.27,0.13,0.16,0.16],
    [3050,363171,"Vazduh","Libelium","0004A30B0021DF70",44.979,16.7091,"","","Prijedor","",26770801,"2024-05-29T00:45:11",3,"NO ERROR",15.84,100,1002.09,0.49,0.58,0.58],
    [3051,363171,"Vazduh","Libelium","0004A30B0021DF70",44.979,16.7091,"","","Prijedor","",26771385,"2024-05-29T01:45:53",3,"NO ERROR",15.93,100,1001.95,0.28,0.38,0.38],
    [3052,363171,"Vazduh","Libelium","0004A30B0021DF70",44.979,16.7091,"","","Prijedor","",26772016,"2024-05-29T02:46:35",3,"NO ERROR",16.25,100,1001.82,0.05,0.05,0.05],
    [3053,363171,"Vazduh","Libelium","0004A30B0021DF70",44.979,16.7091,"","","Prijedor","",26772567,"2024-05-29T03:47:18",3,"NO ERROR",16,100,1001.89,0.15,0.19,0.19],
    [3054,363171,"Vazduh","Libelium","0004A30B0021DF70",44.979,16.7091,"","","Prijedor","",26773123,"2024-05-29T04:48:00",3,"NO ERROR",15.62,100,1001.79,0.09,0.13,0.13],
    [3055,363171,"Vazduh","Libelium","0004A30B0021DF70",44.979,16.7091,"","","Prijedor","",26773816,"2024-05-29T05:48:42",3,"NO ERROR",15.24,100,1001.78,0.01,0.08,0.09],
    [3056,363171,"Vazduh","Libelium","0004A30B0021DF70",44.979,16.7091,"","","Prijedor","",26774436,"2024-05-29T06:49:24",3,"NO ERROR",15.53,100,1001.91,0.07,0.14,0.15],
    [3057,363171,"Vazduh","Libelium","0004A30B0021DF70",44.979,16.7091,"","","Prijedor","",26775053,"2024-05-29T07:50:06",3,"NO ERROR",16.51,100,1001.99,0.05,0.1,0.1],
    [3058,363171,"Vazduh","Libelium","0004A30B0021DF70",44.979,16.7091,"","","Prijedor","",26775682,"2024-05-29T08:50:48",3,"NO ERROR",18.8,100,1002.17,0.11,0.16,0.16],
    [3059,363171,"Vazduh","Libelium","0004A30B0021DF70",44.979,16.7091,"","","Prijedor","",26776270,"2024-05-29T09:51:36",3,"NO ERROR",20.59,83.4,1001.78,0.02,0.02,0.02],
    [3060,363171,"Vazduh","Libelium","0004A30B0021DF70",44.979,16.7091,"","","Prijedor","",26776858,"2024-05-29T10:52:24",3,"NO ERROR",21.29,73.4,1001.53,0.11,0.12,0.12],
    [3061,363171,"Vazduh","Libelium","0004A30B0021DF70",44.979,16.7091,"","","Prijedor","",26777454,"2024-05-29T11:53:06",3,"NO ERROR",22.05,69.5,1001.08,0.1,0.14,0.14],
    [3062,363171,"Vazduh","Libelium","0004A30B0021DF70",44.979,16.7091,"","","Prijedor","",26778055,"2024-05-29T12:53:54",3,"NO ERROR",22.77,68.1,1000.46,0.03,0.11,0.18],
    [3063,363171,"Vazduh","Libelium","0004A30B0021DF70",44.979,16.7091,"","","Prijedor","",26778777,"2024-05-29T13:54:42",3,"NO ERROR",23.02,67.8,999.91,0.08,0.08,0.08],
    [3064,363171,"Vazduh","Libelium","0004A30B0021DF70",44.979,16.7091,"","","Prijedor","",26779483,"2024-05-29T14:55:24",3,"NO ERROR",24.43,63,999.15,0.03,0.03,0.03],
    [3065,363171,"Vazduh","Libelium","0004A30B0021DF70",44.979,16.7091,"","","Prijedor","",26780109,"2024-05-29T15:56:06",3,"NO ERROR",24.61,60.3,998.14,0.06,0.11,0.11],
    [3066,363171,"Vazduh","Libelium","0004A30B0021DF70",44.979,16.7091,"","","Prijedor","",26780706,"2024-05-29T16:56:49",3,"NO ERROR",26.37,56.2,997.42,0.05,0.05,0.05],
    [3067,363171,"Vazduh","Libelium","0004A30B0021DF70",44.979,16.7091,"","","Prijedor","",26781345,"2024-05-29T17:57:31",3,"NO ERROR",23.33,67.3,996.74,0.06,0.11,0.12],
    [3068,363171,"Vazduh","Libelium","0004A30B0021DF70",44.979,16.7091,"","","Prijedor","",26781956,"2024-05-29T18:58:13",3,"NO ERROR",22.21,70.3,996.67,0.08,0.22,0.35],
    [3069,363171,"Vazduh","Libelium","0004A30B0021DF70",44.979,16.7091,"","","Prijedor","",26782515,"2024-05-29T19:58:55",3,"NO ERROR",20.95,82.3,996.3,0.04,0.05,0.05],
    [3070,363171,"Vazduh","Libelium","0004A30B0021DF70",44.979,16.7091,"","","Prijedor","",26783102,"2024-05-29T20:59:37",3,"NO ERROR",19.25,99.5,996.5,0.64,1.02,1.07],
    [3071,363171,"Vazduh","Libelium","0004A30B0021DF70",44.979,16.7091,"","","Prijedor","",26783710,"2024-05-29T22:00:19",3,"NO ERROR",17.49,100,996.9,0.25,0.34,0.34],
    [3072,363171,"Vazduh","Libelium","0004A30B0021DF70",44.979,16.7091,"","","Prijedor","",26784298,"2024-05-29T23:01:01",3,"NO ERROR",16.1,100,996.89,0.14,0.23,0.25],
    [3073,363171,"Vazduh","Libelium","0004A30B0021DF70",44.979,16.7091,"","","Prijedor","",26785090,"2024-05-30T00:01:43",3,"NO ERROR",14.86,100,996.43,0.17,0.18,0.18],
    [3074,363171,"Vazduh","Libelium","0004A30B0021DF70",44.979,16.7091,"","","Prijedor","",26785713,"2024-05-30T01:02:25",3,"NO ERROR",14.06,100,996.29,0.11,0.15,0.15],
    [3075,363171,"Vazduh","Libelium","0004A30B0021DF70",44.979,16.7091,"","","Prijedor","",26786303,"2024-05-30T02:03:07",3,"NO ERROR",13.36,100,995.63,0.07,0.09,0.09],
    [3076,363171,"Vazduh","Libelium","0004A30B0021DF70",44.979,16.7091,"","","Prijedor","",26786921,"2024-05-30T03:03:49",3,"NO ERROR",12.41,100,995.53,0.07,0.1,0.1],
    [3077,363171,"Vazduh","Libelium","0004A30B0021DF70",44.979,16.7091,"","","Prijedor","",26787471,"2024-05-30T04:04:31",3,"NO ERROR",12.3,100,995.07,1.31,3.23,94.21],
    [3078,363171,"Vazduh","Libelium","0004A30B0021DF70",44.979,16.7091,"","","Prijedor","",26788045,"2024-05-30T05:05:13",3,"NO ERROR",12.26,100,994.89,2.14,5.02,130.5],
    [3079,363171,"Vazduh","Libelium","0004A30B0021DF70",44.979,16.7091,"","","Prijedor","",26788767,"2024-05-30T06:06:02",3,"NO ERROR",12.92,100,994.9,0.19,1.18,25.83],
    [3080,363171,"Vazduh","Libelium","0004A30B0021DF70",44.979,16.7091,"","","Prijedor","",26789398,"2024-05-30T07:06:44",3,"NO ERROR",13.87,100,994.77,0.54,1.08,2.56],
    [3081,363171,"Vazduh","Libelium","0004A30B0021DF70",44.979,16.7091,"","","Prijedor","",26789982,"2024-05-30T08:07:26",3,"NO ERROR",16.13,100,994.57,0.1,0.14,0.14],
    [3082,363171,"Vazduh","Libelium","0004A30B0021DF70",44.979,16.7091,"","","Prijedor","",26790647,"2024-05-30T09:08:08",3,"NO ERROR",21.06,92.8,994.08,0.16,0.26,0.26],
    [3083,363171,"Vazduh","Libelium","0004A30B0021DF70",44.979,16.7091,"","","Prijedor","",26791216,"2024-05-30T10:08:56",3,"NO ERROR",24.32,72.1,993.6,0.05,0.08,0.08],
    [3084,363171,"Vazduh","Libelium","0004A30B0021DF70",44.979,16.7091,"","","Prijedor","",26791794,"2024-05-30T11:09:38",3,"NO ERROR",24.94,65.5,993.25,0.27,0.3,0.3],
    [3085,363171,"Vazduh","Libelium","0004A30B0021DF70",44.979,16.7091,"","","Prijedor","",26792429,"2024-05-30T12:10:20",3,"NO ERROR",25.98,63.3,992.75,0.03,0.03,0.03],
    [3086,363171,"Vazduh","Libelium","0004A30B0021DF70",44.979,16.7091,"","","Prijedor","",26793057,"2024-05-30T13:11:02",3,"NO ERROR",25.64,59.5,991.98,0.06,0.09,0.1],
    [3087,363171,"Vazduh","Libelium","0004A30B0021DF70",44.979,16.7091,"","","Prijedor","",26793716,"2024-05-30T14:11:44",3,"NO ERROR",28.54,51.3,991.33,0.03,0.03,0.03],
    [3088,363171,"Vazduh","Libelium","0004A30B0021DF70",44.979,16.7091,"","","Prijedor","",26794395,"2024-05-30T15:12:26",3,"NO ERROR",30.78,40.9,990.29,0.04,0.08,0.08],
    [3089,363171,"Vazduh","Libelium","0004A30B0021DF70",44.979,16.7091,"","","Prijedor","",26795002,"2024-05-30T16:13:15",3,"NO ERROR",31.71,37.4,989.93,0.01,0.03,0.04],
    [3090,363171,"Vazduh","Libelium","0004A30B0021DF70",44.979,16.7091,"","","Prijedor","",26795602,"2024-05-30T17:13:56",3,"NO ERROR",29.77,39.2,989.87,0.04,0.07,0.07],
    [3091,363171,"Vazduh","Libelium","0004A30B0021DF70",44.979,16.7091,"","","Prijedor","",26796257,"2024-05-30T18:14:39",3,"NO ERROR",26.69,46.7,989.9,0,0,0],
    [3092,363171,"Vazduh","Libelium","0004A30B0021DF70",44.979,16.7091,"","","Prijedor","",26796841,"2024-05-30T19:15:21",3,"NO ERROR",24.58,53.3,990.36,0.29,0.4,0.41],
    [3093,363171,"Vazduh","Libelium","0004A30B0021DF70",44.979,16.7091,"","","Prijedor","",26797378,"2024-05-30T20:16:03",3,"NO ERROR",22.64,61.9,990.56,0.13,0.16,0.17],
    [3094,363171,"Vazduh","Libelium","0004A30B0021DF70",44.979,16.7091,"","","Prijedor","",26798024,"2024-05-30T21:16:45",3,"NO ERROR",21.4,70.7,990.94,0.14,0.39,0.87],
    [3095,363171,"Vazduh","Libelium","0004A30B0021DF70",44.979,16.7091,"","","Prijedor","",26798642,"2024-05-30T22:17:27",3,"NO ERROR",19.99,82.7,991.27,0.23,0.29,0.29],
    [3096,363171,"Vazduh","Libelium","0004A30B0021DF70",44.979,16.7091,"","","Prijedor","",26799225,"2024-05-30T23:18:09",3,"NO ERROR",18.96,98,990.95,0.18,0.37,0.73],
    [3097,363171,"Vazduh","Libelium","0004A30B0021DF70",44.979,16.7091,"","","Prijedor","",26800087,"2024-05-31T00:18:51",3,"NO ERROR",17.7,100,991.35,0.1,0.13,0.13],
    [3098,363171,"Vazduh","Libelium","0004A30B0021DF70",44.979,16.7091,"","","Prijedor","",26800729,"2024-05-31T01:19:33",3,"NO ERROR",17.06,100,991.4,0.05,0.05,0.05],
    [3099,363171,"Vazduh","Libelium","0004A30B0021DF70",44.979,16.7091,"","","Prijedor","",26801381,"2024-05-31T02:20:15",3,"NO ERROR",17.87,100,990.6,0.16,0.22,0.23],
    [3100,363171,"Vazduh","Libelium","0004A30B0021DF70",44.979,16.7091,"","","Prijedor","",26802101,"2024-05-31T03:21:03",3,"NO ERROR",17.4,100,990.17,0.22,0.27,0.28],
    [3101,363171,"Vazduh","Libelium","0004A30B0021DF70",44.979,16.7091,"","","Prijedor","",26802724,"2024-05-31T04:21:45",3,"NO ERROR",17.2,100,989.67,0.06,0.1,0.1],
    [3102,363171,"Vazduh","Libelium","0004A30B0021DF70",44.979,16.7091,"","","Prijedor","",26803433,"2024-05-31T05:22:27",3,"NO ERROR",16.05,100,990,0.24,0.27,0.27],
    [3103,363171,"Vazduh","Libelium","0004A30B0021DF70",44.979,16.7091,"","","Prijedor","",26804209,"2024-05-31T06:23:10",3,"NO ERROR",15.89,100,989.91,0.58,0.7,0.71],
    [3104,363171,"Vazduh","Libelium","0004A30B0021DF70",44.979,16.7091,"","","Prijedor","",26804854,"2024-05-31T07:23:52",3,"NO ERROR",16.35,100,989.48,0.3,0.36,0.36],
    [3105,363171,"Vazduh","Libelium","0004A30B0021DF70",44.979,16.7091,"","","Prijedor","",26805444,"2024-05-31T08:24:34",3,"NO ERROR",17.12,100,989.83,0.35,0.51,0.52],
    [3106,363171,"Vazduh","Libelium","0004A30B0021DF70",44.979,16.7091,"","","Prijedor","",26806078,"2024-05-31T09:25:16",3,"NO ERROR",18.15,100,990.17,0.3,0.44,0.44],
    [3107,363171,"Vazduh","Libelium","0004A30B0021DF70",44.979,16.7091,"","","Prijedor","",26806644,"2024-05-31T10:25:58",3,"NO ERROR",20.32,100,990.15,0.1,0.13,0.13],
    [3108,363171,"Vazduh","Libelium","0004A30B0021DF70",44.979,16.7091,"","","Prijedor","",26807209,"2024-05-31T11:26:46",3,"NO ERROR",23.47,100,990,0.03,0.03,0.03],
    [3109,363171,"Vazduh","Libelium","0004A30B0021DF70",44.979,16.7091,"","","Prijedor","",26807860,"2024-05-31T12:27:28",3,"NO ERROR",27.01,70.5,989.64,0.15,0.2,0.2],
    [3110,363171,"Vazduh","Libelium","0004A30B0021DF70",44.979,16.7091,"","","Prijedor","",26808486,"2024-05-31T13:28:10",3,"NO ERROR",27.93,60.9,988.98,0.21,0.33,6.64],
    [3111,363171,"Vazduh","Libelium","0004A30B0021DF70",44.979,16.7091,"","","Prijedor","",26809130,"2024-05-31T14:28:58",3,"NO ERROR",29.77,52.6,988.37,0.1,0.15,0.15],
    [3112,363171,"Vazduh","Libelium","0004A30B0021DF70",44.979,16.7091,"","","Prijedor","",26809803,"2024-05-31T15:29:40",3,"NO ERROR",29.43,56.1,988.2,0.06,0.07,0.07],
    [3113,363171,"Vazduh","Libelium","0004A30B0021DF70",44.979,16.7091,"","","Prijedor","",26810363,"2024-05-31T16:30:22",3,"NO ERROR",30.46,52.1,987.93,0.07,0.08,0.08],
    [3114,363171,"Vazduh","Libelium","0004A30B0021DF70",44.979,16.7091,"","","Prijedor","",26810953,"2024-05-31T17:31:11",3,"NO ERROR",30.86,44.9,988.28,0.08,0.1,0.1],
    [3115,363171,"Vazduh","Libelium","0004A30B0021DF70",44.979,16.7091,"","","Prijedor","",26811599,"2024-05-31T18:31:52",3,"NO ERROR",26.65,51.8,988.83,0.07,0.13,0.13],
    [3116,363171,"Vazduh","Libelium","0004A30B0021DF70",44.979,16.7091,"","","Prijedor","",26812148,"2024-05-31T19:32:35",3,"NO ERROR",25.26,59.8,989.2,0.26,0.32,0.32],
    [3117,363171,"Vazduh","Libelium","0004A30B0021DF70",44.979,16.7091,"","","Prijedor","",26812697,"2024-05-31T20:33:17",3,"NO ERROR",19.88,100,990.59,0.26,0.33,0.33],
    [3118,363171,"Vazduh","Libelium","0004A30B0021DF70",44.979,16.7091,"","","Prijedor","",26813359,"2024-05-31T21:33:59",3,"NO ERROR",17.52,100,991.91,0.21,0.28,0.29],
    [3119,363171,"Vazduh","Libelium","0004A30B0021DF70",44.979,16.7091,"","","Prijedor","",26813928,"2024-05-31T22:34:47",3,"NO ERROR",17.17,100,992.3,0,0,0],
    [3120,363171,"Vazduh","Libelium","0004A30B0021DF70",44.979,16.7091,"","","Prijedor","",26814549,"2024-05-31T23:35:29",3,"NO ERROR",16.78,100,992.76,0.09,0.14,0.14],
    [3121,363171,"Vazduh","Libelium","0004A30B0021DF70",44.979,16.7091,"","","Prijedor","",26815397,"2024-06-01T00:36:11",3,"NO ERROR",17.11,100,993.23,0.38,0.59,0.6],
    [3122,363171,"Vazduh","Libelium","0004A30B0021DF70",44.979,16.7091,"","","Prijedor","",26815965,"2024-06-01T01:36:53",3,"NO ERROR",16.66,100,993.25,0.17,0.28,0.3],
    [3123,363171,"Vazduh","Libelium","0004A30B0021DF70",44.979,16.7091,"","","Prijedor","",26816546,"2024-06-01T02:37:35",3,"NO ERROR",14.65,100,993.27,1.53,2.33,2.67],
    [3124,363171,"Vazduh","Libelium","0004A30B0021DF70",44.979,16.7091,"","","Prijedor","",26817135,"2024-06-01T03:38:17",3,"NO ERROR",14.98,100,993.41,0.45,0.79,0.81],
    [3125,363171,"Vazduh","Libelium","0004A30B0021DF70",44.979,16.7091,"","","Prijedor","",26817702,"2024-06-01T04:38:59",3,"NO ERROR",14.6,100,993.41,0.51,0.67,0.68],
    [3126,363171,"Vazduh","Libelium","0004A30B0021DF70",44.979,16.7091,"","","Prijedor","",26818373,"2024-06-01T05:39:41",3,"NO ERROR",14.4,100,994.07,0.45,0.67,0.68],
    [3127,363171,"Vazduh","Libelium","0004A30B0021DF70",44.979,16.7091,"","","Prijedor","",26819028,"2024-06-01T06:40:23",3,"NO ERROR",17.67,100,994.63,0.17,0.22,0.22],
    [3128,363171,"Vazduh","Libelium","0004A30B0021DF70",44.979,16.7091,"","","Prijedor","",26819649,"2024-06-01T07:41:05",3,"NO ERROR",21.19,100,995.06,0.14,0.15,0.15],
    [3129,363171,"Vazduh","Libelium","0004A30B0021DF70",44.979,16.7091,"","","Prijedor","",26820279,"2024-06-01T08:41:48",3,"NO ERROR",25.85,64.2,995.77,0.2,0.29,0.3],
    [3130,363171,"Vazduh","Libelium","0004A30B0021DF70",44.979,16.7091,"","","Prijedor","",26820921,"2024-06-01T09:42:30",3,"NO ERROR",27.27,49.6,996.12,0.32,0.4,0.4],
    [3131,363171,"Vazduh","Libelium","0004A30B0021DF70",44.979,16.7091,"","","Prijedor","",26821518,"2024-06-01T10:43:12",3,"NO ERROR",27,45.5,996.13,0.04,0.12,0.2],
    [3132,363171,"Vazduh","Libelium","0004A30B0021DF70",44.979,16.7091,"","","Prijedor","",26822117,"2024-06-01T11:43:54",3,"NO ERROR",26.12,43.9,996.24,0.08,0.16,0.21],
    [3133,363171,"Vazduh","Libelium","0004A30B0021DF70",44.979,16.7091,"","","Prijedor","",26822723,"2024-06-01T12:44:36",3,"NO ERROR",26.72,43.7,996.63,0.11,0.19,0.25],
    [3134,363171,"Vazduh","Libelium","0004A30B0021DF70",44.979,16.7091,"","","Prijedor","",26823364,"2024-06-01T13:45:18",3,"NO ERROR",25.6,43.8,996.75,0.11,0.15,0.15],
    [3135,363171,"Vazduh","Libelium","0004A30B0021DF70",44.979,16.7091,"","","Prijedor","",26824017,"2024-06-01T14:46:00",3,"NO ERROR",27.97,39.9,996.57,0.18,0.29,0.38],
    [3136,363171,"Vazduh","Libelium","0004A30B0021DF70",44.979,16.7091,"","","Prijedor","",26824662,"2024-06-01T15:46:42",3,"NO ERROR",29.09,38.8,996.62,0.01,0.03,0.04],
    [3137,363171,"Vazduh","Libelium","0004A30B0021DF70",44.979,16.7091,"","","Prijedor","",26825251,"2024-06-01T16:47:24",3,"NO ERROR",31.04,34.8,996.88,0.11,0.12,0.12],
    [3138,363171,"Vazduh","Libelium","0004A30B0021DF70",44.979,16.7091,"","","Prijedor","",26825875,"2024-06-01T17:48:06",3,"NO ERROR",26.66,39.1,996.9,0.11,0.15,0.15],
    [3139,363171,"Vazduh","Libelium","0004A30B0021DF70",44.979,16.7091,"","","Prijedor","",26826503,"2024-06-01T18:48:48",3,"NO ERROR",25.28,41.7,997.41,0.1,0.14,0.14],
    [3140,363171,"Vazduh","Libelium","0004A30B0021DF70",44.979,16.7091,"","","Prijedor","",26827082,"2024-06-01T19:49:30",3,"NO ERROR",23.73,45.7,997.85,0.2,0.41,0.57],
    [3141,363171,"Vazduh","Libelium","0004A30B0021DF70",44.979,16.7091,"","","Prijedor","",26827695,"2024-06-01T20:50:13",3,"NO ERROR",21.66,50,998.5,0.17,0.28,0.29],
    [3142,363171,"Vazduh","Libelium","0004A30B0021DF70",44.979,16.7091,"","","Prijedor","",26828322,"2024-06-01T21:50:55",3,"NO ERROR",18.56,70.1,999.15,0.16,0.2,0.2],
    [3143,363171,"Vazduh","Libelium","0004A30B0021DF70",44.979,16.7091,"","","Prijedor","",26828938,"2024-06-01T22:51:37",3,"NO ERROR",16.32,84.2,999.39,0.08,0.14,0.16],
    [3144,363171,"Vazduh","Libelium","0004A30B0021DF70",44.979,16.7091,"","","Prijedor","",26829586,"2024-06-01T23:52:19",3,"NO ERROR",15.6,83.1,999.76,0.33,0.4,0.4],
    [3145,363171,"Vazduh","Libelium","0004A30B0021DF70",44.979,16.7091,"","","Prijedor","",26830372,"2024-06-02T00:53:01",3,"NO ERROR",14.79,88.3,999.9,0.15,0.23,0.23],
    [3146,363171,"Vazduh","Libelium","0004A30B0021DF70",44.979,16.7091,"","","Prijedor","",26830932,"2024-06-02T01:53:43",3,"NO ERROR",13.04,100,999.9,0.2,0.25,0.25],
    [3147,363171,"Vazduh","Libelium","0004A30B0021DF70",44.979,16.7091,"","","Prijedor","",26831587,"2024-06-02T02:54:25",3,"NO ERROR",12.39,100,1000.14,0.16,0.23,0.23],
    [3148,363171,"Vazduh","Libelium","0004A30B0021DF70",44.979,16.7091,"","","Prijedor","",26832175,"2024-06-02T03:55:07",3,"NO ERROR",12.16,100,1000.19,0.08,0.1,0.1],
    [3149,363171,"Vazduh","Libelium","0004A30B0021DF70",44.979,16.7091,"","","Prijedor","",26832786,"2024-06-02T04:55:49",3,"NO ERROR",11.75,100,1000.44,0.08,0.16,0.17],
    [3150,363171,"Vazduh","Libelium","0004A30B0021DF70",44.979,16.7091,"","","Prijedor","",26833470,"2024-06-02T05:56:31",3,"NO ERROR",11.09,100,1000.6,0.1,0.14,0.14],
    [3151,363171,"Vazduh","Libelium","0004A30B0021DF70",44.979,16.7091,"","","Prijedor","",26834142,"2024-06-02T06:57:13",3,"NO ERROR",16.53,91.5,1000.68,0.11,0.17,0.17],
    [3152,363171,"Vazduh","Libelium","0004A30B0021DF70",44.979,16.7091,"","","Prijedor","",26834790,"2024-06-02T07:57:55",3,"NO ERROR",22.96,63.5,1000.6,0.17,0.19,0.19],
    [3153,363171,"Vazduh","Libelium","0004A30B0021DF70",44.979,16.7091,"","","Prijedor","",26835418,"2024-06-02T08:58:38",3,"NO ERROR",25.86,56.1,1000.74,0.17,0.18,0.18],
    [3154,363171,"Vazduh","Libelium","0004A30B0021DF70",44.979,16.7091,"","","Prijedor","",26836020,"2024-06-02T09:59:26",3,"NO ERROR",26.36,52.5,1000.76,0.11,0.17,0.18],
    [3155,363171,"Vazduh","Libelium","0004A30B0021DF70",44.979,16.7091,"","","Prijedor","",26836601,"2024-06-02T11:00:14",3,"NO ERROR",27.99,50.5,1000.47,0.08,0.11,0.12],
    [3156,363171,"Vazduh","Libelium","0004A30B0021DF70",44.979,16.7091,"","","Prijedor","",26837233,"2024-06-02T12:01:02",3,"NO ERROR",27.56,47.7,1000.02,0.13,0.14,0.14],
    [3157,363171,"Vazduh","Libelium","0004A30B0021DF70",44.979,16.7091,"","","Prijedor","",26837856,"2024-06-02T13:01:44",3,"NO ERROR",29.03,43.3,999.92,0.1,0.11,0.11],
    [3158,363171,"Vazduh","Libelium","0004A30B0021DF70",44.979,16.7091,"","","Prijedor","",26838500,"2024-06-02T14:02:26",3,"NO ERROR",30.83,39.7,999.21,0.07,0.09,0.09],
    [3159,363171,"Vazduh","Libelium","0004A30B0021DF70",44.979,16.7091,"","","Prijedor","",26839141,"2024-06-02T15:03:08",3,"NO ERROR",29.7,41.2,998.76,0.1,0.1,0.1],
    [3160,363171,"Vazduh","Libelium","0004A30B0021DF70",44.979,16.7091,"","","Prijedor","",26839747,"2024-06-02T16:03:50",3,"NO ERROR",26.77,50.2,998.51,0.34,0.6,1.15],
    [3161,363171,"Vazduh","Libelium","0004A30B0021DF70",44.979,16.7091,"","","Prijedor","",26840352,"2024-06-02T17:04:32",3,"NO ERROR",23.91,88.3,998.32,0.22,0.3,0.32],
    [3162,363171,"Vazduh","Libelium","0004A30B0021DF70",44.979,16.7091,"","","Prijedor","",26840982,"2024-06-02T18:05:14",3,"NO ERROR",22.79,100,998.23,0.13,0.16,0.17],
    [3163,363171,"Vazduh","Libelium","0004A30B0021DF70",44.979,16.7091,"","","Prijedor","",26841606,"2024-06-02T19:05:56",3,"NO ERROR",18.83,100,999.66,0.16,0.19,0.19],
    [3164,363171,"Vazduh","Libelium","0004A30B0021DF70",44.979,16.7091,"","","Prijedor","",26842166,"2024-06-02T20:06:38",3,"NO ERROR",17.79,100,1000.61,0.31,0.5,0.6],
    [3165,363171,"Vazduh","Libelium","0004A30B0021DF70",44.979,16.7091,"","","Prijedor","",26842771,"2024-06-02T21:07:20",3,"NO ERROR",17.3,100,1000.08,0.32,0.5,0.52],
    [3166,363171,"Vazduh","Libelium","0004A30B0021DF70",44.979,16.7091,"","","Prijedor","",26843395,"2024-06-02T22:08:03",3,"NO ERROR",17.25,100,999.98,0.32,0.4,0.4],
    [3167,363171,"Vazduh","Libelium","0004A30B0021DF70",44.979,16.7091,"","","Prijedor","",26843978,"2024-06-02T23:08:45",3,"NO ERROR",17.09,100,999.81,0.56,0.74,0.75],
    [3168,363171,"Vazduh","Libelium","0004A30B0021DF70",44.979,16.7091,"","","Prijedor","",26844820,"2024-06-03T00:09:27",3,"NO ERROR",17.02,100,999.86,0.12,0.14,0.14],
    [3169,363171,"Vazduh","Libelium","0004A30B0021DF70",44.979,16.7091,"","","Prijedor","",26845511,"2024-06-03T01:10:15",3,"NO ERROR",16.6,100,999.85,1.24,1.52,1.52],
    [3170,363171,"Vazduh","Libelium","0004A30B0021DF70",44.979,16.7091,"","","Prijedor","",26846132,"2024-06-03T02:10:57",3,"NO ERROR",16.55,100,999.57,0.59,0.74,0.75],
    [3171,363171,"Vazduh","Libelium","0004A30B0021DF70",44.979,16.7091,"","","Prijedor","",26846795,"2024-06-03T03:11:39",3,"NO ERROR",16.59,100,998.88,0.22,0.26,0.26],
    [3172,363171,"Vazduh","Libelium","0004A30B0021DF70",44.979,16.7091,"","","Prijedor","",26847419,"2024-06-03T04:12:21",3,"NO ERROR",16.62,100,999.2,0.37,0.46,0.46],
    [3173,363171,"Vazduh","Libelium","0004A30B0021DF70",44.979,16.7091,"","","Prijedor","",26848046,"2024-06-03T05:13:09",3,"NO ERROR",16.3,100,997.98,0.1,0.13,0.13],
    [3174,363171,"Vazduh","Libelium","0004A30B0021DF70",44.979,16.7091,"","","Prijedor","",26848757,"2024-06-03T06:13:51",3,"NO ERROR",16.86,100,998.58,0.3,0.34,0.34],
    [3175,363171,"Vazduh","Libelium","0004A30B0021DF70",44.979,16.7091,"","","Prijedor","",26849381,"2024-06-03T07:14:33",3,"NO ERROR",17.34,100,998.08,0.32,0.44,0.46],
    [3176,363171,"Vazduh","Libelium","0004A30B0021DF70",44.979,16.7091,"","","Prijedor","",26849961,"2024-06-03T08:15:15",3,"NO ERROR",18.03,100,998.03,0.11,0.15,0.15],
    [3177,363171,"Vazduh","Libelium","0004A30B0021DF70",44.979,16.7091,"","","Prijedor","",26850597,"2024-06-03T09:15:57",3,"NO ERROR",20.5,100,997.9,0.1,0.16,0.16],
    [3178,363171,"Vazduh","Libelium","0004A30B0021DF70",44.979,16.7091,"","","Prijedor","",26851204,"2024-06-03T10:16:39",3,"NO ERROR",22.19,100,997.82,0.02,0.12,0.2],
    [3179,363171,"Vazduh","Libelium","0004A30B0021DF70",44.979,16.7091,"","","Prijedor","",26851797,"2024-06-03T11:17:22",3,"NO ERROR",24.2,84.3,997.17,0.34,0.36,0.36],
    [3180,363171,"Vazduh","Libelium","0004A30B0021DF70",44.979,16.7091,"","","Prijedor","",26852439,"2024-06-03T12:18:04",3,"NO ERROR",24.73,80.2,996.83,0.15,0.29,0.31],
    [3181,363171,"Vazduh","Libelium","0004A30B0021DF70",44.979,16.7091,"","","Prijedor","",26853076,"2024-06-03T13:18:46",3,"NO ERROR",21.71,100,996.85,0.06,0.12,0.13],
    [3182,363171,"Vazduh","Libelium","0004A30B0021DF70",44.979,16.7091,"","","Prijedor","",26853726,"2024-06-03T14:19:28",3,"NO ERROR",18.36,100,997.19,0.59,0.76,0.77],
    [3183,363171,"Vazduh","Libelium","0004A30B0021DF70",44.979,16.7091,"","","Prijedor","",26854383,"2024-06-03T15:20:10",3,"NO ERROR",17.97,100,998.13,0.17,0.24,0.25],
    [3184,363171,"Vazduh","Libelium","0004A30B0021DF70",44.979,16.7091,"","","Prijedor","",26854961,"2024-06-03T16:20:52",3,"NO ERROR",22.1,100,996.84,0.07,0.14,0.22],
    [3185,363171,"Vazduh","Libelium","0004A30B0021DF70",44.979,16.7091,"","","Prijedor","",26855541,"2024-06-03T17:21:34",3,"NO ERROR",24.17,75.9,996.33,0.05,0.05,0.05],
    [3186,363171,"Vazduh","Libelium","0004A30B0021DF70",44.979,16.7091,"","","Prijedor","",26856155,"2024-06-03T18:22:16",3,"NO ERROR",21.11,89,996.18,0.03,0.03,0.03],
    [3187,363171,"Vazduh","Libelium","0004A30B0021DF70",44.979,16.7091,"","","Prijedor","",26856721,"2024-06-03T19:22:58",3,"NO ERROR",20.37,90.5,996.81,0.03,0.05,0.05],
    [3188,363171,"Vazduh","Libelium","0004A30B0021DF70",44.979,16.7091,"","","Prijedor","",26857277,"2024-06-03T20:23:40",3,"NO ERROR",18.87,100,997.14,0.03,0.06,0.06],
    [3189,363171,"Vazduh","Libelium","0004A30B0021DF70",44.979,16.7091,"","","Prijedor","",26857901,"2024-06-03T21:24:22",3,"NO ERROR",17.85,100,997.6,0.14,0.16,0.16],
    [3190,363171,"Vazduh","Libelium","0004A30B0021DF70",44.979,16.7091,"","","Prijedor","",26858491,"2024-06-03T22:25:04",3,"NO ERROR",16.69,100,997.59,0.09,0.13,0.13],
    [3191,363171,"Vazduh","Libelium","0004A30B0021DF70",44.979,16.7091,"","","Prijedor","",26859087,"2024-06-03T23:25:46",3,"NO ERROR",15.56,100,997.96,0.08,0.11,0.11],
    [3192,363171,"Vazduh","Libelium","0004A30B0021DF70",44.979,16.7091,"","","Prijedor","",26859946,"2024-06-04T00:26:29",3,"NO ERROR",15.2,100,997.78,0.19,0.49,0.63],
    [3193,363171,"Vazduh","Libelium","0004A30B0021DF70",44.979,16.7091,"","","Prijedor","",26860596,"2024-06-04T01:27:11",3,"NO ERROR",14.42,100,997.93,0.25,0.59,0.68],
    [3194,363171,"Vazduh","Libelium","0004A30B0021DF70",44.979,16.7091,"","","Prijedor","",26861225,"2024-06-04T02:27:53",3,"NO ERROR",14.12,100,998.04,0.17,0.31,0.42],
    [3195,363171,"Vazduh","Libelium","0004A30B0021DF70",44.979,16.7091,"","","Prijedor","",26861834,"2024-06-04T03:28:35",3,"NO ERROR",13.75,100,998.09,0.17,0.29,0.3],
    [3196,363171,"Vazduh","Libelium","0004A30B0021DF70",44.979,16.7091,"","","Prijedor","",26862406,"2024-06-04T04:29:17",3,"NO ERROR",13.91,100,998.12,0.22,0.43,0.52],
    [3197,363171,"Vazduh","Libelium","0004A30B0021DF70",44.979,16.7091,"","","Prijedor","",26863065,"2024-06-04T05:29:59",3,"NO ERROR",14.03,100,998.37,0.6,0.68,0.69],
    [3198,363171,"Vazduh","Libelium","0004A30B0021DF70",44.979,16.7091,"","","Prijedor","",26863743,"2024-06-04T06:30:41",3,"NO ERROR",15.22,100,998.68,0.68,0.83,0.85],
    [3199,363171,"Vazduh","Libelium","0004A30B0021DF70",44.979,16.7091,"","","Prijedor","",26864400,"2024-06-04T07:31:23",3,"NO ERROR",16.72,100,999.07,0.2,0.28,0.28],
    [3200,363171,"Vazduh","Libelium","0004A30B0021DF70",44.979,16.7091,"","","Prijedor","",26864999,"2024-06-04T08:32:05",3,"NO ERROR",18.89,97.6,999.51,0.1,0.13,0.13],
    [3201,363171,"Vazduh","Libelium","0004A30B0021DF70",44.979,16.7091,"","","Prijedor","",26865635,"2024-06-04T09:32:47",3,"NO ERROR",21.38,81.6,999.71,0.12,0.14,0.14],
    [3202,363171,"Vazduh","Libelium","0004A30B0021DF70",44.979,16.7091,"","","Prijedor","",26866222,"2024-06-04T10:33:29",3,"NO ERROR",22.51,84.1,999.86,0.26,0.44,0.45],
    [3203,363171,"Vazduh","Libelium","0004A30B0021DF70",44.979,16.7091,"","","Prijedor","",26866791,"2024-06-04T11:34:11",3,"NO ERROR",23.45,75,1000.13,0.14,0.28,0.29],
    [3204,363171,"Vazduh","Libelium","0004A30B0021DF70",44.979,16.7091,"","","Prijedor","",26867404,"2024-06-04T12:34:53",3,"NO ERROR",22.83,80.5,1000.25,0.03,0.17,3.06],
    [3205,363171,"Vazduh","Libelium","0004A30B0021DF70",44.979,16.7091,"","","Prijedor","",26868087,"2024-06-04T13:35:36",3,"NO ERROR",25.42,62.7,999.57,0.02,0.09,0.17],
    [3206,363171,"Vazduh","Libelium","0004A30B0021DF70",44.979,16.7091,"","","Prijedor","",26868747,"2024-06-04T14:36:18",3,"NO ERROR",25.98,63.1,999.22,0.05,0.05,0.05],
    [3207,363171,"Vazduh","Libelium","0004A30B0021DF70",44.979,16.7091,"","","Prijedor","",26869397,"2024-06-04T15:37:00",3,"NO ERROR",28,56.2,999.03,0.08,0.12,0.13],
    [3208,363171,"Vazduh","Libelium","0004A30B0021DF70",44.979,16.7091,"","","Prijedor","",26870003,"2024-06-04T16:37:42",3,"NO ERROR",27.72,53.1,998.68,0.07,0.12,0.13],
    [3209,363171,"Vazduh","Libelium","0004A30B0021DF70",44.979,16.7091,"","","Prijedor","",26870644,"2024-06-04T17:38:24",3,"NO ERROR",28.86,47.4,998.3,0.02,0.02,0.02],
    [3210,363171,"Vazduh","Libelium","0004A30B0021DF70",44.979,16.7091,"","","Prijedor","",26871281,"2024-06-04T18:39:06",3,"NO ERROR",24.14,59.4,997.89,0.08,0.12,0.12],
    [3211,363171,"Vazduh","Libelium","0004A30B0021DF70",44.979,16.7091,"","","Prijedor","",26871871,"2024-06-04T19:39:48",3,"NO ERROR",23.08,66.6,997.89,0.12,0.2,0.21],
    [3212,363171,"Vazduh","Libelium","0004A30B0021DF70",44.979,16.7091,"","","Prijedor","",26872467,"2024-06-04T20:40:30",3,"NO ERROR",21.24,85.7,998.05,0.12,0.13,0.13],
    [3213,363171,"Vazduh","Libelium","0004A30B0021DF70",44.979,16.7091,"","","Prijedor","",26873109,"2024-06-04T21:41:12",3,"NO ERROR",19.5,100,998.55,0.55,0.7,0.71],
    [3214,363171,"Vazduh","Libelium","0004A30B0021DF70",44.979,16.7091,"","","Prijedor","",26873705,"2024-06-04T22:41:54",3,"NO ERROR",17.64,100,998.95,0.22,0.34,0.36],
    [3215,363171,"Vazduh","Libelium","0004A30B0021DF70",44.979,16.7091,"","","Prijedor","",26874308,"2024-06-04T23:42:36",3,"NO ERROR",16.7,100,999.51,0.17,0.2,0.2],
    [3216,363171,"Vazduh","Libelium","0004A30B0021DF70",44.979,16.7091,"","","Prijedor","",26875765,"2024-06-05T01:44:00",3,"NO ERROR",15.84,100,999.36,0.08,0.09,0.09],
    [3217,363171,"Vazduh","Libelium","0004A30B0021DF70",44.979,16.7091,"","","Prijedor","",26878201,"2024-06-05T05:46:49",3,"NO ERROR",14.28,100,999.59,0.32,0.4,0.41],
    [3218,363171,"Vazduh","Libelium","0004A30B0021DF70",44.979,16.7091,"","","Prijedor","",26878911,"2024-06-05T06:47:31",3,"NO ERROR",17.8,100,999.9,0.02,0.12,0.2],
    [3219,363171,"Vazduh","Libelium","0004A30B0021DF70",44.979,16.7091,"","","Prijedor","",26879519,"2024-06-05T07:48:13",3,"NO ERROR",22.36,90.4,1000.45,0.13,0.18,0.18],
    [3220,363171,"Vazduh","Libelium","0004A30B0021DF70",44.979,16.7091,"","","Prijedor","",26880116,"2024-06-05T08:48:55",3,"NO ERROR",23.54,83.2,1000.59,0.1,0.14,0.14],
    [3221,363171,"Vazduh","Libelium","0004A30B0021DF70",44.979,16.7091,"","","Prijedor","",26880702,"2024-06-05T09:49:37",3,"NO ERROR",27.1,60.8,1000.4,0.38,0.5,0.51],
    [3222,363171,"Vazduh","Libelium","0004A30B0021DF70",44.979,16.7091,"","","Prijedor","",26881307,"2024-06-05T10:50:19",3,"NO ERROR",27.18,51.1,1000.21,0.03,0.11,0.18],
    [3223,363171,"Vazduh","Libelium","0004A30B0021DF70",44.979,16.7091,"","","Prijedor","",26881883,"2024-06-05T11:51:01",3,"NO ERROR",26.07,59.9,1000.2,0.05,0.08,0.08],
    [3224,363171,"Vazduh","Libelium","0004A30B0021DF70",44.979,16.7091,"","","Prijedor","",26882473,"2024-06-05T12:51:43",3,"NO ERROR",27.68,52.7,999.85,0.09,0.11,0.11],
    [3225,363171,"Vazduh","Libelium","0004A30B0021DF70",44.979,16.7091,"","","Prijedor","",26883128,"2024-06-05T13:52:32",3,"NO ERROR",29.58,47.2,999.52,0,0,0],
    [3226,363171,"Vazduh","Libelium","0004A30B0021DF70",44.979,16.7091,"","","Prijedor","",26883792,"2024-06-05T14:53:20",3,"NO ERROR",30.02,42.8,999.18,0.04,0.05,0.05],
    [3227,363171,"Vazduh","Libelium","0004A30B0021DF70",44.979,16.7091,"","","Prijedor","",26884407,"2024-06-05T15:54:02",3,"NO ERROR",32.48,40.7,998.88,0.03,0.03,0.03],
    [3228,363171,"Vazduh","Libelium","0004A30B0021DF70",44.979,16.7091,"","","Prijedor","",26884976,"2024-06-05T16:54:44",3,"NO ERROR",33.43,38.6,998.44,0.19,0.3,0.31],
    [3229,363171,"Vazduh","Libelium","0004A30B0021DF70",44.979,16.7091,"","","Prijedor","",26885601,"2024-06-05T17:55:26",3,"NO ERROR",28.83,45.4,998.42,0.07,0.09,0.09],
    [3230,363171,"Vazduh","Libelium","0004A30B0021DF70",44.979,16.7091,"","","Prijedor","",26886220,"2024-06-05T18:56:08",3,"NO ERROR",24.93,60.1,998.88,0.16,0.31,1.62],
    [3231,363171,"Vazduh","Libelium","0004A30B0021DF70",44.979,16.7091,"","","Prijedor","",26886761,"2024-06-05T19:56:50",3,"NO ERROR",24.18,65.5,998.92,0.1,0.13,0.13],
    [3232,363171,"Vazduh","Libelium","0004A30B0021DF70",44.979,16.7091,"","","Prijedor","",26887368,"2024-06-05T20:57:32",3,"NO ERROR",22.08,81.2,999.68,0.28,0.48,0.87],
    [3233,363171,"Vazduh","Libelium","0004A30B0021DF70",44.979,16.7091,"","","Prijedor","",26887999,"2024-06-05T21:58:20",3,"NO ERROR",20.41,100,1000.57,0.1,0.16,0.18],
    [3234,363171,"Vazduh","Libelium","0004A30B0021DF70",44.979,16.7091,"","","Prijedor","",26888611,"2024-06-05T22:59:02",3,"NO ERROR",18.97,100,1000.81,0.19,0.42,1.07],
    [3235,363171,"Vazduh","Libelium","0004A30B0021DF70",44.979,16.7091,"","","Prijedor","",26889391,"2024-06-05T23:59:50",3,"NO ERROR",17.79,100,1001.11,0.2,0.26,0.26],
    [3236,363171,"Vazduh","Libelium","0004A30B0021DF70",44.979,16.7091,"","","Prijedor","",26890115,"2024-06-06T01:00:32",3,"NO ERROR",16.57,100,1001.32,0.23,0.32,0.32],
    [3237,363171,"Vazduh","Libelium","0004A30B0021DF70",44.979,16.7091,"","","Prijedor","",26890756,"2024-06-06T02:01:14",3,"NO ERROR",16.27,100,1001.19,0.09,0.11,0.11],
    [3238,363171,"Vazduh","Libelium","0004A30B0021DF70",44.979,16.7091,"","","Prijedor","",26891394,"2024-06-06T03:01:57",3,"NO ERROR",14.93,100,1001.32,0.18,0.2,0.2],
    [3239,363171,"Vazduh","Libelium","0004A30B0021DF70",44.979,16.7091,"","","Prijedor","",26892000,"2024-06-06T04:02:39",3,"NO ERROR",14.39,100,1001.53,0.44,0.51,0.51],
    [3240,363171,"Vazduh","Libelium","0004A30B0021DF70",44.979,16.7091,"","","Prijedor","",26892650,"2024-06-06T05:03:21",3,"NO ERROR",13.92,100,1002,0.38,0.41,0.41],
    [3241,363171,"Vazduh","Libelium","0004A30B0021DF70",44.979,16.7091,"","","Prijedor","",26893386,"2024-06-06T06:04:03",3,"NO ERROR",13.62,100,1002.42,0.16,0.2,0.2],
    [3242,363171,"Vazduh","Libelium","0004A30B0021DF70",44.979,16.7091,"","","Prijedor","",26894043,"2024-06-06T07:04:45",3,"NO ERROR",20.04,97.4,1002.92,0.11,0.16,0.16],
    [3243,363171,"Vazduh","Libelium","0004A30B0021DF70",44.979,16.7091,"","","Prijedor","",26894648,"2024-06-06T08:05:27",3,"NO ERROR",24.25,77.5,1003.26,0.04,0.07,0.07],
    [3244,363171,"Vazduh","Libelium","0004A30B0021DF70",44.979,16.7091,"","","Prijedor","",26895288,"2024-06-06T09:06:09",3,"NO ERROR",24.89,71.8,1003.2,0.22,0.33,0.33],
    [3245,363171,"Vazduh","Libelium","0004A30B0021DF70",44.979,16.7091,"","","Prijedor","",26895882,"2024-06-06T10:06:51",3,"NO ERROR",26.94,63.2,1003.06,0.11,0.12,0.12],
    [3246,363171,"Vazduh","Libelium","0004A30B0021DF70",44.979,16.7091,"","","Prijedor","",26896495,"2024-06-06T11:07:33",3,"NO ERROR",26.92,53.2,1002.92,0.19,0.29,0.3],
    [3247,363171,"Vazduh","Libelium","0004A30B0021DF70",44.979,16.7091,"","","Prijedor","",26897088,"2024-06-06T12:08:15",3,"NO ERROR",28.76,47.2,1002.66,0.18,0.35,0.39],
    [3248,363171,"Vazduh","Libelium","0004A30B0021DF70",44.979,16.7091,"","","Prijedor","",26897720,"2024-06-06T13:08:57",3,"NO ERROR",29.48,46.7,1002.44,0.21,0.37,0.39],
    [3249,363171,"Vazduh","Libelium","0004A30B0021DF70",44.979,16.7091,"","","Prijedor","",26898417,"2024-06-06T14:09:40",3,"NO ERROR",31.95,42.6,1002.05,0.08,0.11,0.11],
    [3250,363171,"Vazduh","Libelium","0004A30B0021DF70",44.979,16.7091,"","","Prijedor","",26899101,"2024-06-06T15:10:22",3,"NO ERROR",32.78,40.2,1001.49,0.05,0.08,0.08],
    [3251,363171,"Vazduh","Libelium","0004A30B0021DF70",44.979,16.7091,"","","Prijedor","",26899727,"2024-06-06T16:11:04",3,"NO ERROR",33.78,39.3,1000.88,0.02,0.02,0.02],
    [3252,363171,"Vazduh","Libelium","0004A30B0021DF70",44.979,16.7091,"","","Prijedor","",26900324,"2024-06-06T17:11:46",3,"NO ERROR",31.37,41.1,1000.42,0.04,0.12,0.15],
    [3253,363171,"Vazduh","Libelium","0004A30B0021DF70",44.979,16.7091,"","","Prijedor","",26900968,"2024-06-06T18:12:28",3,"NO ERROR",29.94,44.5,1000.04,0.07,0.1,0.1],
    [3254,363171,"Vazduh","Libelium","0004A30B0021DF70",44.979,16.7091,"","","Prijedor","",26901609,"2024-06-06T19:13:10",3,"NO ERROR",28.56,49.3,999.86,0.17,0.22,0.22],
    [3255,363171,"Vazduh","Libelium","0004A30B0021DF70",44.979,16.7091,"","","Prijedor","",26902176,"2024-06-06T20:13:52",3,"NO ERROR",27.19,55.7,999.95,0.27,0.33,0.33],
    [3256,363171,"Vazduh","Libelium","0004A30B0021DF70",44.979,16.7091,"","","Prijedor","",26902815,"2024-06-06T21:14:34",3,"NO ERROR",23.87,75,1000.29,0.13,0.14,0.14],
    [3257,363171,"Vazduh","Libelium","0004A30B0021DF70",44.979,16.7091,"","","Prijedor","",26903446,"2024-06-06T22:15:16",3,"NO ERROR",21.83,96.6,1000.69,0.14,0.36,0.94],
    [3258,363171,"Vazduh","Libelium","0004A30B0021DF70",44.979,16.7091,"","","Prijedor","",26904047,"2024-06-06T23:15:58",3,"NO ERROR",20.56,98.9,1000.92,0.08,0.19,0.48],
    [3259,363171,"Vazduh","Libelium","0004A30B0021DF70",44.979,16.7091,"","","Prijedor","",26904957,"2024-06-07T00:16:40",3,"NO ERROR",19.37,100,1000.82,0.18,0.31,0.32],
    [3260,363171,"Vazduh","Libelium","0004A30B0021DF70",44.979,16.7091,"","","Prijedor","",26905740,"2024-06-07T01:17:22",3,"NO ERROR",17.86,100,1001.13,0.15,0.24,0.24],
    [3261,363171,"Vazduh","Libelium","0004A30B0021DF70",44.979,16.7091,"","","Prijedor","",26906458,"2024-06-07T02:18:05",3,"NO ERROR",17.35,100,1001.17,0.21,0.26,0.27],
    [3262,363171,"Vazduh","Libelium","0004A30B0021DF70",44.979,16.7091,"","","Prijedor","",26907168,"2024-06-07T03:18:47",3,"NO ERROR",16.48,100,1001.2,0.07,0.09,0.09],
    [3263,363171,"Vazduh","Libelium","0004A30B0021DF70",44.979,16.7091,"","","Prijedor","",26907834,"2024-06-07T04:19:29",3,"NO ERROR",16.44,100,1001.08,0.17,0.18,0.18],
    [3264,363171,"Vazduh","Libelium","0004A30B0021DF70",44.979,16.7091,"","","Prijedor","",26908543,"2024-06-07T05:20:11",3,"NO ERROR",15.9,100,1001.12,0.26,0.36,0.36],
    [3265,363171,"Vazduh","Libelium","0004A30B0021DF70",44.979,16.7091,"","","Prijedor","",26909272,"2024-06-07T06:20:53",3,"NO ERROR",17.34,100,1001.72,0.17,0.24,0.25],
    [3266,363171,"Vazduh","Libelium","0004A30B0021DF70",44.979,16.7091,"","","Prijedor","",26909969,"2024-06-07T07:21:35",3,"NO ERROR",23.76,87.5,1001.76,0.21,0.31,0.31],
    [3267,363171,"Vazduh","Libelium","0004A30B0021DF70",44.979,16.7091,"","","Prijedor","",26910574,"2024-06-07T08:22:17",3,"NO ERROR",25.64,74.1,1001.86,0.3,0.49,0.52],
    [3268,363171,"Vazduh","Libelium","0004A30B0021DF70",44.979,16.7091,"","","Prijedor","",26911176,"2024-06-07T09:22:59",3,"NO ERROR",28.87,59.9,1001.98,0.12,0.24,0.32],
    [3269,363171,"Vazduh","Libelium","0004A30B0021DF70",44.979,16.7091,"","","Prijedor","",26911786,"2024-06-07T10:23:41",3,"NO ERROR",28.38,61.2,1001.85,0.15,0.18,0.18],
    [3270,363171,"Vazduh","Libelium","0004A30B0021DF70",44.979,16.7091,"","","Prijedor","",26912365,"2024-06-07T11:24:23",3,"NO ERROR",30.11,58.6,1001.62,0.02,0.02,0.02],
    [3271,363171,"Vazduh","Libelium","0004A30B0021DF70",44.979,16.7091,"","","Prijedor","",26912925,"2024-06-07T12:25:05",3,"NO ERROR",30.09,55.2,1001.35,0.24,0.41,0.5],
    [3272,363171,"Vazduh","Libelium","0004A30B0021DF70",44.979,16.7091,"","","Prijedor","",26913566,"2024-06-07T13:25:48",3,"NO ERROR",30.69,57.5,1001.04,0.05,0.11,0.11],
    [3273,363171,"Vazduh","Libelium","0004A30B0021DF70",44.979,16.7091,"","","Prijedor","",26914189,"2024-06-07T14:26:30",3,"NO ERROR",32,54,1000.67,0.07,0.11,0.12],
    [3274,363171,"Vazduh","Libelium","0004A30B0021DF70",44.979,16.7091,"","","Prijedor","",26914867,"2024-06-07T15:27:12",3,"NO ERROR",33.85,47.7,999.97,0.09,0.13,5.71],
    [3275,363171,"Vazduh","Libelium","0004A30B0021DF70",44.979,16.7091,"","","Prijedor","",26915508,"2024-06-07T16:27:54",3,"NO ERROR",35.53,43.8,999.43,0.05,0.08,0.08],
    [3276,363171,"Vazduh","Libelium","0004A30B0021DF70",44.979,16.7091,"","","Prijedor","",26916106,"2024-06-07T17:28:36",3,"NO ERROR",34.39,47.4,999.16,0.12,0.19,0.2],
    [3277,363171,"Vazduh","Libelium","0004A30B0021DF70",44.979,16.7091,"","","Prijedor","",26916742,"2024-06-07T18:29:18",3,"NO ERROR",31.1,54.2,998.9,0.07,0.1,0.1],
    [3278,363171,"Vazduh","Libelium","0004A30B0021DF70",44.979,16.7091,"","","Prijedor","",26917350,"2024-06-07T19:30:00",3,"NO ERROR",29.94,57.5,998.84,0.04,0.08,0.09],
    [3279,363171,"Vazduh","Libelium","0004A30B0021DF70",44.979,16.7091,"","","Prijedor","",26917916,"2024-06-07T20:30:42",3,"NO ERROR",27.74,71.4,998.78,0.15,0.29,0.37],
    [3280,363171,"Vazduh","Libelium","0004A30B0021DF70",44.979,16.7091,"","","Prijedor","",26918570,"2024-06-07T21:31:24",3,"NO ERROR",26.73,80,999.71,0.65,1,1.09],
    [3281,363171,"Vazduh","Libelium","0004A30B0021DF70",44.979,16.7091,"","","Prijedor","",26919165,"2024-06-07T22:32:06",3,"NO ERROR",24.7,100,1000.05,0.25,0.39,0.49],
    [3282,363171,"Vazduh","Libelium","0004A30B0021DF70",44.979,16.7091,"","","Prijedor","",26919777,"2024-06-07T23:32:48",3,"NO ERROR",22.55,100,1000.1,0.2,0.26,0.28],
    [3283,363171,"Vazduh","Libelium","0004A30B0021DF70",44.979,16.7091,"","","Prijedor","",26920671,"2024-06-08T00:33:30",3,"NO ERROR",21.5,100,999.93,0.29,0.4,0.41],
    [3284,363171,"Vazduh","Libelium","0004A30B0021DF70",44.979,16.7091,"","","Prijedor","",26921397,"2024-06-08T01:34:13",3,"NO ERROR",20.34,100,1000.04,0.1,0.21,0.29],
    [3285,363171,"Vazduh","Libelium","0004A30B0021DF70",44.979,16.7091,"","","Prijedor","",26922116,"2024-06-08T02:34:55",3,"NO ERROR",19.49,100,999.76,0.27,0.32,0.32],
    [3286,363171,"Vazduh","Libelium","0004A30B0021DF70",44.979,16.7091,"","","Prijedor","",26922796,"2024-06-08T03:35:37",3,"NO ERROR",18.78,100,999.78,0.25,0.29,0.3],
    [3287,363171,"Vazduh","Libelium","0004A30B0021DF70",44.979,16.7091,"","","Prijedor","",26923369,"2024-06-08T04:36:25",3,"NO ERROR",17.94,100,999.65,0.15,0.19,0.19],
    [3288,363171,"Vazduh","Libelium","0004A30B0021DF70",44.979,16.7091,"","","Prijedor","",26924030,"2024-06-08T05:37:07",3,"NO ERROR",18.14,100,999.9,0.27,0.45,7.71],
    [3289,363171,"Vazduh","Libelium","0004A30B0021DF70",44.979,16.7091,"","","Prijedor","",26924694,"2024-06-08T06:37:55",3,"NO ERROR",19.93,100,1000.07,0.02,0.02,0.02],
    [3290,363171,"Vazduh","Libelium","0004A30B0021DF70",44.979,16.7091,"","","Prijedor","",26925327,"2024-06-08T07:38:37",3,"NO ERROR",22.43,100,1000.05,0.12,0.15,0.15],
    [3291,363171,"Vazduh","Libelium","0004A30B0021DF70",44.979,16.7091,"","","Prijedor","",26925933,"2024-06-08T08:39:19",3,"NO ERROR",27.77,79.3,999.9,0.13,0.17,0.17],
    [3292,363171,"Vazduh","Libelium","0004A30B0021DF70",44.979,16.7091,"","","Prijedor","",26926541,"2024-06-08T09:40:01",3,"NO ERROR",28.01,80.3,999.54,0.03,0.03,0.03],
    [3293,363171,"Vazduh","Libelium","0004A30B0021DF70",44.979,16.7091,"","","Prijedor","",26927158,"2024-06-08T10:40:43",3,"NO ERROR",28.97,75.3,999.23,0.19,0.34,0.36],
    [3294,363171,"Vazduh","Libelium","0004A30B0021DF70",44.979,16.7091,"","","Prijedor","",26927746,"2024-06-08T11:41:25",3,"NO ERROR",29.27,69.3,998.73,0.11,0.22,0.28],
    [3295,363171,"Vazduh","Libelium","0004A30B0021DF70",44.979,16.7091,"","","Prijedor","",26928361,"2024-06-08T12:42:07",3,"NO ERROR",31.63,59.4,998.14,0.15,0.18,0.18],
    [3296,363171,"Vazduh","Libelium","0004A30B0021DF70",44.979,16.7091,"","","Prijedor","",26929038,"2024-06-08T13:42:49",3,"NO ERROR",33.01,55.5,997.68,0.12,0.17,0.18],
    [3297,363171,"Vazduh","Libelium","0004A30B0021DF70",44.979,16.7091,"","","Prijedor","",26929738,"2024-06-08T14:43:38",3,"NO ERROR",32.86,59,996.89,0.1,0.13,0.13],
    [3298,363171,"Vazduh","Libelium","0004A30B0021DF70",44.979,16.7091,"","","Prijedor","",26930382,"2024-06-08T15:44:20",3,"NO ERROR",35.7,51.6,996.15,0.08,0.24,0.4],
    [3299,363171,"Vazduh","Libelium","0004A30B0021DF70",44.979,16.7091,"","","Prijedor","",26930987,"2024-06-08T16:45:02",3,"NO ERROR",35.44,47.9,995.43,0.16,0.19,0.19],
    [3300,363171,"Vazduh","Libelium","0004A30B0021DF70",44.979,16.7091,"","","Prijedor","",26931598,"2024-06-08T17:45:44",3,"NO ERROR",34.24,49.5,994.74,0.06,0.06,0.06],
    [3301,363171,"Vazduh","Libelium","0004A30B0021DF70",44.979,16.7091,"","","Prijedor","",26932240,"2024-06-08T18:46:26",3,"NO ERROR",31.7,58.7,994.55,0.07,0.08,0.08],
    [3302,363171,"Vazduh","Libelium","0004A30B0021DF70",44.979,16.7091,"","","Prijedor","",26932827,"2024-06-08T19:47:08",3,"NO ERROR",29.84,66.2,994.36,0.06,0.18,0.26],
    [3303,363171,"Vazduh","Libelium","0004A30B0021DF70",44.979,16.7091,"","","Prijedor","",26933427,"2024-06-08T20:47:50",3,"NO ERROR",27.82,88.7,993.93,0.27,0.34,0.35],
    [3304,363171,"Vazduh","Libelium","0004A30B0021DF70",44.979,16.7091,"","","Prijedor","",26934046,"2024-06-08T21:48:32",3,"NO ERROR",25.59,100,994.73,0.23,0.29,0.29],
    [3305,363171,"Vazduh","Libelium","0004A30B0021DF70",44.979,16.7091,"","","Prijedor","",26934661,"2024-06-08T22:49:14",3,"NO ERROR",24.93,100,993.96,0.31,0.39,0.39],
    [3306,363171,"Vazduh","Libelium","0004A30B0021DF70",44.979,16.7091,"","","Prijedor","",26935311,"2024-06-08T23:49:57",3,"NO ERROR",22.71,100,994.8,0.08,0.1,0.1],
    [3307,363171,"Vazduh","Libelium","0004A30B0021DF70",44.979,16.7091,"","","Prijedor","",26936174,"2024-06-09T00:50:51",3,"NO ERROR",22.85,100,994.7,0.33,0.61,1.18],
    [3308,363171,"Vazduh","Libelium","0004A30B0021DF70",44.979,16.7091,"","","Prijedor","",26936756,"2024-06-09T01:51:33",3,"NO ERROR",21.78,100,994.42,0.67,0.86,0.87],
    [3309,363171,"Vazduh","Libelium","0004A30B0021DF70",44.979,16.7091,"","","Prijedor","",26937384,"2024-06-09T02:52:15",3,"NO ERROR",20.92,100,994.22,0.25,0.37,0.39],
    [3310,363171,"Vazduh","Libelium","0004A30B0021DF70",44.979,16.7091,"","","Prijedor","",26937963,"2024-06-09T03:52:57",3,"NO ERROR",20.3,100,994.06,0.15,0.18,0.18],
    [3311,363171,"Vazduh","Libelium","0004A30B0021DF70",44.979,16.7091,"","","Prijedor","",26938553,"2024-06-09T04:53:39",3,"NO ERROR",19.69,100,994.28,0.14,0.17,0.17],
    [3312,363171,"Vazduh","Libelium","0004A30B0021DF70",44.979,16.7091,"","","Prijedor","",26939243,"2024-06-09T05:54:21",3,"NO ERROR",19.74,100,994.5,0.26,0.41,0.49],
    [3313,363171,"Vazduh","Libelium","0004A30B0021DF70",44.979,16.7091,"","","Prijedor","",26939912,"2024-06-09T06:55:09",3,"NO ERROR",21.55,100,994.59,0.1,0.13,0.13],
    [3314,363171,"Vazduh","Libelium","0004A30B0021DF70",44.979,16.7091,"","","Prijedor","",26940536,"2024-06-09T07:55:51",3,"NO ERROR",24.41,100,994.94,0.14,0.19,0.19],
    [3315,363171,"Vazduh","Libelium","0004A30B0021DF70",44.979,16.7091,"","","Prijedor","",26941166,"2024-06-09T08:56:33",3,"NO ERROR",27.52,83.9,994.77,0.24,0.34,0.35],
    [3316,363171,"Vazduh","Libelium","0004A30B0021DF70",44.979,16.7091,"","","Prijedor","",26941783,"2024-06-09T09:57:21",3,"NO ERROR",31.33,55.3,994.7,0.08,0.12,0.14],
    [3317,363171,"Vazduh","Libelium","0004A30B0021DF70",44.979,16.7091,"","","Prijedor","",26942377,"2024-06-09T10:58:03",3,"NO ERROR",31.48,56.7,994.59,0.29,0.41,0.41],
    [3318,363171,"Vazduh","Libelium","0004A30B0021DF70",44.979,16.7091,"","","Prijedor","",26943007,"2024-06-09T11:58:45",3,"NO ERROR",33,48.6,994.59,0.91,1.24,1.26],
    [3319,363171,"Vazduh","Libelium","0004A30B0021DF70",44.979,16.7091,"","","Prijedor","",26943622,"2024-06-09T12:59:28",3,"NO ERROR",33.05,48.1,994.12,0.62,0.89,0.98],
    [3320,363171,"Vazduh","Libelium","0004A30B0021DF70",44.979,16.7091,"","","Prijedor","",26944294,"2024-06-09T14:00:10",3,"NO ERROR",33.78,47.5,993.45,0.58,0.76,0.77],
    [3321,363171,"Vazduh","Libelium","0004A30B0021DF70",44.979,16.7091,"","","Prijedor","",26944984,"2024-06-09T15:00:52",3,"NO ERROR",33.21,49.3,993.12,0.59,0.87,0.95],
    [3322,363171,"Vazduh","Libelium","0004A30B0021DF70",44.979,16.7091,"","","Prijedor","",26945605,"2024-06-09T16:01:34",3,"NO ERROR",33.25,49.9,992.22,0.51,0.71,0.8],
    [3323,363171,"Vazduh","Libelium","0004A30B0021DF70",44.979,16.7091,"","","Prijedor","",26946213,"2024-06-09T17:02:16",3,"NO ERROR",32.05,48,991.84,0.36,0.43,0.43],
    [3324,363171,"Vazduh","Libelium","0004A30B0021DF70",44.979,16.7091,"","","Prijedor","",26946820,"2024-06-09T18:02:58",3,"NO ERROR",30.49,70.3,991.9,0.45,0.64,0.66],
    [3325,363171,"Vazduh","Libelium","0004A30B0021DF70",44.979,16.7091,"","","Prijedor","",26947442,"2024-06-09T19:03:40",3,"NO ERROR",29.39,79.3,991.97,0.34,0.48,0.49],
    [3326,363171,"Vazduh","Libelium","0004A30B0021DF70",44.979,16.7091,"","","Prijedor","",26948021,"2024-06-09T20:04:22",3,"NO ERROR",27.79,80.4,991.76,0.34,0.52,0.6],
    [3327,363171,"Vazduh","Libelium","0004A30B0021DF70",44.979,16.7091,"","","Prijedor","",26948647,"2024-06-09T21:05:04",3,"NO ERROR",26.2,100,991.32,0.7,1.12,8.72],
    [3328,363171,"Vazduh","Libelium","0004A30B0021DF70",44.979,16.7091,"","","Prijedor","",26949266,"2024-06-09T22:05:53",3,"NO ERROR",25.6,100,991.6,0.59,0.75,0.76],
    [3329,363171,"Vazduh","Libelium","0004A30B0021DF70",44.979,16.7091,"","","Prijedor","",26949883,"2024-06-09T23:06:34",3,"NO ERROR",24.62,100,990.89,0.71,0.88,0.89],
    [3330,363171,"Vazduh","Libelium","0004A30B0021DF70",44.979,16.7091,"","","Prijedor","",26950718,"2024-06-10T00:07:17",3,"NO ERROR",23.31,100,990.42,0.58,0.68,0.69],
    [3331,363171,"Vazduh","Libelium","0004A30B0021DF70",44.979,16.7091,"","","Prijedor","",26951427,"2024-06-10T01:07:59",3,"NO ERROR",22.92,100,989.93,0.48,0.6,0.6],
    [3332,363171,"Vazduh","Libelium","0004A30B0021DF70",44.979,16.7091,"","","Prijedor","",26952109,"2024-06-10T02:08:41",3,"NO ERROR",22.04,100,989.47,0.47,0.6,0.61],
    [3333,363171,"Vazduh","Libelium","0004A30B0021DF70",44.979,16.7091,"","","Prijedor","",26952839,"2024-06-10T03:09:23",3,"NO ERROR",22.04,100,990.47,0.45,0.6,0.62],
    [3334,363171,"Vazduh","Libelium","0004A30B0021DF70",44.979,16.7091,"","","Prijedor","",26953454,"2024-06-10T04:10:05",3,"NO ERROR",22.37,100,989.64,0.51,0.76,0.77],
    [3335,363171,"Vazduh","Libelium","0004A30B0021DF70",44.979,16.7091,"","","Prijedor","",26954107,"2024-06-10T05:10:47",3,"NO ERROR",23.08,85.4,988.79,0.26,0.31,0.31],
    [3336,363171,"Vazduh","Libelium","0004A30B0021DF70",44.979,16.7091,"","","Prijedor","",26954815,"2024-06-10T06:11:29",3,"NO ERROR",23.17,82.7,988.36,0.52,0.64,0.64],
    [3337,363171,"Vazduh","Libelium","0004A30B0021DF70",44.979,16.7091,"","","Prijedor","",26955452,"2024-06-10T07:12:11",3,"NO ERROR",28.26,64,988.26,0.21,0.28,0.29],
    [3338,363171,"Vazduh","Libelium","0004A30B0021DF70",44.979,16.7091,"","","Prijedor","",26956053,"2024-06-10T08:12:59",3,"NO ERROR",25.91,72.5,989.08,0.44,0.62,0.64],
    [3339,363171,"Vazduh","Libelium","0004A30B0021DF70",44.979,16.7091,"","","Prijedor","",26956676,"2024-06-10T09:13:41",3,"NO ERROR",21.16,92.7,990.53,0.37,0.44,0.45],
    [3340,363171,"Vazduh","Libelium","0004A30B0021DF70",44.979,16.7091,"","","Prijedor","",26957241,"2024-06-10T10:14:23",3,"NO ERROR",20.37,100,990.44,0.55,0.67,0.67],
    [3341,363171,"Vazduh","Libelium","0004A30B0021DF70",44.979,16.7091,"","","Prijedor","",26957828,"2024-06-10T11:15:05",3,"NO ERROR",23.91,89.6,989.97,0.52,0.66,0.67],
    [3342,363171,"Vazduh","Libelium","0004A30B0021DF70",44.979,16.7091,"","","Prijedor","",26958461,"2024-06-10T12:15:47",3,"NO ERROR",25.96,78.3,989.48,0.26,0.34,0.35],
    [3343,363171,"Vazduh","Libelium","0004A30B0021DF70",44.979,16.7091,"","","Prijedor","",26959058,"2024-06-10T13:16:29",3,"NO ERROR",28.08,68.7,989.2,0.21,0.23,0.23],
    [3344,363171,"Vazduh","Libelium","0004A30B0021DF70",44.979,16.7091,"","","Prijedor","",26959709,"2024-06-10T14:17:12",3,"NO ERROR",31.48,52.9,989.03,0.32,0.46,0.47],
    [3345,363171,"Vazduh","Libelium","0004A30B0021DF70",44.979,16.7091,"","","Prijedor","",26960364,"2024-06-10T15:17:54",3,"NO ERROR",33.29,45.5,988.96,0.38,0.52,0.83],
    [3346,363171,"Vazduh","Libelium","0004A30B0021DF70",44.979,16.7091,"","","Prijedor","",26962206,"2024-06-10T18:20:00",3,"NO ERROR",29.74,48.3,989.05,0.47,0.62,0.62],
    [3347,363171,"Vazduh","Libelium","0004A30B0021DF70",44.979,16.7091,"","","Prijedor","",26962798,"2024-06-10T19:20:42",3,"NO ERROR",27.92,52.2,989.52,0.61,0.76,0.76],
    [3348,363171,"Vazduh","Libelium","0004A30B0021DF70",44.979,16.7091,"","","Prijedor","",26963387,"2024-06-10T20:21:24",3,"NO ERROR",25.62,59.9,990.04,0.63,1.08,1.17],
    [3349,363171,"Vazduh","Libelium","0004A30B0021DF70",44.979,16.7091,"","","Prijedor","",26965222,"2024-06-10T23:23:36",3,"NO ERROR",20.97,99.4,991.64,0.61,0.76,0.77],
    [3350,363171,"Vazduh","Libelium","0004A30B0021DF70",44.979,16.7091,"","","Prijedor","",27075119,"2024-06-18T05:26:32",3,"NO ERROR",16.2,100,1002.61,0.16,0.21,0.21],
    [3351,363171,"Vazduh","Libelium","0004A30B0021DF70",44.979,16.7091,"","","Prijedor","",27075863,"2024-06-18T06:27:14",3,"NO ERROR",17.39,100,1002.92,0.16,0.18,0.18],
    [3352,363171,"Vazduh","Libelium","0004A30B0021DF70",44.979,16.7091,"","","Prijedor","",27076513,"2024-06-18T07:27:56",3,"NO ERROR",25.32,82.4,1002.98,0.24,0.53,0.79],
    [3353,363171,"Vazduh","Libelium","0004A30B0021DF70",44.979,16.7091,"","","Prijedor","",27077070,"2024-06-18T08:28:45",3,"NO ERROR",27.61,67.9,1003.46,0.22,0.42,0.58],
    [3354,363171,"Vazduh","Libelium","0004A30B0021DF70",44.979,16.7091,"","","Prijedor","",27077752,"2024-06-18T09:29:27",3,"NO ERROR",28.16,62.9,1003.29,0.1,0.13,0.13],
    [3355,363171,"Vazduh","Libelium","0004A30B0021DF70",44.979,16.7091,"","","Prijedor","",27078337,"2024-06-18T10:30:09",3,"NO ERROR",28.73,52.5,1003.32,0.12,0.18,0.2],
    [3356,363171,"Vazduh","Libelium","0004A30B0021DF70",44.979,16.7091,"","","Prijedor","",27078883,"2024-06-18T11:30:51",3,"NO ERROR",30.29,50.8,1003.08,0.13,0.2,0.21],
    [3357,363171,"Vazduh","Libelium","0004A30B0021DF70",44.979,16.7091,"","","Prijedor","",27079545,"2024-06-18T12:31:45",3,"NO ERROR",30.98,44.8,1002.75,0.05,0.05,0.05],
    [3358,363171,"Vazduh","Libelium","0004A30B0021DF70",44.979,16.7091,"","","Prijedor","",27080213,"2024-06-18T13:32:27",3,"NO ERROR",32.5,43.6,1002.53,0.11,0.21,0.21],
    [3359,363171,"Vazduh","Libelium","0004A30B0021DF70",44.979,16.7091,"","","Prijedor","",27080840,"2024-06-18T14:33:09",3,"NO ERROR",33.63,37.3,1002,0.29,0.47,0.5],
    [3360,363171,"Vazduh","Libelium","0004A30B0021DF70",44.979,16.7091,"","","Prijedor","",27081563,"2024-06-18T15:33:51",3,"NO ERROR",36.07,35.9,1001.82,0.05,0.05,0.05],
    [3361,363171,"Vazduh","Libelium","0004A30B0021DF70",44.979,16.7091,"","","Prijedor","",27082170,"2024-06-18T16:34:33",3,"NO ERROR",36.09,37,1001.31,0.04,0.06,0.06],
    [3362,363171,"Vazduh","Libelium","0004A30B0021DF70",44.979,16.7091,"","","Prijedor","",27082776,"2024-06-18T17:35:16",3,"NO ERROR",36.12,36.7,1000.91,0.1,0.17,0.18],
    [3363,363171,"Vazduh","Libelium","0004A30B0021DF70",44.979,16.7091,"","","Prijedor","",27083476,"2024-06-18T18:35:58",3,"NO ERROR",31.34,45,1000.46,0.02,0.04,0.05],
    [3364,363171,"Vazduh","Libelium","0004A30B0021DF70",44.979,16.7091,"","","Prijedor","",27084067,"2024-06-18T19:36:40",3,"NO ERROR",29.64,54.7,1000.39,0.05,0.05,0.05],
    [3365,363171,"Vazduh","Libelium","0004A30B0021DF70",44.979,16.7091,"","","Prijedor","",27084645,"2024-06-18T20:37:28",3,"NO ERROR",27.57,71.5,1000.44,0.26,0.41,0.44],
    [3366,363171,"Vazduh","Libelium","0004A30B0021DF70",44.979,16.7091,"","","Prijedor","",27085333,"2024-06-18T21:38:10",3,"NO ERROR",24.8,85.6,1000.98,0.07,0.07,0.07],
    [3367,363171,"Vazduh","Libelium","0004A30B0021DF70",44.979,16.7091,"","","Prijedor","",27085962,"2024-06-18T22:38:52",3,"NO ERROR",22.33,100,1000.99,0.25,0.35,0.37],
    [3368,363171,"Vazduh","Libelium","0004A30B0021DF70",44.979,16.7091,"","","Prijedor","",27086575,"2024-06-18T23:39:34",3,"NO ERROR",20.76,100,1000.94,0.16,0.34,0.43],
    [3369,363171,"Vazduh","Libelium","0004A30B0021DF70",44.979,16.7091,"","","Prijedor","",27123883,"2024-06-21T09:20:03",3,"NO ERROR",30.33,81,1001.66,1.07,1.36,1.76],
    [3370,363171,"Vazduh","Libelium","0004A30B0021DF70",44.979,16.7091,"","","Prijedor","",27124481,"2024-06-21T10:20:45",3,"NO ERROR",30.46,73.3,1001.45,1.42,1.93,5.06],
    [3371,363171,"Vazduh","Libelium","0004A30B0021DF70",44.979,16.7091,"","","Prijedor","",27125079,"2024-06-21T11:21:27",3,"NO ERROR",32.63,71.4,1000.98,1.39,1.83,1.84],
    [3372,363171,"Vazduh","Libelium","0004A30B0021DF70",44.979,16.7091,"","","Prijedor","",27125727,"2024-06-21T12:22:15",3,"NO ERROR",34.13,64.2,1000.49,2.05,3.01,3.59],
    [3373,363171,"Vazduh","Libelium","0004A30B0021DF70",44.979,16.7091,"","","Prijedor","",27126025,"2024-06-21T13:23:04",3,"NO ERROR",35.62,57.8,999.83,2.23,2.98,3.12],
    [3374,363171,"Vazduh","Libelium","0004A30B0021DF70",44.979,16.7091,"","","Prijedor","",27126394,"2024-06-21T14:23:45",3,"NO ERROR",36.74,50.8,999.29,3.09,4.27,4.49],
    [3375,363171,"Vazduh","Libelium","0004A30B0021DF70",44.979,16.7091,"","","Prijedor","",27128184,"2024-06-21T16:25:28",3,"NO ERROR",38.69,46.2,998.07,2.41,3.45,3.7],
    [3376,363171,"Vazduh","Libelium","0004A30B0021DF70",44.979,16.7091,"","","Prijedor","",27128824,"2024-06-21T17:26:10",3,"NO ERROR",36.7,60.3,997.57,1.61,2.48,4.1],
    [3377,363171,"Vazduh","Libelium","0004A30B0021DF70",44.979,16.7091,"","","Prijedor","",27129512,"2024-06-21T18:26:52",3,"NO ERROR",34.55,65.7,997.66,2.2,2.86,2.91],
    [3378,363171,"Vazduh","Libelium","0004A30B0021DF70",44.979,16.7091,"","","Prijedor","",27130093,"2024-06-21T19:27:34",3,"NO ERROR",32.74,79.2,997.49,1.5,2.01,2.12],
    [3379,363171,"Vazduh","Libelium","0004A30B0021DF70",44.979,16.7091,"","","Prijedor","",27130629,"2024-06-21T20:28:16",3,"NO ERROR",31.29,88.4,997.52,1.86,2.5,2.53],
    [3380,363171,"Vazduh","Libelium","0004A30B0021DF70",44.979,16.7091,"","","Prijedor","",27131321,"2024-06-21T21:28:58",3,"NO ERROR",29.15,100,997.63,1.46,1.98,2.1],
    [3381,363171,"Vazduh","Libelium","0004A30B0021DF70",44.979,16.7091,"","","Prijedor","",27131958,"2024-06-21T22:29:40",3,"NO ERROR",27.58,100,997.61,1.4,1.76,1.78],
    [3382,363171,"Vazduh","Libelium","0004A30B0021DF70",44.979,16.7091,"","","Prijedor","",27132532,"2024-06-21T23:30:22",3,"NO ERROR",26.97,100,997.33,1.39,2.03,2.51],
    [3383,363171,"Vazduh","Libelium","0004A30B0021DF70",44.979,16.7091,"","","Prijedor","",27133427,"2024-06-22T00:31:04",3,"NO ERROR",26.34,100,996.96,2.04,2.81,2.89],
    [3384,363171,"Vazduh","Libelium","0004A30B0021DF70",44.979,16.7091,"","","Prijedor","",27134091,"2024-06-22T01:31:47",3,"NO ERROR",25.37,100,996.24,2.31,3.09,3.21],
    [3385,363171,"Vazduh","Libelium","0004A30B0021DF70",44.979,16.7091,"","","Prijedor","",27134690,"2024-06-22T02:32:29",3,"NO ERROR",24.77,100,995.32,2.61,3.31,3.33],
    [3386,363171,"Vazduh","Libelium","0004A30B0021DF70",44.979,16.7091,"","","Prijedor","",27135290,"2024-06-22T03:33:11",3,"NO ERROR",24.26,100,994.53,1.98,2.72,2.87],
    [3387,363171,"Vazduh","Libelium","0004A30B0021DF70",44.979,16.7091,"","","Prijedor","",27135891,"2024-06-22T04:33:53",3,"NO ERROR",23.69,100,994.28,2.7,3.56,3.7],
    [3388,363171,"Vazduh","Libelium","0004A30B0021DF70",44.979,16.7091,"","","Prijedor","",27136555,"2024-06-22T05:34:35",3,"NO ERROR",24.01,100,994.05,1.68,2.27,2.37],
    [3389,363171,"Vazduh","Libelium","0004A30B0021DF70",44.979,16.7091,"","","Prijedor","",27137251,"2024-06-22T06:35:17",3,"NO ERROR",24.71,100,993.9,2.01,2.62,2.65],
    [3390,363171,"Vazduh","Libelium","0004A30B0021DF70",44.979,16.7091,"","","Prijedor","",27137876,"2024-06-22T07:36:05",3,"NO ERROR",28.34,100,993.95,1.83,2.39,2.42],
    [3391,363171,"Vazduh","Libelium","0004A30B0021DF70",44.979,16.7091,"","","Prijedor","",27138463,"2024-06-22T08:36:47",3,"NO ERROR",29.89,95.2,994.3,1.86,2.47,2.85],
    [3392,363171,"Vazduh","Libelium","0004A30B0021DF70",44.979,16.7091,"","","Prijedor","",27139102,"2024-06-22T09:37:29",3,"NO ERROR",32.93,81.6,993.96,1.59,2.22,2.28],
    [3393,363171,"Vazduh","Libelium","0004A30B0021DF70",44.979,16.7091,"","","Prijedor","",27139690,"2024-06-22T10:38:11",3,"NO ERROR",34.56,61.7,993.73,3.17,4.36,9.84],
    [3394,363171,"Vazduh","Libelium","0004A30B0021DF70",44.979,16.7091,"","","Prijedor","",27140272,"2024-06-22T11:38:53",3,"NO ERROR",34.08,59.6,993.61,4.53,6.28,6.5],
    [3395,363171,"Vazduh","Libelium","0004A30B0021DF70",44.979,16.7091,"","","Prijedor","",27140909,"2024-06-22T12:39:35",3,"NO ERROR",34.21,59,993.5,3.56,4.58,4.71],
    [3396,363171,"Vazduh","Libelium","0004A30B0021DF70",44.979,16.7091,"","","Prijedor","",27141569,"2024-06-22T13:40:18",3,"NO ERROR",35.16,52.7,993.09,2.88,4.09,5.63],
    [3397,363171,"Vazduh","Libelium","0004A30B0021DF70",44.979,16.7091,"","","Prijedor","",27142213,"2024-06-22T14:41:06",3,"NO ERROR",33.46,65.8,993.11,1.9,2.78,3],
    [3398,363171,"Vazduh","Libelium","0004A30B0021DF70",44.979,16.7091,"","","Prijedor","",27142867,"2024-06-22T15:41:48",3,"NO ERROR",30.01,78.4,992.75,0.9,1.41,2.63],
    [3399,363171,"Vazduh","Libelium","0004A30B0021DF70",44.979,16.7091,"","","Prijedor","",27143448,"2024-06-22T16:42:30",3,"NO ERROR",29.25,100,992.74,0.93,1.28,1.3],
    [3400,363171,"Vazduh","Libelium","0004A30B0021DF70",44.979,16.7091,"","","Prijedor","",27144056,"2024-06-22T17:43:12",3,"NO ERROR",29.61,66.6,992.68,0.69,0.88,0.89],
    [3401,363171,"Vazduh","Libelium","0004A30B0021DF70",44.979,16.7091,"","","Prijedor","",27144686,"2024-06-22T18:44:06",3,"NO ERROR",28.25,71.6,992.38,0.95,1.23,1.24],
    [3402,363171,"Vazduh","Libelium","0004A30B0021DF70",44.979,16.7091,"","","Prijedor","",27145226,"2024-06-22T19:44:48",3,"NO ERROR",26.83,75.3,993.57,0.5,0.77,0.85],
    [3403,363171,"Vazduh","Libelium","0004A30B0021DF70",44.979,16.7091,"","","Prijedor","",27145844,"2024-06-22T20:45:30",3,"NO ERROR",25.41,80.4,994.27,1.26,1.82,1.86],
    [3404,363171,"Vazduh","Libelium","0004A30B0021DF70",44.979,16.7091,"","","Prijedor","",27146481,"2024-06-22T21:46:12",3,"NO ERROR",23.96,100,994.28,0.6,0.71,0.71],
    [3405,363171,"Vazduh","Libelium","0004A30B0021DF70",44.979,16.7091,"","","Prijedor","",27147056,"2024-06-22T22:46:54",3,"NO ERROR",22.44,100,994.42,0.64,0.73,0.73],
    [3406,363171,"Vazduh","Libelium","0004A30B0021DF70",44.979,16.7091,"","","Prijedor","",27147682,"2024-06-22T23:47:36",3,"NO ERROR",21.4,100,994.59,0.38,0.73,0.76],
    [3407,363171,"Vazduh","Libelium","0004A30B0021DF70",44.979,16.7091,"","","Prijedor","",27148613,"2024-06-23T00:48:18",3,"NO ERROR",21.44,100,994.32,0.31,0.42,0.42],
    [3408,363171,"Vazduh","Libelium","0004A30B0021DF70",44.979,16.7091,"","","Prijedor","",27149200,"2024-06-23T01:49:01",3,"NO ERROR",22.51,100,994.4,0.19,0.28,0.29],
    [3409,363171,"Vazduh","Libelium","0004A30B0021DF70",44.979,16.7091,"","","Prijedor","",27149814,"2024-06-23T02:49:43",3,"NO ERROR",22.7,95.5,994.71,0.15,0.21,0.21],
    [3410,363171,"Vazduh","Libelium","0004A30B0021DF70",44.979,16.7091,"","","Prijedor","",27150432,"2024-06-23T03:50:25",3,"NO ERROR",22.39,98.4,994.78,0.24,0.3,0.3],
    [3411,363171,"Vazduh","Libelium","0004A30B0021DF70",44.979,16.7091,"","","Prijedor","",27151060,"2024-06-23T04:51:13",3,"NO ERROR",21.3,100,995.42,0.31,0.38,0.38],
    [3412,363171,"Vazduh","Libelium","0004A30B0021DF70",44.979,16.7091,"","","Prijedor","",27151798,"2024-06-23T05:51:55",3,"NO ERROR",21.07,100,995.64,0.14,0.21,0.22],
    [3413,363171,"Vazduh","Libelium","0004A30B0021DF70",44.979,16.7091,"","","Prijedor","",27152498,"2024-06-23T06:52:37",3,"NO ERROR",21.93,100,996.2,0.09,0.17,0.18],
    [3414,363171,"Vazduh","Libelium","0004A30B0021DF70",44.979,16.7091,"","","Prijedor","",27153157,"2024-06-23T07:53:19",3,"NO ERROR",22.24,98.3,996.76,0.02,0.02,0.02],
    [3415,363171,"Vazduh","Libelium","0004A30B0021DF70",44.979,16.7091,"","","Prijedor","",27153799,"2024-06-23T08:54:01",3,"NO ERROR",23.12,85.6,997.09,0.08,0.12,0.13],
    [3416,363171,"Vazduh","Libelium","0004A30B0021DF70",44.979,16.7091,"","","Prijedor","",27154426,"2024-06-23T09:54:43",3,"NO ERROR",24.63,74.5,997.24,0.02,0.02,0.02],
    [3417,363171,"Vazduh","Libelium","0004A30B0021DF70",44.979,16.7091,"","","Prijedor","",27155057,"2024-06-23T10:55:25",3,"NO ERROR",26.87,65.1,997.15,0.06,0.11,0.11],
    [3418,363171,"Vazduh","Libelium","0004A30B0021DF70",44.979,16.7091,"","","Prijedor","",27155755,"2024-06-23T11:56:07",3,"NO ERROR",27.61,59.3,997.08,0.09,0.1,0.1],
    [3419,363171,"Vazduh","Libelium","0004A30B0021DF70",44.979,16.7091,"","","Prijedor","",27156465,"2024-06-23T12:56:49",3,"NO ERROR",28.13,57.6,996.84,0.07,0.11,0.12],
    [3420,363171,"Vazduh","Libelium","0004A30B0021DF70",44.979,16.7091,"","","Prijedor","",27157172,"2024-06-23T13:57:31",3,"NO ERROR",29.1,54.7,996.81,0.06,0.08,0.08],
    [3421,363171,"Vazduh","Libelium","0004A30B0021DF70",44.979,16.7091,"","","Prijedor","",27157937,"2024-06-23T14:58:14",3,"NO ERROR",29.27,53.7,996.5,0.02,0.02,0.02],
    [3422,363171,"Vazduh","Libelium","0004A30B0021DF70",44.979,16.7091,"","","Prijedor","",27158643,"2024-06-23T15:58:56",3,"NO ERROR",27.95,60.5,996.44,0.08,0.24,0.33],
    [3423,363171,"Vazduh","Libelium","0004A30B0021DF70",44.979,16.7091,"","","Prijedor","",27159302,"2024-06-23T16:59:38",3,"NO ERROR",26.49,68.6,996.55,0.17,0.25,0.25],
    [3424,363171,"Vazduh","Libelium","0004A30B0021DF70",44.979,16.7091,"","","Prijedor","",27160014,"2024-06-23T18:00:20",3,"NO ERROR",26.1,75.4,996.46,0.42,0.52,0.52],
    [3425,363171,"Vazduh","Libelium","0004A30B0021DF70",44.979,16.7091,"","","Prijedor","",27160725,"2024-06-23T19:01:02",3,"NO ERROR",25.15,82.9,996.86,0.26,0.42,0.45],
    [3426,363171,"Vazduh","Libelium","0004A30B0021DF70",44.979,16.7091,"","","Prijedor","",27161340,"2024-06-23T20:01:44",3,"NO ERROR",24.84,86.4,996.92,0.31,0.41,0.41],
    [3427,363171,"Vazduh","Libelium","0004A30B0021DF70",44.979,16.7091,"","","Prijedor","",27162057,"2024-06-23T21:02:26",3,"NO ERROR",24.37,90.5,997.35,0.8,0.91,0.92],
    [3428,363171,"Vazduh","Libelium","0004A30B0021DF70",44.979,16.7091,"","","Prijedor","",27162758,"2024-06-23T22:03:08",3,"NO ERROR",23.55,98.7,997.5,0.3,0.41,0.42],
    [3429,363171,"Vazduh","Libelium","0004A30B0021DF70",44.979,16.7091,"","","Prijedor","",27163432,"2024-06-23T23:03:50",3,"NO ERROR",23.11,100,997.9,0.63,0.9,0.91],
    [3430,363171,"Vazduh","Libelium","0004A30B0021DF70",44.979,16.7091,"","","Prijedor","",27164335,"2024-06-24T00:04:32",3,"NO ERROR",22.83,100,997.83,0.57,0.72,0.72],
    [3431,363171,"Vazduh","Libelium","0004A30B0021DF70",44.979,16.7091,"","","Prijedor","",27214931,"2024-06-27T03:57:44",3,"NO ERROR",18.51,100,994.85,1.57,1.78,1.78],
    [3432,363171,"Vazduh","Libelium","0004A30B0021DF70",44.979,16.7091,"","","Prijedor","",27215545,"2024-06-27T04:58:32",3,"NO ERROR",18.6,100,995.48,0.81,1.06,1.08],
    [3433,363171,"Vazduh","Libelium","0004A30B0021DF70",44.979,16.7091,"","","Prijedor","",27216271,"2024-06-27T05:59:14",3,"NO ERROR",18.89,100,995.73,0.83,0.94,0.94],
    [3434,363171,"Vazduh","Libelium","0004A30B0021DF70",44.979,16.7091,"","","Prijedor","",27216965,"2024-06-27T06:59:56",3,"NO ERROR",19.59,100,995.75,0.65,0.84,0.85],
    [3435,363171,"Vazduh","Libelium","0004A30B0021DF70",44.979,16.7091,"","","Prijedor","",27217567,"2024-06-27T08:00:38",3,"NO ERROR",19.68,100,996.2,0.5,0.55,0.55],
    [3436,363171,"Vazduh","Libelium","0004A30B0021DF70",44.979,16.7091,"","","Prijedor","",27218222,"2024-06-27T09:01:20",3,"NO ERROR",21.78,100,996.2,0.19,0.29,0.38],
    [3437,363171,"Vazduh","Libelium","0004A30B0021DF70",44.979,16.7091,"","","Prijedor","",27218842,"2024-06-27T10:02:03",3,"NO ERROR",26.81,96.7,996.39,0.16,0.18,0.18],
    [3438,363171,"Vazduh","Libelium","0004A30B0021DF70",44.979,16.7091,"","","Prijedor","",27219474,"2024-06-27T11:02:48",3,"NO ERROR",26.35,98.5,996.32,0.25,0.31,0.31],
    [3439,363171,"Vazduh","Libelium","0004A30B0021DF70",44.979,16.7091,"","","Prijedor","",27220150,"2024-06-27T12:03:27",3,"NO ERROR",27.28,83.3,996.16,0.3,0.35,0.35],
    [3440,363171,"Vazduh","Libelium","0004A30B0021DF70",44.979,16.7091,"","","Prijedor","",27220798,"2024-06-27T13:04:09",3,"NO ERROR",27.9,71.4,996.04,0.24,0.33,0.33],
    [3441,363171,"Vazduh","Libelium","0004A30B0021DF70",44.979,16.7091,"","","Prijedor","",27221466,"2024-06-27T14:04:51",3,"NO ERROR",26.61,87.9,996.25,0.48,0.63,0.63],
    [3442,363171,"Vazduh","Libelium","0004A30B0021DF70",44.979,16.7091,"","","Prijedor","",27222160,"2024-06-27T15:05:33",3,"NO ERROR",28.81,78.6,996.15,0.27,0.31,0.31],
    [3443,363171,"Vazduh","Libelium","0004A30B0021DF70",44.979,16.7091,"","","Prijedor","",27222804,"2024-06-27T16:06:21",3,"NO ERROR",29.97,66.1,996.08,0.62,0.74,0.74],
    [3444,363171,"Vazduh","Libelium","0004A30B0021DF70",44.979,16.7091,"","","Prijedor","",27223394,"2024-06-27T17:07:03",3,"NO ERROR",28.66,71.4,995.94,0.33,0.46,0.55],
    [3445,363171,"Vazduh","Libelium","0004A30B0021DF70",44.979,16.7091,"","","Prijedor","",27224026,"2024-06-27T18:07:45",3,"NO ERROR",26.29,93.6,996.33,0.33,0.41,0.41],
    [3446,363171,"Vazduh","Libelium","0004A30B0021DF70",44.979,16.7091,"","","Prijedor","",27224654,"2024-06-27T19:08:27",3,"NO ERROR",26.29,87.9,996.38,0.83,1.07,1.08],
    [3447,363171,"Vazduh","Libelium","0004A30B0021DF70",44.979,16.7091,"","","Prijedor","",27225210,"2024-06-27T20:09:09",3,"NO ERROR",24.6,98.3,996.24,0.55,0.77,0.8],
    [3448,363171,"Vazduh","Libelium","0004A30B0021DF70",44.979,16.7091,"","","Prijedor","",27225869,"2024-06-27T21:09:51",3,"NO ERROR",23.33,100,996.87,0.33,0.52,0.53],
    [3449,363171,"Vazduh","Libelium","0004A30B0021DF70",44.979,16.7091,"","","Prijedor","",27226512,"2024-06-27T22:10:33",3,"NO ERROR",21.95,100,997.66,0.39,0.51,0.51],
    [3450,363171,"Vazduh","Libelium","0004A30B0021DF70",44.979,16.7091,"","","Prijedor","",27227086,"2024-06-27T23:11:15",3,"NO ERROR",20.94,100,998.05,1.01,1.23,1.25],
    [3451,363171,"Vazduh","Libelium","0004A30B0021DF70",44.979,16.7091,"","","Prijedor","",27227912,"2024-06-28T00:11:57",3,"NO ERROR",20,100,998.14,0.33,0.48,0.49],
    [3452,363171,"Vazduh","Libelium","0004A30B0021DF70",44.979,16.7091,"","","Prijedor","",27228696,"2024-06-28T01:12:40",3,"NO ERROR",19.76,100,998.62,0.21,0.33,0.43],
    [3453,363171,"Vazduh","Libelium","0004A30B0021DF70",44.979,16.7091,"","","Prijedor","",27229404,"2024-06-28T02:13:22",3,"NO ERROR",19.04,100,998.49,0.54,0.72,0.72],
    [3454,363171,"Vazduh","Libelium","0004A30B0021DF70",44.979,16.7091,"","","Prijedor","",27230087,"2024-06-28T03:14:04",3,"NO ERROR",18.53,100,998.44,0.31,0.47,0.85],
    [3455,363171,"Vazduh","Libelium","0004A30B0021DF70",44.979,16.7091,"","","Prijedor","",27230740,"2024-06-28T04:14:46",3,"NO ERROR",17.94,100,998.68,0.66,0.84,1.65],
    [3456,363171,"Vazduh","Libelium","0004A30B0021DF70",44.979,16.7091,"","","Prijedor","",27231419,"2024-06-28T05:15:34",3,"NO ERROR",17.49,100,999.32,1.74,3.16,50.84],
    [3457,363171,"Vazduh","Libelium","0004A30B0021DF70",44.979,16.7091,"","","Prijedor","",27232149,"2024-06-28T06:16:16",3,"NO ERROR",18.47,100,999.71,0.24,0.44,0.74],
    [3458,363171,"Vazduh","Libelium","0004A30B0021DF70",44.979,16.7091,"","","Prijedor","",27232798,"2024-06-28T07:16:58",3,"NO ERROR",24.2,100,1000.02,0.3,0.32,0.32],
    [3459,363171,"Vazduh","Libelium","0004A30B0021DF70",44.979,16.7091,"","","Prijedor","",27233421,"2024-06-28T08:17:40",3,"NO ERROR",27.42,80.9,1000.03,0.24,0.38,0.41],
    [3460,363171,"Vazduh","Libelium","0004A30B0021DF70",44.979,16.7091,"","","Prijedor","",27234050,"2024-06-28T09:18:22",3,"NO ERROR",28.59,76.4,1000.37,0.41,0.57,0.58],
    [3461,363171,"Vazduh","Libelium","0004A30B0021DF70",44.979,16.7091,"","","Prijedor","",27234641,"2024-06-28T10:19:04",3,"NO ERROR",30.49,68.4,1000.79,0.47,0.61,0.61],
    [3462,363171,"Vazduh","Libelium","0004A30B0021DF70",44.979,16.7091,"","","Prijedor","",27235235,"2024-06-28T11:19:46",3,"NO ERROR",29.04,74.3,1000.9,0.19,0.23,0.23],
    [3463,363171,"Vazduh","Libelium","0004A30B0021DF70",44.979,16.7091,"","","Prijedor","",27235867,"2024-06-28T12:20:28",3,"NO ERROR",30.49,63.6,1000.68,0.3,0.48,0.56],
    [3464,363171,"Vazduh","Libelium","0004A30B0021DF70",44.979,16.7091,"","","Prijedor","",27236492,"2024-06-28T13:21:10",3,"NO ERROR",30.6,66.5,1000.78,0.43,0.64,0.72],
    [3465,363171,"Vazduh","Libelium","0004A30B0021DF70",44.979,16.7091,"","","Prijedor","",27237144,"2024-06-28T14:21:53",3,"NO ERROR",33.23,54.6,1000.61,0.61,0.83,0.85],
    [3466,363171,"Vazduh","Libelium","0004A30B0021DF70",44.979,16.7091,"","","Prijedor","",27237817,"2024-06-28T15:22:35",3,"NO ERROR",33.58,53.1,1000.31,0.31,0.41,0.41],
    [3467,363171,"Vazduh","Libelium","0004A30B0021DF70",44.979,16.7091,"","","Prijedor","",27238404,"2024-06-28T16:23:17",3,"NO ERROR",34.29,50.3,1000.17,0.16,0.18,0.18],
    [3468,363171,"Vazduh","Libelium","0004A30B0021DF70",44.979,16.7091,"","","Prijedor","",27239046,"2024-06-28T17:23:59",3,"NO ERROR",33.41,51.5,1000.18,0.41,0.51,0.51],
    [3469,363171,"Vazduh","Libelium","0004A30B0021DF70",44.979,16.7091,"","","Prijedor","",27239686,"2024-06-28T18:24:41",3,"NO ERROR",30.72,59.7,1000.03,0.13,0.16,0.17],
    [3470,363171,"Vazduh","Libelium","0004A30B0021DF70",44.979,16.7091,"","","Prijedor","",27240268,"2024-06-28T19:25:23",3,"NO ERROR",29.45,67.3,1000.8,0.19,0.29,0.3],
    [3471,363171,"Vazduh","Libelium","0004A30B0021DF70",44.979,16.7091,"","","Prijedor","",27240836,"2024-06-28T20:26:05",3,"NO ERROR",27.73,85.2,1000.86,0.24,0.31,0.31],
    [3472,363171,"Vazduh","Libelium","0004A30B0021DF70",44.979,16.7091,"","","Prijedor","",27241505,"2024-06-28T21:26:47",3,"NO ERROR",26.15,100,1001.71,0.37,0.51,0.51],
    [3473,363171,"Vazduh","Libelium","0004A30B0021DF70",44.979,16.7091,"","","Prijedor","",27242152,"2024-06-28T22:27:29",3,"NO ERROR",24.36,100,1002.44,0.15,0.21,0.21],
    [3474,363171,"Vazduh","Libelium","0004A30B0021DF70",44.979,16.7091,"","","Prijedor","",27242754,"2024-06-28T23:28:24",3,"NO ERROR",22.75,100,1002.94,0.21,0.3,0.31],
    [3475,363171,"Vazduh","Libelium","0004A30B0021DF70",44.979,16.7091,"","","Prijedor","",27243618,"2024-06-29T00:29:06",3,"NO ERROR",21.97,100,1002.82,0.44,0.6,0.6],
    [3476,363171,"Vazduh","Libelium","0004A30B0021DF70",44.979,16.7091,"","","Prijedor","",27244325,"2024-06-29T01:29:48",3,"NO ERROR",21.28,100,1002.94,0.45,0.49,0.49],
    [3477,363171,"Vazduh","Libelium","0004A30B0021DF70",44.979,16.7091,"","","Prijedor","",27244943,"2024-06-29T02:30:30",3,"NO ERROR",20.84,100,1003.04,0.14,0.17,0.17],
    [3478,363171,"Vazduh","Libelium","0004A30B0021DF70",44.979,16.7091,"","","Prijedor","",27245605,"2024-06-29T03:31:12",3,"NO ERROR",19.77,100,1003.06,0.2,0.33,0.39],
    [3479,363171,"Vazduh","Libelium","0004A30B0021DF70",44.979,16.7091,"","","Prijedor","",27246218,"2024-06-29T04:31:54",3,"NO ERROR",19.67,100,1003.42,0.96,1.36,7.39],
    [3480,363171,"Vazduh","Libelium","0004A30B0021DF70",44.979,16.7091,"","","Prijedor","",27246914,"2024-06-29T05:32:36",3,"NO ERROR",19.85,100,1003.58,2.19,3.98,116.52],
    [3481,363171,"Vazduh","Libelium","0004A30B0021DF70",44.979,16.7091,"","","Prijedor","",27247575,"2024-06-29T06:33:18",3,"NO ERROR",20.59,100,1003.88,2.68,3.92,13.35],
    [3482,363171,"Vazduh","Libelium","0004A30B0021DF70",44.979,16.7091,"","","Prijedor","",27248219,"2024-06-29T07:34:06",3,"NO ERROR",23.85,100,1004.28,0.17,0.22,0.22],
    [3483,363171,"Vazduh","Libelium","0004A30B0021DF70",44.979,16.7091,"","","Prijedor","",27248821,"2024-06-29T08:34:48",3,"NO ERROR",27.97,90.6,1004.22,0.2,0.29,0.3],
    [3484,363171,"Vazduh","Libelium","0004A30B0021DF70",44.979,16.7091,"","","Prijedor","",27249473,"2024-06-29T09:35:30",3,"NO ERROR",29.72,81.1,1004.17,0.26,0.34,0.34],
    [3485,363171,"Vazduh","Libelium","0004A30B0021DF70",44.979,16.7091,"","","Prijedor","",27250035,"2024-06-29T10:36:12",3,"NO ERROR",29.76,80.1,1003.99,0.1,0.11,0.11],
    [3486,363171,"Vazduh","Libelium","0004A30B0021DF70",44.979,16.7091,"","","Prijedor","",27251984,"2024-06-29T13:38:19",3,"NO ERROR",32.59,58.6,1002.54,0.49,0.63,0.63],
    [3487,363171,"Vazduh","Libelium","0004A30B0021DF70",44.979,16.7091,"","","Prijedor","",27280457,"2024-07-01T06:06:46",3,"NO ERROR",19.47,100,996.41,0.43,0.56,0.58],
    [3488,363171,"Vazduh","Libelium","0004A30B0021DF70",44.979,16.7091,"","","Prijedor","",27281144,"2024-07-01T07:07:28",3,"NO ERROR",24.03,98,996.76,0.5,0.64,0.64],
    [3489,363171,"Vazduh","Libelium","0004A30B0021DF70",44.979,16.7091,"","","Prijedor","",27281768,"2024-07-01T08:08:11",3,"NO ERROR",29.96,65.7,996.77,0.48,0.58,0.58],
    [3490,363171,"Vazduh","Libelium","0004A30B0021DF70",44.979,16.7091,"","","Prijedor","",27282463,"2024-07-01T09:08:59",3,"NO ERROR",32.04,57,996.32,0.33,0.43,0.43],
    [3491,363171,"Vazduh","Libelium","0004A30B0021DF70",44.979,16.7091,"","","Prijedor","",27283165,"2024-07-01T10:09:41",3,"NO ERROR",32.97,51,996.18,0.16,0.23,0.25],
    [3492,363171,"Vazduh","Libelium","0004A30B0021DF70",44.979,16.7091,"","","Prijedor","",27283793,"2024-07-01T11:10:23",3,"NO ERROR",31.55,56.6,995.66,0.36,0.5,0.88],
    [3493,363171,"Vazduh","Libelium","0004A30B0021DF70",44.979,16.7091,"","","Prijedor","",27284469,"2024-07-01T12:11:05",3,"NO ERROR",32.02,54.9,995.22,0.39,0.68,0.82],
    [3494,363171,"Vazduh","Libelium","0004A30B0021DF70",44.979,16.7091,"","","Prijedor","",27285151,"2024-07-01T13:11:47",3,"NO ERROR",32.13,54.7,994.86,0.38,0.52,0.59],
    [3495,363171,"Vazduh","Libelium","0004A30B0021DF70",44.979,16.7091,"","","Prijedor","",27285832,"2024-07-01T14:12:29",3,"NO ERROR",34.33,48.2,993.8,0.39,0.48,0.49],
    [3496,363171,"Vazduh","Libelium","0004A30B0021DF70",44.979,16.7091,"","","Prijedor","",27286489,"2024-07-01T15:13:11",3,"NO ERROR",35.33,46.6,992.93,0.21,0.31,0.38],
    [3497,363171,"Vazduh","Libelium","0004A30B0021DF70",44.979,16.7091,"","","Prijedor","",27287088,"2024-07-01T16:13:59",3,"NO ERROR",34.35,52.5,992.51,0.44,0.62,1.08],
    [3498,363171,"Vazduh","Libelium","0004A30B0021DF70",44.979,16.7091,"","","Prijedor","",27287689,"2024-07-01T17:14:41",3,"NO ERROR",32.39,61.1,992.14,0.34,0.62,0.81],
    [3499,363171,"Vazduh","Libelium","0004A30B0021DF70",44.979,16.7091,"","","Prijedor","",27288319,"2024-07-01T18:15:24",3,"NO ERROR",27.6,70.4,992.23,0.46,0.96,3.47],
    [3500,363171,"Vazduh","Libelium","0004A30B0021DF70",44.979,16.7091,"","","Prijedor","",27288917,"2024-07-01T19:16:06",3,"NO ERROR",24.83,80.5,993.23,0.12,0.17,0.18],
    [3501,363171,"Vazduh","Libelium","0004A30B0021DF70",44.979,16.7091,"","","Prijedor","",27289461,"2024-07-01T20:16:48",3,"NO ERROR",23.1,95.8,993.9,0.28,0.36,0.37],
    [3502,363171,"Vazduh","Libelium","0004A30B0021DF70",44.979,16.7091,"","","Prijedor","",27290125,"2024-07-01T21:17:36",3,"NO ERROR",22.26,100,993.94,0.11,0.21,0.52],
    [3503,363171,"Vazduh","Libelium","0004A30B0021DF70",44.979,16.7091,"","","Prijedor","",27290771,"2024-07-01T22:18:18",3,"NO ERROR",21.88,100,994.21,0.5,0.58,0.58],
    [3504,363171,"Vazduh","Libelium","0004A30B0021DF70",44.979,16.7091,"","","Prijedor","",27291387,"2024-07-01T23:19:00",3,"NO ERROR",21.65,100,994.75,0.07,0.07,0.07],
    [3505,363171,"Vazduh","Libelium","0004A30B0021DF70",44.979,16.7091,"","","Prijedor","",27292288,"2024-07-02T00:19:42",3,"NO ERROR",20.72,100,994.47,0.05,0.13,0.2],
    [3506,363171,"Vazduh","Libelium","0004A30B0021DF70",44.979,16.7091,"","","Prijedor","",27293006,"2024-07-02T01:20:24",3,"NO ERROR",20.59,100,994.46,0.19,0.28,0.28],
    [3507,363171,"Vazduh","Libelium","0004A30B0021DF70",44.979,16.7091,"","","Prijedor","",27293656,"2024-07-02T02:21:06",3,"NO ERROR",18.56,100,993.78,0.13,0.14,0.14],
    [3508,363171,"Vazduh","Libelium","0004A30B0021DF70",44.979,16.7091,"","","Prijedor","",27294284,"2024-07-02T03:21:48",3,"NO ERROR",17.88,100,994.76,0.15,0.23,0.24],
    [3509,363171,"Vazduh","Libelium","0004A30B0021DF70",44.979,16.7091,"","","Prijedor","",27294813,"2024-07-02T04:22:43",3,"NO ERROR",17.45,100,993.28,0.18,0.24,0.24],
    [3510,363171,"Vazduh","Libelium","0004A30B0021DF70",44.979,16.7091,"","","Prijedor","",27295409,"2024-07-02T05:23:24",3,"NO ERROR",17.73,100,994.07,0.1,0.13,0.13],
    [3511,363171,"Vazduh","Libelium","0004A30B0021DF70",44.979,16.7091,"","","Prijedor","",27296067,"2024-07-02T06:24:06",3,"NO ERROR",18.28,100,994.35,0,0,0],
    [3512,363171,"Vazduh","Libelium","0004A30B0021DF70",44.979,16.7091,"","","Prijedor","",27296689,"2024-07-02T07:24:48",3,"NO ERROR",18.65,100,994.64,0.02,0.02,0.02],
    [3513,363171,"Vazduh","Libelium","0004A30B0021DF70",44.979,16.7091,"","","Prijedor","",27297273,"2024-07-02T08:25:31",3,"NO ERROR",18.56,100,995.13,0.11,0.16,0.16],
    [3514,363171,"Vazduh","Libelium","0004A30B0021DF70",44.979,16.7091,"","","Prijedor","",27297886,"2024-07-02T09:26:13",3,"NO ERROR",18.26,100,995.38,0.06,0.09,0.09],
    [3515,363171,"Vazduh","Libelium","0004A30B0021DF70",44.979,16.7091,"","","Prijedor","",27298453,"2024-07-02T10:26:55",3,"NO ERROR",19.05,100,995.32,0.05,0.08,0.08],
    [3516,363171,"Vazduh","Libelium","0004A30B0021DF70",44.979,16.7091,"","","Prijedor","",27299009,"2024-07-02T11:27:37",3,"NO ERROR",19.44,100,995.78,0.15,0.17,0.17],
    [3517,363171,"Vazduh","Libelium","0004A30B0021DF70",44.979,16.7091,"","","Prijedor","",27299616,"2024-07-02T12:28:19",3,"NO ERROR",21.76,100,996.02,0.07,0.1,0.1],
    [3518,363171,"Vazduh","Libelium","0004A30B0021DF70",44.979,16.7091,"","","Prijedor","",27300255,"2024-07-02T13:29:01",3,"NO ERROR",23.71,77.1,995.89,0.07,0.14,0.22],
    [3519,363171,"Vazduh","Libelium","0004A30B0021DF70",44.979,16.7091,"","","Prijedor","",27300886,"2024-07-02T14:29:43",3,"NO ERROR",23.49,67.1,995.81,0.06,0.06,0.07],
    [3520,363171,"Vazduh","Libelium","0004A30B0021DF70",44.979,16.7091,"","","Prijedor","",27301511,"2024-07-02T15:30:25",3,"NO ERROR",24.09,64.5,995.47,0.13,0.15,0.15],
    [3521,363171,"Vazduh","Libelium","0004A30B0021DF70",44.979,16.7091,"","","Prijedor","",27302079,"2024-07-02T16:31:07",3,"NO ERROR",27.61,53.6,994.86,0.03,0.03,0.03],
    [3522,363171,"Vazduh","Libelium","0004A30B0021DF70",44.979,16.7091,"","","Prijedor","",27302670,"2024-07-02T17:31:55",3,"NO ERROR",28.55,51.8,994.36,0.05,0.06,0.06],
    [3523,363171,"Vazduh","Libelium","0004A30B0021DF70",44.979,16.7091,"","","Prijedor","",27303284,"2024-07-02T18:32:37",3,"NO ERROR",23.86,63.5,994.05,0.07,0.07,0.07],
    [3524,363171,"Vazduh","Libelium","0004A30B0021DF70",44.979,16.7091,"","","Prijedor","",27303863,"2024-07-02T19:33:19",3,"NO ERROR",23.65,68.9,994.14,0.02,0.02,0.02],
    [3525,363171,"Vazduh","Libelium","0004A30B0021DF70",44.979,16.7091,"","","Prijedor","",27304448,"2024-07-02T20:34:02",3,"NO ERROR",21.56,79.6,994.55,0.04,0.08,0.09],
    [3526,363171,"Vazduh","Libelium","0004A30B0021DF70",44.979,16.7091,"","","Prijedor","",27305111,"2024-07-02T21:34:44",3,"NO ERROR",19.44,99.1,995.26,0.39,0.54,0.54],
    [3527,363171,"Vazduh","Libelium","0004A30B0021DF70",44.979,16.7091,"","","Prijedor","",27305719,"2024-07-02T22:35:26",3,"NO ERROR",17.19,100,995.64,0.08,0.17,0.19],
    [3528,363171,"Vazduh","Libelium","0004A30B0021DF70",44.979,16.7091,"","","Prijedor","",27306386,"2024-07-02T23:36:08",3,"NO ERROR",16.1,100,995.63,0.1,0.11,0.11],
    [3529,363171,"Vazduh","Libelium","0004A30B0021DF70",44.979,16.7091,"","","Prijedor","",27307291,"2024-07-03T00:36:50",3,"NO ERROR",15.94,100,995.81,0.3,0.36,0.36],
    [3530,363171,"Vazduh","Libelium","0004A30B0021DF70",44.979,16.7091,"","","Prijedor","",27307968,"2024-07-03T01:37:32",3,"NO ERROR",15.27,100,995.49,0.09,0.13,0.13],
    [3531,363171,"Vazduh","Libelium","0004A30B0021DF70",44.979,16.7091,"","","Prijedor","",27308681,"2024-07-03T02:38:14",3,"NO ERROR",15.17,100,995.19,0,0,0],
    [3532,363171,"Vazduh","Libelium","0004A30B0021DF70",44.979,16.7091,"","","Prijedor","",27309344,"2024-07-03T03:38:56",3,"NO ERROR",15.47,100,994.9,0.22,0.39,0.41],
    [3533,363171,"Vazduh","Libelium","0004A30B0021DF70",44.979,16.7091,"","","Prijedor","",27309969,"2024-07-03T04:39:44",3,"NO ERROR",15.15,100,994.59,0.09,0.13,0.14],
    [3534,363171,"Vazduh","Libelium","0004A30B0021DF70",44.979,16.7091,"","","Prijedor","",27310708,"2024-07-03T05:40:26",3,"NO ERROR",15.02,100,994.88,0.18,0.2,0.2],
    [3535,363171,"Vazduh","Libelium","0004A30B0021DF70",44.979,16.7091,"","","Prijedor","",27311401,"2024-07-03T06:41:08",3,"NO ERROR",16.07,100,995.16,0.2,0.34,0.44],
    [3536,363171,"Vazduh","Libelium","0004A30B0021DF70",44.979,16.7091,"","","Prijedor","",27312053,"2024-07-03T07:41:50",3,"NO ERROR",21.38,92.5,995.24,0.03,0.05,0.05],
    [3537,363171,"Vazduh","Libelium","0004A30B0021DF70",44.979,16.7091,"","","Prijedor","",27312692,"2024-07-03T08:42:32",3,"NO ERROR",24.64,60.2,995.03,0.07,0.09,0.09],
    [3538,363171,"Vazduh","Libelium","0004A30B0021DF70",44.979,16.7091,"","","Prijedor","",27313323,"2024-07-03T09:43:14",3,"NO ERROR",25.86,50.9,994.67,0.07,0.07,0.07],
    [3539,363171,"Vazduh","Libelium","0004A30B0021DF70",44.979,16.7091,"","","Prijedor","",27313948,"2024-07-03T10:44:03",3,"NO ERROR",25.78,49.8,994.39,0.23,0.3,0.31],
    [3540,363171,"Vazduh","Libelium","0004A30B0021DF70",44.979,16.7091,"","","Prijedor","",27314583,"2024-07-03T11:44:45",3,"NO ERROR",25.21,51.7,994.05,0.16,0.18,0.18],
    [3541,363171,"Vazduh","Libelium","0004A30B0021DF70",44.979,16.7091,"","","Prijedor","",27315203,"2024-07-03T12:45:33",3,"NO ERROR",25.46,50.9,993.62,0.05,0.05,0.05],
    [3542,363171,"Vazduh","Libelium","0004A30B0021DF70",44.979,16.7091,"","","Prijedor","",27315871,"2024-07-03T13:46:15",3,"NO ERROR",26.02,45.8,993.24,0.07,0.08,0.08],
    [3543,363171,"Vazduh","Libelium","0004A30B0021DF70",44.979,16.7091,"","","Prijedor","",27316601,"2024-07-03T14:46:57",3,"NO ERROR",26.87,47.2,992.62,0.05,0.06,0.06],
    [3544,363171,"Vazduh","Libelium","0004A30B0021DF70",44.979,16.7091,"","","Prijedor","",27317270,"2024-07-03T15:47:39",3,"NO ERROR",27.44,42.8,992.24,0.08,0.09,0.09],
    [3545,363171,"Vazduh","Libelium","0004A30B0021DF70",44.979,16.7091,"","","Prijedor","",27317895,"2024-07-03T16:48:21",3,"NO ERROR",23.85,54.7,992.14,0.03,0.04,0.04],
    [3546,363171,"Vazduh","Libelium","0004A30B0021DF70",44.979,16.7091,"","","Prijedor","",27318566,"2024-07-03T17:49:03",3,"NO ERROR",23.59,57.4,992.2,0.05,0.14,0.22],
    [3547,363171,"Vazduh","Libelium","0004A30B0021DF70",44.979,16.7091,"","","Prijedor","",27319225,"2024-07-03T18:49:45",3,"NO ERROR",23.69,55.7,991.85,0.1,0.17,0.18],
    [3548,363171,"Vazduh","Libelium","0004A30B0021DF70",44.979,16.7091,"","","Prijedor","",27319844,"2024-07-03T19:50:27",3,"NO ERROR",22.35,65.7,991.69,0.08,0.18,0.19],
    [3549,363171,"Vazduh","Libelium","0004A30B0021DF70",44.979,16.7091,"","","Prijedor","",27320471,"2024-07-03T20:51:09",3,"NO ERROR",21.44,67.8,991.75,6.8,7.3,7.31],
    [3550,363171,"Vazduh","Libelium","0004A30B0021DF70",44.979,16.7091,"","","Prijedor","",27321136,"2024-07-03T21:51:58",3,"NO ERROR",21.21,72.6,992.15,0.26,0.38,0.39],
    [3551,363171,"Vazduh","Libelium","0004A30B0021DF70",44.979,16.7091,"","","Prijedor","",27321784,"2024-07-03T22:52:40",3,"NO ERROR",19.53,89.2,992.36,0.05,0.07,0.07],
    [3552,363171,"Vazduh","Libelium","0004A30B0021DF70",44.979,16.7091,"","","Prijedor","",27322450,"2024-07-03T23:53:28",3,"NO ERROR",17.54,100,992.5,0.22,0.28,0.28],
    [3553,363171,"Vazduh","Libelium","0004A30B0021DF70",44.979,16.7091,"","","Prijedor","",27323306,"2024-07-04T00:54:10",3,"NO ERROR",16.06,100,992.9,0.13,0.21,0.22],
    [3554,363171,"Vazduh","Libelium","0004A30B0021DF70",44.979,16.7091,"","","Prijedor","",27323966,"2024-07-04T01:54:52",3,"NO ERROR",15.1,100,993.07,0.1,0.18,0.19],
    [3555,363171,"Vazduh","Libelium","0004A30B0021DF70",44.979,16.7091,"","","Prijedor","",27325186,"2024-07-04T03:56:16",3,"NO ERROR",14.17,100,993.27,0.05,0.05,0.05],
    [3556,363171,"Vazduh","Libelium","0004A30B0021DF70",44.979,16.7091,"","","Prijedor","",27325802,"2024-07-04T04:56:58",3,"NO ERROR",13.54,100,993.6,0.08,0.1,0.1],
    [3557,363171,"Vazduh","Libelium","0004A30B0021DF70",44.979,16.7091,"","","Prijedor","",27326523,"2024-07-04T05:57:40",3,"NO ERROR",13.64,100,994.31,0.07,0.08,0.08],
    [3558,363171,"Vazduh","Libelium","0004A30B0021DF70",44.979,16.7091,"","","Prijedor","",27327202,"2024-07-04T06:58:22",3,"NO ERROR",18.03,100,995.28,0.02,0.02,0.02],
    [3559,363171,"Vazduh","Libelium","0004A30B0021DF70",44.979,16.7091,"","","Prijedor","",27327842,"2024-07-04T07:59:04",3,"NO ERROR",21.27,86,995.63,0.41,0.68,1.44],
    [3560,363171,"Vazduh","Libelium","0004A30B0021DF70",44.979,16.7091,"","","Prijedor","",27390336,"2024-07-08T05:04:12",3,"NO ERROR",20.71,100,998.41,0.24,0.31,0.31],
    [3561,363171,"Vazduh","Libelium","0004A30B0021DF70",44.979,16.7091,"","","Prijedor","",27391073,"2024-07-08T06:04:54",3,"NO ERROR",20.69,100,998.64,0.32,0.6,0.83],
    [3562,363171,"Vazduh","Libelium","0004A30B0021DF70",44.979,16.7091,"","","Prijedor","",27391733,"2024-07-08T07:05:36",3,"NO ERROR",22.69,100,999.19,0.06,0.08,0.08],
    [3563,363171,"Vazduh","Libelium","0004A30B0021DF70",44.979,16.7091,"","","Prijedor","",27392360,"2024-07-08T08:06:18",3,"NO ERROR",27.79,88.1,999.2,0.16,0.24,0.25],
    [3564,363171,"Vazduh","Libelium","0004A30B0021DF70",44.979,16.7091,"","","Prijedor","",27392974,"2024-07-08T09:07:00",3,"NO ERROR",30.31,75.6,999.37,0.54,0.87,1.07],
    [3565,363171,"Vazduh","Libelium","0004A30B0021DF70",44.979,16.7091,"","","Prijedor","",27393557,"2024-07-08T10:07:43",3,"NO ERROR",31.79,68.3,999.33,0.19,0.21,0.21],
    [3566,363171,"Vazduh","Libelium","0004A30B0021DF70",44.979,16.7091,"","","Prijedor","",27394211,"2024-07-08T11:08:25",3,"NO ERROR",32.21,63,999.18,0.23,0.31,0.31],
    [3567,363171,"Vazduh","Libelium","0004A30B0021DF70",44.979,16.7091,"","","Prijedor","",27394940,"2024-07-08T12:09:07",3,"NO ERROR",31.9,63.8,999.19,0.31,0.38,0.38],
    [3568,363171,"Vazduh","Libelium","0004A30B0021DF70",44.979,16.7091,"","","Prijedor","",27395550,"2024-07-08T13:09:49",3,"NO ERROR",33.04,61.4,999.35,0.12,0.15,0.15],
    [3569,363171,"Vazduh","Libelium","0004A30B0021DF70",44.979,16.7091,"","","Prijedor","",27396216,"2024-07-08T14:10:31",3,"NO ERROR",33.88,56.8,998.94,0.25,0.42,0.43],
    [3570,363171,"Vazduh","Libelium","0004A30B0021DF70",44.979,16.7091,"","","Prijedor","",27396915,"2024-07-08T15:11:13",3,"NO ERROR",35.13,52.8,998.58,0.22,0.35,0.38],
    [3571,363171,"Vazduh","Libelium","0004A30B0021DF70",44.979,16.7091,"","","Prijedor","",27397507,"2024-07-08T16:11:55",3,"NO ERROR",36.3,49.2,998.36,0.19,0.34,0.42],
    [3572,363171,"Vazduh","Libelium","0004A30B0021DF70",44.979,16.7091,"","","Prijedor","",27398123,"2024-07-08T17:12:37",3,"NO ERROR",35.97,47,998.28,0.13,0.2,0.21],
    [3573,363171,"Vazduh","Libelium","0004A30B0021DF70",44.979,16.7091,"","","Prijedor","",27398768,"2024-07-08T18:13:19",3,"NO ERROR",33.34,55.5,998.3,0.08,0.12,0.12],
    [3574,363171,"Vazduh","Libelium","0004A30B0021DF70",44.979,16.7091,"","","Prijedor","",27399373,"2024-07-08T19:14:01",3,"NO ERROR",32.07,63.6,998.51,0.27,0.33,0.33],
    [3575,363171,"Vazduh","Libelium","0004A30B0021DF70",44.979,16.7091,"","","Prijedor","",27399934,"2024-07-08T20:14:56",3,"NO ERROR",30.12,78.4,998.68,0.46,0.68,0.7],
    [3576,363171,"Vazduh","Libelium","0004A30B0021DF70",44.979,16.7091,"","","Prijedor","",27400571,"2024-07-08T21:15:38",3,"NO ERROR",28.45,92,999.37,0.14,0.25,0.26],
    [3577,363171,"Vazduh","Libelium","0004A30B0021DF70",44.979,16.7091,"","","Prijedor","",27401306,"2024-07-08T22:23:06",3,"NO ERROR",26.97,100,999.66,0.12,0.15,0.16],
    [3578,363171,"Vazduh","Libelium","0004A30B0021DF70",44.979,16.7091,"","","Prijedor","",27401302,"2024-07-08T22:23:05",3,"NO ERROR",26.97,100,999.66,0.12,0.15,0.16],
    [3579,363171,"Vazduh","Libelium","0004A30B0021DF70",44.979,16.7091,"","","Prijedor","",27401130,"2024-07-08T22:16:20",3,"NO ERROR",26.97,100,999.66,0.12,0.15,0.16],
    [3580,363171,"Vazduh","Libelium","0004A30B0021DF70",44.979,16.7091,"","","Prijedor","",27402422,"2024-07-08T23:17:02",3,"NO ERROR",25.56,100,1000.08,0.27,0.36,0.37],
    [3581,363171,"Vazduh","Libelium","0004A30B0021DF70",44.979,16.7091,"","","Prijedor","",27403285,"2024-07-09T00:17:44",3,"NO ERROR",24.33,100,1000.15,0.1,0.11,0.11],
    [3582,363171,"Vazduh","Libelium","0004A30B0021DF70",44.979,16.7091,"","","Prijedor","",27403937,"2024-07-09T01:18:26",3,"NO ERROR",23.87,100,1000.36,0.39,0.5,0.5],
    [3583,363171,"Vazduh","Libelium","0004A30B0021DF70",44.979,16.7091,"","","Prijedor","",27404556,"2024-07-09T02:19:08",3,"NO ERROR",23.6,100,1000.59,0.23,0.27,0.28],
    [3584,363171,"Vazduh","Libelium","0004A30B0021DF70",44.979,16.7091,"","","Prijedor","",27405205,"2024-07-09T03:19:56",3,"NO ERROR",23.14,100,1000.65,0.4,0.6,3.45],
    [3585,363171,"Vazduh","Libelium","0004A30B0021DF70",44.979,16.7091,"","","Prijedor","",27405812,"2024-07-09T04:20:38",3,"NO ERROR",22.23,100,1000.56,0.12,0.12,0.12],
    [3586,363171,"Vazduh","Libelium","0004A30B0021DF70",44.979,16.7091,"","","Prijedor","",27406461,"2024-07-09T05:21:20",3,"NO ERROR",22.02,100,1000.8,0.4,0.58,0.67],
    [3587,363171,"Vazduh","Libelium","0004A30B0021DF70",44.979,16.7091,"","","Prijedor","",27407147,"2024-07-09T06:22:02",3,"NO ERROR",22.51,100,1001.14,0.25,0.33,0.34],
    [3588,363171,"Vazduh","Libelium","0004A30B0021DF70",44.979,16.7091,"","","Prijedor","",27407830,"2024-07-09T07:22:44",3,"NO ERROR",27.03,100,1001.57,0.08,0.1,0.1],
    [3589,363171,"Vazduh","Libelium","0004A30B0021DF70",44.979,16.7091,"","","Prijedor","",27408455,"2024-07-09T08:23:33",3,"NO ERROR",29.78,86.5,1001.82,0.05,0.05,0.05],
    [3590,363171,"Vazduh","Libelium","0004A30B0021DF70",44.979,16.7091,"","","Prijedor","",27409107,"2024-07-09T09:24:15",3,"NO ERROR",32.15,71.7,1001.73,0.07,0.14,0.15],
    [3591,363171,"Vazduh","Libelium","0004A30B0021DF70",44.979,16.7091,"","","Prijedor","",27410300,"2024-07-09T11:25:51",3,"NO ERROR",32.55,70.5,1001.17,0.08,0.22,0.31],
    [3592,363171,"Vazduh","Libelium","0004A30B0021DF70",44.979,16.7091,"","","Prijedor","",27410938,"2024-07-09T12:26:33",3,"NO ERROR",32.47,72.4,1000.83,0.06,0.07,0.07],
    [3593,363171,"Vazduh","Libelium","0004A30B0021DF70",44.979,16.7091,"","","Prijedor","",27411623,"2024-07-09T13:27:15",3,"NO ERROR",33.53,67.8,1000.66,0.12,0.14,0.14],
    [3594,363171,"Vazduh","Libelium","0004A30B0021DF70",44.979,16.7091,"","","Prijedor","",27412268,"2024-07-09T14:27:57",3,"NO ERROR",35.14,60.6,1000.02,0.19,0.28,0.29],
    [3595,363171,"Vazduh","Libelium","0004A30B0021DF70",44.979,16.7091,"","","Prijedor","",27412949,"2024-07-09T15:28:39",3,"NO ERROR",37.55,44.4,999.77,0.1,0.19,0.2],
    [3596,363171,"Vazduh","Libelium","0004A30B0021DF70",44.979,16.7091,"","","Prijedor","",27413563,"2024-07-09T16:29:21",3,"NO ERROR",37.62,43.8,999.36,0.05,0.08,0.09],
    [3597,363171,"Vazduh","Libelium","0004A30B0021DF70",44.979,16.7091,"","","Prijedor","",27414185,"2024-07-09T17:30:03",3,"NO ERROR",34.87,50.9,999.07,0.12,0.17,0.17],
    [3598,363171,"Vazduh","Libelium","0004A30B0021DF70",44.979,16.7091,"","","Prijedor","",27414843,"2024-07-09T18:30:46",3,"NO ERROR",34.05,53.5,999.2,0.29,0.32,0.32],
    [3599,363171,"Vazduh","Libelium","0004A30B0021DF70",44.979,16.7091,"","","Prijedor","",27415432,"2024-07-09T19:31:28",3,"NO ERROR",31.73,64.2,999.34,0.35,0.41,0.41],
    [3600,363171,"Vazduh","Libelium","0004A30B0021DF70",44.979,16.7091,"","","Prijedor","",27415994,"2024-07-09T20:32:10",3,"NO ERROR",29.82,71.4,999.5,0.29,0.52,1.44],
    [3601,363171,"Vazduh","Libelium","0004A30B0021DF70",44.979,16.7091,"","","Prijedor","",27416676,"2024-07-09T21:32:52",3,"NO ERROR",28.29,95.2,999.64,0.45,0.64,0.72],
    [3602,363171,"Vazduh","Libelium","0004A30B0021DF70",44.979,16.7091,"","","Prijedor","",27417344,"2024-07-09T22:33:34",3,"NO ERROR",26.52,100,1000.09,0.43,0.54,0.55],
    [3603,363171,"Vazduh","Libelium","0004A30B0021DF70",44.979,16.7091,"","","Prijedor","",27417984,"2024-07-09T23:34:16",3,"NO ERROR",25.19,100,1000.35,0.19,0.3,0.32],
    [3604,363171,"Vazduh","Libelium","0004A30B0021DF70",44.979,16.7091,"","","Prijedor","",27418862,"2024-07-10T00:34:58",3,"NO ERROR",24.35,100,1000.2,0.21,0.31,0.32],
    [3605,363171,"Vazduh","Libelium","0004A30B0021DF70",44.979,16.7091,"","","Prijedor","",27419468,"2024-07-10T01:35:40",3,"NO ERROR",23.75,100,1000.19,0.08,0.16,2.74],
    [3606,363171,"Vazduh","Libelium","0004A30B0021DF70",44.979,16.7091,"","","Prijedor","",27420107,"2024-07-10T02:36:22",3,"NO ERROR",23.57,100,1000.24,0.47,0.71,0.73],
    [3607,363171,"Vazduh","Libelium","0004A30B0021DF70",44.979,16.7091,"","","Prijedor","",27421274,"2024-07-10T04:37:46",3,"NO ERROR",22.07,100,1000.09,0.24,0.28,0.28],
    [3608,363171,"Vazduh","Libelium","0004A30B0021DF70",44.979,16.7091,"","","Prijedor","",27421954,"2024-07-10T05:38:28",3,"NO ERROR",21.86,100,1000.29,0.64,0.87,1.03],
    [3609,363171,"Vazduh","Libelium","0004A30B0021DF70",44.979,16.7091,"","","Prijedor","",27422650,"2024-07-10T06:39:10",3,"NO ERROR",23.98,100,1000.59,0.15,0.2,0.2],
    [3610,363171,"Vazduh","Libelium","0004A30B0021DF70",44.979,16.7091,"","","Prijedor","",27423270,"2024-07-10T07:39:53",3,"NO ERROR",26.87,97.9,1000.76,0.37,0.95,1.26],
    [3611,363171,"Vazduh","Libelium","0004A30B0021DF70",44.979,16.7091,"","","Prijedor","",27423853,"2024-07-10T08:40:35",3,"NO ERROR",29.21,85.6,1000.58,0.14,0.18,0.18],
    [3612,363171,"Vazduh","Libelium","0004A30B0021DF70",44.979,16.7091,"","","Prijedor","",27424463,"2024-07-10T09:41:17",3,"NO ERROR",34.04,64.6,1000.57,0.16,0.31,1.27],
    [3613,363171,"Vazduh","Libelium","0004A30B0021DF70",44.979,16.7091,"","","Prijedor","",27425056,"2024-07-10T10:41:59",3,"NO ERROR",33.7,63.9,1000.41,0.51,0.77,0.8],
    [3614,363171,"Vazduh","Libelium","0004A30B0021DF70",44.979,16.7091,"","","Prijedor","",27425645,"2024-07-10T11:42:41",3,"NO ERROR",33.08,67.2,1000.17,0.31,0.46,0.47],
    [3615,363171,"Vazduh","Libelium","0004A30B0021DF70",44.979,16.7091,"","","Prijedor","",27426247,"2024-07-10T12:43:23",3,"NO ERROR",34.73,58.9,999.89,0.42,0.67,0.69],
    [3616,363171,"Vazduh","Libelium","0004A30B0021DF70",44.979,16.7091,"","","Prijedor","",27426900,"2024-07-10T13:44:05",3,"NO ERROR",36.05,44,999.35,0.28,0.58,3.33],
    [3617,363171,"Vazduh","Libelium","0004A30B0021DF70",44.979,16.7091,"","","Prijedor","",27427581,"2024-07-10T14:44:47",3,"NO ERROR",38.06,40.6,998.89,0.38,0.95,5.4],
    [3618,363171,"Vazduh","Libelium","0004A30B0021DF70",44.979,16.7091,"","","Prijedor","",27428220,"2024-07-10T15:45:36",3,"NO ERROR",39.11,37,998.62,0.2,0.46,0.9],
    [3619,363171,"Vazduh","Libelium","0004A30B0021DF70",44.979,16.7091,"","","Prijedor","",27428806,"2024-07-10T16:46:18",3,"NO ERROR",39.8,35.1,998.08,0.39,0.74,2.49],
    [3620,363171,"Vazduh","Libelium","0004A30B0021DF70",44.979,16.7091,"","","Prijedor","",27429450,"2024-07-10T17:47:00",3,"NO ERROR",36.76,37.8,997.57,0.5,0.8,0.94],
    [3621,363171,"Vazduh","Libelium","0004A30B0021DF70",44.979,16.7091,"","","Prijedor","",27430066,"2024-07-10T18:47:42",3,"NO ERROR",35.14,45.5,998.01,0.21,0.29,0.31],
    [3622,363171,"Vazduh","Libelium","0004A30B0021DF70",44.979,16.7091,"","","Prijedor","",27430643,"2024-07-10T19:48:24",3,"NO ERROR",32.15,63.8,997.51,0.47,0.78,0.83],
    [3623,363171,"Vazduh","Libelium","0004A30B0021DF70",44.979,16.7091,"","","Prijedor","",27431246,"2024-07-10T20:49:06",3,"NO ERROR",29.47,83,997.92,0.39,0.46,0.47],
    [3624,363171,"Vazduh","Libelium","0004A30B0021DF70",44.979,16.7091,"","","Prijedor","",27431885,"2024-07-10T21:49:48",3,"NO ERROR",27.3,100,998.05,0.19,0.33,0.61],
    [3625,363171,"Vazduh","Libelium","0004A30B0021DF70",44.979,16.7091,"","","Prijedor","",27432520,"2024-07-10T22:50:30",3,"NO ERROR",25.8,100,998.53,0.24,0.39,0.47],
    [3626,363171,"Vazduh","Libelium","0004A30B0021DF70",44.979,16.7091,"","","Prijedor","",27433184,"2024-07-10T23:51:18",3,"NO ERROR",24.89,100,998.86,0.39,0.6,0.64],
    [3627,363171,"Vazduh","Libelium","0004A30B0021DF70",44.979,16.7091,"","","Prijedor","",27434042,"2024-07-11T00:52:00",3,"NO ERROR",23.97,100,998.93,0.42,0.48,0.49],
    [3628,363171,"Vazduh","Libelium","0004A30B0021DF70",44.979,16.7091,"","","Prijedor","",27434669,"2024-07-11T01:52:42",3,"NO ERROR",23.62,100,998.92,0.21,0.25,0.25],
    [3629,363171,"Vazduh","Libelium","0004A30B0021DF70",44.979,16.7091,"","","Prijedor","",27435275,"2024-07-11T02:53:24",3,"NO ERROR",22.78,100,998.77,0.12,0.18,0.19],
    [3630,363171,"Vazduh","Libelium","0004A30B0021DF70",44.979,16.7091,"","","Prijedor","",27435835,"2024-07-11T03:54:07",3,"NO ERROR",22.56,100,999.09,0.13,0.2,0.21],
    [3631,363171,"Vazduh","Libelium","0004A30B0021DF70",44.979,16.7091,"","","Prijedor","",27436453,"2024-07-11T04:54:55",3,"NO ERROR",21.91,100,998.87,0.18,0.22,0.22],
    [3632,363171,"Vazduh","Libelium","0004A30B0021DF70",44.979,16.7091,"","","Prijedor","",27437140,"2024-07-11T05:55:37",3,"NO ERROR",21.33,100,998.98,0.25,0.33,0.34],
    [3633,363171,"Vazduh","Libelium","0004A30B0021DF70",44.979,16.7091,"","","Prijedor","",27437843,"2024-07-11T06:56:19",3,"NO ERROR",24.3,100,999.2,0.45,0.62,0.64],
    [3634,363171,"Vazduh","Libelium","0004A30B0021DF70",44.979,16.7091,"","","Prijedor","",27438557,"2024-07-11T07:57:01",3,"NO ERROR",27.83,94.5,999.42,0.3,0.37,0.37],
    [3635,363171,"Vazduh","Libelium","0004A30B0021DF70",44.979,16.7091,"","","Prijedor","",27439248,"2024-07-11T08:57:43",3,"NO ERROR",31.65,71.8,999.56,0.21,0.28,0.28],
    [3636,363171,"Vazduh","Libelium","0004A30B0021DF70",44.979,16.7091,"","","Prijedor","",27439915,"2024-07-11T09:58:31",3,"NO ERROR",33.91,63,999.47,0.18,0.24,0.24],
    [3637,363171,"Vazduh","Libelium","0004A30B0021DF70",44.979,16.7091,"","","Prijedor","",27441248,"2024-07-11T12:00:07",3,"NO ERROR",34.08,65.8,998.93,0.22,0.25,0.25],
    [3638,363171,"Vazduh","Libelium","0004A30B0021DF70",44.979,16.7091,"","","Prijedor","",27441850,"2024-07-11T13:00:49",3,"NO ERROR",34.85,59.1,998.67,0.19,0.46,1.81],
    [3639,363171,"Vazduh","Libelium","0004A30B0021DF70",44.979,16.7091,"","","Prijedor","",27442530,"2024-07-11T14:01:31",3,"NO ERROR",36.2,56.2,998.26,0.19,0.29,0.3],
    [3640,363171,"Vazduh","Libelium","0004A30B0021DF70",44.979,16.7091,"","","Prijedor","",27443209,"2024-07-11T15:02:14",3,"NO ERROR",36.17,49.9,997.97,0.18,0.23,0.23],
    [3641,363171,"Vazduh","Libelium","0004A30B0021DF70",44.979,16.7091,"","","Prijedor","",27443808,"2024-07-11T16:02:56",3,"NO ERROR",38.72,47,997.69,0.3,0.42,0.42],
    [3642,363171,"Vazduh","Libelium","0004A30B0021DF70",44.979,16.7091,"","","Prijedor","",27444412,"2024-07-11T17:03:38",3,"NO ERROR",36.88,49.7,997.33,0.18,0.27,0.28],
    [3643,363171,"Vazduh","Libelium","0004A30B0021DF70",44.979,16.7091,"","","Prijedor","",27445043,"2024-07-11T18:04:20",3,"NO ERROR",35.16,56.5,997.25,0.25,0.39,0.42],
    [3644,363171,"Vazduh","Libelium","0004A30B0021DF70",44.979,16.7091,"","","Prijedor","",27445655,"2024-07-11T19:05:02",3,"NO ERROR",33.81,60.9,997.26,0.21,0.28,0.28],
    [3645,363171,"Vazduh","Libelium","0004A30B0021DF70",44.979,16.7091,"","","Prijedor","",27446262,"2024-07-11T20:05:44",3,"NO ERROR",32.12,77.3,997.22,0.37,0.46,0.47],
    [3646,363171,"Vazduh","Libelium","0004A30B0021DF70",44.979,16.7091,"","","Prijedor","",27446932,"2024-07-11T21:06:26",3,"NO ERROR",30.48,93,998.02,0.33,0.47,0.48],
    [3647,363171,"Vazduh","Libelium","0004A30B0021DF70",44.979,16.7091,"","","Prijedor","",27447629,"2024-07-11T22:07:08",3,"NO ERROR",28.39,100,997.75,0.69,0.9,0.92],
    [3648,363171,"Vazduh","Libelium","0004A30B0021DF70",44.979,16.7091,"","","Prijedor","",27448740,"2024-07-11T23:07:50",3,"NO ERROR",27.91,100,997.91,0.36,0.58,0.66],
    [3649,363171,"Vazduh","Libelium","0004A30B0021DF70",44.979,16.7091,"","","Prijedor","",27449874,"2024-07-12T00:08:32",3,"NO ERROR",26.78,100,998,0.75,1.05,1.14],
    [3650,363171,"Vazduh","Libelium","0004A30B0021DF70",44.979,16.7091,"","","Prijedor","",27450603,"2024-07-12T01:12:58",3,"NO ERROR",26.61,100,997.88,0.86,1.1,1.12],
    [3651,363171,"Vazduh","Libelium","0004A30B0021DF70",44.979,16.7091,"","","Prijedor","",27450599,"2024-07-12T01:12:58",3,"NO ERROR",26.61,100,997.88,0.86,1.1,1.12],
    [3652,363171,"Vazduh","Libelium","0004A30B0021DF70",44.979,16.7091,"","","Prijedor","",27450437,"2024-07-12T01:09:15",3,"NO ERROR",26.61,100,997.88,0.86,1.1,1.12],
    [3653,363171,"Vazduh","Libelium","0004A30B0021DF70",44.979,16.7091,"","","Prijedor","",27452439,"2024-07-12T02:09:57",3,"NO ERROR",25.88,100,997.56,0.22,0.32,0.34],
    [3654,363171,"Vazduh","Libelium","0004A30B0021DF70",44.979,16.7091,"","","Prijedor","",27453155,"2024-07-12T03:10:39",3,"NO ERROR",25.59,100,997.4,0.35,0.47,0.48],
    [3655,363171,"Vazduh","Libelium","0004A30B0021DF70",44.979,16.7091,"","","Prijedor","",27453767,"2024-07-12T04:11:21",3,"NO ERROR",24.39,100,997.56,0.29,0.47,0.49],
    [3656,363171,"Vazduh","Libelium","0004A30B0021DF70",44.979,16.7091,"","","Prijedor","",27454438,"2024-07-12T05:12:03",3,"NO ERROR",23.46,100,997.54,0.45,0.62,0.63],
    [3657,363171,"Vazduh","Libelium","0004A30B0021DF70",44.979,16.7091,"","","Prijedor","",27455201,"2024-07-12T06:12:45",3,"NO ERROR",24.08,100,997.68,0.13,0.18,0.18],
    [3658,363171,"Vazduh","Libelium","0004A30B0021DF70",44.979,16.7091,"","","Prijedor","",27455891,"2024-07-12T07:13:27",3,"NO ERROR",26.64,100,997.54,0.32,0.46,0.54],
    [3659,363171,"Vazduh","Libelium","0004A30B0021DF70",44.979,16.7091,"","","Prijedor","",27456528,"2024-07-12T08:14:15",3,"NO ERROR",30,82.3,997.48,0.1,0.14,0.14],
    [3660,363171,"Vazduh","Libelium","0004A30B0021DF70",44.979,16.7091,"","","Prijedor","",27457201,"2024-07-12T09:14:57",3,"NO ERROR",32.62,74.8,997.3,0.13,0.22,0.87],
    [3661,363171,"Vazduh","Libelium","0004A30B0021DF70",44.979,16.7091,"","","Prijedor","",27457837,"2024-07-12T10:15:39",3,"NO ERROR",34,69.1,996.79,0.15,0.26,0.32],
    [3662,363171,"Vazduh","Libelium","0004A30B0021DF70",44.979,16.7091,"","","Prijedor","",27458481,"2024-07-12T11:16:21",3,"NO ERROR",34.73,64.5,996.34,0.16,0.26,0.27],
    [3663,363171,"Vazduh","Libelium","0004A30B0021DF70",44.979,16.7091,"","","Prijedor","",27459150,"2024-07-12T12:17:03",3,"NO ERROR",34.84,63.7,995.84,0.21,0.3,0.31],
    [3664,363171,"Vazduh","Libelium","0004A30B0021DF70",44.979,16.7091,"","","Prijedor","",27459810,"2024-07-12T13:17:46",3,"NO ERROR",36.03,56.6,995.29,0.27,0.37,0.37],
    [3665,363171,"Vazduh","Libelium","0004A30B0021DF70",44.979,16.7091,"","","Prijedor","",27460526,"2024-07-12T14:18:28",3,"NO ERROR",37.95,48.5,994.46,0.24,0.4,0.76],
    [3666,363171,"Vazduh","Libelium","0004A30B0021DF70",44.979,16.7091,"","","Prijedor","",27461236,"2024-07-12T15:19:10",3,"NO ERROR",39.34,44.2,994,0.32,0.4,0.4],
    [3667,363171,"Vazduh","Libelium","0004A30B0021DF70",44.979,16.7091,"","","Prijedor","",27461890,"2024-07-12T16:19:52",3,"NO ERROR",41.43,38.9,993.33,0.06,0.08,0.08],
    [3668,363171,"Vazduh","Libelium","0004A30B0021DF70",44.979,16.7091,"","","Prijedor","",27462551,"2024-07-12T17:20:40",3,"NO ERROR",38.57,42.4,992.9,0.14,0.28,0.36],
    [3669,363171,"Vazduh","Libelium","0004A30B0021DF70",44.979,16.7091,"","","Prijedor","",27463227,"2024-07-12T18:21:22",3,"NO ERROR",36.66,49.1,992.77,0.21,0.31,0.32],
    [3670,363171,"Vazduh","Libelium","0004A30B0021DF70",44.979,16.7091,"","","Prijedor","",27463876,"2024-07-12T19:22:04",3,"NO ERROR",35.31,55.8,993.14,0.18,0.24,0.24],
    [3671,363171,"Vazduh","Libelium","0004A30B0021DF70",44.979,16.7091,"","","Prijedor","",27464497,"2024-07-12T20:22:46",3,"NO ERROR",32.82,71,993,0.31,0.38,0.39],
    [3672,363171,"Vazduh","Libelium","0004A30B0021DF70",44.979,16.7091,"","","Prijedor","",27465229,"2024-07-12T21:23:29",3,"NO ERROR",30.35,86.9,993.29,0.36,0.64,0.93],
    [3673,363171,"Vazduh","Libelium","0004A30B0021DF70",44.979,16.7091,"","","Prijedor","",27465895,"2024-07-12T22:24:11",3,"NO ERROR",29.68,73.2,993.8,0.28,0.53,1.77],
    [3674,363171,"Vazduh","Libelium","0004A30B0021DF70",44.979,16.7091,"","","Prijedor","",27466555,"2024-07-12T23:24:53",3,"NO ERROR",27.01,93.6,993.87,0.18,0.28,0.31],
    [3675,363171,"Vazduh","Libelium","0004A30B0021DF70",44.979,16.7091,"","","Prijedor","",27467485,"2024-07-13T00:25:35",3,"NO ERROR",25.3,100,993.93,0.18,0.23,0.23],
    [3676,363171,"Vazduh","Libelium","0004A30B0021DF70",44.979,16.7091,"","","Prijedor","",27468190,"2024-07-13T01:26:17",3,"NO ERROR",24.22,100,993.74,0.4,0.52,0.54],
    [3677,363171,"Vazduh","Libelium","0004A30B0021DF70",44.979,16.7091,"","","Prijedor","",27468855,"2024-07-13T02:26:59",3,"NO ERROR",23.83,100,993.76,0.15,0.17,0.17],
    [3678,363171,"Vazduh","Libelium","0004A30B0021DF70",44.979,16.7091,"","","Prijedor","",27469520,"2024-07-13T03:27:41",3,"NO ERROR",22.4,100,993.72,0.44,0.82,2.71],
    [3679,363171,"Vazduh","Libelium","0004A30B0021DF70",44.979,16.7091,"","","Prijedor","",27470117,"2024-07-13T04:28:23",3,"NO ERROR",21.67,100,994.07,0.26,0.27,0.28],
    [3680,363171,"Vazduh","Libelium","0004A30B0021DF70",44.979,16.7091,"","","Prijedor","",27500228,"2024-07-15T02:00:16",3,"NO ERROR",21.31,100,997.61,0.36,0.41,0.42],
    [3681,363171,"Vazduh","Libelium","0004A30B0021DF70",44.979,16.7091,"","","Prijedor","",27500955,"2024-07-15T03:00:58",3,"NO ERROR",20.18,100,997.44,0.36,0.45,0.47],
    [3682,363171,"Vazduh","Libelium","0004A30B0021DF70",44.979,16.7091,"","","Prijedor","",27501612,"2024-07-15T04:01:40",3,"NO ERROR",20.28,100,997.62,0.28,0.33,0.33],
    [3683,363171,"Vazduh","Libelium","0004A30B0021DF70",44.979,16.7091,"","","Prijedor","",27502322,"2024-07-15T05:02:22",3,"NO ERROR",19.37,100,998.16,0.33,0.42,0.42],
    [3684,363171,"Vazduh","Libelium","0004A30B0021DF70",44.979,16.7091,"","","Prijedor","",27503131,"2024-07-15T06:03:04",3,"NO ERROR",19.09,100,998.52,0.36,0.53,0.91],
    [3685,363171,"Vazduh","Libelium","0004A30B0021DF70",44.979,16.7091,"","","Prijedor","",27503854,"2024-07-15T07:03:46",3,"NO ERROR",23.75,100,998.82,0.27,0.47,0.62],
    [3686,363171,"Vazduh","Libelium","0004A30B0021DF70",44.979,16.7091,"","","Prijedor","",27504494,"2024-07-15T08:04:28",3,"NO ERROR",28.84,71.7,999.27,0.07,0.12,0.12],
    [3687,363171,"Vazduh","Libelium","0004A30B0021DF70",44.979,16.7091,"","","Prijedor","",27505140,"2024-07-15T09:05:10",3,"NO ERROR",30.59,61,999.37,0.11,0.11,0.11],
    [3688,363171,"Vazduh","Libelium","0004A30B0021DF70",44.979,16.7091,"","","Prijedor","",27505731,"2024-07-15T10:05:52",3,"NO ERROR",33.67,55.9,999,0.26,0.31,0.31],
    [3689,363171,"Vazduh","Libelium","0004A30B0021DF70",44.979,16.7091,"","","Prijedor","",27506403,"2024-07-15T11:06:34",3,"NO ERROR",33.2,59,998.85,0.2,0.37,0.5],
    [3690,363171,"Vazduh","Libelium","0004A30B0021DF70",44.979,16.7091,"","","Prijedor","",27507064,"2024-07-15T12:07:16",3,"NO ERROR",32.87,55.1,998.6,0.21,0.47,0.8],
    [3691,363171,"Vazduh","Libelium","0004A30B0021DF70",44.979,16.7091,"","","Prijedor","",27507659,"2024-07-15T13:07:58",3,"NO ERROR",34.29,46.6,998.13,0.16,0.23,0.23],
    [3692,363171,"Vazduh","Libelium","0004A30B0021DF70",44.979,16.7091,"","","Prijedor","",27508349,"2024-07-15T14:08:41",3,"NO ERROR",36.29,44.8,997.66,0.16,0.19,0.19],
    [3693,363171,"Vazduh","Libelium","0004A30B0021DF70",44.979,16.7091,"","","Prijedor","",27509074,"2024-07-15T15:09:23",3,"NO ERROR",36.16,44.7,997.21,0.27,0.36,0.38],
    [3694,363171,"Vazduh","Libelium","0004A30B0021DF70",44.979,16.7091,"","","Prijedor","",27509697,"2024-07-15T16:10:11",3,"NO ERROR",38.46,40.2,996.87,0.01,0.03,0.03],
    [3695,363171,"Vazduh","Libelium","0004A30B0021DF70",44.979,16.7091,"","","Prijedor","",27510334,"2024-07-15T17:10:53",3,"NO ERROR",38.36,38.7,996.41,0.07,0.14,0.15],
    [3696,363171,"Vazduh","Libelium","0004A30B0021DF70",44.979,16.7091,"","","Prijedor","",27510963,"2024-07-15T18:11:35",3,"NO ERROR",33.92,43.7,995.97,0.19,0.27,0.27],
    [3697,363171,"Vazduh","Libelium","0004A30B0021DF70",44.979,16.7091,"","","Prijedor","",27511563,"2024-07-15T19:12:17",3,"NO ERROR",32.8,46.6,995.95,0.51,0.71,0.72],
    [3698,363171,"Vazduh","Libelium","0004A30B0021DF70",44.979,16.7091,"","","Prijedor","",27512154,"2024-07-15T20:12:59",3,"NO ERROR",31.11,54.6,995.94,0.26,0.5,0.91],
    [3699,363171,"Vazduh","Libelium","0004A30B0021DF70",44.979,16.7091,"","","Prijedor","",27512797,"2024-07-15T21:13:41",3,"NO ERROR",28.66,67.1,996.36,0.45,0.62,0.64],
    [3700,363171,"Vazduh","Libelium","0004A30B0021DF70",44.979,16.7091,"","","Prijedor","",27513420,"2024-07-15T22:14:23",3,"NO ERROR",25.71,90.1,996.57,0.38,0.48,0.49],
    [3701,363171,"Vazduh","Libelium","0004A30B0021DF70",44.979,16.7091,"","","Prijedor","",27514038,"2024-07-15T23:15:05",3,"NO ERROR",24.28,100,996.56,0.26,0.38,0.4],
    [3702,363171,"Vazduh","Libelium","0004A30B0021DF70",44.979,16.7091,"","","Prijedor","",27514921,"2024-07-16T00:15:54",3,"NO ERROR",22.82,100,996.73,0.09,0.12,0.12],
    [3703,363171,"Vazduh","Libelium","0004A30B0021DF70",44.979,16.7091,"","","Prijedor","",27515621,"2024-07-16T01:16:36",3,"NO ERROR",22.31,100,996.28,0.11,0.15,0.15],
    [3704,363171,"Vazduh","Libelium","0004A30B0021DF70",44.979,16.7091,"","","Prijedor","",27516253,"2024-07-16T02:17:18",3,"NO ERROR",21.93,100,996.01,0.2,0.23,0.23],
    [3705,363171,"Vazduh","Libelium","0004A30B0021DF70",44.979,16.7091,"","","Prijedor","",27516919,"2024-07-16T03:18:00",3,"NO ERROR",21.24,100,995.79,0.13,0.17,0.17],
    [3706,363171,"Vazduh","Libelium","0004A30B0021DF70",44.979,16.7091,"","","Prijedor","",27517531,"2024-07-16T04:18:42",3,"NO ERROR",20.58,100,995.86,0.08,0.09,0.09],
    [3707,363171,"Vazduh","Libelium","0004A30B0021DF70",44.979,16.7091,"","","Prijedor","",27518250,"2024-07-16T05:19:24",3,"NO ERROR",20.82,100,995.98,0.04,0.12,0.14],
    [3708,363171,"Vazduh","Libelium","0004A30B0021DF70",44.979,16.7091,"","","Prijedor","",27519045,"2024-07-16T06:20:12",3,"NO ERROR",20.74,100,996.57,0.09,0.13,0.14],
    [3709,363171,"Vazduh","Libelium","0004A30B0021DF70",44.979,16.7091,"","","Prijedor","",27519743,"2024-07-16T07:21:06",3,"NO ERROR",24.61,100,996.93,0.14,0.17,0.17],
    [3710,363171,"Vazduh","Libelium","0004A30B0021DF70",44.979,16.7091,"","","Prijedor","",27520437,"2024-07-16T08:21:48",3,"NO ERROR",30.38,69.9,997.1,0.06,0.08,0.08],
    [3711,363171,"Vazduh","Libelium","0004A30B0021DF70",44.979,16.7091,"","","Prijedor","",27521135,"2024-07-16T09:22:30",3,"NO ERROR",32.13,62.2,997.09,0.28,0.4,0.41],
    [3712,363171,"Vazduh","Libelium","0004A30B0021DF70",44.979,16.7091,"","","Prijedor","",27521763,"2024-07-16T10:23:12",3,"NO ERROR",33.26,53.1,996.73,0.16,0.2,0.21],
    [3713,363171,"Vazduh","Libelium","0004A30B0021DF70",44.979,16.7091,"","","Prijedor","",27522446,"2024-07-16T11:23:54",3,"NO ERROR",34.34,54,996.56,0.3,0.38,0.38],
    [3714,363171,"Vazduh","Libelium","0004A30B0021DF70",44.979,16.7091,"","","Prijedor","",27523139,"2024-07-16T12:24:37",3,"NO ERROR",35.34,44.5,996.34,0.23,0.37,0.39],
    [3715,363171,"Vazduh","Libelium","0004A30B0021DF70",44.979,16.7091,"","","Prijedor","",27523857,"2024-07-16T13:25:19",3,"NO ERROR",35.72,48.4,995.95,0.32,0.54,0.58],
    [3716,363171,"Vazduh","Libelium","0004A30B0021DF70",44.979,16.7091,"","","Prijedor","",27524590,"2024-07-16T14:26:01",3,"NO ERROR",37.28,46,995.77,0.06,0.08,0.09],
    [3717,363171,"Vazduh","Libelium","0004A30B0021DF70",44.979,16.7091,"","","Prijedor","",27525330,"2024-07-16T15:26:43",3,"NO ERROR",39.54,38.2,995.52,0.13,0.16,0.16],
    [3718,363171,"Vazduh","Libelium","0004A30B0021DF70",44.979,16.7091,"","","Prijedor","",27525985,"2024-07-16T16:27:25",3,"NO ERROR",39.64,40.8,995.38,0.12,0.15,0.15],
    [3719,363171,"Vazduh","Libelium","0004A30B0021DF70",44.979,16.7091,"","","Prijedor","",27526658,"2024-07-16T17:28:07",3,"NO ERROR",37.4,40.8,995.07,0.62,0.98,1.04],
    [3720,363171,"Vazduh","Libelium","0004A30B0021DF70",44.979,16.7091,"","","Prijedor","",27527393,"2024-07-16T18:28:49",3,"NO ERROR",34.94,41.1,995.19,0.1,0.2,0.28],
    [3721,363171,"Vazduh","Libelium","0004A30B0021DF70",44.979,16.7091,"","","Prijedor","",27528028,"2024-07-16T19:29:31",3,"NO ERROR",33.23,48.4,995.15,0.12,0.2,0.27],
    [3722,363171,"Vazduh","Libelium","0004A30B0021DF70",44.979,16.7091,"","","Prijedor","",27528649,"2024-07-16T20:30:14",3,"NO ERROR",31.05,65,995.63,0.3,0.4,0.4],
    [3723,363171,"Vazduh","Libelium","0004A30B0021DF70",44.979,16.7091,"","","Prijedor","",27529390,"2024-07-16T21:30:56",3,"NO ERROR",28.62,83.4,996.34,0.5,0.82,0.95],
    [3724,363171,"Vazduh","Libelium","0004A30B0021DF70",44.979,16.7091,"","","Prijedor","",27530068,"2024-07-16T22:31:38",3,"NO ERROR",26.4,100,996.79,0.39,0.43,0.43],
    [3725,363171,"Vazduh","Libelium","0004A30B0021DF70",44.979,16.7091,"","","Prijedor","",27530771,"2024-07-16T23:32:20",3,"NO ERROR",25.2,100,996.9,0.44,0.61,0.64],
    [3726,363171,"Vazduh","Libelium","0004A30B0021DF70",44.979,16.7091,"","","Prijedor","",27531883,"2024-07-17T00:33:02",3,"NO ERROR",23.94,100,997.21,0.72,0.85,0.87],
    [3727,363171,"Vazduh","Libelium","0004A30B0021DF70",44.979,16.7091,"","","Prijedor","",27532802,"2024-07-17T01:33:44",3,"NO ERROR",23.24,100,997.37,0.41,0.57,0.66],
    [3728,363171,"Vazduh","Libelium","0004A30B0021DF70",44.979,16.7091,"","","Prijedor","",27533659,"2024-07-17T02:34:26",3,"NO ERROR",22.77,100,997.57,0.32,0.39,0.4],
    [3729,363171,"Vazduh","Libelium","0004A30B0021DF70",44.979,16.7091,"","","Prijedor","",27534493,"2024-07-17T03:35:08",3,"NO ERROR",21.69,100,997.83,0.48,0.53,0.54],
    [3730,363171,"Vazduh","Libelium","0004A30B0021DF70",44.979,16.7091,"","","Prijedor","",27535243,"2024-07-17T04:35:50",3,"NO ERROR",21.75,100,998.38,0.27,0.31,0.31],
    [3731,363171,"Vazduh","Libelium","0004A30B0021DF70",44.979,16.7091,"","","Prijedor","",27536059,"2024-07-17T05:36:38",3,"NO ERROR",20.8,100,998.75,0.81,0.87,0.88],
    [3732,363171,"Vazduh","Libelium","0004A30B0021DF70",44.979,16.7091,"","","Prijedor","",27536886,"2024-07-17T06:37:26",3,"NO ERROR",23.06,100,999.11,0.07,0.08,0.08],
    [3733,363171,"Vazduh","Libelium","0004A30B0021DF70",44.979,16.7091,"","","Prijedor","",27537677,"2024-07-17T07:38:08",3,"NO ERROR",26.99,96.7,999.96,0.4,0.55,0.57],
    [3734,363171,"Vazduh","Libelium","0004A30B0021DF70",44.979,16.7091,"","","Prijedor","",27538374,"2024-07-17T08:38:50",3,"NO ERROR",29.59,75.8,1000.15,0.23,0.39,0.47],
    [3735,363171,"Vazduh","Libelium","0004A30B0021DF70",44.979,16.7091,"","","Prijedor","",27539053,"2024-07-17T09:39:33",3,"NO ERROR",31.76,64.4,1000.51,0.09,0.16,0.17],
    [3736,363171,"Vazduh","Libelium","0004A30B0021DF70",44.979,16.7091,"","","Prijedor","",27539706,"2024-07-17T10:40:21",3,"NO ERROR",32.86,61.5,1000.54,0.17,0.2,0.2],
    [3737,363171,"Vazduh","Libelium","0004A30B0021DF70",44.979,16.7091,"","","Prijedor","",27540383,"2024-07-17T11:41:03",3,"NO ERROR",32.29,63,1000.55,0.11,0.14,0.14],
    [3738,363171,"Vazduh","Libelium","0004A30B0021DF70",44.979,16.7091,"","","Prijedor","",27550241,"2024-07-18T02:51:40",3,"NO ERROR",24.14,75.4,1002.6,0.12,0.36,0.41],
    [3739,363171,"Vazduh","Libelium","0004A30B0021DF70",44.979,16.7091,"","","Prijedor","",27550865,"2024-07-18T03:52:22",3,"NO ERROR",23.69,75.2,1002.78,0.11,0.11,0.11],
    [3740,363171,"Vazduh","Libelium","0004A30B0021DF70",44.979,16.7091,"","","Prijedor","",27551540,"2024-07-18T04:53:10",3,"NO ERROR",22.72,80.6,1003.31,0.07,0.07,0.07],
    [3741,363171,"Vazduh","Libelium","0004A30B0021DF70",44.979,16.7091,"","","Prijedor","",27552313,"2024-07-18T05:53:52",3,"NO ERROR",23.01,79.7,1003.8,0.12,0.14,0.14],
    [3742,363171,"Vazduh","Libelium","0004A30B0021DF70",44.979,16.7091,"","","Prijedor","",27553023,"2024-07-18T06:54:34",3,"NO ERROR",24.25,76,1004.13,0.08,0.17,0.92],
    [3743,363171,"Vazduh","Libelium","0004A30B0021DF70",44.979,16.7091,"","","Prijedor","",27553725,"2024-07-18T07:55:29",3,"NO ERROR",26.57,64.5,1004.42,0.09,0.11,0.11],
    [3744,363171,"Vazduh","Libelium","0004A30B0021DF70",44.979,16.7091,"","","Prijedor","",27554371,"2024-07-18T08:56:11",3,"NO ERROR",28.29,56.8,1004.61,0.07,0.11,0.13],
    [3745,363171,"Vazduh","Libelium","0004A30B0021DF70",44.979,16.7091,"","","Prijedor","",27554997,"2024-07-18T09:56:53",3,"NO ERROR",29.76,53,1004.68,0.07,0.15,0.22],
    [3746,363171,"Vazduh","Libelium","0004A30B0021DF70",44.979,16.7091,"","","Prijedor","",27555695,"2024-07-18T10:57:35",3,"NO ERROR",29.37,54.5,1004.4,0.1,0.16,0.18],
    [3747,363171,"Vazduh","Libelium","0004A30B0021DF70",44.979,16.7091,"","","Prijedor","",27556417,"2024-07-18T11:58:17",3,"NO ERROR",29.31,56.5,1004.29,0.12,0.13,0.13],
    [3748,363171,"Vazduh","Libelium","0004A30B0021DF70",44.979,16.7091,"","","Prijedor","",27557090,"2024-07-18T12:58:59",3,"NO ERROR",30.53,56.1,1003.63,0.22,0.34,0.41],
    [3749,363171,"Vazduh","Libelium","0004A30B0021DF70",44.979,16.7091,"","","Prijedor","",27557839,"2024-07-18T13:59:41",3,"NO ERROR",31.41,55.1,1003.18,0.15,0.19,0.19],
    [3750,363171,"Vazduh","Libelium","0004A30B0021DF70",44.979,16.7091,"","","Prijedor","",27558611,"2024-07-18T15:00:23",3,"NO ERROR",33.39,50.6,1002.62,0.17,0.3,0.32],
    [3751,363171,"Vazduh","Libelium","0004A30B0021DF70",44.979,16.7091,"","","Prijedor","",27559289,"2024-07-18T16:01:05",3,"NO ERROR",33.42,51.5,1001.96,0.23,0.39,0.55],
    [3752,363171,"Vazduh","Libelium","0004A30B0021DF70",44.979,16.7091,"","","Prijedor","",27559964,"2024-07-18T17:01:47",3,"NO ERROR",34.28,52,1001.77,0.23,0.52,0.7],
    [3753,363171,"Vazduh","Libelium","0004A30B0021DF70",44.979,16.7091,"","","Prijedor","",27560690,"2024-07-18T18:02:36",3,"NO ERROR",31.7,58.7,1001.87,0.26,0.33,0.33],
    [3754,363171,"Vazduh","Libelium","0004A30B0021DF70",44.979,16.7091,"","","Prijedor","",27561390,"2024-07-18T19:03:18",3,"NO ERROR",31.04,62.1,1001.93,0.06,0.07,0.07],
    [3755,363171,"Vazduh","Libelium","0004A30B0021DF70",44.979,16.7091,"","","Prijedor","",27562034,"2024-07-18T20:04:00",3,"NO ERROR",29.68,70.6,1002.03,0.32,0.41,0.42],
    [3756,363171,"Vazduh","Libelium","0004A30B0021DF70",44.979,16.7091,"","","Prijedor","",27562737,"2024-07-18T21:04:42",3,"NO ERROR",28.18,86.1,1002.28,0.53,0.93,2.28],
    [3757,363171,"Vazduh","Libelium","0004A30B0021DF70",44.979,16.7091,"","","Prijedor","",27563449,"2024-07-18T22:05:24",3,"NO ERROR",26.61,100,1002.25,0.25,0.35,0.36],
    [3758,363171,"Vazduh","Libelium","0004A30B0021DF70",44.979,16.7091,"","","Prijedor","",27564145,"2024-07-18T23:06:06",3,"NO ERROR",25.8,100,1002.02,0.4,0.58,0.68],
    [3759,363171,"Vazduh","Libelium","0004A30B0021DF70",44.979,16.7091,"","","Prijedor","",27565068,"2024-07-19T00:06:48",3,"NO ERROR",25.86,100,1002.06,0.3,0.45,0.45],
    [3760,363171,"Vazduh","Libelium","0004A30B0021DF70",44.979,16.7091,"","","Prijedor","",27565892,"2024-07-19T01:07:30",3,"NO ERROR",25.49,100,1002.02,0.2,0.26,0.27],
    [3761,363171,"Vazduh","Libelium","0004A30B0021DF70",44.979,16.7091,"","","Prijedor","",27566678,"2024-07-19T02:08:12",3,"NO ERROR",25.17,100,1001.81,0.18,0.24,0.25],
    [3762,363171,"Vazduh","Libelium","0004A30B0021DF70",44.979,16.7091,"","","Prijedor","",27567471,"2024-07-19T03:08:54",3,"NO ERROR",24.48,100,1001.52,0.2,0.3,0.37],
    [3763,363171,"Vazduh","Libelium","0004A30B0021DF70",44.979,16.7091,"","","Prijedor","",27568195,"2024-07-19T04:09:36",3,"NO ERROR",23.88,100,1001.42,0.23,0.29,0.29],
    [3764,363171,"Vazduh","Libelium","0004A30B0021DF70",44.979,16.7091,"","","Prijedor","",27568964,"2024-07-19T05:10:18",3,"NO ERROR",23.12,100,1001.53,0.15,0.28,0.35],
    [3765,363171,"Vazduh","Libelium","0004A30B0021DF70",44.979,16.7091,"","","Prijedor","",27569810,"2024-07-19T06:11:00",3,"NO ERROR",23.3,100,1001.86,0.29,0.44,0.76],
    [3766,363171,"Vazduh","Libelium","0004A30B0021DF70",44.979,16.7091,"","","Prijedor","",27570584,"2024-07-19T07:11:42",3,"NO ERROR",26.88,100,1002,0.41,0.57,0.66],
    [3767,363171,"Vazduh","Libelium","0004A30B0021DF70",44.979,16.7091,"","","Prijedor","",27571257,"2024-07-19T08:12:25",3,"NO ERROR",29.62,88,1002.22,0.12,0.18,0.19],
    [3768,363171,"Vazduh","Libelium","0004A30B0021DF70",44.979,16.7091,"","","Prijedor","",27571980,"2024-07-19T09:13:07",3,"NO ERROR",31.42,73.4,1002.06,0.09,0.15,0.19],
    [3769,363171,"Vazduh","Libelium","0004A30B0021DF70",44.979,16.7091,"","","Prijedor","",27572640,"2024-07-19T10:13:49",3,"NO ERROR",31.32,73.3,1001.77,0.16,0.55,6.48],
    [3770,363171,"Vazduh","Libelium","0004A30B0021DF70",44.979,16.7091,"","","Prijedor","",27573299,"2024-07-19T11:14:31",3,"NO ERROR",32.19,70.9,1001.44,0.19,0.24,0.24],
    [3771,363171,"Vazduh","Libelium","0004A30B0021DF70",44.979,16.7091,"","","Prijedor","",27574006,"2024-07-19T12:15:13",3,"NO ERROR",34.12,63.5,1000.9,0.11,0.16,0.17],
    [3772,363171,"Vazduh","Libelium","0004A30B0021DF70",44.979,16.7091,"","","Prijedor","",27574727,"2024-07-19T13:15:55",3,"NO ERROR",33.81,60.5,1000.21,0.2,0.44,0.62],
    [3773,363171,"Vazduh","Libelium","0004A30B0021DF70",44.979,16.7091,"","","Prijedor","",27575497,"2024-07-19T14:16:37",3,"NO ERROR",35.3,51.8,999.72,0.18,0.28,0.29],
    [3774,363171,"Vazduh","Libelium","0004A30B0021DF70",44.979,16.7091,"","","Prijedor","",27576263,"2024-07-19T15:17:19",3,"NO ERROR",34.57,51.7,999.2,0.07,0.1,0.1],
    [3775,363171,"Vazduh","Libelium","0004A30B0021DF70",44.979,16.7091,"","","Prijedor","",27576943,"2024-07-19T16:18:07",3,"NO ERROR",36.91,44.2,997.82,0.24,0.38,0.73],
    [3776,363171,"Vazduh","Libelium","0004A30B0021DF70",44.979,16.7091,"","","Prijedor","",27577650,"2024-07-19T17:18:49",3,"NO ERROR",35.11,45.6,997.49,0.1,0.26,0.58],
    [3777,363171,"Vazduh","Libelium","0004A30B0021DF70",44.979,16.7091,"","","Prijedor","",27578369,"2024-07-19T18:19:32",3,"NO ERROR",34.31,47.6,997.17,0.11,0.3,2.97],
    [3778,363171,"Vazduh","Libelium","0004A30B0021DF70",44.979,16.7091,"","","Prijedor","",27579047,"2024-07-19T19:20:14",3,"NO ERROR",32.18,54.6,997.24,0.16,0.23,0.23],
    [3779,363171,"Vazduh","Libelium","0004A30B0021DF70",44.979,16.7091,"","","Prijedor","",27579677,"2024-07-19T20:20:56",3,"NO ERROR",29.79,65.2,997.29,0.12,0.23,5.09],
    [3780,363171,"Vazduh","Libelium","0004A30B0021DF70",44.979,16.7091,"","","Prijedor","",27580421,"2024-07-19T21:21:38",3,"NO ERROR",28.35,76.1,997.38,0.56,0.89,1.06],
    [3781,363171,"Vazduh","Libelium","0004A30B0021DF70",44.979,16.7091,"","","Prijedor","",27581127,"2024-07-19T22:22:20",3,"NO ERROR",27.77,83,997.21,0.25,0.29,0.29],
    [3782,363171,"Vazduh","Libelium","0004A30B0021DF70",44.979,16.7091,"","","Prijedor","",27581808,"2024-07-19T23:23:02",3,"NO ERROR",26.78,90.8,996.95,0.28,0.34,0.34],
    [3783,363171,"Vazduh","Libelium","0004A30B0021DF70",44.979,16.7091,"","","Prijedor","",27582811,"2024-07-20T00:23:44",3,"NO ERROR",25.58,100,997.25,0.08,0.12,0.12],
    [3784,363171,"Vazduh","Libelium","0004A30B0021DF70",44.979,16.7091,"","","Prijedor","",27583579,"2024-07-20T01:24:26",3,"NO ERROR",25.12,100,996.22,0.69,1.01,9.6],
    [3785,363171,"Vazduh","Libelium","0004A30B0021DF70",44.979,16.7091,"","","Prijedor","",27584302,"2024-07-20T02:25:08",3,"NO ERROR",24.53,100,995.91,0.29,0.38,0.38],
    [3786,363171,"Vazduh","Libelium","0004A30B0021DF70",44.979,16.7091,"","","Prijedor","",27584987,"2024-07-20T03:25:56",3,"NO ERROR",24.32,100,995.56,0.19,0.22,0.22],
    [3787,363171,"Vazduh","Libelium","0004A30B0021DF70",44.979,16.7091,"","","Prijedor","",27585618,"2024-07-20T04:26:38",3,"NO ERROR",24.49,100,995.67,0.11,0.17,0.18],
    [3788,363171,"Vazduh","Libelium","0004A30B0021DF70",44.979,16.7091,"","","Prijedor","",27586279,"2024-07-20T05:27:20",3,"NO ERROR",23.39,100,995.46,0.17,0.28,0.35],
    [3789,363171,"Vazduh","Libelium","0004A30B0021DF70",44.979,16.7091,"","","Prijedor","",27586949,"2024-07-20T06:28:02",3,"NO ERROR",23.32,100,995.65,0.09,0.13,0.14],
    [3790,363171,"Vazduh","Libelium","0004A30B0021DF70",44.979,16.7091,"","","Prijedor","",27587590,"2024-07-20T07:28:45",3,"NO ERROR",23.02,100,996.11,0.12,0.28,0.37],
    [3791,363171,"Vazduh","Libelium","0004A30B0021DF70",44.979,16.7091,"","","Prijedor","",27588163,"2024-07-20T08:29:27",3,"NO ERROR",23.94,100,996.19,0.14,0.17,0.17],
    [3792,363171,"Vazduh","Libelium","0004A30B0021DF70",44.979,16.7091,"","","Prijedor","",27588787,"2024-07-20T09:30:09",3,"NO ERROR",24.19,100,995.83,0.19,0.39,0.77],
    [3793,363171,"Vazduh","Libelium","0004A30B0021DF70",44.979,16.7091,"","","Prijedor","",27589379,"2024-07-20T10:30:51",3,"NO ERROR",23.85,100,995.79,0.06,0.08,0.08],
    [3794,363171,"Vazduh","Libelium","0004A30B0021DF70",44.979,16.7091,"","","Prijedor","",27589942,"2024-07-20T11:31:33",3,"NO ERROR",24.07,100,995.94,0.08,0.09,0.09],
    [3795,363171,"Vazduh","Libelium","0004A30B0021DF70",44.979,16.7091,"","","Prijedor","",27590542,"2024-07-20T12:32:15",3,"NO ERROR",21.93,100,995.85,1.35,1.7,1.8],
    [3796,363171,"Vazduh","Libelium","0004A30B0021DF70",44.979,16.7091,"","","Prijedor","",27591187,"2024-07-20T13:32:57",3,"NO ERROR",22.29,100,995.65,0.36,0.44,0.44],
    [3797,363171,"Vazduh","Libelium","0004A30B0021DF70",44.979,16.7091,"","","Prijedor","",27593093,"2024-07-20T16:35:03",3,"NO ERROR",27.1,89.4,994.46,0.22,0.27,0.27],
    [3798,363171,"Vazduh","Libelium","0004A30B0021DF70",44.979,16.7091,"","","Prijedor","",27593706,"2024-07-20T17:35:45",3,"NO ERROR",25.9,92.9,994.16,0.12,0.18,0.18],
    [3799,363171,"Vazduh","Libelium","0004A30B0021DF70",44.979,16.7091,"","","Prijedor","",27594336,"2024-07-20T18:36:27",3,"NO ERROR",24.26,100,993.97,0.24,0.28,0.29],
    [3800,363171,"Vazduh","Libelium","0004A30B0021DF70",44.979,16.7091,"","","Prijedor","",27594930,"2024-07-20T19:37:10",3,"NO ERROR",23.64,100,994.55,0.18,0.23,0.23],
    [3801,363171,"Vazduh","Libelium","0004A30B0021DF70",44.979,16.7091,"","","Prijedor","",27595504,"2024-07-20T20:37:52",3,"NO ERROR",22.97,100,994.42,0.3,0.32,0.32],
    [3802,363171,"Vazduh","Libelium","0004A30B0021DF70",44.979,16.7091,"","","Prijedor","",27596162,"2024-07-20T21:38:34",3,"NO ERROR",22.6,100,994.75,0.64,0.74,0.74],
    [3803,363171,"Vazduh","Libelium","0004A30B0021DF70",44.979,16.7091,"","","Prijedor","",27596763,"2024-07-20T22:39:16",3,"NO ERROR",21.45,100,994.7,0.91,1.01,1.02],
    [3804,363171,"Vazduh","Libelium","0004A30B0021DF70",44.979,16.7091,"","","Prijedor","",27597385,"2024-07-20T23:39:58",3,"NO ERROR",21.19,100,994.79,0.81,0.98,0.99],
    [3805,363171,"Vazduh","Libelium","0004A30B0021DF70",44.979,16.7091,"","","Prijedor","",27598286,"2024-07-21T00:40:46",3,"NO ERROR",21.01,100,995.04,0.37,0.5,0.51],
    [3806,363171,"Vazduh","Libelium","0004A30B0021DF70",44.979,16.7091,"","","Prijedor","",27598982,"2024-07-21T01:41:28",3,"NO ERROR",20.71,100,995.21,1.38,1.54,1.55],
    [3807,363171,"Vazduh","Libelium","0004A30B0021DF70",44.979,16.7091,"","","Prijedor","",27601005,"2024-07-21T04:43:34",3,"NO ERROR",20.9,100,994.75,0.76,0.89,0.89],
    [3808,363171,"Vazduh","Libelium","0004A30B0021DF70",44.979,16.7091,"","","Prijedor","",27617085,"2024-07-22T03:59:48",3,"NO ERROR",19.86,100,995.42,0.56,0.7,0.71],
    [3809,363171,"Vazduh","Libelium","0004A30B0021DF70",44.979,16.7091,"","","Prijedor","",27617800,"2024-07-22T05:00:30",3,"NO ERROR",19.56,100,995.23,0.37,0.55,0.56],
    [3810,363171,"Vazduh","Libelium","0004A30B0021DF70",44.979,16.7091,"","","Prijedor","",27618671,"2024-07-22T06:01:12",3,"NO ERROR",19.01,100,995.85,0.25,0.35,0.35],
    [3811,363171,"Vazduh","Libelium","0004A30B0021DF70",44.979,16.7091,"","","Prijedor","",27619391,"2024-07-22T07:01:54",3,"NO ERROR",20.36,100,996.32,0.23,0.38,0.4],
    [3812,363171,"Vazduh","Libelium","0004A30B0021DF70",44.979,16.7091,"","","Prijedor","",27620018,"2024-07-22T08:02:49",3,"NO ERROR",25.71,94.3,996.56,0.13,0.18,0.18],
    [3813,363171,"Vazduh","Libelium","0004A30B0021DF70",44.979,16.7091,"","","Prijedor","",27620668,"2024-07-22T09:03:30",3,"NO ERROR",24.69,100,997.13,0.11,0.12,0.12],
    [3814,363171,"Vazduh","Libelium","0004A30B0021DF70",44.979,16.7091,"","","Prijedor","",27621271,"2024-07-22T10:04:13",3,"NO ERROR",30.4,72.1,997.31,0.06,0.1,0.1],
    [3815,363171,"Vazduh","Libelium","0004A30B0021DF70",44.979,16.7091,"","","Prijedor","",27621888,"2024-07-22T11:04:55",3,"NO ERROR",31.06,63.2,997.19,0.12,0.14,0.14],
    [3816,363171,"Vazduh","Libelium","0004A30B0021DF70",44.979,16.7091,"","","Prijedor","",27622576,"2024-07-22T12:05:37",3,"NO ERROR",31.66,59.5,997.11,0.05,0.14,0.16],
    [3817,363171,"Vazduh","Libelium","0004A30B0021DF70",44.979,16.7091,"","","Prijedor","",27623219,"2024-07-22T13:06:19",3,"NO ERROR",31.97,56.8,997.34,0.05,0.12,0.2],
    [3818,363171,"Vazduh","Libelium","0004A30B0021DF70",44.979,16.7091,"","","Prijedor","",27623950,"2024-07-22T14:07:01",3,"NO ERROR",34.01,52.6,996.63,0.02,0.05,0.05],
    [3819,363171,"Vazduh","Libelium","0004A30B0021DF70",44.979,16.7091,"","","Prijedor","",27624685,"2024-07-22T15:07:43",3,"NO ERROR",32.68,52,997.21,0.12,0.17,0.17],
    [3820,363171,"Vazduh","Libelium","0004A30B0021DF70",44.979,16.7091,"","","Prijedor","",27625349,"2024-07-22T16:08:25",3,"NO ERROR",35.7,45.5,996.86,0.17,0.24,0.25],
    [3821,363171,"Vazduh","Libelium","0004A30B0021DF70",44.979,16.7091,"","","Prijedor","",27626013,"2024-07-22T17:09:20",3,"NO ERROR",36.28,44.7,996.5,0.1,0.13,0.14],
    [3822,363171,"Vazduh","Libelium","0004A30B0021DF70",44.979,16.7091,"","","Prijedor","",27626716,"2024-07-22T18:10:01",3,"NO ERROR",32.22,50.3,997.07,0.44,1.03,7.98],
    [3823,363171,"Vazduh","Libelium","0004A30B0021DF70",44.979,16.7091,"","","Prijedor","",27627349,"2024-07-22T19:10:43",3,"NO ERROR",28.15,58.9,998.3,0.29,0.37,0.37],
    [3824,363171,"Vazduh","Libelium","0004A30B0021DF70",44.979,16.7091,"","","Prijedor","",27627962,"2024-07-22T20:11:26",3,"NO ERROR",25.54,66.8,998.42,0.35,0.47,0.49],
    [3825,363171,"Vazduh","Libelium","0004A30B0021DF70",44.979,16.7091,"","","Prijedor","",27628667,"2024-07-22T21:12:14",3,"NO ERROR",23.89,84.2,999.59,0.18,0.23,0.23],
    [3826,363171,"Vazduh","Libelium","0004A30B0021DF70",44.979,16.7091,"","","Prijedor","",27629362,"2024-07-22T22:12:56",3,"NO ERROR",22.85,93,999.91,0.21,0.28,0.28],
    [3827,363171,"Vazduh","Libelium","0004A30B0021DF70",44.979,16.7091,"","","Prijedor","",27630026,"2024-07-22T23:13:38",3,"NO ERROR",21.65,100,999.92,0.28,0.38,0.39],
    [3828,363171,"Vazduh","Libelium","0004A30B0021DF70",44.979,16.7091,"","","Prijedor","",27630956,"2024-07-23T00:14:20",3,"NO ERROR",20.81,100,1000.42,0.53,0.66,0.67],
    [3829,363171,"Vazduh","Libelium","0004A30B0021DF70",44.979,16.7091,"","","Prijedor","",27631637,"2024-07-23T01:15:02",3,"NO ERROR",20.56,100,1000.54,0.29,0.39,0.4],
    [3830,363171,"Vazduh","Libelium","0004A30B0021DF70",44.979,16.7091,"","","Prijedor","",27632313,"2024-07-23T02:15:44",3,"NO ERROR",19.49,100,1000.91,0.21,0.24,0.24],
    [3831,363171,"Vazduh","Libelium","0004A30B0021DF70",44.979,16.7091,"","","Prijedor","",27633051,"2024-07-23T03:16:26",3,"NO ERROR",18.91,100,1000.99,0.28,0.35,0.35],
    [3832,363171,"Vazduh","Libelium","0004A30B0021DF70",44.979,16.7091,"","","Prijedor","",27633676,"2024-07-23T04:17:08",3,"NO ERROR",19.07,100,1000.88,0.34,0.4,0.4],
    [3833,363171,"Vazduh","Libelium","0004A30B0021DF70",44.979,16.7091,"","","Prijedor","",27634402,"2024-07-23T05:17:50",3,"NO ERROR",18.82,100,1000.87,0.39,0.52,0.53],
    [3834,363171,"Vazduh","Libelium","0004A30B0021DF70",44.979,16.7091,"","","Prijedor","",27635221,"2024-07-23T06:18:38",3,"NO ERROR",19.42,100,1001.3,0.39,0.54,0.56],
    [3835,363171,"Vazduh","Libelium","0004A30B0021DF70",44.979,16.7091,"","","Prijedor","",27635907,"2024-07-23T07:19:20",3,"NO ERROR",22.59,100,1001.56,0.28,0.36,0.37],
    [3836,363171,"Vazduh","Libelium","0004A30B0021DF70",44.979,16.7091,"","","Prijedor","",27636555,"2024-07-23T08:20:02",3,"NO ERROR",28.39,71.6,1001.59,0.22,0.3,0.3],
    [3837,363171,"Vazduh","Libelium","0004A30B0021DF70",44.979,16.7091,"","","Prijedor","",27637223,"2024-07-23T09:20:45",3,"NO ERROR",30.48,62.7,1001.7,0.45,0.64,0.64],
    [3838,363171,"Vazduh","Libelium","0004A30B0021DF70",44.979,16.7091,"","","Prijedor","",27637823,"2024-07-23T10:21:27",3,"NO ERROR",29.14,66.1,1001.54,0.12,0.15,0.15],
    [3839,363171,"Vazduh","Libelium","0004A30B0021DF70",44.979,16.7091,"","","Prijedor","",27638472,"2024-07-23T11:22:09",3,"NO ERROR",30.54,61.8,1001.16,0.19,0.29,0.29],
    [3840,363171,"Vazduh","Libelium","0004A30B0021DF70",44.979,16.7091,"","","Prijedor","",27639183,"2024-07-23T12:22:51",3,"NO ERROR",30.98,60.8,1001,0.13,0.15,0.15],
    [3841,363171,"Vazduh","Libelium","0004A30B0021DF70",44.979,16.7091,"","","Prijedor","",27639893,"2024-07-23T13:23:33",3,"NO ERROR",31.26,59.7,1000.46,0.17,0.22,0.22],
    [3842,363171,"Vazduh","Libelium","0004A30B0021DF70",44.979,16.7091,"","","Prijedor","",27640599,"2024-07-23T14:24:15",3,"NO ERROR",33.03,53.6,1000.02,0.05,0.11,0.3],
    [3843,363171,"Vazduh","Libelium","0004A30B0021DF70",44.979,16.7091,"","","Prijedor","",27641334,"2024-07-23T15:24:57",3,"NO ERROR",34.47,49.4,999.48,0.13,0.17,0.17],
    [3844,363171,"Vazduh","Libelium","0004A30B0021DF70",44.979,16.7091,"","","Prijedor","",27641965,"2024-07-23T16:25:39",3,"NO ERROR",34.5,48.1,998.72,0.06,0.08,0.08],
    [3845,363171,"Vazduh","Libelium","0004A30B0021DF70",44.979,16.7091,"","","Prijedor","",27642622,"2024-07-23T17:26:27",3,"NO ERROR",34.69,49.8,998.27,0.09,0.1,0.1],
    [3846,363171,"Vazduh","Libelium","0004A30B0021DF70",44.979,16.7091,"","","Prijedor","",27643305,"2024-07-23T18:27:09",3,"NO ERROR",30.9,59.7,998.21,0.05,0.13,0.43],
    [3847,363171,"Vazduh","Libelium","0004A30B0021DF70",44.979,16.7091,"","","Prijedor","",27643930,"2024-07-23T19:27:51",3,"NO ERROR",29.89,63.7,998.43,0.13,0.19,0.2],
    [3848,363171,"Vazduh","Libelium","0004A30B0021DF70",44.979,16.7091,"","","Prijedor","",27644543,"2024-07-23T20:28:34",3,"NO ERROR",28.33,72,998.99,0.18,0.21,0.21],
    [3849,363171,"Vazduh","Libelium","0004A30B0021DF70",44.979,16.7091,"","","Prijedor","",27645270,"2024-07-23T21:29:16",3,"NO ERROR",26.55,88.2,999.4,0.24,0.35,0.41],
    [3850,363171,"Vazduh","Libelium","0004A30B0021DF70",44.979,16.7091,"","","Prijedor","",27645926,"2024-07-23T22:29:58",3,"NO ERROR",24.58,100,999.25,0.2,0.29,0.3],
    [3851,363171,"Vazduh","Libelium","0004A30B0021DF70",44.979,16.7091,"","","Prijedor","",27646578,"2024-07-23T23:30:40",3,"NO ERROR",23.24,100,998.92,0.04,0.13,0.2],
    [3852,363171,"Vazduh","Libelium","0004A30B0021DF70",44.979,16.7091,"","","Prijedor","",27647513,"2024-07-24T00:31:22",3,"NO ERROR",22.5,100,999.22,0.2,0.3,0.3],
    [3853,363171,"Vazduh","Libelium","0004A30B0021DF70",44.979,16.7091,"","","Prijedor","",27648236,"2024-07-24T01:32:04",3,"NO ERROR",22.33,100,999.08,0.18,0.2,0.2],
    [3854,363171,"Vazduh","Libelium","0004A30B0021DF70",44.979,16.7091,"","","Prijedor","",27648870,"2024-07-24T02:32:46",3,"NO ERROR",22.22,100,998.96,0.17,0.22,0.22],
    [3855,363171,"Vazduh","Libelium","0004A30B0021DF70",44.979,16.7091,"","","Prijedor","",27649564,"2024-07-24T03:33:34",3,"NO ERROR",23.56,100,999.08,0.03,0.03,0.03],
    [3856,363171,"Vazduh","Libelium","0004A30B0021DF70",44.979,16.7091,"","","Prijedor","",27650212,"2024-07-24T04:34:16",3,"NO ERROR",23.61,98.1,998.99,0.13,0.22,0.31],
    [3857,363171,"Vazduh","Libelium","0004A30B0021DF70",44.979,16.7091,"","","Prijedor","",27650936,"2024-07-24T05:34:58",3,"NO ERROR",19.98,100,999.37,0.68,0.91,1.26],
    [3858,363171,"Vazduh","Libelium","0004A30B0021DF70",44.979,16.7091,"","","Prijedor","",27651680,"2024-07-24T06:35:40",3,"NO ERROR",20.72,100,999.3,0.35,0.4,0.4],
    [3859,363171,"Vazduh","Libelium","0004A30B0021DF70",44.979,16.7091,"","","Prijedor","",27652370,"2024-07-24T07:36:22",3,"NO ERROR",23.94,100,999.61,0.08,0.09,0.09],
    [3860,363171,"Vazduh","Libelium","0004A30B0021DF70",44.979,16.7091,"","","Prijedor","",27653039,"2024-07-24T08:37:04",3,"NO ERROR",26.47,100,1000.02,0.15,0.17,0.17],
    [3861,363171,"Vazduh","Libelium","0004A30B0021DF70",44.979,16.7091,"","","Prijedor","",27653731,"2024-07-24T09:37:47",3,"NO ERROR",27.94,80.8,999.95,0.06,0.09,0.09],
    [3862,363171,"Vazduh","Libelium","0004A30B0021DF70",44.979,16.7091,"","","Prijedor","",27654346,"2024-07-24T10:38:29",3,"NO ERROR",26.95,78.1,999.77,0.22,0.34,0.35],
    [3863,363171,"Vazduh","Libelium","0004A30B0021DF70",44.979,16.7091,"","","Prijedor","",27654978,"2024-07-24T11:39:11",3,"NO ERROR",28.64,68,999.49,0.1,0.14,0.14],
    [3864,363171,"Vazduh","Libelium","0004A30B0021DF70",44.979,16.7091,"","","Prijedor","",27655658,"2024-07-24T12:39:53",3,"NO ERROR",29.78,62.3,999.01,0.08,0.09,0.09],
    [3865,363171,"Vazduh","Libelium","0004A30B0021DF70",44.979,16.7091,"","","Prijedor","",27656388,"2024-07-24T13:40:41",3,"NO ERROR",30.97,52.5,998.31,0.05,0.05,0.05],
    [3866,363171,"Vazduh","Libelium","0004A30B0021DF70",44.979,16.7091,"","","Prijedor","",27657086,"2024-07-24T14:41:23",3,"NO ERROR",32.7,46.1,997.97,0,0.07,0.15],
    [3867,363171,"Vazduh","Libelium","0004A30B0021DF70",44.979,16.7091,"","","Prijedor","",27657799,"2024-07-24T15:42:05",3,"NO ERROR",33.43,47.8,997.5,0.05,0.09,0.09],
    [3868,363171,"Vazduh","Libelium","0004A30B0021DF70",44.979,16.7091,"","","Prijedor","",27658446,"2024-07-24T16:42:47",3,"NO ERROR",31.68,49.5,997.47,0.09,0.26,0.41],
    [3869,363171,"Vazduh","Libelium","0004A30B0021DF70",44.979,16.7091,"","","Prijedor","",27659126,"2024-07-24T17:43:29",3,"NO ERROR",30.62,48.8,997.31,0.03,0.03,0.03],
    [3870,363171,"Vazduh","Libelium","0004A30B0021DF70",44.979,16.7091,"","","Prijedor","",27659797,"2024-07-24T18:44:11",3,"NO ERROR",29,57,997.11,0.03,0.03,0.03],
    [3871,363171,"Vazduh","Libelium","0004A30B0021DF70",44.979,16.7091,"","","Prijedor","",27660444,"2024-07-24T19:44:53",3,"NO ERROR",27.55,64.1,997.54,0.06,0.19,0.31],
    [3872,363171,"Vazduh","Libelium","0004A30B0021DF70",44.979,16.7091,"","","Prijedor","",27661091,"2024-07-24T20:45:36",3,"NO ERROR",26.26,68.6,997.74,0.05,0.12,0.2],
    [3873,363171,"Vazduh","Libelium","0004A30B0021DF70",44.979,16.7091,"","","Prijedor","",27661762,"2024-07-24T21:46:18",3,"NO ERROR",24.53,88.1,998.5,0.12,0.3,0.4],
    [3874,363171,"Vazduh","Libelium","0004A30B0021DF70",44.979,16.7091,"","","Prijedor","",27662386,"2024-07-24T22:47:06",3,"NO ERROR",23.14,100,998.6,0.18,0.2,0.2],
    [3875,363171,"Vazduh","Libelium","0004A30B0021DF70",44.979,16.7091,"","","Prijedor","",27663048,"2024-07-24T23:47:48",3,"NO ERROR",22.03,100,998.72,0.2,0.26,0.26],
    [3876,363171,"Vazduh","Libelium","0004A30B0021DF70",44.979,16.7091,"","","Prijedor","",27664034,"2024-07-25T00:48:30",3,"NO ERROR",20.78,100,999.1,0.03,0.03,0.03],
    [3877,363171,"Vazduh","Libelium","0004A30B0021DF70",44.979,16.7091,"","","Prijedor","",27664767,"2024-07-25T01:49:12",3,"NO ERROR",20.52,100,999.27,0.08,0.09,0.09],
    [3878,363171,"Vazduh","Libelium","0004A30B0021DF70",44.979,16.7091,"","","Prijedor","",27665509,"2024-07-25T02:49:54",3,"NO ERROR",19.72,100,999.23,0.07,0.09,0.09],
    [3879,363171,"Vazduh","Libelium","0004A30B0021DF70",44.979,16.7091,"","","Prijedor","",27666197,"2024-07-25T03:50:36",3,"NO ERROR",19.09,100,999.01,0.02,0.02,0.02],
    [3880,363171,"Vazduh","Libelium","0004A30B0021DF70",44.979,16.7091,"","","Prijedor","",27666832,"2024-07-25T04:51:18",3,"NO ERROR",17.72,100,999.41,0.06,0.1,0.11],
    [3881,363171,"Vazduh","Libelium","0004A30B0021DF70",44.979,16.7091,"","","Prijedor","",27667645,"2024-07-25T05:52:06",3,"NO ERROR",16.94,100,999.5,0.08,0.09,0.09],
    [3882,363171,"Vazduh","Libelium","0004A30B0021DF70",44.979,16.7091,"","","Prijedor","",27668380,"2024-07-25T06:52:48",3,"NO ERROR",19.49,100,999.48,0.09,0.12,0.13],
    [3883,363171,"Vazduh","Libelium","0004A30B0021DF70",44.979,16.7091,"","","Prijedor","",27669026,"2024-07-25T07:53:30",3,"NO ERROR",24.62,84.7,999.65,0.05,0.08,0.08],
    [3884,363171,"Vazduh","Libelium","0004A30B0021DF70",44.979,16.7091,"","","Prijedor","",27669710,"2024-07-25T08:54:12",3,"NO ERROR",26.95,65.9,999.42,0.04,0.07,0.07],
    [3885,363171,"Vazduh","Libelium","0004A30B0021DF70",44.979,16.7091,"","","Prijedor","",27670335,"2024-07-25T09:54:55",3,"NO ERROR",28.21,57.6,999.44,0.2,0.25,0.26],
    [3886,363171,"Vazduh","Libelium","0004A30B0021DF70",44.979,16.7091,"","","Prijedor","",27670994,"2024-07-25T10:55:37",3,"NO ERROR",29.01,55.1,999.12,0.02,0.13,0.22],
    [3887,363171,"Vazduh","Libelium","0004A30B0021DF70",44.979,16.7091,"","","Prijedor","",27671637,"2024-07-25T11:56:19",3,"NO ERROR",26.87,58.4,998.78,0.09,0.15,0.16],
    [3888,363171,"Vazduh","Libelium","0004A30B0021DF70",44.979,16.7091,"","","Prijedor","",27672254,"2024-07-25T12:57:01",3,"NO ERROR",28.6,48.8,998.23,0.04,0.06,0.06],
    [3889,363171,"Vazduh","Libelium","0004A30B0021DF70",44.979,16.7091,"","","Prijedor","",27672967,"2024-07-25T13:57:49",3,"NO ERROR",29.65,46.2,997.8,0.09,0.11,0.11],
    [3890,363171,"Vazduh","Libelium","0004A30B0021DF70",44.979,16.7091,"","","Prijedor","",27673693,"2024-07-25T14:58:31",3,"NO ERROR",31.03,42.4,997.42,0.03,0.04,0.04],
    [3891,363171,"Vazduh","Libelium","0004A30B0021DF70",44.979,16.7091,"","","Prijedor","",27674356,"2024-07-25T15:59:13",3,"NO ERROR",31.41,43.1,997.06,0.04,0.07,0.07],
    [3892,363171,"Vazduh","Libelium","0004A30B0021DF70",44.979,16.7091,"","","Prijedor","",27674948,"2024-07-25T16:59:55",3,"NO ERROR",31.79,40.4,996.79,0.13,0.2,0.22],
    [3893,363171,"Vazduh","Libelium","0004A30B0021DF70",44.979,16.7091,"","","Prijedor","",27675588,"2024-07-25T18:00:37",3,"NO ERROR",28.61,45.3,996.66,0.03,0.03,0.03],
    [3894,363171,"Vazduh","Libelium","0004A30B0021DF70",44.979,16.7091,"","","Prijedor","",27676218,"2024-07-25T19:01:19",3,"NO ERROR",27.01,46.7,996.87,0.24,0.3,0.3],
    [3895,363171,"Vazduh","Libelium","0004A30B0021DF70",44.979,16.7091,"","","Prijedor","",27676804,"2024-07-25T20:02:01",3,"NO ERROR",25.62,52.7,996.82,0.02,0.13,0.22],
    [3896,363171,"Vazduh","Libelium","0004A30B0021DF70",44.979,16.7091,"","","Prijedor","",27677442,"2024-07-25T21:02:44",3,"NO ERROR",23.77,61.9,997.42,0.25,0.28,0.28],
    [3897,363171,"Vazduh","Libelium","0004A30B0021DF70",44.979,16.7091,"","","Prijedor","",27678118,"2024-07-25T22:03:26",3,"NO ERROR",22.13,73.2,997.78,0.22,0.27,0.27],
    [3898,363171,"Vazduh","Libelium","0004A30B0021DF70",44.979,16.7091,"","","Prijedor","",27678761,"2024-07-25T23:04:08",3,"NO ERROR",19.83,94.4,997.99,0.16,0.19,0.2],
    [3899,363171,"Vazduh","Libelium","0004A30B0021DF70",44.979,16.7091,"","","Prijedor","",27679631,"2024-07-26T00:04:50",3,"NO ERROR",18.01,100,998.48,0.35,0.5,0.5],
    [3900,363171,"Vazduh","Libelium","0004A30B0021DF70",44.979,16.7091,"","","Prijedor","",27680379,"2024-07-26T01:05:32",3,"NO ERROR",17.23,100,998.57,0.11,0.17,0.17],
    [3901,363171,"Vazduh","Libelium","0004A30B0021DF70",44.979,16.7091,"","","Prijedor","",27681812,"2024-07-26T03:06:56",3,"NO ERROR",15.79,100,998.79,0.04,0.07,0.07],
    [3902,363171,"Vazduh","Libelium","0004A30B0021DF70",44.979,16.7091,"","","Prijedor","",27682466,"2024-07-26T04:07:38",3,"NO ERROR",15.17,100,998.73,0.04,0.05,0.05],
    [3903,363171,"Vazduh","Libelium","0004A30B0021DF70",44.979,16.7091,"","","Prijedor","",27683181,"2024-07-26T05:08:20",3,"NO ERROR",14.58,100,998.92,0.21,0.27,0.27],
    [3904,363171,"Vazduh","Libelium","0004A30B0021DF70",44.979,16.7091,"","","Prijedor","",27683999,"2024-07-26T06:09:02",3,"NO ERROR",13.96,100,999.01,0.07,0.07,0.07],
    [3905,363171,"Vazduh","Libelium","0004A30B0021DF70",44.979,16.7091,"","","Prijedor","",27684719,"2024-07-26T07:09:44",3,"NO ERROR",16.86,100,999.37,0.06,0.17,0.26],
    [3906,363171,"Vazduh","Libelium","0004A30B0021DF70",44.979,16.7091,"","","Prijedor","",27685395,"2024-07-26T08:10:26",3,"NO ERROR",22.03,83.4,999.53,0.05,0.05,0.05],
    [3907,363171,"Vazduh","Libelium","0004A30B0021DF70",44.979,16.7091,"","","Prijedor","",27686093,"2024-07-26T09:11:08",3,"NO ERROR",25.58,69.1,999.42,0.06,0.06,0.06],
    [3908,363171,"Vazduh","Libelium","0004A30B0021DF70",44.979,16.7091,"","","Prijedor","",27686725,"2024-07-26T10:11:51",3,"NO ERROR",28.88,55.6,999.34,0.05,0.08,0.08],
    [3909,363171,"Vazduh","Libelium","0004A30B0021DF70",44.979,16.7091,"","","Prijedor","",27687464,"2024-07-26T11:12:33",3,"NO ERROR",27.11,54.4,999.06,0.22,0.24,0.24],
    [3910,363171,"Vazduh","Libelium","0004A30B0021DF70",44.979,16.7091,"","","Prijedor","",27688216,"2024-07-26T12:13:15",3,"NO ERROR",27.16,49.3,998.8,0.06,0.08,0.09],
    [3911,363171,"Vazduh","Libelium","0004A30B0021DF70",44.979,16.7091,"","","Prijedor","",27688929,"2024-07-26T13:13:57",3,"NO ERROR",29.17,46.1,998.68,0.04,0.08,0.09],
    [3912,363171,"Vazduh","Libelium","0004A30B0021DF70",44.979,16.7091,"","","Prijedor","",27689675,"2024-07-26T14:14:39",3,"NO ERROR",30.07,44.9,998.58,0.03,0.03,0.03],
    [3913,363171,"Vazduh","Libelium","0004A30B0021DF70",44.979,16.7091,"","","Prijedor","",27690399,"2024-07-26T15:15:21",3,"NO ERROR",31.3,42.5,998.45,0.05,0.06,0.06],
    [3914,363171,"Vazduh","Libelium","0004A30B0021DF70",44.979,16.7091,"","","Prijedor","",27691056,"2024-07-26T16:16:03",3,"NO ERROR",33.25,39.9,998,0.06,0.09,0.09],
    [3915,363171,"Vazduh","Libelium","0004A30B0021DF70",44.979,16.7091,"","","Prijedor","",27691696,"2024-07-26T17:16:45",3,"NO ERROR",34.5,38.1,997.67,0.15,0.19,0.19],
    [3916,363171,"Vazduh","Libelium","0004A30B0021DF70",44.979,16.7091,"","","Prijedor","",27692390,"2024-07-26T18:17:27",3,"NO ERROR",29.52,43.5,997.67,0.01,0.03,0.04],
    [3917,363171,"Vazduh","Libelium","0004A30B0021DF70",44.979,16.7091,"","","Prijedor","",27693025,"2024-07-26T19:18:09",3,"NO ERROR",29,44.5,997.87,0.15,0.28,0.34],
    [3918,363171,"Vazduh","Libelium","0004A30B0021DF70",44.979,16.7091,"","","Prijedor","",27693645,"2024-07-26T20:18:51",3,"NO ERROR",27.75,48.7,998.14,0.08,0.11,0.11],
    [3919,363171,"Vazduh","Libelium","0004A30B0021DF70",44.979,16.7091,"","","Prijedor","",27694360,"2024-07-26T21:19:34",3,"NO ERROR",24.83,68.2,998.73,0.73,1.21,1.25],
    [3920,363171,"Vazduh","Libelium","0004A30B0021DF70",44.979,16.7091,"","","Prijedor","",27695008,"2024-07-26T22:20:16",3,"NO ERROR",22.31,90.3,999.22,0.11,0.38,3.2],
    [3921,363171,"Vazduh","Libelium","0004A30B0021DF70",44.979,16.7091,"","","Prijedor","",27695628,"2024-07-26T23:20:58",3,"NO ERROR",20.32,95.5,999.56,0.14,0.25,0.51],
    [3922,363171,"Vazduh","Libelium","0004A30B0021DF70",44.979,16.7091,"","","Prijedor","",27696501,"2024-07-27T00:21:40",3,"NO ERROR",18.91,100,999.75,0.06,0.15,0.19],
    [3923,363171,"Vazduh","Libelium","0004A30B0021DF70",44.979,16.7091,"","","Prijedor","",27697214,"2024-07-27T01:22:22",3,"NO ERROR",19.17,100,999.91,0.19,0.23,0.23],
    [3924,363171,"Vazduh","Libelium","0004A30B0021DF70",44.979,16.7091,"","","Prijedor","",27697866,"2024-07-27T02:23:04",3,"NO ERROR",18.15,100,1000.09,0.34,0.51,0.52],
    [3925,363171,"Vazduh","Libelium","0004A30B0021DF70",44.979,16.7091,"","","Prijedor","",27698535,"2024-07-27T03:23:46",3,"NO ERROR",16.12,100,1000.24,0.12,0.17,0.17],
    [3926,363171,"Vazduh","Libelium","0004A30B0021DF70",44.979,16.7091,"","","Prijedor","",27699164,"2024-07-27T04:24:28",3,"NO ERROR",17.03,100,1000.38,0.13,0.23,0.31],
    [3927,363171,"Vazduh","Libelium","0004A30B0021DF70",44.979,16.7091,"","","Prijedor","",27699917,"2024-07-27T05:25:10",3,"NO ERROR",15.39,100,1000.81,0.06,0.08,0.08],
    [3928,363171,"Vazduh","Libelium","0004A30B0021DF70",44.979,16.7091,"","","Prijedor","",27700694,"2024-07-27T06:25:52",3,"NO ERROR",16.04,100,1001.24,0.08,0.12,0.13],
    [3929,363171,"Vazduh","Libelium","0004A30B0021DF70",44.979,16.7091,"","","Prijedor","",27701405,"2024-07-27T07:26:34",3,"NO ERROR",21.64,82.8,1001.66,0.15,0.25,0.28],
    [3930,363171,"Vazduh","Libelium","0004A30B0021DF70",44.979,16.7091,"","","Prijedor","",27702074,"2024-07-27T08:27:16",3,"NO ERROR",24.45,69.6,1001.83,0.19,0.46,4.02],
    [3931,363171,"Vazduh","Libelium","0004A30B0021DF70",44.979,16.7091,"","","Prijedor","",27702798,"2024-07-27T09:27:58",3,"NO ERROR",28.32,54,1001.79,0.16,0.27,0.35],
    [3932,363171,"Vazduh","Libelium","0004A30B0021DF70",44.979,16.7091,"","","Prijedor","",27703465,"2024-07-27T10:28:41",3,"NO ERROR",28.75,52.2,1001.65,0.09,0.1,0.1],
    [3933,363171,"Vazduh","Libelium","0004A30B0021DF70",44.979,16.7091,"","","Prijedor","",27704080,"2024-07-27T11:29:23",3,"NO ERROR",29.69,50.2,1001.34,0.16,0.21,0.23],
    [3934,363171,"Vazduh","Libelium","0004A30B0021DF70",44.979,16.7091,"","","Prijedor","",27704780,"2024-07-27T12:30:05",3,"NO ERROR",31.11,45.4,1000.91,0.06,0.08,0.08],
    [3935,363171,"Vazduh","Libelium","0004A30B0021DF70",44.979,16.7091,"","","Prijedor","",27705525,"2024-07-27T13:30:59",3,"NO ERROR",33.23,39.9,1000.59,0.08,0.11,0.11],
    [3936,363171,"Vazduh","Libelium","0004A30B0021DF70",44.979,16.7091,"","","Prijedor","",27706214,"2024-07-27T14:31:41",3,"NO ERROR",35.19,34.1,1000.37,0.07,0.15,1.15],
    [3937,363171,"Vazduh","Libelium","0004A30B0021DF70",44.979,16.7091,"","","Prijedor","",27706979,"2024-07-27T15:32:23",3,"NO ERROR",37.57,32.4,1000.16,0.15,0.24,0.25],
    [3938,363171,"Vazduh","Libelium","0004A30B0021DF70",44.979,16.7091,"","","Prijedor","",27707668,"2024-07-27T16:33:05",3,"NO ERROR",38.51,30.2,999.77,0.2,0.22,0.22],
    [3939,363171,"Vazduh","Libelium","0004A30B0021DF70",44.979,16.7091,"","","Prijedor","",27708364,"2024-07-27T17:33:47",3,"NO ERROR",36.28,32.5,999.41,0.03,0.09,1.52],
    [3940,363171,"Vazduh","Libelium","0004A30B0021DF70",44.979,16.7091,"","","Prijedor","",27709067,"2024-07-27T18:34:29",3,"NO ERROR",33.15,37.5,999.28,0.05,0.09,0.09],
    [3941,363171,"Vazduh","Libelium","0004A30B0021DF70",44.979,16.7091,"","","Prijedor","",27709724,"2024-07-27T19:35:12",3,"NO ERROR",31.81,36.2,999.51,0.09,0.2,0.29],
    [3942,363171,"Vazduh","Libelium","0004A30B0021DF70",44.979,16.7091,"","","Prijedor","",27710354,"2024-07-27T20:35:54",3,"NO ERROR",28.54,50.3,999.79,0.18,0.2,0.2],
    [3943,363171,"Vazduh","Libelium","0004A30B0021DF70",44.979,16.7091,"","","Prijedor","",27711096,"2024-07-27T21:36:48",3,"NO ERROR",25.56,62.2,1000.48,0.33,0.45,0.45],
    [3944,363171,"Vazduh","Libelium","0004A30B0021DF70",44.979,16.7091,"","","Prijedor","",27711776,"2024-07-27T22:37:30",3,"NO ERROR",23.65,72.5,1000.97,0.15,0.2,0.2],
    [3945,363171,"Vazduh","Libelium","0004A30B0021DF70",44.979,16.7091,"","","Prijedor","",27712461,"2024-07-27T23:38:12",3,"NO ERROR",21.59,91.2,1001.21,0.04,0.07,0.07],
    [3946,363171,"Vazduh","Libelium","0004A30B0021DF70",44.979,16.7091,"","","Prijedor","",27713437,"2024-07-28T00:38:54",3,"NO ERROR",20.64,98.9,1001.49,0.5,0.76,0.77],
    [3947,363171,"Vazduh","Libelium","0004A30B0021DF70",44.979,16.7091,"","","Prijedor","",27714146,"2024-07-28T01:39:36",3,"NO ERROR",19.96,100,1001.6,0.13,0.43,1.04],
    [3948,363171,"Vazduh","Libelium","0004A30B0021DF70",44.979,16.7091,"","","Prijedor","",27714861,"2024-07-28T02:40:18",3,"NO ERROR",18.69,100,1001.52,0.26,0.37,0.39],
    [3949,363171,"Vazduh","Libelium","0004A30B0021DF70",44.979,16.7091,"","","Prijedor","",27715554,"2024-07-28T03:41:00",3,"NO ERROR",18.29,100,1001.58,0.04,0.16,0.47],
    [3950,363171,"Vazduh","Libelium","0004A30B0021DF70",44.979,16.7091,"","","Prijedor","",27716237,"2024-07-28T04:41:42",3,"NO ERROR",17.41,100,1001.92,0.09,0.12,0.13],
    [3951,363171,"Vazduh","Libelium","0004A30B0021DF70",44.979,16.7091,"","","Prijedor","",27717010,"2024-07-28T05:42:24",3,"NO ERROR",17.6,100,1002.13,0.17,0.21,0.21],
    [3952,363171,"Vazduh","Libelium","0004A30B0021DF70",44.979,16.7091,"","","Prijedor","",27717807,"2024-07-28T06:43:12",3,"NO ERROR",19.72,100,1002.45,0.23,0.26,0.26],
    [3953,363171,"Vazduh","Libelium","0004A30B0021DF70",44.979,16.7091,"","","Prijedor","",27718557,"2024-07-28T07:43:54",3,"NO ERROR",24.04,80.8,1002.46,0.03,0.04,0.04],
    [3954,363171,"Vazduh","Libelium","0004A30B0021DF70",44.979,16.7091,"","","Prijedor","",27719300,"2024-07-28T08:44:37",3,"NO ERROR",29.46,58.4,1002.47,0.09,0.2,0.22],
    [3955,363171,"Vazduh","Libelium","0004A30B0021DF70",44.979,16.7091,"","","Prijedor","",27719984,"2024-07-28T09:45:19",3,"NO ERROR",31.47,55.1,1002.31,0.04,0.07,0.09],
    [3956,363171,"Vazduh","Libelium","0004A30B0021DF70",44.979,16.7091,"","","Prijedor","",27720713,"2024-07-28T10:46:01",3,"NO ERROR",32.31,52.4,1001.98,0.13,0.23,1.24],
    [3957,363171,"Vazduh","Libelium","0004A30B0021DF70",44.979,16.7091,"","","Prijedor","",27721449,"2024-07-28T11:46:43",3,"NO ERROR",34,47.6,1001.79,0.12,0.16,0.18],
    [3958,363171,"Vazduh","Libelium","0004A30B0021DF70",44.979,16.7091,"","","Prijedor","",27722126,"2024-07-28T12:47:25",3,"NO ERROR",35.36,43,1001.35,0.1,0.15,0.16],
    [3959,363171,"Vazduh","Libelium","0004A30B0021DF70",44.979,16.7091,"","","Prijedor","",27722867,"2024-07-28T13:48:07",3,"NO ERROR",37.41,38,1001.05,0.12,0.17,0.17],
    [3960,363171,"Vazduh","Libelium","0004A30B0021DF70",44.979,16.7091,"","","Prijedor","",27723663,"2024-07-28T14:48:49",3,"NO ERROR",39.03,35.6,1000.45,0.16,0.22,0.23],
    [3961,363171,"Vazduh","Libelium","0004A30B0021DF70",44.979,16.7091,"","","Prijedor","",27724373,"2024-07-28T15:49:31",3,"NO ERROR",40.48,33.8,1000.02,0.15,0.25,0.33],
    [3962,363171,"Vazduh","Libelium","0004A30B0021DF70",44.979,16.7091,"","","Prijedor","",27725052,"2024-07-28T16:50:13",3,"NO ERROR",38.24,38.5,999.88,0.39,0.79,2.18],
    [3963,363171,"Vazduh","Libelium","0004A30B0021DF70",44.979,16.7091,"","","Prijedor","",27725747,"2024-07-28T17:50:56",3,"NO ERROR",35.85,43.7,1000.17,0.2,0.21,0.21],
    [3964,363171,"Vazduh","Libelium","0004A30B0021DF70",44.979,16.7091,"","","Prijedor","",27726422,"2024-07-28T18:51:38",3,"NO ERROR",33.72,50.3,1000.67,0.12,0.21,0.23],
    [3965,363171,"Vazduh","Libelium","0004A30B0021DF70",44.979,16.7091,"","","Prijedor","",27727066,"2024-07-28T19:52:20",3,"NO ERROR",29.88,58.4,1002.56,0.12,0.32,2.92],
    [3966,363171,"Vazduh","Libelium","0004A30B0021DF70",44.979,16.7091,"","","Prijedor","",27727741,"2024-07-28T20:53:02",3,"NO ERROR",27.25,60,1003.39,0.07,0.19,0.27],
    [3967,363171,"Vazduh","Libelium","0004A30B0021DF70",44.979,16.7091,"","","Prijedor","",27728451,"2024-07-28T21:53:44",3,"NO ERROR",27.02,59,1004.51,0.02,0.02,0.02],
    [3968,363171,"Vazduh","Libelium","0004A30B0021DF70",44.979,16.7091,"","","Prijedor","",27730633,"2024-07-29T00:55:50",3,"NO ERROR",23.26,94.4,1006.39,0.08,0.11,0.11],
    [3969,363171,"Vazduh","Libelium","0004A30B0021DF70",44.979,16.7091,"","","Prijedor","",27731233,"2024-07-29T01:56:32",3,"NO ERROR",22.48,100,1006.67,0.07,0.07,0.07],
    [3970,363171,"Vazduh","Libelium","0004A30B0021DF70",44.979,16.7091,"","","Prijedor","",27732490,"2024-07-29T03:57:56",3,"NO ERROR",22.1,100,1006.41,0.03,0.05,0.05],
    [3971,363171,"Vazduh","Libelium","0004A30B0021DF70",44.979,16.7091,"","","Prijedor","",27733105,"2024-07-29T04:58:38",3,"NO ERROR",21.73,100,1006.48,0.05,0.1,0.27],
    [3972,363171,"Vazduh","Libelium","0004A30B0021DF70",44.979,16.7091,"","","Prijedor","",27733899,"2024-07-29T05:59:27",3,"NO ERROR",21.68,100,1006.3,0.08,0.25,1.42],
    [3973,363171,"Vazduh","Libelium","0004A30B0021DF70",44.979,16.7091,"","","Prijedor","",27734607,"2024-07-29T07:00:09",3,"NO ERROR",22.36,100,1006.85,0.08,0.11,0.12],
    [3974,363171,"Vazduh","Libelium","0004A30B0021DF70",44.979,16.7091,"","","Prijedor","",27735220,"2024-07-29T08:00:51",3,"NO ERROR",25.66,80.7,1007.06,0.08,0.11,0.11],
    [3975,363171,"Vazduh","Libelium","0004A30B0021DF70",44.979,16.7091,"","","Prijedor","",27735935,"2024-07-29T09:01:33",3,"NO ERROR",30.54,62.4,1006.76,0.27,0.34,0.34],
    [3976,363171,"Vazduh","Libelium","0004A30B0021DF70",44.979,16.7091,"","","Prijedor","",27736678,"2024-07-29T10:02:15",3,"NO ERROR",29.27,60.3,1006.5,0.23,0.29,0.29],
    [3977,363171,"Vazduh","Libelium","0004A30B0021DF70",44.979,16.7091,"","","Prijedor","",27737413,"2024-07-29T11:02:57",3,"NO ERROR",29.96,44,1006.22,0.05,0.07,0.07],
    [3978,363171,"Vazduh","Libelium","0004A30B0021DF70",44.979,16.7091,"","","Prijedor","",27738151,"2024-07-29T12:03:45",3,"NO ERROR",29.24,46.4,1005.61,0.11,0.16,0.16],
    [3979,363171,"Vazduh","Libelium","0004A30B0021DF70",44.979,16.7091,"","","Prijedor","",27738873,"2024-07-29T13:04:27",3,"NO ERROR",30.12,41.5,1005.1,0.08,0.12,0.12],
    [3980,363171,"Vazduh","Libelium","0004A30B0021DF70",44.979,16.7091,"","","Prijedor","",27739602,"2024-07-29T14:05:09",3,"NO ERROR",31.12,41.5,1004.4,0.08,0.13,0.14],
    [3981,363171,"Vazduh","Libelium","0004A30B0021DF70",44.979,16.7091,"","","Prijedor","",27740353,"2024-07-29T15:05:51",3,"NO ERROR",32.98,38.2,1003.68,0,0,0],
    [3982,363171,"Vazduh","Libelium","0004A30B0021DF70",44.979,16.7091,"","","Prijedor","",27741047,"2024-07-29T16:06:40",3,"NO ERROR",33.14,38.4,1003.21,0.1,0.13,0.13],
    [3983,363171,"Vazduh","Libelium","0004A30B0021DF70",44.979,16.7091,"","","Prijedor","",27741719,"2024-07-29T17:07:22",3,"NO ERROR",33.68,40.2,1002.8,0.13,0.23,0.23],
    [3984,363171,"Vazduh","Libelium","0004A30B0021DF70",44.979,16.7091,"","","Prijedor","",27742410,"2024-07-29T18:08:04",3,"NO ERROR",30.43,44.5,1002.62,0.15,0.2,0.2],
    [3985,363171,"Vazduh","Libelium","0004A30B0021DF70",44.979,16.7091,"","","Prijedor","",27743091,"2024-07-29T19:08:46",3,"NO ERROR",28.62,47,1002.58,0.05,0.12,0.13],
    [3986,363171,"Vazduh","Libelium","0004A30B0021DF70",44.979,16.7091,"","","Prijedor","",27743738,"2024-07-29T20:09:28",3,"NO ERROR",26.93,51.4,1002.81,0.26,0.32,0.32],
    [3987,363171,"Vazduh","Libelium","0004A30B0021DF70",44.979,16.7091,"","","Prijedor","",27744458,"2024-07-29T21:10:16",3,"NO ERROR",25.41,53.6,1003.05,0.07,0.14,0.22],
    [3988,363171,"Vazduh","Libelium","0004A30B0021DF70",44.979,16.7091,"","","Prijedor","",27745174,"2024-07-29T22:10:58",3,"NO ERROR",24.25,56.7,1003.41,0.11,0.11,0.11],
    [3989,363171,"Vazduh","Libelium","0004A30B0021DF70",44.979,16.7091,"","","Prijedor","",27745865,"2024-07-29T23:11:40",3,"NO ERROR",22.85,64.7,1003.77,0.08,0.16,0.47],
    [3990,363171,"Vazduh","Libelium","0004A30B0021DF70",44.979,16.7091,"","","Prijedor","",27746797,"2024-07-30T00:12:22",3,"NO ERROR",21.68,78.9,1003.84,0.07,0.13,0.14],
    [3991,363171,"Vazduh","Libelium","0004A30B0021DF70",44.979,16.7091,"","","Prijedor","",27747567,"2024-07-30T01:13:04",3,"NO ERROR",19.08,98.2,1004.27,0.14,0.3,0.4],
    [3992,363171,"Vazduh","Libelium","0004A30B0021DF70",44.979,16.7091,"","","Prijedor","",27748294,"2024-07-30T02:13:46",3,"NO ERROR",18.15,100,1004.45,0.08,0.11,0.12],
    [3993,363171,"Vazduh","Libelium","0004A30B0021DF70",44.979,16.7091,"","","Prijedor","",27749032,"2024-07-30T03:14:28",3,"NO ERROR",16.88,100,1004.39,0.08,0.11,0.11],
    [3994,363171,"Vazduh","Libelium","0004A30B0021DF70",44.979,16.7091,"","","Prijedor","",27749705,"2024-07-30T04:15:10",3,"NO ERROR",16.13,100,1004.38,0.08,0.09,0.09],
    [3995,363171,"Vazduh","Libelium","0004A30B0021DF70",44.979,16.7091,"","","Prijedor","",27750448,"2024-07-30T05:15:53",3,"NO ERROR",15.51,100,1004.62,0.05,0.06,0.06],
    [3996,363171,"Vazduh","Libelium","0004A30B0021DF70",44.979,16.7091,"","","Prijedor","",27751329,"2024-07-30T06:16:35",3,"NO ERROR",15.26,100,1004.91,0.05,0.15,0.23],
    [3997,363171,"Vazduh","Libelium","0004A30B0021DF70",44.979,16.7091,"","","Prijedor","",27752079,"2024-07-30T07:17:17",3,"NO ERROR",20.26,95.1,1004.99,0.05,0.1,0.1],
    [3998,363171,"Vazduh","Libelium","0004A30B0021DF70",44.979,16.7091,"","","Prijedor","",27752787,"2024-07-30T08:17:59",3,"NO ERROR",24.63,69.3,1005.01,0.03,0.17,0.49],
    [3999,363171,"Vazduh","Libelium","0004A30B0021DF70",44.979,16.7091,"","","Prijedor","",27753576,"2024-07-30T09:18:41",3,"NO ERROR",25.94,63.6,1004.78,0.17,0.33,0.43],
    [4000,363171,"Vazduh","Libelium","0004A30B0021DF70",44.979,16.7091,"","","Prijedor","",27754284,"2024-07-30T10:19:23",3,"NO ERROR",27.34,57,1004.4,0.22,0.28,0.28],
    [4001,363171,"Vazduh","Libelium","0004A30B0021DF70",44.979,16.7091,"","","Prijedor","",27754973,"2024-07-30T11:20:05",3,"NO ERROR",29.58,39.8,1004.25,0.14,0.2,0.22],
    [4002,363171,"Vazduh","Libelium","0004A30B0021DF70",44.979,16.7091,"","","Prijedor","",27755694,"2024-07-30T12:20:47",3,"NO ERROR",29.03,37.9,1003.95,0.11,0.14,0.15],
    [4003,363171,"Vazduh","Libelium","0004A30B0021DF70",44.979,16.7091,"","","Prijedor","",27756402,"2024-07-30T13:21:29",3,"NO ERROR",29.35,36.9,1003.49,0.12,0.36,1.61],
    [4004,363171,"Vazduh","Libelium","0004A30B0021DF70",44.979,16.7091,"","","Prijedor","",27757092,"2024-07-30T14:22:17",3,"NO ERROR",31.19,34.1,1003.16,0.11,0.28,0.46],
    [4005,363171,"Vazduh","Libelium","0004A30B0021DF70",44.979,16.7091,"","","Prijedor","",27757844,"2024-07-30T15:22:59",3,"NO ERROR",31.32,32.7,1002.45,0.03,0.03,0.03],
    [4006,363171,"Vazduh","Libelium","0004A30B0021DF70",44.979,16.7091,"","","Prijedor","",27758500,"2024-07-30T16:23:42",3,"NO ERROR",33.35,32.3,1002.07,0.02,0.02,0.02],
    [4007,363171,"Vazduh","Libelium","0004A30B0021DF70",44.979,16.7091,"","","Prijedor","",27759154,"2024-07-30T17:24:24",3,"NO ERROR",32.72,31.7,1001.69,0.07,0.08,0.08],
    [4008,363171,"Vazduh","Libelium","0004A30B0021DF70",44.979,16.7091,"","","Prijedor","",27759858,"2024-07-30T18:25:06",3,"NO ERROR",28.55,36.8,1001.31,0.04,0.08,0.09],
    [4009,363171,"Vazduh","Libelium","0004A30B0021DF70",44.979,16.7091,"","","Prijedor","",27760517,"2024-07-30T19:25:48",3,"NO ERROR",27.29,39.9,1001.27,0.09,0.12,0.13],
    [4010,363171,"Vazduh","Libelium","0004A30B0021DF70",44.979,16.7091,"","","Prijedor","",27761148,"2024-07-30T20:26:30",3,"NO ERROR",25.2,45.9,1001.33,0.08,0.1,0.1],
    [4011,363171,"Vazduh","Libelium","0004A30B0021DF70",44.979,16.7091,"","","Prijedor","",27761900,"2024-07-30T21:27:12",3,"NO ERROR",23.17,54.2,1001.57,0.1,0.16,0.39],
    [4012,363171,"Vazduh","Libelium","0004A30B0021DF70",44.979,16.7091,"","","Prijedor","",27762591,"2024-07-30T22:27:54",3,"NO ERROR",20.78,66,1002.04,0.39,0.63,3.75],
    [4013,363171,"Vazduh","Libelium","0004A30B0021DF70",44.979,16.7091,"","","Prijedor","",27763287,"2024-07-30T23:28:36",3,"NO ERROR",18.25,89.3,1002.16,0.14,0.19,0.19],
    [4014,363171,"Vazduh","Libelium","0004A30B0021DF70",44.979,16.7091,"","","Prijedor","",27764253,"2024-07-31T00:29:18",3,"NO ERROR",17.51,98.8,1002.18,0.25,0.3,0.31],
    [4015,363171,"Vazduh","Libelium","0004A30B0021DF70",44.979,16.7091,"","","Prijedor","",27765024,"2024-07-31T01:30:00",3,"NO ERROR",15.75,100,1002.3,0.25,0.45,0.57],
    [4016,363171,"Vazduh","Libelium","0004A30B0021DF70",44.979,16.7091,"","","Prijedor","",27765691,"2024-07-31T02:30:42",3,"NO ERROR",15.29,100,1002.06,0.16,0.23,0.23],
    [4017,363171,"Vazduh","Libelium","0004A30B0021DF70",44.979,16.7091,"","","Prijedor","",27766389,"2024-07-31T03:31:24",3,"NO ERROR",14.09,100,1001.83,0.02,0.02,0.02],
    [4018,363171,"Vazduh","Libelium","0004A30B0021DF70",44.979,16.7091,"","","Prijedor","",27767047,"2024-07-31T04:32:06",3,"NO ERROR",13.44,100,1001.84,0.08,0.14,0.16],
    [4019,363171,"Vazduh","Libelium","0004A30B0021DF70",44.979,16.7091,"","","Prijedor","",27767843,"2024-07-31T05:33:01",3,"NO ERROR",12.67,100,1001.95,0.1,0.15,0.15],
    [4020,363171,"Vazduh","Libelium","0004A30B0021DF70",44.979,16.7091,"","","Prijedor","",27768634,"2024-07-31T06:33:43",3,"NO ERROR",14.58,100,1002.14,0.09,0.25,0.35],
    [4021,363171,"Vazduh","Libelium","0004A30B0021DF70",44.979,16.7091,"","","Prijedor","",27769369,"2024-07-31T07:34:25",3,"NO ERROR",20.21,78.3,1002.36,0.03,0.03,0.03],
    [4022,363171,"Vazduh","Libelium","0004A30B0021DF70",44.979,16.7091,"","","Prijedor","",27770064,"2024-07-31T08:35:07",3,"NO ERROR",22.39,64.3,1002.29,0.19,0.28,0.29],
    [4023,363171,"Vazduh","Libelium","0004A30B0021DF70",44.979,16.7091,"","","Prijedor","",27770781,"2024-07-31T09:35:49",3,"NO ERROR",26.81,52.1,1001.97,0.15,0.16,0.16],
    [4024,363171,"Vazduh","Libelium","0004A30B0021DF70",44.979,16.7091,"","","Prijedor","",27771523,"2024-07-31T10:36:31",3,"NO ERROR",28.62,46.2,1001.56,0.12,0.21,0.23],
    [4025,363171,"Vazduh","Libelium","0004A30B0021DF70",44.979,16.7091,"","","Prijedor","",27772241,"2024-07-31T11:37:13",3,"NO ERROR",28.18,45.2,1000.99,0.17,0.33,1.33],
    [4026,363171,"Vazduh","Libelium","0004A30B0021DF70",44.979,16.7091,"","","Prijedor","",27772935,"2024-07-31T12:37:55",3,"NO ERROR",29.98,40.4,1000.64,0.23,0.38,0.4],
    [4027,363171,"Vazduh","Libelium","0004A30B0021DF70",44.979,16.7091,"","","Prijedor","",27773669,"2024-07-31T13:38:37",3,"NO ERROR",30.9,38.3,1000.06,0.02,0.02,0.02],
    [4028,363171,"Vazduh","Libelium","0004A30B0021DF70",44.979,16.7091,"","","Prijedor","",27774386,"2024-07-31T14:39:19",3,"NO ERROR",33.71,31.9,999.3,0.06,0.07,0.07],
    [4029,363171,"Vazduh","Libelium","0004A30B0021DF70",44.979,16.7091,"","","Prijedor","",27775109,"2024-07-31T15:40:01",3,"NO ERROR",35.05,30.6,998.91,0.19,0.35,0.38],
    [4030,363171,"Vazduh","Libelium","0004A30B0021DF70",44.979,16.7091,"","","Prijedor","",27775773,"2024-07-31T16:40:44",3,"NO ERROR",36.09,28.4,998.66,0.14,0.26,0.28],
    [4031,363171,"Vazduh","Libelium","0004A30B0021DF70",44.979,16.7091,"","","Prijedor","",27776477,"2024-07-31T17:41:26",3,"NO ERROR",32.93,30.9,998.12,0.05,0.09,0.09],
    [4032,363171,"Vazduh","Libelium","0004A30B0021DF70",44.979,16.7091,"","","Prijedor","",27777181,"2024-07-31T18:42:14",3,"NO ERROR",31.55,32.5,997.68,0.08,0.14,0.16],
    [4033,363171,"Vazduh","Libelium","0004A30B0021DF70",44.979,16.7091,"","","Prijedor","",27777852,"2024-07-31T19:42:56",3,"NO ERROR",30.23,34.6,997.34,0.11,0.26,0.36],
    [4034,363171,"Vazduh","Libelium","0004A30B0021DF70",44.979,16.7091,"","","Prijedor","",27778516,"2024-07-31T20:43:38",3,"NO ERROR",26.31,53,997.62,0.28,0.55,0.71],
    [4035,363171,"Vazduh","Libelium","0004A30B0021DF70",44.979,16.7091,"","","Prijedor","",27779225,"2024-07-31T21:44:20",3,"NO ERROR",23.63,58.4,998.24,0.41,0.58,0.59],
    [4036,363171,"Vazduh","Libelium","0004A30B0021DF70",44.979,16.7091,"","","Prijedor","",27779932,"2024-07-31T22:45:02",3,"NO ERROR",21.84,66.7,998.2,0.31,0.49,0.61],
    [4037,363171,"Vazduh","Libelium","0004A30B0021DF70",44.979,16.7091,"","","Prijedor","",27780623,"2024-07-31T23:45:50",3,"NO ERROR",19.57,84.8,998.41,0.42,0.85,4.15],
    [4038,363171,"Vazduh","Libelium","0004A30B0021DF70",44.979,16.7091,"","","Prijedor","",27781592,"2024-08-01T00:46:32",3,"NO ERROR",18.5,100,998.19,0.24,0.28,0.28],
    [4039,363171,"Vazduh","Libelium","0004A30B0021DF70",44.979,16.7091,"","","Prijedor","",27782286,"2024-08-01T01:47:14",3,"NO ERROR",17.86,100,998.04,0.21,0.26,0.26],
    [4040,363171,"Vazduh","Libelium","0004A30B0021DF70",44.979,16.7091,"","","Prijedor","",27782987,"2024-08-01T02:47:56",3,"NO ERROR",17.02,100,997.62,0.09,0.11,0.11],
    [4041,363171,"Vazduh","Libelium","0004A30B0021DF70",44.979,16.7091,"","","Prijedor","",27799094,"2024-08-02T03:05:23",3,"NO ERROR",22.49,100,994.45,0.53,0.71,0.71],
    [4042,363171,"Vazduh","Libelium","0004A30B0021DF70",44.979,16.7091,"","","Prijedor","",27799702,"2024-08-02T04:06:05",3,"NO ERROR",22.14,100,994.7,0.17,0.31,0.43],
    [4043,363171,"Vazduh","Libelium","0004A30B0021DF70",44.979,16.7091,"","","Prijedor","",27800423,"2024-08-02T05:06:47",3,"NO ERROR",21.54,100,993.98,0.08,0.13,0.14],
    [4044,363171,"Vazduh","Libelium","0004A30B0021DF70",44.979,16.7091,"","","Prijedor","",27801223,"2024-08-02T06:07:29",3,"NO ERROR",21.41,100,993.84,0.13,0.19,0.2],
    [4045,363171,"Vazduh","Libelium","0004A30B0021DF70",44.979,16.7091,"","","Prijedor","",27801966,"2024-08-02T07:08:11",3,"NO ERROR",22.43,100,994.26,0.1,0.1,0.1],
    [4046,363171,"Vazduh","Libelium","0004A30B0021DF70",44.979,16.7091,"","","Prijedor","",27802569,"2024-08-02T08:08:53",3,"NO ERROR",24,100,994.3,0.11,0.17,0.18],
    [4047,363171,"Vazduh","Libelium","0004A30B0021DF70",44.979,16.7091,"","","Prijedor","",27803268,"2024-08-02T09:09:35",3,"NO ERROR",25.89,95.1,994.74,0.1,0.1,0.1],
    [4048,363171,"Vazduh","Libelium","0004A30B0021DF70",44.979,16.7091,"","","Prijedor","",27803952,"2024-08-02T10:10:17",3,"NO ERROR",30.96,63,994.83,0.15,0.27,1.03],
    [4049,363171,"Vazduh","Libelium","0004A30B0021DF70",44.979,16.7091,"","","Prijedor","",27804648,"2024-08-02T11:10:59",3,"NO ERROR",31.59,57,994.65,0.07,0.1,0.11],
    [4050,363171,"Vazduh","Libelium","0004A30B0021DF70",44.979,16.7091,"","","Prijedor","",27805343,"2024-08-02T12:11:41",3,"NO ERROR",31.45,54.5,994.21,0.15,0.16,0.16],
    [4051,363171,"Vazduh","Libelium","0004A30B0021DF70",44.979,16.7091,"","","Prijedor","",27806081,"2024-08-02T13:12:36",3,"NO ERROR",33.22,48.6,994.03,0.04,0.05,0.05],
    [4052,363171,"Vazduh","Libelium","0004A30B0021DF70",44.979,16.7091,"","","Prijedor","",27806783,"2024-08-02T14:13:18",3,"NO ERROR",33.14,49.1,993.49,0.13,0.14,0.14],
    [4053,363171,"Vazduh","Libelium","0004A30B0021DF70",44.979,16.7091,"","","Prijedor","",27807520,"2024-08-02T15:14:00",3,"NO ERROR",34.47,44.5,993,0.07,0.1,0.1],
    [4054,363171,"Vazduh","Libelium","0004A30B0021DF70",44.979,16.7091,"","","Prijedor","",27808182,"2024-08-02T16:14:42",3,"NO ERROR",35.56,41.4,992.42,0.29,0.32,0.32],
    [4055,363171,"Vazduh","Libelium","0004A30B0021DF70",44.979,16.7091,"","","Prijedor","",27808857,"2024-08-02T17:15:24",3,"NO ERROR",35.56,40,992.01,0.22,0.33,0.33],
    [4056,363171,"Vazduh","Libelium","0004A30B0021DF70",44.979,16.7091,"","","Prijedor","",27809553,"2024-08-02T18:16:06",3,"NO ERROR",32.29,45.7,991.42,0.1,0.13,0.13],
    [4057,363171,"Vazduh","Libelium","0004A30B0021DF70",44.979,16.7091,"","","Prijedor","",27810182,"2024-08-02T19:16:48",3,"NO ERROR",30.93,51.3,990.84,0.24,0.29,0.29],
    [4058,363171,"Vazduh","Libelium","0004A30B0021DF70",44.979,16.7091,"","","Prijedor","",27810781,"2024-08-02T20:17:30",3,"NO ERROR",28.89,58.3,991.29,0.15,0.36,0.71],
    [4059,363171,"Vazduh","Libelium","0004A30B0021DF70",44.979,16.7091,"","","Prijedor","",27811486,"2024-08-02T21:18:12",3,"NO ERROR",28.21,71,992.13,0.08,0.25,0.35],
    [4060,363171,"Vazduh","Libelium","0004A30B0021DF70",44.979,16.7091,"","","Prijedor","",27812123,"2024-08-02T22:18:54",3,"NO ERROR",24.94,68.8,994.15,0.6,1.33,1.71],
    [4061,363171,"Vazduh","Libelium","0004A30B0021DF70",44.979,16.7091,"","","Prijedor","",27812752,"2024-08-02T23:19:36",3,"NO ERROR",22.33,81.4,994.1,0.04,0.04,0.04],
    [4062,363171,"Vazduh","Libelium","0004A30B0021DF70",44.979,16.7091,"","","Prijedor","",27813679,"2024-08-03T00:20:18",3,"NO ERROR",22.18,77.5,994.29,0.02,0.02,0.02],
    [4063,363171,"Vazduh","Libelium","0004A30B0021DF70",44.979,16.7091,"","","Prijedor","",27814366,"2024-08-03T01:21:01",3,"NO ERROR",20.41,95.5,994.62,0.08,0.17,0.19],
    [4064,363171,"Vazduh","Libelium","0004A30B0021DF70",44.979,16.7091,"","","Prijedor","",27814966,"2024-08-03T02:21:43",3,"NO ERROR",20.49,98.6,994.48,0.11,0.13,0.13],
    [4065,363171,"Vazduh","Libelium","0004A30B0021DF70",44.979,16.7091,"","","Prijedor","",27815603,"2024-08-03T03:22:25",3,"NO ERROR",20.17,100,993.37,0.14,0.36,0.4],
    [4066,363171,"Vazduh","Libelium","0004A30B0021DF70",44.979,16.7091,"","","Prijedor","",27816150,"2024-08-03T04:23:07",3,"NO ERROR",19.27,100,993.63,0.05,0.06,0.06],
    [4067,363171,"Vazduh","Libelium","0004A30B0021DF70",44.979,16.7091,"","","Prijedor","",27816825,"2024-08-03T05:23:49",3,"NO ERROR",18.76,100,993.8,0.03,0.05,0.05],
    [4068,363171,"Vazduh","Libelium","0004A30B0021DF70",44.979,16.7091,"","","Prijedor","",27817586,"2024-08-03T06:24:31",3,"NO ERROR",18.11,100,994.11,0.06,0.12,0.13],
    [4069,363171,"Vazduh","Libelium","0004A30B0021DF70",44.979,16.7091,"","","Prijedor","",27818298,"2024-08-03T07:25:13",3,"NO ERROR",24.53,84.2,994.89,0.03,0.06,0.06],
    [4070,363171,"Vazduh","Libelium","0004A30B0021DF70",44.979,16.7091,"","","Prijedor","",27818924,"2024-08-03T08:25:55",3,"NO ERROR",26.5,70.5,995.1,0.15,0.18,0.18],
    [4071,363171,"Vazduh","Libelium","0004A30B0021DF70",44.979,16.7091,"","","Prijedor","",27819664,"2024-08-03T09:26:37",3,"NO ERROR",27.68,67,995.3,0.1,0.1,0.1],
    [4072,363171,"Vazduh","Libelium","0004A30B0021DF70",44.979,16.7091,"","","Prijedor","",27820331,"2024-08-03T10:27:25",3,"NO ERROR",29.01,60,995.76,0.04,0.07,0.07],
    [4073,363171,"Vazduh","Libelium","0004A30B0021DF70",44.979,16.7091,"","","Prijedor","",27820966,"2024-08-03T11:28:07",3,"NO ERROR",28,62.7,995.98,0.11,0.14,0.14],
    [4074,363171,"Vazduh","Libelium","0004A30B0021DF70",44.979,16.7091,"","","Prijedor","",27821613,"2024-08-03T12:28:49",3,"NO ERROR",28.97,56.5,996.13,0.1,0.12,0.12],
    [4075,363171,"Vazduh","Libelium","0004A30B0021DF70",44.979,16.7091,"","","Prijedor","",27822290,"2024-08-03T13:29:31",3,"NO ERROR",29.95,50.2,995.61,0.1,0.13,0.13],
    [4076,363171,"Vazduh","Libelium","0004A30B0021DF70",44.979,16.7091,"","","Prijedor","",27822930,"2024-08-03T14:30:14",3,"NO ERROR",30.21,46.1,995.7,0.12,0.12,0.12],
    [4077,363171,"Vazduh","Libelium","0004A30B0021DF70",44.979,16.7091,"","","Prijedor","",27823582,"2024-08-03T15:30:56",3,"NO ERROR",30.2,45.8,995.77,0.07,0.09,0.09],
    [4078,363171,"Vazduh","Libelium","0004A30B0021DF70",44.979,16.7091,"","","Prijedor","",27824185,"2024-08-03T16:31:38",3,"NO ERROR",32.25,41.5,995.26,0.03,0.03,0.03],
    [4079,363171,"Vazduh","Libelium","0004A30B0021DF70",44.979,16.7091,"","","Prijedor","",27824819,"2024-08-03T17:32:20",3,"NO ERROR",30.75,45,994.84,0.12,0.16,0.18],
    [4080,363171,"Vazduh","Libelium","0004A30B0021DF70",44.979,16.7091,"","","Prijedor","",27825441,"2024-08-03T18:33:02",3,"NO ERROR",28.38,44.2,995.21,0.08,0.1,0.1],
    [4081,363171,"Vazduh","Libelium","0004A30B0021DF70",44.979,16.7091,"","","Prijedor","",27826007,"2024-08-03T19:33:44",3,"NO ERROR",27.61,43.2,995.93,0.15,0.2,0.21],
    [4082,363171,"Vazduh","Libelium","0004A30B0021DF70",44.979,16.7091,"","","Prijedor","",27826603,"2024-08-03T20:34:26",3,"NO ERROR",25.28,49.3,995.95,0.15,0.15,0.15],
    [4083,363171,"Vazduh","Libelium","0004A30B0021DF70",44.979,16.7091,"","","Prijedor","",27827300,"2024-08-03T21:35:08",3,"NO ERROR",23.45,52.6,996.56,0.27,0.38,0.38],
    [4084,363171,"Vazduh","Libelium","0004A30B0021DF70",44.979,16.7091,"","","Prijedor","",27827934,"2024-08-03T22:35:50",3,"NO ERROR",21.65,66.9,996.74,0.19,0.26,0.27],
    [4085,363171,"Vazduh","Libelium","0004A30B0021DF70",44.979,16.7091,"","","Prijedor","",27828582,"2024-08-03T23:36:32",3,"NO ERROR",20.42,83.4,997.02,0.23,0.41,0.71],
    [4086,363171,"Vazduh","Libelium","0004A30B0021DF70",44.979,16.7091,"","","Prijedor","",27829460,"2024-08-04T00:37:14",3,"NO ERROR",18.5,90.5,997.67,0.13,0.15,0.15],
    [4087,363171,"Vazduh","Libelium","0004A30B0021DF70",44.979,16.7091,"","","Prijedor","",27830143,"2024-08-04T01:37:57",3,"NO ERROR",17.18,100,997.45,0.11,0.18,0.19],
    [4088,363171,"Vazduh","Libelium","0004A30B0021DF70",44.979,16.7091,"","","Prijedor","",27830894,"2024-08-04T02:38:39",3,"NO ERROR",16.23,100,997.62,0.24,0.31,0.31],
    [4089,363171,"Vazduh","Libelium","0004A30B0021DF70",44.979,16.7091,"","","Prijedor","",27831600,"2024-08-04T03:39:21",3,"NO ERROR",15.55,100,997.41,0.19,0.2,0.2],
    [4090,363171,"Vazduh","Libelium","0004A30B0021DF70",44.979,16.7091,"","","Prijedor","",27832290,"2024-08-04T04:40:03",3,"NO ERROR",14.58,100,997.69,0.15,0.21,0.21],
    [4091,363171,"Vazduh","Libelium","0004A30B0021DF70",44.979,16.7091,"","","Prijedor","",27833085,"2024-08-04T05:40:45",3,"NO ERROR",14.93,100,997.96,0.11,0.11,0.11],
    [4092,363171,"Vazduh","Libelium","0004A30B0021DF70",44.979,16.7091,"","","Prijedor","",27833823,"2024-08-04T06:41:27",3,"NO ERROR",16.3,100,998.24,0.1,0.13,0.13],
    [4093,363171,"Vazduh","Libelium","0004A30B0021DF70",44.979,16.7091,"","","Prijedor","",27834490,"2024-08-04T07:42:09",3,"NO ERROR",22.76,73.3,998.34,0.31,0.43,0.44],
    [4094,363171,"Vazduh","Libelium","0004A30B0021DF70",44.979,16.7091,"","","Prijedor","",27835180,"2024-08-04T08:42:51",3,"NO ERROR",24.75,65,998.36,0.05,0.05,0.05],
    [4095,363171,"Vazduh","Libelium","0004A30B0021DF70",44.979,16.7091,"","","Prijedor","",27835864,"2024-08-04T09:43:33",3,"NO ERROR",27.14,54.3,998.12,0.09,0.09,0.09],
    [4096,363171,"Vazduh","Libelium","0004A30B0021DF70",44.979,16.7091,"","","Prijedor","",27836572,"2024-08-04T10:44:15",3,"NO ERROR",27.64,50.9,997.87,0.16,0.19,0.19],
    [4097,363171,"Vazduh","Libelium","0004A30B0021DF70",44.979,16.7091,"","","Prijedor","",27837298,"2024-08-04T11:44:57",3,"NO ERROR",29.69,44.6,997.55,0.25,0.33,0.34],
    [4098,363171,"Vazduh","Libelium","0004A30B0021DF70",44.979,16.7091,"","","Prijedor","",27837950,"2024-08-04T12:45:46",3,"NO ERROR",31.12,43,997.44,0.09,0.11,0.11],
    [4099,363171,"Vazduh","Libelium","0004A30B0021DF70",44.979,16.7091,"","","Prijedor","",27838661,"2024-08-04T13:46:27",3,"NO ERROR",31.54,41.3,997.11,0.02,0.06,0.07],
    [4100,363171,"Vazduh","Libelium","0004A30B0021DF70",44.979,16.7091,"","","Prijedor","",27839373,"2024-08-04T14:47:10",3,"NO ERROR",33.75,38.6,996.78,0.16,0.17,0.17],
    [4101,363171,"Vazduh","Libelium","0004A30B0021DF70",44.979,16.7091,"","","Prijedor","",27840043,"2024-08-04T15:47:52",3,"NO ERROR",33.71,37.4,996.27,0.11,0.11,0.11],
    [4102,363171,"Vazduh","Libelium","0004A30B0021DF70",44.979,16.7091,"","","Prijedor","",27840676,"2024-08-04T16:48:34",3,"NO ERROR",33.62,36.4,996.07,0.16,0.29,1.24],
    [4103,363171,"Vazduh","Libelium","0004A30B0021DF70",44.979,16.7091,"","","Prijedor","",27841331,"2024-08-04T17:49:16",3,"NO ERROR",30.19,41.2,996.04,0.07,0.1,0.1],
    [4104,363171,"Vazduh","Libelium","0004A30B0021DF70",44.979,16.7091,"","","Prijedor","",27841949,"2024-08-04T18:49:58",3,"NO ERROR",28.83,44.8,996.09,0.12,0.13,0.13],
    [4105,363171,"Vazduh","Libelium","0004A30B0021DF70",44.979,16.7091,"","","Prijedor","",27842565,"2024-08-04T19:50:46",3,"NO ERROR",26.26,59.9,996.48,0.08,0.09,0.09],
    [4106,363171,"Vazduh","Libelium","0004A30B0021DF70",44.979,16.7091,"","","Prijedor","",27843223,"2024-08-04T20:51:28",3,"NO ERROR",24.34,65.1,997.01,0.08,0.09,0.09],
    [4107,363171,"Vazduh","Libelium","0004A30B0021DF70",44.979,16.7091,"","","Prijedor","",27843915,"2024-08-04T21:52:16",3,"NO ERROR",23.51,64,997.49,0.04,0.1,0.75],
    [4108,363171,"Vazduh","Libelium","0004A30B0021DF70",44.979,16.7091,"","","Prijedor","",27851060,"2024-08-05T09:00:11",3,"NO ERROR",25.26,69.9,999.18,0.11,0.11,0.11],
    [4109,363171,"Vazduh","Libelium","0004A30B0021DF70",44.979,16.7091,"","","Prijedor","",27851570,"2024-08-05T10:00:53",3,"NO ERROR",27.92,59.5,999.07,0.05,0.05,0.05],
    [4110,363171,"Vazduh","Libelium","0004A30B0021DF70",44.979,16.7091,"","","Prijedor","",27852112,"2024-08-05T11:01:35",3,"NO ERROR",28.76,55.3,998.54,0.11,0.16,0.17],
    [4111,363171,"Vazduh","Libelium","0004A30B0021DF70",44.979,16.7091,"","","Prijedor","",27852678,"2024-08-05T12:02:17",3,"NO ERROR",29.64,50.1,997.9,0.09,0.13,0.14],
    [4112,363171,"Vazduh","Libelium","0004A30B0021DF70",44.979,16.7091,"","","Prijedor","",27853281,"2024-08-05T13:02:59",3,"NO ERROR",30.63,47.1,997.37,0.04,0.05,0.05],
    [4113,363171,"Vazduh","Libelium","0004A30B0021DF70",44.979,16.7091,"","","Prijedor","",27853948,"2024-08-05T14:03:41",3,"NO ERROR",30.78,46.1,996.63,0.12,0.15,0.15],
    [4114,363171,"Vazduh","Libelium","0004A30B0021DF70",44.979,16.7091,"","","Prijedor","",27854634,"2024-08-05T15:04:24",3,"NO ERROR",33.57,41.1,996.05,0.07,0.07,0.07],
    [4115,363171,"Vazduh","Libelium","0004A30B0021DF70",44.979,16.7091,"","","Prijedor","",27855230,"2024-08-05T16:05:06",3,"NO ERROR",36.27,37.3,995.55,0.14,0.18,0.18],
    [4116,363171,"Vazduh","Libelium","0004A30B0021DF70",44.979,16.7091,"","","Prijedor","",27855810,"2024-08-05T17:05:48",3,"NO ERROR",34.4,38.3,994.99,0.13,0.14,0.14],
    [4117,363171,"Vazduh","Libelium","0004A30B0021DF70",44.979,16.7091,"","","Prijedor","",27856452,"2024-08-05T18:06:30",3,"NO ERROR",31.92,41.3,994.68,0.03,0.03,0.03],
    [4118,363171,"Vazduh","Libelium","0004A30B0021DF70",44.979,16.7091,"","","Prijedor","",27857058,"2024-08-05T19:07:12",3,"NO ERROR",30.14,45.6,994.94,0.06,0.08,0.08],
    [4119,363171,"Vazduh","Libelium","0004A30B0021DF70",44.979,16.7091,"","","Prijedor","",27857606,"2024-08-05T20:07:54",3,"NO ERROR",28.06,52.2,995.46,0.05,0.05,0.05],
    [4120,363171,"Vazduh","Libelium","0004A30B0021DF70",44.979,16.7091,"","","Prijedor","",27858250,"2024-08-05T21:08:36",3,"NO ERROR",27.7,53.5,996.16,0.18,0.31,0.32],
    [4121,363171,"Vazduh","Libelium","0004A30B0021DF70",44.979,16.7091,"","","Prijedor","",27858900,"2024-08-05T22:09:18",3,"NO ERROR",27.02,57.5,996.63,0.08,0.09,0.09],
    [4122,363171,"Vazduh","Libelium","0004A30B0021DF70",44.979,16.7091,"","","Prijedor","",27859516,"2024-08-05T23:10:00",3,"NO ERROR",25.34,73.7,997.07,0.13,0.16,0.17],
    [4123,363171,"Vazduh","Libelium","0004A30B0021DF70",44.979,16.7091,"","","Prijedor","",27860349,"2024-08-06T00:10:42",3,"NO ERROR",24.02,85.7,997.77,0.11,0.15,0.15],
    [4124,363171,"Vazduh","Libelium","0004A30B0021DF70",44.979,16.7091,"","","Prijedor","",27861065,"2024-08-06T01:11:25",3,"NO ERROR",23.32,88.1,998.04,0.18,0.35,0.64],
    [4125,363171,"Vazduh","Libelium","0004A30B0021DF70",44.979,16.7091,"","","Prijedor","",27861679,"2024-08-06T02:12:07",3,"NO ERROR",22.84,89.3,999.01,0.03,0.03,0.03],
    [4126,363171,"Vazduh","Libelium","0004A30B0021DF70",44.979,16.7091,"","","Prijedor","",27862372,"2024-08-06T03:12:49",3,"NO ERROR",21.3,100,999.02,0.11,0.12,0.12],
    [4127,363171,"Vazduh","Libelium","0004A30B0021DF70",44.979,16.7091,"","","Prijedor","",27862993,"2024-08-06T04:13:31",3,"NO ERROR",20.42,100,998.98,0.08,0.22,0.36],
    [4128,363171,"Vazduh","Libelium","0004A30B0021DF70",44.979,16.7091,"","","Prijedor","",27863683,"2024-08-06T05:14:13",3,"NO ERROR",20.5,100,998.92,0.07,0.07,0.07],
    [4129,363171,"Vazduh","Libelium","0004A30B0021DF70",44.979,16.7091,"","","Prijedor","",27864437,"2024-08-06T06:14:55",3,"NO ERROR",19.92,100,999.03,0.22,0.29,0.29],
    [4130,363171,"Vazduh","Libelium","0004A30B0021DF70",44.979,16.7091,"","","Prijedor","",27865154,"2024-08-06T07:15:37",3,"NO ERROR",21.1,100,999.21,0.29,0.41,0.44],
    [4131,363171,"Vazduh","Libelium","0004A30B0021DF70",44.979,16.7091,"","","Prijedor","",27865774,"2024-08-06T08:16:19",3,"NO ERROR",22.2,98.8,999.51,0.13,0.17,0.17],
    [4132,363171,"Vazduh","Libelium","0004A30B0021DF70",44.979,16.7091,"","","Prijedor","",27866414,"2024-08-06T09:17:07",3,"NO ERROR",24.74,80.4,999.5,0.08,0.09,0.09],
    [4133,363171,"Vazduh","Libelium","0004A30B0021DF70",44.979,16.7091,"","","Prijedor","",27867028,"2024-08-06T10:17:49",3,"NO ERROR",28.35,67,999.51,0.06,0.07,0.07],
    [4134,363171,"Vazduh","Libelium","0004A30B0021DF70",44.979,16.7091,"","","Prijedor","",27867619,"2024-08-06T11:18:31",3,"NO ERROR",29.05,58.1,999.28,0.05,0.05,0.05],
    [4135,363171,"Vazduh","Libelium","0004A30B0021DF70",44.979,16.7091,"","","Prijedor","",27868286,"2024-08-06T12:19:13",3,"NO ERROR",28.51,59.4,998.99,0.09,0.1,0.1],
    [4136,363171,"Vazduh","Libelium","0004A30B0021DF70",44.979,16.7091,"","","Prijedor","",27868959,"2024-08-06T13:19:55",3,"NO ERROR",28.76,55.8,998.37,0.1,0.15,1.96],
    [4137,363171,"Vazduh","Libelium","0004A30B0021DF70",44.979,16.7091,"","","Prijedor","",27869579,"2024-08-06T14:20:38",3,"NO ERROR",31.54,51.3,997.72,0.09,0.12,0.12],
    [4138,363171,"Vazduh","Libelium","0004A30B0021DF70",44.979,16.7091,"","","Prijedor","",27870256,"2024-08-06T15:21:20",3,"NO ERROR",31.64,50.2,997.17,0.05,0.05,0.05],
    [4139,363171,"Vazduh","Libelium","0004A30B0021DF70",44.979,16.7091,"","","Prijedor","",27870875,"2024-08-06T16:22:02",3,"NO ERROR",32.16,48.6,996.75,0.2,0.21,0.21],
    [4140,363171,"Vazduh","Libelium","0004A30B0021DF70",44.979,16.7091,"","","Prijedor","",27871500,"2024-08-06T17:22:44",3,"NO ERROR",33.06,45.8,996.35,0.1,0.15,0.15],
    [4141,363171,"Vazduh","Libelium","0004A30B0021DF70",44.979,16.7091,"","","Prijedor","",27872122,"2024-08-06T18:23:26",3,"NO ERROR",29.05,50.4,996.19,0.12,0.18,0.19],
    [4142,363171,"Vazduh","Libelium","0004A30B0021DF70",44.979,16.7091,"","","Prijedor","",27872707,"2024-08-06T19:24:08",3,"NO ERROR",27.95,51.9,996.48,0.14,0.19,0.19],
    [4143,363171,"Vazduh","Libelium","0004A30B0021DF70",44.979,16.7091,"","","Prijedor","",27873242,"2024-08-06T20:24:50",3,"NO ERROR",26.02,57.1,996.84,0.18,0.22,0.22],
    [4144,363171,"Vazduh","Libelium","0004A30B0021DF70",44.979,16.7091,"","","Prijedor","",27873940,"2024-08-06T21:25:32",3,"NO ERROR",25.09,60.4,997.51,0.31,0.4,0.41],
    [4145,363171,"Vazduh","Libelium","0004A30B0021DF70",44.979,16.7091,"","","Prijedor","",27874554,"2024-08-06T22:26:14",3,"NO ERROR",24.16,64,997.53,0.15,0.25,0.59],
    [4146,363171,"Vazduh","Libelium","0004A30B0021DF70",44.979,16.7091,"","","Prijedor","",27875139,"2024-08-06T23:26:56",3,"NO ERROR",22.59,81.7,997.59,0.1,0.21,0.51],
    [4147,363171,"Vazduh","Libelium","0004A30B0021DF70",44.979,16.7091,"","","Prijedor","",27875998,"2024-08-07T00:27:38",3,"NO ERROR",20.97,99.6,997.9,0.4,0.69,0.84],
    [4148,363171,"Vazduh","Libelium","0004A30B0021DF70",44.979,16.7091,"","","Prijedor","",27876747,"2024-08-07T01:28:21",3,"NO ERROR",19.18,100,997.97,0.03,0.03,0.03],
    [4149,363171,"Vazduh","Libelium","0004A30B0021DF70",44.979,16.7091,"","","Prijedor","",27877435,"2024-08-07T02:29:03",3,"NO ERROR",18.48,100,998.06,0.3,0.31,0.31],
    [4150,363171,"Vazduh","Libelium","0004A30B0021DF70",44.979,16.7091,"","","Prijedor","",27878169,"2024-08-07T03:29:45",3,"NO ERROR",18.06,100,997.77,0.16,0.21,0.22],
    [4151,363171,"Vazduh","Libelium","0004A30B0021DF70",44.979,16.7091,"","","Prijedor","",27878794,"2024-08-07T04:30:27",3,"NO ERROR",17.33,100,998.13,0.13,0.15,0.15],
    [4152,363171,"Vazduh","Libelium","0004A30B0021DF70",44.979,16.7091,"","","Prijedor","",27879497,"2024-08-07T05:31:09",3,"NO ERROR",16.98,100,998.37,0.15,0.21,0.21],
    [4153,363171,"Vazduh","Libelium","0004A30B0021DF70",44.979,16.7091,"","","Prijedor","",27880226,"2024-08-07T06:31:51",3,"NO ERROR",18.39,100,998.54,0.08,0.08,0.08],
    [4154,363171,"Vazduh","Libelium","0004A30B0021DF70",44.979,16.7091,"","","Prijedor","",27880892,"2024-08-07T07:32:33",3,"NO ERROR",23.81,84.9,998.57,0.17,0.26,0.26],
    [4155,363171,"Vazduh","Libelium","0004A30B0021DF70",44.979,16.7091,"","","Prijedor","",27881545,"2024-08-07T08:33:15",3,"NO ERROR",25.89,73.3,998.95,0.17,0.21,0.21],
    [4156,363171,"Vazduh","Libelium","0004A30B0021DF70",44.979,16.7091,"","","Prijedor","",27882229,"2024-08-07T09:33:57",3,"NO ERROR",28.62,60.1,998.68,0.13,0.15,0.15],
    [4157,363171,"Vazduh","Libelium","0004A30B0021DF70",44.979,16.7091,"","","Prijedor","",27882920,"2024-08-07T10:34:39",3,"NO ERROR",28.14,57.9,998.72,0.22,0.37,0.41],
    [4158,363171,"Vazduh","Libelium","0004A30B0021DF70",44.979,16.7091,"","","Prijedor","",27883711,"2024-08-07T11:35:21",3,"NO ERROR",29.92,51.7,998.24,0.22,0.42,0.54],
    [4159,363171,"Vazduh","Libelium","0004A30B0021DF70",44.979,16.7091,"","","Prijedor","",27884422,"2024-08-07T12:36:03",3,"NO ERROR",31.28,48.6,997.63,0.19,0.26,0.27],
    [4160,363171,"Vazduh","Libelium","0004A30B0021DF70",44.979,16.7091,"","","Prijedor","",27885233,"2024-08-07T13:36:45",3,"NO ERROR",32.83,42.2,997.09,0.13,0.16,0.17],
    [4161,363171,"Vazduh","Libelium","0004A30B0021DF70",44.979,16.7091,"","","Prijedor","",27886098,"2024-08-07T14:37:34",3,"NO ERROR",35.4,37.8,996.62,0.05,0.05,0.05],
    [4162,363171,"Vazduh","Libelium","0004A30B0021DF70",44.979,16.7091,"","","Prijedor","",27886908,"2024-08-07T15:38:16",3,"NO ERROR",37.12,36,995.9,0.12,0.12,0.12],
    [4163,363171,"Vazduh","Libelium","0004A30B0021DF70",44.979,16.7091,"","","Prijedor","",27887602,"2024-08-07T16:38:58",3,"NO ERROR",37.45,35.5,995,0.12,0.14,0.14],
    [4164,363171,"Vazduh","Libelium","0004A30B0021DF70",44.979,16.7091,"","","Prijedor","",27888329,"2024-08-07T17:39:40",3,"NO ERROR",34.17,38.8,994.4,0.06,0.08,0.08],
    [4165,363171,"Vazduh","Libelium","0004A30B0021DF70",44.979,16.7091,"","","Prijedor","",27889044,"2024-08-07T18:40:22",3,"NO ERROR",32.48,41.4,994.45,0.06,0.08,0.09],
    [4166,363171,"Vazduh","Libelium","0004A30B0021DF70",44.979,16.7091,"","","Prijedor","",27889705,"2024-08-07T19:41:04",3,"NO ERROR",31.49,42.9,995.09,0.06,0.15,0.21],
    [4167,363171,"Vazduh","Libelium","0004A30B0021DF70",44.979,16.7091,"","","Prijedor","",27890373,"2024-08-07T20:41:46",3,"NO ERROR",29.16,50.2,995.55,0.11,0.2,0.28],
    [4168,363171,"Vazduh","Libelium","0004A30B0021DF70",44.979,16.7091,"","","Prijedor","",27891115,"2024-08-07T21:42:28",3,"NO ERROR",27.17,65.1,996.26,0.3,0.5,0.58],
    [4169,363171,"Vazduh","Libelium","0004A30B0021DF70",44.979,16.7091,"","","Prijedor","",27891805,"2024-08-07T22:43:17",3,"NO ERROR",25.5,72.4,996.18,0.53,0.74,0.75],
    [4170,363171,"Vazduh","Libelium","0004A30B0021DF70",44.979,16.7091,"","","Prijedor","",27894232,"2024-08-08T01:45:29",3,"NO ERROR",21.22,100,996.31,0.27,0.45,0.54],
    [4171,363171,"Vazduh","Libelium","0004A30B0021DF70",44.979,16.7091,"","","Prijedor","",27895001,"2024-08-08T02:46:17",3,"NO ERROR",20.88,100,997.05,0.05,0.14,0.16],
    [4172,363171,"Vazduh","Libelium","0004A30B0021DF70",44.979,16.7091,"","","Prijedor","",27895726,"2024-08-08T03:46:59",3,"NO ERROR",22.44,88.8,997.39,0.05,0.05,0.05],
    [4173,363171,"Vazduh","Libelium","0004A30B0021DF70",44.979,16.7091,"","","Prijedor","",27896436,"2024-08-08T04:47:41",3,"NO ERROR",22.91,77.8,997.56,0.1,0.12,0.12],
    [4174,363171,"Vazduh","Libelium","0004A30B0021DF70",44.979,16.7091,"","","Prijedor","",27897260,"2024-08-08T05:48:23",3,"NO ERROR",21.93,90.7,998.51,0.1,0.15,0.15],
    [4175,363171,"Vazduh","Libelium","0004A30B0021DF70",44.979,16.7091,"","","Prijedor","",27898123,"2024-08-08T06:49:05",3,"NO ERROR",21.44,100,998.81,0.41,0.57,0.6],
    [4176,363171,"Vazduh","Libelium","0004A30B0021DF70",44.979,16.7091,"","","Prijedor","",27898914,"2024-08-08T07:49:47",3,"NO ERROR",22.53,97.4,998.94,0.19,0.2,0.2],
    [4177,363171,"Vazduh","Libelium","0004A30B0021DF70",44.979,16.7091,"","","Prijedor","",27899690,"2024-08-08T08:50:29",3,"NO ERROR",25.8,80.4,999.17,0.07,0.07,0.07],
    [4178,363171,"Vazduh","Libelium","0004A30B0021DF70",44.979,16.7091,"","","Prijedor","",27900463,"2024-08-08T09:51:11",3,"NO ERROR",25.6,75.4,999.44,0.09,0.14,0.14],
    [4179,363171,"Vazduh","Libelium","0004A30B0021DF70",44.979,16.7091,"","","Prijedor","",27901910,"2024-08-08T11:52:47",3,"NO ERROR",23.35,100,999.75,0.11,0.2,0.29],
    [4180,363171,"Vazduh","Libelium","0004A30B0021DF70",44.979,16.7091,"","","Prijedor","",27902611,"2024-08-08T12:53:29",3,"NO ERROR",26.29,80.8,999.3,0.17,0.22,0.22],
    [4181,363171,"Vazduh","Libelium","0004A30B0021DF70",44.979,16.7091,"","","Prijedor","",27903404,"2024-08-08T13:54:12",3,"NO ERROR",29.12,63.9,999.27,0.05,0.08,0.09],
    [4182,363171,"Vazduh","Libelium","0004A30B0021DF70",44.979,16.7091,"","","Prijedor","",27904268,"2024-08-08T14:54:54",3,"NO ERROR",32,48.8,998.53,0.09,0.15,0.17],
    [4183,363171,"Vazduh","Libelium","0004A30B0021DF70",44.979,16.7091,"","","Prijedor","",27905076,"2024-08-08T15:55:36",3,"NO ERROR",33.51,42.8,998.3,0.04,0.07,0.07],
    [4184,363171,"Vazduh","Libelium","0004A30B0021DF70",44.979,16.7091,"","","Prijedor","",27905801,"2024-08-08T16:56:18",3,"NO ERROR",34.07,40.1,997.85,0.05,0.05,0.05],
    [4185,363171,"Vazduh","Libelium","0004A30B0021DF70",44.979,16.7091,"","","Prijedor","",27906530,"2024-08-08T17:57:00",3,"NO ERROR",30.21,47.6,997.39,0.03,0.11,0.42],
    [4186,363171,"Vazduh","Libelium","0004A30B0021DF70",44.979,16.7091,"","","Prijedor","",27907240,"2024-08-08T18:57:42",3,"NO ERROR",29.43,52.8,997.65,0.05,0.08,0.08],
    [4187,363171,"Vazduh","Libelium","0004A30B0021DF70",44.979,16.7091,"","","Prijedor","",27907868,"2024-08-08T19:58:24",3,"NO ERROR",27.79,61.3,998.38,0.06,0.16,2.75],
    [4188,363171,"Vazduh","Libelium","0004A30B0021DF70",44.979,16.7091,"","","Prijedor","",27908610,"2024-08-08T20:59:06",3,"NO ERROR",25.91,71.6,998.84,0.19,0.25,0.25],
    [4189,363171,"Vazduh","Libelium","0004A30B0021DF70",44.979,16.7091,"","","Prijedor","",27909378,"2024-08-08T21:59:48",3,"NO ERROR",24.19,84.2,999.49,0.11,0.12,0.12],
    [4190,363171,"Vazduh","Libelium","0004A30B0021DF70",44.979,16.7091,"","","Prijedor","",27910096,"2024-08-08T23:00:30",3,"NO ERROR",23.25,91.3,999.8,0.38,0.6,0.74],
    [4191,363171,"Vazduh","Libelium","0004A30B0021DF70",44.979,16.7091,"","","Prijedor","",27911005,"2024-08-09T00:01:19",3,"NO ERROR",21.65,100,1000.21,0.12,0.17,0.17],
    [4192,363171,"Vazduh","Libelium","0004A30B0021DF70",44.979,16.7091,"","","Prijedor","",27911780,"2024-08-09T01:02:01",3,"NO ERROR",20.62,100,1000.63,0.04,0.05,0.05],
    [4193,363171,"Vazduh","Libelium","0004A30B0021DF70",44.979,16.7091,"","","Prijedor","",27912457,"2024-08-09T02:02:43",3,"NO ERROR",21.06,100,1000.83,0.03,0.03,0.03],
    [4194,363171,"Vazduh","Libelium","0004A30B0021DF70",44.979,16.7091,"","","Prijedor","",27913208,"2024-08-09T03:03:25",3,"NO ERROR",21.33,100,1000.88,0.08,0.15,0.2],
    [4195,363171,"Vazduh","Libelium","0004A30B0021DF70",44.979,16.7091,"","","Prijedor","",27913859,"2024-08-09T04:04:07",3,"NO ERROR",20.91,100,1000.71,0,0,0],
    [4196,363171,"Vazduh","Libelium","0004A30B0021DF70",44.979,16.7091,"","","Prijedor","",27914532,"2024-08-09T05:04:49",3,"NO ERROR",19.47,100,1001.1,0.12,0.12,0.12],
    [4197,363171,"Vazduh","Libelium","0004A30B0021DF70",44.979,16.7091,"","","Prijedor","",27915310,"2024-08-09T06:05:31",3,"NO ERROR",18.59,100,1001.66,0.06,0.08,0.09],
    [4198,363171,"Vazduh","Libelium","0004A30B0021DF70",44.979,16.7091,"","","Prijedor","",27916075,"2024-08-09T07:06:13",3,"NO ERROR",22.08,100,1002,0.05,0.05,0.05],
    [4199,363171,"Vazduh","Libelium","0004A30B0021DF70",44.979,16.7091,"","","Prijedor","",27916758,"2024-08-09T08:06:55",3,"NO ERROR",27.08,76,1002.52,0.02,0.02,0.02],
    [4200,363171,"Vazduh","Libelium","0004A30B0021DF70",44.979,16.7091,"","","Prijedor","",27917544,"2024-08-09T09:07:43",3,"NO ERROR",30.12,59.6,1002.43,0.21,0.3,0.3],
    [4201,363171,"Vazduh","Libelium","0004A30B0021DF70",44.979,16.7091,"","","Prijedor","",27918266,"2024-08-09T10:08:25",3,"NO ERROR",27.39,66.8,1002.37,0.07,0.11,0.12],
    [4202,363171,"Vazduh","Libelium","0004A30B0021DF70",44.979,16.7091,"","","Prijedor","",27918992,"2024-08-09T11:09:07",3,"NO ERROR",31.83,54.5,1002.26,0,0,0],
    [4203,363171,"Vazduh","Libelium","0004A30B0021DF70",44.979,16.7091,"","","Prijedor","",27919728,"2024-08-09T12:09:49",3,"NO ERROR",31.2,53.8,1001.94,0.02,0.02,0.02],
    [4204,363171,"Vazduh","Libelium","0004A30B0021DF70",44.979,16.7091,"","","Prijedor","",27920452,"2024-08-09T13:10:31",3,"NO ERROR",31.68,51.4,1001.5,0.09,0.16,0.17],
    [4205,363171,"Vazduh","Libelium","0004A30B0021DF70",44.979,16.7091,"","","Prijedor","",27921216,"2024-08-09T14:11:14",3,"NO ERROR",33.95,45.6,1001.15,0.08,0.14,0.16],
    [4206,363171,"Vazduh","Libelium","0004A30B0021DF70",44.979,16.7091,"","","Prijedor","",27922032,"2024-08-09T15:11:56",3,"NO ERROR",35.8,38.9,1000.57,0.1,0.21,0.51],
    [4207,363171,"Vazduh","Libelium","0004A30B0021DF70",44.979,16.7091,"","","Prijedor","",27922730,"2024-08-09T16:12:38",3,"NO ERROR",35.24,40.6,1000.51,0.07,0.1,0.1],
    [4208,363171,"Vazduh","Libelium","0004A30B0021DF70",44.979,16.7091,"","","Prijedor","",27923403,"2024-08-09T17:13:20",3,"NO ERROR",35.42,38.6,1000.18,0.02,0.02,0.02],
    [4209,363171,"Vazduh","Libelium","0004A30B0021DF70",44.979,16.7091,"","","Prijedor","",27924131,"2024-08-09T18:14:02",3,"NO ERROR",31.93,43.2,999.93,0.03,0.03,0.03],
    [4210,363171,"Vazduh","Libelium","0004A30B0021DF70",44.979,16.7091,"","","Prijedor","",27924850,"2024-08-09T19:14:44",3,"NO ERROR",30.24,45.4,1000.34,0,0,0],
    [4211,363171,"Vazduh","Libelium","0004A30B0021DF70",44.979,16.7091,"","","Prijedor","",27925536,"2024-08-09T20:15:26",3,"NO ERROR",27.96,50.3,1000.41,0.2,0.21,0.21],
    [4212,363171,"Vazduh","Libelium","0004A30B0021DF70",44.979,16.7091,"","","Prijedor","",27926306,"2024-08-09T21:16:08",3,"NO ERROR",26.43,57.8,1001.21,0.28,0.32,0.32],
    [4213,363171,"Vazduh","Libelium","0004A30B0021DF70",44.979,16.7091,"","","Prijedor","",27927069,"2024-08-09T22:16:50",3,"NO ERROR",23.66,72.9,1001.57,0.3,0.42,0.43],
    [4214,363171,"Vazduh","Libelium","0004A30B0021DF70",44.979,16.7091,"","","Prijedor","",27927776,"2024-08-09T23:17:32",3,"NO ERROR",21.97,90.3,1002.11,0.43,0.52,0.52],
    [4215,363171,"Vazduh","Libelium","0004A30B0021DF70",44.979,16.7091,"","","Prijedor","",27928704,"2024-08-10T00:18:15",3,"NO ERROR",20.83,100,1002.65,0.34,0.45,0.45],
    [4216,363171,"Vazduh","Libelium","0004A30B0021DF70",44.979,16.7091,"","","Prijedor","",27929564,"2024-08-10T01:18:57",3,"NO ERROR",20.19,100,1002.93,0.18,0.23,0.23],
    [4217,363171,"Vazduh","Libelium","0004A30B0021DF70",44.979,16.7091,"","","Prijedor","",27930218,"2024-08-10T02:19:39",3,"NO ERROR",19,100,1003.31,0.19,0.24,0.24],
    [4218,363171,"Vazduh","Libelium","0004A30B0021DF70",44.979,16.7091,"","","Prijedor","",27930884,"2024-08-10T03:20:21",3,"NO ERROR",18.71,100,1003.56,0.04,0.07,0.07],
    [4219,363171,"Vazduh","Libelium","0004A30B0021DF70",44.979,16.7091,"","","Prijedor","",27931511,"2024-08-10T04:21:03",3,"NO ERROR",18.18,100,1004.03,0.08,0.11,0.11],
    [4220,363171,"Vazduh","Libelium","0004A30B0021DF70",44.979,16.7091,"","","Prijedor","",27932184,"2024-08-10T05:21:45",3,"NO ERROR",17.46,100,1004.51,0.16,0.25,0.26],
    [4221,363171,"Vazduh","Libelium","0004A30B0021DF70",44.979,16.7091,"","","Prijedor","",27932879,"2024-08-10T06:22:27",3,"NO ERROR",18.11,100,1004.87,0.21,0.39,0.8],
    [4222,363171,"Vazduh","Libelium","0004A30B0021DF70",44.979,16.7091,"","","Prijedor","",27933579,"2024-08-10T07:23:09",3,"NO ERROR",22.86,89.5,1005.54,0.07,0.15,0.19],
    [4223,363171,"Vazduh","Libelium","0004A30B0021DF70",44.979,16.7091,"","","Prijedor","",27934231,"2024-08-10T08:23:51",3,"NO ERROR",26.07,73,1005.8,0.1,0.14,0.14],
    [4224,363171,"Vazduh","Libelium","0004A30B0021DF70",44.979,16.7091,"","","Prijedor","",27934880,"2024-08-10T09:24:33",3,"NO ERROR",29.74,60.8,1005.95,0.24,0.34,0.37],
    [4225,363171,"Vazduh","Libelium","0004A30B0021DF70",44.979,16.7091,"","","Prijedor","",27935471,"2024-08-10T10:25:15",3,"NO ERROR",28.63,60.4,1005.7,0.04,0.07,0.07],
    [4226,363171,"Vazduh","Libelium","0004A30B0021DF70",44.979,16.7091,"","","Prijedor","",27936087,"2024-08-10T11:25:57",3,"NO ERROR",30.61,49.9,1005.5,0.03,0.12,0.2],
    [4227,363171,"Vazduh","Libelium","0004A30B0021DF70",44.979,16.7091,"","","Prijedor","",27936723,"2024-08-10T12:26:39",3,"NO ERROR",32.98,47.2,1005.03,0.07,0.08,0.08],
    [4228,363171,"Vazduh","Libelium","0004A30B0021DF70",44.979,16.7091,"","","Prijedor","",27937386,"2024-08-10T13:27:22",3,"NO ERROR",33.62,45.2,1004.48,0.04,0.07,0.07],
    [4229,363171,"Vazduh","Libelium","0004A30B0021DF70",44.979,16.7091,"","","Prijedor","",27938003,"2024-08-10T14:28:04",3,"NO ERROR",36.45,40.2,1003.94,0.08,0.09,0.09],
    [4230,363171,"Vazduh","Libelium","0004A30B0021DF70",44.979,16.7091,"","","Prijedor","",27938645,"2024-08-10T15:28:46",3,"NO ERROR",36.39,39.3,1003.81,0.05,0.1,0.11],
    [4231,363171,"Vazduh","Libelium","0004A30B0021DF70",44.979,16.7091,"","","Prijedor","",27939238,"2024-08-10T16:29:28",3,"NO ERROR",37.34,36.5,1003.65,0.02,0.02,0.02],
    [4232,363171,"Vazduh","Libelium","0004A30B0021DF70",44.979,16.7091,"","","Prijedor","",27939870,"2024-08-10T17:30:10",3,"NO ERROR",37.01,37,1003.53,0.07,0.25,0.39],
    [4233,363171,"Vazduh","Libelium","0004A30B0021DF70",44.979,16.7091,"","","Prijedor","",27940489,"2024-08-10T18:30:52",3,"NO ERROR",32.61,44.4,1003.28,0.02,0.02,0.02],
    [4234,363171,"Vazduh","Libelium","0004A30B0021DF70",44.979,16.7091,"","","Prijedor","",27963423,"2024-08-12T04:54:55",3,"NO ERROR",19.38,100,1001,0.41,0.59,0.68],
    [4235,363171,"Vazduh","Libelium","0004A30B0021DF70",44.979,16.7091,"","","Prijedor","",27964287,"2024-08-12T05:55:37",3,"NO ERROR",19.35,100,1000.93,0.21,0.23,0.23],
    [4236,363171,"Vazduh","Libelium","0004A30B0021DF70",44.979,16.7091,"","","Prijedor","",27965165,"2024-08-12T06:56:19",3,"NO ERROR",22.1,100,1001.37,0.09,0.12,0.12],
    [4237,363171,"Vazduh","Libelium","0004A30B0021DF70",44.979,16.7091,"","","Prijedor","",27965933,"2024-08-12T07:57:01",3,"NO ERROR",26.48,75.2,1001.19,0.24,0.4,0.43],
    [4238,363171,"Vazduh","Libelium","0004A30B0021DF70",44.979,16.7091,"","","Prijedor","",27966674,"2024-08-12T08:57:44",3,"NO ERROR",28.28,63.7,1000.85,0.09,0.12,0.12],
    [4239,363171,"Vazduh","Libelium","0004A30B0021DF70",44.979,16.7091,"","","Prijedor","",27967374,"2024-08-12T09:58:26",3,"NO ERROR",31.24,53.9,1000.34,0.06,0.08,0.08],
    [4240,363171,"Vazduh","Libelium","0004A30B0021DF70",44.979,16.7091,"","","Prijedor","",27968035,"2024-08-12T10:59:14",3,"NO ERROR",32.87,49.6,999.72,0.32,0.43,0.44],
    [4241,363171,"Vazduh","Libelium","0004A30B0021DF70",44.979,16.7091,"","","Prijedor","",27968701,"2024-08-12T11:59:56",3,"NO ERROR",34.14,44.8,998.96,0.15,0.18,0.18],
    [4242,363171,"Vazduh","Libelium","0004A30B0021DF70",44.979,16.7091,"","","Prijedor","",27969346,"2024-08-12T13:00:38",3,"NO ERROR",35.75,39.7,997.99,0.13,0.16,0.16],
    [4243,363171,"Vazduh","Libelium","0004A30B0021DF70",44.979,16.7091,"","","Prijedor","",27970026,"2024-08-12T14:01:20",3,"NO ERROR",36.79,37.1,997.4,0.07,0.14,0.22],
    [4244,363171,"Vazduh","Libelium","0004A30B0021DF70",44.979,16.7091,"","","Prijedor","",27970717,"2024-08-12T15:02:02",3,"NO ERROR",38.45,34.8,996.56,0.11,0.16,0.17],
    [4245,363171,"Vazduh","Libelium","0004A30B0021DF70",44.979,16.7091,"","","Prijedor","",27971366,"2024-08-12T16:02:44",3,"NO ERROR",41.03,30.2,995.99,0.12,0.14,0.14],
    [4246,363171,"Vazduh","Libelium","0004A30B0021DF70",44.979,16.7091,"","","Prijedor","",27971993,"2024-08-12T17:03:27",3,"NO ERROR",40.65,32.1,995.42,0.09,0.11,0.12],
    [4247,363171,"Vazduh","Libelium","0004A30B0021DF70",44.979,16.7091,"","","Prijedor","",27972644,"2024-08-12T18:04:09",3,"NO ERROR",36.39,37.9,994.93,0.1,0.15,0.16],
    [4248,363171,"Vazduh","Libelium","0004A30B0021DF70",44.979,16.7091,"","","Prijedor","",27973300,"2024-08-12T19:04:51",3,"NO ERROR",35.05,40.8,994.71,0.06,0.09,0.09],
    [4249,363171,"Vazduh","Libelium","0004A30B0021DF70",44.979,16.7091,"","","Prijedor","",27973839,"2024-08-12T20:05:33",3,"NO ERROR",32.58,46.1,994.86,0.19,0.44,0.6],
    [4250,363171,"Vazduh","Libelium","0004A30B0021DF70",44.979,16.7091,"","","Prijedor","",27974445,"2024-08-12T21:06:15",3,"NO ERROR",30.35,55.7,995.38,0.42,0.67,0.83],
    [4251,363171,"Vazduh","Libelium","0004A30B0021DF70",44.979,16.7091,"","","Prijedor","",27975108,"2024-08-12T22:06:57",3,"NO ERROR",27.74,69.8,995.66,0.31,0.56,0.7],
    [4252,363171,"Vazduh","Libelium","0004A30B0021DF70",44.979,16.7091,"","","Prijedor","",27975708,"2024-08-12T23:07:39",3,"NO ERROR",25.88,82.3,995.8,0.28,0.44,0.45],
    [4253,363171,"Vazduh","Libelium","0004A30B0021DF70",44.979,16.7091,"","","Prijedor","",27976495,"2024-08-13T00:08:21",3,"NO ERROR",24.6,97.4,996.01,0.53,0.94,1.58],
    [4254,363171,"Vazduh","Libelium","0004A30B0021DF70",44.979,16.7091,"","","Prijedor","",27977267,"2024-08-13T01:09:03",3,"NO ERROR",23.22,100,995.83,0.32,0.43,0.43],
    [4255,363171,"Vazduh","Libelium","0004A30B0021DF70",44.979,16.7091,"","","Prijedor","",27977909,"2024-08-13T02:09:45",3,"NO ERROR",22.18,100,995.76,0.15,0.34,0.65],
    [4256,363171,"Vazduh","Libelium","0004A30B0021DF70",44.979,16.7091,"","","Prijedor","",27978570,"2024-08-13T03:10:27",3,"NO ERROR",21.6,100,995.65,0.06,0.12,0.17],
    [4257,363171,"Vazduh","Libelium","0004A30B0021DF70",44.979,16.7091,"","","Prijedor","",27979210,"2024-08-13T04:11:09",3,"NO ERROR",21.35,100,995.75,0.16,0.44,0.94],
    [4258,363171,"Vazduh","Libelium","0004A30B0021DF70",44.979,16.7091,"","","Prijedor","",27979847,"2024-08-13T05:11:52",3,"NO ERROR",20.14,100,995.79,0.41,0.47,0.47],
    [4259,363171,"Vazduh","Libelium","0004A30B0021DF70",44.979,16.7091,"","","Prijedor","",27980611,"2024-08-13T06:12:34",3,"NO ERROR",19.75,100,996.24,0.27,0.3,0.3],
    [4260,363171,"Vazduh","Libelium","0004A30B0021DF70",44.979,16.7091,"","","Prijedor","",27981319,"2024-08-13T07:13:16",3,"NO ERROR",23.35,100,996.54,0.39,0.66,0.71],
    [4261,363171,"Vazduh","Libelium","0004A30B0021DF70",44.979,16.7091,"","","Prijedor","",27981987,"2024-08-13T08:13:58",3,"NO ERROR",27.63,78.1,996.7,0.31,0.36,0.37],
    [4262,363171,"Vazduh","Libelium","0004A30B0021DF70",44.979,16.7091,"","","Prijedor","",27982742,"2024-08-13T09:14:40",3,"NO ERROR",31.24,60.5,996.43,0.31,0.38,0.38],
    [4263,363171,"Vazduh","Libelium","0004A30B0021DF70",44.979,16.7091,"","","Prijedor","",27983422,"2024-08-13T10:15:22",3,"NO ERROR",31.88,56.4,996.13,0.04,0.08,0.08],
    [4264,363171,"Vazduh","Libelium","0004A30B0021DF70",44.979,16.7091,"","","Prijedor","",27984023,"2024-08-13T11:16:04",3,"NO ERROR",33.41,51.9,995.66,0.02,0.02,0.02],
    [4265,363171,"Vazduh","Libelium","0004A30B0021DF70",44.979,16.7091,"","","Prijedor","",27984626,"2024-08-13T12:16:46",3,"NO ERROR",35.23,46.1,995.29,0.09,0.13,0.14],
    [4266,363171,"Vazduh","Libelium","0004A30B0021DF70",44.979,16.7091,"","","Prijedor","",27985307,"2024-08-13T13:17:28",3,"NO ERROR",37.6,42.6,994.56,0.32,0.4,0.4],
    [4267,363171,"Vazduh","Libelium","0004A30B0021DF70",44.979,16.7091,"","","Prijedor","",27985952,"2024-08-13T14:18:10",3,"NO ERROR",40.08,37.8,993.91,0.15,0.36,0.97],
    [4268,363171,"Vazduh","Libelium","0004A30B0021DF70",44.979,16.7091,"","","Prijedor","",27986615,"2024-08-13T15:18:53",3,"NO ERROR",40.85,34.7,993.33,0.06,0.12,0.13],
    [4269,363171,"Vazduh","Libelium","0004A30B0021DF70",44.979,16.7091,"","","Prijedor","",27987254,"2024-08-13T16:19:35",3,"NO ERROR",41.56,32.1,992.85,0.12,0.2,0.5],
    [4270,363171,"Vazduh","Libelium","0004A30B0021DF70",44.979,16.7091,"","","Prijedor","",27987884,"2024-08-13T17:20:17",3,"NO ERROR",37.87,35.5,992.64,0.08,0.25,1.55],
    [4271,363171,"Vazduh","Libelium","0004A30B0021DF70",44.979,16.7091,"","","Prijedor","",27988510,"2024-08-13T18:20:59",3,"NO ERROR",35.86,42.2,992.78,0.12,0.18,0.2],
    [4272,363171,"Vazduh","Libelium","0004A30B0021DF70",44.979,16.7091,"","","Prijedor","",27989106,"2024-08-13T19:21:41",3,"NO ERROR",34.53,45.4,992.48,0.21,0.31,0.32],
    [4273,363171,"Vazduh","Libelium","0004A30B0021DF70",44.979,16.7091,"","","Prijedor","",27989639,"2024-08-13T20:22:23",3,"NO ERROR",33,51.3,992.79,0.19,0.42,0.75],
    [4274,363171,"Vazduh","Libelium","0004A30B0021DF70",44.979,16.7091,"","","Prijedor","",27990293,"2024-08-13T21:23:05",3,"NO ERROR",30,66.7,993.58,0.25,0.44,0.54],
    [4275,363171,"Vazduh","Libelium","0004A30B0021DF70",44.979,16.7091,"","","Prijedor","",27990925,"2024-08-13T22:23:47",3,"NO ERROR",29.16,77.7,993.83,0.09,0.18,0.24],
    [4276,363171,"Vazduh","Libelium","0004A30B0021DF70",44.979,16.7091,"","","Prijedor","",27991518,"2024-08-13T23:24:36",3,"NO ERROR",27.86,84.9,993.95,0.56,1.11,1.33],
    [4277,363171,"Vazduh","Libelium","0004A30B0021DF70",44.979,16.7091,"","","Prijedor","",27992376,"2024-08-14T00:25:17",3,"NO ERROR",26.43,99.6,994.23,0.24,0.34,0.35],
    [4278,363171,"Vazduh","Libelium","0004A30B0021DF70",44.979,16.7091,"","","Prijedor","",27993055,"2024-08-14T01:26:06",3,"NO ERROR",26.39,95.7,994.25,0.2,0.23,0.23],
    [4279,363171,"Vazduh","Libelium","0004A30B0021DF70",44.979,16.7091,"","","Prijedor","",27993700,"2024-08-14T02:26:48",3,"NO ERROR",25.45,100,994.33,0.4,0.49,0.49],
    [4280,363171,"Vazduh","Libelium","0004A30B0021DF70",44.979,16.7091,"","","Prijedor","",27994389,"2024-08-14T03:27:30",3,"NO ERROR",23.68,100,994.27,0.23,0.37,0.49],
    [4281,363171,"Vazduh","Libelium","0004A30B0021DF70",44.979,16.7091,"","","Prijedor","",27994998,"2024-08-14T04:28:12",3,"NO ERROR",23.83,100,994.39,0.17,0.34,0.49],
    [4282,363171,"Vazduh","Libelium","0004A30B0021DF70",44.979,16.7091,"","","Prijedor","",27995720,"2024-08-14T05:28:54",3,"NO ERROR",22.62,100,994.58,0.25,0.5,0.69],
    [4283,363171,"Vazduh","Libelium","0004A30B0021DF70",44.979,16.7091,"","","Prijedor","",27996456,"2024-08-14T06:29:36",3,"NO ERROR",22.55,100,995.33,0.14,0.18,0.19],
    [4284,363171,"Vazduh","Libelium","0004A30B0021DF70",44.979,16.7091,"","","Prijedor","",27997072,"2024-08-14T07:30:18",3,"NO ERROR",24.83,100,995.75,0.3,0.38,0.39],
    [4285,363171,"Vazduh","Libelium","0004A30B0021DF70",44.979,16.7091,"","","Prijedor","",27997678,"2024-08-14T08:31:00",3,"NO ERROR",30.5,76.1,995.84,0.09,0.18,0.22],
    [4286,363171,"Vazduh","Libelium","0004A30B0021DF70",44.979,16.7091,"","","Prijedor","",27998323,"2024-08-14T09:31:42",3,"NO ERROR",33.53,59.4,996.06,0.26,0.33,0.33],
    [4287,363171,"Vazduh","Libelium","0004A30B0021DF70",44.979,16.7091,"","","Prijedor","",27998892,"2024-08-14T10:32:24",3,"NO ERROR",32.03,60.6,996.3,0.1,0.11,0.11],
    [4288,363171,"Vazduh","Libelium","0004A30B0021DF70",44.979,16.7091,"","","Prijedor","",27999474,"2024-08-14T11:33:06",3,"NO ERROR",34.28,54.2,996.11,0.17,0.27,0.27],
    [4289,363171,"Vazduh","Libelium","0004A30B0021DF70",44.979,16.7091,"","","Prijedor","",28000725,"2024-08-14T13:34:43",3,"NO ERROR",35.88,48.9,995.75,0.15,0.3,2.88],
    [4290,363171,"Vazduh","Libelium","0004A30B0021DF70",44.979,16.7091,"","","Prijedor","",28001372,"2024-08-14T14:35:25",3,"NO ERROR",37.67,43.1,995.38,0.41,1.21,4.57],
    [4291,363171,"Vazduh","Libelium","0004A30B0021DF70",44.979,16.7091,"","","Prijedor","",28002028,"2024-08-14T15:36:07",3,"NO ERROR",37.68,42.3,995.12,0.07,0.09,0.09],
    [4292,363171,"Vazduh","Libelium","0004A30B0021DF70",44.979,16.7091,"","","Prijedor","",28002620,"2024-08-14T16:36:49",3,"NO ERROR",38.31,40.6,995.2,0.08,0.1,0.1],
    [4293,363171,"Vazduh","Libelium","0004A30B0021DF70",44.979,16.7091,"","","Prijedor","",28003227,"2024-08-14T17:37:31",3,"NO ERROR",35.89,44.1,994.88,0.07,0.1,0.1],
    [4294,363171,"Vazduh","Libelium","0004A30B0021DF70",44.979,16.7091,"","","Prijedor","",28003839,"2024-08-14T18:38:13",3,"NO ERROR",33.49,52.4,995.06,0.1,0.21,1.21],
    [4295,363171,"Vazduh","Libelium","0004A30B0021DF70",44.979,16.7091,"","","Prijedor","",28004419,"2024-08-14T19:38:55",3,"NO ERROR",31.65,58.8,995.54,0.15,0.35,0.47],
    [4296,363171,"Vazduh","Libelium","0004A30B0021DF70",44.979,16.7091,"","","Prijedor","",28004993,"2024-08-14T20:39:37",3,"NO ERROR",29.94,67.6,995.85,0.29,0.5,0.63],
    [4297,363171,"Vazduh","Libelium","0004A30B0021DF70",44.979,16.7091,"","","Prijedor","",28005657,"2024-08-14T21:40:19",3,"NO ERROR",27.91,84.1,996.55,0.39,0.74,0.89],
    [4298,363171,"Vazduh","Libelium","0004A30B0021DF70",44.979,16.7091,"","","Prijedor","",28006268,"2024-08-14T22:41:08",3,"NO ERROR",26.63,99,997.18,0.14,0.23,0.23],
    [4299,363171,"Vazduh","Libelium","0004A30B0021DF70",44.979,16.7091,"","","Prijedor","",28010581,"2024-08-15T04:45:20",3,"NO ERROR",21.9,100,998.38,0.31,0.49,0.49],
    [4300,363171,"Vazduh","Libelium","0004A30B0021DF70",44.979,16.7091,"","","Prijedor","",28011368,"2024-08-15T05:46:02",3,"NO ERROR",21.64,100,998.85,0.47,0.6,0.62],
    [4301,363171,"Vazduh","Libelium","0004A30B0021DF70",44.979,16.7091,"","","Prijedor","",28012119,"2024-08-15T06:46:44",3,"NO ERROR",22.72,100,999.22,0.14,0.28,0.31],
    [4302,363171,"Vazduh","Libelium","0004A30B0021DF70",44.979,16.7091,"","","Prijedor","",28012834,"2024-08-15T07:47:26",3,"NO ERROR",28.15,89.9,999.61,0.12,0.16,0.16],
    [4303,363171,"Vazduh","Libelium","0004A30B0021DF70",44.979,16.7091,"","","Prijedor","",28013505,"2024-08-15T08:48:08",3,"NO ERROR",31.56,69.1,999.73,0.23,0.41,0.71],
    [4304,363171,"Vazduh","Libelium","0004A30B0021DF70",44.979,16.7091,"","","Prijedor","",28014153,"2024-08-15T09:48:50",3,"NO ERROR",32.92,63.2,1000.12,0.23,0.33,0.34],
    [4305,363171,"Vazduh","Libelium","0004A30B0021DF70",44.979,16.7091,"","","Prijedor","",28014809,"2024-08-15T10:49:33",3,"NO ERROR",34.3,57,1000.13,0.11,0.17,0.18],
    [4306,363171,"Vazduh","Libelium","0004A30B0021DF70",44.979,16.7091,"","","Prijedor","",28015500,"2024-08-15T11:50:15",3,"NO ERROR",34.76,51.5,999.64,0.08,0.25,0.4],
    [4307,363171,"Vazduh","Libelium","0004A30B0021DF70",44.979,16.7091,"","","Prijedor","",28016174,"2024-08-15T12:50:57",3,"NO ERROR",35.76,44.4,999.09,0.17,0.2,0.2],
    [4308,363171,"Vazduh","Libelium","0004A30B0021DF70",44.979,16.7091,"","","Prijedor","",28016899,"2024-08-15T13:51:39",3,"NO ERROR",36.73,41.6,998.8,0.1,0.14,0.14],
    [4309,363171,"Vazduh","Libelium","0004A30B0021DF70",44.979,16.7091,"","","Prijedor","",28017528,"2024-08-15T14:52:21",3,"NO ERROR",38.02,38.4,998.54,0.1,0.14,0.14],
    [4310,363171,"Vazduh","Libelium","0004A30B0021DF70",44.979,16.7091,"","","Prijedor","",28018114,"2024-08-15T15:53:03",3,"NO ERROR",39.28,36.9,998.34,0.09,0.31,2.91],
    [4311,363171,"Vazduh","Libelium","0004A30B0021DF70",44.979,16.7091,"","","Prijedor","",28018651,"2024-08-15T16:53:45",3,"NO ERROR",39.2,35.2,998.24,0.13,0.5,1.91],
    [4312,363171,"Vazduh","Libelium","0004A30B0021DF70",44.979,16.7091,"","","Prijedor","",28019224,"2024-08-15T17:54:27",3,"NO ERROR",36.32,38.3,998.15,0.15,0.2,0.2],
    [4313,363171,"Vazduh","Libelium","0004A30B0021DF70",44.979,16.7091,"","","Prijedor","",28019779,"2024-08-15T18:55:10",3,"NO ERROR",34.67,41.6,998.3,0.48,0.92,0.99],
    [4314,363171,"Vazduh","Libelium","0004A30B0021DF70",44.979,16.7091,"","","Prijedor","",28020289,"2024-08-15T19:55:58",3,"NO ERROR",32.2,50.3,998.71,0.2,0.35,0.45],
    [4315,363171,"Vazduh","Libelium","0004A30B0021DF70",44.979,16.7091,"","","Prijedor","",28020836,"2024-08-15T20:56:40",3,"NO ERROR",30.06,59.8,999.6,0.22,0.41,0.5],
    [4316,363171,"Vazduh","Libelium","0004A30B0021DF70",44.979,16.7091,"","","Prijedor","",28021397,"2024-08-15T21:57:22",3,"NO ERROR",28.47,68.6,999.67,0.14,0.25,0.31],
    [4317,363171,"Vazduh","Libelium","0004A30B0021DF70",44.979,16.7091,"","","Prijedor","",28021952,"2024-08-15T22:58:04",3,"NO ERROR",26.67,84.9,1000.27,0.2,0.34,0.42],
    [4318,363171,"Vazduh","Libelium","0004A30B0021DF70",44.979,16.7091,"","","Prijedor","",28022636,"2024-08-15T23:58:46",3,"NO ERROR",24.72,99.1,1000.57,0.15,0.24,0.25],
    [4319,363171,"Vazduh","Libelium","0004A30B0021DF70",44.979,16.7091,"","","Prijedor","",28023388,"2024-08-16T00:59:28",3,"NO ERROR",23.95,100,1000.5,0.2,0.35,0.65],
    [4320,363171,"Vazduh","Libelium","0004A30B0021DF70",44.979,16.7091,"","","Prijedor","",28024008,"2024-08-16T02:00:10",3,"NO ERROR",22.68,100,1000.48,0.12,0.15,0.15],
    [4321,363171,"Vazduh","Libelium","0004A30B0021DF70",44.979,16.7091,"","","Prijedor","",28024638,"2024-08-16T03:00:52",3,"NO ERROR",21.89,100,1000.41,0.14,0.26,1.28],
    [4322,363171,"Vazduh","Libelium","0004A30B0021DF70",44.979,16.7091,"","","Prijedor","",28025163,"2024-08-16T04:01:34",3,"NO ERROR",21.46,100,1000.52,0.16,0.23,0.23],
    [4323,363171,"Vazduh","Libelium","0004A30B0021DF70",44.979,16.7091,"","","Prijedor","",28025725,"2024-08-16T05:02:16",3,"NO ERROR",20.87,100,1000.54,0.15,0.19,0.19],
    [4324,363171,"Vazduh","Libelium","0004A30B0021DF70",44.979,16.7091,"","","Prijedor","",28026364,"2024-08-16T06:02:58",3,"NO ERROR",20.45,100,1000.91,0.14,0.2,0.2],
    [4325,363171,"Vazduh","Libelium","0004A30B0021DF70",44.979,16.7091,"","","Prijedor","",28027011,"2024-08-16T07:03:40",3,"NO ERROR",23.71,100,1000.95,0.76,1.6,2.2],
    [4326,363171,"Vazduh","Libelium","0004A30B0021DF70",44.979,16.7091,"","","Prijedor","",28027576,"2024-08-16T08:04:29",3,"NO ERROR",28.29,78,1001,0.15,0.34,6.02],
    [4327,363171,"Vazduh","Libelium","0004A30B0021DF70",44.979,16.7091,"","","Prijedor","",28028153,"2024-08-16T09:05:11",3,"NO ERROR",29.85,67.7,1001.29,0.12,0.2,0.21],
    [4328,363171,"Vazduh","Libelium","0004A30B0021DF70",44.979,16.7091,"","","Prijedor","",28028643,"2024-08-16T10:05:53",3,"NO ERROR",32.21,59.9,1000.94,0.11,0.13,0.14],
    [4329,363171,"Vazduh","Libelium","0004A30B0021DF70",44.979,16.7091,"","","Prijedor","",28029137,"2024-08-16T11:06:35",3,"NO ERROR",33.64,54.1,1000.6,0.13,0.22,0.28],
    [4330,363171,"Vazduh","Libelium","0004A30B0021DF70",44.979,16.7091,"","","Prijedor","",28029656,"2024-08-16T12:07:23",3,"NO ERROR",35.81,47.5,1000.01,0.1,0.18,2.64],
    [4331,363171,"Vazduh","Libelium","0004A30B0021DF70",44.979,16.7091,"","","Prijedor","",28030175,"2024-08-16T13:08:05",3,"NO ERROR",37.46,42.1,999.37,0.22,0.28,0.28],
    [4332,363171,"Vazduh","Libelium","0004A30B0021DF70",44.979,16.7091,"","","Prijedor","",28030742,"2024-08-16T14:08:47",3,"NO ERROR",38.01,38.7,998.53,0.11,0.17,0.18],
    [4333,363171,"Vazduh","Libelium","0004A30B0021DF70",44.979,16.7091,"","","Prijedor","",28031324,"2024-08-16T15:09:29",3,"NO ERROR",38.92,38.6,997.91,0.04,0.07,0.07],
    [4334,363171,"Vazduh","Libelium","0004A30B0021DF70",44.979,16.7091,"","","Prijedor","",28031842,"2024-08-16T16:10:11",3,"NO ERROR",40.49,35.6,997.44,0.1,0.13,0.13],
    [4335,363171,"Vazduh","Libelium","0004A30B0021DF70",44.979,16.7091,"","","Prijedor","",28032374,"2024-08-16T17:10:54",3,"NO ERROR",38.23,38,997.13,0.08,0.16,0.24],
    [4336,363171,"Vazduh","Libelium","0004A30B0021DF70",44.979,16.7091,"","","Prijedor","",28032908,"2024-08-16T18:11:36",3,"NO ERROR",37.41,38.3,996.83,0.08,0.12,0.13],
    [4337,363171,"Vazduh","Libelium","0004A30B0021DF70",44.979,16.7091,"","","Prijedor","",28033412,"2024-08-16T19:12:18",3,"NO ERROR",35.13,45.9,996.8,0.18,0.31,0.58],
    [4338,363171,"Vazduh","Libelium","0004A30B0021DF70",44.979,16.7091,"","","Prijedor","",28033882,"2024-08-16T20:13:00",3,"NO ERROR",33.87,47.7,997.13,0.28,0.53,0.66],
    [4339,363171,"Vazduh","Libelium","0004A30B0021DF70",44.979,16.7091,"","","Prijedor","",28034414,"2024-08-16T21:13:42",3,"NO ERROR",31.12,57.3,997.61,0.56,0.88,0.98],
    [4340,363171,"Vazduh","Libelium","0004A30B0021DF70",44.979,16.7091,"","","Prijedor","",28034936,"2024-08-16T22:14:24",3,"NO ERROR",28.87,70,997.79,0.64,1.1,1.33],
    [4341,363171,"Vazduh","Libelium","0004A30B0021DF70",44.979,16.7091,"","","Prijedor","",28035441,"2024-08-16T23:15:12",3,"NO ERROR",27.75,72.4,997.73,0.28,0.52,1.69],
    [4342,363171,"Vazduh","Libelium","0004A30B0021DF70",44.979,16.7091,"","","Prijedor","",28036196,"2024-08-17T00:15:54",3,"NO ERROR",26.53,85.1,997.59,0.48,0.67,0.81],
    [4343,363171,"Vazduh","Libelium","0004A30B0021DF70",44.979,16.7091,"","","Prijedor","",28036793,"2024-08-17T01:16:36",3,"NO ERROR",24.82,98.7,997.43,0.43,0.51,0.51],
    [4344,363171,"Vazduh","Libelium","0004A30B0021DF70",44.979,16.7091,"","","Prijedor","",28037876,"2024-08-17T03:18:00",3,"NO ERROR",23.41,100,997.06,0.2,0.29,0.37],
    [4345,363171,"Vazduh","Libelium","0004A30B0021DF70",44.979,16.7091,"","","Prijedor","",28038392,"2024-08-17T04:18:43",3,"NO ERROR",21.86,100,997.14,0.47,0.55,0.55],
    [4346,363171,"Vazduh","Libelium","0004A30B0021DF70",44.979,16.7091,"","","Prijedor","",28038934,"2024-08-17T05:19:31",3,"NO ERROR",21.66,100,997.21,0.25,0.37,0.46],
    [4347,363171,"Vazduh","Libelium","0004A30B0021DF70",44.979,16.7091,"","","Prijedor","",28039512,"2024-08-17T06:20:13",3,"NO ERROR",21.45,100,997.25,0.18,0.2,0.2],
    [4348,363171,"Vazduh","Libelium","0004A30B0021DF70",44.979,16.7091,"","","Prijedor","",28040048,"2024-08-17T07:20:55",3,"NO ERROR",24.28,100,997.36,0.25,0.35,0.35],
    [4349,363171,"Vazduh","Libelium","0004A30B0021DF70",44.979,16.7091,"","","Prijedor","",28040547,"2024-08-17T08:21:37",3,"NO ERROR",30.32,64.8,997.39,0.28,0.48,1.95],
    [4350,363171,"Vazduh","Libelium","0004A30B0021DF70",44.979,16.7091,"","","Prijedor","",28041083,"2024-08-17T09:22:19",3,"NO ERROR",32.26,53.7,997.23,0.26,0.45,2.92],
    [4351,363171,"Vazduh","Libelium","0004A30B0021DF70",44.979,16.7091,"","","Prijedor","",28041574,"2024-08-17T10:23:07",3,"NO ERROR",30.69,53.7,997.18,0.46,0.82,4.14],
    [4352,363171,"Vazduh","Libelium","0004A30B0021DF70",44.979,16.7091,"","","Prijedor","",28042060,"2024-08-17T11:23:49",3,"NO ERROR",33.88,47,996.61,0.13,0.24,0.26],
    [4353,363171,"Vazduh","Libelium","0004A30B0021DF70",44.979,16.7091,"","","Prijedor","",28042604,"2024-08-17T12:24:37",3,"NO ERROR",36.4,43.3,995.73,0.17,0.21,0.21],
    [4354,363171,"Vazduh","Libelium","0004A30B0021DF70",44.979,16.7091,"","","Prijedor","",28043173,"2024-08-17T13:25:19",3,"NO ERROR",37.56,38.1,994.78,0.11,0.16,0.16],
    [4355,363171,"Vazduh","Libelium","0004A30B0021DF70",44.979,16.7091,"","","Prijedor","",28043757,"2024-08-17T14:26:08",3,"NO ERROR",41.33,32.7,993.77,0.4,0.5,0.51],
    [4356,363171,"Vazduh","Libelium","0004A30B0021DF70",44.979,16.7091,"","","Prijedor","",28044342,"2024-08-17T15:26:50",3,"NO ERROR",38.33,33,993.15,0.28,0.39,0.41],
    [4357,363171,"Vazduh","Libelium","0004A30B0021DF70",44.979,16.7091,"","","Prijedor","",28044865,"2024-08-17T16:27:32",3,"NO ERROR",37.6,35.8,992.92,0.26,0.41,0.5],
    [4358,363171,"Vazduh","Libelium","0004A30B0021DF70",44.979,16.7091,"","","Prijedor","",28045377,"2024-08-17T17:28:14",3,"NO ERROR",33.28,47.7,992.77,0.48,0.67,0.68],
    [4359,363171,"Vazduh","Libelium","0004A30B0021DF70",44.979,16.7091,"","","Prijedor","",28045907,"2024-08-17T18:28:56",3,"NO ERROR",24.61,82.7,995.59,0.39,0.5,0.52],
    [4360,363171,"Vazduh","Libelium","0004A30B0021DF70",44.979,16.7091,"","","Prijedor","",28046381,"2024-08-17T19:29:38",3,"NO ERROR",25.63,82.1,994.69,0.42,0.59,0.61],
    [4361,363171,"Vazduh","Libelium","0004A30B0021DF70",44.979,16.7091,"","","Prijedor","",28046814,"2024-08-17T20:30:20",3,"NO ERROR",24.73,82.6,994.84,0.54,1.02,2.64],
    [4362,363171,"Vazduh","Libelium","0004A30B0021DF70",44.979,16.7091,"","","Prijedor","",28047362,"2024-08-17T21:31:02",3,"NO ERROR",24.47,89.4,994.7,0.48,0.61,0.61],
    [4363,363171,"Vazduh","Libelium","0004A30B0021DF70",44.979,16.7091,"","","Prijedor","",28047840,"2024-08-17T22:31:44",3,"NO ERROR",24.25,91.9,994.58,0.46,0.59,0.6],
    [4364,363171,"Vazduh","Libelium","0004A30B0021DF70",44.979,16.7091,"","","Prijedor","",28048351,"2024-08-17T23:32:26",3,"NO ERROR",23.92,97.4,994.58,0.65,0.8,0.8],
    [4365,363171,"Vazduh","Libelium","0004A30B0021DF70",44.979,16.7091,"","","Prijedor","",28049088,"2024-08-18T00:33:08",3,"NO ERROR",22.91,100,994.23,0.23,0.29,0.29],
    [4366,363171,"Vazduh","Libelium","0004A30B0021DF70",44.979,16.7091,"","","Prijedor","",28049605,"2024-08-18T01:33:51",3,"NO ERROR",21.79,100,994.42,0.28,0.35,0.36],
    [4367,363171,"Vazduh","Libelium","0004A30B0021DF70",44.979,16.7091,"","","Prijedor","",28050061,"2024-08-18T02:34:33",3,"NO ERROR",21.58,100,994.19,0.31,0.37,0.37],
    [4368,363171,"Vazduh","Libelium","0004A30B0021DF70",44.979,16.7091,"","","Prijedor","",28050519,"2024-08-18T03:35:15",3,"NO ERROR",20.77,100,994,0.22,0.34,0.34],
    [4369,363171,"Vazduh","Libelium","0004A30B0021DF70",44.979,16.7091,"","","Prijedor","",28050975,"2024-08-18T04:35:57",3,"NO ERROR",20.5,100,993.69,0.48,0.71,0.72],
    [4370,363171,"Vazduh","Libelium","0004A30B0021DF70",44.979,16.7091,"","","Prijedor","",28051531,"2024-08-18T05:36:39",3,"NO ERROR",19.67,100,993.65,1.27,1.49,1.5],
    [4371,363171,"Vazduh","Libelium","0004A30B0021DF70",44.979,16.7091,"","","Prijedor","",28052048,"2024-08-18T06:37:21",3,"NO ERROR",19.94,100,993.71,0.49,0.56,0.56],
    [4372,363171,"Vazduh","Libelium","0004A30B0021DF70",44.979,16.7091,"","","Prijedor","",28052548,"2024-08-18T07:38:03",3,"NO ERROR",24.18,100,993.57,0.23,0.28,0.28],
    [4373,363171,"Vazduh","Libelium","0004A30B0021DF70",44.979,16.7091,"","","Prijedor","",28052995,"2024-08-18T08:38:45",3,"NO ERROR",26.55,82.6,993.52,0.21,0.29,0.29],
    [4374,363171,"Vazduh","Libelium","0004A30B0021DF70",44.979,16.7091,"","","Prijedor","",28053485,"2024-08-18T09:39:27",3,"NO ERROR",28.48,67.5,993.51,0.17,0.25,0.39],
    [4375,363171,"Vazduh","Libelium","0004A30B0021DF70",44.979,16.7091,"","","Prijedor","",28053935,"2024-08-18T10:40:09",3,"NO ERROR",28.92,68.3,993.24,0.43,0.5,0.5],
    [4376,363171,"Vazduh","Libelium","0004A30B0021DF70",44.979,16.7091,"","","Prijedor","",28054496,"2024-08-18T11:40:51",3,"NO ERROR",32.23,55.8,992.65,0.31,0.39,0.4],
    [4377,363171,"Vazduh","Libelium","0004A30B0021DF70",44.979,16.7091,"","","Prijedor","",28055062,"2024-08-18T12:41:33",3,"NO ERROR",33.78,48.3,991.63,0.44,0.73,0.81],
    [4378,363171,"Vazduh","Libelium","0004A30B0021DF70",44.979,16.7091,"","","Prijedor","",28055709,"2024-08-18T13:42:16",3,"NO ERROR",35.77,39.1,990.41,0.26,0.41,0.48],
    [4379,363171,"Vazduh","Libelium","0004A30B0021DF70",44.979,16.7091,"","","Prijedor","",28056345,"2024-08-18T14:42:58",3,"NO ERROR",35.8,38.5,989.8,0.46,0.72,0.81],
    [4380,363171,"Vazduh","Libelium","0004A30B0021DF70",44.979,16.7091,"","","Prijedor","",28056953,"2024-08-18T15:43:40",3,"NO ERROR",34.57,40,989.09,0.63,0.91,0.93],
    [4381,363171,"Vazduh","Libelium","0004A30B0021DF70",44.979,16.7091,"","","Prijedor","",28057513,"2024-08-18T16:44:22",3,"NO ERROR",32.49,49.3,988.84,0.46,0.68,0.69],
    [4382,363171,"Vazduh","Libelium","0004A30B0021DF70",44.979,16.7091,"","","Prijedor","",28060324,"2024-08-18T21:47:52",3,"NO ERROR",24.31,89.5,991.51,0.31,0.43,0.46],
    [4383,363171,"Vazduh","Libelium","0004A30B0021DF70",44.979,16.7091,"","","Prijedor","",28060916,"2024-08-18T22:48:34",3,"NO ERROR",24.09,92.2,991.37,0.45,0.55,0.56],
    [4384,363171,"Vazduh","Libelium","0004A30B0021DF70",44.979,16.7091,"","","Prijedor","",28061510,"2024-08-18T23:49:16",3,"NO ERROR",23.54,98.8,991.69,0.3,0.32,0.32],
    [4385,363171,"Vazduh","Libelium","0004A30B0021DF70",44.979,16.7091,"","","Prijedor","",28062396,"2024-08-19T00:49:58",3,"NO ERROR",22.91,100,991.08,0.25,0.38,0.45],
    [4386,363171,"Vazduh","Libelium","0004A30B0021DF70",44.979,16.7091,"","","Prijedor","",28063020,"2024-08-19T01:50:41",3,"NO ERROR",23.17,100,991.29,0.38,0.41,0.41],
    [4387,363171,"Vazduh","Libelium","0004A30B0021DF70",44.979,16.7091,"","","Prijedor","",28064147,"2024-08-19T03:52:05",3,"NO ERROR",21.98,100,992.34,0.4,0.6,0.68],
    [4388,363171,"Vazduh","Libelium","0004A30B0021DF70",44.979,16.7091,"","","Prijedor","",28064696,"2024-08-19T04:52:47",3,"NO ERROR",21.66,100,992.28,0.34,0.49,0.58],
    [4389,363171,"Vazduh","Libelium","0004A30B0021DF70",44.979,16.7091,"","","Prijedor","",28065331,"2024-08-19T05:53:29",3,"NO ERROR",21.43,100,992.39,0.38,0.5,0.51],
    [4390,363171,"Vazduh","Libelium","0004A30B0021DF70",44.979,16.7091,"","","Prijedor","",28065923,"2024-08-19T06:54:11",3,"NO ERROR",21.25,100,992.47,0.43,0.68,1.03],
    [4391,363171,"Vazduh","Libelium","0004A30B0021DF70",44.979,16.7091,"","","Prijedor","",28066508,"2024-08-19T07:54:59",3,"NO ERROR",26.95,86.7,992.72,0.33,0.41,0.41],
    [4392,363171,"Vazduh","Libelium","0004A30B0021DF70",44.979,16.7091,"","","Prijedor","",28067094,"2024-08-19T08:55:41",3,"NO ERROR",26.06,80.9,992.58,0.39,0.43,0.43],
    [4393,363171,"Vazduh","Libelium","0004A30B0021DF70",44.979,16.7091,"","","Prijedor","",28067650,"2024-08-19T09:56:23",3,"NO ERROR",29.12,69.4,992.9,0.3,0.49,0.5],
    [4394,363171,"Vazduh","Libelium","0004A30B0021DF70",44.979,16.7091,"","","Prijedor","",28068207,"2024-08-19T10:57:05",3,"NO ERROR",31.19,63.5,992.98,0.43,0.58,0.67],
    [4395,363171,"Vazduh","Libelium","0004A30B0021DF70",44.979,16.7091,"","","Prijedor","",28068792,"2024-08-19T11:57:47",3,"NO ERROR",30.77,63.4,992.75,0.43,0.63,0.63],
    [4396,363171,"Vazduh","Libelium","0004A30B0021DF70",44.979,16.7091,"","","Prijedor","",28069332,"2024-08-19T12:58:36",3,"NO ERROR",31.26,59.5,992.38,0.35,0.46,0.46],
    [4397,363171,"Vazduh","Libelium","0004A30B0021DF70",44.979,16.7091,"","","Prijedor","",28069941,"2024-08-19T13:59:18",3,"NO ERROR",32.38,55.5,991.96,0.27,0.45,0.52],
    [4398,363171,"Vazduh","Libelium","0004A30B0021DF70",44.979,16.7091,"","","Prijedor","",28070572,"2024-08-19T15:00:00",3,"NO ERROR",31.83,56.1,991.52,0.29,0.51,0.6],
    [4399,363171,"Vazduh","Libelium","0004A30B0021DF70",44.979,16.7091,"","","Prijedor","",28071126,"2024-08-19T16:00:42",3,"NO ERROR",30.34,62.9,991.21,0.17,0.26,0.26],
    [4400,363171,"Vazduh","Libelium","0004A30B0021DF70",44.979,16.7091,"","","Prijedor","",28071685,"2024-08-19T17:01:24",3,"NO ERROR",23.94,100,992.4,0.2,0.35,0.46],
    [4401,363171,"Vazduh","Libelium","0004A30B0021DF70",44.979,16.7091,"","","Prijedor","",28072223,"2024-08-19T18:02:06",3,"NO ERROR",20.11,100,993.78,0.53,0.85,9.64],
    [4402,363171,"Vazduh","Libelium","0004A30B0021DF70",44.979,16.7091,"","","Prijedor","",28072730,"2024-08-19T19:02:48",3,"NO ERROR",20.44,100,994.6,5.97,6.49,6.49],
    [4403,363171,"Vazduh","Libelium","0004A30B0021DF70",44.979,16.7091,"","","Prijedor","",28073170,"2024-08-19T20:03:30",3,"NO ERROR",20.44,100,994.75,81.18,91.77,91.86],
    [4404,363171,"Vazduh","Libelium","0004A30B0021DF70",44.979,16.7091,"","","Prijedor","",28073675,"2024-08-19T21:04:12",3,"NO ERROR",20.09,100,994.16,23.48,26.11,26.13],
    [4405,363171,"Vazduh","Libelium","0004A30B0021DF70",44.979,16.7091,"","","Prijedor","",28074183,"2024-08-19T22:04:54",3,"NO ERROR",20.25,100,995.81,151.6,172.3,172.79],
    [4406,363171,"Vazduh","Libelium","0004A30B0021DF70",44.979,16.7091,"","","Prijedor","",28074677,"2024-08-19T23:05:36",3,"NO ERROR",19.99,100,995.52,1.1,1.35,1.35],
    [4407,363171,"Vazduh","Libelium","0004A30B0021DF70",44.979,16.7091,"","","Prijedor","",28075325,"2024-08-20T00:06:18",3,"NO ERROR",19.66,100,995.92,38.66,44.14,44.25],
    [4408,363171,"Vazduh","Libelium","0004A30B0021DF70",44.979,16.7091,"","","Prijedor","",28075794,"2024-08-20T01:07:00",3,"NO ERROR",20.06,100,995.95,23.17,25.31,25.38],
    [4409,363171,"Vazduh","Libelium","0004A30B0021DF70",44.979,16.7091,"","","Prijedor","",28076218,"2024-08-20T02:07:43",3,"NO ERROR",20.46,100,996.17,0.99,1.33,1.35],
    [4410,363171,"Vazduh","Libelium","0004A30B0021DF70",44.979,16.7091,"","","Prijedor","",28076687,"2024-08-20T03:08:25",3,"NO ERROR",20.33,100,995.93,0.41,0.65,0.81],
    [4411,363171,"Vazduh","Libelium","0004A30B0021DF70",44.979,16.7091,"","","Prijedor","",28077098,"2024-08-20T04:09:07",3,"NO ERROR",20.2,100,995.65,0.69,0.83,0.84],
    [4412,363171,"Vazduh","Libelium","0004A30B0021DF70",44.979,16.7091,"","","Prijedor","",28077567,"2024-08-20T05:09:49",3,"NO ERROR",20.34,100,995.28,0.81,1.17,1.62],
    [4413,363171,"Vazduh","Libelium","0004A30B0021DF70",44.979,16.7091,"","","Prijedor","",28078122,"2024-08-20T06:10:31",3,"NO ERROR",20.3,100,995,4.86,5.59,5.59],
    [4414,363171,"Vazduh","Libelium","0004A30B0021DF70",44.979,16.7091,"","","Prijedor","",28078680,"2024-08-20T07:11:13",3,"NO ERROR",20.68,100,995.25,0.19,0.25,0.25],
    [4415,363171,"Vazduh","Libelium","0004A30B0021DF70",44.979,16.7091,"","","Prijedor","",28079225,"2024-08-20T08:11:55",3,"NO ERROR",20.88,100,995.69,0.2,0.33,0.4],
    [4416,363171,"Vazduh","Libelium","0004A30B0021DF70",44.979,16.7091,"","","Prijedor","",28079809,"2024-08-20T09:12:37",3,"NO ERROR",21.59,100,996.09,0.1,0.13,0.13],
    [4417,363171,"Vazduh","Libelium","0004A30B0021DF70",44.979,16.7091,"","","Prijedor","",28080302,"2024-08-20T10:13:19",3,"NO ERROR",22.39,100,996.3,0.2,0.32,0.35],
    [4418,363171,"Vazduh","Libelium","0004A30B0021DF70",44.979,16.7091,"","","Prijedor","",28080806,"2024-08-20T11:14:01",3,"NO ERROR",23.53,100,996.87,0.2,0.34,0.37],
    [4419,363171,"Vazduh","Libelium","0004A30B0021DF70",44.979,16.7091,"","","Prijedor","",28081355,"2024-08-20T12:14:43",3,"NO ERROR",24.95,100,996.72,0.12,0.16,0.16],
    [4420,363171,"Vazduh","Libelium","0004A30B0021DF70",44.979,16.7091,"","","Prijedor","",28081804,"2024-08-20T13:15:25",3,"NO ERROR",25.95,96.2,996.44,0.22,0.24,0.24],
    [4421,363171,"Vazduh","Libelium","0004A30B0021DF70",44.979,16.7091,"","","Prijedor","",28082294,"2024-08-20T14:16:07",3,"NO ERROR",25.54,100,996.2,0.22,0.29,0.29],
    [4422,363171,"Vazduh","Libelium","0004A30B0021DF70",44.979,16.7091,"","","Prijedor","",28082805,"2024-08-20T15:16:49",3,"NO ERROR",26.9,90.9,995.72,0.11,0.23,0.5],
    [4423,363171,"Vazduh","Libelium","0004A30B0021DF70",44.979,16.7091,"","","Prijedor","",28083221,"2024-08-20T16:17:32",3,"NO ERROR",29.12,75.7,995.22,0.17,0.24,0.25],
    [4424,363171,"Vazduh","Libelium","0004A30B0021DF70",44.979,16.7091,"","","Prijedor","",28084032,"2024-08-20T17:18:14",3,"NO ERROR",29.92,72.5,995.16,0.17,0.24,0.24],
    [4425,363171,"Vazduh","Libelium","0004A30B0021DF70",44.979,16.7091,"","","Prijedor","",28084693,"2024-08-20T18:18:56",3,"NO ERROR",26.39,89.3,995.12,0.27,0.35,0.35],
    [4426,363171,"Vazduh","Libelium","0004A30B0021DF70",44.979,16.7091,"","","Prijedor","",28085258,"2024-08-20T19:19:38",3,"NO ERROR",25.08,98.6,995.23,0.09,0.19,0.2],
    [4427,363171,"Vazduh","Libelium","0004A30B0021DF70",44.979,16.7091,"","","Prijedor","",28085744,"2024-08-20T20:20:20",3,"NO ERROR",23.46,100,995.35,0.06,0.07,0.07],
    [4428,363171,"Vazduh","Libelium","0004A30B0021DF70",44.979,16.7091,"","","Prijedor","",28086288,"2024-08-20T21:21:02",3,"NO ERROR",22.64,100,995.97,0.4,0.69,1.8],
    [4429,363171,"Vazduh","Libelium","0004A30B0021DF70",44.979,16.7091,"","","Prijedor","",28086817,"2024-08-20T22:21:44",3,"NO ERROR",21.86,100,996.02,0.35,0.49,0.52],
    [4430,363171,"Vazduh","Libelium","0004A30B0021DF70",44.979,16.7091,"","","Prijedor","",28087332,"2024-08-20T23:22:26",3,"NO ERROR",21.29,100,995.92,0.14,0.2,0.2],
    [4431,363171,"Vazduh","Libelium","0004A30B0021DF70",44.979,16.7091,"","","Prijedor","",28088105,"2024-08-21T00:23:14",3,"NO ERROR",20.93,100,995.56,0.4,0.53,0.53],
    [4432,363171,"Vazduh","Libelium","0004A30B0021DF70",44.979,16.7091,"","","Prijedor","",28088733,"2024-08-21T01:23:56",3,"NO ERROR",21.14,100,995.37,0.34,0.42,0.42],
    [4433,363171,"Vazduh","Libelium","0004A30B0021DF70",44.979,16.7091,"","","Prijedor","",28089250,"2024-08-21T02:24:38",3,"NO ERROR",21.12,100,995.06,0.37,0.54,0.56],
    [4434,363171,"Vazduh","Libelium","0004A30B0021DF70",44.979,16.7091,"","","Prijedor","",28089820,"2024-08-21T03:25:20",3,"NO ERROR",20.67,100,995.12,0.43,0.54,0.55],
    [4435,363171,"Vazduh","Libelium","0004A30B0021DF70",44.979,16.7091,"","","Prijedor","",28090310,"2024-08-21T04:26:03",3,"NO ERROR",19.97,100,994.96,0.27,0.4,0.47],
    [4436,363171,"Vazduh","Libelium","0004A30B0021DF70",44.979,16.7091,"","","Prijedor","",28090887,"2024-08-21T05:26:45",3,"NO ERROR",19.68,100,994.8,0.52,0.71,0.98],
    [4437,363171,"Vazduh","Libelium","0004A30B0021DF70",44.979,16.7091,"","","Prijedor","",28091531,"2024-08-21T06:27:33",3,"NO ERROR",19.53,100,995.38,0.86,1.17,1.21],
    [4438,363171,"Vazduh","Libelium","0004A30B0021DF70",44.979,16.7091,"","","Prijedor","",28092094,"2024-08-21T07:28:15",3,"NO ERROR",21.67,100,995.72,0.4,0.53,0.53],
    [4439,363171,"Vazduh","Libelium","0004A30B0021DF70",44.979,16.7091,"","","Prijedor","",28092676,"2024-08-21T08:28:57",3,"NO ERROR",24.7,100,995.95,0.15,0.17,0.17],
    [4440,363171,"Vazduh","Libelium","0004A30B0021DF70",44.979,16.7091,"","","Prijedor","",28093317,"2024-08-21T09:29:39",3,"NO ERROR",28.23,85.1,996.22,0.24,0.36,0.46],
    [4441,363171,"Vazduh","Libelium","0004A30B0021DF70",44.979,16.7091,"","","Prijedor","",28093849,"2024-08-21T10:30:21",3,"NO ERROR",27.62,86,996.34,0.15,0.19,0.19],
    [4442,363171,"Vazduh","Libelium","0004A30B0021DF70",44.979,16.7091,"","","Prijedor","",28094415,"2024-08-21T11:31:03",3,"NO ERROR",30.17,74.6,996.23,0.12,0.15,0.15],
    [4443,363171,"Vazduh","Libelium","0004A30B0021DF70",44.979,16.7091,"","","Prijedor","",28094990,"2024-08-21T12:31:51",3,"NO ERROR",30.46,72,996.1,0.1,0.13,0.13],
    [4444,363171,"Vazduh","Libelium","0004A30B0021DF70",44.979,16.7091,"","","Prijedor","",28095563,"2024-08-21T13:32:33",3,"NO ERROR",29.76,70.4,996.02,0.16,0.29,0.5],
    [4445,363171,"Vazduh","Libelium","0004A30B0021DF70",44.979,16.7091,"","","Prijedor","",28096068,"2024-08-21T14:33:15",3,"NO ERROR",32.11,61.2,995.51,0.55,0.82,0.86],
    [4446,363171,"Vazduh","Libelium","0004A30B0021DF70",44.979,16.7091,"","","Prijedor","",28096619,"2024-08-21T15:33:58",3,"NO ERROR",32.46,59.6,995.53,0.17,0.22,0.24],
    [4447,363171,"Vazduh","Libelium","0004A30B0021DF70",44.979,16.7091,"","","Prijedor","",28097096,"2024-08-21T16:34:46",3,"NO ERROR",32.66,53.7,995.58,0.1,0.19,0.2],
    [4448,363171,"Vazduh","Libelium","0004A30B0021DF70",44.979,16.7091,"","","Prijedor","",28097612,"2024-08-21T17:35:28",3,"NO ERROR",29.19,59.2,995.88,0.17,0.29,0.56],
    [4449,363171,"Vazduh","Libelium","0004A30B0021DF70",44.979,16.7091,"","","Prijedor","",28098099,"2024-08-21T18:36:10",3,"NO ERROR",27.9,53.6,996.26,0.09,0.12,0.12],
    [4450,363171,"Vazduh","Libelium","0004A30B0021DF70",44.979,16.7091,"","","Prijedor","",28098570,"2024-08-21T19:36:52",3,"NO ERROR",26.5,57.5,997.12,0.25,0.5,0.94],
    [4451,363171,"Vazduh","Libelium","0004A30B0021DF70",44.979,16.7091,"","","Prijedor","",28099038,"2024-08-21T20:37:34",3,"NO ERROR",25.93,57.9,997.9,0.09,0.15,0.16],
    [4452,363171,"Vazduh","Libelium","0004A30B0021DF70",44.979,16.7091,"","","Prijedor","",28099584,"2024-08-21T21:38:16",3,"NO ERROR",25.46,58,999.17,0.16,0.27,0.36],
    [4453,363171,"Vazduh","Libelium","0004A30B0021DF70",44.979,16.7091,"","","Prijedor","",28100077,"2024-08-21T22:38:58",3,"NO ERROR",25.14,59,1000.07,0.38,0.51,0.52],
    [4454,363171,"Vazduh","Libelium","0004A30B0021DF70",44.979,16.7091,"","","Prijedor","",28100617,"2024-08-21T23:39:46",3,"NO ERROR",25.15,55.5,1000.64,0.12,0.18,0.19],
    [4455,363171,"Vazduh","Libelium","0004A30B0021DF70",44.979,16.7091,"","","Prijedor","",28101438,"2024-08-22T00:40:41",3,"NO ERROR",23.46,71.7,1000.73,0.07,0.07,0.07],
    [4456,363171,"Vazduh","Libelium","0004A30B0021DF70",44.979,16.7091,"","","Prijedor","",28102036,"2024-08-22T01:41:22",3,"NO ERROR",22.31,83.1,1000.83,0.05,0.05,0.05],
    [4457,363171,"Vazduh","Libelium","0004A30B0021DF70",44.979,16.7091,"","","Prijedor","",28102622,"2024-08-22T02:42:04",3,"NO ERROR",21.72,93,1000.77,0.17,0.22,0.22],
    [4458,363171,"Vazduh","Libelium","0004A30B0021DF70",44.979,16.7091,"","","Prijedor","",28103181,"2024-08-22T03:42:47",3,"NO ERROR",21.92,94.5,1000.71,0.18,0.19,0.19],
    [4459,363171,"Vazduh","Libelium","0004A30B0021DF70",44.979,16.7091,"","","Prijedor","",28103723,"2024-08-22T04:43:29",3,"NO ERROR",21.1,98.4,1000.57,0.18,0.29,0.35],
    [4460,363171,"Vazduh","Libelium","0004A30B0021DF70",44.979,16.7091,"","","Prijedor","",28104342,"2024-08-22T05:44:11",3,"NO ERROR",20.17,100,1000.65,0.07,0.07,0.07],
    [4461,363171,"Vazduh","Libelium","0004A30B0021DF70",44.979,16.7091,"","","Prijedor","",28105478,"2024-08-22T07:45:35",3,"NO ERROR",26.04,83.3,1001.44,0.11,0.17,0.21],
    [4462,363171,"Vazduh","Libelium","0004A30B0021DF70",44.979,16.7091,"","","Prijedor","",28106006,"2024-08-22T08:46:17",3,"NO ERROR",27.21,68.8,1001.41,0.19,0.28,0.3],
    [4463,363171,"Vazduh","Libelium","0004A30B0021DF70",44.979,16.7091,"","","Prijedor","",28106511,"2024-08-22T09:47:05",3,"NO ERROR",28.61,61.2,1001.27,0.27,0.46,0.48],
    [4464,363171,"Vazduh","Libelium","0004A30B0021DF70",44.979,16.7091,"","","Prijedor","",28107034,"2024-08-22T10:47:47",3,"NO ERROR",27.19,61.9,1000.85,0.08,0.09,0.09],
    [4465,363171,"Vazduh","Libelium","0004A30B0021DF70",44.979,16.7091,"","","Prijedor","",28107529,"2024-08-22T11:48:29",3,"NO ERROR",27.7,53.9,1000.26,0.37,0.39,0.39],
    [4466,363171,"Vazduh","Libelium","0004A30B0021DF70",44.979,16.7091,"","","Prijedor","",28107996,"2024-08-22T12:49:11",3,"NO ERROR",29.43,51.9,999.57,0.16,0.22,0.22],
    [4467,363171,"Vazduh","Libelium","0004A30B0021DF70",44.979,16.7091,"","","Prijedor","",28108492,"2024-08-22T13:49:53",3,"NO ERROR",30.09,50.3,999.03,0.18,0.22,0.22],
    [4468,363171,"Vazduh","Libelium","0004A30B0021DF70",44.979,16.7091,"","","Prijedor","",28109017,"2024-08-22T14:50:35",3,"NO ERROR",31.77,48,998.33,0.08,0.19,0.25],
    [4469,363171,"Vazduh","Libelium","0004A30B0021DF70",44.979,16.7091,"","","Prijedor","",28109495,"2024-08-22T15:51:18",3,"NO ERROR",33.7,44.6,997.76,0.06,0.09,0.09],
    [4470,363171,"Vazduh","Libelium","0004A30B0021DF70",44.979,16.7091,"","","Prijedor","",28109935,"2024-08-22T16:52:00",3,"NO ERROR",33.57,44.7,997.56,0.13,0.14,0.14],
    [4471,363171,"Vazduh","Libelium","0004A30B0021DF70",44.979,16.7091,"","","Prijedor","",28110400,"2024-08-22T17:52:42",3,"NO ERROR",29.82,50.8,997.38,0.1,0.11,0.11],
    [4472,363171,"Vazduh","Libelium","0004A30B0021DF70",44.979,16.7091,"","","Prijedor","",28110845,"2024-08-22T18:53:24",3,"NO ERROR",27.96,54.7,997.34,0.11,0.12,0.12],
    [4473,363171,"Vazduh","Libelium","0004A30B0021DF70",44.979,16.7091,"","","Prijedor","",28111243,"2024-08-22T19:54:06",3,"NO ERROR",26.4,60.1,997.53,0.11,0.18,0.24],
    [4474,363171,"Vazduh","Libelium","0004A30B0021DF70",44.979,16.7091,"","","Prijedor","",28111687,"2024-08-22T20:54:54",3,"NO ERROR",24.95,69,998.08,0.07,0.1,0.1],
    [4475,363171,"Vazduh","Libelium","0004A30B0021DF70",44.979,16.7091,"","","Prijedor","",28112157,"2024-08-22T21:55:36",3,"NO ERROR",23.66,81.6,998.4,0.07,0.07,0.07],
    [4476,363171,"Vazduh","Libelium","0004A30B0021DF70",44.979,16.7091,"","","Prijedor","",28112623,"2024-08-22T22:56:18",3,"NO ERROR",22.18,97.1,998.5,0.32,0.45,0.86],
    [4477,363171,"Vazduh","Libelium","0004A30B0021DF70",44.979,16.7091,"","","Prijedor","",28113230,"2024-08-22T23:57:00",3,"NO ERROR",20.87,100,998.71,0.04,0.07,0.07],
    [4478,363171,"Vazduh","Libelium","0004A30B0021DF70",44.979,16.7091,"","","Prijedor","",28113873,"2024-08-23T00:57:42",3,"NO ERROR",20.01,100,998.61,0.15,0.25,0.54],
    [4479,363171,"Vazduh","Libelium","0004A30B0021DF70",44.979,16.7091,"","","Prijedor","",28114406,"2024-08-23T01:58:24",3,"NO ERROR",19.2,100,998.81,0.17,0.24,0.25],
    [4480,363171,"Vazduh","Libelium","0004A30B0021DF70",44.979,16.7091,"","","Prijedor","",28114924,"2024-08-23T02:59:07",3,"NO ERROR",18.51,100,999.06,0.09,0.12,0.12],
    [4481,363171,"Vazduh","Libelium","0004A30B0021DF70",44.979,16.7091,"","","Prijedor","",28115341,"2024-08-23T03:59:49",3,"NO ERROR",17.95,100,999.35,0.26,0.42,0.55],
    [4482,363171,"Vazduh","Libelium","0004A30B0021DF70",44.979,16.7091,"","","Prijedor","",28115775,"2024-08-23T05:00:31",3,"NO ERROR",17.58,100,999.47,0.1,0.12,0.12],
    [4483,363171,"Vazduh","Libelium","0004A30B0021DF70",44.979,16.7091,"","","Prijedor","",28116333,"2024-08-23T06:01:13",3,"NO ERROR",16.4,100,999.72,0.49,0.62,0.63],
    [4484,363171,"Vazduh","Libelium","0004A30B0021DF70",44.979,16.7091,"","","Prijedor","",28116841,"2024-08-23T07:01:55",3,"NO ERROR",18.74,100,1000.14,0.13,0.18,0.18],
    [4485,363171,"Vazduh","Libelium","0004A30B0021DF70",44.979,16.7091,"","","Prijedor","",28117388,"2024-08-23T08:02:37",3,"NO ERROR",18.71,100,1000.3,0.28,0.34,0.34],
    [4486,363171,"Vazduh","Libelium","0004A30B0021DF70",44.979,16.7091,"","","Prijedor","",28117936,"2024-08-23T09:03:19",3,"NO ERROR",26.82,80,1000.47,0.27,0.29,0.29],
    [4487,363171,"Vazduh","Libelium","0004A30B0021DF70",44.979,16.7091,"","","Prijedor","",28118382,"2024-08-23T10:04:01",3,"NO ERROR",27.22,75.1,1000.51,0.16,0.19,0.19],
    [4488,363171,"Vazduh","Libelium","0004A30B0021DF70",44.979,16.7091,"","","Prijedor","",28118832,"2024-08-23T11:04:55",3,"NO ERROR",28.54,68.8,1000.46,0.27,0.43,0.74],
    [4489,363171,"Vazduh","Libelium","0004A30B0021DF70",44.979,16.7091,"","","Prijedor","",28119310,"2024-08-23T12:05:37",3,"NO ERROR",30.43,59.8,999.99,0.11,0.13,0.14],
    [4490,363171,"Vazduh","Libelium","0004A30B0021DF70",44.979,16.7091,"","","Prijedor","",28119803,"2024-08-23T13:06:19",3,"NO ERROR",32.3,57.1,999.48,0.22,0.27,0.27],
    [4491,363171,"Vazduh","Libelium","0004A30B0021DF70",44.979,16.7091,"","","Prijedor","",28120333,"2024-08-23T14:07:01",3,"NO ERROR",33.15,52.1,999.06,0.11,0.22,0.54],
    [4492,363171,"Vazduh","Libelium","0004A30B0021DF70",44.979,16.7091,"","","Prijedor","",28120903,"2024-08-23T15:07:44",3,"NO ERROR",34.05,47.7,998.61,0.08,0.17,0.25],
    [4493,363171,"Vazduh","Libelium","0004A30B0021DF70",44.979,16.7091,"","","Prijedor","",28121371,"2024-08-23T16:08:26",3,"NO ERROR",36.75,42.9,998.5,0.08,0.09,0.09],
    [4494,363171,"Vazduh","Libelium","0004A30B0021DF70",44.979,16.7091,"","","Prijedor","",28121848,"2024-08-23T17:09:08",3,"NO ERROR",36.61,42.3,998.6,0.15,0.22,0.23],
    [4495,363171,"Vazduh","Libelium","0004A30B0021DF70",44.979,16.7091,"","","Prijedor","",28122329,"2024-08-23T18:09:50",3,"NO ERROR",32.83,47.8,998.55,0.25,0.32,0.32],
    [4496,363171,"Vazduh","Libelium","0004A30B0021DF70",44.979,16.7091,"","","Prijedor","",28122794,"2024-08-23T19:10:38",3,"NO ERROR",31.09,54,998.54,0.3,0.42,0.44],
    [4497,363171,"Vazduh","Libelium","0004A30B0021DF70",44.979,16.7091,"","","Prijedor","",28123234,"2024-08-23T20:11:20",3,"NO ERROR",28.78,67.6,999.1,0.33,0.49,0.6],
    [4498,363171,"Vazduh","Libelium","0004A30B0021DF70",44.979,16.7091,"","","Prijedor","",28123726,"2024-08-23T21:12:02",3,"NO ERROR",26.57,84.6,999.64,0.38,0.53,0.55],
    [4499,363171,"Vazduh","Libelium","0004A30B0021DF70",44.979,16.7091,"","","Prijedor","",28124223,"2024-08-23T22:12:44",3,"NO ERROR",24.95,97.4,999.89,0.39,0.46,0.46],
    [4500,363171,"Vazduh","Libelium","0004A30B0021DF70",44.979,16.7091,"","","Prijedor","",28124676,"2024-08-23T23:13:26",3,"NO ERROR",23.41,100,1000.25,0.15,0.21,0.21],
    [4501,363171,"Vazduh","Libelium","0004A30B0021DF70",44.979,16.7091,"","","Prijedor","",28125405,"2024-08-24T00:14:08",3,"NO ERROR",22.59,100,1000.46,0.13,0.27,0.36],
    [4502,363171,"Vazduh","Libelium","0004A30B0021DF70",44.979,16.7091,"","","Prijedor","",28125953,"2024-08-24T01:14:51",3,"NO ERROR",21.45,100,1000.64,0.17,0.21,0.22],
    [4503,363171,"Vazduh","Libelium","0004A30B0021DF70",44.979,16.7091,"","","Prijedor","",28126462,"2024-08-24T02:15:33",3,"NO ERROR",20.73,100,1000.8,0.46,0.57,0.58],
    [4504,363171,"Vazduh","Libelium","0004A30B0021DF70",44.979,16.7091,"","","Prijedor","",28126986,"2024-08-24T03:16:15",3,"NO ERROR",20.15,100,1001.09,0.23,0.26,0.26],
    [4505,363171,"Vazduh","Libelium","0004A30B0021DF70",44.979,16.7091,"","","Prijedor","",28127429,"2024-08-24T04:16:57",3,"NO ERROR",19.8,100,1001.12,0.56,0.86,0.89],
    [4506,363171,"Vazduh","Libelium","0004A30B0021DF70",44.979,16.7091,"","","Prijedor","",28127936,"2024-08-24T05:17:39",3,"NO ERROR",19.78,100,1001.36,0.33,0.36,0.36],
    [4507,363171,"Vazduh","Libelium","0004A30B0021DF70",44.979,16.7091,"","","Prijedor","",28128545,"2024-08-24T06:18:21",3,"NO ERROR",19.63,100,1001.67,1.05,1.19,1.2],
    [4508,363171,"Vazduh","Libelium","0004A30B0021DF70",44.979,16.7091,"","","Prijedor","",28129077,"2024-08-24T07:19:03",3,"NO ERROR",23.44,100,1002.1,0.62,0.9,1.04],
    [4509,363171,"Vazduh","Libelium","0004A30B0021DF70",44.979,16.7091,"","","Prijedor","",28129571,"2024-08-24T08:19:45",3,"NO ERROR",25.53,92.7,1002.28,0.11,0.14,0.14],
    [4510,363171,"Vazduh","Libelium","0004A30B0021DF70",44.979,16.7091,"","","Prijedor","",28130091,"2024-08-24T09:20:27",3,"NO ERROR",29.3,69.4,1002.1,0.33,0.44,0.46],
    [4511,363171,"Vazduh","Libelium","0004A30B0021DF70",44.979,16.7091,"","","Prijedor","",28130551,"2024-08-24T10:21:09",3,"NO ERROR",32.56,57.8,1002.03,0.15,0.24,0.42],
    [4512,363171,"Vazduh","Libelium","0004A30B0021DF70",44.979,16.7091,"","","Prijedor","",28131035,"2024-08-24T11:21:51",3,"NO ERROR",32.04,54.9,1001.72,0.18,0.21,0.21],
    [4513,363171,"Vazduh","Libelium","0004A30B0021DF70",44.979,16.7091,"","","Prijedor","",28131556,"2024-08-24T12:22:33",3,"NO ERROR",34.06,50.9,1001.2,0.18,0.19,0.19],
    [4514,363171,"Vazduh","Libelium","0004A30B0021DF70",44.979,16.7091,"","","Prijedor","",28132049,"2024-08-24T13:23:16",3,"NO ERROR",35.15,43.9,1000.77,0.15,0.18,0.18],
    [4515,363171,"Vazduh","Libelium","0004A30B0021DF70",44.979,16.7091,"","","Prijedor","",28132573,"2024-08-24T14:23:58",3,"NO ERROR",37.33,40.6,1000.24,0.24,0.39,0.76],
    [4516,363171,"Vazduh","Libelium","0004A30B0021DF70",44.979,16.7091,"","","Prijedor","",28133095,"2024-08-24T15:24:40",3,"NO ERROR",38,42,999.69,0.21,0.27,0.27],
    [4517,363171,"Vazduh","Libelium","0004A30B0021DF70",44.979,16.7091,"","","Prijedor","",28133554,"2024-08-24T16:25:22",3,"NO ERROR",38.99,38.9,999.25,0.14,0.19,0.2],
    [4518,363171,"Vazduh","Libelium","0004A30B0021DF70",44.979,16.7091,"","","Prijedor","",28134035,"2024-08-24T17:26:04",3,"NO ERROR",36.55,45.4,999.12,0.14,0.16,0.16],
    [4519,363171,"Vazduh","Libelium","0004A30B0021DF70",44.979,16.7091,"","","Prijedor","",28134513,"2024-08-24T18:26:46",3,"NO ERROR",33.81,54.1,998.63,0.2,0.21,0.21],
    [4520,363171,"Vazduh","Libelium","0004A30B0021DF70",44.979,16.7091,"","","Prijedor","",28134949,"2024-08-24T19:27:28",3,"NO ERROR",31.67,63,998.65,0.14,0.27,0.34],
    [4521,363171,"Vazduh","Libelium","0004A30B0021DF70",44.979,16.7091,"","","Prijedor","",28135333,"2024-08-24T20:28:10",3,"NO ERROR",29.56,75.9,998.94,0.17,0.25,0.31],
    [4522,363171,"Vazduh","Libelium","0004A30B0021DF70",44.979,16.7091,"","","Prijedor","",28135882,"2024-08-24T21:28:53",3,"NO ERROR",27.35,97.7,999.24,0.4,0.48,0.49],
    [4523,363171,"Vazduh","Libelium","0004A30B0021DF70",44.979,16.7091,"","","Prijedor","",28136325,"2024-08-24T22:29:35",3,"NO ERROR",26.34,100,999.23,0.07,0.09,0.09],
    [4524,363171,"Vazduh","Libelium","0004A30B0021DF70",44.979,16.7091,"","","Prijedor","",28136784,"2024-08-24T23:30:17",3,"NO ERROR",24.59,100,999.36,0.34,0.39,0.39],
    [4525,363171,"Vazduh","Libelium","0004A30B0021DF70",44.979,16.7091,"","","Prijedor","",28137531,"2024-08-25T00:31:05",3,"NO ERROR",23.4,100,999.38,0.5,0.58,0.58],
    [4526,363171,"Vazduh","Libelium","0004A30B0021DF70",44.979,16.7091,"","","Prijedor","",28138012,"2024-08-25T01:31:47",3,"NO ERROR",22.54,100,998.98,0.52,0.68,0.68],
    [4527,363171,"Vazduh","Libelium","0004A30B0021DF70",44.979,16.7091,"","","Prijedor","",28138471,"2024-08-25T02:32:35",3,"NO ERROR",22.31,100,999.01,0.21,0.26,0.26],
    [4528,363171,"Vazduh","Libelium","0004A30B0021DF70",44.979,16.7091,"","","Prijedor","",28138966,"2024-08-25T03:33:17",3,"NO ERROR",21.28,100,998.95,0.38,0.48,0.48],
    [4529,363171,"Vazduh","Libelium","0004A30B0021DF70",44.979,16.7091,"","","Prijedor","",28139371,"2024-08-25T04:33:59",3,"NO ERROR",20.77,100,998.93,0.15,0.19,0.19],
    [4530,363171,"Vazduh","Libelium","0004A30B0021DF70",44.979,16.7091,"","","Prijedor","",28139911,"2024-08-25T05:34:41",3,"NO ERROR",19.93,100,999.27,0.63,0.83,0.92],
    [4531,363171,"Vazduh","Libelium","0004A30B0021DF70",44.979,16.7091,"","","Prijedor","",28140459,"2024-08-25T06:35:23",3,"NO ERROR",19.47,100,999.62,0.89,1.35,4.51],
    [4532,363171,"Vazduh","Libelium","0004A30B0021DF70",44.979,16.7091,"","","Prijedor","",28140998,"2024-08-25T07:36:05",3,"NO ERROR",22.49,100,1000.11,0.11,0.12,0.12],
    [4533,363171,"Vazduh","Libelium","0004A30B0021DF70",44.979,16.7091,"","","Prijedor","",28141560,"2024-08-25T08:36:47",3,"NO ERROR",27.84,84.7,1000.03,0.37,0.43,0.43],
    [4534,363171,"Vazduh","Libelium","0004A30B0021DF70",44.979,16.7091,"","","Prijedor","",28142118,"2024-08-25T09:37:30",3,"NO ERROR",31.11,67.2,1000.08,0.12,0.17,0.17],
    [4535,363171,"Vazduh","Libelium","0004A30B0021DF70",44.979,16.7091,"","","Prijedor","",28143544,"2024-08-25T12:39:36",3,"NO ERROR",35.09,45.6,998.77,0.26,0.43,0.46],
    [4536,363171,"Vazduh","Libelium","0004A30B0021DF70",44.979,16.7091,"","","Prijedor","",28162369,"2024-08-27T02:05:45",3,"NO ERROR",23.78,93.7,1000.57,0.07,0.32,0.77],
    [4537,363171,"Vazduh","Libelium","0004A30B0021DF70",44.979,16.7091,"","","Prijedor","",28162958,"2024-08-27T03:06:28",3,"NO ERROR",23.43,92.1,1000.96,0.06,0.09,0.1],
    [4538,363171,"Vazduh","Libelium","0004A30B0021DF70",44.979,16.7091,"","","Prijedor","",28163445,"2024-08-27T04:07:10",3,"NO ERROR",21.29,100,1001.34,0.16,0.17,0.17],
    [4539,363171,"Vazduh","Libelium","0004A30B0021DF70",44.979,16.7091,"","","Prijedor","",28163976,"2024-08-27T05:07:52",3,"NO ERROR",20.94,100,1001.57,0.08,0.14,0.15],
    [4540,363171,"Vazduh","Libelium","0004A30B0021DF70",44.979,16.7091,"","","Prijedor","",28164606,"2024-08-27T06:08:34",3,"NO ERROR",20.17,100,1002.23,0.12,0.17,0.18],
    [4541,363171,"Vazduh","Libelium","0004A30B0021DF70",44.979,16.7091,"","","Prijedor","",28165166,"2024-08-27T07:09:22",3,"NO ERROR",21.6,100,1002.76,0.07,0.09,0.09],
    [4542,363171,"Vazduh","Libelium","0004A30B0021DF70",44.979,16.7091,"","","Prijedor","",28165690,"2024-08-27T08:10:04",3,"NO ERROR",24.09,93.3,1003.41,0.08,0.08,0.08],
    [4543,363171,"Vazduh","Libelium","0004A30B0021DF70",44.979,16.7091,"","","Prijedor","",28166278,"2024-08-27T09:10:46",3,"NO ERROR",24.7,87.8,1003.61,0.24,0.39,0.48],
    [4544,363171,"Vazduh","Libelium","0004A30B0021DF70",44.979,16.7091,"","","Prijedor","",28166789,"2024-08-27T10:11:28",3,"NO ERROR",26.54,79.5,1004.02,0.08,0.09,0.09],
    [4545,363171,"Vazduh","Libelium","0004A30B0021DF70",44.979,16.7091,"","","Prijedor","",28167316,"2024-08-27T11:12:16",3,"NO ERROR",27.58,72.9,1003.96,0.12,0.13,0.13],
    [4546,363171,"Vazduh","Libelium","0004A30B0021DF70",44.979,16.7091,"","","Prijedor","",28167942,"2024-08-27T12:12:58",3,"NO ERROR",28.58,67.6,1003.37,0.18,0.19,0.19],
    [4547,363171,"Vazduh","Libelium","0004A30B0021DF70",44.979,16.7091,"","","Prijedor","",28168535,"2024-08-27T13:13:40",3,"NO ERROR",30.58,61.5,1002.88,0.29,0.43,0.43],
    [4548,363171,"Vazduh","Libelium","0004A30B0021DF70",44.979,16.7091,"","","Prijedor","",28169158,"2024-08-27T14:14:22",3,"NO ERROR",30.64,62.2,1002.57,0.05,0.08,0.08],
    [4549,363171,"Vazduh","Libelium","0004A30B0021DF70",44.979,16.7091,"","","Prijedor","",28169778,"2024-08-27T15:15:05",3,"NO ERROR",30.95,59.3,1001.91,0.15,0.17,0.17],
    [4550,363171,"Vazduh","Libelium","0004A30B0021DF70",44.979,16.7091,"","","Prijedor","",28170290,"2024-08-27T16:15:47",3,"NO ERROR",32.93,54.4,1001.35,0.08,0.11,0.11],
    [4551,363171,"Vazduh","Libelium","0004A30B0021DF70",44.979,16.7091,"","","Prijedor","",28170831,"2024-08-27T17:16:29",3,"NO ERROR",30.87,60.5,1001,0.08,0.12,0.13],
    [4552,363171,"Vazduh","Libelium","0004A30B0021DF70",44.979,16.7091,"","","Prijedor","",28171375,"2024-08-27T18:17:11",3,"NO ERROR",29.08,69.3,1000.76,0.14,0.31,0.44],
    [4553,363171,"Vazduh","Libelium","0004A30B0021DF70",44.979,16.7091,"","","Prijedor","",28171865,"2024-08-27T19:17:53",3,"NO ERROR",28.22,75.9,1001.13,0.13,0.22,0.24],
    [4554,363171,"Vazduh","Libelium","0004A30B0021DF70",44.979,16.7091,"","","Prijedor","",28172353,"2024-08-27T20:18:35",3,"NO ERROR",26.73,83.9,1002.23,0.38,0.54,0.62],
    [4555,363171,"Vazduh","Libelium","0004A30B0021DF70",44.979,16.7091,"","","Prijedor","",28172920,"2024-08-27T21:19:17",3,"NO ERROR",25.63,87.4,1002.83,0.15,0.23,0.23],
    [4556,363171,"Vazduh","Libelium","0004A30B0021DF70",44.979,16.7091,"","","Prijedor","",28173458,"2024-08-27T22:19:59",3,"NO ERROR",25.67,83.7,1002.9,0.13,0.16,0.16],
    [4557,363171,"Vazduh","Libelium","0004A30B0021DF70",44.979,16.7091,"","","Prijedor","",28173998,"2024-08-27T23:20:41",3,"NO ERROR",24.21,98.1,1002.63,0.12,0.16,0.17],
    [4558,363171,"Vazduh","Libelium","0004A30B0021DF70",44.979,16.7091,"","","Prijedor","",28174851,"2024-08-28T00:21:23",3,"NO ERROR",23.1,100,1002.66,0.12,0.19,0.2],
    [4559,363171,"Vazduh","Libelium","0004A30B0021DF70",44.979,16.7091,"","","Prijedor","",28175499,"2024-08-28T01:22:06",3,"NO ERROR",22.04,100,1002.5,0.11,0.22,0.29],
    [4560,363171,"Vazduh","Libelium","0004A30B0021DF70",44.979,16.7091,"","","Prijedor","",28176098,"2024-08-28T02:22:48",3,"NO ERROR",21.8,100,1002.75,0.17,0.21,0.21],
    [4561,363171,"Vazduh","Libelium","0004A30B0021DF70",44.979,16.7091,"","","Prijedor","",28176775,"2024-08-28T03:23:30",3,"NO ERROR",21.01,100,1002.68,0.1,0.1,0.1],
    [4562,363171,"Vazduh","Libelium","0004A30B0021DF70",44.979,16.7091,"","","Prijedor","",28177371,"2024-08-28T04:24:12",3,"NO ERROR",20.05,100,1002.67,0.24,0.42,0.55],
    [4563,363171,"Vazduh","Libelium","0004A30B0021DF70",44.979,16.7091,"","","Prijedor","",28178033,"2024-08-28T05:24:54",3,"NO ERROR",19.94,100,1003.02,0.13,0.15,0.15],
    [4564,363171,"Vazduh","Libelium","0004A30B0021DF70",44.979,16.7091,"","","Prijedor","",28178709,"2024-08-28T06:25:36",3,"NO ERROR",19.72,100,1003.21,0.12,0.13,0.13],
    [4565,363171,"Vazduh","Libelium","0004A30B0021DF70",44.979,16.7091,"","","Prijedor","",28179270,"2024-08-28T07:26:18",3,"NO ERROR",22.49,100,1003.49,0.25,0.37,0.4],
    [4566,363171,"Vazduh","Libelium","0004A30B0021DF70",44.979,16.7091,"","","Prijedor","",28179822,"2024-08-28T08:27:00",3,"NO ERROR",25.91,92.7,1003.99,0.18,0.28,0.37],
    [4567,363171,"Vazduh","Libelium","0004A30B0021DF70",44.979,16.7091,"","","Prijedor","",28180436,"2024-08-28T09:27:42",3,"NO ERROR",28.55,76.9,1003.82,0.23,0.35,0.37],
    [4568,363171,"Vazduh","Libelium","0004A30B0021DF70",44.979,16.7091,"","","Prijedor","",28180970,"2024-08-28T10:28:24",3,"NO ERROR",29.74,67.4,1003.76,0.16,0.25,0.33],
    [4569,363171,"Vazduh","Libelium","0004A30B0021DF70",44.979,16.7091,"","","Prijedor","",28181547,"2024-08-28T11:29:06",3,"NO ERROR",29.93,63.7,1003.52,0.22,0.33,0.39],
    [4570,363171,"Vazduh","Libelium","0004A30B0021DF70",44.979,16.7091,"","","Prijedor","",28182183,"2024-08-28T12:29:48",3,"NO ERROR",30.9,64.4,1002.94,0.14,0.17,0.17],
    [4571,363171,"Vazduh","Libelium","0004A30B0021DF70",44.979,16.7091,"","","Prijedor","",28182756,"2024-08-28T13:30:31",3,"NO ERROR",31.95,60.8,1002.5,0.2,0.34,0.36],
    [4572,363171,"Vazduh","Libelium","0004A30B0021DF70",44.979,16.7091,"","","Prijedor","",28183240,"2024-08-28T14:31:13",3,"NO ERROR",33.27,54.9,1001.98,0.1,0.16,0.92],
    [4573,363171,"Vazduh","Libelium","0004A30B0021DF70",44.979,16.7091,"","","Prijedor","",28183760,"2024-08-28T15:32:01",3,"NO ERROR",35.39,46.8,1001.48,0.12,0.29,0.61],
    [4574,363171,"Vazduh","Libelium","0004A30B0021DF70",44.979,16.7091,"","","Prijedor","",28184220,"2024-08-28T16:32:43",3,"NO ERROR",33.45,52.1,1001.2,0.31,0.96,3.7],
    [4575,363171,"Vazduh","Libelium","0004A30B0021DF70",44.979,16.7091,"","","Prijedor","",28184714,"2024-08-28T17:33:25",3,"NO ERROR",33.54,51.9,1000.77,0.17,0.23,0.23],
    [4576,363171,"Vazduh","Libelium","0004A30B0021DF70",44.979,16.7091,"","","Prijedor","",28185260,"2024-08-28T18:34:07",3,"NO ERROR",31.98,50.8,1000.57,0.11,0.13,0.13],
    [4577,363171,"Vazduh","Libelium","0004A30B0021DF70",44.979,16.7091,"","","Prijedor","",28185684,"2024-08-28T19:34:49",3,"NO ERROR",29.64,59.8,1000.85,0.35,0.58,0.61],
    [4578,363171,"Vazduh","Libelium","0004A30B0021DF70",44.979,16.7091,"","","Prijedor","",28186114,"2024-08-28T20:35:31",3,"NO ERROR",28.36,73.2,1001.32,0.35,0.78,1.74],
    [4579,363171,"Vazduh","Libelium","0004A30B0021DF70",44.979,16.7091,"","","Prijedor","",28186620,"2024-08-28T21:36:13",3,"NO ERROR",26.96,85.6,1001.68,0.13,0.33,0.75],
    [4580,363171,"Vazduh","Libelium","0004A30B0021DF70",44.979,16.7091,"","","Prijedor","",28187060,"2024-08-28T22:36:56",3,"NO ERROR",25.91,92.6,1001.76,0.25,0.38,0.47],
    [4581,363171,"Vazduh","Libelium","0004A30B0021DF70",44.979,16.7091,"","","Prijedor","",28187543,"2024-08-28T23:37:38",3,"NO ERROR",24.67,100,1001.75,0.16,0.19,0.19],
    [4582,363171,"Vazduh","Libelium","0004A30B0021DF70",44.979,16.7091,"","","Prijedor","",28188326,"2024-08-29T00:38:20",3,"NO ERROR",23.74,100,1001.91,0.26,0.43,0.75],
    [4583,363171,"Vazduh","Libelium","0004A30B0021DF70",44.979,16.7091,"","","Prijedor","",28188846,"2024-08-29T01:39:02",3,"NO ERROR",22.8,100,1001.74,0.14,0.28,0.36],
    [4584,363171,"Vazduh","Libelium","0004A30B0021DF70",44.979,16.7091,"","","Prijedor","",28189347,"2024-08-29T02:39:44",3,"NO ERROR",21.88,100,1001.68,0.16,0.22,0.22],
    [4585,363171,"Vazduh","Libelium","0004A30B0021DF70",44.979,16.7091,"","","Prijedor","",28189861,"2024-08-29T03:40:26",3,"NO ERROR",21.52,100,1001.66,0.46,0.54,0.54],
    [4586,363171,"Vazduh","Libelium","0004A30B0021DF70",44.979,16.7091,"","","Prijedor","",28190316,"2024-08-29T04:41:08",3,"NO ERROR",20.42,100,1001.67,0.18,0.22,0.22],
    [4587,363171,"Vazduh","Libelium","0004A30B0021DF70",44.979,16.7091,"","","Prijedor","",28190891,"2024-08-29T05:41:50",3,"NO ERROR",19.87,100,1001.79,0.44,0.56,0.56],
    [4588,363171,"Vazduh","Libelium","0004A30B0021DF70",44.979,16.7091,"","","Prijedor","",28191488,"2024-08-29T06:42:32",3,"NO ERROR",19.8,100,1002.09,0.15,0.19,0.19],
    [4589,363171,"Vazduh","Libelium","0004A30B0021DF70",44.979,16.7091,"","","Prijedor","",28191974,"2024-08-29T07:43:14",3,"NO ERROR",23.45,100,1002.28,0.14,0.18,0.18],
    [4590,363171,"Vazduh","Libelium","0004A30B0021DF70",44.979,16.7091,"","","Prijedor","",28192470,"2024-08-29T08:43:56",3,"NO ERROR",26.8,90.5,1002.63,0.18,0.33,0.37],
    [4591,363171,"Vazduh","Libelium","0004A30B0021DF70",44.979,16.7091,"","","Prijedor","",28193480,"2024-08-29T10:45:21",3,"NO ERROR",30.53,70.1,1002.68,0.11,0.23,0.26],
    [4592,363171,"Vazduh","Libelium","0004A30B0021DF70",44.979,16.7091,"","","Prijedor","",28194041,"2024-08-29T11:46:03",3,"NO ERROR",32.09,63.5,1002.03,0.18,0.37,0.91],
    [4593,363171,"Vazduh","Libelium","0004A30B0021DF70",44.979,16.7091,"","","Prijedor","",28194600,"2024-08-29T12:46:45",3,"NO ERROR",33.19,54.2,1001.41,0.05,0.1,0.11],
    [4594,363171,"Vazduh","Libelium","0004A30B0021DF70",44.979,16.7091,"","","Prijedor","",28195156,"2024-08-29T13:47:27",3,"NO ERROR",34.41,44.1,1000.99,0.14,0.32,0.62],
    [4595,363171,"Vazduh","Libelium","0004A30B0021DF70",44.979,16.7091,"","","Prijedor","",28195720,"2024-08-29T14:48:09",3,"NO ERROR",34.72,40.9,1000.41,0.32,0.42,0.44],
    [4596,363171,"Vazduh","Libelium","0004A30B0021DF70",44.979,16.7091,"","","Prijedor","",28196246,"2024-08-29T15:48:51",3,"NO ERROR",36.18,39.6,999.91,0.4,0.57,0.6],
    [4597,363171,"Vazduh","Libelium","0004A30B0021DF70",44.979,16.7091,"","","Prijedor","",28196732,"2024-08-29T16:49:33",3,"NO ERROR",36.39,39,999.6,0.22,0.27,0.28],
    [4598,363171,"Vazduh","Libelium","0004A30B0021DF70",44.979,16.7091,"","","Prijedor","",28197250,"2024-08-29T17:50:16",3,"NO ERROR",33.19,41.3,999.55,0.13,0.22,0.3],
    [4599,363171,"Vazduh","Libelium","0004A30B0021DF70",44.979,16.7091,"","","Prijedor","",28197746,"2024-08-29T18:50:58",3,"NO ERROR",31.81,45.4,999.51,0.04,0.09,0.14],
    [4600,363171,"Vazduh","Libelium","0004A30B0021DF70",44.979,16.7091,"","","Prijedor","",28198183,"2024-08-29T19:51:40",3,"NO ERROR",29.71,51.5,1000.13,0.54,0.87,1.03],
    [4601,363171,"Vazduh","Libelium","0004A30B0021DF70",44.979,16.7091,"","","Prijedor","",28198719,"2024-08-29T20:52:22",3,"NO ERROR",27.15,67.9,1000.59,0.28,0.48,0.57],
    [4602,363171,"Vazduh","Libelium","0004A30B0021DF70",44.979,16.7091,"","","Prijedor","",28199277,"2024-08-29T21:53:04",3,"NO ERROR",24.64,90.5,1000.95,0.21,0.3,0.32],
    [4603,363171,"Vazduh","Libelium","0004A30B0021DF70",44.979,16.7091,"","","Prijedor","",28199782,"2024-08-29T22:53:46",3,"NO ERROR",23.63,100,1001.06,0.42,0.59,0.61],
    [4604,363171,"Vazduh","Libelium","0004A30B0021DF70",44.979,16.7091,"","","Prijedor","",28200404,"2024-08-29T23:54:28",3,"NO ERROR",22.21,100,1001.07,0.28,0.33,0.33],
    [4605,363171,"Vazduh","Libelium","0004A30B0021DF70",44.979,16.7091,"","","Prijedor","",28201094,"2024-08-30T00:55:16",3,"NO ERROR",21.45,100,1001,0.3,0.36,0.37],
    [4606,363171,"Vazduh","Libelium","0004A30B0021DF70",44.979,16.7091,"","","Prijedor","",28201533,"2024-08-30T01:56:04",3,"NO ERROR",20.9,100,1001.09,0.33,0.36,0.36],
    [4607,363171,"Vazduh","Libelium","0004A30B0021DF70",44.979,16.7091,"","","Prijedor","",28202014,"2024-08-30T02:56:52",3,"NO ERROR",20.8,100,1001.1,0.2,0.25,0.25],
    [4608,363171,"Vazduh","Libelium","0004A30B0021DF70",44.979,16.7091,"","","Prijedor","",28202470,"2024-08-30T03:57:34",3,"NO ERROR",19.72,100,1001.19,0.21,0.26,0.26],
    [4609,363171,"Vazduh","Libelium","0004A30B0021DF70",44.979,16.7091,"","","Prijedor","",28202915,"2024-08-30T04:58:16",3,"NO ERROR",18.91,100,1001.4,0.37,0.55,0.64],
    [4610,363171,"Vazduh","Libelium","0004A30B0021DF70",44.979,16.7091,"","","Prijedor","",28203436,"2024-08-30T05:58:58",3,"NO ERROR",18.75,100,1001.56,0.45,0.52,0.52],
    [4611,363171,"Vazduh","Libelium","0004A30B0021DF70",44.979,16.7091,"","","Prijedor","",28203947,"2024-08-30T06:59:41",3,"NO ERROR",19.2,100,1002.1,0.45,0.6,0.61],
    [4612,363171,"Vazduh","Libelium","0004A30B0021DF70",44.979,16.7091,"","","Prijedor","",28204426,"2024-08-30T08:00:23",3,"NO ERROR",23.48,100,1002.4,0.14,0.37,1.72],
    [4613,363171,"Vazduh","Libelium","0004A30B0021DF70",44.979,16.7091,"","","Prijedor","",28204954,"2024-08-30T09:01:05",3,"NO ERROR",27.1,84.7,1002.72,0.27,0.38,0.4],
    [4614,363171,"Vazduh","Libelium","0004A30B0021DF70",44.979,16.7091,"","","Prijedor","",28205482,"2024-08-30T10:01:47",3,"NO ERROR",28.93,75.3,1002.62,0.31,0.42,0.44],
    [4615,363171,"Vazduh","Libelium","0004A30B0021DF70",44.979,16.7091,"","","Prijedor","",28206241,"2024-08-30T11:30:55",3,"NO ERROR",29.18,69.2,1002.39,0.24,0.32,0.33],
    [4616,363171,"Vazduh","Libelium","0004A30B0021DF70",44.979,16.7091,"","","Prijedor","",28205983,"2024-08-30T11:02:29",3,"NO ERROR",29.18,69.2,1002.39,0.24,0.32,0.33],
    [4617,363171,"Vazduh","Libelium","0004A30B0021DF70",44.979,16.7091,"","","Prijedor","",28206618,"2024-08-30T12:03:11",3,"NO ERROR",31.73,59.4,1002.04,0.16,0.24,0.25],
    [4618,363171,"Vazduh","Libelium","0004A30B0021DF70",44.979,16.7091,"","","Prijedor","",28207204,"2024-08-30T13:03:53",3,"NO ERROR",33.45,50.3,1001.44,0.19,0.23,0.23],
    [4619,363171,"Vazduh","Libelium","0004A30B0021DF70",44.979,16.7091,"","","Prijedor","",28207764,"2024-08-30T14:04:35",3,"NO ERROR",34.05,45.1,1000.9,0.16,0.27,0.28],
    [4620,363171,"Vazduh","Libelium","0004A30B0021DF70",44.979,16.7091,"","","Prijedor","",28208386,"2024-08-30T15:05:17",3,"NO ERROR",33.45,42.2,1000.45,0.13,0.16,0.16],
    [4621,363171,"Vazduh","Libelium","0004A30B0021DF70",44.979,16.7091,"","","Prijedor","",28208956,"2024-08-30T16:06:00",3,"NO ERROR",36.32,38.5,1000.1,0.2,0.4,7.38],
    [4622,363171,"Vazduh","Libelium","0004A30B0021DF70",44.979,16.7091,"","","Prijedor","",28209506,"2024-08-30T17:06:42",3,"NO ERROR",36.23,38.2,999.83,0.16,0.19,0.19],
    [4623,363171,"Vazduh","Libelium","0004A30B0021DF70",44.979,16.7091,"","","Prijedor","",28210061,"2024-08-30T18:07:24",3,"NO ERROR",32.56,43.1,999.6,0.36,0.52,0.54],
    [4624,363171,"Vazduh","Libelium","0004A30B0021DF70",44.979,16.7091,"","","Prijedor","",28210596,"2024-08-30T19:08:06",3,"NO ERROR",30.47,46.7,999.83,0.7,1.07,2.38],
    [4625,363171,"Vazduh","Libelium","0004A30B0021DF70",44.979,16.7091,"","","Prijedor","",28211006,"2024-08-30T20:08:48",3,"NO ERROR",27.56,62.1,1000.16,0.44,0.7,0.8],
    [4626,363171,"Vazduh","Libelium","0004A30B0021DF70",44.979,16.7091,"","","Prijedor","",28211493,"2024-08-30T21:09:30",3,"NO ERROR",25.23,80.2,1000.78,0.34,0.47,0.49],
    [4627,363171,"Vazduh","Libelium","0004A30B0021DF70",44.979,16.7091,"","","Prijedor","",28212013,"2024-08-30T22:10:12",3,"NO ERROR",23.86,92.8,1001.09,0.26,0.41,0.43],
    [4628,363171,"Vazduh","Libelium","0004A30B0021DF70",44.979,16.7091,"","","Prijedor","",28212504,"2024-08-30T23:11:07",3,"NO ERROR",22.31,100,1001.22,0.25,0.37,0.39],
    [4629,363171,"Vazduh","Libelium","0004A30B0021DF70",44.979,16.7091,"","","Prijedor","",28213208,"2024-08-31T00:11:48",3,"NO ERROR",21.35,100,1001.26,0.29,0.42,0.44],
    [4630,363171,"Vazduh","Libelium","0004A30B0021DF70",44.979,16.7091,"","","Prijedor","",28213709,"2024-08-31T01:12:30",3,"NO ERROR",20.44,100,1001.27,0.25,0.35,0.37],
    [4631,363171,"Vazduh","Libelium","0004A30B0021DF70",44.979,16.7091,"","","Prijedor","",28214214,"2024-08-31T02:13:13",3,"NO ERROR",19.72,100,1001.48,0.39,0.6,0.62],
    [4632,363171,"Vazduh","Libelium","0004A30B0021DF70",44.979,16.7091,"","","Prijedor","",28214733,"2024-08-31T03:13:55",3,"NO ERROR",18.92,100,1001.47,0.34,0.53,0.66],
    [4633,363171,"Vazduh","Libelium","0004A30B0021DF70",44.979,16.7091,"","","Prijedor","",28215193,"2024-08-31T04:14:37",3,"NO ERROR",18.06,100,1001.78,0.11,0.16,0.17],
    [4634,363171,"Vazduh","Libelium","0004A30B0021DF70",44.979,16.7091,"","","Prijedor","",28215683,"2024-08-31T05:15:19",3,"NO ERROR",17.89,100,1002.02,0.4,0.57,0.71],
    [4635,363171,"Vazduh","Libelium","0004A30B0021DF70",44.979,16.7091,"","","Prijedor","",28216238,"2024-08-31T06:16:01",3,"NO ERROR",17.14,100,1002.29,0.38,0.73,1.03],
    [4636,363171,"Vazduh","Libelium","0004A30B0021DF70",44.979,16.7091,"","","Prijedor","",28216768,"2024-08-31T07:16:43",3,"NO ERROR",19.83,100,1002.83,0.29,0.4,0.76],
    [4637,363171,"Vazduh","Libelium","0004A30B0021DF70",44.979,16.7091,"","","Prijedor","",28217263,"2024-08-31T08:17:25",3,"NO ERROR",23.86,90.8,1002.95,0.13,0.21,0.21],
    [4638,363171,"Vazduh","Libelium","0004A30B0021DF70",44.979,16.7091,"","","Prijedor","",28217767,"2024-08-31T09:18:07",3,"NO ERROR",27.07,73.9,1003.06,0.06,0.2,0.28],
    [4639,363171,"Vazduh","Libelium","0004A30B0021DF70",44.979,16.7091,"","","Prijedor","",28218234,"2024-08-31T10:18:49",3,"NO ERROR",29.16,67.9,1003.14,0.3,0.45,0.81],
    [4640,363171,"Vazduh","Libelium","0004A30B0021DF70",44.979,16.7091,"","","Prijedor","",28219246,"2024-08-31T12:20:13",3,"NO ERROR",32.47,52.8,1002.31,0.23,0.43,0.86],
    [4641,363171,"Vazduh","Libelium","0004A30B0021DF70",44.979,16.7091,"","","Prijedor","",28219740,"2024-08-31T13:20:56",3,"NO ERROR",34.12,44.2,1002.03,0.15,0.25,0.25],
    [4642,363171,"Vazduh","Libelium","0004A30B0021DF70",44.979,16.7091,"","","Prijedor","",28220202,"2024-08-31T14:21:38",3,"NO ERROR",35.97,37.9,1001.39,0.1,0.19,0.23],
    [4643,363171,"Vazduh","Libelium","0004A30B0021DF70",44.979,16.7091,"","","Prijedor","",28220688,"2024-08-31T15:22:20",3,"NO ERROR",36.98,36.8,1001.09,0.5,0.74,0.76],
    [4644,363171,"Vazduh","Libelium","0004A30B0021DF70",44.979,16.7091,"","","Prijedor","",28221154,"2024-08-31T16:23:08",3,"NO ERROR",36.71,37,1000.65,0.13,0.24,0.3],
    [4645,363171,"Vazduh","Libelium","0004A30B0021DF70",44.979,16.7091,"","","Prijedor","",28221628,"2024-08-31T17:23:50",3,"NO ERROR",34.62,38.3,1000.41,0.17,0.27,0.28],
    [4646,363171,"Vazduh","Libelium","0004A30B0021DF70",44.979,16.7091,"","","Prijedor","",28222094,"2024-08-31T18:24:32",3,"NO ERROR",32.78,40,1000.06,0.24,0.36,0.45],
    [4647,363171,"Vazduh","Libelium","0004A30B0021DF70",44.979,16.7091,"","","Prijedor","",28222520,"2024-08-31T19:25:14",3,"NO ERROR",30.69,46.2,999.99,0.43,0.64,0.67],
    [4648,363171,"Vazduh","Libelium","0004A30B0021DF70",44.979,16.7091,"","","Prijedor","",28222954,"2024-08-31T20:25:56",3,"NO ERROR",27.65,61.1,1000.5,0.46,0.6,0.6],
    [4649,363171,"Vazduh","Libelium","0004A30B0021DF70",44.979,16.7091,"","","Prijedor","",28223486,"2024-08-31T21:26:38",3,"NO ERROR",25.53,76.1,1001.06,0.25,0.44,0.73],
    [4650,363171,"Vazduh","Libelium","0004A30B0021DF70",44.979,16.7091,"","","Prijedor","",28223971,"2024-08-31T22:27:21",3,"NO ERROR",23.48,94.2,1001.24,0.23,0.49,0.6],
    [4651,363171,"Vazduh","Libelium","0004A30B0021DF70",44.979,16.7091,"","","Prijedor","",28225741,"2024-09-01T01:29:33",3,"NO ERROR",20.76,100,1001.39,0.12,0.17,0.17],
    [4652,363171,"Vazduh","Libelium","0004A30B0021DF70",44.979,16.7091,"","","Prijedor","",28226230,"2024-09-01T02:30:15",3,"NO ERROR",20.17,100,1001.16,0.18,0.4,0.92],
    [4653,363171,"Vazduh","Libelium","0004A30B0021DF70",44.979,16.7091,"","","Prijedor","",28226707,"2024-09-01T03:30:57",3,"NO ERROR",18.82,100,1001.23,0.15,0.2,0.2],
    [4654,363171,"Vazduh","Libelium","0004A30B0021DF70",44.979,16.7091,"","","Prijedor","",28227199,"2024-09-01T04:31:39",3,"NO ERROR",18.46,100,1001.05,0.16,0.21,0.22],
    [4655,363171,"Vazduh","Libelium","0004A30B0021DF70",44.979,16.7091,"","","Prijedor","",28227762,"2024-09-01T05:32:21",3,"NO ERROR",17.68,100,1001.06,0.26,0.31,0.31],
    [4656,363171,"Vazduh","Libelium","0004A30B0021DF70",44.979,16.7091,"","","Prijedor","",28228337,"2024-09-01T06:33:03",3,"NO ERROR",17.84,100,1001.25,0.16,0.21,0.21],
    [4657,363171,"Vazduh","Libelium","0004A30B0021DF70",44.979,16.7091,"","","Prijedor","",28228864,"2024-09-01T07:33:45",3,"NO ERROR",21.23,100,1001.42,0.09,0.17,1.13],
    [4658,363171,"Vazduh","Libelium","0004A30B0021DF70",44.979,16.7091,"","","Prijedor","",28230372,"2024-09-01T10:35:52",3,"NO ERROR",28.29,66.4,1001.21,0.07,0.11,0.13],
    [4659,363171,"Vazduh","Libelium","0004A30B0021DF70",44.979,16.7091,"","","Prijedor","",28230892,"2024-09-01T11:36:34",3,"NO ERROR",30.55,57.2,1000.61,0.11,0.13,0.13],
    [4660,363171,"Vazduh","Libelium","0004A30B0021DF70",44.979,16.7091,"","","Prijedor","",28231512,"2024-09-01T12:37:22",3,"NO ERROR",32.27,50.4,999.8,0.16,0.29,0.38],
    [4661,363171,"Vazduh","Libelium","0004A30B0021DF70",44.979,16.7091,"","","Prijedor","",28240212,"2024-09-02T03:47:53",3,"NO ERROR",18.92,100,998.37,0.35,0.58,0.74],
    [4662,363171,"Vazduh","Libelium","0004A30B0021DF70",44.979,16.7091,"","","Prijedor","",28240753,"2024-09-02T04:48:35",3,"NO ERROR",18.2,100,998.33,0.09,0.1,0.1],
    [4663,363171,"Vazduh","Libelium","0004A30B0021DF70",44.979,16.7091,"","","Prijedor","",28241403,"2024-09-02T05:49:24",3,"NO ERROR",17.5,100,998.42,0.27,0.29,0.29],
    [4664,363171,"Vazduh","Libelium","0004A30B0021DF70",44.979,16.7091,"","","Prijedor","",28242030,"2024-09-02T06:50:06",3,"NO ERROR",17.33,100,998.83,0.31,0.75,0.93],
    [4665,363171,"Vazduh","Libelium","0004A30B0021DF70",44.979,16.7091,"","","Prijedor","",28242624,"2024-09-02T07:50:48",3,"NO ERROR",21.26,100,999.18,0.17,0.26,0.26],
    [4666,363171,"Vazduh","Libelium","0004A30B0021DF70",44.979,16.7091,"","","Prijedor","",28243205,"2024-09-02T08:51:30",3,"NO ERROR",26.23,77.4,999.22,0.38,0.6,0.68],
    [4667,363171,"Vazduh","Libelium","0004A30B0021DF70",44.979,16.7091,"","","Prijedor","",28243728,"2024-09-02T09:52:12",3,"NO ERROR",27.32,68.4,999.33,0.17,0.29,0.37],
    [4668,363171,"Vazduh","Libelium","0004A30B0021DF70",44.979,16.7091,"","","Prijedor","",28244232,"2024-09-02T10:52:54",3,"NO ERROR",28.43,60.6,999.12,0.18,0.21,0.21],
    [4669,363171,"Vazduh","Libelium","0004A30B0021DF70",44.979,16.7091,"","","Prijedor","",28244815,"2024-09-02T11:53:36",3,"NO ERROR",30.31,55.1,998.54,0.4,0.61,0.76],
    [4670,363171,"Vazduh","Libelium","0004A30B0021DF70",44.979,16.7091,"","","Prijedor","",28245363,"2024-09-02T12:54:18",3,"NO ERROR",32.54,44.8,998.01,0.17,0.28,0.28],
    [4671,363171,"Vazduh","Libelium","0004A30B0021DF70",44.979,16.7091,"","","Prijedor","",28245938,"2024-09-02T13:55:00",3,"NO ERROR",34.16,35.5,997.33,0.27,0.4,0.41],
    [4672,363171,"Vazduh","Libelium","0004A30B0021DF70",44.979,16.7091,"","","Prijedor","",28246553,"2024-09-02T14:55:42",3,"NO ERROR",35.48,32.3,996.69,0.15,0.21,0.21],
    [4673,363171,"Vazduh","Libelium","0004A30B0021DF70",44.979,16.7091,"","","Prijedor","",28247136,"2024-09-02T15:56:24",3,"NO ERROR",38.05,31.4,996.3,0.12,0.16,0.16],
    [4674,363171,"Vazduh","Libelium","0004A30B0021DF70",44.979,16.7091,"","","Prijedor","",28247674,"2024-09-02T16:57:07",3,"NO ERROR",37.02,31,996.09,0.31,0.5,0.59],
    [4675,363171,"Vazduh","Libelium","0004A30B0021DF70",44.979,16.7091,"","","Prijedor","",28248236,"2024-09-02T17:57:49",3,"NO ERROR",33.75,33.8,995.95,0.14,0.36,1.38],
    [4676,363171,"Vazduh","Libelium","0004A30B0021DF70",44.979,16.7091,"","","Prijedor","",28248762,"2024-09-02T18:58:31",3,"NO ERROR",31.08,38.8,995.95,0.15,0.3,0.69],
    [4677,363171,"Vazduh","Libelium","0004A30B0021DF70",44.979,16.7091,"","","Prijedor","",28249234,"2024-09-02T19:59:13",3,"NO ERROR",28.15,47.3,996.87,0.23,0.4,0.42],
    [4678,363171,"Vazduh","Libelium","0004A30B0021DF70",44.979,16.7091,"","","Prijedor","",28249803,"2024-09-02T20:59:55",3,"NO ERROR",25.82,57.8,997.42,0.87,1.15,1.2],
    [4679,363171,"Vazduh","Libelium","0004A30B0021DF70",44.979,16.7091,"","","Prijedor","",28250336,"2024-09-02T22:00:37",3,"NO ERROR",23.26,76.6,998.38,0.16,0.21,0.21],
    [4680,363171,"Vazduh","Libelium","0004A30B0021DF70",44.979,16.7091,"","","Prijedor","",28250841,"2024-09-02T23:01:19",3,"NO ERROR",22.64,82.6,998.69,0.16,0.34,0.47],
    [4681,363171,"Vazduh","Libelium","0004A30B0021DF70",44.979,16.7091,"","","Prijedor","",28251586,"2024-09-03T00:02:01",3,"NO ERROR",21.83,76.1,998.6,0.22,0.39,1.59],
    [4682,363171,"Vazduh","Libelium","0004A30B0021DF70",44.979,16.7091,"","","Prijedor","",28252266,"2024-09-03T01:02:43",3,"NO ERROR",20.65,97,998.66,0.13,0.33,0.44],
    [4683,363171,"Vazduh","Libelium","0004A30B0021DF70",44.979,16.7091,"","","Prijedor","",28252832,"2024-09-03T02:03:31",3,"NO ERROR",20.09,100,998.85,0.2,0.24,0.25],
    [4684,363171,"Vazduh","Libelium","0004A30B0021DF70",44.979,16.7091,"","","Prijedor","",28253481,"2024-09-03T03:04:13",3,"NO ERROR",18.68,100,999.33,0.38,0.71,0.86],
    [4685,363171,"Vazduh","Libelium","0004A30B0021DF70",44.979,16.7091,"","","Prijedor","",28254040,"2024-09-03T04:04:55",3,"NO ERROR",18.45,100,999.44,0.16,0.17,0.17],
    [4686,363171,"Vazduh","Libelium","0004A30B0021DF70",44.979,16.7091,"","","Prijedor","",28254623,"2024-09-03T05:05:38",3,"NO ERROR",18.22,100,999.81,0.16,0.21,0.21],
    [4687,363171,"Vazduh","Libelium","0004A30B0021DF70",44.979,16.7091,"","","Prijedor","",28255257,"2024-09-03T06:06:20",3,"NO ERROR",17.35,100,1000.06,0.1,0.13,0.13],
    [4688,363171,"Vazduh","Libelium","0004A30B0021DF70",44.979,16.7091,"","","Prijedor","",28255861,"2024-09-03T07:07:02",3,"NO ERROR",18.04,100,1000.45,0.31,0.4,0.4],
    [4689,363171,"Vazduh","Libelium","0004A30B0021DF70",44.979,16.7091,"","","Prijedor","",28256374,"2024-09-03T08:07:44",3,"NO ERROR",21.29,95.5,1000.61,0.35,0.44,0.44],
    [4690,363171,"Vazduh","Libelium","0004A30B0021DF70",44.979,16.7091,"","","Prijedor","",28256907,"2024-09-03T09:08:26",3,"NO ERROR",25.48,68.7,1000.98,0.29,0.64,1.07],
    [4691,363171,"Vazduh","Libelium","0004A30B0021DF70",44.979,16.7091,"","","Prijedor","",28257353,"2024-09-03T10:09:20",3,"NO ERROR",27.43,62.5,1001.02,0.29,0.44,0.46],
    [4692,363171,"Vazduh","Libelium","0004A30B0021DF70",44.979,16.7091,"","","Prijedor","",28257805,"2024-09-03T11:10:02",3,"NO ERROR",29,55.8,1000.93,0.46,0.6,0.61],
    [4693,363171,"Vazduh","Libelium","0004A30B0021DF70",44.979,16.7091,"","","Prijedor","",28258292,"2024-09-03T12:10:44",3,"NO ERROR",31.13,48.2,1000.38,0.26,0.38,0.39],
    [4694,363171,"Vazduh","Libelium","0004A30B0021DF70",44.979,16.7091,"","","Prijedor","",28258782,"2024-09-03T13:11:26",3,"NO ERROR",33.63,37.5,999.69,0.15,0.19,0.19],
    [4695,363171,"Vazduh","Libelium","0004A30B0021DF70",44.979,16.7091,"","","Prijedor","",28259276,"2024-09-03T14:12:08",3,"NO ERROR",33.89,43.5,999.12,0.26,0.34,0.34],
    [4696,363171,"Vazduh","Libelium","0004A30B0021DF70",44.979,16.7091,"","","Prijedor","",28259792,"2024-09-03T15:12:50",3,"NO ERROR",36.86,36.9,998.51,0.12,0.15,0.16],
    [4697,363171,"Vazduh","Libelium","0004A30B0021DF70",44.979,16.7091,"","","Prijedor","",28260256,"2024-09-03T16:13:33",3,"NO ERROR",36.64,36.6,998.26,0.15,0.28,0.36],
    [4698,363171,"Vazduh","Libelium","0004A30B0021DF70",44.979,16.7091,"","","Prijedor","",28260699,"2024-09-03T17:14:15",3,"NO ERROR",36.53,33.3,998.09,0.29,0.4,0.4],
    [4699,363171,"Vazduh","Libelium","0004A30B0021DF70",44.979,16.7091,"","","Prijedor","",28261183,"2024-09-03T18:14:57",3,"NO ERROR",33.26,37.4,998.34,0.26,0.57,5.09],
    [4700,363171,"Vazduh","Libelium","0004A30B0021DF70",44.979,16.7091,"","","Prijedor","",28261607,"2024-09-03T19:15:39",3,"NO ERROR",30.9,44.3,998.49,0.58,0.98,1.12],
    [4701,363171,"Vazduh","Libelium","0004A30B0021DF70",44.979,16.7091,"","","Prijedor","",28261999,"2024-09-03T20:16:21",3,"NO ERROR",28.77,50.4,999.18,0.54,0.77,0.86],
    [4702,363171,"Vazduh","Libelium","0004A30B0021DF70",44.979,16.7091,"","","Prijedor","",28262537,"2024-09-03T21:17:03",3,"NO ERROR",26.39,63.5,999.72,0.59,1.02,2.33],
    [4703,363171,"Vazduh","Libelium","0004A30B0021DF70",44.979,16.7091,"","","Prijedor","",28263005,"2024-09-03T22:17:45",3,"NO ERROR",24.99,70.1,1000.52,0.33,0.5,0.57],
    [4704,363171,"Vazduh","Libelium","0004A30B0021DF70",44.979,16.7091,"","","Prijedor","",28263444,"2024-09-03T23:18:27",3,"NO ERROR",24.32,72.1,1000.55,0.12,0.18,0.18],
    [4705,363171,"Vazduh","Libelium","0004A30B0021DF70",44.979,16.7091,"","","Prijedor","",28264159,"2024-09-04T00:19:09",3,"NO ERROR",23.29,80.9,1000.49,0.11,0.17,0.18],
    [4706,363171,"Vazduh","Libelium","0004A30B0021DF70",44.979,16.7091,"","","Prijedor","",28264659,"2024-09-04T01:19:51",3,"NO ERROR",21.62,90.7,999.91,0.2,0.24,0.24],
    [4707,363171,"Vazduh","Libelium","0004A30B0021DF70",44.979,16.7091,"","","Prijedor","",28265126,"2024-09-04T02:20:33",3,"NO ERROR",20.33,100,999.75,0.08,0.1,0.1],
    [4708,363171,"Vazduh","Libelium","0004A30B0021DF70",44.979,16.7091,"","","Prijedor","",28265618,"2024-09-04T03:21:16",3,"NO ERROR",19.3,100,999.56,0.25,0.41,0.42],
    [4709,363171,"Vazduh","Libelium","0004A30B0021DF70",44.979,16.7091,"","","Prijedor","",28266091,"2024-09-04T04:21:58",3,"NO ERROR",19.89,100,999.7,0.15,0.23,0.3],
    [4710,363171,"Vazduh","Libelium","0004A30B0021DF70",44.979,16.7091,"","","Prijedor","",28266655,"2024-09-04T05:22:40",3,"NO ERROR",20.62,100,999.65,0.16,0.22,0.22],
    [4711,363171,"Vazduh","Libelium","0004A30B0021DF70",44.979,16.7091,"","","Prijedor","",28267253,"2024-09-04T06:23:22",3,"NO ERROR",20.21,100,999.76,0.2,0.25,0.25],
    [4712,363171,"Vazduh","Libelium","0004A30B0021DF70",44.979,16.7091,"","","Prijedor","",28267757,"2024-09-04T07:24:10",3,"NO ERROR",20.57,100,999.99,0.16,0.2,0.2],
    [4713,363171,"Vazduh","Libelium","0004A30B0021DF70",44.979,16.7091,"","","Prijedor","",28268288,"2024-09-04T08:24:52",3,"NO ERROR",21.52,95.5,1000.25,0.25,0.42,0.45],
    [4714,363171,"Vazduh","Libelium","0004A30B0021DF70",44.979,16.7091,"","","Prijedor","",28268845,"2024-09-04T09:25:34",3,"NO ERROR",27.18,62.8,1000.16,0.19,0.34,0.42],
    [4715,363171,"Vazduh","Libelium","0004A30B0021DF70",44.979,16.7091,"","","Prijedor","",28269301,"2024-09-04T10:26:16",3,"NO ERROR",28.24,56.8,1000.03,0.24,0.33,0.35],
    [4716,363171,"Vazduh","Libelium","0004A30B0021DF70",44.979,16.7091,"","","Prijedor","",28269748,"2024-09-04T11:26:58",3,"NO ERROR",30.96,51,999.49,0.13,0.22,0.23],
    [4717,363171,"Vazduh","Libelium","0004A30B0021DF70",44.979,16.7091,"","","Prijedor","",28270282,"2024-09-04T12:27:40",3,"NO ERROR",31.63,49.2,999.07,0.56,1.09,1.16],
    [4718,363171,"Vazduh","Libelium","0004A30B0021DF70",44.979,16.7091,"","","Prijedor","",28270815,"2024-09-04T13:28:22",3,"NO ERROR",33.34,40.6,998.35,0.18,0.33,1.29],
    [4719,363171,"Vazduh","Libelium","0004A30B0021DF70",44.979,16.7091,"","","Prijedor","",28271317,"2024-09-04T14:29:05",3,"NO ERROR",35.97,40.2,997.3,0.29,0.38,0.39],
    [4720,363171,"Vazduh","Libelium","0004A30B0021DF70",44.979,16.7091,"","","Prijedor","",28271822,"2024-09-04T15:29:47",3,"NO ERROR",35.37,42.3,996.78,0.09,0.27,1.26],
    [4721,363171,"Vazduh","Libelium","0004A30B0021DF70",44.979,16.7091,"","","Prijedor","",28272280,"2024-09-04T16:30:29",3,"NO ERROR",36.02,40,996.17,0.31,0.43,0.43],
    [4722,363171,"Vazduh","Libelium","0004A30B0021DF70",44.979,16.7091,"","","Prijedor","",28272748,"2024-09-04T17:31:11",3,"NO ERROR",32.4,45.3,996.43,0.13,0.24,0.25],
    [4723,363171,"Vazduh","Libelium","0004A30B0021DF70",44.979,16.7091,"","","Prijedor","",28273207,"2024-09-04T18:31:53",3,"NO ERROR",22.67,100,996.68,0.2,0.33,5.43],
    [4724,363171,"Vazduh","Libelium","0004A30B0021DF70",44.979,16.7091,"","","Prijedor","",28273598,"2024-09-04T19:32:35",3,"NO ERROR",22.31,100,996.89,0.33,0.47,0.82],
    [4725,363171,"Vazduh","Libelium","0004A30B0021DF70",44.979,16.7091,"","","Prijedor","",28274012,"2024-09-04T20:33:17",3,"NO ERROR",22.81,100,997.77,0.38,0.59,0.61],
    [4726,363171,"Vazduh","Libelium","0004A30B0021DF70",44.979,16.7091,"","","Prijedor","",28274526,"2024-09-04T21:34:05",3,"NO ERROR",22.33,100,998.05,0.19,0.21,0.21],
    [4727,363171,"Vazduh","Libelium","0004A30B0021DF70",44.979,16.7091,"","","Prijedor","",28274961,"2024-09-04T22:34:47",3,"NO ERROR",21.47,100,997.98,0.72,0.8,0.8],
    [4728,363171,"Vazduh","Libelium","0004A30B0021DF70",44.979,16.7091,"","","Prijedor","",28275423,"2024-09-04T23:35:29",3,"NO ERROR",21.43,100,997.49,0.39,0.59,0.69],
    [4729,363171,"Vazduh","Libelium","0004A30B0021DF70",44.979,16.7091,"","","Prijedor","",28276168,"2024-09-05T00:36:11",3,"NO ERROR",20.74,100,997.43,0.21,0.29,0.3],
    [4730,363171,"Vazduh","Libelium","0004A30B0021DF70",44.979,16.7091,"","","Prijedor","",28276699,"2024-09-05T01:36:53",3,"NO ERROR",20.83,100,997.33,0.58,0.7,0.7],
    [4731,363171,"Vazduh","Libelium","0004A30B0021DF70",44.979,16.7091,"","","Prijedor","",28277231,"2024-09-05T02:37:36",3,"NO ERROR",19.99,100,997.22,0.37,0.53,0.61],
    [4732,363171,"Vazduh","Libelium","0004A30B0021DF70",44.979,16.7091,"","","Prijedor","",28277724,"2024-09-05T03:38:18",3,"NO ERROR",19.27,100,997.06,0.56,0.71,0.71],
    [4733,363171,"Vazduh","Libelium","0004A30B0021DF70",44.979,16.7091,"","","Prijedor","",28278179,"2024-09-05T04:39:00",3,"NO ERROR",18.18,100,996.65,0.27,0.46,0.68],
    [4734,363171,"Vazduh","Libelium","0004A30B0021DF70",44.979,16.7091,"","","Prijedor","",28278735,"2024-09-05T05:39:42",3,"NO ERROR",17.95,100,996.98,0.77,0.97,0.98],
    [4735,363171,"Vazduh","Libelium","0004A30B0021DF70",44.979,16.7091,"","","Prijedor","",28279260,"2024-09-05T06:40:24",3,"NO ERROR",17.19,100,997.49,5.41,27.96,365.87],
    [4736,363171,"Vazduh","Libelium","0004A30B0021DF70",44.979,16.7091,"","","Prijedor","",28279779,"2024-09-05T07:41:06",3,"NO ERROR",18,100,997.7,0.52,0.95,1.87],
    [4737,363171,"Vazduh","Libelium","0004A30B0021DF70",44.979,16.7091,"","","Prijedor","",28280283,"2024-09-05T08:41:48",3,"NO ERROR",20.49,100,997.36,0.28,0.3,0.3],
    [4738,363171,"Vazduh","Libelium","0004A30B0021DF70",44.979,16.7091,"","","Prijedor","",28280763,"2024-09-05T09:42:30",3,"NO ERROR",25.44,89,996.84,0.37,0.46,0.46],
    [4739,363171,"Vazduh","Libelium","0004A30B0021DF70",44.979,16.7091,"","","Prijedor","",28281200,"2024-09-05T10:43:12",3,"NO ERROR",27.4,70.4,996.73,0.21,0.28,0.28],
    [4740,363171,"Vazduh","Libelium","0004A30B0021DF70",44.979,16.7091,"","","Prijedor","",28281660,"2024-09-05T11:43:54",3,"NO ERROR",28.27,65,996.19,0.21,0.26,0.26],
    [4741,363171,"Vazduh","Libelium","0004A30B0021DF70",44.979,16.7091,"","","Prijedor","",28282100,"2024-09-05T12:44:36",3,"NO ERROR",30.59,57.3,995.3,0.29,0.55,0.68],
    [4742,363171,"Vazduh","Libelium","0004A30B0021DF70",44.979,16.7091,"","","Prijedor","",28282600,"2024-09-05T13:45:18",3,"NO ERROR",32.33,54.1,994.5,0.2,0.28,0.35],
    [4743,363171,"Vazduh","Libelium","0004A30B0021DF70",44.979,16.7091,"","","Prijedor","",28283140,"2024-09-05T14:46:01",3,"NO ERROR",33.55,48.1,993.97,0.32,0.38,0.38],
    [4744,363171,"Vazduh","Libelium","0004A30B0021DF70",44.979,16.7091,"","","Prijedor","",28283601,"2024-09-05T15:46:43",3,"NO ERROR",29.61,56.8,994.2,0.24,0.64,2.56],
    [4745,363171,"Vazduh","Libelium","0004A30B0021DF70",44.979,16.7091,"","","Prijedor","",28284067,"2024-09-05T16:47:25",3,"NO ERROR",21.67,100,995.83,0.52,0.74,1.11],
    [4746,363171,"Vazduh","Libelium","0004A30B0021DF70",44.979,16.7091,"","","Prijedor","",28284568,"2024-09-05T17:48:07",3,"NO ERROR",22.8,100,995.43,0.31,0.38,0.38],
    [4747,363171,"Vazduh","Libelium","0004A30B0021DF70",44.979,16.7091,"","","Prijedor","",28285033,"2024-09-05T18:48:49",3,"NO ERROR",22.17,100,995.36,0.51,0.76,0.87],
    [4748,363171,"Vazduh","Libelium","0004A30B0021DF70",44.979,16.7091,"","","Prijedor","",28285485,"2024-09-05T19:49:31",3,"NO ERROR",21.72,100,995.89,0.32,0.44,0.53],
    [4749,363171,"Vazduh","Libelium","0004A30B0021DF70",44.979,16.7091,"","","Prijedor","",28286037,"2024-09-05T20:50:13",3,"NO ERROR",21.69,100,996.43,0.37,0.44,0.44],
    [4750,363171,"Vazduh","Libelium","0004A30B0021DF70",44.979,16.7091,"","","Prijedor","",28286547,"2024-09-05T21:50:55",3,"NO ERROR",21.66,100,996.3,0.37,0.42,0.42],
    [4751,363171,"Vazduh","Libelium","0004A30B0021DF70",44.979,16.7091,"","","Prijedor","",28287071,"2024-09-05T22:51:37",3,"NO ERROR",21.06,100,996.2,0.74,1,1],
    [4752,363171,"Vazduh","Libelium","0004A30B0021DF70",44.979,16.7091,"","","Prijedor","",28287674,"2024-09-05T23:52:19",3,"NO ERROR",20.85,100,995.82,0.8,1.09,1.63],
    [4753,363171,"Vazduh","Libelium","0004A30B0021DF70",44.979,16.7091,"","","Prijedor","",28288509,"2024-09-06T00:53:01",3,"NO ERROR",20.49,100,996.43,0.56,0.7,0.72],
    [4754,363171,"Vazduh","Libelium","0004A30B0021DF70",44.979,16.7091,"","","Prijedor","",28289134,"2024-09-06T01:53:43",3,"NO ERROR",19.39,100,997.22,2.55,2.98,3.07],
    [4755,363171,"Vazduh","Libelium","0004A30B0021DF70",44.979,16.7091,"","","Prijedor","",28289831,"2024-09-06T02:54:25",3,"NO ERROR",19.26,100,997.34,0.48,0.57,0.58],
    [4756,363171,"Vazduh","Libelium","0004A30B0021DF70",44.979,16.7091,"","","Prijedor","",28290417,"2024-09-06T03:55:07",3,"NO ERROR",18.44,100,996.68,0.07,0.09,0.09],
    [4757,363171,"Vazduh","Libelium","0004A30B0021DF70",44.979,16.7091,"","","Prijedor","",28291021,"2024-09-06T04:55:50",3,"NO ERROR",18.12,100,996.51,0.12,0.17,0.19],
    [4758,363171,"Vazduh","Libelium","0004A30B0021DF70",44.979,16.7091,"","","Prijedor","",28291727,"2024-09-06T05:56:32",3,"NO ERROR",17.79,100,996.05,0.15,0.25,0.32],
    [4759,363171,"Vazduh","Libelium","0004A30B0021DF70",44.979,16.7091,"","","Prijedor","",28292303,"2024-09-06T06:57:14",3,"NO ERROR",16.7,100,996.8,1.29,2.25,9.84],
    [4760,363171,"Vazduh","Libelium","0004A30B0021DF70",44.979,16.7091,"","","Prijedor","",28292839,"2024-09-06T07:57:56",3,"NO ERROR",18.88,100,997.03,0.11,0.45,6.93],
    [4761,363171,"Vazduh","Libelium","0004A30B0021DF70",44.979,16.7091,"","","Prijedor","",28293383,"2024-09-06T08:58:38",3,"NO ERROR",21.95,100,997.61,0.04,0.3,6.47],
    [4762,363171,"Vazduh","Libelium","0004A30B0021DF70",44.979,16.7091,"","","Prijedor","",28293847,"2024-09-06T09:59:20",3,"NO ERROR",25.14,95.5,998.03,0.08,0.11,0.11],
    [4763,363171,"Vazduh","Libelium","0004A30B0021DF70",44.979,16.7091,"","","Prijedor","",28294375,"2024-09-06T11:00:02",3,"NO ERROR",24.56,79.7,997.91,0.02,0.02,0.02],
    [4764,363171,"Vazduh","Libelium","0004A30B0021DF70",44.979,16.7091,"","","Prijedor","",28294933,"2024-09-06T12:00:44",3,"NO ERROR",27.43,68,997.98,0.07,0.12,0.12],
    [4765,363171,"Vazduh","Libelium","0004A30B0021DF70",44.979,16.7091,"","","Prijedor","",28295429,"2024-09-06T13:01:26",3,"NO ERROR",28.75,59.5,997.45,0,0,0],
    [4766,363171,"Vazduh","Libelium","0004A30B0021DF70",44.979,16.7091,"","","Prijedor","",28296005,"2024-09-06T14:02:08",3,"NO ERROR",30.67,54,997.17,0.05,0.08,0.08],
    [4767,363171,"Vazduh","Libelium","0004A30B0021DF70",44.979,16.7091,"","","Prijedor","",28296602,"2024-09-06T15:02:56",3,"NO ERROR",30.61,55.2,996.9,0.14,0.21,0.21],
    [4768,363171,"Vazduh","Libelium","0004A30B0021DF70",44.979,16.7091,"","","Prijedor","",28297093,"2024-09-06T16:03:38",3,"NO ERROR",29.67,54.7,997.08,0.18,0.28,0.37],
    [4769,363171,"Vazduh","Libelium","0004A30B0021DF70",44.979,16.7091,"","","Prijedor","",28297608,"2024-09-06T17:04:21",3,"NO ERROR",29.82,52.6,997.25,0.07,0.08,0.08],
    [4770,363171,"Vazduh","Libelium","0004A30B0021DF70",44.979,16.7091,"","","Prijedor","",28298133,"2024-09-06T18:05:03",3,"NO ERROR",28.68,57.5,997.66,0.11,0.26,0.29],
    [4771,363171,"Vazduh","Libelium","0004A30B0021DF70",44.979,16.7091,"","","Prijedor","",28298712,"2024-09-06T19:05:57",3,"NO ERROR",26.63,69.4,998.17,0.06,0.07,0.07],
    [4772,363171,"Vazduh","Libelium","0004A30B0021DF70",44.979,16.7091,"","","Prijedor","",28299172,"2024-09-06T20:06:39",3,"NO ERROR",25.26,76.7,998.79,0.14,0.2,0.2],
    [4773,363171,"Vazduh","Libelium","0004A30B0021DF70",44.979,16.7091,"","","Prijedor","",28299688,"2024-09-06T21:07:21",3,"NO ERROR",24.78,85.5,999.34,0.07,0.07,0.07],
    [4774,363171,"Vazduh","Libelium","0004A30B0021DF70",44.979,16.7091,"","","Prijedor","",28300207,"2024-09-06T22:08:03",3,"NO ERROR",23.64,100,999.54,0.39,0.6,0.61],
    [4775,363171,"Vazduh","Libelium","0004A30B0021DF70",44.979,16.7091,"","","Prijedor","",28300744,"2024-09-06T23:08:45",3,"NO ERROR",22.76,100,999.86,0.09,0.12,0.12],
    [4776,363171,"Vazduh","Libelium","0004A30B0021DF70",44.979,16.7091,"","","Prijedor","",28301523,"2024-09-07T00:09:27",3,"NO ERROR",21.9,100,999.71,0.34,0.51,0.52],
    [4777,363171,"Vazduh","Libelium","0004A30B0021DF70",44.979,16.7091,"","","Prijedor","",28302183,"2024-09-07T01:10:09",3,"NO ERROR",20.68,100,999.98,0.15,0.26,0.27],
    [4778,363171,"Vazduh","Libelium","0004A30B0021DF70",44.979,16.7091,"","","Prijedor","",28302787,"2024-09-07T02:10:51",3,"NO ERROR",19.45,100,1000.3,0.22,0.26,0.26],
    [4779,363171,"Vazduh","Libelium","0004A30B0021DF70",44.979,16.7091,"","","Prijedor","",28303400,"2024-09-07T03:11:40",3,"NO ERROR",19.11,100,1000.48,0.23,0.42,0.54],
    [4780,363171,"Vazduh","Libelium","0004A30B0021DF70",44.979,16.7091,"","","Prijedor","",28303851,"2024-09-07T04:12:28",3,"NO ERROR",18.03,100,1000.64,0.65,0.94,0.97],
    [4781,363171,"Vazduh","Libelium","0004A30B0021DF70",44.979,16.7091,"","","Prijedor","",28304381,"2024-09-07T05:13:10",3,"NO ERROR",17.51,100,1000.91,0.27,0.36,0.37],
    [4782,363171,"Vazduh","Libelium","0004A30B0021DF70",44.979,16.7091,"","","Prijedor","",28304991,"2024-09-07T06:13:52",3,"NO ERROR",17.33,100,1001.28,1.16,4.56,47.58],
    [4783,363171,"Vazduh","Libelium","0004A30B0021DF70",44.979,16.7091,"","","Prijedor","",28305488,"2024-09-07T07:14:34",3,"NO ERROR",17.82,100,1001.68,0.03,0.19,2.49],
    [4784,363171,"Vazduh","Libelium","0004A30B0021DF70",44.979,16.7091,"","","Prijedor","",28305957,"2024-09-07T08:15:16",3,"NO ERROR",19.96,100,1001.85,0.03,0.03,0.03],
    [4785,363171,"Vazduh","Libelium","0004A30B0021DF70",44.979,16.7091,"","","Prijedor","",28306503,"2024-09-07T09:15:58",3,"NO ERROR",23.88,100,1002.22,0.08,0.13,0.14],
    [4786,363171,"Vazduh","Libelium","0004A30B0021DF70",44.979,16.7091,"","","Prijedor","",28306996,"2024-09-07T10:16:40",3,"NO ERROR",25.32,97,1002.22,0.1,0.13,0.13],
    [4787,363171,"Vazduh","Libelium","0004A30B0021DF70",44.979,16.7091,"","","Prijedor","",28307462,"2024-09-07T11:17:22",3,"NO ERROR",27.49,80.3,1001.8,0.12,0.15,0.15],
    [4788,363171,"Vazduh","Libelium","0004A30B0021DF70",44.979,16.7091,"","","Prijedor","",28307971,"2024-09-07T12:18:04",3,"NO ERROR",29.56,56.9,1001.41,0.13,0.2,0.21],
    [4789,363171,"Vazduh","Libelium","0004A30B0021DF70",44.979,16.7091,"","","Prijedor","",28308473,"2024-09-07T13:18:46",3,"NO ERROR",30.48,48,1000.99,0.06,0.11,0.11],
    [4790,363171,"Vazduh","Libelium","0004A30B0021DF70",44.979,16.7091,"","","Prijedor","",28308998,"2024-09-07T14:19:34",3,"NO ERROR",32.86,41.6,1000.52,0.1,0.13,0.13],
    [4791,363171,"Vazduh","Libelium","0004A30B0021DF70",44.979,16.7091,"","","Prijedor","",28309537,"2024-09-07T15:20:16",3,"NO ERROR",33.35,39.7,1000.21,0.1,0.11,0.11],
    [4792,363171,"Vazduh","Libelium","0004A30B0021DF70",44.979,16.7091,"","","Prijedor","",28310006,"2024-09-07T16:20:58",3,"NO ERROR",35.31,35.8,999.8,0.07,0.11,0.13],
    [4793,363171,"Vazduh","Libelium","0004A30B0021DF70",44.979,16.7091,"","","Prijedor","",28310478,"2024-09-07T17:21:41",3,"NO ERROR",33.31,37.4,999.62,0.03,0.03,0.03],
    [4794,363171,"Vazduh","Libelium","0004A30B0021DF70",44.979,16.7091,"","","Prijedor","",28311003,"2024-09-07T18:22:23",3,"NO ERROR",29.92,43.9,999.55,0.05,0.05,0.05],
    [4795,363171,"Vazduh","Libelium","0004A30B0021DF70",44.979,16.7091,"","","Prijedor","",28311441,"2024-09-07T19:23:05",3,"NO ERROR",27.82,51.5,999.62,0.24,0.32,0.32],
    [4796,363171,"Vazduh","Libelium","0004A30B0021DF70",44.979,16.7091,"","","Prijedor","",28311868,"2024-09-07T20:23:53",3,"NO ERROR",25.07,70.8,1000.13,0.31,0.67,0.82],
    [4797,363171,"Vazduh","Libelium","0004A30B0021DF70",44.979,16.7091,"","","Prijedor","",28312398,"2024-09-07T21:24:35",3,"NO ERROR",22.86,86.8,1000.42,0.21,0.26,0.26],
    [4798,363171,"Vazduh","Libelium","0004A30B0021DF70",44.979,16.7091,"","","Prijedor","",28312883,"2024-09-07T22:25:17",3,"NO ERROR",21.21,100,1000.49,0.26,0.48,0.62],
    [4799,363171,"Vazduh","Libelium","0004A30B0021DF70",44.979,16.7091,"","","Prijedor","",28313345,"2024-09-07T23:25:59",3,"NO ERROR",20.19,100,1000.57,0.19,0.38,0.46],
    [4800,363171,"Vazduh","Libelium","0004A30B0021DF70",44.979,16.7091,"","","Prijedor","",28314148,"2024-09-08T00:26:41",3,"NO ERROR",19.31,100,1000.45,0.1,0.17,0.17],
    [4801,363171,"Vazduh","Libelium","0004A30B0021DF70",44.979,16.7091,"","","Prijedor","",28314785,"2024-09-08T01:27:29",3,"NO ERROR",18.38,100,1000.46,0.06,0.08,0.09],
    [4802,363171,"Vazduh","Libelium","0004A30B0021DF70",44.979,16.7091,"","","Prijedor","",28315265,"2024-09-08T02:28:11",3,"NO ERROR",17.72,100,1000.42,0.12,0.16,0.16],
    [4803,363171,"Vazduh","Libelium","0004A30B0021DF70",44.979,16.7091,"","","Prijedor","",28315781,"2024-09-08T03:28:53",3,"NO ERROR",17.19,100,1000.18,0.39,0.56,0.59],
    [4804,363171,"Vazduh","Libelium","0004A30B0021DF70",44.979,16.7091,"","","Prijedor","",28316232,"2024-09-08T04:29:36",3,"NO ERROR",17.3,100,1000.15,0.14,0.19,0.19],
    [4805,363171,"Vazduh","Libelium","0004A30B0021DF70",44.979,16.7091,"","","Prijedor","",28316780,"2024-09-08T05:30:18",3,"NO ERROR",16.29,100,999.49,0.12,0.15,0.15],
    [4806,363171,"Vazduh","Libelium","0004A30B0021DF70",44.979,16.7091,"","","Prijedor","",28317350,"2024-09-08T06:31:00",3,"NO ERROR",16.76,100,999.59,0.13,0.14,0.14],
    [4807,363171,"Vazduh","Libelium","0004A30B0021DF70",44.979,16.7091,"","","Prijedor","",28317890,"2024-09-08T07:31:42",3,"NO ERROR",18.46,100,1000.08,0.11,0.18,0.18],
    [4808,363171,"Vazduh","Libelium","0004A30B0021DF70",44.979,16.7091,"","","Prijedor","",28318445,"2024-09-08T08:32:24",3,"NO ERROR",22.36,91.2,999.58,0.1,0.15,0.15],
    [4809,363171,"Vazduh","Libelium","0004A30B0021DF70",44.979,16.7091,"","","Prijedor","",28318993,"2024-09-08T09:33:06",3,"NO ERROR",24.83,77.7,999.5,0.05,0.05,0.05],
    [4810,363171,"Vazduh","Libelium","0004A30B0021DF70",44.979,16.7091,"","","Prijedor","",28319433,"2024-09-08T10:33:48",3,"NO ERROR",27.77,60.5,999.11,0.15,0.17,0.17],
    [4811,363171,"Vazduh","Libelium","0004A30B0021DF70",44.979,16.7091,"","","Prijedor","",28319975,"2024-09-08T11:34:30",3,"NO ERROR",29.79,52.1,998.46,0.19,0.24,0.26],
    [4812,363171,"Vazduh","Libelium","0004A30B0021DF70",44.979,16.7091,"","","Prijedor","",28320551,"2024-09-08T12:35:12",3,"NO ERROR",32.25,45.9,997.51,0.11,0.14,0.14],
    [4813,363171,"Vazduh","Libelium","0004A30B0021DF70",44.979,16.7091,"","","Prijedor","",28321101,"2024-09-08T13:35:54",3,"NO ERROR",33.22,44,997.07,0.66,0.88,0.89],
    [4814,363171,"Vazduh","Libelium","0004A30B0021DF70",44.979,16.7091,"","","Prijedor","",28321659,"2024-09-08T14:36:36",3,"NO ERROR",35.16,41.9,996.22,0.77,0.98,0.99],
    [4815,363171,"Vazduh","Libelium","0004A30B0021DF70",44.979,16.7091,"","","Prijedor","",28322205,"2024-09-08T15:37:19",3,"NO ERROR",35.73,40.9,995.84,0.45,0.72,0.75],
    [4816,363171,"Vazduh","Libelium","0004A30B0021DF70",44.979,16.7091,"","","Prijedor","",28322707,"2024-09-08T16:38:01",3,"NO ERROR",33.53,44.7,995.52,0.55,0.78,0.79],
    [4817,363171,"Vazduh","Libelium","0004A30B0021DF70",44.979,16.7091,"","","Prijedor","",28323239,"2024-09-08T17:38:43",3,"NO ERROR",32.37,48.8,994.62,0.55,0.94,1.06],
    [4818,363171,"Vazduh","Libelium","0004A30B0021DF70",44.979,16.7091,"","","Prijedor","",28323736,"2024-09-08T18:39:25",3,"NO ERROR",30.47,57.1,994.77,0.77,1.15,2.37],
    [4819,363171,"Vazduh","Libelium","0004A30B0021DF70",44.979,16.7091,"","","Prijedor","",28324188,"2024-09-08T19:40:07",3,"NO ERROR",28.42,72.4,994.73,0.71,1.01,1.03],
    [4820,363171,"Vazduh","Libelium","0004A30B0021DF70",44.979,16.7091,"","","Prijedor","",28324701,"2024-09-08T20:40:49",3,"NO ERROR",27.11,89,994.9,0.75,0.94,0.95],
    [4821,363171,"Vazduh","Libelium","0004A30B0021DF70",44.979,16.7091,"","","Prijedor","",28325776,"2024-09-08T22:42:13",3,"NO ERROR",24.14,100,993.53,0.43,0.62,0.84],
    [4822,363171,"Vazduh","Libelium","0004A30B0021DF70",44.979,16.7091,"","","Prijedor","",28326329,"2024-09-08T23:42:55",3,"NO ERROR",24.35,100,992.94,0.52,0.71,0.72],
    [4823,363171,"Vazduh","Libelium","0004A30B0021DF70",44.979,16.7091,"","","Prijedor","",28327182,"2024-09-09T00:43:37",3,"NO ERROR",23.94,100,991.91,0.81,1.1,1.12],
    [4824,363171,"Vazduh","Libelium","0004A30B0021DF70",44.979,16.7091,"","","Prijedor","",28327793,"2024-09-09T01:44:19",3,"NO ERROR",23.33,100,990.95,0.63,0.95,0.96],
    [4825,363171,"Vazduh","Libelium","0004A30B0021DF70",44.979,16.7091,"","","Prijedor","",28328383,"2024-09-09T02:45:02",3,"NO ERROR",23.12,100,989.84,0.55,0.81,0.91],
    [4826,363171,"Vazduh","Libelium","0004A30B0021DF70",44.979,16.7091,"","","Prijedor","",28328863,"2024-09-09T03:45:44",3,"NO ERROR",22.68,100,989.03,0.45,0.84,1.02],
    [4827,363171,"Vazduh","Libelium","0004A30B0021DF70",44.979,16.7091,"","","Prijedor","",28329361,"2024-09-09T04:46:26",3,"NO ERROR",21.82,100,989.28,0.5,0.57,0.57],
    [4828,363171,"Vazduh","Libelium","0004A30B0021DF70",44.979,16.7091,"","","Prijedor","",28329993,"2024-09-09T05:47:14",3,"NO ERROR",21.78,100,988.95,0.71,1.06,1.08],
    [4829,363171,"Vazduh","Libelium","0004A30B0021DF70",44.979,16.7091,"","","Prijedor","",28330585,"2024-09-09T06:47:56",3,"NO ERROR",21.44,100,990.45,0.87,1.23,1.33],
    [4830,363171,"Vazduh","Libelium","0004A30B0021DF70",44.979,16.7091,"","","Prijedor","",28331201,"2024-09-09T07:48:38",3,"NO ERROR",21.7,100,989.47,0.99,1.25,1.25],
    [4831,363171,"Vazduh","Libelium","0004A30B0021DF70",44.979,16.7091,"","","Prijedor","",28331839,"2024-09-09T08:49:20",3,"NO ERROR",22.39,100,987.52,0.94,1.18,1.19],
    [4832,363171,"Vazduh","Libelium","0004A30B0021DF70",44.979,16.7091,"","","Prijedor","",28332354,"2024-09-09T09:50:02",3,"NO ERROR",22.75,100,987.57,0.7,0.95,0.96],
    [4833,363171,"Vazduh","Libelium","0004A30B0021DF70",44.979,16.7091,"","","Prijedor","",28332853,"2024-09-09T10:50:50",3,"NO ERROR",24.09,100,986.83,0.5,0.76,1.24],
    [4834,363171,"Vazduh","Libelium","0004A30B0021DF70",44.979,16.7091,"","","Prijedor","",28333409,"2024-09-09T11:51:32",3,"NO ERROR",25.17,100,986.55,0.55,0.87,0.91],
    [4835,363171,"Vazduh","Libelium","0004A30B0021DF70",44.979,16.7091,"","","Prijedor","",28333936,"2024-09-09T12:52:14",3,"NO ERROR",22.97,100,987.01,0.54,0.7,0.71],
    [4836,363171,"Vazduh","Libelium","0004A30B0021DF70",44.979,16.7091,"","","Prijedor","",28334539,"2024-09-09T13:52:56",3,"NO ERROR",24.56,100,986.3,0.54,0.66,0.66],
    [4837,363171,"Vazduh","Libelium","0004A30B0021DF70",44.979,16.7091,"","","Prijedor","",28335178,"2024-09-09T14:53:38",3,"NO ERROR",24.58,100,986.73,0.34,0.42,0.43],
    [4838,363171,"Vazduh","Libelium","0004A30B0021DF70",44.979,16.7091,"","","Prijedor","",28335756,"2024-09-09T15:54:27",3,"NO ERROR",20.42,100,987.54,0.51,0.61,0.61],
    [4839,363171,"Vazduh","Libelium","0004A30B0021DF70",44.979,16.7091,"","","Prijedor","",28336244,"2024-09-09T16:55:09",3,"NO ERROR",20.51,100,987.02,0.52,0.69,0.7],
    [4840,363171,"Vazduh","Libelium","0004A30B0021DF70",44.979,16.7091,"","","Prijedor","",28336770,"2024-09-09T17:55:51",3,"NO ERROR",22.06,100,987.15,0.22,0.28,0.28],
    [4841,363171,"Vazduh","Libelium","0004A30B0021DF70",44.979,16.7091,"","","Prijedor","",28337270,"2024-09-09T18:56:33",3,"NO ERROR",21.44,100,987.79,0.25,0.29,0.29],
    [4842,363171,"Vazduh","Libelium","0004A30B0021DF70",44.979,16.7091,"","","Prijedor","",28337740,"2024-09-09T19:57:21",3,"NO ERROR",17.26,100,988.97,0.07,0.08,0.08],
    [4843,363171,"Vazduh","Libelium","0004A30B0021DF70",44.979,16.7091,"","","Prijedor","",28338269,"2024-09-09T20:58:03",3,"NO ERROR",16.44,100,990.34,0,0,0],
    [4844,363171,"Vazduh","Libelium","0004A30B0021DF70",44.979,16.7091,"","","Prijedor","",28338765,"2024-09-09T21:58:45",3,"NO ERROR",16.07,100,991.73,0.02,0.06,0.07],
    [4845,363171,"Vazduh","Libelium","0004A30B0021DF70",44.979,16.7091,"","","Prijedor","",28339228,"2024-09-09T22:59:27",3,"NO ERROR",15.49,100,992.04,0.15,0.24,0.26],
    [4846,363171,"Vazduh","Libelium","0004A30B0021DF70",44.979,16.7091,"","","Prijedor","",28339917,"2024-09-10T00:00:09",3,"NO ERROR",15.62,100,992.36,0.08,0.12,0.13],
    [4847,363171,"Vazduh","Libelium","0004A30B0021DF70",44.979,16.7091,"","","Prijedor","",28340509,"2024-09-10T01:00:51",3,"NO ERROR",15.82,100,993.16,0.19,0.39,0.54],
    [4848,363171,"Vazduh","Libelium","0004A30B0021DF70",44.979,16.7091,"","","Prijedor","",28340975,"2024-09-10T02:01:33",3,"NO ERROR",16.06,100,992.97,0.05,0.06,0.06],
    [4849,363171,"Vazduh","Libelium","0004A30B0021DF70",44.979,16.7091,"","","Prijedor","",28341495,"2024-09-10T03:02:21",3,"NO ERROR",15.94,100,993.44,0.14,0.23,0.24],
    [4850,363171,"Vazduh","Libelium","0004A30B0021DF70",44.979,16.7091,"","","Prijedor","",28341908,"2024-09-10T04:03:03",3,"NO ERROR",15.82,100,993.46,0.05,0.09,0.09],
    [4851,363171,"Vazduh","Libelium","0004A30B0021DF70",44.979,16.7091,"","","Prijedor","",28342373,"2024-09-10T05:03:45",3,"NO ERROR",15.81,100,993.81,0.05,0.08,0.08],
    [4852,363171,"Vazduh","Libelium","0004A30B0021DF70",44.979,16.7091,"","","Prijedor","",28342916,"2024-09-10T06:04:27",3,"NO ERROR",15.91,100,994.07,0.15,0.27,0.28],
    [4853,363171,"Vazduh","Libelium","0004A30B0021DF70",44.979,16.7091,"","","Prijedor","",28343405,"2024-09-10T07:05:22",3,"NO ERROR",16.08,100,994.56,0.11,0.26,0.3],
    [4854,363171,"Vazduh","Libelium","0004A30B0021DF70",44.979,16.7091,"","","Prijedor","",28343885,"2024-09-10T08:06:04",3,"NO ERROR",16.7,100,994.91,0.06,0.12,0.13],
    [4855,363171,"Vazduh","Libelium","0004A30B0021DF70",44.979,16.7091,"","","Prijedor","",28344410,"2024-09-10T09:06:46",3,"NO ERROR",19.59,100,995.31,0.2,0.26,0.26],
    [4856,363171,"Vazduh","Libelium","0004A30B0021DF70",44.979,16.7091,"","","Prijedor","",28344894,"2024-09-10T10:07:28",3,"NO ERROR",21.54,100,995.28,0.05,0.08,0.08],
    [4857,363171,"Vazduh","Libelium","0004A30B0021DF70",44.979,16.7091,"","","Prijedor","",28345429,"2024-09-10T11:08:10",3,"NO ERROR",21.96,84.4,995.03,0.01,0.03,0.03],
    [4858,363171,"Vazduh","Libelium","0004A30B0021DF70",44.979,16.7091,"","","Prijedor","",28345902,"2024-09-10T12:08:52",3,"NO ERROR",24.25,67.5,994.81,0.05,0.09,0.09],
    [4859,363171,"Vazduh","Libelium","0004A30B0021DF70",44.979,16.7091,"","","Prijedor","",28346370,"2024-09-10T13:09:34",3,"NO ERROR",25.31,61.5,994.56,0,0,0],
    [4860,363171,"Vazduh","Libelium","0004A30B0021DF70",44.979,16.7091,"","","Prijedor","",28346842,"2024-09-10T14:10:16",3,"NO ERROR",25.94,56.9,994.41,0,0,0],
    [4861,363171,"Vazduh","Libelium","0004A30B0021DF70",44.979,16.7091,"","","Prijedor","",28347366,"2024-09-10T15:10:58",3,"NO ERROR",26.49,52.3,994.15,0.03,0.03,0.03],
    [4862,363171,"Vazduh","Libelium","0004A30B0021DF70",44.979,16.7091,"","","Prijedor","",28347812,"2024-09-10T16:11:40",3,"NO ERROR",26.56,52.6,993.97,0.1,0.16,0.17],
    [4863,363171,"Vazduh","Libelium","0004A30B0021DF70",44.979,16.7091,"","","Prijedor","",28348295,"2024-09-10T17:12:22",3,"NO ERROR",27.37,50.9,994.13,0.02,0.02,0.02],
    [4864,363171,"Vazduh","Libelium","0004A30B0021DF70",44.979,16.7091,"","","Prijedor","",28348806,"2024-09-10T18:13:04",3,"NO ERROR",24.23,57.2,994.26,0.02,0.02,0.02],
    [4865,363171,"Vazduh","Libelium","0004A30B0021DF70",44.979,16.7091,"","","Prijedor","",28349284,"2024-09-10T19:13:47",3,"NO ERROR",22.41,65.8,994.28,0.03,0.05,0.05],
    [4866,363171,"Vazduh","Libelium","0004A30B0021DF70",44.979,16.7091,"","","Prijedor","",28349717,"2024-09-10T20:14:29",3,"NO ERROR",20.28,87.2,994.97,0.05,0.08,0.08],
    [4867,363171,"Vazduh","Libelium","0004A30B0021DF70",44.979,16.7091,"","","Prijedor","",28350238,"2024-09-10T21:15:11",3,"NO ERROR",18.18,100,995.56,0.18,0.2,0.2],
    [4868,363171,"Vazduh","Libelium","0004A30B0021DF70",44.979,16.7091,"","","Prijedor","",28350764,"2024-09-10T22:15:53",3,"NO ERROR",16.86,100,995.89,0.31,0.4,0.4],
    [4869,363171,"Vazduh","Libelium","0004A30B0021DF70",44.979,16.7091,"","","Prijedor","",28352096,"2024-09-11T00:17:29",3,"NO ERROR",15.43,100,996.27,0.05,0.08,0.08],
    [4870,363171,"Vazduh","Libelium","0004A30B0021DF70",44.979,16.7091,"","","Prijedor","",28352695,"2024-09-11T01:18:11",3,"NO ERROR",14.72,100,996.13,0.07,0.15,0.16],
    [4871,363171,"Vazduh","Libelium","0004A30B0021DF70",44.979,16.7091,"","","Prijedor","",28353147,"2024-09-11T02:18:53",3,"NO ERROR",14.35,100,996.16,0.1,0.21,0.22],
    [4872,363171,"Vazduh","Libelium","0004A30B0021DF70",44.979,16.7091,"","","Prijedor","",28353686,"2024-09-11T03:19:35",3,"NO ERROR",13.72,100,995.91,0.03,0.03,0.03],
    [4873,363171,"Vazduh","Libelium","0004A30B0021DF70",44.979,16.7091,"","","Prijedor","",28354188,"2024-09-11T04:20:17",3,"NO ERROR",13.25,100,996.06,0.05,0.08,0.08],
    [4874,363171,"Vazduh","Libelium","0004A30B0021DF70",44.979,16.7091,"","","Prijedor","",28354710,"2024-09-11T05:20:59",3,"NO ERROR",12.63,100,995.89,0.06,0.13,0.14],
    [4875,363171,"Vazduh","Libelium","0004A30B0021DF70",44.979,16.7091,"","","Prijedor","",28355285,"2024-09-11T06:21:41",3,"NO ERROR",12.48,100,996.17,0.19,0.26,0.26],
    [4876,363171,"Vazduh","Libelium","0004A30B0021DF70",44.979,16.7091,"","","Prijedor","",28355779,"2024-09-11T07:22:23",3,"NO ERROR",16,100,996.42,0.07,0.08,0.08],
    [4877,363171,"Vazduh","Libelium","0004A30B0021DF70",44.979,16.7091,"","","Prijedor","",28356280,"2024-09-11T08:23:06",3,"NO ERROR",20.32,96.8,996.37,0.03,0.04,0.04],
    [4878,363171,"Vazduh","Libelium","0004A30B0021DF70",44.979,16.7091,"","","Prijedor","",28356776,"2024-09-11T09:23:48",3,"NO ERROR",23.64,77.4,996.33,0.02,0.02,0.02],
    [4879,363171,"Vazduh","Libelium","0004A30B0021DF70",44.979,16.7091,"","","Prijedor","",28357224,"2024-09-11T10:24:30",3,"NO ERROR",24.48,60.9,996.02,0.03,0.06,0.07],
    [4880,363171,"Vazduh","Libelium","0004A30B0021DF70",44.979,16.7091,"","","Prijedor","",28366747,"2024-09-12T03:36:43",3,"NO ERROR",14.73,100,991.73,0.05,0.05,0.05],
    [4881,363171,"Vazduh","Libelium","0004A30B0021DF70",44.979,16.7091,"","","Prijedor","",28367299,"2024-09-12T04:37:31",3,"NO ERROR",13.58,100,991.7,0.03,0.06,0.06],
    [4882,363171,"Vazduh","Libelium","0004A30B0021DF70",44.979,16.7091,"","","Prijedor","",28367979,"2024-09-12T05:38:13",3,"NO ERROR",13.27,100,991.57,0.16,0.21,0.21],
    [4883,363171,"Vazduh","Libelium","0004A30B0021DF70",44.979,16.7091,"","","Prijedor","",28368594,"2024-09-12T06:38:55",3,"NO ERROR",13.25,100,991.85,0.12,0.26,0.29],
    [4884,363171,"Vazduh","Libelium","0004A30B0021DF70",44.979,16.7091,"","","Prijedor","",28369168,"2024-09-12T07:39:37",3,"NO ERROR",17.53,100,991.67,0.17,0.19,0.19],
    [4885,363171,"Vazduh","Libelium","0004A30B0021DF70",44.979,16.7091,"","","Prijedor","",28369791,"2024-09-12T08:40:19",3,"NO ERROR",19.3,93.4,991.47,0.27,0.5,0.53],
    [4886,363171,"Vazduh","Libelium","0004A30B0021DF70",44.979,16.7091,"","","Prijedor","",28370349,"2024-09-12T09:41:01",3,"NO ERROR",20.97,81,991.71,0.13,0.17,0.17],
    [4887,363171,"Vazduh","Libelium","0004A30B0021DF70",44.979,16.7091,"","","Prijedor","",28370887,"2024-09-12T10:41:50",3,"NO ERROR",19.92,95.4,992.01,0.05,0.06,0.06],
    [4888,363171,"Vazduh","Libelium","0004A30B0021DF70",44.979,16.7091,"","","Prijedor","",28371455,"2024-09-12T11:42:32",3,"NO ERROR",19.79,100,991.46,0.18,0.23,0.23],
    [4889,363171,"Vazduh","Libelium","0004A30B0021DF70",44.979,16.7091,"","","Prijedor","",28371996,"2024-09-12T12:43:14",3,"NO ERROR",19.13,100,991.09,0.14,0.22,0.22],
    [4890,363171,"Vazduh","Libelium","0004A30B0021DF70",44.979,16.7091,"","","Prijedor","",28372605,"2024-09-12T13:44:02",3,"NO ERROR",20.28,100,990.73,0.09,0.14,0.15],
    [4891,363171,"Vazduh","Libelium","0004A30B0021DF70",44.979,16.7091,"","","Prijedor","",28373235,"2024-09-12T14:44:44",3,"NO ERROR",22.04,100,989.91,0.17,0.22,0.23],
    [4892,363171,"Vazduh","Libelium","0004A30B0021DF70",44.979,16.7091,"","","Prijedor","",28373859,"2024-09-12T15:45:26",3,"NO ERROR",23.67,91.8,989.87,0.06,0.07,0.07],
    [4893,363171,"Vazduh","Libelium","0004A30B0021DF70",44.979,16.7091,"","","Prijedor","",28374498,"2024-09-12T16:46:08",3,"NO ERROR",23.07,94,989.54,0.15,0.19,0.19],
    [4894,363171,"Vazduh","Libelium","0004A30B0021DF70",44.979,16.7091,"","","Prijedor","",28375139,"2024-09-12T17:46:50",3,"NO ERROR",20.68,100,989.68,0.08,0.17,0.18],
    [4895,363171,"Vazduh","Libelium","0004A30B0021DF70",44.979,16.7091,"","","Prijedor","",28375743,"2024-09-12T18:47:32",3,"NO ERROR",17.31,100,991.3,0.16,0.29,0.38],
    [4896,363171,"Vazduh","Libelium","0004A30B0021DF70",44.979,16.7091,"","","Prijedor","",28376238,"2024-09-12T19:48:14",3,"NO ERROR",13.31,100,991.87,0.18,0.19,0.19],
    [4897,363171,"Vazduh","Libelium","0004A30B0021DF70",44.979,16.7091,"","","Prijedor","",28376813,"2024-09-12T20:48:56",3,"NO ERROR",12.47,100,991.08,0.08,0.09,0.09],
    [4898,363171,"Vazduh","Libelium","0004A30B0021DF70",44.979,16.7091,"","","Prijedor","",28377413,"2024-09-12T21:49:38",3,"NO ERROR",12.24,100,991.61,0.04,0.05,0.05],
    [4899,363171,"Vazduh","Libelium","0004A30B0021DF70",44.979,16.7091,"","","Prijedor","",28377984,"2024-09-12T22:50:21",3,"NO ERROR",11.3,100,992.4,0.11,0.53,0.9],
    [4900,363171,"Vazduh","Libelium","0004A30B0021DF70",44.979,16.7091,"","","Prijedor","",28378603,"2024-09-12T23:51:03",3,"NO ERROR",10.63,100,991.9,0,0,0],
    [4901,363171,"Vazduh","Libelium","0004A30B0021DF70",44.979,16.7091,"","","Prijedor","",28379345,"2024-09-13T00:51:45",3,"NO ERROR",10.65,100,991.55,0.03,0.03,0.03],
    [4902,363171,"Vazduh","Libelium","0004A30B0021DF70",44.979,16.7091,"","","Prijedor","",28379838,"2024-09-13T01:52:27",3,"NO ERROR",10.52,100,990.66,0.02,0.02,0.02],
    [4903,363171,"Vazduh","Libelium","0004A30B0021DF70",44.979,16.7091,"","","Prijedor","",28380412,"2024-09-13T02:53:09",3,"NO ERROR",10.08,100,990.71,0.07,0.09,0.09],
    [4904,363171,"Vazduh","Libelium","0004A30B0021DF70",44.979,16.7091,"","","Prijedor","",28380922,"2024-09-13T03:53:51",3,"NO ERROR",9.64,100,990.12,0.07,0.08,0.08],
    [4905,363171,"Vazduh","Libelium","0004A30B0021DF70",44.979,16.7091,"","","Prijedor","",28381407,"2024-09-13T04:54:33",3,"NO ERROR",9.31,100,989.44,0.14,0.15,0.15],
    [4906,363171,"Vazduh","Libelium","0004A30B0021DF70",44.979,16.7091,"","","Prijedor","",28382003,"2024-09-13T05:55:15",3,"NO ERROR",8.83,100,989.1,0,0,0],
    [4907,363171,"Vazduh","Libelium","0004A30B0021DF70",44.979,16.7091,"","","Prijedor","",28382601,"2024-09-13T06:55:57",3,"NO ERROR",8.77,100,991.18,0.01,0.18,2.85],
    [4908,363171,"Vazduh","Libelium","0004A30B0021DF70",44.979,16.7091,"","","Prijedor","",28383122,"2024-09-13T07:56:39",3,"NO ERROR",8.51,100,990.01,0.04,0.07,0.07],
    [4909,363171,"Vazduh","Libelium","0004A30B0021DF70",44.979,16.7091,"","","Prijedor","",28383696,"2024-09-13T08:57:21",3,"NO ERROR",8.62,100,991.82,0.02,0.02,0.02],
    [4910,363171,"Vazduh","Libelium","0004A30B0021DF70",44.979,16.7091,"","","Prijedor","",28384202,"2024-09-13T09:58:03",3,"NO ERROR",9.11,100,992.45,0,0,0],
    [4911,363171,"Vazduh","Libelium","0004A30B0021DF70",44.979,16.7091,"","","Prijedor","",28384720,"2024-09-13T10:58:45",3,"NO ERROR",9.66,100,992.73,0.02,0.02,0.02],
    [4912,363171,"Vazduh","Libelium","0004A30B0021DF70",44.979,16.7091,"","","Prijedor","",28385316,"2024-09-13T11:59:28",3,"NO ERROR",12.27,100,992.77,0,0,0],
    [4913,363171,"Vazduh","Libelium","0004A30B0021DF70",44.979,16.7091,"","","Prijedor","",28385858,"2024-09-13T13:00:10",3,"NO ERROR",11.56,100,993.1,0,0,0],
    [4914,363171,"Vazduh","Libelium","0004A30B0021DF70",44.979,16.7091,"","","Prijedor","",28386445,"2024-09-13T14:00:52",3,"NO ERROR",13.28,100,993.16,0,0,0],
    [4915,363171,"Vazduh","Libelium","0004A30B0021DF70",44.979,16.7091,"","","Prijedor","",28387080,"2024-09-13T15:01:34",3,"NO ERROR",13.97,100,993.49,0,0,0],
    [4916,363171,"Vazduh","Libelium","0004A30B0021DF70",44.979,16.7091,"","","Prijedor","",28387641,"2024-09-13T16:02:16",3,"NO ERROR",12.4,100,993.65,0,0,0],
    [4917,363171,"Vazduh","Libelium","0004A30B0021DF70",44.979,16.7091,"","","Prijedor","",28388182,"2024-09-13T17:02:58",3,"NO ERROR",11.88,100,994.36,0.04,0.05,0.05],
    [4918,363171,"Vazduh","Libelium","0004A30B0021DF70",44.979,16.7091,"","","Prijedor","",28388760,"2024-09-13T18:03:40",3,"NO ERROR",10.9,100,994.68,0,0,0],
    [4919,363171,"Vazduh","Libelium","0004A30B0021DF70",44.979,16.7091,"","","Prijedor","",28389300,"2024-09-13T19:04:22",3,"NO ERROR",10.78,100,994.8,0.02,0.02,0.02],
    [4920,363171,"Vazduh","Libelium","0004A30B0021DF70",44.979,16.7091,"","","Prijedor","",28389776,"2024-09-13T20:05:04",3,"NO ERROR",10.13,100,995.12,0.18,0.24,0.24],
    [4921,363171,"Vazduh","Libelium","0004A30B0021DF70",44.979,16.7091,"","","Prijedor","",28390382,"2024-09-13T21:05:46",3,"NO ERROR",9.62,100,995.26,0.13,0.24,0.26],
    [4922,363171,"Vazduh","Libelium","0004A30B0021DF70",44.979,16.7091,"","","Prijedor","",28390970,"2024-09-13T22:06:28",3,"NO ERROR",9.63,100,995.14,0.02,0.03,0.03],
    [4923,363171,"Vazduh","Libelium","0004A30B0021DF70",44.979,16.7091,"","","Prijedor","",28391501,"2024-09-13T23:07:10",3,"NO ERROR",9.86,100,995.1,0.13,0.15,0.15],
    [4924,363171,"Vazduh","Libelium","0004A30B0021DF70",44.979,16.7091,"","","Prijedor","",28392311,"2024-09-14T00:07:59",3,"NO ERROR",9.79,100,994.89,0.02,0.02,0.02],
    [4925,363171,"Vazduh","Libelium","0004A30B0021DF70",44.979,16.7091,"","","Prijedor","",28392955,"2024-09-14T01:08:41",3,"NO ERROR",9.97,100,994.83,0.02,0.06,0.07],
    [4926,363171,"Vazduh","Libelium","0004A30B0021DF70",44.979,16.7091,"","","Prijedor","",28393492,"2024-09-14T02:09:23",3,"NO ERROR",10.02,100,994.79,0.02,0.02,0.02],
    [4927,363171,"Vazduh","Libelium","0004A30B0021DF70",44.979,16.7091,"","","Prijedor","",28394098,"2024-09-14T03:10:05",3,"NO ERROR",10.17,100,994.74,0,0,0],
    [4928,363171,"Vazduh","Libelium","0004A30B0021DF70",44.979,16.7091,"","","Prijedor","",28394610,"2024-09-14T04:10:47",3,"NO ERROR",10.02,100,994.92,0.08,0.22,0.35],
    [4929,363171,"Vazduh","Libelium","0004A30B0021DF70",44.979,16.7091,"","","Prijedor","",28395142,"2024-09-14T05:11:29",3,"NO ERROR",9.71,100,994.95,0.13,0.2,0.21],
    [4930,363171,"Vazduh","Libelium","0004A30B0021DF70",44.979,16.7091,"","","Prijedor","",28395793,"2024-09-14T06:12:11",3,"NO ERROR",9.6,100,995.32,0.05,0.05,0.05],
    [4931,363171,"Vazduh","Libelium","0004A30B0021DF70",44.979,16.7091,"","","Prijedor","",28396379,"2024-09-14T07:12:53",3,"NO ERROR",9.69,100,995.66,0.05,0.08,0.08],
    [4932,363171,"Vazduh","Libelium","0004A30B0021DF70",44.979,16.7091,"","","Prijedor","",28396942,"2024-09-14T08:13:35",3,"NO ERROR",10.4,100,995.93,0.01,0.03,0.03],
    [4933,363171,"Vazduh","Libelium","0004A30B0021DF70",44.979,16.7091,"","","Prijedor","",28397545,"2024-09-14T09:14:17",3,"NO ERROR",12.59,100,996.04,0.07,0.08,0.08],
    [4934,363171,"Vazduh","Libelium","0004A30B0021DF70",44.979,16.7091,"","","Prijedor","",28398099,"2024-09-14T10:15:05",3,"NO ERROR",14.37,100,996.15,0,0,0],
    [4935,363171,"Vazduh","Libelium","0004A30B0021DF70",44.979,16.7091,"","","Prijedor","",28398616,"2024-09-14T11:15:47",3,"NO ERROR",13.72,100,996.44,0.11,0.12,0.12],
    [4936,363171,"Vazduh","Libelium","0004A30B0021DF70",44.979,16.7091,"","","Prijedor","",28399226,"2024-09-14T12:16:29",3,"NO ERROR",14.78,93.8,996.59,0,0,0],
    [4937,363171,"Vazduh","Libelium","0004A30B0021DF70",44.979,16.7091,"","","Prijedor","",28399736,"2024-09-14T13:17:11",3,"NO ERROR",13.45,100,996.65,0.03,0.03,0.03],
    [4938,363171,"Vazduh","Libelium","0004A30B0021DF70",44.979,16.7091,"","","Prijedor","",28400245,"2024-09-14T14:17:53",3,"NO ERROR",13.31,100,997.1,0.02,0.02,0.02],
    [4939,363171,"Vazduh","Libelium","0004A30B0021DF70",44.979,16.7091,"","","Prijedor","",28400754,"2024-09-14T15:18:42",3,"NO ERROR",12.9,100,997.4,0,0,0],
    [4940,363171,"Vazduh","Libelium","0004A30B0021DF70",44.979,16.7091,"","","Prijedor","",28401214,"2024-09-14T16:19:24",3,"NO ERROR",13.64,100,997.15,0,0,0],
    [4941,363171,"Vazduh","Libelium","0004A30B0021DF70",44.979,16.7091,"","","Prijedor","",28401656,"2024-09-14T17:20:06",3,"NO ERROR",13.33,100,997.31,0.04,0.05,0.05],
    [4942,363171,"Vazduh","Libelium","0004A30B0021DF70",44.979,16.7091,"","","Prijedor","",28402162,"2024-09-14T18:20:48",3,"NO ERROR",11.81,100,997.54,0.02,0.02,0.02],
    [4943,363171,"Vazduh","Libelium","0004A30B0021DF70",44.979,16.7091,"","","Prijedor","",28402572,"2024-09-14T19:21:30",3,"NO ERROR",10.9,100,997.77,0.03,0.03,0.03],
    [4944,363171,"Vazduh","Libelium","0004A30B0021DF70",44.979,16.7091,"","","Prijedor","",28402977,"2024-09-14T20:22:18",3,"NO ERROR",10.66,100,998.39,0,0,0],
    [4945,363171,"Vazduh","Libelium","0004A30B0021DF70",44.979,16.7091,"","","Prijedor","",28403475,"2024-09-14T21:23:00",3,"NO ERROR",10.76,100,998.27,0.02,0.02,0.02],
    [4946,363171,"Vazduh","Libelium","0004A30B0021DF70",44.979,16.7091,"","","Prijedor","",28403940,"2024-09-14T22:23:42",3,"NO ERROR",10.5,100,998.2,0.04,0.05,0.05],
    [4947,363171,"Vazduh","Libelium","0004A30B0021DF70",44.979,16.7091,"","","Prijedor","",28404362,"2024-09-14T23:24:24",3,"NO ERROR",10.44,100,997.85,0,0,0],
    [4948,363171,"Vazduh","Libelium","0004A30B0021DF70",44.979,16.7091,"","","Prijedor","",28405142,"2024-09-15T00:25:06",3,"NO ERROR",10.29,100,997.29,0.02,0.02,0.02],
    [4949,363171,"Vazduh","Libelium","0004A30B0021DF70",44.979,16.7091,"","","Prijedor","",28405587,"2024-09-15T01:25:54",3,"NO ERROR",10.18,100,996.99,0,0,0],
    [4950,363171,"Vazduh","Libelium","0004A30B0021DF70",44.979,16.7091,"","","Prijedor","",28405987,"2024-09-15T02:26:36",3,"NO ERROR",10.11,100,996.32,0.16,0.22,0.22],
    [4951,363171,"Vazduh","Libelium","0004A30B0021DF70",44.979,16.7091,"","","Prijedor","",28407256,"2024-09-15T05:28:43",3,"NO ERROR",10.07,100,995.21,0.06,0.06,0.06],
    [4952,363171,"Vazduh","Libelium","0004A30B0021DF70",44.979,16.7091,"","","Prijedor","",28407757,"2024-09-15T06:29:25",3,"NO ERROR",10.1,100,995.09,0.03,0.03,0.03],
    [4953,363171,"Vazduh","Libelium","0004A30B0021DF70",44.979,16.7091,"","","Prijedor","",28409100,"2024-09-15T09:31:31",3,"NO ERROR",11.26,100,995.85,0.02,0.02,0.02],
    [4954,363171,"Vazduh","Libelium","0004A30B0021DF70",44.979,16.7091,"","","Prijedor","",28409514,"2024-09-15T10:32:13",3,"NO ERROR",12.27,100,996.25,0,0,0],
    [4955,363171,"Vazduh","Libelium","0004A30B0021DF70",44.979,16.7091,"","","Prijedor","",28409910,"2024-09-15T11:32:55",3,"NO ERROR",12.7,100,996.58,0.07,0.08,0.08],
    [4956,363171,"Vazduh","Libelium","0004A30B0021DF70",44.979,16.7091,"","","Prijedor","",28417274,"2024-09-16T01:42:50",3,"NO ERROR",10.44,100,999.7,0.05,0.12,0.14],
    [4957,363171,"Vazduh","Libelium","0004A30B0021DF70",44.979,16.7091,"","","Prijedor","",28417805,"2024-09-16T02:43:32",3,"NO ERROR",9.91,100,999.23,0,0,0],
    [4958,363171,"Vazduh","Libelium","0004A30B0021DF70",44.979,16.7091,"","","Prijedor","",28418283,"2024-09-16T03:44:14",3,"NO ERROR",9.86,100,998.88,0.02,0.02,0.02],
    [4959,363171,"Vazduh","Libelium","0004A30B0021DF70",44.979,16.7091,"","","Prijedor","",28418744,"2024-09-16T04:44:56",3,"NO ERROR",10,100,998.37,0.07,0.08,0.08],
    [4960,363171,"Vazduh","Libelium","0004A30B0021DF70",44.979,16.7091,"","","Prijedor","",28419271,"2024-09-16T05:45:38",3,"NO ERROR",10.31,100,998.16,0.04,0.14,0.22],
    [4961,363171,"Vazduh","Libelium","0004A30B0021DF70",44.979,16.7091,"","","Prijedor","",28419773,"2024-09-16T06:46:20",3,"NO ERROR",10.16,100,997.86,0.02,0.02,0.02],
    [4962,363171,"Vazduh","Libelium","0004A30B0021DF70",44.979,16.7091,"","","Prijedor","",28420289,"2024-09-16T07:47:15",3,"NO ERROR",10.66,100,997.33,0.06,0.12,0.13],
    [4963,363171,"Vazduh","Libelium","0004A30B0021DF70",44.979,16.7091,"","","Prijedor","",28420789,"2024-09-16T08:47:57",3,"NO ERROR",10.9,100,997.09,0,0,0],
    [4964,363171,"Vazduh","Libelium","0004A30B0021DF70",44.979,16.7091,"","","Prijedor","",28421253,"2024-09-16T09:48:39",3,"NO ERROR",11.9,100,996.83,0.07,0.13,0.13],
    [4965,363171,"Vazduh","Libelium","0004A30B0021DF70",44.979,16.7091,"","","Prijedor","",28421730,"2024-09-16T10:49:21",3,"NO ERROR",12.37,100,996.4,0.02,0.02,0.02],
    [4966,363171,"Vazduh","Libelium","0004A30B0021DF70",44.979,16.7091,"","","Prijedor","",28422257,"2024-09-16T11:50:03",3,"NO ERROR",13.71,100,996.28,0,0,0],
    [4967,363171,"Vazduh","Libelium","0004A30B0021DF70",44.979,16.7091,"","","Prijedor","",28422727,"2024-09-16T12:50:45",3,"NO ERROR",14.37,100,996.46,0,0.04,0.06],
    [4968,363171,"Vazduh","Libelium","0004A30B0021DF70",44.979,16.7091,"","","Prijedor","",28423272,"2024-09-16T13:51:27",3,"NO ERROR",14.89,100,996.48,0.19,0.28,0.28],
    [4969,363171,"Vazduh","Libelium","0004A30B0021DF70",44.979,16.7091,"","","Prijedor","",28423812,"2024-09-16T14:52:09",3,"NO ERROR",14.45,100,996.6,0.01,0.03,0.03],
    [4970,363171,"Vazduh","Libelium","0004A30B0021DF70",44.979,16.7091,"","","Prijedor","",28424325,"2024-09-16T15:52:51",3,"NO ERROR",13.56,100,997.08,0,0,0],
    [4971,363171,"Vazduh","Libelium","0004A30B0021DF70",44.979,16.7091,"","","Prijedor","",28424809,"2024-09-16T16:53:33",3,"NO ERROR",13.21,100,997.22,0.1,0.13,0.14],
    [4972,363171,"Vazduh","Libelium","0004A30B0021DF70",44.979,16.7091,"","","Prijedor","",28425289,"2024-09-16T17:54:21",3,"NO ERROR",13.02,100,997.08,0.02,0.02,0.02],
    [4973,363171,"Vazduh","Libelium","0004A30B0021DF70",44.979,16.7091,"","","Prijedor","",28425750,"2024-09-16T18:55:09",3,"NO ERROR",12.58,100,997.28,0,0,0],
    [4974,363171,"Vazduh","Libelium","0004A30B0021DF70",44.979,16.7091,"","","Prijedor","",28426202,"2024-09-16T19:55:51",3,"NO ERROR",12.59,100,997.56,0.13,0.18,0.19],
    [4975,363171,"Vazduh","Libelium","0004A30B0021DF70",44.979,16.7091,"","","Prijedor","",28426678,"2024-09-16T20:56:33",3,"NO ERROR",12.38,100,998.1,0.06,0.08,0.08],
    [4976,363171,"Vazduh","Libelium","0004A30B0021DF70",44.979,16.7091,"","","Prijedor","",28427179,"2024-09-16T21:57:15",3,"NO ERROR",12.18,100,998.28,0.1,0.14,0.14],
    [4977,363171,"Vazduh","Libelium","0004A30B0021DF70",44.979,16.7091,"","","Prijedor","",28427664,"2024-09-16T22:57:58",3,"NO ERROR",11.91,100,998.61,0.07,0.1,0.1],
    [4978,363171,"Vazduh","Libelium","0004A30B0021DF70",44.979,16.7091,"","","Prijedor","",28428296,"2024-09-16T23:58:40",3,"NO ERROR",11.66,100,998.93,0.05,0.05,0.05],
    [4979,363171,"Vazduh","Libelium","0004A30B0021DF70",44.979,16.7091,"","","Prijedor","",28428904,"2024-09-17T00:59:22",3,"NO ERROR",11.51,100,999.36,0.05,0.05,0.05],
    [4980,363171,"Vazduh","Libelium","0004A30B0021DF70",44.979,16.7091,"","","Prijedor","",28429414,"2024-09-17T02:00:10",3,"NO ERROR",11.23,100,999.67,0.22,0.35,0.38],
    [4981,363171,"Vazduh","Libelium","0004A30B0021DF70",44.979,16.7091,"","","Prijedor","",28429951,"2024-09-17T03:00:58",3,"NO ERROR",11.28,100,999.69,0,0,0],
    [4982,363171,"Vazduh","Libelium","0004A30B0021DF70",44.979,16.7091,"","","Prijedor","",28430451,"2024-09-17T04:01:40",3,"NO ERROR",10.93,100,1000.12,0.02,0.02,0.02],
    [4983,363171,"Vazduh","Libelium","0004A30B0021DF70",44.979,16.7091,"","","Prijedor","",28430981,"2024-09-17T05:02:22",3,"NO ERROR",10.53,100,1000.54,0.13,0.15,0.15],
    [4984,363171,"Vazduh","Libelium","0004A30B0021DF70",44.979,16.7091,"","","Prijedor","",28431566,"2024-09-17T06:03:04",3,"NO ERROR",10.77,100,1001.49,0.03,0.03,0.03],
    [4985,363171,"Vazduh","Libelium","0004A30B0021DF70",44.979,16.7091,"","","Prijedor","",28432131,"2024-09-17T07:03:46",3,"NO ERROR",11.1,100,1002.33,0.03,0.03,0.03],
    [4986,363171,"Vazduh","Libelium","0004A30B0021DF70",44.979,16.7091,"","","Prijedor","",28432668,"2024-09-17T08:04:28",3,"NO ERROR",11.37,100,1002.71,0.03,0.12,0.21],
    [4987,363171,"Vazduh","Libelium","0004A30B0021DF70",44.979,16.7091,"","","Prijedor","",28433225,"2024-09-17T09:05:10",3,"NO ERROR",13.27,100,1003.74,0.02,0.03,0.03],
    [4988,363171,"Vazduh","Libelium","0004A30B0021DF70",44.979,16.7091,"","","Prijedor","",28433761,"2024-09-17T10:05:52",3,"NO ERROR",15.07,100,1004.19,0,0,0],
    [4989,363171,"Vazduh","Libelium","0004A30B0021DF70",44.979,16.7091,"","","Prijedor","",28434307,"2024-09-17T11:06:34",3,"NO ERROR",14.32,100,1004.54,0,0,0],
    [4990,363171,"Vazduh","Libelium","0004A30B0021DF70",44.979,16.7091,"","","Prijedor","",28434886,"2024-09-17T12:07:16",3,"NO ERROR",14.65,100,1005.02,0.06,0.07,0.07],
    [4991,363171,"Vazduh","Libelium","0004A30B0021DF70",44.979,16.7091,"","","Prijedor","",28435454,"2024-09-17T13:07:59",3,"NO ERROR",14.47,100,1005.36,0.05,0.08,0.08],
    [4992,363171,"Vazduh","Libelium","0004A30B0021DF70",44.979,16.7091,"","","Prijedor","",28436049,"2024-09-17T14:08:41",3,"NO ERROR",14.96,100,1005.51,0.03,0.03,0.03],
    [4993,363171,"Vazduh","Libelium","0004A30B0021DF70",44.979,16.7091,"","","Prijedor","",28436674,"2024-09-17T15:09:23",3,"NO ERROR",15.09,100,1005.53,0.03,0.05,0.05],
    [4994,363171,"Vazduh","Libelium","0004A30B0021DF70",44.979,16.7091,"","","Prijedor","",28437251,"2024-09-17T16:10:05",3,"NO ERROR",15.69,100,1005.4,0.05,0.1,0.11],
    [4995,363171,"Vazduh","Libelium","0004A30B0021DF70",44.979,16.7091,"","","Prijedor","",28437783,"2024-09-17T17:10:47",3,"NO ERROR",15.41,100,1005.32,0.07,0.09,0.09],
    [4996,363171,"Vazduh","Libelium","0004A30B0021DF70",44.979,16.7091,"","","Prijedor","",28438318,"2024-09-17T18:11:29",3,"NO ERROR",15.08,100,1005.51,0.03,0.06,0.06],
    [4997,363171,"Vazduh","Libelium","0004A30B0021DF70",44.979,16.7091,"","","Prijedor","",28438843,"2024-09-17T19:12:11",3,"NO ERROR",14.66,100,1006.08,0.09,0.13,0.13],
    [4998,363171,"Vazduh","Libelium","0004A30B0021DF70",44.979,16.7091,"","","Prijedor","",28439333,"2024-09-17T20:12:53",3,"NO ERROR",14.58,100,1006.47,0.17,0.21,0.21],
    [4999,363171,"Vazduh","Libelium","0004A30B0021DF70",44.979,16.7091,"","","Prijedor","",28439900,"2024-09-17T21:13:35",3,"NO ERROR",14.29,100,1006.71,0.05,0.14,0.21],
    [5000,363171,"Vazduh","Libelium","0004A30B0021DF70",44.979,16.7091,"","","Prijedor","",28440493,"2024-09-17T22:14:23",3,"NO ERROR",14.35,100,1006.7,0.02,0.02,0.02],
    [5001,363171,"Vazduh","Libelium","0004A30B0021DF70",44.979,16.7091,"","","Prijedor","",28441043,"2024-09-17T23:15:05",3,"NO ERROR",14.08,100,1006.76,0.03,0.05,0.05],
    [5002,363171,"Vazduh","Libelium","0004A30B0021DF70",44.979,16.7091,"","","Prijedor","",28441856,"2024-09-18T00:15:47",3,"NO ERROR",13.97,100,1006.68,0,0,0],
    [5003,363171,"Vazduh","Libelium","0004A30B0021DF70",44.979,16.7091,"","","Prijedor","",28442446,"2024-09-18T01:16:29",3,"NO ERROR",13.54,100,1006.66,0.03,0.06,0.06],
    [5004,363171,"Vazduh","Libelium","0004A30B0021DF70",44.979,16.7091,"","","Prijedor","",28442998,"2024-09-18T02:17:11",3,"NO ERROR",13.43,100,1006.68,0.08,0.09,0.09],
    [5005,363171,"Vazduh","Libelium","0004A30B0021DF70",44.979,16.7091,"","","Prijedor","",28443553,"2024-09-18T03:17:54",3,"NO ERROR",13.24,100,1006.44,0.07,0.07,0.07],
    [5006,363171,"Vazduh","Libelium","0004A30B0021DF70",44.979,16.7091,"","","Prijedor","",28444092,"2024-09-18T04:18:36",3,"NO ERROR",12.9,100,1006.47,0.1,0.45,0.73],
    [5007,363171,"Vazduh","Libelium","0004A30B0021DF70",44.979,16.7091,"","","Prijedor","",28444657,"2024-09-18T05:19:18",3,"NO ERROR",12.04,100,1006.14,0.01,0.03,0.04],
    [5008,363171,"Vazduh","Libelium","0004A30B0021DF70",44.979,16.7091,"","","Prijedor","",28445262,"2024-09-18T06:20:00",3,"NO ERROR",12.05,100,1006.13,0.08,0.09,0.09],
    [5009,363171,"Vazduh","Libelium","0004A30B0021DF70",44.979,16.7091,"","","Prijedor","",28445835,"2024-09-18T07:20:42",3,"NO ERROR",12.97,100,1006.48,0.04,0.07,0.07],
    [5010,363171,"Vazduh","Libelium","0004A30B0021DF70",44.979,16.7091,"","","Prijedor","",28446394,"2024-09-18T08:21:24",3,"NO ERROR",17.05,100,1006.71,0.05,0.12,0.13],
    [5011,363171,"Vazduh","Libelium","0004A30B0021DF70",44.979,16.7091,"","","Prijedor","",28446959,"2024-09-18T09:22:06",3,"NO ERROR",19.42,92.4,1007.21,0.08,0.15,0.22],
    [5012,363171,"Vazduh","Libelium","0004A30B0021DF70",44.979,16.7091,"","","Prijedor","",28447482,"2024-09-18T10:22:48",3,"NO ERROR",20.19,79,1006.88,0.13,0.15,0.15],
    [5013,363171,"Vazduh","Libelium","0004A30B0021DF70",44.979,16.7091,"","","Prijedor","",28448005,"2024-09-18T11:23:30",3,"NO ERROR",19.56,84.3,1006.45,0.08,0.15,0.16],
    [5014,363171,"Vazduh","Libelium","0004A30B0021DF70",44.979,16.7091,"","","Prijedor","",28448587,"2024-09-18T12:24:12",3,"NO ERROR",20.91,81.5,1006.26,0.02,0.02,0.02],
    [5015,363171,"Vazduh","Libelium","0004A30B0021DF70",44.979,16.7091,"","","Prijedor","",28449180,"2024-09-18T13:24:54",3,"NO ERROR",22.82,67.7,1005.85,0.13,0.14,0.14],
    [5016,363171,"Vazduh","Libelium","0004A30B0021DF70",44.979,16.7091,"","","Prijedor","",28449843,"2024-09-18T14:25:36",3,"NO ERROR",24.12,64,1005.39,0,0,0],
    [5017,363171,"Vazduh","Libelium","0004A30B0021DF70",44.979,16.7091,"","","Prijedor","",28450492,"2024-09-18T15:26:18",3,"NO ERROR",22.45,63.7,1004.99,0,0,0],
    [5018,363171,"Vazduh","Libelium","0004A30B0021DF70",44.979,16.7091,"","","Prijedor","",28451112,"2024-09-18T16:27:01",3,"NO ERROR",24.36,60.1,1004.67,0.05,0.05,0.05],
    [5019,363171,"Vazduh","Libelium","0004A30B0021DF70",44.979,16.7091,"","","Prijedor","",28451729,"2024-09-18T17:27:43",3,"NO ERROR",21.03,75.4,1004.61,0.08,0.09,0.09],
    [5020,363171,"Vazduh","Libelium","0004A30B0021DF70",44.979,16.7091,"","","Prijedor","",28452329,"2024-09-18T18:28:25",3,"NO ERROR",19.91,87.7,1004.54,0.08,0.11,0.12],
    [5021,363171,"Vazduh","Libelium","0004A30B0021DF70",44.979,16.7091,"","","Prijedor","",28452874,"2024-09-18T19:29:07",3,"NO ERROR",18.68,100,1004.38,0.22,0.25,0.25],
    [5022,363171,"Vazduh","Libelium","0004A30B0021DF70",44.979,16.7091,"","","Prijedor","",28453432,"2024-09-18T20:29:49",3,"NO ERROR",17.42,100,1004.66,0.17,0.24,0.25],
    [5023,363171,"Vazduh","Libelium","0004A30B0021DF70",44.979,16.7091,"","","Prijedor","",28454076,"2024-09-18T21:30:31",3,"NO ERROR",17.16,100,1004.78,0.21,0.26,0.27],
    [5024,363171,"Vazduh","Libelium","0004A30B0021DF70",44.979,16.7091,"","","Prijedor","",28454654,"2024-09-18T22:31:13",3,"NO ERROR",16.64,100,1004.34,0.2,0.24,0.24],
    [5025,363171,"Vazduh","Libelium","0004A30B0021DF70",44.979,16.7091,"","","Prijedor","",28455241,"2024-09-18T23:31:55",3,"NO ERROR",15.92,100,1003.97,0.21,0.41,0.77],
    [5026,363171,"Vazduh","Libelium","0004A30B0021DF70",44.979,16.7091,"","","Prijedor","",28456093,"2024-09-19T00:32:37",3,"NO ERROR",15.26,100,1003.45,0.13,0.16,0.16],
    [5027,363171,"Vazduh","Libelium","0004A30B0021DF70",44.979,16.7091,"","","Prijedor","",28456730,"2024-09-19T01:33:19",3,"NO ERROR",15.08,100,1003.27,0.47,0.71,1.35],
    [5028,363171,"Vazduh","Libelium","0004A30B0021DF70",44.979,16.7091,"","","Prijedor","",28457283,"2024-09-19T02:34:01",3,"NO ERROR",14.98,100,1002.73,0.07,0.09,0.09],
    [5029,363171,"Vazduh","Libelium","0004A30B0021DF70",44.979,16.7091,"","","Prijedor","",28457854,"2024-09-19T03:34:43",3,"NO ERROR",14.7,100,1002.49,0.35,0.47,0.48],
    [5030,363171,"Vazduh","Libelium","0004A30B0021DF70",44.979,16.7091,"","","Prijedor","",28458416,"2024-09-19T04:35:25",3,"NO ERROR",14.69,100,1002.36,0.18,0.35,0.69],
    [5031,363171,"Vazduh","Libelium","0004A30B0021DF70",44.979,16.7091,"","","Prijedor","",28459044,"2024-09-19T05:36:08",3,"NO ERROR",14.8,100,1001.98,0.45,0.58,0.58],
    [5032,363171,"Vazduh","Libelium","0004A30B0021DF70",44.979,16.7091,"","","Prijedor","",28459666,"2024-09-19T06:36:56",3,"NO ERROR",14.35,100,1001.72,0.22,0.64,9.67],
    [5033,363171,"Vazduh","Libelium","0004A30B0021DF70",44.979,16.7091,"","","Prijedor","",28460213,"2024-09-19T07:37:38",3,"NO ERROR",14.43,100,1001.66,0.18,0.25,0.25],
    [5034,363171,"Vazduh","Libelium","0004A30B0021DF70",44.979,16.7091,"","","Prijedor","",28461266,"2024-09-19T09:39:02",3,"NO ERROR",15.68,100,1002.33,0.13,0.14,0.14],
    [5035,363171,"Vazduh","Libelium","0004A30B0021DF70",44.979,16.7091,"","","Prijedor","",28461773,"2024-09-19T10:39:44",3,"NO ERROR",17.72,100,1002,0.35,0.38,0.38],
    [5036,363171,"Vazduh","Libelium","0004A30B0021DF70",44.979,16.7091,"","","Prijedor","",28462283,"2024-09-19T11:40:26",3,"NO ERROR",19.09,100,1001.81,0.22,0.35,0.35],
    [5037,363171,"Vazduh","Libelium","0004A30B0021DF70",44.979,16.7091,"","","Prijedor","",28462766,"2024-09-19T12:41:08",3,"NO ERROR",20.25,100,1001.9,0.25,0.36,0.38],
    [5038,363171,"Vazduh","Libelium","0004A30B0021DF70",44.979,16.7091,"","","Prijedor","",28463303,"2024-09-19T13:41:50",3,"NO ERROR",21.01,93.7,1001.53,0.36,0.64,0.77],
    [5039,363171,"Vazduh","Libelium","0004A30B0021DF70",44.979,16.7091,"","","Prijedor","",28463816,"2024-09-19T14:42:32",3,"NO ERROR",21.58,86.7,1001.21,0.22,0.49,0.85],
    [5040,363171,"Vazduh","Libelium","0004A30B0021DF70",44.979,16.7091,"","","Prijedor","",28470051,"2024-09-20T03:51:39",3,"NO ERROR",15.04,100,1003.19,1.2,1.59,1.83],
    [5041,363171,"Vazduh","Libelium","0004A30B0021DF70",44.979,16.7091,"","","Prijedor","",28470509,"2024-09-20T04:52:33",3,"NO ERROR",14.9,100,1003.15,0.96,1.21,1.29],
    [5042,363171,"Vazduh","Libelium","0004A30B0021DF70",44.979,16.7091,"","","Prijedor","",28470999,"2024-09-20T05:53:15",3,"NO ERROR",14.99,100,1003.45,1.03,1.33,1.37],
    [5043,363171,"Vazduh","Libelium","0004A30B0021DF70",44.979,16.7091,"","","Prijedor","",28471478,"2024-09-20T06:53:57",3,"NO ERROR",15.1,100,1004.02,2.14,2.57,2.7],
    [5044,363171,"Vazduh","Libelium","0004A30B0021DF70",44.979,16.7091,"","","Prijedor","",28471898,"2024-09-20T07:54:39",3,"NO ERROR",15.46,100,1004.24,0.87,1.05,1.05],
    [5045,363171,"Vazduh","Libelium","0004A30B0021DF70",44.979,16.7091,"","","Prijedor","",28472354,"2024-09-20T08:55:21",3,"NO ERROR",16.51,100,1004.71,0.29,0.35,0.35],
    [5046,363171,"Vazduh","Libelium","0004A30B0021DF70",44.979,16.7091,"","","Prijedor","",28472772,"2024-09-20T09:56:04",3,"NO ERROR",17.31,100,1005.49,0.29,0.36,0.36],
    [5047,363171,"Vazduh","Libelium","0004A30B0021DF70",44.979,16.7091,"","","Prijedor","",28473219,"2024-09-20T10:56:46",3,"NO ERROR",17.01,100,1005.93,0.12,0.2,1.2],
    [5048,363171,"Vazduh","Libelium","0004A30B0021DF70",44.979,16.7091,"","","Prijedor","",28473664,"2024-09-20T11:57:28",3,"NO ERROR",17.68,100,1006.25,0.27,0.53,1.26],
    [5049,363171,"Vazduh","Libelium","0004A30B0021DF70",44.979,16.7091,"","","Prijedor","",28474141,"2024-09-20T12:58:10",3,"NO ERROR",19.28,100,1006.43,0.1,0.23,0.26],
    [5050,363171,"Vazduh","Libelium","0004A30B0021DF70",44.979,16.7091,"","","Prijedor","",28474682,"2024-09-20T13:58:52",3,"NO ERROR",19.49,100,1006.47,0.19,0.28,0.29],
    [5051,363171,"Vazduh","Libelium","0004A30B0021DF70",44.979,16.7091,"","","Prijedor","",28475207,"2024-09-20T14:59:34",3,"NO ERROR",20.64,100,1006.25,0.19,0.3,0.31],
    [5052,363171,"Vazduh","Libelium","0004A30B0021DF70",44.979,16.7091,"","","Prijedor","",28475684,"2024-09-20T16:00:16",3,"NO ERROR",20.69,100,1006.01,0.04,0.11,0.13],
    [5053,363171,"Vazduh","Libelium","0004A30B0021DF70",44.979,16.7091,"","","Prijedor","",28476184,"2024-09-20T17:00:58",3,"NO ERROR",20.13,100,1006.01,0.07,0.13,0.13],
    [5054,363171,"Vazduh","Libelium","0004A30B0021DF70",44.979,16.7091,"","","Prijedor","",28476678,"2024-09-20T18:01:40",3,"NO ERROR",19.08,100,1006.39,0.3,0.4,0.4],
    [5055,363171,"Vazduh","Libelium","0004A30B0021DF70",44.979,16.7091,"","","Prijedor","",28477156,"2024-09-20T19:02:22",3,"NO ERROR",17.94,100,1006.43,0.41,0.56,0.56],
    [5056,363171,"Vazduh","Libelium","0004A30B0021DF70",44.979,16.7091,"","","Prijedor","",28477605,"2024-09-20T20:03:04",3,"NO ERROR",17.32,100,1006.96,0.21,0.28,0.28],
    [5057,363171,"Vazduh","Libelium","0004A30B0021DF70",44.979,16.7091,"","","Prijedor","",28478111,"2024-09-20T21:03:46",3,"NO ERROR",16.84,100,1007.23,0.25,0.46,0.61],
    [5058,363171,"Vazduh","Libelium","0004A30B0021DF70",44.979,16.7091,"","","Prijedor","",28478649,"2024-09-20T22:04:35",3,"NO ERROR",15.77,100,1007.25,0.44,0.55,0.56],
    [5059,363171,"Vazduh","Libelium","0004A30B0021DF70",44.979,16.7091,"","","Prijedor","",28479169,"2024-09-20T23:05:17",3,"NO ERROR",15.05,100,1007.68,1.46,1.73,1.74],
    [5060,363171,"Vazduh","Libelium","0004A30B0021DF70",44.979,16.7091,"","","Prijedor","",28479904,"2024-09-21T00:05:59",3,"NO ERROR",14.6,100,1007.75,2.36,2.57,2.57],
    [5061,363171,"Vazduh","Libelium","0004A30B0021DF70",44.979,16.7091,"","","Prijedor","",28480530,"2024-09-21T01:06:47",3,"NO ERROR",13.78,100,1007.86,9.29,16.25,160.58],
    [5062,363171,"Vazduh","Libelium","0004A30B0021DF70",44.979,16.7091,"","","Prijedor","",28481043,"2024-09-21T02:07:29",3,"NO ERROR",13.52,100,1008.16,7.26,16.88,103.97],
    [5063,363171,"Vazduh","Libelium","0004A30B0021DF70",44.979,16.7091,"","","Prijedor","",28481577,"2024-09-21T03:08:11",3,"NO ERROR",13.35,100,1007.89,16.73,47.1,1036.26],
    [5064,363171,"Vazduh","Libelium","0004A30B0021DF70",44.979,16.7091,"","","Prijedor","",28482052,"2024-09-21T04:08:53",3,"NO ERROR",13.11,100,1007.92,2.01,7.62,59.03],
    [5065,363171,"Vazduh","Libelium","0004A30B0021DF70",44.979,16.7091,"","","Prijedor","",28482556,"2024-09-21T05:09:35",3,"NO ERROR",13.01,100,1008.18,3.93,9.45,195.38],
    [5066,363171,"Vazduh","Libelium","0004A30B0021DF70",44.979,16.7091,"","","Prijedor","",28483090,"2024-09-21T06:10:17",3,"NO ERROR",12.42,100,1008.28,4.12,17,172.17],
    [5067,363171,"Vazduh","Libelium","0004A30B0021DF70",44.979,16.7091,"","","Prijedor","",28483604,"2024-09-21T07:10:59",3,"NO ERROR",12.5,100,1008.61,2.02,4.76,19.88],
    [5068,363171,"Vazduh","Libelium","0004A30B0021DF70",44.979,16.7091,"","","Prijedor","",28484077,"2024-09-21T08:11:41",3,"NO ERROR",13.14,100,1009.1,1.4,2.94,24.5],
    [5069,363171,"Vazduh","Libelium","0004A30B0021DF70",44.979,16.7091,"","","Prijedor","",28484554,"2024-09-21T09:12:23",3,"NO ERROR",13.64,100,1009.18,0.07,0.12,0.16],
    [5070,363171,"Vazduh","Libelium","0004A30B0021DF70",44.979,16.7091,"","","Prijedor","",28485016,"2024-09-21T10:13:05",3,"NO ERROR",14.56,100,1009.34,0.17,0.23,0.24],
    [5071,363171,"Vazduh","Libelium","0004A30B0021DF70",44.979,16.7091,"","","Prijedor","",28485458,"2024-09-21T11:13:47",3,"NO ERROR",15.54,100,1009.2,0.05,0.08,0.08],
    [5072,363171,"Vazduh","Libelium","0004A30B0021DF70",44.979,16.7091,"","","Prijedor","",28485938,"2024-09-21T12:14:29",3,"NO ERROR",17.46,100,1008.87,0.09,0.14,0.15],
    [5073,363171,"Vazduh","Libelium","0004A30B0021DF70",44.979,16.7091,"","","Prijedor","",28486383,"2024-09-21T13:15:12",3,"NO ERROR",20.43,100,1007.82,0.19,0.39,0.42],
    [5074,363171,"Vazduh","Libelium","0004A30B0021DF70",44.979,16.7091,"","","Prijedor","",28486910,"2024-09-21T14:16:00",3,"NO ERROR",23.25,74.3,1006.87,0.18,0.31,0.32],
    [5075,363171,"Vazduh","Libelium","0004A30B0021DF70",44.979,16.7091,"","","Prijedor","",28487373,"2024-09-21T15:16:42",3,"NO ERROR",26.01,54.8,1006.41,0.09,0.22,0.25],
    [5076,363171,"Vazduh","Libelium","0004A30B0021DF70",44.979,16.7091,"","","Prijedor","",28487823,"2024-09-21T16:17:24",3,"NO ERROR",27.19,44.1,1005.95,0.1,0.14,0.14],
    [5077,363171,"Vazduh","Libelium","0004A30B0021DF70",44.979,16.7091,"","","Prijedor","",28488287,"2024-09-21T17:18:06",3,"NO ERROR",23.99,48.4,1005.71,0.26,0.51,0.99],
    [5078,363171,"Vazduh","Libelium","0004A30B0021DF70",44.979,16.7091,"","","Prijedor","",28488742,"2024-09-21T18:18:48",3,"NO ERROR",22.53,50.9,1005.61,0.09,0.12,0.12],
    [5079,363171,"Vazduh","Libelium","0004A30B0021DF70",44.979,16.7091,"","","Prijedor","",28489123,"2024-09-21T19:19:36",3,"NO ERROR",18.37,84.7,1005.86,0.15,0.35,0.38],
    [5080,363171,"Vazduh","Libelium","0004A30B0021DF70",44.979,16.7091,"","","Prijedor","",28489521,"2024-09-21T20:20:18",3,"NO ERROR",16.2,100,1006.37,0.26,0.31,0.31],
    [5081,363171,"Vazduh","Libelium","0004A30B0021DF70",44.979,16.7091,"","","Prijedor","",28489985,"2024-09-21T21:21:00",3,"NO ERROR",14.31,100,1006.65,0.16,0.21,0.22],
    [5082,363171,"Vazduh","Libelium","0004A30B0021DF70",44.979,16.7091,"","","Prijedor","",28490457,"2024-09-21T22:21:42",3,"NO ERROR",12.95,100,1006.78,0.26,0.48,0.5],
    [5083,363171,"Vazduh","Libelium","0004A30B0021DF70",44.979,16.7091,"","","Prijedor","",28490898,"2024-09-21T23:22:31",3,"NO ERROR",12.03,100,1006.8,0.49,0.73,0.89],
    [5084,363171,"Vazduh","Libelium","0004A30B0021DF70",44.979,16.7091,"","","Prijedor","",28491619,"2024-09-22T00:23:13",3,"NO ERROR",11.27,100,1006.63,0.2,0.3,0.32],
    [5085,363171,"Vazduh","Libelium","0004A30B0021DF70",44.979,16.7091,"","","Prijedor","",28492169,"2024-09-22T01:23:54",3,"NO ERROR",10.21,100,1006.58,0.27,0.45,0.47],
    [5086,363171,"Vazduh","Libelium","0004A30B0021DF70",44.979,16.7091,"","","Prijedor","",28492680,"2024-09-22T02:24:37",3,"NO ERROR",9.06,100,1006.67,1.02,4.02,62.49],
    [5087,363171,"Vazduh","Libelium","0004A30B0021DF70",44.979,16.7091,"","","Prijedor","",28493189,"2024-09-22T03:25:19",3,"NO ERROR",9,100,1006.48,0.11,0.17,0.18],
    [5088,363171,"Vazduh","Libelium","0004A30B0021DF70",44.979,16.7091,"","","Prijedor","",28493655,"2024-09-22T04:26:01",3,"NO ERROR",8.49,100,1006.18,0.93,2.3,64.47],
    [5089,363171,"Vazduh","Libelium","0004A30B0021DF70",44.979,16.7091,"","","Prijedor","",28494146,"2024-09-22T05:26:49",3,"NO ERROR",8.58,100,1005.96,3.51,17.09,208.08],
    [5090,363171,"Vazduh","Libelium","0004A30B0021DF70",44.979,16.7091,"","","Prijedor","",28494641,"2024-09-22T06:27:31",3,"NO ERROR",8.99,100,1005.89,1.22,3.41,16.29],
    [5091,363171,"Vazduh","Libelium","0004A30B0021DF70",44.979,16.7091,"","","Prijedor","",28495137,"2024-09-22T07:28:13",3,"NO ERROR",8.78,100,1006.02,4.06,27.81,287.5],
    [5092,363171,"Vazduh","Libelium","0004A30B0021DF70",44.979,16.7091,"","","Prijedor","",28495658,"2024-09-22T08:28:55",3,"NO ERROR",9.36,100,1005.95,0.56,2.36,8.63],
    [5093,363171,"Vazduh","Libelium","0004A30B0021DF70",44.979,16.7091,"","","Prijedor","",28496219,"2024-09-22T09:29:43",3,"NO ERROR",12.42,100,1006.28,0.06,0.08,0.08],
    [5094,363171,"Vazduh","Libelium","0004A30B0021DF70",44.979,16.7091,"","","Prijedor","",28496707,"2024-09-22T10:30:25",3,"NO ERROR",14.58,100,1006.01,0.03,0.03,0.03],
    [5095,363171,"Vazduh","Libelium","0004A30B0021DF70",44.979,16.7091,"","","Prijedor","",28497202,"2024-09-22T11:31:07",3,"NO ERROR",18.6,90.7,1005.35,0.05,0.08,0.08],
    [5096,363171,"Vazduh","Libelium","0004A30B0021DF70",44.979,16.7091,"","","Prijedor","",28497722,"2024-09-22T12:31:49",3,"NO ERROR",21.54,72.5,1004.57,0.1,0.14,0.14],
    [5097,363171,"Vazduh","Libelium","0004A30B0021DF70",44.979,16.7091,"","","Prijedor","",28498318,"2024-09-22T13:32:31",3,"NO ERROR",22.44,59.2,1003.75,0.2,0.38,0.51],
    [5098,363171,"Vazduh","Libelium","0004A30B0021DF70",44.979,16.7091,"","","Prijedor","",28498880,"2024-09-22T14:33:14",3,"NO ERROR",27.29,47.4,1002.96,0.22,0.38,0.39],
    [5099,363171,"Vazduh","Libelium","0004A30B0021DF70",44.979,16.7091,"","","Prijedor","",28499429,"2024-09-22T15:33:56",3,"NO ERROR",27.19,48.4,1002.15,0.23,0.3,0.3],
    [5100,363171,"Vazduh","Libelium","0004A30B0021DF70",44.979,16.7091,"","","Prijedor","",28499984,"2024-09-22T16:34:38",3,"NO ERROR",29.34,45.7,1001.5,0.09,0.11,0.11],
    [5101,363171,"Vazduh","Libelium","0004A30B0021DF70",44.979,16.7091,"","","Prijedor","",28500557,"2024-09-22T17:35:26",3,"NO ERROR",24.13,57.7,1001.37,0.22,0.32,0.33],
    [5102,363171,"Vazduh","Libelium","0004A30B0021DF70",44.979,16.7091,"","","Prijedor","",28501057,"2024-09-22T18:36:08",3,"NO ERROR",20.77,84,1001.51,0.39,0.54,0.55],
    [5103,363171,"Vazduh","Libelium","0004A30B0021DF70",44.979,16.7091,"","","Prijedor","",28501516,"2024-09-22T19:36:50",3,"NO ERROR",18.37,100,1001.71,0.31,0.43,0.43],
    [5104,363171,"Vazduh","Libelium","0004A30B0021DF70",44.979,16.7091,"","","Prijedor","",28502005,"2024-09-22T20:37:32",3,"NO ERROR",16.74,100,1001.65,0.33,0.42,0.43],
    [5105,363171,"Vazduh","Libelium","0004A30B0021DF70",44.979,16.7091,"","","Prijedor","",28502560,"2024-09-22T21:38:14",3,"NO ERROR",15.29,100,1001.83,0.26,0.34,0.35],
    [5106,363171,"Vazduh","Libelium","0004A30B0021DF70",44.979,16.7091,"","","Prijedor","",28503059,"2024-09-22T22:38:56",3,"NO ERROR",14.34,100,1001.75,0.08,0.14,0.16],
    [5107,363171,"Vazduh","Libelium","0004A30B0021DF70",44.979,16.7091,"","","Prijedor","",28503593,"2024-09-22T23:39:38",3,"NO ERROR",13.28,100,1001.72,0.22,0.28,0.29],
    [5108,363171,"Vazduh","Libelium","0004A30B0021DF70",44.979,16.7091,"","","Prijedor","",28504419,"2024-09-23T00:40:20",3,"NO ERROR",12.99,100,1001.47,0.42,0.54,0.54],
    [5109,363171,"Vazduh","Libelium","0004A30B0021DF70",44.979,16.7091,"","","Prijedor","",28504973,"2024-09-23T01:41:02",3,"NO ERROR",11.75,100,1001.34,0.2,0.22,0.22],
    [5110,363171,"Vazduh","Libelium","0004A30B0021DF70",44.979,16.7091,"","","Prijedor","",28505551,"2024-09-23T02:41:44",3,"NO ERROR",10.87,100,1000.88,0.13,0.15,0.15],
    [5111,363171,"Vazduh","Libelium","0004A30B0021DF70",44.979,16.7091,"","","Prijedor","",28506059,"2024-09-23T03:42:27",3,"NO ERROR",11.52,100,1000.64,0.63,1.03,10.15],
    [5112,363171,"Vazduh","Libelium","0004A30B0021DF70",44.979,16.7091,"","","Prijedor","",28506607,"2024-09-23T04:43:09",3,"NO ERROR",10.54,100,1000.51,0.23,0.3,0.31],
    [5113,363171,"Vazduh","Libelium","0004A30B0021DF70",44.979,16.7091,"","","Prijedor","",28507216,"2024-09-23T05:43:51",3,"NO ERROR",9.91,100,1000.31,0.31,0.34,0.34],
    [5114,363171,"Vazduh","Libelium","0004A30B0021DF70",44.979,16.7091,"","","Prijedor","",28507815,"2024-09-23T06:44:33",3,"NO ERROR",10.28,100,1000.32,0.13,0.16,0.16],
    [5115,363171,"Vazduh","Libelium","0004A30B0021DF70",44.979,16.7091,"","","Prijedor","",28508327,"2024-09-23T07:45:15",3,"NO ERROR",12.88,100,1000.38,0.33,0.49,0.5],
    [5116,363171,"Vazduh","Libelium","0004A30B0021DF70",44.979,16.7091,"","","Prijedor","",28508844,"2024-09-23T08:45:57",3,"NO ERROR",18.73,91.7,1000.55,0.19,0.25,0.25],
    [5117,363171,"Vazduh","Libelium","0004A30B0021DF70",44.979,16.7091,"","","Prijedor","",28509308,"2024-09-23T09:46:39",3,"NO ERROR",20.06,86.1,1000.46,0.36,0.39,0.39],
    [5118,363171,"Vazduh","Libelium","0004A30B0021DF70",44.979,16.7091,"","","Prijedor","",28509805,"2024-09-23T10:47:21",3,"NO ERROR",20.73,88.6,1000.27,0.07,0.09,0.09],
    [5119,363171,"Vazduh","Libelium","0004A30B0021DF70",44.979,16.7091,"","","Prijedor","",28510364,"2024-09-23T11:48:03",3,"NO ERROR",22.41,71.2,999.71,0.12,0.2,0.2],
    [5120,363171,"Vazduh","Libelium","0004A30B0021DF70",44.979,16.7091,"","","Prijedor","",28510819,"2024-09-23T12:48:45",3,"NO ERROR",24.96,60.7,999.08,0.14,0.35,0.69],
    [5121,363171,"Vazduh","Libelium","0004A30B0021DF70",44.979,16.7091,"","","Prijedor","",28511400,"2024-09-23T13:49:27",3,"NO ERROR",26.84,45.3,998.12,0.08,0.09,0.09],
    [5122,363171,"Vazduh","Libelium","0004A30B0021DF70",44.979,16.7091,"","","Prijedor","",28512012,"2024-09-23T14:50:09",3,"NO ERROR",30.32,41.1,997.61,0,0,0],
    [5123,363171,"Vazduh","Libelium","0004A30B0021DF70",44.979,16.7091,"","","Prijedor","",28512592,"2024-09-23T15:50:52",3,"NO ERROR",30.64,41.2,996.96,0.04,0.07,0.07],
    [5124,363171,"Vazduh","Libelium","0004A30B0021DF70",44.979,16.7091,"","","Prijedor","",28513111,"2024-09-23T16:51:34",3,"NO ERROR",28.46,44.9,996.68,0.04,0.14,0.22],
    [5125,363171,"Vazduh","Libelium","0004A30B0021DF70",44.979,16.7091,"","","Prijedor","",28513678,"2024-09-23T17:52:16",3,"NO ERROR",26.32,49.3,996.6,0.11,0.16,0.16],
    [5126,363171,"Vazduh","Libelium","0004A30B0021DF70",44.979,16.7091,"","","Prijedor","",28514155,"2024-09-23T18:52:58",3,"NO ERROR",22.79,69.9,996.52,0.13,0.13,0.13],
    [5127,363171,"Vazduh","Libelium","0004A30B0021DF70",44.979,16.7091,"","","Prijedor","",28514624,"2024-09-23T19:53:46",3,"NO ERROR",21.06,94.2,996.79,0.52,0.8,0.82],
    [5128,363171,"Vazduh","Libelium","0004A30B0021DF70",44.979,16.7091,"","","Prijedor","",28515099,"2024-09-23T20:54:28",3,"NO ERROR",18.44,100,996.8,0.16,0.22,0.22],
    [5129,363171,"Vazduh","Libelium","0004A30B0021DF70",44.979,16.7091,"","","Prijedor","",28516055,"2024-09-23T22:56:04",3,"NO ERROR",16.27,100,996.91,0.62,0.71,0.72],
    [5130,363171,"Vazduh","Libelium","0004A30B0021DF70",44.979,16.7091,"","","Prijedor","",28516635,"2024-09-23T23:56:46",3,"NO ERROR",16.23,100,996.65,0.21,0.3,0.32],
    [5131,363171,"Vazduh","Libelium","0004A30B0021DF70",44.979,16.7091,"","","Prijedor","",28517313,"2024-09-24T00:57:28",3,"NO ERROR",15.4,100,996.54,0.24,0.37,0.45],
    [5132,363171,"Vazduh","Libelium","0004A30B0021DF70",44.979,16.7091,"","","Prijedor","",28517854,"2024-09-24T01:58:10",3,"NO ERROR",14.81,100,996.32,0.14,0.21,0.22],
    [5133,363171,"Vazduh","Libelium","0004A30B0021DF70",44.979,16.7091,"","","Prijedor","",28519471,"2024-09-24T05:00:17",3,"NO ERROR",13.26,100,994.68,0.38,0.46,0.46],
    [5134,363171,"Vazduh","Libelium","0004A30B0021DF70",44.979,16.7091,"","","Prijedor","",28520111,"2024-09-24T06:00:59",3,"NO ERROR",13.84,100,994.91,0.14,0.16,0.16],
    [5135,363171,"Vazduh","Libelium","0004A30B0021DF70",44.979,16.7091,"","","Prijedor","",28520682,"2024-09-24T07:01:41",3,"NO ERROR",14.65,100,996.16,0.13,0.15,0.15],
    [5136,363171,"Vazduh","Libelium","0004A30B0021DF70",44.979,16.7091,"","","Prijedor","",28521245,"2024-09-24T08:02:23",3,"NO ERROR",14.57,100,996.77,0.29,0.34,0.34],
    [5137,363171,"Vazduh","Libelium","0004A30B0021DF70",44.979,16.7091,"","","Prijedor","",28521784,"2024-09-24T09:03:05",3,"NO ERROR",14.75,100,996.12,0.07,0.11,0.13],
    [5138,363171,"Vazduh","Libelium","0004A30B0021DF70",44.979,16.7091,"","","Prijedor","",28522200,"2024-09-24T10:03:47",3,"NO ERROR",15.42,100,996.2,0.22,0.24,0.24],
    [5139,363171,"Vazduh","Libelium","0004A30B0021DF70",44.979,16.7091,"","","Prijedor","",28522649,"2024-09-24T11:04:29",3,"NO ERROR",20.37,100,996.32,0.03,0.13,0.43],
    [5140,363171,"Vazduh","Libelium","0004A30B0021DF70",44.979,16.7091,"","","Prijedor","",28523113,"2024-09-24T12:05:11",3,"NO ERROR",20.44,100,996.6,0.05,0.21,1.29],
    [5141,363171,"Vazduh","Libelium","0004A30B0021DF70",44.979,16.7091,"","","Prijedor","",28523543,"2024-09-24T13:05:53",3,"NO ERROR",21.85,97.6,996.52,0.04,0.07,0.07],
    [5142,363171,"Vazduh","Libelium","0004A30B0021DF70",44.979,16.7091,"","","Prijedor","",28524085,"2024-09-24T14:06:35",3,"NO ERROR",24.55,81.2,996.19,0.05,0.09,0.09],
    [5143,363171,"Vazduh","Libelium","0004A30B0021DF70",44.979,16.7091,"","","Prijedor","",28526049,"2024-09-24T15:07:17",3,"NO ERROR",27.1,68.7,995.75,0.07,0.12,0.13],
    [5144,363171,"Vazduh","Libelium","0004A30B0021DF70",44.979,16.7091,"","","Prijedor","",28527512,"2024-09-24T16:07:59",3,"NO ERROR",26.44,67.4,995.6,0.03,0.05,0.05],
    [5145,363171,"Vazduh","Libelium","0004A30B0021DF70",44.979,16.7091,"","","Prijedor","",28527960,"2024-09-24T17:08:41",3,"NO ERROR",24.64,82,995.8,0.07,0.07,0.07],
    [5146,363171,"Vazduh","Libelium","0004A30B0021DF70",44.979,16.7091,"","","Prijedor","",28528420,"2024-09-24T18:09:24",3,"NO ERROR",22.71,79.2,996.27,0.05,0.15,0.46],
    [5147,363171,"Vazduh","Libelium","0004A30B0021DF70",44.979,16.7091,"","","Prijedor","",28528873,"2024-09-24T19:10:06",3,"NO ERROR",20.99,93.5,996.56,0.2,0.27,0.27],
    [5148,363171,"Vazduh","Libelium","0004A30B0021DF70",44.979,16.7091,"","","Prijedor","",28529295,"2024-09-24T20:10:48",3,"NO ERROR",19.91,91.8,997.09,0.08,0.12,0.13],
    [5149,363171,"Vazduh","Libelium","0004A30B0021DF70",44.979,16.7091,"","","Prijedor","",28529772,"2024-09-24T21:11:30",3,"NO ERROR",17.16,100,997.59,0.18,0.31,0.42],
    [5150,363171,"Vazduh","Libelium","0004A30B0021DF70",44.979,16.7091,"","","Prijedor","",28530246,"2024-09-24T22:12:18",3,"NO ERROR",16.12,100,998.07,0.21,0.33,0.33],
    [5151,363171,"Vazduh","Libelium","0004A30B0021DF70",44.979,16.7091,"","","Prijedor","",28530731,"2024-09-24T23:13:00",3,"NO ERROR",15.77,100,998.42,0.14,0.29,0.32],
    [5152,363171,"Vazduh","Libelium","0004A30B0021DF70",44.979,16.7091,"","","Prijedor","",28531446,"2024-09-25T00:13:42",3,"NO ERROR",14.84,100,998.72,0.71,1,1],
    [5153,363171,"Vazduh","Libelium","0004A30B0021DF70",44.979,16.7091,"","","Prijedor","",28532313,"2024-09-25T02:15:18",3,"NO ERROR",15.3,100,998.76,0.05,0.1,0.11],
    [5154,363171,"Vazduh","Libelium","0004A30B0021DF70",44.979,16.7091,"","","Prijedor","",28532700,"2024-09-25T03:16:00",3,"NO ERROR",15.28,100,998.68,0.02,0.02,0.02],
    [5155,363171,"Vazduh","Libelium","0004A30B0021DF70",44.979,16.7091,"","","Prijedor","",28533073,"2024-09-25T04:16:42",3,"NO ERROR",15.56,100,998.9,0.11,0.21,0.21],
    [5156,363171,"Vazduh","Libelium","0004A30B0021DF70",44.979,16.7091,"","","Prijedor","",28533440,"2024-09-25T05:17:24",3,"NO ERROR",14.87,100,999.1,0.24,0.43,0.45],
    [5157,363171,"Vazduh","Libelium","0004A30B0021DF70",44.979,16.7091,"","","Prijedor","",28533897,"2024-09-25T06:18:07",3,"NO ERROR",14.61,100,999.54,0.16,0.32,0.35],
    [5158,363171,"Vazduh","Libelium","0004A30B0021DF70",44.979,16.7091,"","","Prijedor","",28534318,"2024-09-25T07:18:49",3,"NO ERROR",14.64,100,999.84,0.59,0.78,0.79],
    [5159,363171,"Vazduh","Libelium","0004A30B0021DF70",44.979,16.7091,"","","Prijedor","",28534771,"2024-09-25T08:19:31",3,"NO ERROR",15.38,100,1000.06,0.25,0.56,0.73],
    [5160,363171,"Vazduh","Libelium","0004A30B0021DF70",44.979,16.7091,"","","Prijedor","",28535208,"2024-09-25T09:20:13",3,"NO ERROR",16.1,100,1000.99,0.37,0.6,0.61],
    [5161,363171,"Vazduh","Libelium","0004A30B0021DF70",44.979,16.7091,"","","Prijedor","",28535599,"2024-09-25T10:20:55",3,"NO ERROR",16.95,100,1000.99,0.27,0.36,0.37],
    [5162,363171,"Vazduh","Libelium","0004A30B0021DF70",44.979,16.7091,"","","Prijedor","",28535989,"2024-09-25T11:21:37",3,"NO ERROR",20.35,100,1000.71,0,0,0],
    [5163,363171,"Vazduh","Libelium","0004A30B0021DF70",44.979,16.7091,"","","Prijedor","",28536471,"2024-09-25T12:22:19",3,"NO ERROR",22.89,91.7,1000.26,0.04,0.05,0.05],
    [5164,363171,"Vazduh","Libelium","0004A30B0021DF70",44.979,16.7091,"","","Prijedor","",28536960,"2024-09-25T13:23:01",3,"NO ERROR",24.71,76.9,999.66,0.1,0.13,0.13],
    [5165,363171,"Vazduh","Libelium","0004A30B0021DF70",44.979,16.7091,"","","Prijedor","",28537491,"2024-09-25T14:23:43",3,"NO ERROR",24.65,76.7,999.36,0.11,0.18,0.18],
    [5166,363171,"Vazduh","Libelium","0004A30B0021DF70",44.979,16.7091,"","","Prijedor","",28538048,"2024-09-25T15:24:25",3,"NO ERROR",24.56,76.4,999.23,0.11,0.17,0.18],
    [5167,363171,"Vazduh","Libelium","0004A30B0021DF70",44.979,16.7091,"","","Prijedor","",28538577,"2024-09-25T16:25:13",3,"NO ERROR",28.59,58.6,998.95,0.05,0.06,0.06],
    [5168,363171,"Vazduh","Libelium","0004A30B0021DF70",44.979,16.7091,"","","Prijedor","",28539080,"2024-09-25T17:26:01",3,"NO ERROR",23.78,82.2,998.73,0.12,0.14,0.14],
    [5169,363171,"Vazduh","Libelium","0004A30B0021DF70",44.979,16.7091,"","","Prijedor","",28539561,"2024-09-25T18:26:43",3,"NO ERROR",22.83,87,999.05,0.16,0.37,0.77],
    [5170,363171,"Vazduh","Libelium","0004A30B0021DF70",44.979,16.7091,"","","Prijedor","",28539968,"2024-09-25T19:27:25",3,"NO ERROR",19.48,100,999.76,0.36,0.44,0.45],
    [5171,363171,"Vazduh","Libelium","0004A30B0021DF70",44.979,16.7091,"","","Prijedor","",28540421,"2024-09-25T20:28:08",3,"NO ERROR",18.08,100,999.98,0.19,0.22,0.22],
    [5172,363171,"Vazduh","Libelium","0004A30B0021DF70",44.979,16.7091,"","","Prijedor","",28540936,"2024-09-25T21:28:50",3,"NO ERROR",16.78,100,1000.1,0.47,0.72,1.18],
    [5173,363171,"Vazduh","Libelium","0004A30B0021DF70",44.979,16.7091,"","","Prijedor","",28541435,"2024-09-25T22:29:32",3,"NO ERROR",15.56,100,1000.59,0.26,0.39,0.41],
    [5174,363171,"Vazduh","Libelium","0004A30B0021DF70",44.979,16.7091,"","","Prijedor","",28541922,"2024-09-25T23:30:14",3,"NO ERROR",15.01,100,1000.35,0.58,0.61,0.61],
    [5175,363171,"Vazduh","Libelium","0004A30B0021DF70",44.979,16.7091,"","","Prijedor","",28542883,"2024-09-26T00:30:56",3,"NO ERROR",15.06,100,999.78,0.28,0.37,0.37],
    [5176,363171,"Vazduh","Libelium","0004A30B0021DF70",44.979,16.7091,"","","Prijedor","",28543529,"2024-09-26T01:31:38",3,"NO ERROR",15.03,100,999.42,0.13,0.26,0.34],
    [5177,363171,"Vazduh","Libelium","0004A30B0021DF70",44.979,16.7091,"","","Prijedor","",28544049,"2024-09-26T02:32:20",3,"NO ERROR",14.94,100,998.93,0.38,0.61,0.64],
    [5178,363171,"Vazduh","Libelium","0004A30B0021DF70",44.979,16.7091,"","","Prijedor","",28544553,"2024-09-26T03:33:02",3,"NO ERROR",15.58,100,998.46,0.18,0.22,0.22],
    [5179,363171,"Vazduh","Libelium","0004A30B0021DF70",44.979,16.7091,"","","Prijedor","",28545006,"2024-09-26T04:33:50",3,"NO ERROR",14.69,100,997.92,0.19,0.31,0.33],
    [5180,363171,"Vazduh","Libelium","0004A30B0021DF70",44.979,16.7091,"","","Prijedor","",28545499,"2024-09-26T05:34:32",3,"NO ERROR",14.78,100,997.66,0.1,0.13,0.13],
    [5181,363171,"Vazduh","Libelium","0004A30B0021DF70",44.979,16.7091,"","","Prijedor","",28545984,"2024-09-26T06:35:20",3,"NO ERROR",14.72,100,997.47,0.32,0.51,0.55],
    [5182,363171,"Vazduh","Libelium","0004A30B0021DF70",44.979,16.7091,"","","Prijedor","",28546475,"2024-09-26T07:36:09",3,"NO ERROR",16.6,100,997.34,0.36,0.59,0.68],
    [5183,363171,"Vazduh","Libelium","0004A30B0021DF70",44.979,16.7091,"","","Prijedor","",28546959,"2024-09-26T08:36:50",3,"NO ERROR",22.54,87,997.42,0.28,0.38,0.38],
    [5184,363171,"Vazduh","Libelium","0004A30B0021DF70",44.979,16.7091,"","","Prijedor","",28547395,"2024-09-26T09:37:33",3,"NO ERROR",25.93,70.8,997.37,0.07,0.11,0.12],
    [5185,363171,"Vazduh","Libelium","0004A30B0021DF70",44.979,16.7091,"","","Prijedor","",28547895,"2024-09-26T10:38:27",3,"NO ERROR",26.4,69,997.54,0.23,0.33,0.36],
    [5186,363171,"Vazduh","Libelium","0004A30B0021DF70",44.979,16.7091,"","","Prijedor","",28548370,"2024-09-26T11:39:09",3,"NO ERROR",26.85,54.8,997.51,0.06,0.13,0.21],
    [5187,363171,"Vazduh","Libelium","0004A30B0021DF70",44.979,16.7091,"","","Prijedor","",28548864,"2024-09-26T12:39:51",3,"NO ERROR",27.21,54.3,997.58,0.13,0.14,0.14],
    [5188,363171,"Vazduh","Libelium","0004A30B0021DF70",44.979,16.7091,"","","Prijedor","",28549405,"2024-09-26T13:40:33",3,"NO ERROR",27,57,997.41,0.06,0.11,0.11],
    [5189,363171,"Vazduh","Libelium","0004A30B0021DF70",44.979,16.7091,"","","Prijedor","",28549909,"2024-09-26T14:41:15",3,"NO ERROR",31.36,48.4,996.86,0.12,0.14,0.14],
    [5190,363171,"Vazduh","Libelium","0004A30B0021DF70",44.979,16.7091,"","","Prijedor","",28550359,"2024-09-26T15:41:57",3,"NO ERROR",29.15,51.5,996.27,0.15,0.24,0.25],
    [5191,363171,"Vazduh","Libelium","0004A30B0021DF70",44.979,16.7091,"","","Prijedor","",28550759,"2024-09-26T16:42:39",3,"NO ERROR",29.88,47.6,995.82,0.13,0.16,0.16],
    [5192,363171,"Vazduh","Libelium","0004A30B0021DF70",44.979,16.7091,"","","Prijedor","",28551138,"2024-09-26T17:43:21",3,"NO ERROR",25.6,54.3,995.75,0.12,0.14,0.14],
    [5193,363171,"Vazduh","Libelium","0004A30B0021DF70",44.979,16.7091,"","","Prijedor","",28551482,"2024-09-26T18:44:03",3,"NO ERROR",23.63,59.5,995.13,0.18,0.29,0.3],
    [5194,363171,"Vazduh","Libelium","0004A30B0021DF70",44.979,16.7091,"","","Prijedor","",28551799,"2024-09-26T19:44:45",3,"NO ERROR",21.83,73.2,995.03,0.33,0.38,0.38],
    [5195,363171,"Vazduh","Libelium","0004A30B0021DF70",44.979,16.7091,"","","Prijedor","",28552156,"2024-09-26T20:45:28",3,"NO ERROR",22.66,66.3,994.7,0.02,0.02,0.02],
    [5196,363171,"Vazduh","Libelium","0004A30B0021DF70",44.979,16.7091,"","","Prijedor","",28552536,"2024-09-26T21:46:10",3,"NO ERROR",22.09,67,994.2,0.13,0.14,0.14],
    [5197,363171,"Vazduh","Libelium","0004A30B0021DF70",44.979,16.7091,"","","Prijedor","",28552879,"2024-09-26T22:46:52",3,"NO ERROR",21.05,70.9,994.12,0.2,0.26,0.26],
    [5198,363171,"Vazduh","Libelium","0004A30B0021DF70",44.979,16.7091,"","","Prijedor","",28553260,"2024-09-26T23:47:34",3,"NO ERROR",19.78,78.3,993.76,0.21,0.41,0.61],
    [5199,363171,"Vazduh","Libelium","0004A30B0021DF70",44.979,16.7091,"","","Prijedor","",28553599,"2024-09-27T00:48:16",3,"NO ERROR",19.03,89.7,993.74,0.03,0.03,0.03],
    [5200,363171,"Vazduh","Libelium","0004A30B0021DF70",44.979,16.7091,"","","Prijedor","",28553891,"2024-09-27T01:48:58",3,"NO ERROR",19.09,92.1,994.14,0.16,0.21,0.21],
    [5201,363171,"Vazduh","Libelium","0004A30B0021DF70",44.979,16.7091,"","","Prijedor","",28554247,"2024-09-27T02:49:40",3,"NO ERROR",20.12,88.4,994.32,0.09,0.18,0.19],
    [5202,363171,"Vazduh","Libelium","0004A30B0021DF70",44.979,16.7091,"","","Prijedor","",28554550,"2024-09-27T03:50:22",3,"NO ERROR",19.03,97.5,994.14,0.24,0.35,0.35],
    [5203,363171,"Vazduh","Libelium","0004A30B0021DF70",44.979,16.7091,"","","Prijedor","",28554845,"2024-09-27T04:51:04",3,"NO ERROR",19.55,92.4,993.73,0.2,0.22,0.22],
    [5204,363171,"Vazduh","Libelium","0004A30B0021DF70",44.979,16.7091,"","","Prijedor","",28555229,"2024-09-27T05:51:46",3,"NO ERROR",18.33,100,993.8,0.08,0.1,0.11],
    [5205,363171,"Vazduh","Libelium","0004A30B0021DF70",44.979,16.7091,"","","Prijedor","",28555564,"2024-09-27T06:52:34",3,"NO ERROR",18.8,98.7,993.96,0.21,0.32,0.32],
    [5206,363171,"Vazduh","Libelium","0004A30B0021DF70",44.979,16.7091,"","","Prijedor","",28555918,"2024-09-27T07:53:16",3,"NO ERROR",22.78,77,993.89,0.21,0.23,0.23],
    [5207,363171,"Vazduh","Libelium","0004A30B0021DF70",44.979,16.7091,"","","Prijedor","",28556288,"2024-09-27T08:53:58",3,"NO ERROR",25.72,65.1,993.98,0.13,0.21,0.23],
    [5208,363171,"Vazduh","Libelium","0004A30B0021DF70",44.979,16.7091,"","","Prijedor","",28556601,"2024-09-27T09:54:41",3,"NO ERROR",28.83,51.4,994.1,0.1,0.15,0.15],
    [5209,363171,"Vazduh","Libelium","0004A30B0021DF70",44.979,16.7091,"","","Prijedor","",28556966,"2024-09-27T10:55:23",3,"NO ERROR",30.49,47.1,993.82,0.05,0.05,0.05],
    [5210,363171,"Vazduh","Libelium","0004A30B0021DF70",44.979,16.7091,"","","Prijedor","",28557367,"2024-09-27T11:56:05",3,"NO ERROR",29.84,47.8,993.44,0.24,0.27,0.27],
    [5211,363171,"Vazduh","Libelium","0004A30B0021DF70",44.979,16.7091,"","","Prijedor","",28557771,"2024-09-27T12:56:47",3,"NO ERROR",31.05,45.2,993.1,0.06,0.06,0.06],
    [5212,363171,"Vazduh","Libelium","0004A30B0021DF70",44.979,16.7091,"","","Prijedor","",28558204,"2024-09-27T13:57:29",3,"NO ERROR",31.92,46.2,992.59,0.09,0.1,0.1],
    [5213,363171,"Vazduh","Libelium","0004A30B0021DF70",44.979,16.7091,"","","Prijedor","",28570459,"2024-09-30T07:43:34",3,"NO ERROR",3.72,100,1009.76,2.12,6.57,28.75],
    [5214,363171,"Vazduh","Libelium","0004A30B0021DF70",44.979,16.7091,"","","Prijedor","",28570776,"2024-09-30T08:44:16",3,"NO ERROR",5.02,100,1009.31,0.78,2.12,22.99],
    [5215,363171,"Vazduh","Libelium","0004A30B0021DF70",44.979,16.7091,"","","Prijedor","",28571072,"2024-09-30T09:44:58",3,"NO ERROR",7.87,100,1009.57,0.03,0.03,0.03],
    [5216,363171,"Vazduh","Libelium","0004A30B0021DF70",44.979,16.7091,"","","Prijedor","",28571394,"2024-09-30T10:45:40",3,"NO ERROR",12,94.5,1008.79,0.24,0.35,0.36],
    [5217,363171,"Vazduh","Libelium","0004A30B0021DF70",44.979,16.7091,"","","Prijedor","",28571743,"2024-09-30T11:46:22",3,"NO ERROR",14.49,75.3,1008.39,0.09,0.21,0.25],
    [5218,363171,"Vazduh","Libelium","0004A30B0021DF70",44.979,16.7091,"","","Prijedor","",28572039,"2024-09-30T12:47:04",3,"NO ERROR",15.89,58,1007.76,0.05,0.05,0.05],
    [5219,363171,"Vazduh","Libelium","0004A30B0021DF70",44.979,16.7091,"","","Prijedor","",28572407,"2024-09-30T13:47:46",3,"NO ERROR",16.43,50.6,1006.06,0.02,0.02,0.02],
    [5220,363171,"Vazduh","Libelium","0004A30B0021DF70",44.979,16.7091,"","","Prijedor","",28572761,"2024-09-30T14:48:29",3,"NO ERROR",19.94,45.9,1006.26,0.05,0.05,0.05],
    [5221,363171,"Vazduh","Libelium","0004A30B0021DF70",44.979,16.7091,"","","Prijedor","",28573097,"2024-09-30T15:49:11",3,"NO ERROR",21.6,41.1,1005.35,0.02,0.1,0.4],
    [5222,363171,"Vazduh","Libelium","0004A30B0021DF70",44.979,16.7091,"","","Prijedor","",28573422,"2024-09-30T16:49:53",3,"NO ERROR",18.61,43.2,1005.11,0.02,0.06,0.07],
    [5223,363171,"Vazduh","Libelium","0004A30B0021DF70",44.979,16.7091,"","","Prijedor","",28573727,"2024-09-30T17:50:35",3,"NO ERROR",15.01,50.6,1005.1,0.02,0.02,0.02],
    [5224,363171,"Vazduh","Libelium","0004A30B0021DF70",44.979,16.7091,"","","Prijedor","",28574012,"2024-09-30T18:51:17",3,"NO ERROR",12.93,62.1,1005.27,0.27,0.41,0.42],
    [5225,363171,"Vazduh","Libelium","0004A30B0021DF70",44.979,16.7091,"","","Prijedor","",28574297,"2024-09-30T19:51:59",3,"NO ERROR",10.57,94.9,1005.71,0.1,0.18,0.25],
    [5226,363171,"Vazduh","Libelium","0004A30B0021DF70",44.979,16.7091,"","","Prijedor","",28574630,"2024-09-30T20:52:41",3,"NO ERROR",8.94,100,1006.09,0.11,0.15,0.15],
    [5227,363171,"Vazduh","Libelium","0004A30B0021DF70",44.979,16.7091,"","","Prijedor","",28574996,"2024-09-30T21:53:23",3,"NO ERROR",7.53,100,1006.11,0.07,0.09,0.09],
    [5228,363171,"Vazduh","Libelium","0004A30B0021DF70",44.979,16.7091,"","","Prijedor","",28575359,"2024-09-30T22:54:05",3,"NO ERROR",6.66,100,1005.57,0.08,0.12,0.13],
    [5229,363171,"Vazduh","Libelium","0004A30B0021DF70",44.979,16.7091,"","","Prijedor","",28575732,"2024-09-30T23:54:47",3,"NO ERROR",5.64,100,1005.56,0.11,0.12,0.12],
    [5230,363171,"Vazduh","Libelium","0004A30B0021DF70",44.979,16.7091,"","","Prijedor","",28576051,"2024-10-01T00:55:29",3,"NO ERROR",5.39,100,1005.1,0.07,0.07,0.07],
    [5231,363171,"Vazduh","Libelium","0004A30B0021DF70",44.979,16.7091,"","","Prijedor","",28576341,"2024-10-01T01:56:11",3,"NO ERROR",4.55,100,1005.16,0.03,0.05,0.05],
    [5232,363171,"Vazduh","Libelium","0004A30B0021DF70",44.979,16.7091,"","","Prijedor","",28576685,"2024-10-01T02:56:54",3,"NO ERROR",4,100,1004.89,0.11,0.28,0.67],
    [5233,363171,"Vazduh","Libelium","0004A30B0021DF70",44.979,16.7091,"","","Prijedor","",28576963,"2024-10-01T03:57:36",3,"NO ERROR",4.06,100,1004.7,0.47,0.5,0.5],
    [5234,363171,"Vazduh","Libelium","0004A30B0021DF70",44.979,16.7091,"","","Prijedor","",28577271,"2024-10-01T04:58:18",3,"NO ERROR",4.32,100,1004.46,0.12,0.26,0.35],
    [5235,363171,"Vazduh","Libelium","0004A30B0021DF70",44.979,16.7091,"","","Prijedor","",28577678,"2024-10-01T05:59:00",3,"NO ERROR",4.7,100,1004.51,0.69,3.84,29.76],
    [5236,363171,"Vazduh","Libelium","0004A30B0021DF70",44.979,16.7091,"","","Prijedor","",28578024,"2024-10-01T06:59:42",3,"NO ERROR",3.71,100,1004.31,0.3,0.38,0.38],
    [5237,363171,"Vazduh","Libelium","0004A30B0021DF70",44.979,16.7091,"","","Prijedor","",28578364,"2024-10-01T08:00:24",3,"NO ERROR",5.01,100,1004.39,0.16,0.19,0.19],
    [5238,363171,"Vazduh","Libelium","0004A30B0021DF70",44.979,16.7091,"","","Prijedor","",28578705,"2024-10-01T09:01:06",3,"NO ERROR",10.11,100,1004.28,0.22,0.28,0.28],
    [5239,363171,"Vazduh","Libelium","0004A30B0021DF70",44.979,16.7091,"","","Prijedor","",28578991,"2024-10-01T10:01:48",3,"NO ERROR",11.69,97.3,1003.82,0.02,0.02,0.02],
    [5240,363171,"Vazduh","Libelium","0004A30B0021DF70",44.979,16.7091,"","","Prijedor","",28579326,"2024-10-01T11:02:30",3,"NO ERROR",14.27,72.4,1002.94,0.03,0.03,0.03],
    [5241,363171,"Vazduh","Libelium","0004A30B0021DF70",44.979,16.7091,"","","Prijedor","",28579661,"2024-10-01T12:03:12",3,"NO ERROR",16.13,66.1,1002.35,0.04,0.08,0.09],
    [5242,363171,"Vazduh","Libelium","0004A30B0021DF70",44.979,16.7091,"","","Prijedor","",28579957,"2024-10-01T13:03:54",3,"NO ERROR",18.93,54.3,1001.53,0,0.04,0.06],
    [5243,363171,"Vazduh","Libelium","0004A30B0021DF70",44.979,16.7091,"","","Prijedor","",28580318,"2024-10-01T14:04:36",3,"NO ERROR",20.55,47.4,1000.83,0.08,0.09,0.09],
    [5244,363171,"Vazduh","Libelium","0004A30B0021DF70",44.979,16.7091,"","","Prijedor","",28580696,"2024-10-01T15:05:19",3,"NO ERROR",23.42,42.3,1000.01,0.08,0.11,0.11],
    [5245,363171,"Vazduh","Libelium","0004A30B0021DF70",44.979,16.7091,"","","Prijedor","",28581017,"2024-10-01T16:06:01",3,"NO ERROR",25.63,41.3,999.6,0.09,0.14,0.15],
    [5246,363171,"Vazduh","Libelium","0004A30B0021DF70",44.979,16.7091,"","","Prijedor","",28581341,"2024-10-01T17:06:43",3,"NO ERROR",21.16,62.4,999.27,0.13,0.14,0.14],
    [5247,363171,"Vazduh","Libelium","0004A30B0021DF70",44.979,16.7091,"","","Prijedor","",28581656,"2024-10-01T18:07:25",3,"NO ERROR",18.49,72,999.11,0.14,0.15,0.15],
    [5248,363171,"Vazduh","Libelium","0004A30B0021DF70",44.979,16.7091,"","","Prijedor","",28581967,"2024-10-01T19:08:13",3,"NO ERROR",16.88,86,998.95,0.41,0.6,0.61],
    [5249,363171,"Vazduh","Libelium","0004A30B0021DF70",44.979,16.7091,"","","Prijedor","",28582258,"2024-10-01T20:08:55",3,"NO ERROR",15.95,100,998.75,0.11,0.16,0.16],
    [5250,363171,"Vazduh","Libelium","0004A30B0021DF70",44.979,16.7091,"","","Prijedor","",28582606,"2024-10-01T21:09:37",3,"NO ERROR",14.68,100,998.6,0.1,0.16,0.16],
    [5251,363171,"Vazduh","Libelium","0004A30B0021DF70",44.979,16.7091,"","","Prijedor","",28582934,"2024-10-01T22:10:19",3,"NO ERROR",15.05,92.7,998.34,0.04,0.05,0.05],
    [5252,363171,"Vazduh","Libelium","0004A30B0021DF70",44.979,16.7091,"","","Prijedor","",28583265,"2024-10-01T23:11:01",3,"NO ERROR",14.57,97.7,997.92,0.16,0.17,0.17],
    [5253,363171,"Vazduh","Libelium","0004A30B0021DF70",44.979,16.7091,"","","Prijedor","",28583602,"2024-10-02T00:11:43",3,"NO ERROR",14.08,100,997.54,0.19,0.33,0.36],
    [5254,363171,"Vazduh","Libelium","0004A30B0021DF70",44.979,16.7091,"","","Prijedor","",28583900,"2024-10-02T01:12:25",3,"NO ERROR",13.36,100,997.33,0.21,0.31,0.32],
    [5255,363171,"Vazduh","Libelium","0004A30B0021DF70",44.979,16.7091,"","","Prijedor","",28584174,"2024-10-02T02:13:07",3,"NO ERROR",13.52,100,996.93,0.3,0.35,0.35],
    [5256,363171,"Vazduh","Libelium","0004A30B0021DF70",44.979,16.7091,"","","Prijedor","",28584483,"2024-10-02T03:13:49",3,"NO ERROR",13.65,100,996.24,0.07,0.07,0.07],
    [5257,363171,"Vazduh","Libelium","0004A30B0021DF70",44.979,16.7091,"","","Prijedor","",28584776,"2024-10-02T04:14:31",3,"NO ERROR",12.92,100,995.51,0.21,0.26,0.26],
    [5258,363171,"Vazduh","Libelium","0004A30B0021DF70",44.979,16.7091,"","","Prijedor","",28585083,"2024-10-02T05:15:13",3,"NO ERROR",12.49,100,994.9,0.28,0.31,0.31],
    [5259,363171,"Vazduh","Libelium","0004A30B0021DF70",44.979,16.7091,"","","Prijedor","",28585476,"2024-10-02T06:15:56",3,"NO ERROR",12.89,100,994.33,0.24,0.36,0.37],
    [5260,363171,"Vazduh","Libelium","0004A30B0021DF70",44.979,16.7091,"","","Prijedor","",28585805,"2024-10-02T07:16:38",3,"NO ERROR",12.16,100,994.11,0.34,0.46,0.46],
    [5261,363171,"Vazduh","Libelium","0004A30B0021DF70",44.979,16.7091,"","","Prijedor","",28586143,"2024-10-02T08:17:20",3,"NO ERROR",14.04,100,994.19,0.28,0.4,0.41],
    [5262,363171,"Vazduh","Libelium","0004A30B0021DF70",44.979,16.7091,"","","Prijedor","",28586504,"2024-10-02T09:18:02",3,"NO ERROR",16.01,100,993.97,0.03,0.09,0.11],
    [5263,363171,"Vazduh","Libelium","0004A30B0021DF70",44.979,16.7091,"","","Prijedor","",28586832,"2024-10-02T10:18:44",3,"NO ERROR",17.49,97.4,994.07,0.12,0.24,0.27],
    [5264,363171,"Vazduh","Libelium","0004A30B0021DF70",44.979,16.7091,"","","Prijedor","",28587122,"2024-10-02T11:19:26",3,"NO ERROR",20.34,82.9,993.86,0.33,0.56,0.58],
    [5265,363171,"Vazduh","Libelium","0004A30B0021DF70",44.979,16.7091,"","","Prijedor","",28587440,"2024-10-02T12:20:08",3,"NO ERROR",20.76,88.3,993.48,0.09,0.15,0.16],
    [5266,363171,"Vazduh","Libelium","0004A30B0021DF70",44.979,16.7091,"","","Prijedor","",28587802,"2024-10-02T13:20:56",3,"NO ERROR",21.42,92.3,992.7,0.11,0.12,0.12],
    [5267,363171,"Vazduh","Libelium","0004A30B0021DF70",44.979,16.7091,"","","Prijedor","",28588160,"2024-10-02T14:21:38",3,"NO ERROR",21.98,89.7,992.21,0.05,0.05,0.05],
    [5268,363171,"Vazduh","Libelium","0004A30B0021DF70",44.979,16.7091,"","","Prijedor","",28588519,"2024-10-02T15:22:20",3,"NO ERROR",23.48,72.9,991.73,0.04,0.07,0.07],
    [5269,363171,"Vazduh","Libelium","0004A30B0021DF70",44.979,16.7091,"","","Prijedor","",28588862,"2024-10-02T16:23:02",3,"NO ERROR",22.63,72,991.31,0.08,0.11,0.11],
    [5270,363171,"Vazduh","Libelium","0004A30B0021DF70",44.979,16.7091,"","","Prijedor","",28589168,"2024-10-02T17:23:44",3,"NO ERROR",21.42,87.2,991.14,0.21,0.42,0.58],
    [5271,363171,"Vazduh","Libelium","0004A30B0021DF70",44.979,16.7091,"","","Prijedor","",28589528,"2024-10-02T18:24:27",3,"NO ERROR",19.85,100,991.4,0.14,0.46,1.11],
    [5272,363171,"Vazduh","Libelium","0004A30B0021DF70",44.979,16.7091,"","","Prijedor","",28589803,"2024-10-02T19:25:21",3,"NO ERROR",19.09,100,991.61,0.43,0.63,0.74],
    [5273,363171,"Vazduh","Libelium","0004A30B0021DF70",44.979,16.7091,"","","Prijedor","",28590087,"2024-10-02T20:26:03",3,"NO ERROR",19.59,95.8,992.01,0.19,0.22,0.22],
    [5274,363171,"Vazduh","Libelium","0004A30B0021DF70",44.979,16.7091,"","","Prijedor","",28590490,"2024-10-02T21:26:45",3,"NO ERROR",16.83,100,992.55,0.05,0.1,0.1],
    [5275,363171,"Vazduh","Libelium","0004A30B0021DF70",44.979,16.7091,"","","Prijedor","",28590826,"2024-10-02T22:27:27",3,"NO ERROR",15.13,100,992.95,0.31,0.44,0.45],
    [5276,363171,"Vazduh","Libelium","0004A30B0021DF70",44.979,16.7091,"","","Prijedor","",28591132,"2024-10-02T23:28:09",3,"NO ERROR",14.75,100,993.35,0.1,0.13,0.13],
    [5277,363171,"Vazduh","Libelium","0004A30B0021DF70",44.979,16.7091,"","","Prijedor","",28591495,"2024-10-03T00:28:51",3,"NO ERROR",14.23,100,993.44,0.08,0.1,0.1],
    [5278,363171,"Vazduh","Libelium","0004A30B0021DF70",44.979,16.7091,"","","Prijedor","",28591806,"2024-10-03T01:29:33",3,"NO ERROR",14.37,100,993.72,0.08,0.12,0.13],
    [5279,363171,"Vazduh","Libelium","0004A30B0021DF70",44.979,16.7091,"","","Prijedor","",28592094,"2024-10-03T02:30:15",3,"NO ERROR",14.31,100,993.84,0.03,0.03,0.03],
    [5280,363171,"Vazduh","Libelium","0004A30B0021DF70",44.979,16.7091,"","","Prijedor","",28592409,"2024-10-03T03:30:57",3,"NO ERROR",14.12,100,993.58,0.06,0.08,0.09],
    [5281,363171,"Vazduh","Libelium","0004A30B0021DF70",44.979,16.7091,"","","Prijedor","",28592675,"2024-10-03T04:31:39",3,"NO ERROR",13.74,100,993.25,0.05,0.05,0.05],
    [5282,363171,"Vazduh","Libelium","0004A30B0021DF70",44.979,16.7091,"","","Prijedor","",28593030,"2024-10-03T05:32:21",3,"NO ERROR",13.48,100,993.18,0,0,0],
    [5283,363171,"Vazduh","Libelium","0004A30B0021DF70",44.979,16.7091,"","","Prijedor","",28593397,"2024-10-03T06:33:03",3,"NO ERROR",12.83,100,993.35,0.02,0.02,0.02],
    [5284,363171,"Vazduh","Libelium","0004A30B0021DF70",44.979,16.7091,"","","Prijedor","",28593748,"2024-10-03T07:33:45",3,"NO ERROR",12.76,100,993.45,0.03,0.03,0.03],
    [5285,363171,"Vazduh","Libelium","0004A30B0021DF70",44.979,16.7091,"","","Prijedor","",28594068,"2024-10-03T08:34:28",3,"NO ERROR",13.3,100,993.62,0.13,0.16,0.16],
    [5286,363171,"Vazduh","Libelium","0004A30B0021DF70",44.979,16.7091,"","","Prijedor","",28594410,"2024-10-03T09:35:10",3,"NO ERROR",13.39,100,994.42,0.07,0.08,0.08],
    [5287,363171,"Vazduh","Libelium","0004A30B0021DF70",44.979,16.7091,"","","Prijedor","",28594703,"2024-10-03T10:35:52",3,"NO ERROR",12.83,100,994.27,0.04,0.08,0.09],
    [5288,363171,"Vazduh","Libelium","0004A30B0021DF70",44.979,16.7091,"","","Prijedor","",28595004,"2024-10-03T11:36:34",3,"NO ERROR",12.79,100,994.5,0.05,0.08,0.08],
    [5289,363171,"Vazduh","Libelium","0004A30B0021DF70",44.979,16.7091,"","","Prijedor","",28595327,"2024-10-03T12:37:16",3,"NO ERROR",12.41,100,994.29,0.02,0.02,0.02],
    [5290,363171,"Vazduh","Libelium","0004A30B0021DF70",44.979,16.7091,"","","Prijedor","",28595692,"2024-10-03T13:37:58",3,"NO ERROR",12.51,100,993.97,0.05,0.08,0.08],
    [5291,363171,"Vazduh","Libelium","0004A30B0021DF70",44.979,16.7091,"","","Prijedor","",28596023,"2024-10-03T14:38:40",3,"NO ERROR",12.49,100,993.96,0.05,0.05,0.05],
    [5292,363171,"Vazduh","Libelium","0004A30B0021DF70",44.979,16.7091,"","","Prijedor","",28596359,"2024-10-03T15:39:22",3,"NO ERROR",12.79,100,993.51,0.08,0.09,0.09],
    [5293,363171,"Vazduh","Libelium","0004A30B0021DF70",44.979,16.7091,"","","Prijedor","",28596679,"2024-10-03T16:40:04",3,"NO ERROR",12.54,100,993.27,0.02,0.02,0.02],
    [5294,363171,"Vazduh","Libelium","0004A30B0021DF70",44.979,16.7091,"","","Prijedor","",28596968,"2024-10-03T17:40:46",3,"NO ERROR",12.46,100,993.34,0.17,0.23,0.24],
    [5295,363171,"Vazduh","Libelium","0004A30B0021DF70",44.979,16.7091,"","","Prijedor","",28597238,"2024-10-03T18:41:28",3,"NO ERROR",12.23,100,992.77,0.07,0.07,0.07],
    [5296,363171,"Vazduh","Libelium","0004A30B0021DF70",44.979,16.7091,"","","Prijedor","",28598169,"2024-10-03T21:43:34",3,"NO ERROR",12.02,100,992.26,0.08,0.09,0.09],
    [5297,363171,"Vazduh","Libelium","0004A30B0021DF70",44.979,16.7091,"","","Prijedor","",28598480,"2024-10-03T22:44:17",3,"NO ERROR",12.13,100,991.65,0.08,0.14,0.14],
    [5298,363171,"Vazduh","Libelium","0004A30B0021DF70",44.979,16.7091,"","","Prijedor","",28598829,"2024-10-03T23:45:05",3,"NO ERROR",11.89,100,990.94,0,0,0],
    [5299,363171,"Vazduh","Libelium","0004A30B0021DF70",44.979,16.7091,"","","Prijedor","",28599137,"2024-10-04T00:45:47",3,"NO ERROR",11.69,100,991.11,0.07,0.15,0.22],
    [5300,363171,"Vazduh","Libelium","0004A30B0021DF70",44.979,16.7091,"","","Prijedor","",28599432,"2024-10-04T01:46:29",3,"NO ERROR",11.59,100,990.56,0,0,0],
    [5301,363171,"Vazduh","Libelium","0004A30B0021DF70",44.979,16.7091,"","","Prijedor","",28599730,"2024-10-04T02:47:11",3,"NO ERROR",11.54,100,990.34,0,0,0],
    [5302,363171,"Vazduh","Libelium","0004A30B0021DF70",44.979,16.7091,"","","Prijedor","",28600003,"2024-10-04T03:47:53",3,"NO ERROR",11.68,100,990.12,0,0,0],
    [5303,363171,"Vazduh","Libelium","0004A30B0021DF70",44.979,16.7091,"","","Prijedor","",28600318,"2024-10-04T04:48:35",3,"NO ERROR",11.72,100,990.24,0,0.04,0.06],
    [5304,363171,"Vazduh","Libelium","0004A30B0021DF70",44.979,16.7091,"","","Prijedor","",28600677,"2024-10-04T05:49:17",3,"NO ERROR",11.66,100,990.14,0.02,0.02,0.02],
    [5305,363171,"Vazduh","Libelium","0004A30B0021DF70",44.979,16.7091,"","","Prijedor","",28600993,"2024-10-04T06:49:59",3,"NO ERROR",11.71,100,990.6,0.03,0.04,0.04],
    [5306,363171,"Vazduh","Libelium","0004A30B0021DF70",44.979,16.7091,"","","Prijedor","",28601365,"2024-10-04T07:50:41",3,"NO ERROR",11.38,100,991.85,0,0.04,0.06],
    [5307,363171,"Vazduh","Libelium","0004A30B0021DF70",44.979,16.7091,"","","Prijedor","",28601695,"2024-10-04T08:51:23",3,"NO ERROR",11.24,100,992.95,0,0,0],
    [5308,363171,"Vazduh","Libelium","0004A30B0021DF70",44.979,16.7091,"","","Prijedor","",28601973,"2024-10-04T09:52:05",3,"NO ERROR",11.37,100,994.12,0.02,0.04,0.04],
    [5309,363171,"Vazduh","Libelium","0004A30B0021DF70",44.979,16.7091,"","","Prijedor","",28602297,"2024-10-04T10:52:47",3,"NO ERROR",11.93,100,994.7,0.02,0.02,0.02],
    [5310,363171,"Vazduh","Libelium","0004A30B0021DF70",44.979,16.7091,"","","Prijedor","",28602612,"2024-10-04T11:53:29",3,"NO ERROR",13.06,100,994.96,0.02,0.02,0.02],
    [5311,363171,"Vazduh","Libelium","0004A30B0021DF70",44.979,16.7091,"","","Prijedor","",28602942,"2024-10-04T12:54:12",3,"NO ERROR",13.07,100,995.25,0,0,0],
    [5312,363171,"Vazduh","Libelium","0004A30B0021DF70",44.979,16.7091,"","","Prijedor","",28603353,"2024-10-04T13:54:54",3,"NO ERROR",13.09,100,995.53,0.02,0.02,0.02],
    [5313,363171,"Vazduh","Libelium","0004A30B0021DF70",44.979,16.7091,"","","Prijedor","",28603724,"2024-10-04T14:55:36",3,"NO ERROR",13.49,100,995.8,0.08,0.09,0.09],
    [5314,363171,"Vazduh","Libelium","0004A30B0021DF70",44.979,16.7091,"","","Prijedor","",28604060,"2024-10-04T15:56:18",3,"NO ERROR",13.33,100,995.9,0.07,0.12,0.12],
    [5315,363171,"Vazduh","Libelium","0004A30B0021DF70",44.979,16.7091,"","","Prijedor","",28604396,"2024-10-04T16:57:00",3,"NO ERROR",13.33,100,996.29,0.02,0.06,0.07],
    [5316,363171,"Vazduh","Libelium","0004A30B0021DF70",44.979,16.7091,"","","Prijedor","",28604706,"2024-10-04T17:57:42",3,"NO ERROR",12.52,100,996.66,0.02,0.06,0.07],
    [5317,363171,"Vazduh","Libelium","0004A30B0021DF70",44.979,16.7091,"","","Prijedor","",28604998,"2024-10-04T18:58:30",3,"NO ERROR",12.37,100,997.38,0.14,0.23,0.24],
    [5318,363171,"Vazduh","Libelium","0004A30B0021DF70",44.979,16.7091,"","","Prijedor","",28605302,"2024-10-04T19:59:12",3,"NO ERROR",12.51,100,998.26,0.06,0.12,0.13],
    [5319,363171,"Vazduh","Libelium","0004A30B0021DF70",44.979,16.7091,"","","Prijedor","",28605647,"2024-10-04T21:00:00",3,"NO ERROR",12.45,100,998.38,0,0,0],
    [5320,363171,"Vazduh","Libelium","0004A30B0021DF70",44.979,16.7091,"","","Prijedor","",28606001,"2024-10-04T22:00:42",3,"NO ERROR",12.18,100,998.76,0.03,0.03,0.03],
    [5321,363171,"Vazduh","Libelium","0004A30B0021DF70",44.979,16.7091,"","","Prijedor","",28606364,"2024-10-04T23:01:24",3,"NO ERROR",11.95,100,999.06,0.07,0.27,0.37],
    [5322,363171,"Vazduh","Libelium","0004A30B0021DF70",44.979,16.7091,"","","Prijedor","",28606713,"2024-10-05T00:02:06",3,"NO ERROR",11.71,100,998.82,0.09,0.16,0.17],
    [5323,363171,"Vazduh","Libelium","0004A30B0021DF70",44.979,16.7091,"","","Prijedor","",28607012,"2024-10-05T01:02:48",3,"NO ERROR",11.36,100,998.7,0.04,0.04,0.04],
    [5324,363171,"Vazduh","Libelium","0004A30B0021DF70",44.979,16.7091,"","","Prijedor","",28607321,"2024-10-05T02:03:30",3,"NO ERROR",10.96,100,998.75,0.05,0.1,0.11],
    [5325,363171,"Vazduh","Libelium","0004A30B0021DF70",44.979,16.7091,"","","Prijedor","",28607638,"2024-10-05T03:04:13",3,"NO ERROR",10.8,100,999.12,0.36,0.44,0.44],
    [5326,363171,"Vazduh","Libelium","0004A30B0021DF70",44.979,16.7091,"","","Prijedor","",28607918,"2024-10-05T04:04:55",3,"NO ERROR",10.57,100,998.17,0.43,0.51,0.51],
    [5327,363171,"Vazduh","Libelium","0004A30B0021DF70",44.979,16.7091,"","","Prijedor","",28608201,"2024-10-05T05:05:37",3,"NO ERROR",10.77,100,998.27,0.08,0.09,0.09],
    [5328,363171,"Vazduh","Libelium","0004A30B0021DF70",44.979,16.7091,"","","Prijedor","",28608555,"2024-10-05T06:06:19",3,"NO ERROR",10.59,100,998.56,0.22,0.26,0.26],
    [5329,363171,"Vazduh","Libelium","0004A30B0021DF70",44.979,16.7091,"","","Prijedor","",28608881,"2024-10-05T07:07:01",3,"NO ERROR",10.75,100,998.88,0.08,0.09,0.09],
    [5330,363171,"Vazduh","Libelium","0004A30B0021DF70",44.979,16.7091,"","","Prijedor","",28609225,"2024-10-05T08:07:43",3,"NO ERROR",10.85,100,998.89,0.17,0.23,0.23],
    [5331,363171,"Vazduh","Libelium","0004A30B0021DF70",44.979,16.7091,"","","Prijedor","",28609550,"2024-10-05T09:08:25",3,"NO ERROR",11.21,100,999.36,0.04,0.08,0.09],
    [5332,363171,"Vazduh","Libelium","0004A30B0021DF70",44.979,16.7091,"","","Prijedor","",28609838,"2024-10-05T10:09:07",3,"NO ERROR",12.15,100,999.64,0.1,0.15,0.15],
    [5333,363171,"Vazduh","Libelium","0004A30B0021DF70",44.979,16.7091,"","","Prijedor","",28610178,"2024-10-05T11:09:49",3,"NO ERROR",12.21,100,999.72,0,0,0],
    [5334,363171,"Vazduh","Libelium","0004A30B0021DF70",44.979,16.7091,"","","Prijedor","",28610524,"2024-10-05T12:10:31",3,"NO ERROR",13.04,100,999.46,0.02,0.02,0.02],
    [5335,363171,"Vazduh","Libelium","0004A30B0021DF70",44.979,16.7091,"","","Prijedor","",28610839,"2024-10-05T13:11:13",3,"NO ERROR",12.95,100,999.37,0.03,0.05,0.05],
    [5336,363171,"Vazduh","Libelium","0004A30B0021DF70",44.979,16.7091,"","","Prijedor","",28611206,"2024-10-05T14:11:55",3,"NO ERROR",13.24,100,999.19,0.08,0.19,0.22],
    [5337,363171,"Vazduh","Libelium","0004A30B0021DF70",44.979,16.7091,"","","Prijedor","",28611574,"2024-10-05T15:12:37",3,"NO ERROR",13.45,100,999.04,0.1,0.11,0.11],
    [5338,363171,"Vazduh","Libelium","0004A30B0021DF70",44.979,16.7091,"","","Prijedor","",28611931,"2024-10-05T16:13:19",3,"NO ERROR",13.73,100,998.83,0,0,0],
    [5339,363171,"Vazduh","Libelium","0004A30B0021DF70",44.979,16.7091,"","","Prijedor","",28612255,"2024-10-05T17:14:02",3,"NO ERROR",13.52,100,998.59,0.02,0.09,0.17],
    [5340,363171,"Vazduh","Libelium","0004A30B0021DF70",44.979,16.7091,"","","Prijedor","",28612563,"2024-10-05T18:14:44",3,"NO ERROR",13.28,100,998.75,0.21,0.27,0.27],
    [5341,363171,"Vazduh","Libelium","0004A30B0021DF70",44.979,16.7091,"","","Prijedor","",28612853,"2024-10-05T19:15:26",3,"NO ERROR",13.17,100,998.79,0,0,0],
    [5342,363171,"Vazduh","Libelium","0004A30B0021DF70",44.979,16.7091,"","","Prijedor","",28613171,"2024-10-05T20:16:08",3,"NO ERROR",12.73,100,999.19,0.03,0.03,0.03],
    [5343,363171,"Vazduh","Libelium","0004A30B0021DF70",44.979,16.7091,"","","Prijedor","",28613509,"2024-10-05T21:16:50",3,"NO ERROR",12.39,100,999.19,0.13,0.26,0.29],
    [5344,363171,"Vazduh","Libelium","0004A30B0021DF70",44.979,16.7091,"","","Prijedor","",28613853,"2024-10-05T22:17:32",3,"NO ERROR",12.33,100,999.04,0.03,0.05,0.05],
    [5345,363171,"Vazduh","Libelium","0004A30B0021DF70",44.979,16.7091,"","","Prijedor","",28614176,"2024-10-05T23:18:14",3,"NO ERROR",12.04,100,998.98,0.23,0.31,0.31],
    [5346,363171,"Vazduh","Libelium","0004A30B0021DF70",44.979,16.7091,"","","Prijedor","",28614567,"2024-10-06T00:18:56",3,"NO ERROR",11.95,100,998.73,0.22,0.47,0.96],
    [5347,363171,"Vazduh","Libelium","0004A30B0021DF70",44.979,16.7091,"","","Prijedor","",28614908,"2024-10-06T01:19:38",3,"NO ERROR",11.62,100,998.56,0.06,0.23,0.27],
    [5348,363171,"Vazduh","Libelium","0004A30B0021DF70",44.979,16.7091,"","","Prijedor","",28615186,"2024-10-06T02:20:26",3,"NO ERROR",11.76,100,998.39,0.06,0.25,0.41],
    [5349,363171,"Vazduh","Libelium","0004A30B0021DF70",44.979,16.7091,"","","Prijedor","",28615501,"2024-10-06T03:21:08",3,"NO ERROR",11.52,100,998.03,0.19,0.29,0.3],
    [5350,363171,"Vazduh","Libelium","0004A30B0021DF70",44.979,16.7091,"","","Prijedor","",28615778,"2024-10-06T04:21:50",3,"NO ERROR",11.68,100,997.95,0.16,0.2,0.2],
    [5351,363171,"Vazduh","Libelium","0004A30B0021DF70",44.979,16.7091,"","","Prijedor","",28616113,"2024-10-06T05:22:32",3,"NO ERROR",11.65,100,998.02,0.03,0.03,0.03],
    [5352,363171,"Vazduh","Libelium","0004A30B0021DF70",44.979,16.7091,"","","Prijedor","",28616456,"2024-10-06T06:23:15",3,"NO ERROR",11.49,100,998.07,0.13,0.14,0.14],
    [5353,363171,"Vazduh","Libelium","0004A30B0021DF70",44.979,16.7091,"","","Prijedor","",28616781,"2024-10-06T07:23:57",3,"NO ERROR",11.47,100,998.21,0.03,0.05,0.05],
    [5354,363171,"Vazduh","Libelium","0004A30B0021DF70",44.979,16.7091,"","","Prijedor","",28617119,"2024-10-06T08:24:39",3,"NO ERROR",12.24,100,998.61,0.06,0.08,0.09],
    [5355,363171,"Vazduh","Libelium","0004A30B0021DF70",44.979,16.7091,"","","Prijedor","",28617454,"2024-10-06T09:25:21",3,"NO ERROR",13.6,100,999.03,0.03,0.05,0.05],
    [5356,363171,"Vazduh","Libelium","0004A30B0021DF70",44.979,16.7091,"","","Prijedor","",28617767,"2024-10-06T10:26:03",3,"NO ERROR",14.09,100,999.23,0.22,0.26,0.26],
    [5357,363171,"Vazduh","Libelium","0004A30B0021DF70",44.979,16.7091,"","","Prijedor","",28618057,"2024-10-06T11:26:45",3,"NO ERROR",16.61,100,999.12,0.02,0.02,0.02],
    [5358,363171,"Vazduh","Libelium","0004A30B0021DF70",44.979,16.7091,"","","Prijedor","",28618400,"2024-10-06T12:27:27",3,"NO ERROR",16.84,96.2,998.82,0.03,0.06,0.06],
    [5359,363171,"Vazduh","Libelium","0004A30B0021DF70",44.979,16.7091,"","","Prijedor","",28618774,"2024-10-06T13:28:21",3,"NO ERROR",15.87,100,998.61,0.03,0.09,0.11],
    [5360,363171,"Vazduh","Libelium","0004A30B0021DF70",44.979,16.7091,"","","Prijedor","",28619122,"2024-10-06T14:29:03",3,"NO ERROR",17.97,90.8,997.96,0,0,0],
    [5361,363171,"Vazduh","Libelium","0004A30B0021DF70",44.979,16.7091,"","","Prijedor","",28619485,"2024-10-06T15:29:45",3,"NO ERROR",18.91,71.7,997.85,0,0.07,0.15],
    [5362,363171,"Vazduh","Libelium","0004A30B0021DF70",44.979,16.7091,"","","Prijedor","",28619812,"2024-10-06T16:30:27",3,"NO ERROR",17.7,80.6,997.82,0.02,0.02,0.02],
    [5363,363171,"Vazduh","Libelium","0004A30B0021DF70",44.979,16.7091,"","","Prijedor","",28620154,"2024-10-06T17:31:09",3,"NO ERROR",15.97,94.7,997.74,0.02,0.02,0.02],
    [5364,363171,"Vazduh","Libelium","0004A30B0021DF70",44.979,16.7091,"","","Prijedor","",28620466,"2024-10-06T18:31:51",3,"NO ERROR",13.91,100,998,0.03,0.09,0.11],
    [5365,363171,"Vazduh","Libelium","0004A30B0021DF70",44.979,16.7091,"","","Prijedor","",28620758,"2024-10-06T19:32:33",3,"NO ERROR",12.72,100,998.03,0.16,0.22,0.24],
    [5366,363171,"Vazduh","Libelium","0004A30B0021DF70",44.979,16.7091,"","","Prijedor","",28621056,"2024-10-06T20:33:22",3,"NO ERROR",11.22,100,998.68,0.18,0.26,0.27],
    [5367,363171,"Vazduh","Libelium","0004A30B0021DF70",44.979,16.7091,"","","Prijedor","",28621414,"2024-10-06T21:34:04",3,"NO ERROR",10.28,100,998.92,0.17,0.29,0.31],
    [5368,363171,"Vazduh","Libelium","0004A30B0021DF70",44.979,16.7091,"","","Prijedor","",28621735,"2024-10-06T22:34:46",3,"NO ERROR",9.58,100,998.79,0.33,0.37,0.37],
    [5369,363171,"Vazduh","Libelium","0004A30B0021DF70",44.979,16.7091,"","","Prijedor","",28622057,"2024-10-06T23:35:28",3,"NO ERROR",8.76,100,998.81,0.17,0.18,0.18],
    [5370,363171,"Vazduh","Libelium","0004A30B0021DF70",44.979,16.7091,"","","Prijedor","",28622373,"2024-10-07T00:36:10",3,"NO ERROR",8.82,100,998.66,0.22,0.23,0.23],
    [5371,363171,"Vazduh","Libelium","0004A30B0021DF70",44.979,16.7091,"","","Prijedor","",28622662,"2024-10-07T01:36:52",3,"NO ERROR",9.19,100,998.75,5.71,24.66,146.19],
    [5372,363171,"Vazduh","Libelium","0004A30B0021DF70",44.979,16.7091,"","","Prijedor","",28622958,"2024-10-07T02:37:34",3,"NO ERROR",8.57,100,999.08,0.66,3.16,32.66],
    [5373,363171,"Vazduh","Libelium","0004A30B0021DF70",44.979,16.7091,"","","Prijedor","",28623252,"2024-10-07T03:38:16",3,"NO ERROR",7.97,100,999.33,1.55,9.02,105.03],
    [5374,363171,"Vazduh","Libelium","0004A30B0021DF70",44.979,16.7091,"","","Prijedor","",28623525,"2024-10-07T04:39:10",3,"NO ERROR",7.79,100,999.39,0.91,5.3,97.19],
    [5375,363171,"Vazduh","Libelium","0004A30B0021DF70",44.979,16.7091,"","","Prijedor","",28623896,"2024-10-07T05:39:52",3,"NO ERROR",7.18,100,999.6,0.78,5.36,70.81],
    [5376,363171,"Vazduh","Libelium","0004A30B0021DF70",44.979,16.7091,"","","Prijedor","",28624219,"2024-10-07T06:40:40",3,"NO ERROR",6.88,100,999.8,4.13,19.26,266.51],
    [5377,363171,"Vazduh","Libelium","0004A30B0021DF70",44.979,16.7091,"","","Prijedor","",28624553,"2024-10-07T07:41:22",3,"NO ERROR",7.39,100,1000.28,2.16,11.04,128.94],
    [5378,363171,"Vazduh","Libelium","0004A30B0021DF70",44.979,16.7091,"","","Prijedor","",28625210,"2024-10-07T09:42:47",3,"NO ERROR",9.48,100,1001.19,0.51,2.17,16.67],
    [5379,363171,"Vazduh","Libelium","0004A30B0021DF70",44.979,16.7091,"","","Prijedor","",28625525,"2024-10-07T10:43:29",3,"NO ERROR",16.72,100,1001.51,0.03,0.03,0.03],
    [5380,363171,"Vazduh","Libelium","0004A30B0021DF70",44.979,16.7091,"","","Prijedor","",28625864,"2024-10-07T11:44:11",3,"NO ERROR",16.5,100,1001.32,0.02,0.02,0.02],
    [5381,363171,"Vazduh","Libelium","0004A30B0021DF70",44.979,16.7091,"","","Prijedor","",28626190,"2024-10-07T12:44:53",3,"NO ERROR",19.64,84.3,1000.92,0.01,0.03,0.04],
    [5382,363171,"Vazduh","Libelium","0004A30B0021DF70",44.979,16.7091,"","","Prijedor","",28626563,"2024-10-07T13:45:35",3,"NO ERROR",22.87,70.7,1000.38,0.13,0.2,0.21],
    [5383,363171,"Vazduh","Libelium","0004A30B0021DF70",44.979,16.7091,"","","Prijedor","",28626946,"2024-10-07T14:46:17",3,"NO ERROR",25.75,61.2,1000.33,0.05,0.09,0.09],
    [5384,363171,"Vazduh","Libelium","0004A30B0021DF70",44.979,16.7091,"","","Prijedor","",28627299,"2024-10-07T15:46:59",3,"NO ERROR",26.16,59.7,1000.18,0.02,0.03,0.03],
    [5385,363171,"Vazduh","Libelium","0004A30B0021DF70",44.979,16.7091,"","","Prijedor","",28627641,"2024-10-07T16:47:41",3,"NO ERROR",22.43,67.4,1000.17,0.03,0.05,0.05],
    [5386,363171,"Vazduh","Libelium","0004A30B0021DF70",44.979,16.7091,"","","Prijedor","",28627956,"2024-10-07T17:48:23",3,"NO ERROR",20.22,78.8,1000.31,0.03,0.03,0.03],
    [5387,363171,"Vazduh","Libelium","0004A30B0021DF70",44.979,16.7091,"","","Prijedor","",28628248,"2024-10-07T18:49:05",3,"NO ERROR",17.92,96.9,1000.42,0.08,0.12,0.13],
    [5388,363171,"Vazduh","Libelium","0004A30B0021DF70",44.979,16.7091,"","","Prijedor","",28628528,"2024-10-07T19:49:47",3,"NO ERROR",16.02,100,1000.81,0.37,0.39,0.39],
    [5389,363171,"Vazduh","Libelium","0004A30B0021DF70",44.979,16.7091,"","","Prijedor","",28628847,"2024-10-07T20:50:29",3,"NO ERROR",14.78,100,1001.25,0.33,0.4,0.41],
    [5390,363171,"Vazduh","Libelium","0004A30B0021DF70",44.979,16.7091,"","","Prijedor","",28629205,"2024-10-07T21:51:11",3,"NO ERROR",13.85,100,1001.08,0.06,0.23,1.25],
    [5391,363171,"Vazduh","Libelium","0004A30B0021DF70",44.979,16.7091,"","","Prijedor","",28629548,"2024-10-07T22:51:53",3,"NO ERROR",13.19,100,1001.09,0.08,0.11,0.11],
    [5392,363171,"Vazduh","Libelium","0004A30B0021DF70",44.979,16.7091,"","","Prijedor","",28629922,"2024-10-07T23:52:36",3,"NO ERROR",12.22,100,1001.05,0.28,0.44,0.45],
    [5393,363171,"Vazduh","Libelium","0004A30B0021DF70",44.979,16.7091,"","","Prijedor","",28630204,"2024-10-08T00:53:18",3,"NO ERROR",11.65,100,1001.01,0.18,0.2,0.2],
    [5394,363171,"Vazduh","Libelium","0004A30B0021DF70",44.979,16.7091,"","","Prijedor","",28630493,"2024-10-08T01:54:00",3,"NO ERROR",11.23,100,1000.68,0.22,0.25,0.25],
    [5395,363171,"Vazduh","Libelium","0004A30B0021DF70",44.979,16.7091,"","","Prijedor","",28630850,"2024-10-08T02:54:42",3,"NO ERROR",10.32,100,1000.5,0.29,0.53,0.54],
    [5396,363171,"Vazduh","Libelium","0004A30B0021DF70",44.979,16.7091,"","","Prijedor","",28631126,"2024-10-08T03:55:24",3,"NO ERROR",10.35,100,1000.04,0.02,0.02,0.02],
    [5397,363171,"Vazduh","Libelium","0004A30B0021DF70",44.979,16.7091,"","","Prijedor","",28631427,"2024-10-08T04:56:06",3,"NO ERROR",9.93,100,999.9,0.11,0.2,0.22],
    [5398,363171,"Vazduh","Libelium","0004A30B0021DF70",44.979,16.7091,"","","Prijedor","",28631827,"2024-10-08T05:56:48",3,"NO ERROR",9.58,100,999.98,0.13,0.27,0.29],
    [5399,363171,"Vazduh","Libelium","0004A30B0021DF70",44.979,16.7091,"","","Prijedor","",28632110,"2024-10-08T06:57:30",3,"NO ERROR",10.38,100,999.61,0.35,0.55,0.56],
    [5400,363171,"Vazduh","Libelium","0004A30B0021DF70",44.979,16.7091,"","","Prijedor","",28632438,"2024-10-08T07:58:12",3,"NO ERROR",10.51,100,1000.08,0.25,0.39,0.41],
    [5401,363171,"Vazduh","Libelium","0004A30B0021DF70",44.979,16.7091,"","","Prijedor","",28632772,"2024-10-08T08:58:54",3,"NO ERROR",16.03,100,999.81,0.33,0.4,0.4],
    [5402,363171,"Vazduh","Libelium","0004A30B0021DF70",44.979,16.7091,"","","Prijedor","",28632999,"2024-10-08T09:59:36",3,"NO ERROR",16.3,100,999.45,0.03,0.06,0.06],
    [5403,363171,"Vazduh","Libelium","0004A30B0021DF70",44.979,16.7091,"","","Prijedor","",28633265,"2024-10-08T11:00:18",3,"NO ERROR",21.38,82,999.31,0.15,0.19,0.19],
    [5404,363171,"Vazduh","Libelium","0004A30B0021DF70",44.979,16.7091,"","","Prijedor","",28633578,"2024-10-08T12:01:00",3,"NO ERROR",23.22,78.9,998.57,0.07,0.13,0.13],
    [5405,363171,"Vazduh","Libelium","0004A30B0021DF70",44.979,16.7091,"","","Prijedor","",28633860,"2024-10-08T13:01:43",3,"NO ERROR",24.63,71.8,997.47,0.18,0.2,0.2],
    [5406,363171,"Vazduh","Libelium","0004A30B0021DF70",44.979,16.7091,"","","Prijedor","",28634241,"2024-10-08T14:02:25",3,"NO ERROR",27.06,62.9,997,0.12,0.22,0.24],
    [5407,363171,"Vazduh","Libelium","0004A30B0021DF70",44.979,16.7091,"","","Prijedor","",28634596,"2024-10-08T15:03:13",3,"NO ERROR",30.52,53.8,996.17,0.03,0.03,0.03],
    [5408,363171,"Vazduh","Libelium","0004A30B0021DF70",44.979,16.7091,"","","Prijedor","",28634915,"2024-10-08T16:03:55",3,"NO ERROR",30.82,49.2,995.38,0.05,0.08,0.08],
    [5409,363171,"Vazduh","Libelium","0004A30B0021DF70",44.979,16.7091,"","","Prijedor","",28635222,"2024-10-08T17:04:37",3,"NO ERROR",26.65,60.4,994.34,0.05,0.08,0.08],
    [5410,363171,"Vazduh","Libelium","0004A30B0021DF70",44.979,16.7091,"","","Prijedor","",28635537,"2024-10-08T18:05:19",3,"NO ERROR",24.01,69.8,993.85,0.07,0.07,0.07],
    [5411,363171,"Vazduh","Libelium","0004A30B0021DF70",44.979,16.7091,"","","Prijedor","",28635804,"2024-10-08T19:06:01",3,"NO ERROR",22.71,67.1,993.98,0.03,0.03,0.03],
    [5412,363171,"Vazduh","Libelium","0004A30B0021DF70",44.979,16.7091,"","","Prijedor","",28636059,"2024-10-08T20:06:43",3,"NO ERROR",21.46,73.8,993.48,0.03,0.03,0.03],
    [5413,363171,"Vazduh","Libelium","0004A30B0021DF70",44.979,16.7091,"","","Prijedor","",28636395,"2024-10-08T21:07:25",3,"NO ERROR",20.13,83.1,992.55,0.07,0.07,0.07],
    [5414,363171,"Vazduh","Libelium","0004A30B0021DF70",44.979,16.7091,"","","Prijedor","",28636735,"2024-10-08T22:08:07",3,"NO ERROR",20.44,80.3,992.49,0.07,0.22,1.24],
    [5415,363171,"Vazduh","Libelium","0004A30B0021DF70",44.979,16.7091,"","","Prijedor","",28637070,"2024-10-08T23:08:49",3,"NO ERROR",21.51,72.7,992.04,0.03,0.08,0.09],
    [5416,363171,"Vazduh","Libelium","0004A30B0021DF70",44.979,16.7091,"","","Prijedor","",28637427,"2024-10-09T00:09:31",3,"NO ERROR",21.11,76.4,991.66,0.12,0.19,0.19],
    [5417,363171,"Vazduh","Libelium","0004A30B0021DF70",44.979,16.7091,"","","Prijedor","",28637716,"2024-10-09T01:10:14",3,"NO ERROR",20.85,75.5,990.6,0.23,0.33,0.33],
    [5418,363171,"Vazduh","Libelium","0004A30B0021DF70",44.979,16.7091,"","","Prijedor","",28638008,"2024-10-09T02:10:56",3,"NO ERROR",20.9,77.2,990.7,0,0.04,0.06],
    [5419,363171,"Vazduh","Libelium","0004A30B0021DF70",44.979,16.7091,"","","Prijedor","",28638427,"2024-10-09T03:11:38",3,"NO ERROR",20.2,86.9,990.61,0.03,0.06,0.06],
    [5420,363171,"Vazduh","Libelium","0004A30B0021DF70",44.979,16.7091,"","","Prijedor","",28638678,"2024-10-09T04:12:20",3,"NO ERROR",18.43,100,991.1,0,0,0],
    [5421,363171,"Vazduh","Libelium","0004A30B0021DF70",44.979,16.7091,"","","Prijedor","",28638989,"2024-10-09T05:13:02",3,"NO ERROR",17.25,100,991.83,0,0,0],
    [5422,363171,"Vazduh","Libelium","0004A30B0021DF70",44.979,16.7091,"","","Prijedor","",28639399,"2024-10-09T06:13:44",3,"NO ERROR",16.52,100,991.45,0.03,0.08,0.09],
    [5423,363171,"Vazduh","Libelium","0004A30B0021DF70",44.979,16.7091,"","","Prijedor","",28639720,"2024-10-09T07:14:26",3,"NO ERROR",16.41,100,991.67,0.02,0.06,0.07],
    [5424,363171,"Vazduh","Libelium","0004A30B0021DF70",44.979,16.7091,"","","Prijedor","",28640085,"2024-10-09T08:15:14",3,"NO ERROR",16.88,100,992.48,0.05,0.05,0.05],
    [5425,363171,"Vazduh","Libelium","0004A30B0021DF70",44.979,16.7091,"","","Prijedor","",28640463,"2024-10-09T09:15:56",3,"NO ERROR",23.07,98.1,992.56,0,0.04,0.06],
    [5426,363171,"Vazduh","Libelium","0004A30B0021DF70",44.979,16.7091,"","","Prijedor","",28640756,"2024-10-09T10:16:38",3,"NO ERROR",21.81,100,992.62,0.14,0.16,0.16],
    [5427,363171,"Vazduh","Libelium","0004A30B0021DF70",44.979,16.7091,"","","Prijedor","",28641056,"2024-10-09T11:17:20",3,"NO ERROR",24.18,77.8,992.34,0.13,0.14,0.14],
    [5428,363171,"Vazduh","Libelium","0004A30B0021DF70",44.979,16.7091,"","","Prijedor","",28641407,"2024-10-09T12:18:02",3,"NO ERROR",26.4,55.6,992.76,0.25,0.28,0.28],
    [5429,363171,"Vazduh","Libelium","0004A30B0021DF70",44.979,16.7091,"","","Prijedor","",28641734,"2024-10-09T13:18:45",3,"NO ERROR",26.2,50.5,992.49,0.14,0.17,0.18],
    [5430,363171,"Vazduh","Libelium","0004A30B0021DF70",44.979,16.7091,"","","Prijedor","",28642104,"2024-10-09T14:19:27",3,"NO ERROR",26.47,49.7,992.14,0.11,0.23,0.32],
    [5431,363171,"Vazduh","Libelium","0004A30B0021DF70",44.979,16.7091,"","","Prijedor","",28642445,"2024-10-09T15:20:09",3,"NO ERROR",27.5,46.8,992.07,0.2,0.26,0.26],
    [5432,363171,"Vazduh","Libelium","0004A30B0021DF70",44.979,16.7091,"","","Prijedor","",28642772,"2024-10-09T16:20:51",3,"NO ERROR",27.16,45.5,992.08,0.15,0.25,0.59],
    [5433,363171,"Vazduh","Libelium","0004A30B0021DF70",44.979,16.7091,"","","Prijedor","",28643097,"2024-10-09T17:21:33",3,"NO ERROR",23.06,54,991.81,0.1,0.13,0.13],
    [5434,363171,"Vazduh","Libelium","0004A30B0021DF70",44.979,16.7091,"","","Prijedor","",28643440,"2024-10-09T18:22:15",3,"NO ERROR",20.85,60.1,991.62,0.14,0.31,0.38],
    [5435,363171,"Vazduh","Libelium","0004A30B0021DF70",44.979,16.7091,"","","Prijedor","",28643723,"2024-10-09T19:22:57",3,"NO ERROR",18.84,73.8,991.6,0.18,0.25,0.25],
    [5436,363171,"Vazduh","Libelium","0004A30B0021DF70",44.979,16.7091,"","","Prijedor","",28644020,"2024-10-09T20:23:39",3,"NO ERROR",17.46,87.2,991.68,0.07,0.1,0.1],
    [5437,363171,"Vazduh","Libelium","0004A30B0021DF70",44.979,16.7091,"","","Prijedor","",28644389,"2024-10-09T21:24:21",3,"NO ERROR",15.37,100,991.76,0.25,0.35,0.36],
    [5438,363171,"Vazduh","Libelium","0004A30B0021DF70",44.979,16.7091,"","","Prijedor","",28644759,"2024-10-09T22:25:03",3,"NO ERROR",14.9,100,991.4,0.3,0.42,0.42],
    [5439,363171,"Vazduh","Libelium","0004A30B0021DF70",44.979,16.7091,"","","Prijedor","",28645078,"2024-10-09T23:25:45",3,"NO ERROR",14.01,100,990.88,0.21,0.32,0.34],
    [5440,363171,"Vazduh","Libelium","0004A30B0021DF70",44.979,16.7091,"","","Prijedor","",28645408,"2024-10-10T00:26:27",3,"NO ERROR",13.68,100,990.17,0.28,0.51,0.65],
    [5441,363171,"Vazduh","Libelium","0004A30B0021DF70",44.979,16.7091,"","","Prijedor","",28645707,"2024-10-10T01:27:09",3,"NO ERROR",12.13,100,989.78,0.23,0.3,0.31],
    [5442,363171,"Vazduh","Libelium","0004A30B0021DF70",44.979,16.7091,"","","Prijedor","",28646008,"2024-10-10T02:27:58",3,"NO ERROR",11.96,100,989.62,0.23,0.55,0.73],
    [5443,363171,"Vazduh","Libelium","0004A30B0021DF70",44.979,16.7091,"","","Prijedor","",28646260,"2024-10-10T03:28:40",3,"NO ERROR",12.4,100,988.95,0.14,0.19,0.19],
    [5444,363171,"Vazduh","Libelium","0004A30B0021DF70",44.979,16.7091,"","","Prijedor","",28646464,"2024-10-10T04:29:22",3,"NO ERROR",11.84,100,988.35,0.43,0.84,1.06],
    [5445,363171,"Vazduh","Libelium","0004A30B0021DF70",44.979,16.7091,"","","Prijedor","",28646766,"2024-10-10T05:30:04",3,"NO ERROR",12.05,100,987.63,0.38,0.56,0.56],
    [5446,363171,"Vazduh","Libelium","0004A30B0021DF70",44.979,16.7091,"","","Prijedor","",28647065,"2024-10-10T06:30:46",3,"NO ERROR",11.5,100,987.91,0.21,0.27,0.27],
    [5447,363171,"Vazduh","Libelium","0004A30B0021DF70",44.979,16.7091,"","","Prijedor","",28647337,"2024-10-10T07:31:28",3,"NO ERROR",11.92,100,987.89,0.51,0.63,0.63],
    [5448,363171,"Vazduh","Libelium","0004A30B0021DF70",44.979,16.7091,"","","Prijedor","",28647597,"2024-10-10T08:32:10",3,"NO ERROR",17.86,100,988.08,0.31,0.5,0.53],
    [5449,363171,"Vazduh","Libelium","0004A30B0021DF70",44.979,16.7091,"","","Prijedor","",28647900,"2024-10-10T09:32:52",3,"NO ERROR",20.81,83.5,987.89,0.66,0.9,1.03],
    [5450,363171,"Vazduh","Libelium","0004A30B0021DF70",44.979,16.7091,"","","Prijedor","",28648138,"2024-10-10T10:33:34",3,"NO ERROR",23.72,75,987.13,0.18,0.43,0.56],
    [5451,363171,"Vazduh","Libelium","0004A30B0021DF70",44.979,16.7091,"","","Prijedor","",28648415,"2024-10-10T11:34:16",3,"NO ERROR",25.82,61,986.9,0.12,0.14,0.14],
    [5452,363171,"Vazduh","Libelium","0004A30B0021DF70",44.979,16.7091,"","","Prijedor","",28648734,"2024-10-10T12:34:58",3,"NO ERROR",26.6,50.4,986.45,0.28,0.35,0.35],
    [5453,363171,"Vazduh","Libelium","0004A30B0021DF70",44.979,16.7091,"","","Prijedor","",28649101,"2024-10-10T13:35:40",3,"NO ERROR",27.9,46.5,986.01,0.16,0.23,0.23],
    [5454,363171,"Vazduh","Libelium","0004A30B0021DF70",44.979,16.7091,"","","Prijedor","",28649448,"2024-10-10T14:36:22",3,"NO ERROR",29.15,43.4,985.99,0.28,0.45,0.45],
    [5455,363171,"Vazduh","Libelium","0004A30B0021DF70",44.979,16.7091,"","","Prijedor","",28649794,"2024-10-10T15:37:11",3,"NO ERROR",27.05,46.6,986.11,0.2,0.24,0.24],
    [5456,363171,"Vazduh","Libelium","0004A30B0021DF70",44.979,16.7091,"","","Prijedor","",28650114,"2024-10-10T16:37:53",3,"NO ERROR",25.07,52.8,986.37,0.22,0.33,0.35],
    [5457,363171,"Vazduh","Libelium","0004A30B0021DF70",44.979,16.7091,"","","Prijedor","",28650462,"2024-10-10T17:38:35",3,"NO ERROR",24.29,55,986.16,0.38,0.42,0.42],
    [5458,363171,"Vazduh","Libelium","0004A30B0021DF70",44.979,16.7091,"","","Prijedor","",28650769,"2024-10-10T18:39:17",3,"NO ERROR",23.26,58.8,986.34,0.47,0.71,0.84],
    [5459,363171,"Vazduh","Libelium","0004A30B0021DF70",44.979,16.7091,"","","Prijedor","",28651027,"2024-10-10T19:39:59",3,"NO ERROR",20.86,91.3,987.01,0.2,0.26,0.26],
    [5460,363171,"Vazduh","Libelium","0004A30B0021DF70",44.979,16.7091,"","","Prijedor","",28651351,"2024-10-10T20:40:41",3,"NO ERROR",19.42,100,987.5,0.66,0.77,0.78],
    [5461,363171,"Vazduh","Libelium","0004A30B0021DF70",44.979,16.7091,"","","Prijedor","",28651716,"2024-10-10T21:41:23",3,"NO ERROR",17.96,100,987.82,0.43,0.56,0.56],
    [5462,363171,"Vazduh","Libelium","0004A30B0021DF70",44.979,16.7091,"","","Prijedor","",28652076,"2024-10-10T22:42:05",3,"NO ERROR",16.93,100,988.07,0.3,0.48,0.49],
    [5463,363171,"Vazduh","Libelium","0004A30B0021DF70",44.979,16.7091,"","","Prijedor","",28652438,"2024-10-10T23:42:47",3,"NO ERROR",16.5,100,989.1,0.19,0.32,0.33],
    [5464,363171,"Vazduh","Libelium","0004A30B0021DF70",44.979,16.7091,"","","Prijedor","",28652765,"2024-10-11T00:43:29",3,"NO ERROR",13.51,100,990.05,0,0,0],
    [5465,363171,"Vazduh","Libelium","0004A30B0021DF70",44.979,16.7091,"","","Prijedor","",28653034,"2024-10-11T01:44:11",3,"NO ERROR",13.67,100,991.89,0.04,0.05,0.05],
    [5466,363171,"Vazduh","Libelium","0004A30B0021DF70",44.979,16.7091,"","","Prijedor","",28653376,"2024-10-11T02:44:53",3,"NO ERROR",13.88,100,993.54,0.02,0.02,0.02],
    [5467,363171,"Vazduh","Libelium","0004A30B0021DF70",44.979,16.7091,"","","Prijedor","",28653652,"2024-10-11T03:45:35",3,"NO ERROR",13.27,100,993.18,0.07,0.09,0.09],
    [5468,363171,"Vazduh","Libelium","0004A30B0021DF70",44.979,16.7091,"","","Prijedor","",28653936,"2024-10-11T04:46:18",3,"NO ERROR",13.26,100,994.2,0,0,0],
    [5469,363171,"Vazduh","Libelium","0004A30B0021DF70",44.979,16.7091,"","","Prijedor","",28654325,"2024-10-11T05:47:00",3,"NO ERROR",12.58,100,994.4,0.02,0.02,0.02],
    [5470,363171,"Vazduh","Libelium","0004A30B0021DF70",44.979,16.7091,"","","Prijedor","",28655336,"2024-10-11T08:49:12",3,"NO ERROR",15.67,100,996.43,0.1,0.11,0.11],
    [5471,363171,"Vazduh","Libelium","0004A30B0021DF70",44.979,16.7091,"","","Prijedor","",28655632,"2024-10-11T09:49:54",3,"NO ERROR",20.17,91.3,996.99,0.03,0.06,0.06],
    [5472,363171,"Vazduh","Libelium","0004A30B0021DF70",44.979,16.7091,"","","Prijedor","",28655926,"2024-10-11T10:50:36",3,"NO ERROR",18.38,90.8,997.53,0.07,0.09,0.09],
    [5473,363171,"Vazduh","Libelium","0004A30B0021DF70",44.979,16.7091,"","","Prijedor","",28656266,"2024-10-11T11:51:18",3,"NO ERROR",19.02,88.2,997.81,0.05,0.08,0.08],
    [5474,363171,"Vazduh","Libelium","0004A30B0021DF70",44.979,16.7091,"","","Prijedor","",28656567,"2024-10-11T12:52:00",3,"NO ERROR",19.5,84.8,997.53,0,0,0],
    [5475,363171,"Vazduh","Libelium","0004A30B0021DF70",44.979,16.7091,"","","Prijedor","",28656917,"2024-10-11T13:52:42",3,"NO ERROR",20.22,77.5,997.4,0.03,0.06,0.06],
    [5476,363171,"Vazduh","Libelium","0004A30B0021DF70",44.979,16.7091,"","","Prijedor","",28657322,"2024-10-11T14:53:24",3,"NO ERROR",18.95,93.3,997.67,0.02,0.02,0.02],
    [5477,363171,"Vazduh","Libelium","0004A30B0021DF70",44.979,16.7091,"","","Prijedor","",28657642,"2024-10-11T15:54:06",3,"NO ERROR",19.68,85.3,997.71,0.03,0.03,0.03],
    [5478,363171,"Vazduh","Libelium","0004A30B0021DF70",44.979,16.7091,"","","Prijedor","",28657955,"2024-10-11T16:54:48",3,"NO ERROR",18.66,91.5,998.09,0.08,0.19,0.21],
    [5479,363171,"Vazduh","Libelium","0004A30B0021DF70",44.979,16.7091,"","","Prijedor","",28658285,"2024-10-11T17:55:30",3,"NO ERROR",17.82,96.4,998.66,0.07,0.09,0.09],
    [5480,363171,"Vazduh","Libelium","0004A30B0021DF70",44.979,16.7091,"","","Prijedor","",28658554,"2024-10-11T18:56:13",3,"NO ERROR",17.22,100,999.27,0,0,0],
    [5481,363171,"Vazduh","Libelium","0004A30B0021DF70",44.979,16.7091,"","","Prijedor","",28658814,"2024-10-11T19:56:55",3,"NO ERROR",17.01,100,999.94,0.04,0.05,0.05],
    [5482,363171,"Vazduh","Libelium","0004A30B0021DF70",44.979,16.7091,"","","Prijedor","",28659167,"2024-10-11T20:57:37",3,"NO ERROR",16.49,100,1000.64,0.08,0.2,0.28],
    [5483,363171,"Vazduh","Libelium","0004A30B0021DF70",44.979,16.7091,"","","Prijedor","",28659485,"2024-10-11T21:58:19",3,"NO ERROR",16.05,100,1001.42,0.08,0.11,0.11],
    [5484,363171,"Vazduh","Libelium","0004A30B0021DF70",44.979,16.7091,"","","Prijedor","",28659769,"2024-10-11T22:59:01",3,"NO ERROR",15.22,100,1002.01,0.07,0.09,0.09],
    [5485,363171,"Vazduh","Libelium","0004A30B0021DF70",44.979,16.7091,"","","Prijedor","",28660063,"2024-10-11T23:59:43",3,"NO ERROR",14.65,100,1002.26,0.02,0.05,0.05],
    [5486,363171,"Vazduh","Libelium","0004A30B0021DF70",44.979,16.7091,"","","Prijedor","",28660303,"2024-10-12T01:00:25",3,"NO ERROR",14.66,100,1002.52,0.16,0.17,0.17],
    [5487,363171,"Vazduh","Libelium","0004A30B0021DF70",44.979,16.7091,"","","Prijedor","",28660520,"2024-10-12T02:01:07",3,"NO ERROR",15.56,100,1003.1,0.09,0.13,0.13],
    [5488,363171,"Vazduh","Libelium","0004A30B0021DF70",44.979,16.7091,"","","Prijedor","",28660792,"2024-10-12T03:01:55",3,"NO ERROR",14.74,100,1003.38,0,0,0],
    [5489,363171,"Vazduh","Libelium","0004A30B0021DF70",44.979,16.7091,"","","Prijedor","",28660998,"2024-10-12T04:02:37",3,"NO ERROR",14.02,100,1003.75,0.01,0.11,0.19],
    [5490,363171,"Vazduh","Libelium","0004A30B0021DF70",44.979,16.7091,"","","Prijedor","",28661225,"2024-10-12T05:03:19",3,"NO ERROR",12.82,100,1004.19,0.13,0.17,0.17],
    [5491,363171,"Vazduh","Libelium","0004A30B0021DF70",44.979,16.7091,"","","Prijedor","",28661590,"2024-10-12T06:04:01",3,"NO ERROR",11.99,100,1004.72,0.04,0.1,0.12],
    [5492,363171,"Vazduh","Libelium","0004A30B0021DF70",44.979,16.7091,"","","Prijedor","",28661863,"2024-10-12T07:04:43",3,"NO ERROR",11.29,100,1005.01,0.02,0.02,0.02],
    [5493,363171,"Vazduh","Libelium","0004A30B0021DF70",44.979,16.7091,"","","Prijedor","",28662134,"2024-10-12T08:05:26",3,"NO ERROR",11.5,100,1005.73,0.09,0.1,0.1],
    [5494,363171,"Vazduh","Libelium","0004A30B0021DF70",44.979,16.7091,"","","Prijedor","",28662461,"2024-10-12T09:06:08",3,"NO ERROR",14.95,97.5,1005.87,0.31,0.48,0.64],
    [5495,363171,"Vazduh","Libelium","0004A30B0021DF70",44.979,16.7091,"","","Prijedor","",28662691,"2024-10-12T10:06:50",3,"NO ERROR",15.16,90.1,1005.77,0.05,0.05,0.05],
    [5496,363171,"Vazduh","Libelium","0004A30B0021DF70",44.979,16.7091,"","","Prijedor","",28662940,"2024-10-12T11:07:32",3,"NO ERROR",16.6,78.6,1005.71,0.32,0.4,0.4],
    [5497,363171,"Vazduh","Libelium","0004A30B0021DF70",44.979,16.7091,"","","Prijedor","",28663248,"2024-10-12T12:08:20",3,"NO ERROR",18.26,70,1005.76,0.08,0.09,0.09],
    [5498,363171,"Vazduh","Libelium","0004A30B0021DF70",44.979,16.7091,"","","Prijedor","",28663548,"2024-10-12T13:09:02",3,"NO ERROR",18.46,59.6,1005.29,0,0,0],
    [5499,363171,"Vazduh","Libelium","0004A30B0021DF70",44.979,16.7091,"","","Prijedor","",28663888,"2024-10-12T14:09:44",3,"NO ERROR",19.71,56.4,1004.83,0.12,0.13,0.13],
    [5500,363171,"Vazduh","Libelium","0004A30B0021DF70",44.979,16.7091,"","","Prijedor","",28664289,"2024-10-12T15:10:26",3,"NO ERROR",22.22,51.8,1004.13,0.03,0.03,0.03],
    [5501,363171,"Vazduh","Libelium","0004A30B0021DF70",44.979,16.7091,"","","Prijedor","",28664600,"2024-10-12T16:11:08",3,"NO ERROR",22.29,51.1,1003.42,0.01,0.08,0.09],
    [5502,363171,"Vazduh","Libelium","0004A30B0021DF70",44.979,16.7091,"","","Prijedor","",28664932,"2024-10-12T17:11:50",3,"NO ERROR",18.73,63.8,1003.31,0.04,0.05,0.05],
    [5503,363171,"Vazduh","Libelium","0004A30B0021DF70",44.979,16.7091,"","","Prijedor","",28665260,"2024-10-12T18:12:38",3,"NO ERROR",16.83,83.1,1003.15,0.12,0.18,0.19],
    [5504,363171,"Vazduh","Libelium","0004A30B0021DF70",44.979,16.7091,"","","Prijedor","",28665534,"2024-10-12T19:13:20",3,"NO ERROR",15.03,100,1003.2,0.14,0.21,0.21],
    [5505,363171,"Vazduh","Libelium","0004A30B0021DF70",44.979,16.7091,"","","Prijedor","",28665823,"2024-10-12T20:14:02",3,"NO ERROR",13.06,100,1003.26,0.08,0.1,0.1],
    [5506,363171,"Vazduh","Libelium","0004A30B0021DF70",44.979,16.7091,"","","Prijedor","",28666179,"2024-10-12T21:14:45",3,"NO ERROR",11.39,100,1003.49,0.1,0.14,0.14],
    [5507,363171,"Vazduh","Libelium","0004A30B0021DF70",44.979,16.7091,"","","Prijedor","",28666529,"2024-10-12T22:15:27",3,"NO ERROR",10.85,100,1003.55,0.17,0.47,0.67],
    [5508,363171,"Vazduh","Libelium","0004A30B0021DF70",44.979,16.7091,"","","Prijedor","",28666834,"2024-10-12T23:16:09",3,"NO ERROR",10.01,100,1003.43,0.2,0.41,0.46],
    [5509,363171,"Vazduh","Libelium","0004A30B0021DF70",44.979,16.7091,"","","Prijedor","",28667208,"2024-10-13T00:16:51",3,"NO ERROR",9.76,100,1003.3,0.07,0.13,0.13],
    [5510,363171,"Vazduh","Libelium","0004A30B0021DF70",44.979,16.7091,"","","Prijedor","",28667487,"2024-10-13T01:17:33",3,"NO ERROR",9.54,100,1003.22,0.29,0.41,0.42],
    [5511,363171,"Vazduh","Libelium","0004A30B0021DF70",44.979,16.7091,"","","Prijedor","",28667784,"2024-10-13T02:18:15",3,"NO ERROR",9.59,100,1003.05,0.19,0.28,0.3],
    [5512,363171,"Vazduh","Libelium","0004A30B0021DF70",44.979,16.7091,"","","Prijedor","",28668114,"2024-10-13T03:18:57",3,"NO ERROR",10.02,100,1002.31,0.29,0.46,0.47],
    [5513,363171,"Vazduh","Libelium","0004A30B0021DF70",44.979,16.7091,"","","Prijedor","",28668375,"2024-10-13T04:19:45",3,"NO ERROR",9.79,100,1001.81,0.05,0.08,0.08],
    [5514,363171,"Vazduh","Libelium","0004A30B0021DF70",44.979,16.7091,"","","Prijedor","",28668693,"2024-10-13T05:20:27",3,"NO ERROR",9.29,100,1001.41,0.03,0.05,0.05],
    [5515,363171,"Vazduh","Libelium","0004A30B0021DF70",44.979,16.7091,"","","Prijedor","",28669089,"2024-10-13T06:21:09",3,"NO ERROR",9.04,100,1001.55,0.05,0.1,0.1],
    [5516,363171,"Vazduh","Libelium","0004A30B0021DF70",44.979,16.7091,"","","Prijedor","",28669401,"2024-10-13T07:21:51",3,"NO ERROR",7.97,100,1001.69,0.11,0.57,1.14],
    [5517,363171,"Vazduh","Libelium","0004A30B0021DF70",44.979,16.7091,"","","Prijedor","",28669751,"2024-10-13T08:22:33",3,"NO ERROR",9.1,100,1002.29,1.29,11.11,142.85],
    [5518,363171,"Vazduh","Libelium","0004A30B0021DF70",44.979,16.7091,"","","Prijedor","",28670102,"2024-10-13T09:23:15",3,"NO ERROR",11.6,100,1002.31,0.33,0.36,0.36],
    [5519,363171,"Vazduh","Libelium","0004A30B0021DF70",44.979,16.7091,"","","Prijedor","",28670401,"2024-10-13T10:23:58",3,"NO ERROR",15.58,100,1001.84,0.28,0.4,0.4],
    [5520,363171,"Vazduh","Libelium","0004A30B0021DF70",44.979,16.7091,"","","Prijedor","",28670679,"2024-10-13T11:24:40",3,"NO ERROR",17.86,93,1001.4,0.1,0.24,0.32],
    [5521,363171,"Vazduh","Libelium","0004A30B0021DF70",44.979,16.7091,"","","Prijedor","",28671045,"2024-10-13T12:25:22",3,"NO ERROR",20.41,74.6,1001.16,0.2,0.28,0.28],
    [5522,363171,"Vazduh","Libelium","0004A30B0021DF70",44.979,16.7091,"","","Prijedor","",28671380,"2024-10-13T13:26:04",3,"NO ERROR",22.73,69.1,1000.54,0.03,0.08,0.09],
    [5523,363171,"Vazduh","Libelium","0004A30B0021DF70",44.979,16.7091,"","","Prijedor","",28671711,"2024-10-13T14:26:46",3,"NO ERROR",24.51,61.4,1000.22,0.22,0.42,0.95],
    [5524,363171,"Vazduh","Libelium","0004A30B0021DF70",44.979,16.7091,"","","Prijedor","",28672063,"2024-10-13T15:27:28",3,"NO ERROR",23.03,63.7,999.93,0.07,0.11,0.13],
    [5525,363171,"Vazduh","Libelium","0004A30B0021DF70",44.979,16.7091,"","","Prijedor","",28672384,"2024-10-13T16:28:10",3,"NO ERROR",21.82,72.6,1000.02,0.08,0.11,0.11],
    [5526,363171,"Vazduh","Libelium","0004A30B0021DF70",44.979,16.7091,"","","Prijedor","",28672729,"2024-10-13T17:28:52",3,"NO ERROR",20.48,78.6,1000.45,0.14,0.15,0.15],
    [5527,363171,"Vazduh","Libelium","0004A30B0021DF70",44.979,16.7091,"","","Prijedor","",28673036,"2024-10-13T18:29:34",3,"NO ERROR",18.8,96.3,1001.03,0.05,0.07,0.07],
    [5528,363171,"Vazduh","Libelium","0004A30B0021DF70",44.979,16.7091,"","","Prijedor","",28673317,"2024-10-13T19:30:16",3,"NO ERROR",17.03,100,1001.63,0.51,0.98,1.21],
    [5529,363171,"Vazduh","Libelium","0004A30B0021DF70",44.979,16.7091,"","","Prijedor","",28673600,"2024-10-13T20:31:04",3,"NO ERROR",15.51,100,1002.47,0.11,0.12,0.12],
    [5530,363171,"Vazduh","Libelium","0004A30B0021DF70",44.979,16.7091,"","","Prijedor","",28673977,"2024-10-13T21:31:46",3,"NO ERROR",15.71,100,1003.06,0.18,0.25,0.25],
    [5531,363171,"Vazduh","Libelium","0004A30B0021DF70",44.979,16.7091,"","","Prijedor","",28674313,"2024-10-13T22:32:28",3,"NO ERROR",15.89,100,1003.76,0.43,0.56,0.56],
    [5532,363171,"Vazduh","Libelium","0004A30B0021DF70",44.979,16.7091,"","","Prijedor","",28674949,"2024-10-14T00:33:59",3,"NO ERROR",15.35,100,1004.16,0.08,0.2,0.28],
    [5533,363171,"Vazduh","Libelium","0004A30B0021DF70",44.979,16.7091,"","","Prijedor","",28675533,"2024-10-14T02:35:23",3,"NO ERROR",14.91,100,1004.3,0.18,0.25,0.25],
    [5534,363171,"Vazduh","Libelium","0004A30B0021DF70",44.979,16.7091,"","","Prijedor","",28675825,"2024-10-14T03:36:05",3,"NO ERROR",13.55,100,1004.48,0.46,0.63,0.63],
    [5535,363171,"Vazduh","Libelium","0004A30B0021DF70",44.979,16.7091,"","","Prijedor","",28676102,"2024-10-14T04:36:53",3,"NO ERROR",12.52,100,1005,0.19,0.33,0.35],
    [5536,363171,"Vazduh","Libelium","0004A30B0021DF70",44.979,16.7091,"","","Prijedor","",28676474,"2024-10-14T05:37:35",3,"NO ERROR",11.77,100,1005.49,0.19,0.25,0.25],
    [5537,363171,"Vazduh","Libelium","0004A30B0021DF70",44.979,16.7091,"","","Prijedor","",28676815,"2024-10-14T06:38:17",3,"NO ERROR",11.28,100,1005.98,0.22,0.39,0.41],
    [5538,363171,"Vazduh","Libelium","0004A30B0021DF70",44.979,16.7091,"","","Prijedor","",28677144,"2024-10-14T07:38:59",3,"NO ERROR",12.53,100,1006.15,0.22,0.38,0.54],
    [5539,363171,"Vazduh","Libelium","0004A30B0021DF70",44.979,16.7091,"","","Prijedor","",28677508,"2024-10-14T08:39:41",3,"NO ERROR",13.61,100,1006.71,0.06,0.11,0.11],
    [5540,363171,"Vazduh","Libelium","0004A30B0021DF70",44.979,16.7091,"","","Prijedor","",28677823,"2024-10-14T09:40:36",3,"NO ERROR",15.37,93.1,1007.01,0.1,0.12,0.12],
    [5541,363171,"Vazduh","Libelium","0004A30B0021DF70",44.979,16.7091,"","","Prijedor","",28678136,"2024-10-14T10:41:17",3,"NO ERROR",16.99,82.1,1006.92,0.02,0.13,0.22],
    [5542,363171,"Vazduh","Libelium","0004A30B0021DF70",44.979,16.7091,"","","Prijedor","",28678481,"2024-10-14T11:41:59",3,"NO ERROR",18.21,74.4,1006.9,0.3,0.48,0.51],
    [5543,363171,"Vazduh","Libelium","0004A30B0021DF70",44.979,16.7091,"","","Prijedor","",28678795,"2024-10-14T12:42:41",3,"NO ERROR",19.73,73.8,1006.42,0.15,0.35,0.48],
    [5544,363171,"Vazduh","Libelium","0004A30B0021DF70",44.979,16.7091,"","","Prijedor","",28679160,"2024-10-14T13:43:24",3,"NO ERROR",21.11,73,1005.59,0.04,0.07,0.07],
    [5545,363171,"Vazduh","Libelium","0004A30B0021DF70",44.979,16.7091,"","","Prijedor","",28679559,"2024-10-14T14:44:06",3,"NO ERROR",21.38,76.4,1004.74,0.02,0.06,0.07],
    [5546,363171,"Vazduh","Libelium","0004A30B0021DF70",44.979,16.7091,"","","Prijedor","",28679926,"2024-10-14T15:44:54",3,"NO ERROR",22.78,72,1004.55,0.19,0.22,0.22],
    [5547,363171,"Vazduh","Libelium","0004A30B0021DF70",44.979,16.7091,"","","Prijedor","",28680277,"2024-10-14T16:45:36",3,"NO ERROR",20.61,77.1,1003.93,0.02,0.15,0.37],
    [5548,363171,"Vazduh","Libelium","0004A30B0021DF70",44.979,16.7091,"","","Prijedor","",28680601,"2024-10-14T17:46:24",3,"NO ERROR",18.87,91.3,1003.93,0.05,0.1,0.11],
    [5549,363171,"Vazduh","Libelium","0004A30B0021DF70",44.979,16.7091,"","","Prijedor","",28680882,"2024-10-14T18:47:06",3,"NO ERROR",18.27,100,1004.14,0.27,0.38,0.4],
    [5550,363171,"Vazduh","Libelium","0004A30B0021DF70",44.979,16.7091,"","","Prijedor","",28681148,"2024-10-14T19:47:48",3,"NO ERROR",17.63,99.5,1004.21,0.13,0.18,0.19],
    [5551,363171,"Vazduh","Libelium","0004A30B0021DF70",44.979,16.7091,"","","Prijedor","",28681486,"2024-10-14T20:48:36",3,"NO ERROR",16.9,100,1004.26,0.11,0.2,0.22],
    [5552,363171,"Vazduh","Libelium","0004A30B0021DF70",44.979,16.7091,"","","Prijedor","",28681817,"2024-10-14T21:49:18",3,"NO ERROR",16.08,100,1004.29,0.34,0.59,0.63],
    [5553,363171,"Vazduh","Libelium","0004A30B0021DF70",44.979,16.7091,"","","Prijedor","",28682158,"2024-10-14T22:50:00",3,"NO ERROR",16.06,100,1004.22,0.2,0.28,0.28],
    [5554,363171,"Vazduh","Libelium","0004A30B0021DF70",44.979,16.7091,"","","Prijedor","",28682547,"2024-10-14T23:50:42",3,"NO ERROR",13.92,100,1004.22,0.34,0.5,0.5],
    [5555,363171,"Vazduh","Libelium","0004A30B0021DF70",44.979,16.7091,"","","Prijedor","",28682832,"2024-10-15T00:51:24",3,"NO ERROR",12.59,100,1003.87,0.19,0.35,0.39],
    [5556,363171,"Vazduh","Libelium","0004A30B0021DF70",44.979,16.7091,"","","Prijedor","",28683104,"2024-10-15T01:52:06",3,"NO ERROR",11.94,100,1003.82,0.32,0.51,0.52],
    [5557,363171,"Vazduh","Libelium","0004A30B0021DF70",44.979,16.7091,"","","Prijedor","",28683446,"2024-10-15T02:52:48",3,"NO ERROR",10.74,100,1003.59,0.11,0.13,0.13],
    [5558,363171,"Vazduh","Libelium","0004A30B0021DF70",44.979,16.7091,"","","Prijedor","",28683696,"2024-10-15T03:53:31",3,"NO ERROR",11.34,100,1003.45,0.16,0.22,0.22],
    [5559,363171,"Vazduh","Libelium","0004A30B0021DF70",44.979,16.7091,"","","Prijedor","",28683985,"2024-10-15T04:54:13",3,"NO ERROR",10.61,100,1003.64,0.13,0.18,0.18],
    [5560,363171,"Vazduh","Libelium","0004A30B0021DF70",44.979,16.7091,"","","Prijedor","",28684357,"2024-10-15T05:54:55",3,"NO ERROR",9.41,100,1003.99,0.12,0.13,0.13],
    [5561,363171,"Vazduh","Libelium","0004A30B0021DF70",44.979,16.7091,"","","Prijedor","",28684691,"2024-10-15T06:55:37",3,"NO ERROR",8.85,100,1004.66,0.28,0.31,0.31],
    [5562,363171,"Vazduh","Libelium","0004A30B0021DF70",44.979,16.7091,"","","Prijedor","",28685011,"2024-10-15T07:56:19",3,"NO ERROR",9.54,100,1005.2,0.4,0.49,0.5],
    [5563,363171,"Vazduh","Libelium","0004A30B0021DF70",44.979,16.7091,"","","Prijedor","",28685376,"2024-10-15T08:57:01",3,"NO ERROR",17.18,100,1005.87,0.1,0.17,0.17],
    [5564,363171,"Vazduh","Libelium","0004A30B0021DF70",44.979,16.7091,"","","Prijedor","",28685691,"2024-10-15T09:57:43",3,"NO ERROR",17.14,97.1,1006.16,0.18,0.19,0.19],
    [5565,363171,"Vazduh","Libelium","0004A30B0021DF70",44.979,16.7091,"","","Prijedor","",28685956,"2024-10-15T10:58:25",3,"NO ERROR",18.03,94.1,1006.6,0.12,0.17,0.17],
    [5566,363171,"Vazduh","Libelium","0004A30B0021DF70",44.979,16.7091,"","","Prijedor","",28686295,"2024-10-15T11:59:13",3,"NO ERROR",20.62,86.6,1006.42,0.33,0.42,0.44],
    [5567,363171,"Vazduh","Libelium","0004A30B0021DF70",44.979,16.7091,"","","Prijedor","",28686614,"2024-10-15T12:59:55",3,"NO ERROR",22.86,72.3,1005.96,0.05,0.08,0.08],
    [5568,363171,"Vazduh","Libelium","0004A30B0021DF70",44.979,16.7091,"","","Prijedor","",28686959,"2024-10-15T14:00:37",3,"NO ERROR",23.27,75.1,1005.51,0.02,0.09,0.17],
    [5569,363171,"Vazduh","Libelium","0004A30B0021DF70",44.979,16.7091,"","","Prijedor","",28687350,"2024-10-15T15:01:19",3,"NO ERROR",25.75,63,1005.46,0.1,0.13,0.13],
    [5570,363171,"Vazduh","Libelium","0004A30B0021DF70",44.979,16.7091,"","","Prijedor","",28687685,"2024-10-15T16:02:01",3,"NO ERROR",25.55,61.6,1005.32,0.13,0.19,0.2],
    [5571,363171,"Vazduh","Libelium","0004A30B0021DF70",44.979,16.7091,"","","Prijedor","",28688013,"2024-10-15T17:02:44",3,"NO ERROR",21.12,79.2,1005.51,0.08,0.09,0.09],
    [5572,363171,"Vazduh","Libelium","0004A30B0021DF70",44.979,16.7091,"","","Prijedor","",28688360,"2024-10-15T18:03:26",3,"NO ERROR",19.73,87.9,1005.86,0.07,0.09,0.09],
    [5573,363171,"Vazduh","Libelium","0004A30B0021DF70",44.979,16.7091,"","","Prijedor","",28688643,"2024-10-15T19:04:08",3,"NO ERROR",18.28,97.6,1006.51,0.06,0.06,0.06],
    [5574,363171,"Vazduh","Libelium","0004A30B0021DF70",44.979,16.7091,"","","Prijedor","",28688908,"2024-10-15T20:04:50",3,"NO ERROR",17.64,100,1007.3,0.02,0.02,0.02],
    [5575,363171,"Vazduh","Libelium","0004A30B0021DF70",44.979,16.7091,"","","Prijedor","",28689235,"2024-10-15T21:05:32",3,"NO ERROR",16.73,100,1007.65,0.12,0.25,0.26],
    [5576,363171,"Vazduh","Libelium","0004A30B0021DF70",44.979,16.7091,"","","Prijedor","",28689615,"2024-10-15T22:06:14",3,"NO ERROR",16.61,100,1008.01,0.13,0.18,0.18],
    [5577,363171,"Vazduh","Libelium","0004A30B0021DF70",44.979,16.7091,"","","Prijedor","",28689928,"2024-10-15T23:06:56",3,"NO ERROR",16.21,100,1008.45,0.08,0.13,0.14],
    [5578,363171,"Vazduh","Libelium","0004A30B0021DF70",44.979,16.7091,"","","Prijedor","",28690283,"2024-10-16T00:07:38",3,"NO ERROR",16.16,100,1008.66,0.28,0.39,0.39],
    [5579,363171,"Vazduh","Libelium","0004A30B0021DF70",44.979,16.7091,"","","Prijedor","",28690595,"2024-10-16T01:08:20",3,"NO ERROR",16.38,94.3,1008.91,0.1,0.13,0.13],
    [5580,363171,"Vazduh","Libelium","0004A30B0021DF70",44.979,16.7091,"","","Prijedor","",28690870,"2024-10-16T02:09:02",3,"NO ERROR",15.9,87.1,1008.91,0.04,0.04,0.04],
    [5581,363171,"Vazduh","Libelium","0004A30B0021DF70",44.979,16.7091,"","","Prijedor","",28691201,"2024-10-16T03:09:50",3,"NO ERROR",15.29,93.9,1009.26,0.04,0.08,0.08],
    [5582,363171,"Vazduh","Libelium","0004A30B0021DF70",44.979,16.7091,"","","Prijedor","",28691482,"2024-10-16T04:10:32",3,"NO ERROR",14.45,100,1009.05,0.18,0.33,0.36],
    [5583,363171,"Vazduh","Libelium","0004A30B0021DF70",44.979,16.7091,"","","Prijedor","",28691756,"2024-10-16T05:11:27",3,"NO ERROR",14.15,100,1009.22,0.06,0.08,0.09],
    [5584,363171,"Vazduh","Libelium","0004A30B0021DF70",44.979,16.7091,"","","Prijedor","",28692148,"2024-10-16T06:12:09",3,"NO ERROR",13.84,100,1009.83,0.06,0.13,0.14],
    [5585,363171,"Vazduh","Libelium","0004A30B0021DF70",44.979,16.7091,"","","Prijedor","",28692478,"2024-10-16T07:12:51",3,"NO ERROR",13.67,100,1010.07,0.33,0.41,0.41],
    [5586,363171,"Vazduh","Libelium","0004A30B0021DF70",44.979,16.7091,"","","Prijedor","",28692791,"2024-10-16T08:13:33",3,"NO ERROR",13.42,100,1010.62,0.05,0.08,0.08],
    [5587,363171,"Vazduh","Libelium","0004A30B0021DF70",44.979,16.7091,"","","Prijedor","",28693151,"2024-10-16T09:14:15",3,"NO ERROR",14.01,100,1010.71,0.18,0.26,0.27],
    [5588,363171,"Vazduh","Libelium","0004A30B0021DF70",44.979,16.7091,"","","Prijedor","",28693459,"2024-10-16T10:14:57",3,"NO ERROR",14.16,100,1010.91,0.08,0.11,0.11],
    [5589,363171,"Vazduh","Libelium","0004A30B0021DF70",44.979,16.7091,"","","Prijedor","",28693752,"2024-10-16T11:15:39",3,"NO ERROR",15.7,90.9,1010.79,0.23,0.42,0.48],
    [5590,363171,"Vazduh","Libelium","0004A30B0021DF70",44.979,16.7091,"","","Prijedor","",28694134,"2024-10-16T12:16:21",3,"NO ERROR",17.67,81.9,1011.07,0.24,0.3,0.3],
    [5591,363171,"Vazduh","Libelium","0004A30B0021DF70",44.979,16.7091,"","","Prijedor","",28694448,"2024-10-16T13:17:03",3,"NO ERROR",17.67,84.1,1010.35,0.44,0.47,0.47],
    [5592,363171,"Vazduh","Libelium","0004A30B0021DF70",44.979,16.7091,"","","Prijedor","",28694802,"2024-10-16T14:17:45",3,"NO ERROR",18.21,82.6,1009.78,0.05,0.1,0.11],
    [5593,363171,"Vazduh","Libelium","0004A30B0021DF70",44.979,16.7091,"","","Prijedor","",28695208,"2024-10-16T15:18:27",3,"NO ERROR",17.49,82.3,1009.84,0.29,0.62,0.89],
    [5594,363171,"Vazduh","Libelium","0004A30B0021DF70",44.979,16.7091,"","","Prijedor","",28695551,"2024-10-16T16:19:09",3,"NO ERROR",17.24,82.1,1009.53,0.1,0.13,0.13],
    [5595,363171,"Vazduh","Libelium","0004A30B0021DF70",44.979,16.7091,"","","Prijedor","",28696187,"2024-10-16T18:20:40",3,"NO ERROR",16.31,95.7,1009.76,0.07,0.12,0.12],
    [5596,363171,"Vazduh","Libelium","0004A30B0021DF70",44.979,16.7091,"","","Prijedor","",28696489,"2024-10-16T19:21:21",3,"NO ERROR",16.21,96.4,1010.05,0.17,0.18,0.18],
    [5597,363171,"Vazduh","Libelium","0004A30B0021DF70",44.979,16.7091,"","","Prijedor","",28696753,"2024-10-16T20:22:04",3,"NO ERROR",15.69,98.9,1010.32,0.46,0.66,0.67],
    [5598,363171,"Vazduh","Libelium","0004A30B0021DF70",44.979,16.7091,"","","Prijedor","",28697128,"2024-10-16T21:22:52",3,"NO ERROR",15.29,86.7,1010.57,0.13,0.14,0.14],
    [5599,363171,"Vazduh","Libelium","0004A30B0021DF70",44.979,16.7091,"","","Prijedor","",28697475,"2024-10-16T22:23:34",3,"NO ERROR",14.61,87.7,1010.68,0.07,0.14,0.22],
    [5600,363171,"Vazduh","Libelium","0004A30B0021DF70",44.979,16.7091,"","","Prijedor","",28698443,"2024-10-17T01:25:40",3,"NO ERROR",12.57,100,1010.03,0.35,0.37,0.37],
    [5601,363171,"Vazduh","Libelium","0004A30B0021DF70",44.979,16.7091,"","","Prijedor","",28699628,"2024-10-17T05:28:28",3,"NO ERROR",11.72,100,1009.87,0.25,0.43,0.6],
    [5602,363171,"Vazduh","Libelium","0004A30B0021DF70",44.979,16.7091,"","","Prijedor","",28700015,"2024-10-17T06:29:10",3,"NO ERROR",11.53,100,1009.73,0.27,0.3,0.3],
    [5603,363171,"Vazduh","Libelium","0004A30B0021DF70",44.979,16.7091,"","","Prijedor","",28700332,"2024-10-17T07:29:52",3,"NO ERROR",11.12,100,1009.89,0.39,0.54,0.54],
    [5604,363171,"Vazduh","Libelium","0004A30B0021DF70",44.979,16.7091,"","","Prijedor","",28700651,"2024-10-17T08:30:34",3,"NO ERROR",11.19,100,1010.11,0.41,0.59,0.62],
    [5605,363171,"Vazduh","Libelium","0004A30B0021DF70",44.979,16.7091,"","","Prijedor","",28701048,"2024-10-17T09:31:17",3,"NO ERROR",11.59,100,1010.39,0.24,0.29,0.29],
    [5606,363171,"Vazduh","Libelium","0004A30B0021DF70",44.979,16.7091,"","","Prijedor","",28701332,"2024-10-17T10:31:59",3,"NO ERROR",12.37,100,1010.34,0.35,0.45,0.46],
    [5607,363171,"Vazduh","Libelium","0004A30B0021DF70",44.979,16.7091,"","","Prijedor","",28701614,"2024-10-17T11:32:41",3,"NO ERROR",12.35,100,1010.27,0.2,0.25,0.25],
    [5608,363171,"Vazduh","Libelium","0004A30B0021DF70",44.979,16.7091,"","","Prijedor","",28701982,"2024-10-17T12:33:23",3,"NO ERROR",12.93,100,1009.87,0.17,0.19,0.19],
    [5609,363171,"Vazduh","Libelium","0004A30B0021DF70",44.979,16.7091,"","","Prijedor","",28702371,"2024-10-17T13:34:05",3,"NO ERROR",12.61,100,1009.36,0.34,0.42,0.42],
    [5610,363171,"Vazduh","Libelium","0004A30B0021DF70",44.979,16.7091,"","","Prijedor","",28702698,"2024-10-17T14:34:47",3,"NO ERROR",13.73,100,1008.96,0.11,0.12,0.12],
    [5611,363171,"Vazduh","Libelium","0004A30B0021DF70",44.979,16.7091,"","","Prijedor","",28703104,"2024-10-17T15:35:35",3,"NO ERROR",13.97,100,1008.86,0.08,0.09,0.09],
    [5612,363171,"Vazduh","Libelium","0004A30B0021DF70",44.979,16.7091,"","","Prijedor","",28703456,"2024-10-17T16:36:17",3,"NO ERROR",13.83,100,1008.5,0.44,0.47,0.47],
    [5613,363171,"Vazduh","Libelium","0004A30B0021DF70",44.979,16.7091,"","","Prijedor","",28703770,"2024-10-17T17:36:59",3,"NO ERROR",13.26,100,1008.37,0.17,0.18,0.18],
    [5614,363171,"Vazduh","Libelium","0004A30B0021DF70",44.979,16.7091,"","","Prijedor","",28704092,"2024-10-17T18:37:41",3,"NO ERROR",12.79,100,1008.48,0.9,1.04,1.06],
    [5615,363171,"Vazduh","Libelium","0004A30B0021DF70",44.979,16.7091,"","","Prijedor","",28704391,"2024-10-17T19:38:29",3,"NO ERROR",12.87,100,1008.56,0.44,0.48,0.48],
    [5616,363171,"Vazduh","Libelium","0004A30B0021DF70",44.979,16.7091,"","","Prijedor","",28704689,"2024-10-17T20:39:11",3,"NO ERROR",12.77,100,1008.54,0.67,0.7,0.7],
    [5617,363171,"Vazduh","Libelium","0004A30B0021DF70",44.979,16.7091,"","","Prijedor","",28705048,"2024-10-17T21:39:53",3,"NO ERROR",12.8,100,1008.43,1.51,1.85,5.85],
    [5618,363171,"Vazduh","Libelium","0004A30B0021DF70",44.979,16.7091,"","","Prijedor","",28705419,"2024-10-17T22:40:35",3,"NO ERROR",12.68,100,1008.36,0.77,0.86,0.86],
    [5619,363171,"Vazduh","Libelium","0004A30B0021DF70",44.979,16.7091,"","","Prijedor","",28705751,"2024-10-17T23:41:18",3,"NO ERROR",12.68,100,1008.09,2.13,2.6,2.74],
    [5620,363171,"Vazduh","Libelium","0004A30B0021DF70",44.979,16.7091,"","","Prijedor","",28706080,"2024-10-18T00:42:00",3,"NO ERROR",12.58,100,1007.87,2.72,3.08,3.08],
    [5621,363171,"Vazduh","Libelium","0004A30B0021DF70",44.979,16.7091,"","","Prijedor","",28706365,"2024-10-18T01:42:42",3,"NO ERROR",12.58,100,1007.71,3,3.45,3.46],
    [5622,363171,"Vazduh","Libelium","0004A30B0021DF70",44.979,16.7091,"","","Prijedor","",28706670,"2024-10-18T02:43:24",3,"NO ERROR",12.53,100,1007.26,5.87,6.8,6.81],
    [5623,363171,"Vazduh","Libelium","0004A30B0021DF70",44.979,16.7091,"","","Prijedor","",28706956,"2024-10-18T03:44:06",3,"NO ERROR",12.46,100,1006.62,6.29,7.57,7.62],
    [5624,363171,"Vazduh","Libelium","0004A30B0021DF70",44.979,16.7091,"","","Prijedor","",28707246,"2024-10-18T04:44:48",3,"NO ERROR",12.18,100,1006.29,9.48,11.94,13.57],
    [5625,363171,"Vazduh","Libelium","0004A30B0021DF70",44.979,16.7091,"","","Prijedor","",28707605,"2024-10-18T05:45:30",3,"NO ERROR",12.21,100,1006.51,9.17,11.58,12.24],
    [5626,363171,"Vazduh","Libelium","0004A30B0021DF70",44.979,16.7091,"","","Prijedor","",28707963,"2024-10-18T06:46:12",3,"NO ERROR",12.2,100,1006.15,5.84,6.99,7.01],
    [5627,363171,"Vazduh","Libelium","0004A30B0021DF70",44.979,16.7091,"","","Prijedor","",28708305,"2024-10-18T07:46:54",3,"NO ERROR",12.49,100,1006.7,1.22,1.3,1.3],
    [5628,363171,"Vazduh","Libelium","0004A30B0021DF70",44.979,16.7091,"","","Prijedor","",28708644,"2024-10-18T08:47:36",3,"NO ERROR",12.78,100,1006.72,1.64,1.87,1.99],
    [5629,363171,"Vazduh","Libelium","0004A30B0021DF70",44.979,16.7091,"","","Prijedor","",28708954,"2024-10-18T09:48:18",3,"NO ERROR",13.69,100,1006.68,0.33,0.35,0.35],
    [5630,363171,"Vazduh","Libelium","0004A30B0021DF70",44.979,16.7091,"","","Prijedor","",28709275,"2024-10-18T10:49:00",3,"NO ERROR",14.91,100,1006.69,0.08,0.08,0.08],
    [5631,363171,"Vazduh","Libelium","0004A30B0021DF70",44.979,16.7091,"","","Prijedor","",28709596,"2024-10-18T11:49:42",3,"NO ERROR",14.88,100,1006.55,0.1,0.1,0.1],
    [5632,363171,"Vazduh","Libelium","0004A30B0021DF70",44.979,16.7091,"","","Prijedor","",28709922,"2024-10-18T12:50:24",3,"NO ERROR",15.35,100,1006.19,0.32,0.43,0.43],
    [5633,363171,"Vazduh","Libelium","0004A30B0021DF70",44.979,16.7091,"","","Prijedor","",28710280,"2024-10-18T13:51:06",3,"NO ERROR",14.99,100,1005.76,0.39,0.44,0.44],
    [5634,363171,"Vazduh","Libelium","0004A30B0021DF70",44.979,16.7091,"","","Prijedor","",28710627,"2024-10-18T14:51:49",3,"NO ERROR",14.59,100,1005.66,0.26,0.27,0.27],
    [5635,363171,"Vazduh","Libelium","0004A30B0021DF70",44.979,16.7091,"","","Prijedor","",28710994,"2024-10-18T15:52:31",3,"NO ERROR",14.66,100,1005.38,0.27,0.32,0.32],
    [5636,363171,"Vazduh","Libelium","0004A30B0021DF70",44.979,16.7091,"","","Prijedor","",28711291,"2024-10-18T16:53:13",3,"NO ERROR",14.22,100,1005.36,0.71,0.79,0.79],
    [5637,363171,"Vazduh","Libelium","0004A30B0021DF70",44.979,16.7091,"","","Prijedor","",28711604,"2024-10-18T17:53:55",3,"NO ERROR",14.08,100,1005.46,0.87,1.07,1.09],
    [5638,363171,"Vazduh","Libelium","0004A30B0021DF70",44.979,16.7091,"","","Prijedor","",28711918,"2024-10-18T18:54:43",3,"NO ERROR",14.01,100,1005.77,0.62,0.68,0.68],
    [5639,363171,"Vazduh","Libelium","0004A30B0021DF70",44.979,16.7091,"","","Prijedor","",28712208,"2024-10-18T19:55:25",3,"NO ERROR",13.89,100,1005.53,0.97,1.24,1.36],
    [5640,363171,"Vazduh","Libelium","0004A30B0021DF70",44.979,16.7091,"","","Prijedor","",28712526,"2024-10-18T20:56:07",3,"NO ERROR",13.82,100,1005.55,0.72,0.76,0.76],
    [5641,363171,"Vazduh","Libelium","0004A30B0021DF70",44.979,16.7091,"","","Prijedor","",28712913,"2024-10-18T21:56:49",3,"NO ERROR",13.79,100,1005.79,0.67,0.74,0.74],
    [5642,363171,"Vazduh","Libelium","0004A30B0021DF70",44.979,16.7091,"","","Prijedor","",28713251,"2024-10-18T22:57:37",3,"NO ERROR",13.62,100,1005.64,1.22,1.42,1.44],
    [5643,363171,"Vazduh","Libelium","0004A30B0021DF70",44.979,16.7091,"","","Prijedor","",28713626,"2024-10-18T23:58:19",3,"NO ERROR",13.33,100,1005.7,0.51,0.65,0.75],
    [5644,363171,"Vazduh","Libelium","0004A30B0021DF70",44.979,16.7091,"","","Prijedor","",28713977,"2024-10-19T00:59:01",3,"NO ERROR",13.17,100,1005.51,0.52,0.83,0.95],
    [5645,363171,"Vazduh","Libelium","0004A30B0021DF70",44.979,16.7091,"","","Prijedor","",28714272,"2024-10-19T01:59:43",3,"NO ERROR",13.45,100,1005.43,0.26,0.44,0.57],
    [5646,363171,"Vazduh","Libelium","0004A30B0021DF70",44.979,16.7091,"","","Prijedor","",28714591,"2024-10-19T03:00:25",3,"NO ERROR",13.09,100,1005.2,0.33,0.45,0.46],
    [5647,363171,"Vazduh","Libelium","0004A30B0021DF70",44.979,16.7091,"","","Prijedor","",28714871,"2024-10-19T04:01:07",3,"NO ERROR",12.94,100,1005.4,0.2,0.38,0.43],
    [5648,363171,"Vazduh","Libelium","0004A30B0021DF70",44.979,16.7091,"","","Prijedor","",28715169,"2024-10-19T05:01:50",3,"NO ERROR",12.44,100,1005.35,0.43,0.52,0.53],
    [5649,363171,"Vazduh","Libelium","0004A30B0021DF70",44.979,16.7091,"","","Prijedor","",28715550,"2024-10-19T06:02:32",3,"NO ERROR",12.41,100,1005.28,0.86,1.01,1.01],
    [5650,363171,"Vazduh","Libelium","0004A30B0021DF70",44.979,16.7091,"","","Prijedor","",28715918,"2024-10-19T07:03:14",3,"NO ERROR",12.27,100,1005.31,1.47,1.66,1.67],
    [5651,363171,"Vazduh","Libelium","0004A30B0021DF70",44.979,16.7091,"","","Prijedor","",28716246,"2024-10-19T08:03:56",3,"NO ERROR",12.68,100,1005.45,0.22,0.28,0.28],
    [5652,363171,"Vazduh","Libelium","0004A30B0021DF70",44.979,16.7091,"","","Prijedor","",28716622,"2024-10-19T09:04:38",3,"NO ERROR",13.06,100,1005.82,1.04,1.11,1.11],
    [5653,363171,"Vazduh","Libelium","0004A30B0021DF70",44.979,16.7091,"","","Prijedor","",28716938,"2024-10-19T10:05:20",3,"NO ERROR",14.11,100,1006.02,0.68,0.73,0.73],
    [5654,363171,"Vazduh","Libelium","0004A30B0021DF70",44.979,16.7091,"","","Prijedor","",28717237,"2024-10-19T11:06:02",3,"NO ERROR",15.44,100,1006.3,0.08,0.09,0.09],
    [5655,363171,"Vazduh","Libelium","0004A30B0021DF70",44.979,16.7091,"","","Prijedor","",28717596,"2024-10-19T12:06:44",3,"NO ERROR",16.51,100,1006.28,0.15,0.2,0.2],
    [5656,363171,"Vazduh","Libelium","0004A30B0021DF70",44.979,16.7091,"","","Prijedor","",28717911,"2024-10-19T13:07:26",3,"NO ERROR",17.31,100,1005.92,0.52,0.99,1.07],
    [5657,363171,"Vazduh","Libelium","0004A30B0021DF70",44.979,16.7091,"","","Prijedor","",28718244,"2024-10-19T14:08:08",3,"NO ERROR",17.7,100,1005.89,0.11,0.2,0.2],
    [5658,363171,"Vazduh","Libelium","0004A30B0021DF70",44.979,16.7091,"","","Prijedor","",28718638,"2024-10-19T15:08:50",3,"NO ERROR",20.6,74.3,1005.68,0.29,0.51,0.64],
    [5659,363171,"Vazduh","Libelium","0004A30B0021DF70",44.979,16.7091,"","","Prijedor","",28718953,"2024-10-19T16:09:32",3,"NO ERROR",17.53,100,1005.95,0.03,0.04,0.04],
    [5660,363171,"Vazduh","Libelium","0004A30B0021DF70",44.979,16.7091,"","","Prijedor","",28719235,"2024-10-19T17:10:14",3,"NO ERROR",16.34,100,1006.29,0.32,0.45,0.45],
    [5661,363171,"Vazduh","Libelium","0004A30B0021DF70",44.979,16.7091,"","","Prijedor","",28719560,"2024-10-19T18:10:57",3,"NO ERROR",15.43,100,1006.8,0.29,0.52,1.45],
    [5662,363171,"Vazduh","Libelium","0004A30B0021DF70",44.979,16.7091,"","","Prijedor","",28719888,"2024-10-19T19:11:39",3,"NO ERROR",14.67,100,1007.22,0.45,0.64,0.64],
    [5663,363171,"Vazduh","Libelium","0004A30B0021DF70",44.979,16.7091,"","","Prijedor","",28720157,"2024-10-19T20:12:21",3,"NO ERROR",14.61,100,1007.46,0.15,0.15,0.15],
    [5664,363171,"Vazduh","Libelium","0004A30B0021DF70",44.979,16.7091,"","","Prijedor","",28720522,"2024-10-19T21:13:03",3,"NO ERROR",13.94,100,1007.66,0.1,0.24,0.25],
    [5665,363171,"Vazduh","Libelium","0004A30B0021DF70",44.979,16.7091,"","","Prijedor","",28720876,"2024-10-19T22:13:45",3,"NO ERROR",13.97,100,1007.85,0.12,0.22,0.23],
    [5666,363171,"Vazduh","Libelium","0004A30B0021DF70",44.979,16.7091,"","","Prijedor","",28721231,"2024-10-19T23:14:27",3,"NO ERROR",14.4,100,1008.19,0.24,0.62,0.83],
    [5667,363171,"Vazduh","Libelium","0004A30B0021DF70",44.979,16.7091,"","","Prijedor","",28721584,"2024-10-20T00:15:09",3,"NO ERROR",14.03,100,1008.82,0.2,0.32,0.33],
    [5668,363171,"Vazduh","Libelium","0004A30B0021DF70",44.979,16.7091,"","","Prijedor","",28721885,"2024-10-20T01:15:51",3,"NO ERROR",13.12,100,1009.08,0.26,0.41,0.43],
    [5669,363171,"Vazduh","Libelium","0004A30B0021DF70",44.979,16.7091,"","","Prijedor","",28722165,"2024-10-20T02:16:33",3,"NO ERROR",11.23,100,1009.84,0.24,0.58,0.66],
    [5670,363171,"Vazduh","Libelium","0004A30B0021DF70",44.979,16.7091,"","","Prijedor","",28722756,"2024-10-20T04:18:15",3,"NO ERROR",8.91,100,1009.94,0.48,0.68,0.69],
    [5671,363171,"Vazduh","Libelium","0004A30B0021DF70",44.979,16.7091,"","","Prijedor","",28723075,"2024-10-20T05:18:57",3,"NO ERROR",8.36,100,1010.68,0.28,0.59,0.72],
    [5672,363171,"Vazduh","Libelium","0004A30B0021DF70",44.979,16.7091,"","","Prijedor","",28723448,"2024-10-20T06:19:52",3,"NO ERROR",7.52,100,1011.13,0.39,0.51,0.51],
    [5673,363171,"Vazduh","Libelium","0004A30B0021DF70",44.979,16.7091,"","","Prijedor","",28723751,"2024-10-20T07:20:33",3,"NO ERROR",6.6,100,1011.56,0.31,0.39,0.39],
    [5674,363171,"Vazduh","Libelium","0004A30B0021DF70",44.979,16.7091,"","","Prijedor","",28724083,"2024-10-20T08:21:16",3,"NO ERROR",7.21,100,1012.57,0.22,0.5,0.67],
    [5675,363171,"Vazduh","Libelium","0004A30B0021DF70",44.979,16.7091,"","","Prijedor","",28724427,"2024-10-20T09:22:04",3,"NO ERROR",14,96.1,1012.59,0.08,0.11,0.11],
    [5676,363171,"Vazduh","Libelium","0004A30B0021DF70",44.979,16.7091,"","","Prijedor","",28724700,"2024-10-20T10:22:46",3,"NO ERROR",14.76,85.4,1013.21,0.06,0.08,0.08],
    [5677,363171,"Vazduh","Libelium","0004A30B0021DF70",44.979,16.7091,"","","Prijedor","",28724997,"2024-10-20T11:23:28",3,"NO ERROR",14.97,82.5,1013.35,0.12,0.26,0.4],
    [5678,363171,"Vazduh","Libelium","0004A30B0021DF70",44.979,16.7091,"","","Prijedor","",28730441,"2024-10-21T04:35:29",3,"NO ERROR",6.21,100,1015.67,2.31,14.4,342.81],
    [5679,363171,"Vazduh","Libelium","0004A30B0021DF70",44.979,16.7091,"","","Prijedor","",28730810,"2024-10-21T05:36:17",3,"NO ERROR",6.15,100,1015.85,1.73,7.4,109.9],
    [5680,363171,"Vazduh","Libelium","0004A30B0021DF70",44.979,16.7091,"","","Prijedor","",28731160,"2024-10-21T06:36:59",3,"NO ERROR",6.2,100,1016.03,1.75,11.18,78.65],
    [5681,363171,"Vazduh","Libelium","0004A30B0021DF70",44.979,16.7091,"","","Prijedor","",28731492,"2024-10-21T07:37:41",3,"NO ERROR",6.27,100,1016.28,6.24,34.18,414.28],
    [5682,363171,"Vazduh","Libelium","0004A30B0021DF70",44.979,16.7091,"","","Prijedor","",28731823,"2024-10-21T08:38:23",3,"NO ERROR",6.7,100,1016.81,2.97,13.84,150.4],
    [5683,363171,"Vazduh","Libelium","0004A30B0021DF70",44.979,16.7091,"","","Prijedor","",28732137,"2024-10-21T09:39:05",3,"NO ERROR",7.6,100,1016.96,0.5,0.81,17.2],
    [5684,363171,"Vazduh","Libelium","0004A30B0021DF70",44.979,16.7091,"","","Prijedor","",28732444,"2024-10-21T10:39:47",3,"NO ERROR",8.79,100,1017.05,0.82,0.95,0.95],
    [5685,363171,"Vazduh","Libelium","0004A30B0021DF70",44.979,16.7091,"","","Prijedor","",28732758,"2024-10-21T11:40:30",3,"NO ERROR",10.52,100,1016.74,0.32,0.36,0.36],
    [5686,363171,"Vazduh","Libelium","0004A30B0021DF70",44.979,16.7091,"","","Prijedor","",28733097,"2024-10-21T12:41:12",3,"NO ERROR",12.2,100,1015.99,0.23,0.27,0.28],
    [5687,363171,"Vazduh","Libelium","0004A30B0021DF70",44.979,16.7091,"","","Prijedor","",28733474,"2024-10-21T13:41:54",3,"NO ERROR",15.33,100,1015.28,0.15,0.18,0.18],
    [5688,363171,"Vazduh","Libelium","0004A30B0021DF70",44.979,16.7091,"","","Prijedor","",28733870,"2024-10-21T14:42:36",3,"NO ERROR",21.6,76.7,1014.96,0.23,0.45,0.84],
    [5689,363171,"Vazduh","Libelium","0004A30B0021DF70",44.979,16.7091,"","","Prijedor","",28734271,"2024-10-21T15:43:18",3,"NO ERROR",23.89,63.7,1014.53,0.15,0.19,0.19],
    [5690,363171,"Vazduh","Libelium","0004A30B0021DF70",44.979,16.7091,"","","Prijedor","",28734628,"2024-10-21T16:44:00",3,"NO ERROR",19.35,83.4,1014.18,0.16,0.36,1.37],
    [5691,363171,"Vazduh","Libelium","0004A30B0021DF70",44.979,16.7091,"","","Prijedor","",28734959,"2024-10-21T17:44:42",3,"NO ERROR",18.01,92.4,1014.04,0.3,0.36,0.36],
    [5692,363171,"Vazduh","Libelium","0004A30B0021DF70",44.979,16.7091,"","","Prijedor","",28735265,"2024-10-21T18:45:30",3,"NO ERROR",16.26,100,1014.29,0.46,0.53,0.53],
    [5693,363171,"Vazduh","Libelium","0004A30B0021DF70",44.979,16.7091,"","","Prijedor","",28735556,"2024-10-21T19:46:12",3,"NO ERROR",13.58,100,1014.48,0.73,1.37,1.63],
    [5694,363171,"Vazduh","Libelium","0004A30B0021DF70",44.979,16.7091,"","","Prijedor","",28735857,"2024-10-21T20:46:54",3,"NO ERROR",12.03,100,1014.33,0.69,1.2,1.76],
    [5695,363171,"Vazduh","Libelium","0004A30B0021DF70",44.979,16.7091,"","","Prijedor","",28736213,"2024-10-21T21:47:36",3,"NO ERROR",10.74,100,1014.37,0.63,0.93,0.97],
    [5696,363171,"Vazduh","Libelium","0004A30B0021DF70",44.979,16.7091,"","","Prijedor","",28736546,"2024-10-21T22:48:18",3,"NO ERROR",9.92,100,1014.68,0.83,1.16,1.18],
    [5697,363171,"Vazduh","Libelium","0004A30B0021DF70",44.979,16.7091,"","","Prijedor","",28736885,"2024-10-21T23:49:01",3,"NO ERROR",8.6,100,1014.82,1.61,2.29,7.13],
    [5698,363171,"Vazduh","Libelium","0004A30B0021DF70",44.979,16.7091,"","","Prijedor","",28737202,"2024-10-22T00:49:43",3,"NO ERROR",8.37,100,1014.66,0.49,0.57,0.57],
    [5699,363171,"Vazduh","Libelium","0004A30B0021DF70",44.979,16.7091,"","","Prijedor","",28737785,"2024-10-22T02:51:13",3,"NO ERROR",8.56,100,1014.15,2.35,7.42,108.33],
    [5700,363171,"Vazduh","Libelium","0004A30B0021DF70",44.979,16.7091,"","","Prijedor","",28738058,"2024-10-22T03:51:55",3,"NO ERROR",8.46,100,1013.91,0.96,6.18,103.98],
    [5701,363171,"Vazduh","Libelium","0004A30B0021DF70",44.979,16.7091,"","","Prijedor","",28738315,"2024-10-22T04:52:37",3,"NO ERROR",7.93,100,1013.77,0.96,3.54,25.87],
    [5702,363171,"Vazduh","Libelium","0004A30B0021DF70",44.979,16.7091,"","","Prijedor","",28738709,"2024-10-22T05:53:19",3,"NO ERROR",8.04,100,1013.86,0.03,0.12,1.81],
    [5703,363171,"Vazduh","Libelium","0004A30B0021DF70",44.979,16.7091,"","","Prijedor","",28739065,"2024-10-22T06:54:01",3,"NO ERROR",8,100,1013.99,4.11,18.36,167.33],
    [5704,363171,"Vazduh","Libelium","0004A30B0021DF70",44.979,16.7091,"","","Prijedor","",28739373,"2024-10-22T07:54:43",3,"NO ERROR",8.38,100,1014.34,4.2,10.36,50.4],
    [5705,363171,"Vazduh","Libelium","0004A30B0021DF70",44.979,16.7091,"","","Prijedor","",28739726,"2024-10-22T08:55:25",3,"NO ERROR",8.34,100,1014.64,1.23,4.86,118.19],
    [5706,363171,"Vazduh","Libelium","0004A30B0021DF70",44.979,16.7091,"","","Prijedor","",28740036,"2024-10-22T09:56:13",3,"NO ERROR",9.49,100,1014.64,0.63,2.72,18.21],
    [5707,363171,"Vazduh","Libelium","0004A30B0021DF70",44.979,16.7091,"","","Prijedor","",28740319,"2024-10-22T10:57:01",3,"NO ERROR",12.7,100,1014.4,0.15,0.17,0.17],
    [5708,363171,"Vazduh","Libelium","0004A30B0021DF70",44.979,16.7091,"","","Prijedor","",28740648,"2024-10-22T11:57:43",3,"NO ERROR",15.39,100,1013.72,0.27,0.3,0.3],
    [5709,363171,"Vazduh","Libelium","0004A30B0021DF70",44.979,16.7091,"","","Prijedor","",28741009,"2024-10-22T12:58:25",3,"NO ERROR",19.08,92,1012.88,0.7,1.26,2.26],
    [5710,363171,"Vazduh","Libelium","0004A30B0021DF70",44.979,16.7091,"","","Prijedor","",28741344,"2024-10-22T13:59:08",3,"NO ERROR",22.25,74.7,1012.23,0.08,0.1,0.1],
    [5711,363171,"Vazduh","Libelium","0004A30B0021DF70",44.979,16.7091,"","","Prijedor","",28741731,"2024-10-22T14:59:50",3,"NO ERROR",27.05,60.1,1011.85,0.21,0.43,0.82],
    [5712,363171,"Vazduh","Libelium","0004A30B0021DF70",44.979,16.7091,"","","Prijedor","",28742064,"2024-10-22T16:00:32",3,"NO ERROR",27.4,56.9,1011.69,0.78,1.42,1.49],
    [5713,363171,"Vazduh","Libelium","0004A30B0021DF70",44.979,16.7091,"","","Prijedor","",28742387,"2024-10-22T17:01:14",3,"NO ERROR",22.32,76.5,1011.64,0.21,0.24,0.24],
    [5714,363171,"Vazduh","Libelium","0004A30B0021DF70",44.979,16.7091,"","","Prijedor","",28742695,"2024-10-22T18:01:56",3,"NO ERROR",19.58,100,1012.08,1.12,1.75,1.86],
    [5715,363171,"Vazduh","Libelium","0004A30B0021DF70",44.979,16.7091,"","","Prijedor","",28743023,"2024-10-22T19:02:38",3,"NO ERROR",17.76,100,1012.58,0.71,1.25,1.46],
    [5716,363171,"Vazduh","Libelium","0004A30B0021DF70",44.979,16.7091,"","","Prijedor","",28743274,"2024-10-22T20:03:20",3,"NO ERROR",15.47,100,1012.9,0.3,0.61,1.13],
    [5717,363171,"Vazduh","Libelium","0004A30B0021DF70",44.979,16.7091,"","","Prijedor","",28743608,"2024-10-22T21:04:02",3,"NO ERROR",14.71,100,1013.14,0.67,1,1.12],
    [5718,363171,"Vazduh","Libelium","0004A30B0021DF70",44.979,16.7091,"","","Prijedor","",28743981,"2024-10-22T22:04:44",3,"NO ERROR",13.31,100,1013.64,0.58,0.88,1.07],
    [5719,363171,"Vazduh","Libelium","0004A30B0021DF70",44.979,16.7091,"","","Prijedor","",28744297,"2024-10-22T23:05:26",3,"NO ERROR",12.75,100,1013.79,0.57,1.06,1.31],
    [5720,363171,"Vazduh","Libelium","0004A30B0021DF70",44.979,16.7091,"","","Prijedor","",28744649,"2024-10-23T00:06:08",3,"NO ERROR",11.29,100,1013.87,0.85,1.93,27.5],
    [5721,363171,"Vazduh","Libelium","0004A30B0021DF70",44.979,16.7091,"","","Prijedor","",28744934,"2024-10-23T01:06:50",3,"NO ERROR",11.52,100,1014.01,1.4,3.26,11.64],
    [5722,363171,"Vazduh","Libelium","0004A30B0021DF70",44.979,16.7091,"","","Prijedor","",28745209,"2024-10-23T02:07:33",3,"NO ERROR",11.11,100,1014.29,4.58,16,848.34],
    [5723,363171,"Vazduh","Libelium","0004A30B0021DF70",44.979,16.7091,"","","Prijedor","",28745534,"2024-10-23T03:08:15",3,"NO ERROR",10.41,100,1014.49,1.4,3.8,45.66],
    [5724,363171,"Vazduh","Libelium","0004A30B0021DF70",44.979,16.7091,"","","Prijedor","",28745814,"2024-10-23T04:08:57",3,"NO ERROR",10.76,100,1014.62,3.19,5.17,102.88],
    [5725,363171,"Vazduh","Libelium","0004A30B0021DF70",44.979,16.7091,"","","Prijedor","",28746095,"2024-10-23T05:09:39",3,"NO ERROR",10.81,100,1014.65,0.5,1.37,24.65],
    [5726,363171,"Vazduh","Libelium","0004A30B0021DF70",44.979,16.7091,"","","Prijedor","",28746465,"2024-10-23T06:10:21",3,"NO ERROR",11.3,100,1014.72,0.52,0.76,0.88],
    [5727,363171,"Vazduh","Libelium","0004A30B0021DF70",44.979,16.7091,"","","Prijedor","",28746854,"2024-10-23T07:11:09",3,"NO ERROR",10.96,100,1015.12,0.63,0.83,0.91],
    [5728,363171,"Vazduh","Libelium","0004A30B0021DF70",44.979,16.7091,"","","Prijedor","",28747156,"2024-10-23T08:11:51",3,"NO ERROR",11.49,100,1015.72,0.59,0.97,1.12],
    [5729,363171,"Vazduh","Libelium","0004A30B0021DF70",44.979,16.7091,"","","Prijedor","",28747484,"2024-10-23T09:12:33",3,"NO ERROR",12.69,100,1016.09,0.11,0.22,0.22],
    [5730,363171,"Vazduh","Libelium","0004A30B0021DF70",44.979,16.7091,"","","Prijedor","",28747795,"2024-10-23T10:13:15",3,"NO ERROR",13.57,100,1016.33,0.06,0.08,0.08],
    [5731,363171,"Vazduh","Libelium","0004A30B0021DF70",44.979,16.7091,"","","Prijedor","",28748114,"2024-10-23T11:14:03",3,"NO ERROR",15.45,100,1016.47,0.07,0.12,0.12],
    [5732,363171,"Vazduh","Libelium","0004A30B0021DF70",44.979,16.7091,"","","Prijedor","",28748787,"2024-10-23T13:15:39",3,"NO ERROR",17.11,100,1016.03,0.29,0.38,0.39],
    [5733,363171,"Vazduh","Libelium","0004A30B0021DF70",44.979,16.7091,"","","Prijedor","",28749145,"2024-10-23T14:16:21",3,"NO ERROR",17.95,100,1015.79,0.14,0.28,0.36],
    [5734,363171,"Vazduh","Libelium","0004A30B0021DF70",44.979,16.7091,"","","Prijedor","",28749488,"2024-10-23T15:17:03",3,"NO ERROR",18.23,100,1015.33,0.52,0.83,1.03],
    [5735,363171,"Vazduh","Libelium","0004A30B0021DF70",44.979,16.7091,"","","Prijedor","",28749843,"2024-10-23T16:17:46",3,"NO ERROR",18.05,100,1015.14,0.42,0.68,0.72],
    [5736,363171,"Vazduh","Libelium","0004A30B0021DF70",44.979,16.7091,"","","Prijedor","",28750134,"2024-10-23T17:18:28",3,"NO ERROR",17.23,100,1015.31,0.46,0.85,1.09],
    [5737,363171,"Vazduh","Libelium","0004A30B0021DF70",44.979,16.7091,"","","Prijedor","",28750431,"2024-10-23T18:19:10",3,"NO ERROR",16.79,100,1015.63,0.38,0.61,0.72],
    [5738,363171,"Vazduh","Libelium","0004A30B0021DF70",44.979,16.7091,"","","Prijedor","",28750744,"2024-10-23T19:19:52",3,"NO ERROR",16.53,100,1015.8,0.31,0.81,1.08],
    [5739,363171,"Vazduh","Libelium","0004A30B0021DF70",44.979,16.7091,"","","Prijedor","",28751007,"2024-10-23T20:20:34",3,"NO ERROR",15.76,100,1015.78,0.4,0.58,0.59],
    [5740,363171,"Vazduh","Libelium","0004A30B0021DF70",44.979,16.7091,"","","Prijedor","",28751344,"2024-10-23T21:21:16",3,"NO ERROR",15.5,100,1016.09,0.77,1.03,1.07],
    [5741,363171,"Vazduh","Libelium","0004A30B0021DF70",44.979,16.7091,"","","Prijedor","",28751711,"2024-10-23T22:21:58",3,"NO ERROR",14.98,100,1016.23,0.58,0.89,1.07],
    [5742,363171,"Vazduh","Libelium","0004A30B0021DF70",44.979,16.7091,"","","Prijedor","",28752019,"2024-10-23T23:22:40",3,"NO ERROR",14.43,100,1015.96,0.69,0.97,1.08],
    [5743,363171,"Vazduh","Libelium","0004A30B0021DF70",44.979,16.7091,"","","Prijedor","",28752369,"2024-10-24T00:23:22",3,"NO ERROR",13.68,100,1015.78,0.54,0.86,1.13],
    [5744,363171,"Vazduh","Libelium","0004A30B0021DF70",44.979,16.7091,"","","Prijedor","",28752713,"2024-10-24T01:24:04",3,"NO ERROR",13.55,100,1015.57,0.61,0.67,0.67],
    [5745,363171,"Vazduh","Libelium","0004A30B0021DF70",44.979,16.7091,"","","Prijedor","",28752994,"2024-10-24T02:24:52",3,"NO ERROR",13.4,100,1015.48,0.56,0.92,1.44],
    [5746,363171,"Vazduh","Libelium","0004A30B0021DF70",44.979,16.7091,"","","Prijedor","",28753318,"2024-10-24T03:25:34",3,"NO ERROR",13.17,100,1015.24,0.85,1.35,1.41],
    [5747,363171,"Vazduh","Libelium","0004A30B0021DF70",44.979,16.7091,"","","Prijedor","",28753615,"2024-10-24T04:26:16",3,"NO ERROR",12.97,100,1015.24,0.93,1.16,1.19],
    [5748,363171,"Vazduh","Libelium","0004A30B0021DF70",44.979,16.7091,"","","Prijedor","",28753962,"2024-10-24T05:26:58",3,"NO ERROR",12.98,100,1015.28,0.65,0.82,0.84],
    [5749,363171,"Vazduh","Libelium","0004A30B0021DF70",44.979,16.7091,"","","Prijedor","",28755022,"2024-10-24T08:29:05",3,"NO ERROR",12.77,100,1015.85,1.06,1.29,1.3],
    [5750,363171,"Vazduh","Libelium","0004A30B0021DF70",44.979,16.7091,"","","Prijedor","",28755387,"2024-10-24T09:29:47",3,"NO ERROR",13.22,100,1016.09,0.5,0.64,0.7],
    [5751,363171,"Vazduh","Libelium","0004A30B0021DF70",44.979,16.7091,"","","Prijedor","",28755700,"2024-10-24T10:30:29",3,"NO ERROR",13.84,100,1016.26,0.59,0.81,0.81],
    [5752,363171,"Vazduh","Libelium","0004A30B0021DF70",44.979,16.7091,"","","Prijedor","",28756003,"2024-10-24T11:31:11",3,"NO ERROR",14.92,100,1016.38,0.17,0.29,0.3],
    [5753,363171,"Vazduh","Libelium","0004A30B0021DF70",44.979,16.7091,"","","Prijedor","",28756304,"2024-10-24T12:31:53",3,"NO ERROR",15.44,100,1015.99,0.4,0.6,0.61],
    [5754,363171,"Vazduh","Libelium","0004A30B0021DF70",44.979,16.7091,"","","Prijedor","",28784130,"2024-10-28T07:37:06",3,"NO ERROR",9.82,100,1013.02,1.64,7.68,104.99],
    [5755,363171,"Vazduh","Libelium","0004A30B0021DF70",44.979,16.7091,"","","Prijedor","",28784453,"2024-10-28T08:37:48",3,"NO ERROR",10.61,100,1013.36,0.09,0.39,1.08],
    [5756,363171,"Vazduh","Libelium","0004A30B0021DF70",44.979,16.7091,"","","Prijedor","",28784749,"2024-10-28T09:38:30",3,"NO ERROR",12.02,100,1013.4,0.15,0.77,7.22],
    [5757,363171,"Vazduh","Libelium","0004A30B0021DF70",44.979,16.7091,"","","Prijedor","",28785126,"2024-10-28T10:39:12",3,"NO ERROR",14.99,100,1013.24,0.02,0.02,0.02],
    [5758,363171,"Vazduh","Libelium","0004A30B0021DF70",44.979,16.7091,"","","Prijedor","",28785472,"2024-10-28T11:39:54",3,"NO ERROR",18.22,100,1012.41,0.1,0.1,0.1],
    [5759,363171,"Vazduh","Libelium","0004A30B0021DF70",44.979,16.7091,"","","Prijedor","",28785839,"2024-10-28T12:40:36",3,"NO ERROR",19.72,100,1011.48,0.14,0.2,0.22],
    [5760,363171,"Vazduh","Libelium","0004A30B0021DF70",44.979,16.7091,"","","Prijedor","",28786250,"2024-10-28T13:41:18",3,"NO ERROR",20.97,89.4,1010.87,0.13,0.21,0.21],
    [5761,363171,"Vazduh","Libelium","0004A30B0021DF70",44.979,16.7091,"","","Prijedor","",28786637,"2024-10-28T14:42:00",3,"NO ERROR",22.89,78.1,1010.42,0.13,0.23,0.24],
    [5762,363171,"Vazduh","Libelium","0004A30B0021DF70",44.979,16.7091,"","","Prijedor","",28786970,"2024-10-28T15:42:42",3,"NO ERROR",19.76,96.4,1010.44,0.38,0.54,0.54],
    [5763,363171,"Vazduh","Libelium","0004A30B0021DF70",44.979,16.7091,"","","Prijedor","",28787335,"2024-10-28T16:43:24",3,"NO ERROR",17.4,100,1010.52,0.12,0.29,0.44],
    [5764,363171,"Vazduh","Libelium","0004A30B0021DF70",44.979,16.7091,"","","Prijedor","",28787670,"2024-10-28T17:44:06",3,"NO ERROR",16.08,100,1010.87,0.47,0.64,0.68],
    [5765,363171,"Vazduh","Libelium","0004A30B0021DF70",44.979,16.7091,"","","Prijedor","",28787944,"2024-10-28T18:44:48",3,"NO ERROR",14.95,100,1011.19,0.1,0.13,0.13],
    [5766,363171,"Vazduh","Libelium","0004A30B0021DF70",44.979,16.7091,"","","Prijedor","",28788237,"2024-10-28T19:45:30",3,"NO ERROR",13.62,100,1011.22,0.55,0.76,0.78],
    [5767,363171,"Vazduh","Libelium","0004A30B0021DF70",44.979,16.7091,"","","Prijedor","",28788609,"2024-10-28T20:46:25",3,"NO ERROR",12.92,100,1011.63,0.44,0.62,0.63],
    [5768,363171,"Vazduh","Libelium","0004A30B0021DF70",44.979,16.7091,"","","Prijedor","",28788970,"2024-10-28T21:47:07",3,"NO ERROR",12.53,100,1011.77,0.39,0.44,0.44],
    [5769,363171,"Vazduh","Libelium","0004A30B0021DF70",44.979,16.7091,"","","Prijedor","",28789325,"2024-10-28T22:47:49",3,"NO ERROR",12.19,100,1011.72,0.6,0.66,0.66],
    [5770,363171,"Vazduh","Libelium","0004A30B0021DF70",44.979,16.7091,"","","Prijedor","",28789659,"2024-10-28T23:48:31",3,"NO ERROR",12.16,100,1011.9,0.38,0.49,0.51],
    [5771,363171,"Vazduh","Libelium","0004A30B0021DF70",44.979,16.7091,"","","Prijedor","",28789963,"2024-10-29T00:49:13",3,"NO ERROR",12.04,100,1011.8,0.53,0.64,0.64],
    [5772,363171,"Vazduh","Libelium","0004A30B0021DF70",44.979,16.7091,"","","Prijedor","",28790257,"2024-10-29T01:49:55",3,"NO ERROR",12.15,100,1011.68,0.92,1.2,1.23],
    [5773,363171,"Vazduh","Libelium","0004A30B0021DF70",44.979,16.7091,"","","Prijedor","",28790541,"2024-10-29T02:50:37",3,"NO ERROR",11.92,100,1011.66,4.71,7.95,59.3],
    [5774,363171,"Vazduh","Libelium","0004A30B0021DF70",44.979,16.7091,"","","Prijedor","",28790821,"2024-10-29T03:51:19",3,"NO ERROR",11.95,100,1011.81,19.45,32.92,214.04],
    [5775,363171,"Vazduh","Libelium","0004A30B0021DF70",44.979,16.7091,"","","Prijedor","",28791185,"2024-10-29T04:52:07",3,"NO ERROR",12.13,100,1012.03,10.17,20.09,231.01],
    [5776,363171,"Vazduh","Libelium","0004A30B0021DF70",44.979,16.7091,"","","Prijedor","",28791526,"2024-10-29T05:52:49",3,"NO ERROR",12.11,100,1012.22,17.9,27.99,111.84],
    [5777,363171,"Vazduh","Libelium","0004A30B0021DF70",44.979,16.7091,"","","Prijedor","",28791839,"2024-10-29T06:53:31",3,"NO ERROR",12.21,100,1012.67,22,31.98,100.88],
    [5778,363171,"Vazduh","Libelium","0004A30B0021DF70",44.979,16.7091,"","","Prijedor","",28792180,"2024-10-29T07:54:13",3,"NO ERROR",12.33,100,1013.01,5.19,7.8,26.43],
    [5779,363171,"Vazduh","Libelium","0004A30B0021DF70",44.979,16.7091,"","","Prijedor","",28792512,"2024-10-29T08:54:55",3,"NO ERROR",13.28,100,1013.43,0.27,0.29,0.29],
    [5780,363171,"Vazduh","Libelium","0004A30B0021DF70",44.979,16.7091,"","","Prijedor","",28792806,"2024-10-29T09:55:38",3,"NO ERROR",13.74,100,1013.44,0.13,0.16,0.16],
    [5781,363171,"Vazduh","Libelium","0004A30B0021DF70",44.979,16.7091,"","","Prijedor","",28793142,"2024-10-29T10:56:20",3,"NO ERROR",14.56,100,1013.28,0.06,0.09,0.1],
    [5782,363171,"Vazduh","Libelium","0004A30B0021DF70",44.979,16.7091,"","","Prijedor","",28793464,"2024-10-29T11:57:02",3,"NO ERROR",15.27,100,1012.73,0.28,0.33,0.33],
    [5783,363171,"Vazduh","Libelium","0004A30B0021DF70",44.979,16.7091,"","","Prijedor","",28793850,"2024-10-29T12:57:44",3,"NO ERROR",15.89,100,1011.95,0.15,0.15,0.15],
    [5784,363171,"Vazduh","Libelium","0004A30B0021DF70",44.979,16.7091,"","","Prijedor","",28794273,"2024-10-29T13:58:26",3,"NO ERROR",20.79,99.7,1011.26,0.13,0.18,0.18],
    [5785,363171,"Vazduh","Libelium","0004A30B0021DF70",44.979,16.7091,"","","Prijedor","",28794652,"2024-10-29T14:59:08",3,"NO ERROR",21.95,81.6,1011.06,0.07,0.19,0.27],
    [5786,363171,"Vazduh","Libelium","0004A30B0021DF70",44.979,16.7091,"","","Prijedor","",28794996,"2024-10-29T15:59:50",3,"NO ERROR",17.96,100,1010.73,0.18,0.24,0.26],
    [5787,363171,"Vazduh","Libelium","0004A30B0021DF70",44.979,16.7091,"","","Prijedor","",28795302,"2024-10-29T17:00:32",3,"NO ERROR",15.87,100,1010.87,0.52,0.64,0.64],
    [5788,363171,"Vazduh","Libelium","0004A30B0021DF70",44.979,16.7091,"","","Prijedor","",28795627,"2024-10-29T18:01:14",3,"NO ERROR",14.66,100,1011.05,0.26,0.35,0.37],
    [5789,363171,"Vazduh","Libelium","0004A30B0021DF70",44.979,16.7091,"","","Prijedor","",28795885,"2024-10-29T19:01:56",3,"NO ERROR",12.91,100,1010.99,0.66,0.73,0.73],
    [5790,363171,"Vazduh","Libelium","0004A30B0021DF70",44.979,16.7091,"","","Prijedor","",28796193,"2024-10-29T20:02:38",3,"NO ERROR",11.73,100,1011.13,0.65,0.94,1.07],
    [5791,363171,"Vazduh","Libelium","0004A30B0021DF70",44.979,16.7091,"","","Prijedor","",28796558,"2024-10-29T21:03:20",3,"NO ERROR",10.92,100,1011.29,3.08,8.48,48.46],
    [5792,363171,"Vazduh","Libelium","0004A30B0021DF70",44.979,16.7091,"","","Prijedor","",28796901,"2024-10-29T22:04:02",3,"NO ERROR",10.25,100,1011.27,6.74,12.54,69.78],
    [5793,363171,"Vazduh","Libelium","0004A30B0021DF70",44.979,16.7091,"","","Prijedor","",28797232,"2024-10-29T23:04:51",3,"NO ERROR",10.41,100,1011.35,17.56,26.95,179.88],
    [5794,363171,"Vazduh","Libelium","0004A30B0021DF70",44.979,16.7091,"","","Prijedor","",28797531,"2024-10-30T00:05:33",3,"NO ERROR",10.43,100,1011.14,13.34,18.98,118.11],
    [5795,363171,"Vazduh","Libelium","0004A30B0021DF70",44.979,16.7091,"","","Prijedor","",28797803,"2024-10-30T01:06:21",3,"NO ERROR",10.42,100,1011.16,6.43,15.64,152.34],
    [5796,363171,"Vazduh","Libelium","0004A30B0021DF70",44.979,16.7091,"","","Prijedor","",28798131,"2024-10-30T02:07:03",3,"NO ERROR",10.45,100,1011.17,1.89,7.39,86.55],
    [5797,363171,"Vazduh","Libelium","0004A30B0021DF70",44.979,16.7091,"","","Prijedor","",28798390,"2024-10-30T03:07:45",3,"NO ERROR",10.18,100,1010.91,2.43,14.61,193.23],
    [5798,363171,"Vazduh","Libelium","0004A30B0021DF70",44.979,16.7091,"","","Prijedor","",28798673,"2024-10-30T04:08:27",3,"NO ERROR",9.98,100,1010.97,1.46,6.14,54.74],
    [5799,363171,"Vazduh","Libelium","0004A30B0021DF70",44.979,16.7091,"","","Prijedor","",28799026,"2024-10-30T05:09:09",3,"NO ERROR",10.1,100,1011.31,1.12,4.76,41.35],
    [5800,363171,"Vazduh","Libelium","0004A30B0021DF70",44.979,16.7091,"","","Prijedor","",28799372,"2024-10-30T06:09:51",3,"NO ERROR",9.89,100,1011.28,1.66,4.3,32.79],
    [5801,363171,"Vazduh","Libelium","0004A30B0021DF70",44.979,16.7091,"","","Prijedor","",28799670,"2024-10-30T07:10:33",3,"NO ERROR",10.07,100,1011.74,3.43,7.21,75.9],
    [5802,363171,"Vazduh","Libelium","0004A30B0021DF70",44.979,16.7091,"","","Prijedor","",28799999,"2024-10-30T08:11:15",3,"NO ERROR",10.34,100,1012.03,0.82,4.21,44.35],
    [5803,363171,"Vazduh","Libelium","0004A30B0021DF70",44.979,16.7091,"","","Prijedor","",28800291,"2024-10-30T09:11:57",3,"NO ERROR",11,100,1012.12,1.68,2.85,7.03],
    [5804,363171,"Vazduh","Libelium","0004A30B0021DF70",44.979,16.7091,"","","Prijedor","",28800572,"2024-10-30T10:12:39",3,"NO ERROR",13.02,100,1012.18,0.73,0.87,0.88],
    [5805,363171,"Vazduh","Libelium","0004A30B0021DF70",44.979,16.7091,"","","Prijedor","",28800901,"2024-10-30T11:13:21",3,"NO ERROR",13.26,100,1012.16,0.23,0.25,0.25],
    [5806,363171,"Vazduh","Libelium","0004A30B0021DF70",44.979,16.7091,"","","Prijedor","",28801245,"2024-10-30T12:14:03",3,"NO ERROR",13.63,100,1011.73,0.39,0.51,0.51],
    [5807,363171,"Vazduh","Libelium","0004A30B0021DF70",44.979,16.7091,"","","Prijedor","",28801597,"2024-10-30T13:14:45",3,"NO ERROR",14.54,100,1011.28,0.44,0.64,0.68],
    [5808,363171,"Vazduh","Libelium","0004A30B0021DF70",44.979,16.7091,"","","Prijedor","",28801966,"2024-10-30T14:15:28",3,"NO ERROR",14.76,100,1010.93,0.3,0.35,0.35],
    [5809,363171,"Vazduh","Libelium","0004A30B0021DF70",44.979,16.7091,"","","Prijedor","",28802316,"2024-10-30T15:16:10",3,"NO ERROR",15.55,100,1010.68,0.61,0.63,0.63],
    [5810,363171,"Vazduh","Libelium","0004A30B0021DF70",44.979,16.7091,"","","Prijedor","",28802624,"2024-10-30T16:16:58",3,"NO ERROR",13.84,100,1010.64,1.23,1.46,1.57],
    [5811,363171,"Vazduh","Libelium","0004A30B0021DF70",44.979,16.7091,"","","Prijedor","",28802944,"2024-10-30T17:17:40",3,"NO ERROR",12.9,100,1010.95,2.78,3.73,7.76],
    [5812,363171,"Vazduh","Libelium","0004A30B0021DF70",44.979,16.7091,"","","Prijedor","",28803233,"2024-10-30T18:18:22",3,"NO ERROR",12.63,100,1011.63,5.01,13.03,123.49],
    [5813,363171,"Vazduh","Libelium","0004A30B0021DF70",44.979,16.7091,"","","Prijedor","",28803506,"2024-10-30T19:19:04",3,"NO ERROR",12.09,100,1011.74,5.2,17.69,196.46],
    [5814,363171,"Vazduh","Libelium","0004A30B0021DF70",44.979,16.7091,"","","Prijedor","",28803856,"2024-10-30T20:19:46",3,"NO ERROR",11.7,100,1011.7,3.82,11.32,129.83],
    [5815,363171,"Vazduh","Libelium","0004A30B0021DF70",44.979,16.7091,"","","Prijedor","",28804240,"2024-10-30T21:20:28",3,"NO ERROR",11.22,100,1011.89,2.66,5.13,34.42],
    [5816,363171,"Vazduh","Libelium","0004A30B0021DF70",44.979,16.7091,"","","Prijedor","",28804531,"2024-10-30T22:21:16",3,"NO ERROR",10.84,100,1012.23,1.81,6.05,36.23],
    [5817,363171,"Vazduh","Libelium","0004A30B0021DF70",44.979,16.7091,"","","Prijedor","",28804889,"2024-10-30T23:21:58",3,"NO ERROR",10.69,100,1012.17,2.07,9.53,92],
    [5818,363171,"Vazduh","Libelium","0004A30B0021DF70",44.979,16.7091,"","","Prijedor","",28805210,"2024-10-31T00:22:46",3,"NO ERROR",10.37,100,1012.27,1.87,4.1,34.42],
    [5819,363171,"Vazduh","Libelium","0004A30B0021DF70",44.979,16.7091,"","","Prijedor","",28805463,"2024-10-31T01:23:28",3,"NO ERROR",10.03,100,1012.35,1.84,7.69,110.98],
    [5820,363171,"Vazduh","Libelium","0004A30B0021DF70",44.979,16.7091,"","","Prijedor","",28805780,"2024-10-31T02:24:10",3,"NO ERROR",10.43,100,1012.34,9.24,14.68,54.8],
    [5821,363171,"Vazduh","Libelium","0004A30B0021DF70",44.979,16.7091,"","","Prijedor","",28806072,"2024-10-31T03:24:53",3,"NO ERROR",10.47,100,1012.44,1.12,1.41,1.61],
    [5822,363171,"Vazduh","Libelium","0004A30B0021DF70",44.979,16.7091,"","","Prijedor","",28806387,"2024-10-31T04:25:35",3,"NO ERROR",10.61,100,1012.41,0.56,0.83,5.16],
    [5823,363171,"Vazduh","Libelium","0004A30B0021DF70",44.979,16.7091,"","","Prijedor","",28806776,"2024-10-31T05:26:17",3,"NO ERROR",10.47,100,1012.54,0.82,0.9,0.9],
    [5824,363171,"Vazduh","Libelium","0004A30B0021DF70",44.979,16.7091,"","","Prijedor","",28807119,"2024-10-31T06:26:59",3,"NO ERROR",10.33,100,1012.67,0.74,0.87,0.88],
    [5825,363171,"Vazduh","Libelium","0004A30B0021DF70",44.979,16.7091,"","","Prijedor","",28807428,"2024-10-31T07:27:41",3,"NO ERROR",10.08,100,1013.46,0.29,1.47,6.51],
    [5826,363171,"Vazduh","Libelium","0004A30B0021DF70",44.979,16.7091,"","","Prijedor","",28807772,"2024-10-31T08:28:23",3,"NO ERROR",10.62,100,1013.85,0.05,0.06,0.06],
    [5827,363171,"Vazduh","Libelium","0004A30B0021DF70",44.979,16.7091,"","","Prijedor","",28808069,"2024-10-31T09:29:05",3,"NO ERROR",11.47,100,1013.88,0.16,0.18,0.18],
    [5828,363171,"Vazduh","Libelium","0004A30B0021DF70",44.979,16.7091,"","","Prijedor","",28808320,"2024-10-31T10:29:47",3,"NO ERROR",12.09,100,1013.7,0.27,0.29,0.29],
    [5829,363171,"Vazduh","Libelium","0004A30B0021DF70",44.979,16.7091,"","","Prijedor","",28808681,"2024-10-31T11:30:35",3,"NO ERROR",13.41,100,1013.23,0.24,0.34,0.34],
    [5830,363171,"Vazduh","Libelium","0004A30B0021DF70",44.979,16.7091,"","","Prijedor","",28809049,"2024-10-31T12:31:17",3,"NO ERROR",14.29,100,1012.68,0.14,0.19,0.19],
    [5831,363171,"Vazduh","Libelium","0004A30B0021DF70",44.979,16.7091,"","","Prijedor","",28809388,"2024-10-31T13:31:59",3,"NO ERROR",15.97,100,1011.9,0.05,0.05,0.05],
    [5832,363171,"Vazduh","Libelium","0004A30B0021DF70",44.979,16.7091,"","","Prijedor","",28809741,"2024-10-31T14:32:47",3,"NO ERROR",21.68,91.6,1011.14,0.05,0.17,0.49],
    [5833,363171,"Vazduh","Libelium","0004A30B0021DF70",44.979,16.7091,"","","Prijedor","",28810052,"2024-10-31T15:33:29",3,"NO ERROR",17.71,100,1010.69,0.07,0.09,0.09],
    [5834,363171,"Vazduh","Libelium","0004A30B0021DF70",44.979,16.7091,"","","Prijedor","",28810355,"2024-10-31T16:34:11",3,"NO ERROR",14.55,100,1010.94,0.28,0.31,0.31],
    [5835,363171,"Vazduh","Libelium","0004A30B0021DF70",44.979,16.7091,"","","Prijedor","",28810672,"2024-10-31T17:34:54",3,"NO ERROR",12.21,100,1011.4,0.94,1.09,1.1],
    [5836,363171,"Vazduh","Libelium","0004A30B0021DF70",44.979,16.7091,"","","Prijedor","",28810961,"2024-10-31T18:35:36",3,"NO ERROR",11.41,100,1011.87,1.56,1.76,1.77],
    [5837,363171,"Vazduh","Libelium","0004A30B0021DF70",44.979,16.7091,"","","Prijedor","",28811227,"2024-10-31T19:36:18",3,"NO ERROR",11.02,100,1012.11,4.58,5.1,5.1],
    [5838,363171,"Vazduh","Libelium","0004A30B0021DF70",44.979,16.7091,"","","Prijedor","",28811585,"2024-10-31T20:37:00",3,"NO ERROR",10.7,100,1012,9.48,24.03,193.78],
    [5839,363171,"Vazduh","Libelium","0004A30B0021DF70",44.979,16.7091,"","","Prijedor","",28811902,"2024-10-31T21:37:48",3,"NO ERROR",10.25,100,1011.75,13.43,23.45,154.67],
    [5840,363171,"Vazduh","Libelium","0004A30B0021DF70",44.979,16.7091,"","","Prijedor","",28812218,"2024-10-31T22:38:30",3,"NO ERROR",10.21,100,1011.9,2.36,3.62,32.04],
    [5841,363171,"Vazduh","Libelium","0004A30B0021DF70",44.979,16.7091,"","","Prijedor","",28812520,"2024-10-31T23:39:12",3,"NO ERROR",10.38,100,1011.91,5.46,10.17,41.39],
    [5842,363171,"Vazduh","Libelium","0004A30B0021DF70",44.979,16.7091,"","","Prijedor","",28812817,"2024-11-01T00:39:54",3,"NO ERROR",10.34,100,1011.76,0.84,1.81,5.13],
    [5843,363171,"Vazduh","Libelium","0004A30B0021DF70",44.979,16.7091,"","","Prijedor","",28813096,"2024-11-01T01:40:36",3,"NO ERROR",10.05,100,1011.67,2.17,7.07,52.8],
    [5844,363171,"Vazduh","Libelium","0004A30B0021DF70",44.979,16.7091,"","","Prijedor","",28813377,"2024-11-01T02:41:18",3,"NO ERROR",9.7,100,1011.45,0.33,1.56,21.78],
    [5845,363171,"Vazduh","Libelium","0004A30B0021DF70",44.979,16.7091,"","","Prijedor","",28813651,"2024-11-01T03:42:00",3,"NO ERROR",9.66,100,1011.13,1.32,2.6,12.65],
    [5846,363171,"Vazduh","Libelium","0004A30B0021DF70",44.979,16.7091,"","","Prijedor","",28814681,"2024-11-01T06:44:12",3,"NO ERROR",9.36,100,1011.32,0.39,3.93,78.79],
    [5847,363171,"Vazduh","Libelium","0004A30B0021DF70",44.979,16.7091,"","","Prijedor","",28815026,"2024-11-01T07:44:55",3,"NO ERROR",9.43,100,1011.64,0.3,0.79,7.65],
    [5848,363171,"Vazduh","Libelium","0004A30B0021DF70",44.979,16.7091,"","","Prijedor","",28815336,"2024-11-01T08:45:37",3,"NO ERROR",9.9,100,1011.58,0.12,1.03,14.99],
    [5849,363171,"Vazduh","Libelium","0004A30B0021DF70",44.979,16.7091,"","","Prijedor","",28815617,"2024-11-01T09:46:19",3,"NO ERROR",11.34,100,1011.36,0.07,0.09,0.09],
    [5850,363171,"Vazduh","Libelium","0004A30B0021DF70",44.979,16.7091,"","","Prijedor","",28815933,"2024-11-01T10:47:01",3,"NO ERROR",11.92,100,1011.07,0,0,0],
    [5851,363171,"Vazduh","Libelium","0004A30B0021DF70",44.979,16.7091,"","","Prijedor","",28816243,"2024-11-01T11:47:43",3,"NO ERROR",14.81,100,1010.37,0.17,0.23,0.23],
    [5852,363171,"Vazduh","Libelium","0004A30B0021DF70",44.979,16.7091,"","","Prijedor","",28833180,"2024-11-04T01:31:53",3,"NO ERROR",4.74,100,1014.73,0.54,1.83,18.67],
    [5853,363171,"Vazduh","Libelium","0004A30B0021DF70",44.979,16.7091,"","","Prijedor","",28833426,"2024-11-04T02:32:35",3,"NO ERROR",4.43,100,1014.43,1.62,4.37,55.51],
    [5854,363171,"Vazduh","Libelium","0004A30B0021DF70",44.979,16.7091,"","","Prijedor","",28833651,"2024-11-04T03:33:18",3,"NO ERROR",4.53,100,1014.19,3.25,14.25,105.2],
    [5855,363171,"Vazduh","Libelium","0004A30B0021DF70",44.979,16.7091,"","","Prijedor","",28833928,"2024-11-04T04:34:00",3,"NO ERROR",4.05,100,1014.2,2.83,18.51,255.38],
    [5856,363171,"Vazduh","Libelium","0004A30B0021DF70",44.979,16.7091,"","","Prijedor","",28834215,"2024-11-04T05:34:42",3,"NO ERROR",4.41,100,1014.14,2.56,10.8,123.32],
    [5857,363171,"Vazduh","Libelium","0004A30B0021DF70",44.979,16.7091,"","","Prijedor","",28834512,"2024-11-04T06:35:24",3,"NO ERROR",3.83,100,1014.47,4.92,23.76,220.35],
    [5858,363171,"Vazduh","Libelium","0004A30B0021DF70",44.979,16.7091,"","","Prijedor","",28834753,"2024-11-04T07:36:12",3,"NO ERROR",4.02,100,1014.84,1.91,11.18,86.87],
    [5859,363171,"Vazduh","Libelium","0004A30B0021DF70",44.979,16.7091,"","","Prijedor","",28835040,"2024-11-04T08:37:00",3,"NO ERROR",4.56,100,1015.22,2.75,14.69,77.39],
    [5860,363171,"Vazduh","Libelium","0004A30B0021DF70",44.979,16.7091,"","","Prijedor","",28835280,"2024-11-04T09:37:42",3,"NO ERROR",5.56,100,1015.39,0.33,0.85,1.75],
    [5861,363171,"Vazduh","Libelium","0004A30B0021DF70",44.979,16.7091,"","","Prijedor","",28835566,"2024-11-04T10:38:36",3,"NO ERROR",7.29,100,1015.36,0.11,0.2,0.21],
    [5862,363171,"Vazduh","Libelium","0004A30B0021DF70",44.979,16.7091,"","","Prijedor","",28835813,"2024-11-04T11:39:18",3,"NO ERROR",8.69,100,1014.78,0.08,0.09,0.09],
    [5863,363171,"Vazduh","Libelium","0004A30B0021DF70",44.979,16.7091,"","","Prijedor","",28836142,"2024-11-04T12:40:00",3,"NO ERROR",10.03,100,1013.87,0.08,0.08,0.08],
    [5864,363171,"Vazduh","Libelium","0004A30B0021DF70",44.979,16.7091,"","","Prijedor","",28836417,"2024-11-04T13:40:42",3,"NO ERROR",13.08,100,1013.39,0.03,0.03,0.03],
    [5865,363171,"Vazduh","Libelium","0004A30B0021DF70",44.979,16.7091,"","","Prijedor","",28836746,"2024-11-04T14:41:37",3,"NO ERROR",17.24,80.4,1013.04,0.26,0.37,0.37],
    [5866,363171,"Vazduh","Libelium","0004A30B0021DF70",44.979,16.7091,"","","Prijedor","",28837073,"2024-11-04T15:42:18",3,"NO ERROR",12.68,91.3,1012.99,0.24,0.33,0.33],
    [5867,363171,"Vazduh","Libelium","0004A30B0021DF70",44.979,16.7091,"","","Prijedor","",28837725,"2024-11-04T16:43:01",3,"NO ERROR",10.67,100,1013.3,0.09,0.13,0.14],
    [5868,363171,"Vazduh","Libelium","0004A30B0021DF70",44.979,16.7091,"","","Prijedor","",28838415,"2024-11-04T17:43:43",3,"NO ERROR",8.9,100,1013.85,0.24,0.33,0.33],
    [5869,363171,"Vazduh","Libelium","0004A30B0021DF70",44.979,16.7091,"","","Prijedor","",28839133,"2024-11-04T18:44:25",3,"NO ERROR",7.32,100,1014.22,0.42,0.61,0.63],
    [5870,363171,"Vazduh","Libelium","0004A30B0021DF70",44.979,16.7091,"","","Prijedor","",28839812,"2024-11-04T19:45:13",3,"NO ERROR",6,100,1014.57,0.51,0.64,0.67],
    [5871,363171,"Vazduh","Libelium","0004A30B0021DF70",44.979,16.7091,"","","Prijedor","",28840532,"2024-11-04T20:45:55",3,"NO ERROR",5,100,1015.13,0.46,0.54,0.54],
    [5872,363171,"Vazduh","Libelium","0004A30B0021DF70",44.979,16.7091,"","","Prijedor","",28841294,"2024-11-04T21:46:37",3,"NO ERROR",4.26,100,1015.29,0.2,0.27,0.27],
    [5873,363171,"Vazduh","Libelium","0004A30B0021DF70",44.979,16.7091,"","","Prijedor","",28842046,"2024-11-04T22:47:19",3,"NO ERROR",3.52,100,1015.17,10.55,23.26,114.29],
    [5874,363171,"Vazduh","Libelium","0004A30B0021DF70",44.979,16.7091,"","","Prijedor","",28842720,"2024-11-04T23:48:01",3,"NO ERROR",3.27,100,1015.35,2.75,9.53,101.98],
    [5875,363171,"Vazduh","Libelium","0004A30B0021DF70",44.979,16.7091,"","","Prijedor","",28843428,"2024-11-05T00:48:43",3,"NO ERROR",3.09,100,1015.17,6.13,12.12,151.8],
    [5876,363171,"Vazduh","Libelium","0004A30B0021DF70",44.979,16.7091,"","","Prijedor","",28844122,"2024-11-05T01:49:31",3,"NO ERROR",3.37,100,1015.11,7.03,19.66,135.16],
    [5877,363171,"Vazduh","Libelium","0004A30B0021DF70",44.979,16.7091,"","","Prijedor","",28844817,"2024-11-05T02:50:13",3,"NO ERROR",3.59,100,1014.91,8.03,18.67,104.13],
    [5878,363171,"Vazduh","Libelium","0004A30B0021DF70",44.979,16.7091,"","","Prijedor","",28845489,"2024-11-05T03:50:55",3,"NO ERROR",3.4,100,1015.05,5.17,12.61,92.87],
    [5879,363171,"Vazduh","Libelium","0004A30B0021DF70",44.979,16.7091,"","","Prijedor","",28846242,"2024-11-05T04:51:37",3,"NO ERROR",3.34,100,1015.17,3.54,11.21,106.98],
    [5880,363171,"Vazduh","Libelium","0004A30B0021DF70",44.979,16.7091,"","","Prijedor","",28846982,"2024-11-05T05:52:20",3,"NO ERROR",2.98,100,1015.09,2.29,14.24,126.46],
    [5881,363171,"Vazduh","Libelium","0004A30B0021DF70",44.979,16.7091,"","","Prijedor","",28847721,"2024-11-05T06:53:02",3,"NO ERROR",2.91,100,1015.52,5.18,13.2,70.36],
    [5882,363171,"Vazduh","Libelium","0004A30B0021DF70",44.979,16.7091,"","","Prijedor","",28848407,"2024-11-05T07:53:44",3,"NO ERROR",3.39,100,1015.93,9.03,24.56,218.18],
    [5883,363171,"Vazduh","Libelium","0004A30B0021DF70",44.979,16.7091,"","","Prijedor","",28849117,"2024-11-05T08:54:26",3,"NO ERROR",4.02,100,1015.94,1.1,2.93,21.2],
    [5884,363171,"Vazduh","Libelium","0004A30B0021DF70",44.979,16.7091,"","","Prijedor","",28849875,"2024-11-05T09:55:08",3,"NO ERROR",5.7,100,1015.94,0.02,0.02,0.02],
    [5885,363171,"Vazduh","Libelium","0004A30B0021DF70",44.979,16.7091,"","","Prijedor","",28850617,"2024-11-05T10:55:50",3,"NO ERROR",7.85,100,1015.78,0.1,0.1,0.1],
    [5886,363171,"Vazduh","Libelium","0004A30B0021DF70",44.979,16.7091,"","","Prijedor","",28851320,"2024-11-05T11:56:38",3,"NO ERROR",10.54,100,1014.89,0,0,0],
    [5887,363171,"Vazduh","Libelium","0004A30B0021DF70",44.979,16.7091,"","","Prijedor","",28852094,"2024-11-05T12:57:20",3,"NO ERROR",12.84,100,1014.02,0.09,0.1,0.1],
    [5888,363171,"Vazduh","Libelium","0004A30B0021DF70",44.979,16.7091,"","","Prijedor","",28852912,"2024-11-05T13:58:02",3,"NO ERROR",16.44,80.5,1013.46,0.07,0.1,0.1],
    [5889,363171,"Vazduh","Libelium","0004A30B0021DF70",44.979,16.7091,"","","Prijedor","",28853669,"2024-11-05T14:58:44",3,"NO ERROR",17.09,75.4,1013.14,0.14,0.28,5.31],
    [5890,363171,"Vazduh","Libelium","0004A30B0021DF70",44.979,16.7091,"","","Prijedor","",28854507,"2024-11-05T15:59:26",3,"NO ERROR",11.38,100,1013.01,0.16,0.22,0.22],
    [5891,363171,"Vazduh","Libelium","0004A30B0021DF70",44.979,16.7091,"","","Prijedor","",28855345,"2024-11-05T17:00:08",3,"NO ERROR",9.33,100,1013.32,0.05,0.08,0.08],
    [5892,363171,"Vazduh","Libelium","0004A30B0021DF70",44.979,16.7091,"","","Prijedor","",28856083,"2024-11-05T18:00:50",3,"NO ERROR",8.1,100,1013.66,0.1,0.15,0.17],
    [5893,363171,"Vazduh","Libelium","0004A30B0021DF70",44.979,16.7091,"","","Prijedor","",28856755,"2024-11-05T19:01:32",3,"NO ERROR",7.01,100,1013.66,0.1,0.14,0.14],
    [5894,363171,"Vazduh","Libelium","0004A30B0021DF70",44.979,16.7091,"","","Prijedor","",28857368,"2024-11-05T20:02:15",3,"NO ERROR",6.28,100,1013.8,0.56,0.72,0.73],
    [5895,363171,"Vazduh","Libelium","0004A30B0021DF70",44.979,16.7091,"","","Prijedor","",28858060,"2024-11-05T21:02:57",3,"NO ERROR",5.23,100,1014.05,0.27,0.35,0.36],
    [5896,363171,"Vazduh","Libelium","0004A30B0021DF70",44.979,16.7091,"","","Prijedor","",28858778,"2024-11-05T22:03:39",3,"NO ERROR",4.69,100,1014.14,0.83,0.97,0.97],
    [5897,363171,"Vazduh","Libelium","0004A30B0021DF70",44.979,16.7091,"","","Prijedor","",28859498,"2024-11-05T23:04:21",3,"NO ERROR",3.91,100,1014.25,0.7,0.8,0.8],
    [5898,363171,"Vazduh","Libelium","0004A30B0021DF70",44.979,16.7091,"","","Prijedor","",28860178,"2024-11-06T00:05:03",3,"NO ERROR",2.95,100,1014.61,4.63,6.26,11.47],
    [5899,363171,"Vazduh","Libelium","0004A30B0021DF70",44.979,16.7091,"","","Prijedor","",28860875,"2024-11-06T01:05:45",3,"NO ERROR",3.55,100,1014.6,8.19,20.37,179.43],
    [5900,363171,"Vazduh","Libelium","0004A30B0021DF70",44.979,16.7091,"","","Prijedor","",28861575,"2024-11-06T02:06:27",3,"NO ERROR",3.59,100,1014.56,19.57,33.82,125.74],
    [5901,363171,"Vazduh","Libelium","0004A30B0021DF70",44.979,16.7091,"","","Prijedor","",28862255,"2024-11-06T03:07:09",3,"NO ERROR",3.93,100,1014.65,3.09,8.79,120.47],
    [5902,363171,"Vazduh","Libelium","0004A30B0021DF70",44.979,16.7091,"","","Prijedor","",28862948,"2024-11-06T04:07:51",3,"NO ERROR",3.78,100,1014.67,6.82,18.6,70.99],
    [5903,363171,"Vazduh","Libelium","0004A30B0021DF70",44.979,16.7091,"","","Prijedor","",28864515,"2024-11-06T06:09:33",3,"NO ERROR",3.73,100,1015.41,1.3,3.04,13.57],
    [5904,363171,"Vazduh","Libelium","0004A30B0021DF70",44.979,16.7091,"","","Prijedor","",28865232,"2024-11-06T07:10:16",3,"NO ERROR",4.03,100,1015.87,2.67,8.13,117.42],
    [5905,363171,"Vazduh","Libelium","0004A30B0021DF70",44.979,16.7091,"","","Prijedor","",28865956,"2024-11-06T08:10:58",3,"NO ERROR",4.04,100,1016.38,3.46,10.26,122],
    [5906,363171,"Vazduh","Libelium","0004A30B0021DF70",44.979,16.7091,"","","Prijedor","",28866673,"2024-11-06T09:11:40",3,"NO ERROR",4.91,100,1016.91,1.86,4.76,36.89],
    [5907,363171,"Vazduh","Libelium","0004A30B0021DF70",44.979,16.7091,"","","Prijedor","",28867403,"2024-11-06T10:12:22",3,"NO ERROR",5.65,100,1017.37,0.36,0.89,3.19],
    [5908,363171,"Vazduh","Libelium","0004A30B0021DF70",44.979,16.7091,"","","Prijedor","",28868124,"2024-11-06T11:13:04",3,"NO ERROR",6.77,100,1017.13,0.26,0.27,0.27],
    [5909,363171,"Vazduh","Libelium","0004A30B0021DF70",44.979,16.7091,"","","Prijedor","",28868868,"2024-11-06T12:13:46",3,"NO ERROR",7.99,100,1016.61,0.32,0.4,0.4],
    [5910,363171,"Vazduh","Libelium","0004A30B0021DF70",44.979,16.7091,"","","Prijedor","",28869694,"2024-11-06T13:14:28",3,"NO ERROR",10.29,100,1016.15,0.21,0.28,0.28],
    [5911,363171,"Vazduh","Libelium","0004A30B0021DF70",44.979,16.7091,"","","Prijedor","",28870462,"2024-11-06T14:15:10",3,"NO ERROR",14.66,94.4,1015.9,0.15,0.22,0.22],
    [5912,363171,"Vazduh","Libelium","0004A30B0021DF70",44.979,16.7091,"","","Prijedor","",28871263,"2024-11-06T15:15:52",3,"NO ERROR",13.98,99.9,1015.98,0.22,0.32,0.32],
    [5913,363171,"Vazduh","Libelium","0004A30B0021DF70",44.979,16.7091,"","","Prijedor","",28872029,"2024-11-06T16:16:34",3,"NO ERROR",10.48,100,1016.13,0.37,0.45,0.45],
    [5914,363171,"Vazduh","Libelium","0004A30B0021DF70",44.979,16.7091,"","","Prijedor","",28872771,"2024-11-06T17:17:16",3,"NO ERROR",8.9,100,1016.58,0.15,0.2,0.21],
    [5915,363171,"Vazduh","Libelium","0004A30B0021DF70",44.979,16.7091,"","","Prijedor","",28873534,"2024-11-06T18:17:58",3,"NO ERROR",7.23,100,1016.94,0.36,0.56,0.68],
    [5916,363171,"Vazduh","Libelium","0004A30B0021DF70",44.979,16.7091,"","","Prijedor","",28874283,"2024-11-06T19:18:40",3,"NO ERROR",5.96,100,1017.38,0.52,0.6,0.61],
    [5917,363171,"Vazduh","Libelium","0004A30B0021DF70",44.979,16.7091,"","","Prijedor","",28875061,"2024-11-06T20:19:22",3,"NO ERROR",4.74,100,1017.74,0.37,0.42,0.42],
    [5918,363171,"Vazduh","Libelium","0004A30B0021DF70",44.979,16.7091,"","","Prijedor","",28876044,"2024-11-06T21:20:05",3,"NO ERROR",3.74,100,1018.19,0.8,0.92,0.92],
    [5919,363171,"Vazduh","Libelium","0004A30B0021DF70",44.979,16.7091,"","","Prijedor","",28876946,"2024-11-06T22:20:47",3,"NO ERROR",2.88,100,1018.46,0.46,0.77,1.8],
    [5920,363171,"Vazduh","Libelium","0004A30B0021DF70",44.979,16.7091,"","","Prijedor","",28877871,"2024-11-06T23:21:35",3,"NO ERROR",2.48,100,1018.43,19.16,38.1,331.38],
    [5921,363171,"Vazduh","Libelium","0004A30B0021DF70",44.979,16.7091,"","","Prijedor","",28878798,"2024-11-07T00:22:17",3,"NO ERROR",2.43,100,1018.43,3.89,13.45,94.21],
    [5922,363171,"Vazduh","Libelium","0004A30B0021DF70",44.979,16.7091,"","","Prijedor","",28879693,"2024-11-07T01:22:59",3,"NO ERROR",3.01,100,1018.34,1.1,1.63,3.98],
    [5923,363171,"Vazduh","Libelium","0004A30B0021DF70",44.979,16.7091,"","","Prijedor","",28880587,"2024-11-07T02:23:41",3,"NO ERROR",3.91,100,1018.2,1.83,3,5.83],
    [5924,363171,"Vazduh","Libelium","0004A30B0021DF70",44.979,16.7091,"","","Prijedor","",28881482,"2024-11-07T03:24:23",3,"NO ERROR",3.59,100,1018.22,8.79,13.33,62.93],
    [5925,363171,"Vazduh","Libelium","0004A30B0021DF70",44.979,16.7091,"","","Prijedor","",28882411,"2024-11-07T04:25:11",3,"NO ERROR",4.01,100,1018.3,5.03,10.53,115.56],
    [5926,363171,"Vazduh","Libelium","0004A30B0021DF70",44.979,16.7091,"","","Prijedor","",28883368,"2024-11-07T05:25:53",3,"NO ERROR",4.13,100,1018.23,3.51,12.29,106.83],
    [5927,363171,"Vazduh","Libelium","0004A30B0021DF70",44.979,16.7091,"","","Prijedor","",28884289,"2024-11-07T06:26:35",3,"NO ERROR",4.18,100,1018.41,10.54,17.81,82.84],
    [5928,363171,"Vazduh","Libelium","0004A30B0021DF70",44.979,16.7091,"","","Prijedor","",28885184,"2024-11-07T07:27:17",3,"NO ERROR",4.24,100,1018.84,2.12,4.92,22.56],
    [5929,363171,"Vazduh","Libelium","0004A30B0021DF70",44.979,16.7091,"","","Prijedor","",28886124,"2024-11-07T08:27:59",3,"NO ERROR",4.76,100,1019,0.77,1.06,3.08],
    [5930,363171,"Vazduh","Libelium","0004A30B0021DF70",44.979,16.7091,"","","Prijedor","",28887031,"2024-11-07T09:28:48",3,"NO ERROR",5.71,100,1019,2.78,3.68,5.06],
    [5931,363171,"Vazduh","Libelium","0004A30B0021DF70",44.979,16.7091,"","","Prijedor","",28887915,"2024-11-07T10:29:30",3,"NO ERROR",7.05,100,1019.04,0.48,0.51,0.51],
    [5932,363171,"Vazduh","Libelium","0004A30B0021DF70",44.979,16.7091,"","","Prijedor","",28888834,"2024-11-07T11:30:12",3,"NO ERROR",8.26,100,1018.45,0.22,0.22,0.22],
    [5933,363171,"Vazduh","Libelium","0004A30B0021DF70",44.979,16.7091,"","","Prijedor","",28889784,"2024-11-07T12:30:54",3,"NO ERROR",10.15,100,1017.84,0.15,0.17,0.17],
    [5934,363171,"Vazduh","Libelium","0004A30B0021DF70",44.979,16.7091,"","","Prijedor","",28890576,"2024-11-07T13:31:36",3,"NO ERROR",12.23,100,1017.31,0.03,0.07,0.2],
    [5935,363171,"Vazduh","Libelium","0004A30B0021DF70",44.979,16.7091,"","","Prijedor","",28891369,"2024-11-07T14:32:18",3,"NO ERROR",12.37,97.6,1016.94,0.14,0.23,0.24],
    [5936,363171,"Vazduh","Libelium","0004A30B0021DF70",44.979,16.7091,"","","Prijedor","",28892166,"2024-11-07T15:33:00",3,"NO ERROR",10.54,100,1016.85,0.11,0.14,0.14],
    [5937,363171,"Vazduh","Libelium","0004A30B0021DF70",44.979,16.7091,"","","Prijedor","",28892897,"2024-11-07T16:33:42",3,"NO ERROR",9.48,100,1016.85,0.03,0.05,0.05],
    [5938,363171,"Vazduh","Libelium","0004A30B0021DF70",44.979,16.7091,"","","Prijedor","",28893603,"2024-11-07T17:34:24",3,"NO ERROR",7.7,100,1016.97,0.45,0.53,0.53],
    [5939,363171,"Vazduh","Libelium","0004A30B0021DF70",44.979,16.7091,"","","Prijedor","",28894321,"2024-11-07T18:35:06",3,"NO ERROR",6.48,100,1016.93,0.27,0.39,0.4],
    [5940,363171,"Vazduh","Libelium","0004A30B0021DF70",44.979,16.7091,"","","Prijedor","",28895039,"2024-11-07T19:35:48",3,"NO ERROR",5.39,100,1016.91,0.93,1.2,1.34],
    [5941,363171,"Vazduh","Libelium","0004A30B0021DF70",44.979,16.7091,"","","Prijedor","",28895856,"2024-11-07T20:36:30",3,"NO ERROR",4.39,100,1016.98,0.19,0.21,0.21],
    [5942,363171,"Vazduh","Libelium","0004A30B0021DF70",44.979,16.7091,"","","Prijedor","",28896633,"2024-11-07T21:37:19",3,"NO ERROR",4.98,100,1017,0.79,1.01,1.02],
    [5943,363171,"Vazduh","Libelium","0004A30B0021DF70",44.979,16.7091,"","","Prijedor","",28897425,"2024-11-07T22:38:07",3,"NO ERROR",4.78,100,1016.96,0.59,0.76,0.77],
    [5944,363171,"Vazduh","Libelium","0004A30B0021DF70",44.979,16.7091,"","","Prijedor","",28898193,"2024-11-07T23:38:49",3,"NO ERROR",4.81,100,1016.71,0.31,0.43,0.44],
    [5945,363171,"Vazduh","Libelium","0004A30B0021DF70",44.979,16.7091,"","","Prijedor","",28898962,"2024-11-08T00:39:31",3,"NO ERROR",4.8,100,1016.46,0.83,0.93,0.93],
    [5946,363171,"Vazduh","Libelium","0004A30B0021DF70",44.979,16.7091,"","","Prijedor","",28899680,"2024-11-08T01:40:13",3,"NO ERROR",5.25,100,1016.25,0.2,0.23,0.23],
    [5947,363171,"Vazduh","Libelium","0004A30B0021DF70",44.979,16.7091,"","","Prijedor","",28900398,"2024-11-08T02:40:55",3,"NO ERROR",5.46,100,1015.71,0.44,0.47,0.47],
    [5948,363171,"Vazduh","Libelium","0004A30B0021DF70",44.979,16.7091,"","","Prijedor","",28901127,"2024-11-08T03:41:37",3,"NO ERROR",5.42,100,1015.3,0.1,0.14,0.14],
    [5949,363171,"Vazduh","Libelium","0004A30B0021DF70",44.979,16.7091,"","","Prijedor","",28901943,"2024-11-08T04:42:19",3,"NO ERROR",6.1,100,1015.46,0.08,0.11,0.11],
    [5950,363171,"Vazduh","Libelium","0004A30B0021DF70",44.979,16.7091,"","","Prijedor","",28902703,"2024-11-08T05:43:01",3,"NO ERROR",6.15,100,1015.5,0.03,0.03,0.03],
    [5951,363171,"Vazduh","Libelium","0004A30B0021DF70",44.979,16.7091,"","","Prijedor","",28903489,"2024-11-08T06:43:43",3,"NO ERROR",6.26,100,1015.74,0.15,0.15,0.15],
    [5952,363171,"Vazduh","Libelium","0004A30B0021DF70",44.979,16.7091,"","","Prijedor","",28904277,"2024-11-08T07:44:25",3,"NO ERROR",6.78,100,1016.11,0.33,0.42,0.42],
    [5953,363171,"Vazduh","Libelium","0004A30B0021DF70",44.979,16.7091,"","","Prijedor","",28905047,"2024-11-08T08:45:07",3,"NO ERROR",8.05,100,1016.52,0.09,0.14,0.15],
    [5954,363171,"Vazduh","Libelium","0004A30B0021DF70",44.979,16.7091,"","","Prijedor","",28905761,"2024-11-08T09:45:55",3,"NO ERROR",9.39,100,1016.42,0.17,0.22,0.22],
    [5955,363171,"Vazduh","Libelium","0004A30B0021DF70",44.979,16.7091,"","","Prijedor","",28906569,"2024-11-08T10:46:37",3,"NO ERROR",10.23,100,1016.41,0.05,0.05,0.05],
    [5956,363171,"Vazduh","Libelium","0004A30B0021DF70",44.979,16.7091,"","","Prijedor","",28907278,"2024-11-08T11:47:19",3,"NO ERROR",9.89,100,1016.02,0.15,0.18,0.18],
    [5957,363171,"Vazduh","Libelium","0004A30B0021DF70",44.979,16.7091,"","","Prijedor","",28908091,"2024-11-08T12:48:01",3,"NO ERROR",9.96,100,1015.7,0.23,0.34,0.35],
    [5958,363171,"Vazduh","Libelium","0004A30B0021DF70",44.979,16.7091,"","","Prijedor","",28908897,"2024-11-08T13:48:44",3,"NO ERROR",9.8,100,1015.42,0.19,0.2,0.2],
    [5959,363171,"Vazduh","Libelium","0004A30B0021DF70",44.979,16.7091,"","","Prijedor","",28909663,"2024-11-08T14:49:26",3,"NO ERROR",9.78,100,1015.65,0.25,0.33,0.33],
    [5960,363171,"Vazduh","Libelium","0004A30B0021DF70",44.979,16.7091,"","","Prijedor","",28910415,"2024-11-08T15:50:08",3,"NO ERROR",8.56,100,1015.88,0.25,0.31,0.33],
    [5961,363171,"Vazduh","Libelium","0004A30B0021DF70",44.979,16.7091,"","","Prijedor","",28911170,"2024-11-08T16:50:50",3,"NO ERROR",7.94,100,1016.33,0.11,0.16,0.21],
    [5962,363171,"Vazduh","Libelium","0004A30B0021DF70",44.979,16.7091,"","","Prijedor","",28911918,"2024-11-08T17:51:32",3,"NO ERROR",7.45,100,1016.72,0.23,0.25,0.25],
    [5963,363171,"Vazduh","Libelium","0004A30B0021DF70",44.979,16.7091,"","","Prijedor","",28912629,"2024-11-08T18:52:14",3,"NO ERROR",7.1,100,1016.67,0.2,0.21,0.21],
    [5964,363171,"Vazduh","Libelium","0004A30B0021DF70",44.979,16.7091,"","","Prijedor","",28913374,"2024-11-08T19:52:56",3,"NO ERROR",6.82,100,1016.59,0.09,0.12,0.12],
    [5965,363171,"Vazduh","Libelium","0004A30B0021DF70",44.979,16.7091,"","","Prijedor","",28914027,"2024-11-08T20:53:38",3,"NO ERROR",6.63,100,1016.58,0.4,0.47,0.47],
    [5966,363171,"Vazduh","Libelium","0004A30B0021DF70",44.979,16.7091,"","","Prijedor","",28914843,"2024-11-08T21:54:20",3,"NO ERROR",6.52,100,1016.65,0.18,0.19,0.19],
    [5967,363171,"Vazduh","Libelium","0004A30B0021DF70",44.979,16.7091,"","","Prijedor","",28915670,"2024-11-08T22:55:02",3,"NO ERROR",6.21,100,1016.71,0.08,0.09,0.09],
    [5968,363171,"Vazduh","Libelium","0004A30B0021DF70",44.979,16.7091,"","","Prijedor","",28916412,"2024-11-08T23:55:44",3,"NO ERROR",6.16,100,1016.6,0.31,0.33,0.33],
    [5969,363171,"Vazduh","Libelium","0004A30B0021DF70",44.979,16.7091,"","","Prijedor","",28917184,"2024-11-09T00:56:33",3,"NO ERROR",5.82,100,1016.29,0.43,0.46,0.46],
    [5970,363171,"Vazduh","Libelium","0004A30B0021DF70",44.979,16.7091,"","","Prijedor","",28917926,"2024-11-09T01:57:15",3,"NO ERROR",5.92,100,1016.11,0.12,0.12,0.12],
    [5971,363171,"Vazduh","Libelium","0004A30B0021DF70",44.979,16.7091,"","","Prijedor","",28918634,"2024-11-09T02:57:57",3,"NO ERROR",5.92,100,1015.86,0.12,0.12,0.12],
    [5972,363171,"Vazduh","Libelium","0004A30B0021DF70",44.979,16.7091,"","","Prijedor","",28919387,"2024-11-09T03:58:39",3,"NO ERROR",5.91,100,1015.68,0.25,0.26,0.26],
    [5973,363171,"Vazduh","Libelium","0004A30B0021DF70",44.979,16.7091,"","","Prijedor","",28920206,"2024-11-09T04:59:21",3,"NO ERROR",5.88,100,1015.5,0.15,0.15,0.15],
    [5974,363171,"Vazduh","Libelium","0004A30B0021DF70",44.979,16.7091,"","","Prijedor","",28920981,"2024-11-09T06:00:03",3,"NO ERROR",5.99,100,1015.38,0.17,0.17,0.17],
    [5975,363171,"Vazduh","Libelium","0004A30B0021DF70",44.979,16.7091,"","","Prijedor","",28921753,"2024-11-09T07:00:45",3,"NO ERROR",5.85,100,1015.53,0.05,0.05,0.05],
    [5976,363171,"Vazduh","Libelium","0004A30B0021DF70",44.979,16.7091,"","","Prijedor","",28922514,"2024-11-09T08:01:27",3,"NO ERROR",6.16,100,1015.63,0.18,0.24,0.24],
    [5977,363171,"Vazduh","Libelium","0004A30B0021DF70",44.979,16.7091,"","","Prijedor","",28923235,"2024-11-09T09:02:09",3,"NO ERROR",6.48,100,1015.49,0.24,0.35,0.43],
    [5978,363171,"Vazduh","Libelium","0004A30B0021DF70",44.979,16.7091,"","","Prijedor","",28924000,"2024-11-09T10:02:51",3,"NO ERROR",7.08,100,1015.21,0.21,0.23,0.23],
    [5979,363171,"Vazduh","Libelium","0004A30B0021DF70",44.979,16.7091,"","","Prijedor","",28924765,"2024-11-09T11:03:33",3,"NO ERROR",7.39,100,1014.89,0.13,0.14,0.14],
    [5980,363171,"Vazduh","Libelium","0004A30B0021DF70",44.979,16.7091,"","","Prijedor","",28925519,"2024-11-09T12:04:21",3,"NO ERROR",7.36,100,1014.32,0.36,0.43,0.43],
    [5981,363171,"Vazduh","Libelium","0004A30B0021DF70",44.979,16.7091,"","","Prijedor","",28926374,"2024-11-09T13:05:09",3,"NO ERROR",7.34,100,1013.73,0.17,0.17,0.17],
    [5982,363171,"Vazduh","Libelium","0004A30B0021DF70",44.979,16.7091,"","","Prijedor","",28927198,"2024-11-09T14:05:51",3,"NO ERROR",7.39,100,1013.32,0.45,0.62,0.65],
    [5983,363171,"Vazduh","Libelium","0004A30B0021DF70",44.979,16.7091,"","","Prijedor","",28927980,"2024-11-09T15:06:33",3,"NO ERROR",6.99,100,1013.24,0.47,0.5,0.5],
    [5984,363171,"Vazduh","Libelium","0004A30B0021DF70",44.979,16.7091,"","","Prijedor","",28928707,"2024-11-09T16:07:16",3,"NO ERROR",7.05,100,1012.99,0.15,0.16,0.16],
    [5985,363171,"Vazduh","Libelium","0004A30B0021DF70",44.979,16.7091,"","","Prijedor","",28929399,"2024-11-09T17:07:58",3,"NO ERROR",6.67,100,1013.17,0.17,0.17,0.17],
    [5986,363171,"Vazduh","Libelium","0004A30B0021DF70",44.979,16.7091,"","","Prijedor","",28930093,"2024-11-09T18:08:40",3,"NO ERROR",6.76,100,1013.17,0.31,0.34,0.34],
    [5987,363171,"Vazduh","Libelium","0004A30B0021DF70",44.979,16.7091,"","","Prijedor","",28930754,"2024-11-09T19:09:22",3,"NO ERROR",6.69,100,1013.1,0.18,0.19,0.19],
    [5988,363171,"Vazduh","Libelium","0004A30B0021DF70",44.979,16.7091,"","","Prijedor","",28931457,"2024-11-09T20:10:04",3,"NO ERROR",6.52,100,1012.76,0.39,0.47,0.47],
    [5989,363171,"Vazduh","Libelium","0004A30B0021DF70",44.979,16.7091,"","","Prijedor","",28932208,"2024-11-09T21:10:46",3,"NO ERROR",6.52,100,1012.76,0.38,0.4,0.4],
    [5990,363171,"Vazduh","Libelium","0004A30B0021DF70",44.979,16.7091,"","","Prijedor","",28932964,"2024-11-09T22:11:28",3,"NO ERROR",6.53,100,1012.73,0.25,0.29,0.3],
    [5991,363171,"Vazduh","Libelium","0004A30B0021DF70",44.979,16.7091,"","","Prijedor","",28933716,"2024-11-09T23:12:10",3,"NO ERROR",6.57,100,1012.66,0.37,0.4,0.4],
    [5992,363171,"Vazduh","Libelium","0004A30B0021DF70",44.979,16.7091,"","","Prijedor","",28934415,"2024-11-10T00:12:58",3,"NO ERROR",6.37,100,1012.3,0.53,0.57,0.57],
    [5993,363171,"Vazduh","Libelium","0004A30B0021DF70",44.979,16.7091,"","","Prijedor","",28935096,"2024-11-10T01:13:40",3,"NO ERROR",6.42,100,1012.1,0.29,0.33,0.33],
    [5994,363171,"Vazduh","Libelium","0004A30B0021DF70",44.979,16.7091,"","","Prijedor","",28935815,"2024-11-10T02:14:22",3,"NO ERROR",6.19,100,1012.25,0.48,0.51,0.51],
    [5995,363171,"Vazduh","Libelium","0004A30B0021DF70",44.979,16.7091,"","","Prijedor","",28936496,"2024-11-10T03:15:04",3,"NO ERROR",6.51,100,1012.09,0.14,0.18,0.18],
    [5996,363171,"Vazduh","Libelium","0004A30B0021DF70",44.979,16.7091,"","","Prijedor","",28937198,"2024-11-10T04:15:46",3,"NO ERROR",6.18,100,1012.06,0.24,0.25,0.25],
    [5997,363171,"Vazduh","Libelium","0004A30B0021DF70",44.979,16.7091,"","","Prijedor","",28937969,"2024-11-10T05:16:29",3,"NO ERROR",6.04,100,1012.11,0.25,0.26,0.26],
    [5998,363171,"Vazduh","Libelium","0004A30B0021DF70",44.979,16.7091,"","","Prijedor","",28938727,"2024-11-10T06:17:11",3,"NO ERROR",6.1,100,1012.04,0.16,0.17,0.17],
    [5999,363171,"Vazduh","Libelium","0004A30B0021DF70",44.979,16.7091,"","","Prijedor","",28939473,"2024-11-10T07:18:05",3,"NO ERROR",6.03,100,1012.39,0.51,0.55,0.55],
    [6000,363171,"Vazduh","Libelium","0004A30B0021DF70",44.979,16.7091,"","","Prijedor","",28940160,"2024-11-10T08:18:53",3,"NO ERROR",6.69,100,1012.78,0.12,0.14,0.14],
    [6001,363171,"Vazduh","Libelium","0004A30B0021DF70",44.979,16.7091,"","","Prijedor","",28940837,"2024-11-10T09:19:35",3,"NO ERROR",7.39,100,1012.99,0.17,0.17,0.17],
    [6002,363171,"Vazduh","Libelium","0004A30B0021DF70",44.979,16.7091,"","","Prijedor","",28941561,"2024-11-10T10:20:17",3,"NO ERROR",7.84,100,1013.02,0.07,0.07,0.07],
    [6003,363171,"Vazduh","Libelium","0004A30B0021DF70",44.979,16.7091,"","","Prijedor","",28942269,"2024-11-10T11:20:59",3,"NO ERROR",8.57,92.8,1012.69,0.22,0.25,0.25],
    [6004,363171,"Vazduh","Libelium","0004A30B0021DF70",44.979,16.7091,"","","Prijedor","",28943779,"2024-11-10T13:22:23",3,"NO ERROR",8.76,96.2,1012.01,0.07,0.07,0.07],
    [6005,363171,"Vazduh","Libelium","0004A30B0021DF70",44.979,16.7091,"","","Prijedor","",28944523,"2024-11-10T14:23:11",3,"NO ERROR",8.32,98.1,1011.66,0.14,0.17,0.17],
    [6006,363171,"Vazduh","Libelium","0004A30B0021DF70",44.979,16.7091,"","","Prijedor","",28945277,"2024-11-10T15:23:59",3,"NO ERROR",7.83,100,1011.64,0.33,0.39,0.39],
    [6007,363171,"Vazduh","Libelium","0004A30B0021DF70",44.979,16.7091,"","","Prijedor","",28945978,"2024-11-10T16:24:41",3,"NO ERROR",7.47,100,1012,0.42,0.5,0.5],
    [6008,363171,"Vazduh","Libelium","0004A30B0021DF70",44.979,16.7091,"","","Prijedor","",28946639,"2024-11-10T17:25:30",3,"NO ERROR",7.21,100,1012.44,0.32,0.34,0.34],
    [6009,363171,"Vazduh","Libelium","0004A30B0021DF70",44.979,16.7091,"","","Prijedor","",28947315,"2024-11-10T18:26:11",3,"NO ERROR",6.96,100,1012.7,0.48,0.56,0.56],
    [6010,363171,"Vazduh","Libelium","0004A30B0021DF70",44.979,16.7091,"","","Prijedor","",28969911,"2024-11-12T02:49:08",3,"NO ERROR",4.49,100,1012.13,0.26,0.3,0.3],
    [6011,363171,"Vazduh","Libelium","0004A30B0021DF70",44.979,16.7091,"","","Prijedor","",28970619,"2024-11-12T03:49:50",3,"NO ERROR",4.12,100,1012.12,0.15,0.16,0.16],
    [6012,363171,"Vazduh","Libelium","0004A30B0021DF70",44.979,16.7091,"","","Prijedor","",28971412,"2024-11-12T04:50:32",3,"NO ERROR",4.35,100,1012.02,0.14,0.14,0.14],
    [6013,363171,"Vazduh","Libelium","0004A30B0021DF70",44.979,16.7091,"","","Prijedor","",28972133,"2024-11-12T05:51:14",3,"NO ERROR",4.36,100,1012.2,0.62,0.67,0.67],
    [6014,363171,"Vazduh","Libelium","0004A30B0021DF70",44.979,16.7091,"","","Prijedor","",28972867,"2024-11-12T06:52:02",3,"NO ERROR",3.98,100,1012.61,0.56,0.58,0.58],
    [6015,363171,"Vazduh","Libelium","0004A30B0021DF70",44.979,16.7091,"","","Prijedor","",28973593,"2024-11-12T07:52:44",3,"NO ERROR",3.93,100,1013.05,1.11,1.19,1.19],
    [6016,363171,"Vazduh","Libelium","0004A30B0021DF70",44.979,16.7091,"","","Prijedor","",28974233,"2024-11-12T08:53:26",3,"NO ERROR",4.1,100,1013.53,0.56,0.59,0.59],
    [6017,363171,"Vazduh","Libelium","0004A30B0021DF70",44.979,16.7091,"","","Prijedor","",28974907,"2024-11-12T09:54:08",3,"NO ERROR",4.41,100,1013.86,0.24,0.27,0.27],
    [6018,363171,"Vazduh","Libelium","0004A30B0021DF70",44.979,16.7091,"","","Prijedor","",28975653,"2024-11-12T10:54:51",3,"NO ERROR",5.04,100,1013.88,0.33,0.35,0.35],
    [6019,363171,"Vazduh","Libelium","0004A30B0021DF70",44.979,16.7091,"","","Prijedor","",28976318,"2024-11-12T11:55:33",3,"NO ERROR",5.9,100,1013.71,0.3,0.35,0.35],
    [6020,363171,"Vazduh","Libelium","0004A30B0021DF70",44.979,16.7091,"","","Prijedor","",28977053,"2024-11-12T12:56:21",3,"NO ERROR",5.95,100,1013.54,0.23,0.25,0.25],
    [6021,363171,"Vazduh","Libelium","0004A30B0021DF70",44.979,16.7091,"","","Prijedor","",28977839,"2024-11-12T13:57:03",3,"NO ERROR",5.78,100,1013.23,0.1,0.1,0.1],
    [6022,363171,"Vazduh","Libelium","0004A30B0021DF70",44.979,16.7091,"","","Prijedor","",28978527,"2024-11-12T14:57:45",3,"NO ERROR",5.56,100,1013.36,0.25,0.26,0.26],
    [6023,363171,"Vazduh","Libelium","0004A30B0021DF70",44.979,16.7091,"","","Prijedor","",28979215,"2024-11-12T15:58:27",3,"NO ERROR",5.48,100,1013.59,0.77,0.82,0.82],
    [6024,363171,"Vazduh","Libelium","0004A30B0021DF70",44.979,16.7091,"","","Prijedor","",28979926,"2024-11-12T16:59:15",3,"NO ERROR",5.42,100,1013.71,0.17,0.2,0.2],
    [6025,363171,"Vazduh","Libelium","0004A30B0021DF70",44.979,16.7091,"","","Prijedor","",28980574,"2024-11-12T17:59:57",3,"NO ERROR",5.57,100,1014.17,0.39,0.46,0.46],
    [6026,363171,"Vazduh","Libelium","0004A30B0021DF70",44.979,16.7091,"","","Prijedor","",28981251,"2024-11-12T19:00:39",3,"NO ERROR",5.64,100,1014.36,0.63,0.66,0.66],
    [6027,363171,"Vazduh","Libelium","0004A30B0021DF70",44.979,16.7091,"","","Prijedor","",28981962,"2024-11-12T20:01:21",3,"NO ERROR",5.46,100,1014.5,0.15,0.15,0.15],
    [6028,363171,"Vazduh","Libelium","0004A30B0021DF70",44.979,16.7091,"","","Prijedor","",28982683,"2024-11-12T21:02:03",3,"NO ERROR",5.32,100,1014.66,0.06,0.07,0.07],
    [6029,363171,"Vazduh","Libelium","0004A30B0021DF70",44.979,16.7091,"","","Prijedor","",28983445,"2024-11-12T22:02:45",3,"NO ERROR",5.42,100,1014.72,0.11,0.12,0.12],
    [6030,363171,"Vazduh","Libelium","0004A30B0021DF70",44.979,16.7091,"","","Prijedor","",28984182,"2024-11-12T23:03:28",3,"NO ERROR",5.41,100,1014.7,0.21,0.26,0.26],
    [6031,363171,"Vazduh","Libelium","0004A30B0021DF70",44.979,16.7091,"","","Prijedor","",28984858,"2024-11-13T00:04:10",3,"NO ERROR",5.06,100,1014.71,0.32,0.39,0.4],
    [6032,363171,"Vazduh","Libelium","0004A30B0021DF70",44.979,16.7091,"","","Prijedor","",28985552,"2024-11-13T01:04:52",3,"NO ERROR",4.61,100,1014.4,0.27,0.3,0.3],
    [6033,363171,"Vazduh","Libelium","0004A30B0021DF70",44.979,16.7091,"","","Prijedor","",28986259,"2024-11-13T02:05:34",3,"NO ERROR",4.42,100,1014.22,0.54,0.56,0.56],
    [6034,363171,"Vazduh","Libelium","0004A30B0021DF70",44.979,16.7091,"","","Prijedor","",28986902,"2024-11-13T03:06:22",3,"NO ERROR",4.42,100,1013.88,0.27,0.33,0.33],
    [6035,363171,"Vazduh","Libelium","0004A30B0021DF70",44.979,16.7091,"","","Prijedor","",28987640,"2024-11-13T04:07:04",3,"NO ERROR",4.21,100,1013.75,0.35,0.4,0.4],
    [6036,363171,"Vazduh","Libelium","0004A30B0021DF70",44.979,16.7091,"","","Prijedor","",28988471,"2024-11-13T05:07:52",3,"NO ERROR",4.07,100,1013.87,0.78,0.89,0.89],
    [6037,363171,"Vazduh","Libelium","0004A30B0021DF70",44.979,16.7091,"","","Prijedor","",28989193,"2024-11-13T06:08:34",3,"NO ERROR",4.01,100,1013.96,0.22,0.26,0.26],
    [6038,363171,"Vazduh","Libelium","0004A30B0021DF70",44.979,16.7091,"","","Prijedor","",28989926,"2024-11-13T07:09:16",3,"NO ERROR",3.98,100,1014.03,0.12,0.15,0.15],
    [6039,363171,"Vazduh","Libelium","0004A30B0021DF70",44.979,16.7091,"","","Prijedor","",28990672,"2024-11-13T08:09:58",3,"NO ERROR",4.39,100,1014.33,0.26,0.28,0.28],
    [6040,363171,"Vazduh","Libelium","0004A30B0021DF70",44.979,16.7091,"","","Prijedor","",28991340,"2024-11-13T09:10:40",3,"NO ERROR",4.74,100,1014.25,0.24,0.26,0.26],
    [6041,363171,"Vazduh","Libelium","0004A30B0021DF70",44.979,16.7091,"","","Prijedor","",28992064,"2024-11-13T10:11:28",3,"NO ERROR",5.09,100,1014.13,0.04,0.08,0.09],
    [6042,363171,"Vazduh","Libelium","0004A30B0021DF70",44.979,16.7091,"","","Prijedor","",28992780,"2024-11-13T11:12:10",3,"NO ERROR",5.63,100,1013.86,0.13,0.14,0.14],
    [6043,363171,"Vazduh","Libelium","0004A30B0021DF70",44.979,16.7091,"","","Prijedor","",28993500,"2024-11-13T12:12:53",3,"NO ERROR",5.99,100,1013.42,0.13,0.14,0.14],
    [6044,363171,"Vazduh","Libelium","0004A30B0021DF70",44.979,16.7091,"","","Prijedor","",28994281,"2024-11-13T13:13:35",3,"NO ERROR",6.26,100,1012.51,0.23,0.34,0.36],
    [6045,363171,"Vazduh","Libelium","0004A30B0021DF70",44.979,16.7091,"","","Prijedor","",28995110,"2024-11-13T14:14:17",3,"NO ERROR",6.27,93.3,1011.94,0.08,0.16,0.16],
    [6046,363171,"Vazduh","Libelium","0004A30B0021DF70",44.979,16.7091,"","","Prijedor","",28995887,"2024-11-13T15:14:59",3,"NO ERROR",6.23,92.6,1011.6,0.01,0.03,0.03],
    [6047,363171,"Vazduh","Libelium","0004A30B0021DF70",44.979,16.7091,"","","Prijedor","",28996635,"2024-11-13T16:15:41",3,"NO ERROR",5.96,95.3,1011.59,0.36,0.43,0.44],
    [6048,363171,"Vazduh","Libelium","0004A30B0021DF70",44.979,16.7091,"","","Prijedor","",28997352,"2024-11-13T17:16:23",3,"NO ERROR",5.83,98,1011.43,0.31,0.49,0.52],
    [6049,363171,"Vazduh","Libelium","0004A30B0021DF70",44.979,16.7091,"","","Prijedor","",28998088,"2024-11-13T18:17:05",3,"NO ERROR",5.87,98.9,1011.49,0.61,0.75,0.75],
    [6050,363171,"Vazduh","Libelium","0004A30B0021DF70",44.979,16.7091,"","","Prijedor","",28998840,"2024-11-13T19:17:53",3,"NO ERROR",5.6,100,1011.67,0.21,0.22,0.22],
    [6051,363171,"Vazduh","Libelium","0004A30B0021DF70",44.979,16.7091,"","","Prijedor","",28999623,"2024-11-13T20:18:35",3,"NO ERROR",5.47,100,1011.78,0.23,0.24,0.24],
    [6052,363171,"Vazduh","Libelium","0004A30B0021DF70",44.979,16.7091,"","","Prijedor","",29000413,"2024-11-13T21:19:23",3,"NO ERROR",5.31,100,1011.41,0.27,0.3,0.3],
    [6053,363171,"Vazduh","Libelium","0004A30B0021DF70",44.979,16.7091,"","","Prijedor","",29001188,"2024-11-13T22:20:18",3,"NO ERROR",5.41,100,1011.47,0.13,0.17,0.18],
    [6054,363171,"Vazduh","Libelium","0004A30B0021DF70",44.979,16.7091,"","","Prijedor","",29001963,"2024-11-13T23:21:06",3,"NO ERROR",5.15,100,1011.75,0.35,0.37,0.37],
    [6055,363171,"Vazduh","Libelium","0004A30B0021DF70",44.979,16.7091,"","","Prijedor","",29002660,"2024-11-14T00:21:47",3,"NO ERROR",4.94,100,1011.71,0.12,0.12,0.12],
    [6056,363171,"Vazduh","Libelium","0004A30B0021DF70",44.979,16.7091,"","","Prijedor","",29003377,"2024-11-14T01:22:42",3,"NO ERROR",4.6,100,1011.73,0.69,0.75,0.75],
    [6057,363171,"Vazduh","Libelium","0004A30B0021DF70",44.979,16.7091,"","","Prijedor","",29004137,"2024-11-14T02:23:24",3,"NO ERROR",4.03,100,1011.46,0.54,0.59,0.59],
    [6058,363171,"Vazduh","Libelium","0004A30B0021DF70",44.979,16.7091,"","","Prijedor","",29004850,"2024-11-14T03:24:06",3,"NO ERROR",3.69,100,1010.95,0.23,0.32,0.33],
    [6059,363171,"Vazduh","Libelium","0004A30B0021DF70",44.979,16.7091,"","","Prijedor","",29005633,"2024-11-14T04:24:48",3,"NO ERROR",3.59,100,1011.03,0.41,0.44,0.44],
    [6060,363171,"Vazduh","Libelium","0004A30B0021DF70",44.979,16.7091,"","","Prijedor","",29006425,"2024-11-14T05:25:42",3,"NO ERROR",3.59,100,1011.12,0.2,0.25,0.27],
    [6061,363171,"Vazduh","Libelium","0004A30B0021DF70",44.979,16.7091,"","","Prijedor","",29007166,"2024-11-14T06:26:24",3,"NO ERROR",3.39,100,1011.07,0.43,0.45,0.45],
    [6062,363171,"Vazduh","Libelium","0004A30B0021DF70",44.979,16.7091,"","","Prijedor","",29007919,"2024-11-14T07:27:06",3,"NO ERROR",3.42,100,1011.67,0.24,0.3,0.3],
    [6063,363171,"Vazduh","Libelium","0004A30B0021DF70",44.979,16.7091,"","","Prijedor","",29008663,"2024-11-14T08:27:48",3,"NO ERROR",3.47,100,1011.82,0.25,0.26,0.26],
    [6064,363171,"Vazduh","Libelium","0004A30B0021DF70",44.979,16.7091,"","","Prijedor","",29009287,"2024-11-14T09:28:30",3,"NO ERROR",3.55,100,1011.7,0.03,0.04,0.04],
    [6065,363171,"Vazduh","Libelium","0004A30B0021DF70",44.979,16.7091,"","","Prijedor","",29010038,"2024-11-14T10:29:12",3,"NO ERROR",4.09,100,1011.79,0.25,0.27,0.27],
    [6066,363171,"Vazduh","Libelium","0004A30B0021DF70",44.979,16.7091,"","","Prijedor","",29010839,"2024-11-14T11:29:54",3,"NO ERROR",4.03,100,1011.8,0.06,0.08,0.09],
    [6067,363171,"Vazduh","Libelium","0004A30B0021DF70",44.979,16.7091,"","","Prijedor","",29011678,"2024-11-14T12:30:36",3,"NO ERROR",4.31,100,1011.2,0.08,0.09,0.09],
    [6068,363171,"Vazduh","Libelium","0004A30B0021DF70",44.979,16.7091,"","","Prijedor","",29012569,"2024-11-14T13:31:19",3,"NO ERROR",4.25,100,1010.74,0,0,0],
    [6069,363171,"Vazduh","Libelium","0004A30B0021DF70",44.979,16.7091,"","","Prijedor","",29013307,"2024-11-14T14:32:01",3,"NO ERROR",4.16,100,1010.61,0.05,0.1,0.1],
    [6070,363171,"Vazduh","Libelium","0004A30B0021DF70",44.979,16.7091,"","","Prijedor","",29024548,"2024-11-15T06:43:32",3,"NO ERROR",3.38,100,1010.85,0.18,0.19,0.19],
    [6071,363171,"Vazduh","Libelium","0004A30B0021DF70",44.979,16.7091,"","","Prijedor","",29025277,"2024-11-15T07:44:14",3,"NO ERROR",2.84,100,1010.95,0.53,0.59,0.59],
    [6072,363171,"Vazduh","Libelium","0004A30B0021DF70",44.979,16.7091,"","","Prijedor","",29025939,"2024-11-15T08:45:02",3,"NO ERROR",4.13,100,1011.27,0.33,0.36,0.36],
    [6073,363171,"Vazduh","Libelium","0004A30B0021DF70",44.979,16.7091,"","","Prijedor","",29026559,"2024-11-15T09:45:44",3,"NO ERROR",5.47,100,1011.57,0.02,0.04,0.04],
    [6074,363171,"Vazduh","Libelium","0004A30B0021DF70",44.979,16.7091,"","","Prijedor","",29027288,"2024-11-15T10:46:32",3,"NO ERROR",6.56,100,1011.69,0.15,0.18,0.18],
    [6075,363171,"Vazduh","Libelium","0004A30B0021DF70",44.979,16.7091,"","","Prijedor","",29027998,"2024-11-15T11:47:14",3,"NO ERROR",6.67,97.8,1011.33,0.03,0.03,0.03],
    [6076,363171,"Vazduh","Libelium","0004A30B0021DF70",44.979,16.7091,"","","Prijedor","",29028741,"2024-11-15T12:47:56",3,"NO ERROR",7.48,97.1,1011.18,0.03,0.03,0.03],
    [6077,363171,"Vazduh","Libelium","0004A30B0021DF70",44.979,16.7091,"","","Prijedor","",29029571,"2024-11-15T13:48:45",3,"NO ERROR",7.21,97.7,1010.92,0.1,0.13,0.13],
    [6078,363171,"Vazduh","Libelium","0004A30B0021DF70",44.979,16.7091,"","","Prijedor","",29030301,"2024-11-15T14:49:26",3,"NO ERROR",7.65,96.4,1010.89,0.03,0.03,0.03],
    [6079,363171,"Vazduh","Libelium","0004A30B0021DF70",44.979,16.7091,"","","Prijedor","",29030986,"2024-11-15T15:50:09",3,"NO ERROR",7.11,100,1010.74,0.13,0.21,0.21],
    [6080,363171,"Vazduh","Libelium","0004A30B0021DF70",44.979,16.7091,"","","Prijedor","",29031710,"2024-11-15T16:50:51",3,"NO ERROR",6.82,100,1010.51,0.08,0.12,0.13],
    [6081,363171,"Vazduh","Libelium","0004A30B0021DF70",44.979,16.7091,"","","Prijedor","",29032429,"2024-11-15T17:51:33",3,"NO ERROR",6.63,100,1011.12,0.07,0.07,0.07],
    [6082,363171,"Vazduh","Libelium","0004A30B0021DF70",44.979,16.7091,"","","Prijedor","",29033072,"2024-11-15T18:52:15",3,"NO ERROR",6.34,100,1011.57,0.21,0.24,0.24],
    [6083,363171,"Vazduh","Libelium","0004A30B0021DF70",44.979,16.7091,"","","Prijedor","",29033864,"2024-11-15T19:52:57",3,"NO ERROR",6.16,100,1012.12,0.09,0.12,0.12],
    [6084,363171,"Vazduh","Libelium","0004A30B0021DF70",44.979,16.7091,"","","Prijedor","",29034646,"2024-11-15T20:53:39",3,"NO ERROR",6.06,100,1012.51,0.07,0.07,0.07],
    [6085,363171,"Vazduh","Libelium","0004A30B0021DF70",44.979,16.7091,"","","Prijedor","",29035410,"2024-11-15T21:54:21",3,"NO ERROR",5.92,100,1012.19,0.03,0.03,0.03],
    [6086,363171,"Vazduh","Libelium","0004A30B0021DF70",44.979,16.7091,"","","Prijedor","",29036225,"2024-11-15T22:55:03",3,"NO ERROR",5.86,100,1012.59,0.02,0.02,0.02],
    [6087,363171,"Vazduh","Libelium","0004A30B0021DF70",44.979,16.7091,"","","Prijedor","",29036954,"2024-11-15T23:55:45",3,"NO ERROR",5.66,100,1012.45,0.03,0.03,0.03],
    [6088,363171,"Vazduh","Libelium","0004A30B0021DF70",44.979,16.7091,"","","Prijedor","",29037650,"2024-11-16T00:56:27",3,"NO ERROR",5.7,100,1012.03,0.05,0.08,0.08],
    [6089,363171,"Vazduh","Libelium","0004A30B0021DF70",44.979,16.7091,"","","Prijedor","",29038447,"2024-11-16T01:57:09",3,"NO ERROR",5.48,100,1011.84,0.3,0.39,0.4],
    [6090,363171,"Vazduh","Libelium","0004A30B0021DF70",44.979,16.7091,"","","Prijedor","",29039165,"2024-11-16T02:57:51",3,"NO ERROR",5.36,100,1011.23,0.17,0.17,0.17],
    [6091,363171,"Vazduh","Libelium","0004A30B0021DF70",44.979,16.7091,"","","Prijedor","",29039905,"2024-11-16T03:58:33",3,"NO ERROR",5.03,100,1011.14,0.68,0.77,0.78],
    [6092,363171,"Vazduh","Libelium","0004A30B0021DF70",44.979,16.7091,"","","Prijedor","",29040780,"2024-11-16T04:59:22",3,"NO ERROR",5.18,100,1011.07,0.3,0.31,0.31],
    [6093,363171,"Vazduh","Libelium","0004A30B0021DF70",44.979,16.7091,"","","Prijedor","",29041579,"2024-11-16T06:00:04",3,"NO ERROR",5.28,100,1011.05,0.15,0.17,0.17],
    [6094,363171,"Vazduh","Libelium","0004A30B0021DF70",44.979,16.7091,"","","Prijedor","",29042314,"2024-11-16T07:00:46",3,"NO ERROR",4.56,100,1011.09,0.13,0.14,0.14],
    [6095,363171,"Vazduh","Libelium","0004A30B0021DF70",44.979,16.7091,"","","Prijedor","",29043108,"2024-11-16T08:01:28",3,"NO ERROR",5.04,100,1011.36,0.37,0.41,0.41],
    [6096,363171,"Vazduh","Libelium","0004A30B0021DF70",44.979,16.7091,"","","Prijedor","",29043806,"2024-11-16T09:02:10",3,"NO ERROR",6.3,100,1011.2,0.06,0.08,0.08],
    [6097,363171,"Vazduh","Libelium","0004A30B0021DF70",44.979,16.7091,"","","Prijedor","",29044511,"2024-11-16T10:02:52",3,"NO ERROR",8.65,100,1010.96,0.09,0.27,0.41],
    [6098,363171,"Vazduh","Libelium","0004A30B0021DF70",44.979,16.7091,"","","Prijedor","",29045333,"2024-11-16T11:03:34",3,"NO ERROR",10.03,94.5,1010.3,0.03,0.03,0.03],
    [6099,363171,"Vazduh","Libelium","0004A30B0021DF70",44.979,16.7091,"","","Prijedor","",29046076,"2024-11-16T12:04:16",3,"NO ERROR",10.86,83.9,1009.57,0.05,0.06,0.06],
    [6100,363171,"Vazduh","Libelium","0004A30B0021DF70",44.979,16.7091,"","","Prijedor","",29046904,"2024-11-16T13:04:58",3,"NO ERROR",12.72,68.1,1008.9,0.03,0.04,0.04],
    [6101,363171,"Vazduh","Libelium","0004A30B0021DF70",44.979,16.7091,"","","Prijedor","",29047658,"2024-11-16T14:05:46",3,"NO ERROR",15.91,55.9,1008.12,0.02,0.02,0.02],
    [6102,363171,"Vazduh","Libelium","0004A30B0021DF70",44.979,16.7091,"","","Prijedor","",29048411,"2024-11-16T15:06:28",3,"NO ERROR",13.73,57.2,1007.54,0.04,0.04,0.04],
    [6103,363171,"Vazduh","Libelium","0004A30B0021DF70",44.979,16.7091,"","","Prijedor","",29049174,"2024-11-16T16:07:10",3,"NO ERROR",9.66,76.9,1006.74,0.03,0.03,0.03],
    [6104,363171,"Vazduh","Libelium","0004A30B0021DF70",44.979,16.7091,"","","Prijedor","",29049921,"2024-11-16T17:07:52",3,"NO ERROR",7.85,89.9,1006.39,0.07,0.09,0.09],
    [6105,363171,"Vazduh","Libelium","0004A30B0021DF70",44.979,16.7091,"","","Prijedor","",29050661,"2024-11-16T18:08:34",3,"NO ERROR",5.75,100,1006.33,0.11,0.17,0.18],
    [6106,363171,"Vazduh","Libelium","0004A30B0021DF70",44.979,16.7091,"","","Prijedor","",29051395,"2024-11-16T19:09:17",3,"NO ERROR",4.36,100,1005.91,0.05,0.05,0.05],
    [6107,363171,"Vazduh","Libelium","0004A30B0021DF70",44.979,16.7091,"","","Prijedor","",29052242,"2024-11-16T20:09:59",3,"NO ERROR",2.78,100,1005.78,0.14,0.19,0.19],
    [6108,363171,"Vazduh","Libelium","0004A30B0021DF70",44.979,16.7091,"","","Prijedor","",29053070,"2024-11-16T21:10:41",3,"NO ERROR",2.3,100,1005.54,0.2,0.28,0.28],
    [6109,363171,"Vazduh","Libelium","0004A30B0021DF70",44.979,16.7091,"","","Prijedor","",29053893,"2024-11-16T22:11:23",3,"NO ERROR",1.26,100,1005.38,0.07,0.07,0.07],
    [6110,363171,"Vazduh","Libelium","0004A30B0021DF70",44.979,16.7091,"","","Prijedor","",29054698,"2024-11-16T23:12:05",3,"NO ERROR",0.76,100,1004.92,0.36,0.47,0.48],
    [6111,363171,"Vazduh","Libelium","0004A30B0021DF70",44.979,16.7091,"","","Prijedor","",29055425,"2024-11-17T00:12:47",3,"NO ERROR",-0.16,100,1004.82,0.19,0.25,0.26],
    [6112,363171,"Vazduh","Libelium","0004A30B0021DF70",44.979,16.7091,"","","Prijedor","",29056106,"2024-11-17T01:13:29",3,"NO ERROR",-0.34,100,1004.42,0.15,0.2,0.2],
    [6113,363171,"Vazduh","Libelium","0004A30B0021DF70",44.979,16.7091,"","","Prijedor","",29056850,"2024-11-17T02:14:11",3,"NO ERROR",-1.06,100,1003.93,0.56,0.66,0.66],
    [6114,363171,"Vazduh","Libelium","0004A30B0021DF70",44.979,16.7091,"","","Prijedor","",29057498,"2024-11-17T03:14:59",3,"NO ERROR",-0.88,100,1003.19,1.27,1.57,1.81],
    [6115,363171,"Vazduh","Libelium","0004A30B0021DF70",44.979,16.7091,"","","Prijedor","",29058201,"2024-11-17T04:15:41",3,"NO ERROR",-0.73,100,1002.85,10,71.49,476.65],
    [6116,363171,"Vazduh","Libelium","0004A30B0021DF70",44.979,16.7091,"","","Prijedor","",29059016,"2024-11-17T05:16:23",3,"NO ERROR",-0.64,100,1002.36,4.16,8.56,22.64],
    [6117,363171,"Vazduh","Libelium","0004A30B0021DF70",44.979,16.7091,"","","Prijedor","",29059728,"2024-11-17T06:17:06",3,"NO ERROR",-0.54,100,1002.06,2.38,9,66.42],
    [6118,363171,"Vazduh","Libelium","0004A30B0021DF70",44.979,16.7091,"","","Prijedor","",29060450,"2024-11-17T07:17:48",3,"NO ERROR",-1.33,100,1001.9,0.95,3.26,33.79],
    [6119,363171,"Vazduh","Libelium","0004A30B0021DF70",44.979,16.7091,"","","Prijedor","",29061206,"2024-11-17T08:18:30",3,"NO ERROR",-1.16,100,1001.53,2.8,16.52,154.75],
    [6120,363171,"Vazduh","Libelium","0004A30B0021DF70",44.979,16.7091,"","","Prijedor","",29061888,"2024-11-17T09:19:12",3,"NO ERROR",0.58,100,1001.41,0.54,3.48,38.71],
    [6121,363171,"Vazduh","Libelium","0004A30B0021DF70",44.979,16.7091,"","","Prijedor","",29062558,"2024-11-17T10:19:54",3,"NO ERROR",1.97,100,1000.84,0.78,1.97,7.82],
    [6122,363171,"Vazduh","Libelium","0004A30B0021DF70",44.979,16.7091,"","","Prijedor","",29063308,"2024-11-17T11:20:42",3,"NO ERROR",3.49,100,999.85,0.49,0.52,0.52],
    [6123,363171,"Vazduh","Libelium","0004A30B0021DF70",44.979,16.7091,"","","Prijedor","",29064037,"2024-11-17T12:21:30",3,"NO ERROR",5.82,100,998.9,0.07,0.07,0.07],
    [6124,363171,"Vazduh","Libelium","0004A30B0021DF70",44.979,16.7091,"","","Prijedor","",29064794,"2024-11-17T13:22:12",3,"NO ERROR",9.38,92,998.05,0.05,0.09,0.09],
    [6125,363171,"Vazduh","Libelium","0004A30B0021DF70",44.979,16.7091,"","","Prijedor","",29074657,"2024-11-18T02:31:31",3,"NO ERROR",4.68,100,997.99,0.12,0.16,0.18],
    [6126,363171,"Vazduh","Libelium","0004A30B0021DF70",44.979,16.7091,"","","Prijedor","",29075412,"2024-11-18T03:32:13",3,"NO ERROR",4.27,100,997.59,0.13,0.16,0.16],
    [6127,363171,"Vazduh","Libelium","0004A30B0021DF70",44.979,16.7091,"","","Prijedor","",29076238,"2024-11-18T04:32:55",3,"NO ERROR",4.61,100,997.49,0.12,0.18,0.18],
    [6128,363171,"Vazduh","Libelium","0004A30B0021DF70",44.979,16.7091,"","","Prijedor","",29077071,"2024-11-18T05:33:37",3,"NO ERROR",4.41,100,997.71,0.07,0.07,0.07],
    [6129,363171,"Vazduh","Libelium","0004A30B0021DF70",44.979,16.7091,"","","Prijedor","",29077819,"2024-11-18T06:34:19",3,"NO ERROR",4.08,100,998.35,0.05,0.06,0.06],
    [6130,363171,"Vazduh","Libelium","0004A30B0021DF70",44.979,16.7091,"","","Prijedor","",29078598,"2024-11-18T07:35:02",3,"NO ERROR",4.29,100,998.95,0.12,0.13,0.13],
    [6131,363171,"Vazduh","Libelium","0004A30B0021DF70",44.979,16.7091,"","","Prijedor","",29079392,"2024-11-18T08:35:44",3,"NO ERROR",4.87,100,999.14,0.41,0.43,0.43],
    [6132,363171,"Vazduh","Libelium","0004A30B0021DF70",44.979,16.7091,"","","Prijedor","",29080131,"2024-11-18T09:36:26",3,"NO ERROR",5.34,100,999.77,0.28,0.34,0.34],
    [6133,363171,"Vazduh","Libelium","0004A30B0021DF70",44.979,16.7091,"","","Prijedor","",29080901,"2024-11-18T10:37:08",3,"NO ERROR",6.7,100,999.86,0.09,0.1,0.1],
    [6134,363171,"Vazduh","Libelium","0004A30B0021DF70",44.979,16.7091,"","","Prijedor","",29081669,"2024-11-18T11:37:56",3,"NO ERROR",8.27,100,999.84,0.07,0.07,0.07],
    [6135,363171,"Vazduh","Libelium","0004A30B0021DF70",44.979,16.7091,"","","Prijedor","",29082506,"2024-11-18T12:38:38",3,"NO ERROR",8.54,100,999.52,0.08,0.09,0.09],
    [6136,363171,"Vazduh","Libelium","0004A30B0021DF70",44.979,16.7091,"","","Prijedor","",29083315,"2024-11-18T13:39:20",3,"NO ERROR",6.8,100,999.3,0.19,0.27,0.27],
    [6137,363171,"Vazduh","Libelium","0004A30B0021DF70",44.979,16.7091,"","","Prijedor","",29084134,"2024-11-18T14:40:02",3,"NO ERROR",6.5,100,999.42,0.02,0.02,0.02],
    [6138,363171,"Vazduh","Libelium","0004A30B0021DF70",44.979,16.7091,"","","Prijedor","",29084870,"2024-11-18T15:40:44",3,"NO ERROR",6.78,100,999.16,0.05,0.05,0.05],
    [6139,363171,"Vazduh","Libelium","0004A30B0021DF70",44.979,16.7091,"","","Prijedor","",29085667,"2024-11-18T16:41:26",3,"NO ERROR",6.56,100,999.11,0.1,0.12,0.12],
    [6140,363171,"Vazduh","Libelium","0004A30B0021DF70",44.979,16.7091,"","","Prijedor","",29086431,"2024-11-18T17:42:08",3,"NO ERROR",6.36,100,999,0.02,0.02,0.02],
    [6141,363171,"Vazduh","Libelium","0004A30B0021DF70",44.979,16.7091,"","","Prijedor","",29087126,"2024-11-18T18:42:50",3,"NO ERROR",6.06,100,998.9,0.03,0.03,0.03],
    [6142,363171,"Vazduh","Libelium","0004A30B0021DF70",44.979,16.7091,"","","Prijedor","",29087860,"2024-11-18T19:43:32",3,"NO ERROR",5.26,100,999.05,0.87,1.02,1.04],
    [6143,363171,"Vazduh","Libelium","0004A30B0021DF70",44.979,16.7091,"","","Prijedor","",29088681,"2024-11-18T20:44:15",3,"NO ERROR",4.38,100,999.24,0.92,1.05,1.06],
    [6144,363171,"Vazduh","Libelium","0004A30B0021DF70",44.979,16.7091,"","","Prijedor","",29089485,"2024-11-18T21:44:57",3,"NO ERROR",4.42,100,999.52,1.19,1.36,1.36],
    [6145,363171,"Vazduh","Libelium","0004A30B0021DF70",44.979,16.7091,"","","Prijedor","",29090303,"2024-11-18T22:45:39",3,"NO ERROR",4.91,100,999.37,18.09,36.43,243.56],
    [6146,363171,"Vazduh","Libelium","0004A30B0021DF70",44.979,16.7091,"","","Prijedor","",29091066,"2024-11-18T23:46:21",3,"NO ERROR",5.03,100,999.46,4.42,19.4,246],
    [6147,363171,"Vazduh","Libelium","0004A30B0021DF70",44.979,16.7091,"","","Prijedor","",29091824,"2024-11-19T00:47:03",3,"NO ERROR",5.05,100,999.39,7.57,27.49,195.95],
    [6148,363171,"Vazduh","Libelium","0004A30B0021DF70",44.979,16.7091,"","","Prijedor","",29092592,"2024-11-19T01:47:45",3,"NO ERROR",5.14,100,999.33,2.09,8.74,106.94],
    [6149,363171,"Vazduh","Libelium","0004A30B0021DF70",44.979,16.7091,"","","Prijedor","",29093355,"2024-11-19T02:48:33",3,"NO ERROR",4.58,100,999.39,8.95,16.21,56.42],
    [6150,363171,"Vazduh","Libelium","0004A30B0021DF70",44.979,16.7091,"","","Prijedor","",29094087,"2024-11-19T03:49:15",3,"NO ERROR",4.48,100,998.98,14.75,26.14,115.43],
    [6151,363171,"Vazduh","Libelium","0004A30B0021DF70",44.979,16.7091,"","","Prijedor","",29094894,"2024-11-19T04:49:57",3,"NO ERROR",4.69,100,998.62,1.54,5.9,62.71],
    [6152,363171,"Vazduh","Libelium","0004A30B0021DF70",44.979,16.7091,"","","Prijedor","",29095724,"2024-11-19T05:50:39",3,"NO ERROR",4.47,100,998.22,1.54,6.93,66.56],
    [6153,363171,"Vazduh","Libelium","0004A30B0021DF70",44.979,16.7091,"","","Prijedor","",29096495,"2024-11-19T06:51:21",3,"NO ERROR",4.34,100,998.01,4.15,6.11,14.87],
    [6154,363171,"Vazduh","Libelium","0004A30B0021DF70",44.979,16.7091,"","","Prijedor","",29097259,"2024-11-19T07:52:03",3,"NO ERROR",4.48,100,997.83,1.68,2.19,2.97],
    [6155,363171,"Vazduh","Libelium","0004A30B0021DF70",44.979,16.7091,"","","Prijedor","",29098001,"2024-11-19T08:52:45",3,"NO ERROR",5.34,100,997.78,1.06,1.38,1.95],
    [6156,363171,"Vazduh","Libelium","0004A30B0021DF70",44.979,16.7091,"","","Prijedor","",29098728,"2024-11-19T09:53:28",3,"NO ERROR",6.21,100,997.3,0.22,0.22,0.22],
    [6157,363171,"Vazduh","Libelium","0004A30B0021DF70",44.979,16.7091,"","","Prijedor","",29099507,"2024-11-19T10:54:10",3,"NO ERROR",8.08,100,996.55,0.05,0.05,0.05],
    [6158,363171,"Vazduh","Libelium","0004A30B0021DF70",44.979,16.7091,"","","Prijedor","",29100271,"2024-11-19T11:54:52",3,"NO ERROR",8.1,100,995.67,0.15,0.15,0.15],
    [6159,363171,"Vazduh","Libelium","0004A30B0021DF70",44.979,16.7091,"","","Prijedor","",29101025,"2024-11-19T12:55:34",3,"NO ERROR",8.72,100,994.79,0.13,0.22,0.31],
    [6160,363171,"Vazduh","Libelium","0004A30B0021DF70",44.979,16.7091,"","","Prijedor","",29101826,"2024-11-19T13:56:16",3,"NO ERROR",9.8,100,994,0.14,0.15,0.15],
    [6161,363171,"Vazduh","Libelium","0004A30B0021DF70",44.979,16.7091,"","","Prijedor","",29102640,"2024-11-19T14:56:58",3,"NO ERROR",9.33,100,993.43,0.1,0.11,0.11],
    [6162,363171,"Vazduh","Libelium","0004A30B0021DF70",44.979,16.7091,"","","Prijedor","",29103361,"2024-11-19T15:57:40",3,"NO ERROR",8.96,100,992.85,0.03,0.03,0.03],
    [6163,363171,"Vazduh","Libelium","0004A30B0021DF70",44.979,16.7091,"","","Prijedor","",29104123,"2024-11-19T16:58:22",3,"NO ERROR",8.75,100,992.78,0.09,0.1,0.1],
    [6164,363171,"Vazduh","Libelium","0004A30B0021DF70",44.979,16.7091,"","","Prijedor","",29104908,"2024-11-19T17:59:04",3,"NO ERROR",8.84,100,992.63,0.35,0.58,0.74],
    [6165,363171,"Vazduh","Libelium","0004A30B0021DF70",44.979,16.7091,"","","Prijedor","",29105589,"2024-11-19T18:59:46",3,"NO ERROR",8.3,100,992.2,0.23,0.27,0.27],
    [6166,363171,"Vazduh","Libelium","0004A30B0021DF70",44.979,16.7091,"","","Prijedor","",29106392,"2024-11-19T20:00:28",3,"NO ERROR",8.61,100,991.77,0.15,0.16,0.16],
    [6167,363171,"Vazduh","Libelium","0004A30B0021DF70",44.979,16.7091,"","","Prijedor","",29107237,"2024-11-19T21:01:10",3,"NO ERROR",7.38,100,990.86,0.59,0.66,0.66],
    [6168,363171,"Vazduh","Libelium","0004A30B0021DF70",44.979,16.7091,"","","Prijedor","",29108001,"2024-11-19T22:01:52",3,"NO ERROR",6.1,100,990.1,2.01,2.27,2.27],
    [6169,363171,"Vazduh","Libelium","0004A30B0021DF70",44.979,16.7091,"","","Prijedor","",29108823,"2024-11-19T23:02:34",3,"NO ERROR",5.99,100,989.07,8.8,11.15,11.26],
    [6170,363171,"Vazduh","Libelium","0004A30B0021DF70",44.979,16.7091,"","","Prijedor","",29109578,"2024-11-20T00:03:17",3,"NO ERROR",6.24,100,988.15,1.04,1.17,1.17],
    [6171,363171,"Vazduh","Libelium","0004A30B0021DF70",44.979,16.7091,"","","Prijedor","",29110306,"2024-11-20T01:03:59",3,"NO ERROR",6.28,100,986.92,0.41,0.46,0.46],
    [6172,363171,"Vazduh","Libelium","0004A30B0021DF70",44.979,16.7091,"","","Prijedor","",29111088,"2024-11-20T02:04:41",3,"NO ERROR",6.59,100,985.51,0.38,0.42,0.42],
    [6173,363171,"Vazduh","Libelium","0004A30B0021DF70",44.979,16.7091,"","","Prijedor","",29111833,"2024-11-20T03:05:29",3,"NO ERROR",6.48,100,984.12,0.06,0.08,0.08],
    [6174,363171,"Vazduh","Libelium","0004A30B0021DF70",44.979,16.7091,"","","Prijedor","",29112554,"2024-11-20T04:06:11",3,"NO ERROR",7.92,100,982.54,0.18,0.3,0.31],
    [6175,363171,"Vazduh","Libelium","0004A30B0021DF70",44.979,16.7091,"","","Prijedor","",29113453,"2024-11-20T05:06:53",3,"NO ERROR",11.25,100,981.88,0.1,0.11,0.11],
    [6176,363171,"Vazduh","Libelium","0004A30B0021DF70",44.979,16.7091,"","","Prijedor","",29114257,"2024-11-20T06:07:35",3,"NO ERROR",15.57,90.9,980.55,0.19,0.21,0.21],
    [6177,363171,"Vazduh","Libelium","0004A30B0021DF70",44.979,16.7091,"","","Prijedor","",29115004,"2024-11-20T07:08:17",3,"NO ERROR",15.91,82.7,979.97,0.02,0.05,0.05],
    [6178,363171,"Vazduh","Libelium","0004A30B0021DF70",44.979,16.7091,"","","Prijedor","",29115787,"2024-11-20T08:08:59",3,"NO ERROR",16.42,81.4,979.86,0.29,0.42,0.44],
    [6179,363171,"Vazduh","Libelium","0004A30B0021DF70",44.979,16.7091,"","","Prijedor","",29116549,"2024-11-20T09:09:47",3,"NO ERROR",18.22,65.5,979.33,0.07,0.09,0.09],
    [6180,363171,"Vazduh","Libelium","0004A30B0021DF70",44.979,16.7091,"","","Prijedor","",29117282,"2024-11-20T10:10:29",3,"NO ERROR",19.34,62.5,979.25,0.04,0.07,0.07],
    [6181,363171,"Vazduh","Libelium","0004A30B0021DF70",44.979,16.7091,"","","Prijedor","",29118079,"2024-11-20T11:11:11",3,"NO ERROR",19.47,61.5,979.13,0.42,0.71,0.74],
    [6182,363171,"Vazduh","Libelium","0004A30B0021DF70",44.979,16.7091,"","","Prijedor","",29118842,"2024-11-20T12:11:53",3,"NO ERROR",18.61,66.7,978.86,0.16,0.17,0.17],
    [6183,363171,"Vazduh","Libelium","0004A30B0021DF70",44.979,16.7091,"","","Prijedor","",29119625,"2024-11-20T13:12:35",3,"NO ERROR",6,100,981.29,0.04,0.08,0.09],
    [6184,363171,"Vazduh","Libelium","0004A30B0021DF70",44.979,16.7091,"","","Prijedor","",29120429,"2024-11-20T14:13:18",3,"NO ERROR",4.43,100,982.02,0,0,0],
    [6185,363171,"Vazduh","Libelium","0004A30B0021DF70",44.979,16.7091,"","","Prijedor","",29121217,"2024-11-20T15:14:00",3,"NO ERROR",3.66,100,985.84,0.02,0.02,0.02],
    [6186,363171,"Vazduh","Libelium","0004A30B0021DF70",44.979,16.7091,"","","Prijedor","",29121926,"2024-11-20T16:14:48",3,"NO ERROR",3.02,100,988.32,0,0,0],
    [6187,363171,"Vazduh","Libelium","0004A30B0021DF70",44.979,16.7091,"","","Prijedor","",29122684,"2024-11-20T17:15:30",3,"NO ERROR",2.27,100,989.31,0,0,0],
    [6188,363171,"Vazduh","Libelium","0004A30B0021DF70",44.979,16.7091,"","","Prijedor","",29123413,"2024-11-20T18:16:12",3,"NO ERROR",0.84,100,989.91,0.06,0.08,0.08],
    [6189,363171,"Vazduh","Libelium","0004A30B0021DF70",44.979,16.7091,"","","Prijedor","",29124129,"2024-11-20T19:16:54",3,"NO ERROR",0.89,100,990.73,0.48,0.52,0.52],
    [6190,363171,"Vazduh","Libelium","0004A30B0021DF70",44.979,16.7091,"","","Prijedor","",29124900,"2024-11-20T20:17:42",3,"NO ERROR",0.94,100,990.5,0.03,0.03,0.03],
    [6191,363171,"Vazduh","Libelium","0004A30B0021DF70",44.979,16.7091,"","","Prijedor","",29125672,"2024-11-20T21:18:24",3,"NO ERROR",1.33,100,989.58,0.02,0.02,0.02],
    [6192,363171,"Vazduh","Libelium","0004A30B0021DF70",44.979,16.7091,"","","Prijedor","",29126392,"2024-11-20T22:19:06",3,"NO ERROR",1.76,100,990.19,0.04,0.05,0.05],
    [6193,363171,"Vazduh","Libelium","0004A30B0021DF70",44.979,16.7091,"","","Prijedor","",29127218,"2024-11-20T23:20:01",3,"NO ERROR",1.97,100,990.03,0.03,0.03,0.03],
    [6194,363171,"Vazduh","Libelium","0004A30B0021DF70",44.979,16.7091,"","","Prijedor","",29127924,"2024-11-21T00:20:42",3,"NO ERROR",1.21,100,990.25,0,0,0],
    [6195,363171,"Vazduh","Libelium","0004A30B0021DF70",44.979,16.7091,"","","Prijedor","",29128609,"2024-11-21T01:21:25",3,"NO ERROR",0.54,100,990.46,0.02,0.02,0.02],
    [6196,363171,"Vazduh","Libelium","0004A30B0021DF70",44.979,16.7091,"","","Prijedor","",29129399,"2024-11-21T02:22:07",3,"NO ERROR",0.55,100,991.38,5.24,8.35,89.29],
    [6197,363171,"Vazduh","Libelium","0004A30B0021DF70",44.979,16.7091,"","","Prijedor","",29219485,"2024-11-26T05:49:35",3,"NO ERROR",-0.28,100,1005.2,0.02,0.02,0.02],
    [6198,363171,"Vazduh","Libelium","0004A30B0021DF70",44.979,16.7091,"","","Prijedor","",29220240,"2024-11-26T06:50:23",3,"NO ERROR",0.43,100,1005.53,0.07,0.07,0.07],
    [6199,363171,"Vazduh","Libelium","0004A30B0021DF70",44.979,16.7091,"","","Prijedor","",29220959,"2024-11-26T07:51:05",3,"NO ERROR",0.83,100,1005.79,0,0,0],
    [6200,363171,"Vazduh","Libelium","0004A30B0021DF70",44.979,16.7091,"","","Prijedor","",29221677,"2024-11-26T08:51:48",3,"NO ERROR",3.53,100,1006,0,0,0],
    [6201,363171,"Vazduh","Libelium","0004A30B0021DF70",44.979,16.7091,"","","Prijedor","",29222387,"2024-11-26T09:52:30",3,"NO ERROR",4.86,100,1006.52,0.09,0.11,0.11],
    [6202,363171,"Vazduh","Libelium","0004A30B0021DF70",44.979,16.7091,"","","Prijedor","",29223071,"2024-11-26T10:53:12",3,"NO ERROR",7.56,100,1006.6,0.02,0.02,0.02],
    [6203,363171,"Vazduh","Libelium","0004A30B0021DF70",44.979,16.7091,"","","Prijedor","",29223784,"2024-11-26T11:53:54",3,"NO ERROR",11.63,100,1006.04,0.03,0.06,0.06],
    [6204,363171,"Vazduh","Libelium","0004A30B0021DF70",44.979,16.7091,"","","Prijedor","",29224614,"2024-11-26T12:54:36",3,"NO ERROR",14.64,99.8,1005.62,0.05,0.13,0.15],
    [6205,363171,"Vazduh","Libelium","0004A30B0021DF70",44.979,16.7091,"","","Prijedor","",29225422,"2024-11-26T13:55:18",3,"NO ERROR",17.22,83.7,1005.77,0.05,0.08,0.08],
    [6206,363171,"Vazduh","Libelium","0004A30B0021DF70",44.979,16.7091,"","","Prijedor","",29226220,"2024-11-26T14:56:00",3,"NO ERROR",15.33,99.2,1006.08,0.38,0.6,1.19],
    [6207,363171,"Vazduh","Libelium","0004A30B0021DF70",44.979,16.7091,"","","Prijedor","",29226968,"2024-11-26T15:56:42",3,"NO ERROR",13.79,100,1006.52,0.17,0.27,0.28],
    [6208,363171,"Vazduh","Libelium","0004A30B0021DF70",44.979,16.7091,"","","Prijedor","",29227736,"2024-11-26T16:57:24",3,"NO ERROR",12.48,100,1006.8,0.27,0.33,0.34],
    [6209,363171,"Vazduh","Libelium","0004A30B0021DF70",44.979,16.7091,"","","Prijedor","",29228496,"2024-11-26T17:58:06",3,"NO ERROR",11.36,100,1007.1,0.55,0.71,0.74],
    [6210,363171,"Vazduh","Libelium","0004A30B0021DF70",44.979,16.7091,"","","Prijedor","",29229202,"2024-11-26T18:58:48",3,"NO ERROR",11.54,100,1007.52,0.5,0.63,0.65],
    [6211,363171,"Vazduh","Libelium","0004A30B0021DF70",44.979,16.7091,"","","Prijedor","",29229986,"2024-11-26T19:59:30",3,"NO ERROR",10.88,100,1007.88,0.61,0.77,0.77],
    [6212,363171,"Vazduh","Libelium","0004A30B0021DF70",44.979,16.7091,"","","Prijedor","",29230813,"2024-11-26T21:00:12",3,"NO ERROR",10.57,100,1008.44,0.14,0.17,0.18],
    [6213,363171,"Vazduh","Libelium","0004A30B0021DF70",44.979,16.7091,"","","Prijedor","",29231595,"2024-11-26T22:01:07",3,"NO ERROR",10.66,100,1008.71,0.44,0.49,0.49],
    [6214,363171,"Vazduh","Libelium","0004A30B0021DF70",44.979,16.7091,"","","Prijedor","",29232419,"2024-11-26T23:01:49",3,"NO ERROR",10.78,100,1008.88,0.93,1.07,1.07],
    [6215,363171,"Vazduh","Libelium","0004A30B0021DF70",44.979,16.7091,"","","Prijedor","",29233161,"2024-11-27T00:02:31",3,"NO ERROR",10.06,100,1008.67,0.21,0.26,0.26],
    [6216,363171,"Vazduh","Libelium","0004A30B0021DF70",44.979,16.7091,"","","Prijedor","",29233877,"2024-11-27T01:03:13",3,"NO ERROR",9.62,100,1008.72,0.39,0.54,0.56],
    [6217,363171,"Vazduh","Libelium","0004A30B0021DF70",44.979,16.7091,"","","Prijedor","",29234656,"2024-11-27T02:03:55",3,"NO ERROR",10.45,100,1008.76,0.08,0.1,0.1],
    [6218,363171,"Vazduh","Libelium","0004A30B0021DF70",44.979,16.7091,"","","Prijedor","",29235391,"2024-11-27T03:04:37",3,"NO ERROR",10.18,100,1008.64,0,0,0],
    [6219,363171,"Vazduh","Libelium","0004A30B0021DF70",44.979,16.7091,"","","Prijedor","",29236146,"2024-11-27T04:05:19",3,"NO ERROR",10.43,100,1008.69,0,0,0],
    [6220,363171,"Vazduh","Libelium","0004A30B0021DF70",44.979,16.7091,"","","Prijedor","",29236984,"2024-11-27T05:06:07",3,"NO ERROR",9.77,100,1008.78,0.11,0.19,0.26],
    [6221,363171,"Vazduh","Libelium","0004A30B0021DF70",44.979,16.7091,"","","Prijedor","",29237747,"2024-11-27T06:06:49",3,"NO ERROR",9.83,100,1008.7,0.21,0.28,0.28],
    [6222,363171,"Vazduh","Libelium","0004A30B0021DF70",44.979,16.7091,"","","Prijedor","",29238523,"2024-11-27T07:07:31",3,"NO ERROR",9.88,100,1008.99,0.25,0.27,0.27],
    [6223,363171,"Vazduh","Libelium","0004A30B0021DF70",44.979,16.7091,"","","Prijedor","",29239311,"2024-11-27T08:08:13",3,"NO ERROR",9.86,100,1009.37,0.1,0.11,0.11],
    [6224,363171,"Vazduh","Libelium","0004A30B0021DF70",44.979,16.7091,"","","Prijedor","",29240012,"2024-11-27T09:08:55",3,"NO ERROR",10.28,100,1009.61,0.22,0.31,0.32],
    [6225,363171,"Vazduh","Libelium","0004A30B0021DF70",44.979,16.7091,"","","Prijedor","",29240776,"2024-11-27T10:09:37",3,"NO ERROR",10.98,100,1009.79,0.03,0.06,0.06],
    [6226,363171,"Vazduh","Libelium","0004A30B0021DF70",44.979,16.7091,"","","Prijedor","",29241535,"2024-11-27T11:10:19",3,"NO ERROR",11.84,100,1009.57,0.02,0.02,0.02],
    [6227,363171,"Vazduh","Libelium","0004A30B0021DF70",44.979,16.7091,"","","Prijedor","",29242285,"2024-11-27T12:11:01",3,"NO ERROR",12.3,100,1009.36,0.04,0.07,0.07],
    [6228,363171,"Vazduh","Libelium","0004A30B0021DF70",44.979,16.7091,"","","Prijedor","",29243113,"2024-11-27T13:11:44",3,"NO ERROR",12.33,100,1009.27,0.05,0.05,0.05],
    [6229,363171,"Vazduh","Libelium","0004A30B0021DF70",44.979,16.7091,"","","Prijedor","",29243931,"2024-11-27T14:12:26",3,"NO ERROR",12.17,100,1009.06,0.02,0.02,0.02],
    [6230,363171,"Vazduh","Libelium","0004A30B0021DF70",44.979,16.7091,"","","Prijedor","",29244712,"2024-11-27T15:13:08",3,"NO ERROR",11.52,100,1009.38,0.1,0.14,0.14],
    [6231,363171,"Vazduh","Libelium","0004A30B0021DF70",44.979,16.7091,"","","Prijedor","",29245425,"2024-11-27T16:13:56",3,"NO ERROR",11,100,1009.47,0.09,0.12,0.12],
    [6232,363171,"Vazduh","Libelium","0004A30B0021DF70",44.979,16.7091,"","","Prijedor","",29246149,"2024-11-27T17:14:38",3,"NO ERROR",10.48,100,1009.88,0.04,0.07,0.07],
    [6233,363171,"Vazduh","Libelium","0004A30B0021DF70",44.979,16.7091,"","","Prijedor","",29246905,"2024-11-27T18:15:20",3,"NO ERROR",10.22,100,1010.07,0.08,0.11,0.11],
    [6234,363171,"Vazduh","Libelium","0004A30B0021DF70",44.979,16.7091,"","","Prijedor","",29247636,"2024-11-27T19:16:02",3,"NO ERROR",9.87,100,1010.29,0.25,0.27,0.27],
    [6235,363171,"Vazduh","Libelium","0004A30B0021DF70",44.979,16.7091,"","","Prijedor","",29248430,"2024-11-27T20:16:50",3,"NO ERROR",9.79,100,1010.42,0.08,0.1,0.1],
    [6236,363171,"Vazduh","Libelium","0004A30B0021DF70",44.979,16.7091,"","","Prijedor","",29249251,"2024-11-27T21:17:32",3,"NO ERROR",9.67,100,1010.62,0.54,0.62,0.63],
    [6237,363171,"Vazduh","Libelium","0004A30B0021DF70",44.979,16.7091,"","","Prijedor","",29250031,"2024-11-27T22:18:14",3,"NO ERROR",9.59,100,1010.05,0.44,0.49,0.49],
    [6238,363171,"Vazduh","Libelium","0004A30B0021DF70",44.979,16.7091,"","","Prijedor","",29250863,"2024-11-27T23:18:56",3,"NO ERROR",9.32,100,1010.29,0.33,0.4,0.42],
    [6239,363171,"Vazduh","Libelium","0004A30B0021DF70",44.979,16.7091,"","","Prijedor","",29251605,"2024-11-28T00:19:38",3,"NO ERROR",9.15,100,1010.28,0.37,0.39,0.39],
    [6240,363171,"Vazduh","Libelium","0004A30B0021DF70",44.979,16.7091,"","","Prijedor","",29252324,"2024-11-28T01:20:20",3,"NO ERROR",9.38,100,1009.8,0.23,0.27,0.27],
    [6241,363171,"Vazduh","Libelium","0004A30B0021DF70",44.979,16.7091,"","","Prijedor","",29253082,"2024-11-28T02:21:02",3,"NO ERROR",9.23,100,1009.47,0.37,0.58,0.74],
    [6242,363171,"Vazduh","Libelium","0004A30B0021DF70",44.979,16.7091,"","","Prijedor","",29253803,"2024-11-28T03:21:45",3,"NO ERROR",8.93,100,1008.97,0.25,0.29,0.29],
    [6243,363171,"Vazduh","Libelium","0004A30B0021DF70",44.979,16.7091,"","","Prijedor","",29254568,"2024-11-28T04:22:27",3,"NO ERROR",8.94,100,1008.69,0.45,0.68,0.72],
    [6244,363171,"Vazduh","Libelium","0004A30B0021DF70",44.979,16.7091,"","","Prijedor","",29255403,"2024-11-28T05:23:09",3,"NO ERROR",8.84,100,1008.14,0.56,0.65,0.65],
    [6245,363171,"Vazduh","Libelium","0004A30B0021DF70",44.979,16.7091,"","","Prijedor","",29256152,"2024-11-28T06:23:51",3,"NO ERROR",8.74,100,1007.93,0.49,0.56,0.56],
    [6246,363171,"Vazduh","Libelium","0004A30B0021DF70",44.979,16.7091,"","","Prijedor","",29256927,"2024-11-28T07:24:33",3,"NO ERROR",8.81,100,1007.67,0.81,0.93,0.93],
    [6247,363171,"Vazduh","Libelium","0004A30B0021DF70",44.979,16.7091,"","","Prijedor","",29257688,"2024-11-28T08:25:15",3,"NO ERROR",9.2,100,1007.35,0.49,0.53,0.53],
    [6248,363171,"Vazduh","Libelium","0004A30B0021DF70",44.979,16.7091,"","","Prijedor","",29258434,"2024-11-28T09:25:57",3,"NO ERROR",9.63,100,1007.17,0.1,0.12,0.12],
    [6249,363171,"Vazduh","Libelium","0004A30B0021DF70",44.979,16.7091,"","","Prijedor","",29259154,"2024-11-28T10:26:39",3,"NO ERROR",10.01,100,1006.86,0.17,0.23,0.23],
    [6250,363171,"Vazduh","Libelium","0004A30B0021DF70",44.979,16.7091,"","","Prijedor","",29259929,"2024-11-28T11:27:21",3,"NO ERROR",10.7,100,1006.15,0.38,0.39,0.39],
    [6251,363171,"Vazduh","Libelium","0004A30B0021DF70",44.979,16.7091,"","","Prijedor","",29260683,"2024-11-28T12:28:03",3,"NO ERROR",11.79,100,1005.16,0.08,0.09,0.09],
    [6252,363171,"Vazduh","Libelium","0004A30B0021DF70",44.979,16.7091,"","","Prijedor","",29261479,"2024-11-28T13:28:45",3,"NO ERROR",12.76,100,1003.95,0.31,0.38,0.39],
    [6253,363171,"Vazduh","Libelium","0004A30B0021DF70",44.979,16.7091,"","","Prijedor","",29262233,"2024-11-28T14:29:27",3,"NO ERROR",11.77,100,1003.24,0.07,0.07,0.07],
    [6254,363171,"Vazduh","Libelium","0004A30B0021DF70",44.979,16.7091,"","","Prijedor","",29263001,"2024-11-28T15:30:09",3,"NO ERROR",11.32,100,1003.8,0.39,0.44,0.44],
    [6255,363171,"Vazduh","Libelium","0004A30B0021DF70",44.979,16.7091,"","","Prijedor","",29263782,"2024-11-28T16:30:51",3,"NO ERROR",11.36,100,1004.44,0.38,0.45,0.46],
    [6256,363171,"Vazduh","Libelium","0004A30B0021DF70",44.979,16.7091,"","","Prijedor","",29264536,"2024-11-28T17:31:34",3,"NO ERROR",11.54,100,1004.61,0.08,0.09,0.09],
    [6257,363171,"Vazduh","Libelium","0004A30B0021DF70",44.979,16.7091,"","","Prijedor","",29265263,"2024-11-28T18:32:28",3,"NO ERROR",11.88,100,1005.42,0.42,0.53,0.53],
    [6258,363171,"Vazduh","Libelium","0004A30B0021DF70",44.979,16.7091,"","","Prijedor","",29265986,"2024-11-28T19:33:16",3,"NO ERROR",11.35,100,1005.99,0.05,0.07,0.07],
    [6259,363171,"Vazduh","Libelium","0004A30B0021DF70",44.979,16.7091,"","","Prijedor","",29266805,"2024-11-28T20:33:58",3,"NO ERROR",10.47,100,1006.48,0.2,0.22,0.22],
    [6260,363171,"Vazduh","Libelium","0004A30B0021DF70",44.979,16.7091,"","","Prijedor","",29267590,"2024-11-28T21:34:40",3,"NO ERROR",8.24,100,1007.63,0.03,0.05,0.05],
    [6261,363171,"Vazduh","Libelium","0004A30B0021DF70",44.979,16.7091,"","","Prijedor","",29268364,"2024-11-28T22:35:22",3,"NO ERROR",7.53,100,1008.07,0.02,0.02,0.02],
    [6262,363171,"Vazduh","Libelium","0004A30B0021DF70",44.979,16.7091,"","","Prijedor","",29269130,"2024-11-28T23:36:04",3,"NO ERROR",8.01,100,1009.59,0.03,0.06,0.06],
    [6263,363171,"Vazduh","Libelium","0004A30B0021DF70",44.979,16.7091,"","","Prijedor","",29269835,"2024-11-29T00:36:46",3,"NO ERROR",6.84,100,1010.38,0.02,0.02,0.02],
    [6264,363171,"Vazduh","Libelium","0004A30B0021DF70",44.979,16.7091,"","","Prijedor","",29270547,"2024-11-29T01:37:28",3,"NO ERROR",6.27,100,1010.36,0.02,0.05,0.05],
    [6265,363171,"Vazduh","Libelium","0004A30B0021DF70",44.979,16.7091,"","","Prijedor","",29271237,"2024-11-29T02:38:10",3,"NO ERROR",6.15,100,1010.98,0,0,0],
    [6266,363171,"Vazduh","Libelium","0004A30B0021DF70",44.979,16.7091,"","","Prijedor","",29271968,"2024-11-29T03:38:58",3,"NO ERROR",5.86,100,1011.32,0,0,0],
    [6267,363171,"Vazduh","Libelium","0004A30B0021DF70",44.979,16.7091,"","","Prijedor","",29272779,"2024-11-29T04:39:46",3,"NO ERROR",5.51,100,1011.07,0,0,0],
    [6268,363171,"Vazduh","Libelium","0004A30B0021DF70",44.979,16.7091,"","","Prijedor","",29273517,"2024-11-29T05:40:28",3,"NO ERROR",4.18,100,1011.09,0.01,0.03,0.04],
    [6269,363171,"Vazduh","Libelium","0004A30B0021DF70",44.979,16.7091,"","","Prijedor","",29274276,"2024-11-29T06:41:11",3,"NO ERROR",3.53,100,1011.3,0.03,0.03,0.03],
    [6270,363171,"Vazduh","Libelium","0004A30B0021DF70",44.979,16.7091,"","","Prijedor","",29275042,"2024-11-29T07:41:53",3,"NO ERROR",2.42,100,1011.69,0.08,0.11,0.11],
    [6271,363171,"Vazduh","Libelium","0004A30B0021DF70",44.979,16.7091,"","","Prijedor","",29275770,"2024-11-29T08:42:35",3,"NO ERROR",3.86,100,1012.1,0.23,0.31,0.31],
    [6272,363171,"Vazduh","Libelium","0004A30B0021DF70",44.979,16.7091,"","","Prijedor","",29276506,"2024-11-29T09:43:17",3,"NO ERROR",4.87,100,1012.39,0,0,0],
    [6273,363171,"Vazduh","Libelium","0004A30B0021DF70",44.979,16.7091,"","","Prijedor","",29277318,"2024-11-29T10:43:59",3,"NO ERROR",6.9,100,1012.53,0.03,0.03,0.03],
    [6274,363171,"Vazduh","Libelium","0004A30B0021DF70",44.979,16.7091,"","","Prijedor","",29278039,"2024-11-29T11:44:41",3,"NO ERROR",9.94,100,1011.83,0.05,0.06,0.06],
    [6275,363171,"Vazduh","Libelium","0004A30B0021DF70",44.979,16.7091,"","","Prijedor","",29278837,"2024-11-29T12:45:23",3,"NO ERROR",9.6,100,1011.34,0.03,0.06,0.06],
    [6276,363171,"Vazduh","Libelium","0004A30B0021DF70",44.979,16.7091,"","","Prijedor","",29279669,"2024-11-29T13:46:05",3,"NO ERROR",10.72,100,1010.98,0,0,0],
    [6277,363171,"Vazduh","Libelium","0004A30B0021DF70",44.979,16.7091,"","","Prijedor","",29280469,"2024-11-29T14:46:47",3,"NO ERROR",9.83,100,1011.18,0,0,0],
    [6278,363171,"Vazduh","Libelium","0004A30B0021DF70",44.979,16.7091,"","","Prijedor","",29281192,"2024-11-29T15:47:29",3,"NO ERROR",8.9,100,1011.29,0.18,0.26,0.26],
    [6279,363171,"Vazduh","Libelium","0004A30B0021DF70",44.979,16.7091,"","","Prijedor","",29281939,"2024-11-29T16:48:11",3,"NO ERROR",8.18,100,1011.3,0.03,0.06,0.06],
    [6280,363171,"Vazduh","Libelium","0004A30B0021DF70",44.979,16.7091,"","","Prijedor","",29282724,"2024-11-29T17:48:53",3,"NO ERROR",8.1,100,1011.7,0.05,0.08,0.08],
    [6281,363171,"Vazduh","Libelium","0004A30B0021DF70",44.979,16.7091,"","","Prijedor","",29283415,"2024-11-29T18:49:42",3,"NO ERROR",7.62,100,1012.09,0,0,0],
    [6282,363171,"Vazduh","Libelium","0004A30B0021DF70",44.979,16.7091,"","","Prijedor","",29284193,"2024-11-29T19:50:36",3,"NO ERROR",7.25,100,1012.44,0.02,0.02,0.02],
    [6283,363171,"Vazduh","Libelium","0004A30B0021DF70",44.979,16.7091,"","","Prijedor","",29284996,"2024-11-29T20:51:18",3,"NO ERROR",7.12,100,1012.32,0,0,0],
    [6284,363171,"Vazduh","Libelium","0004A30B0021DF70",44.979,16.7091,"","","Prijedor","",29285768,"2024-11-29T21:52:00",3,"NO ERROR",7.05,100,1012.35,0,0,0],
    [6285,363171,"Vazduh","Libelium","0004A30B0021DF70",44.979,16.7091,"","","Prijedor","",29286610,"2024-11-29T22:52:42",3,"NO ERROR",6.58,100,1012.61,0.07,0.09,0.09],
    [6286,363171,"Vazduh","Libelium","0004A30B0021DF70",44.979,16.7091,"","","Prijedor","",29287309,"2024-11-29T23:53:24",3,"NO ERROR",5.64,100,1012.54,0.03,0.05,0.05],
    [6287,363171,"Vazduh","Libelium","0004A30B0021DF70",44.979,16.7091,"","","Prijedor","",29288031,"2024-11-30T00:54:06",3,"NO ERROR",5.15,100,1012.26,0.07,0.08,0.08],
    [6288,363171,"Vazduh","Libelium","0004A30B0021DF70",44.979,16.7091,"","","Prijedor","",29288822,"2024-11-30T01:54:48",3,"NO ERROR",5.01,100,1012.56,0.03,0.03,0.03],
    [6289,363171,"Vazduh","Libelium","0004A30B0021DF70",44.979,16.7091,"","","Prijedor","",29289517,"2024-11-30T02:55:30",3,"NO ERROR",5.21,100,1012.96,0,0,0],
    [6290,363171,"Vazduh","Libelium","0004A30B0021DF70",44.979,16.7091,"","","Prijedor","",29290245,"2024-11-30T03:56:12",3,"NO ERROR",5.03,100,1013.04,0,0,0],
    [6291,363171,"Vazduh","Libelium","0004A30B0021DF70",44.979,16.7091,"","","Prijedor","",29291093,"2024-11-30T04:56:54",3,"NO ERROR",5.23,100,1013.36,0,0,0],
    [6292,363171,"Vazduh","Libelium","0004A30B0021DF70",44.979,16.7091,"","","Prijedor","",29291892,"2024-11-30T05:57:36",3,"NO ERROR",5.34,100,1013.79,0.05,0.08,0.08],
    [6293,363171,"Vazduh","Libelium","0004A30B0021DF70",44.979,16.7091,"","","Prijedor","",29292649,"2024-11-30T06:58:18",3,"NO ERROR",5.51,100,1014.02,0,0,0],
    [6294,363171,"Vazduh","Libelium","0004A30B0021DF70",44.979,16.7091,"","","Prijedor","",29293394,"2024-11-30T07:59:07",3,"NO ERROR",4.95,100,1014.5,0.05,0.05,0.05],
    [6295,363171,"Vazduh","Libelium","0004A30B0021DF70",44.979,16.7091,"","","Prijedor","",29294084,"2024-11-30T08:59:55",3,"NO ERROR",4.8,100,1014.81,0.04,0.07,0.07],
    [6296,363171,"Vazduh","Libelium","0004A30B0021DF70",44.979,16.7091,"","","Prijedor","",29294836,"2024-11-30T10:00:37",3,"NO ERROR",5.09,100,1015.35,0,0,0],
    [6297,363171,"Vazduh","Libelium","0004A30B0021DF70",44.979,16.7091,"","","Prijedor","",29295660,"2024-11-30T11:01:19",3,"NO ERROR",5.74,100,1014.89,0.02,0.02,0.02],
    [6298,363171,"Vazduh","Libelium","0004A30B0021DF70",44.979,16.7091,"","","Prijedor","",29296383,"2024-11-30T12:02:01",3,"NO ERROR",6.71,100,1014.51,0.02,0.02,0.02],
    [6299,363171,"Vazduh","Libelium","0004A30B0021DF70",44.979,16.7091,"","","Prijedor","",29297180,"2024-11-30T13:02:43",3,"NO ERROR",6.62,100,1014.36,0.02,0.02,0.02],
    [6300,363171,"Vazduh","Libelium","0004A30B0021DF70",44.979,16.7091,"","","Prijedor","",29297958,"2024-11-30T14:03:25",3,"NO ERROR",6.72,100,1014.03,0.03,0.03,0.03],
    [6301,363171,"Vazduh","Libelium","0004A30B0021DF70",44.979,16.7091,"","","Prijedor","",29298671,"2024-11-30T15:04:07",3,"NO ERROR",6.7,100,1014.07,0.03,0.03,0.03],
    [6302,363171,"Vazduh","Libelium","0004A30B0021DF70",44.979,16.7091,"","","Prijedor","",29299348,"2024-11-30T16:04:49",3,"NO ERROR",6.5,100,1014.22,0.02,0.02,0.02],
    [6303,363171,"Vazduh","Libelium","0004A30B0021DF70",44.979,16.7091,"","","Prijedor","",29300028,"2024-11-30T17:05:31",3,"NO ERROR",6.52,100,1014.37,0,0,0],
    [6304,363171,"Vazduh","Libelium","0004A30B0021DF70",44.979,16.7091,"","","Prijedor","",29300710,"2024-11-30T18:06:13",3,"NO ERROR",6.68,100,1014.56,0.08,0.31,0.49],
    [6305,363171,"Vazduh","Libelium","0004A30B0021DF70",44.979,16.7091,"","","Prijedor","",29301368,"2024-11-30T19:06:55",3,"NO ERROR",6.66,100,1014.61,0,0,0],
    [6306,363171,"Vazduh","Libelium","0004A30B0021DF70",44.979,16.7091,"","","Prijedor","",29302074,"2024-11-30T20:07:37",3,"NO ERROR",6.43,100,1014.44,0.02,0.02,0.02],
    [6307,363171,"Vazduh","Libelium","0004A30B0021DF70",44.979,16.7091,"","","Prijedor","",29302775,"2024-11-30T21:08:19",3,"NO ERROR",6.17,100,1014.49,0.07,0.09,0.09],
    [6308,363171,"Vazduh","Libelium","0004A30B0021DF70",44.979,16.7091,"","","Prijedor","",29303504,"2024-11-30T22:09:02",3,"NO ERROR",6.22,100,1014.51,0.08,0.15,0.15],
    [6309,363171,"Vazduh","Libelium","0004A30B0021DF70",44.979,16.7091,"","","Prijedor","",29304216,"2024-11-30T23:09:44",3,"NO ERROR",6.06,100,1014.56,0,0,0],
    [6310,363171,"Vazduh","Libelium","0004A30B0021DF70",44.979,16.7091,"","","Prijedor","",29304845,"2024-12-01T00:10:26",3,"NO ERROR",5.98,100,1014.16,0.03,0.03,0.03],
    [6311,363171,"Vazduh","Libelium","0004A30B0021DF70",44.979,16.7091,"","","Prijedor","",29305470,"2024-12-01T01:11:08",3,"NO ERROR",5.89,100,1014.1,0.01,0.08,0.09],
    [6312,363171,"Vazduh","Libelium","0004A30B0021DF70",44.979,16.7091,"","","Prijedor","",29306173,"2024-12-01T02:11:56",3,"NO ERROR",5.95,100,1013.92,0.15,0.16,0.16],
    [6313,363171,"Vazduh","Libelium","0004A30B0021DF70",44.979,16.7091,"","","Prijedor","",29306789,"2024-12-01T03:12:38",3,"NO ERROR",5.89,100,1013.27,0.02,0.02,0.02],
    [6314,363171,"Vazduh","Libelium","0004A30B0021DF70",44.979,16.7091,"","","Prijedor","",29307458,"2024-12-01T04:13:20",3,"NO ERROR",5.58,100,1013.17,0.12,0.14,0.14],
    [6315,363171,"Vazduh","Libelium","0004A30B0021DF70",44.979,16.7091,"","","Prijedor","",29308227,"2024-12-01T05:14:02",3,"NO ERROR",5.11,100,1013,0.03,0.03,0.03],
    [6316,363171,"Vazduh","Libelium","0004A30B0021DF70",44.979,16.7091,"","","Prijedor","",29308935,"2024-12-01T06:14:44",3,"NO ERROR",5.44,100,1013.16,0.07,0.11,0.13],
    [6317,363171,"Vazduh","Libelium","0004A30B0021DF70",44.979,16.7091,"","","Prijedor","",29309675,"2024-12-01T07:15:32",3,"NO ERROR",5.36,100,1013.22,0.08,0.08,0.08],
    [6318,363171,"Vazduh","Libelium","0004A30B0021DF70",44.979,16.7091,"","","Prijedor","",29310426,"2024-12-01T08:16:14",3,"NO ERROR",6.09,100,1013.2,0.17,0.19,0.19],
    [6319,363171,"Vazduh","Libelium","0004A30B0021DF70",44.979,16.7091,"","","Prijedor","",29311088,"2024-12-01T09:16:56",3,"NO ERROR",6.19,100,1013.24,0.03,0.03,0.03],
    [6320,363171,"Vazduh","Libelium","0004A30B0021DF70",44.979,16.7091,"","","Prijedor","",29312507,"2024-12-01T11:18:21",3,"NO ERROR",7.76,100,1012.43,0.05,0.08,0.08],
    [6321,363171,"Vazduh","Libelium","0004A30B0021DF70",44.979,16.7091,"","","Prijedor","",29313218,"2024-12-01T12:19:03",3,"NO ERROR",8.26,100,1012.1,0.07,0.07,0.07],
    [6322,363171,"Vazduh","Libelium","0004A30B0021DF70",44.979,16.7091,"","","Prijedor","",29313991,"2024-12-01T13:19:45",3,"NO ERROR",8.59,100,1011.94,0.03,0.03,0.03],
    [6323,363171,"Vazduh","Libelium","0004A30B0021DF70",44.979,16.7091,"","","Prijedor","",29314747,"2024-12-01T14:20:27",3,"NO ERROR",9.93,100,1011.88,0.13,0.28,0.29],
    [6324,363171,"Vazduh","Libelium","0004A30B0021DF70",44.979,16.7091,"","","Prijedor","",29315448,"2024-12-01T15:21:09",3,"NO ERROR",8.91,100,1011.9,0,0,0],
    [6325,363171,"Vazduh","Libelium","0004A30B0021DF70",44.979,16.7091,"","","Prijedor","",29316185,"2024-12-01T16:21:51",3,"NO ERROR",7.81,100,1011.73,0.06,0.06,0.06],
    [6326,363171,"Vazduh","Libelium","0004A30B0021DF70",44.979,16.7091,"","","Prijedor","",29316907,"2024-12-01T17:22:33",3,"NO ERROR",7.55,100,1011.88,0.02,0.02,0.02],
    [6327,363171,"Vazduh","Libelium","0004A30B0021DF70",44.979,16.7091,"","","Prijedor","",29317529,"2024-12-01T18:23:15",3,"NO ERROR",6.61,100,1011.92,0.22,0.23,0.23],
    [6328,363171,"Vazduh","Libelium","0004A30B0021DF70",44.979,16.7091,"","","Prijedor","",29318223,"2024-12-01T19:23:57",3,"NO ERROR",5.4,100,1011.69,0.09,0.13,0.14],
    [6329,363171,"Vazduh","Libelium","0004A30B0021DF70",44.979,16.7091,"","","Prijedor","",29318979,"2024-12-01T20:24:39",3,"NO ERROR",4.29,100,1011.68,0.17,0.23,0.23],
    [6330,363171,"Vazduh","Libelium","0004A30B0021DF70",44.979,16.7091,"","","Prijedor","",29319730,"2024-12-01T21:25:21",3,"NO ERROR",2.85,100,1011.56,0.2,0.23,0.23],
    [6331,363171,"Vazduh","Libelium","0004A30B0021DF70",44.979,16.7091,"","","Prijedor","",29320409,"2024-12-01T22:26:09",3,"NO ERROR",2.25,100,1011.6,0.69,0.77,0.77],
    [6332,363171,"Vazduh","Libelium","0004A30B0021DF70",44.979,16.7091,"","","Prijedor","",29323145,"2024-12-02T02:28:58",3,"NO ERROR",2.47,100,1010.63,0.1,0.12,0.12],
    [6333,363171,"Vazduh","Libelium","0004A30B0021DF70",44.979,16.7091,"","","Prijedor","",29323796,"2024-12-02T03:29:40",3,"NO ERROR",2.7,100,1010.4,0.24,0.32,0.32],
    [6334,363171,"Vazduh","Libelium","0004A30B0021DF70",44.979,16.7091,"","","Prijedor","",29324492,"2024-12-02T04:30:22",3,"NO ERROR",1.49,100,1010.15,0.4,0.53,0.65],
    [6335,363171,"Vazduh","Libelium","0004A30B0021DF70",44.979,16.7091,"","","Prijedor","",29325237,"2024-12-02T05:31:04",3,"NO ERROR",1.26,100,1010.47,0.22,0.27,0.27],
    [6336,363171,"Vazduh","Libelium","0004A30B0021DF70",44.979,16.7091,"","","Prijedor","",29325941,"2024-12-02T06:31:46",3,"NO ERROR",1.95,100,1010.39,0.2,0.27,0.27],
    [6337,363171,"Vazduh","Libelium","0004A30B0021DF70",44.979,16.7091,"","","Prijedor","",29326655,"2024-12-02T07:32:34",3,"NO ERROR",2.6,100,1010.46,0.14,0.17,0.17],
    [6338,363171,"Vazduh","Libelium","0004A30B0021DF70",44.979,16.7091,"","","Prijedor","",29327353,"2024-12-02T08:33:22",3,"NO ERROR",2.78,100,1010.6,0.21,0.36,0.47],
    [6339,363171,"Vazduh","Libelium","0004A30B0021DF70",44.979,16.7091,"","","Prijedor","",29328004,"2024-12-02T09:34:04",3,"NO ERROR",4.28,100,1010.75,0.03,0.03,0.03],
    [6340,363171,"Vazduh","Libelium","0004A30B0021DF70",44.979,16.7091,"","","Prijedor","",29328743,"2024-12-02T10:34:46",3,"NO ERROR",5.14,100,1010.76,0.2,0.25,0.25],
    [6341,363171,"Vazduh","Libelium","0004A30B0021DF70",44.979,16.7091,"","","Prijedor","",29329453,"2024-12-02T11:35:28",3,"NO ERROR",5.47,100,1010.17,0.16,0.17,0.17],
    [6342,363171,"Vazduh","Libelium","0004A30B0021DF70",44.979,16.7091,"","","Prijedor","",29330169,"2024-12-02T12:36:11",3,"NO ERROR",5.55,100,1009.45,0,0,0],
    [6343,363171,"Vazduh","Libelium","0004A30B0021DF70",44.979,16.7091,"","","Prijedor","",29330927,"2024-12-02T13:36:59",3,"NO ERROR",5.46,100,1009.2,0,0,0],
    [6344,363171,"Vazduh","Libelium","0004A30B0021DF70",44.979,16.7091,"","","Prijedor","",29331693,"2024-12-02T14:37:47",3,"NO ERROR",5.43,100,1008.93,0.16,0.21,0.21],
    [6345,363171,"Vazduh","Libelium","0004A30B0021DF70",44.979,16.7091,"","","Prijedor","",29332362,"2024-12-02T15:38:29",3,"NO ERROR",5.45,100,1008.74,0.14,0.16,0.16],
    [6346,363171,"Vazduh","Libelium","0004A30B0021DF70",44.979,16.7091,"","","Prijedor","",29333058,"2024-12-02T16:39:11",3,"NO ERROR",5.22,100,1008.56,0.03,0.05,0.05],
    [6347,363171,"Vazduh","Libelium","0004A30B0021DF70",44.979,16.7091,"","","Prijedor","",29333739,"2024-12-02T17:39:59",3,"NO ERROR",5.07,100,1008.27,0.05,0.05,0.05],
    [6348,363171,"Vazduh","Libelium","0004A30B0021DF70",44.979,16.7091,"","","Prijedor","",29334438,"2024-12-02T18:40:41",3,"NO ERROR",5.01,100,1008.07,0.2,0.21,0.21],
    [6349,363171,"Vazduh","Libelium","0004A30B0021DF70",44.979,16.7091,"","","Prijedor","",29335122,"2024-12-02T19:41:23",3,"NO ERROR",4.96,100,1007.89,0.06,0.08,0.09],
    [6350,363171,"Vazduh","Libelium","0004A30B0021DF70",44.979,16.7091,"","","Prijedor","",29335875,"2024-12-02T20:42:05",3,"NO ERROR",4.85,100,1007.28,0.03,0.03,0.03],
    [6351,363171,"Vazduh","Libelium","0004A30B0021DF70",44.979,16.7091,"","","Prijedor","",29336607,"2024-12-02T21:42:47",3,"NO ERROR",4.54,100,1007.1,0.05,0.06,0.06],
    [6352,363171,"Vazduh","Libelium","0004A30B0021DF70",44.979,16.7091,"","","Prijedor","",29337335,"2024-12-02T22:43:29",3,"NO ERROR",4.63,100,1006.67,0,0,0],
    [6353,363171,"Vazduh","Libelium","0004A30B0021DF70",44.979,16.7091,"","","Prijedor","",29338033,"2024-12-02T23:44:11",3,"NO ERROR",4.6,100,1006.19,0.04,0.06,0.06],
    [6354,363171,"Vazduh","Libelium","0004A30B0021DF70",44.979,16.7091,"","","Prijedor","",29338591,"2024-12-03T00:44:53",3,"NO ERROR",4.56,100,1005.86,0.33,0.44,0.44],
    [6355,363171,"Vazduh","Libelium","0004A30B0021DF70",44.979,16.7091,"","","Prijedor","",29339254,"2024-12-03T01:45:36",3,"NO ERROR",4.4,100,1005.46,0.01,0.03,0.03],
    [6356,363171,"Vazduh","Libelium","0004A30B0021DF70",44.979,16.7091,"","","Prijedor","",29339921,"2024-12-03T02:46:18",3,"NO ERROR",4.35,100,1004.94,0.03,0.03,0.03],
    [6357,363171,"Vazduh","Libelium","0004A30B0021DF70",44.979,16.7091,"","","Prijedor","",29340592,"2024-12-03T03:47:00",3,"NO ERROR",4.2,100,1004.48,0.05,0.05,0.05],
    [6358,363171,"Vazduh","Libelium","0004A30B0021DF70",44.979,16.7091,"","","Prijedor","",29341362,"2024-12-03T04:47:42",3,"NO ERROR",4.17,100,1004.31,0.04,0.04,0.04],
    [6359,363171,"Vazduh","Libelium","0004A30B0021DF70",44.979,16.7091,"","","Prijedor","",29342077,"2024-12-03T05:48:30",3,"NO ERROR",4.23,100,1004.11,0.07,0.07,0.07],
    [6360,363171,"Vazduh","Libelium","0004A30B0021DF70",44.979,16.7091,"","","Prijedor","",29342785,"2024-12-03T06:49:12",3,"NO ERROR",4.29,100,1003.96,0.02,0.02,0.02],
    [6361,363171,"Vazduh","Libelium","0004A30B0021DF70",44.979,16.7091,"","","Prijedor","",29343539,"2024-12-03T07:50:00",3,"NO ERROR",4.45,100,1004.2,0.06,0.08,0.08],
    [6362,363171,"Vazduh","Libelium","0004A30B0021DF70",44.979,16.7091,"","","Prijedor","",29344200,"2024-12-03T08:50:48",3,"NO ERROR",4.66,100,1004.39,0.16,0.23,0.24],
    [6363,363171,"Vazduh","Libelium","0004A30B0021DF70",44.979,16.7091,"","","Prijedor","",29344908,"2024-12-03T09:51:30",3,"NO ERROR",5.03,100,1004.68,0.29,0.32,0.32],
    [6364,363171,"Vazduh","Libelium","0004A30B0021DF70",44.979,16.7091,"","","Prijedor","",29345645,"2024-12-03T10:52:12",3,"NO ERROR",5.63,100,1004.71,0.05,0.05,0.05],
    [6365,363171,"Vazduh","Libelium","0004A30B0021DF70",44.979,16.7091,"","","Prijedor","",29346327,"2024-12-03T11:52:54",3,"NO ERROR",6.24,100,1004.42,0.19,0.25,0.25],
    [6366,363171,"Vazduh","Libelium","0004A30B0021DF70",44.979,16.7091,"","","Prijedor","",29347048,"2024-12-03T12:53:36",3,"NO ERROR",6.19,100,1004.24,0.08,0.17,0.25],
    [6367,363171,"Vazduh","Libelium","0004A30B0021DF70",44.979,16.7091,"","","Prijedor","",29347831,"2024-12-03T13:54:18",3,"NO ERROR",5.97,100,1004.13,0.08,0.1,0.1],
    [6368,363171,"Vazduh","Libelium","0004A30B0021DF70",44.979,16.7091,"","","Prijedor","",29348572,"2024-12-03T14:55:01",3,"NO ERROR",5.71,100,1004.3,0.02,0.02,0.02],
    [6369,363171,"Vazduh","Libelium","0004A30B0021DF70",44.979,16.7091,"","","Prijedor","",29349234,"2024-12-03T15:55:43",3,"NO ERROR",5.35,100,1004.68,0.04,0.09,0.09],
    [6370,363171,"Vazduh","Libelium","0004A30B0021DF70",44.979,16.7091,"","","Prijedor","",29349967,"2024-12-03T16:56:31",3,"NO ERROR",5.13,100,1004.99,0.2,0.22,0.22],
    [6371,363171,"Vazduh","Libelium","0004A30B0021DF70",44.979,16.7091,"","","Prijedor","",29350650,"2024-12-03T17:57:25",3,"NO ERROR",5.02,100,1005.13,0.03,0.03,0.03],
    [6372,363171,"Vazduh","Libelium","0004A30B0021DF70",44.979,16.7091,"","","Prijedor","",29351315,"2024-12-03T18:58:07",3,"NO ERROR",4.99,100,1005.29,0.03,0.03,0.03],
    [6373,363171,"Vazduh","Libelium","0004A30B0021DF70",44.979,16.7091,"","","Prijedor","",29352068,"2024-12-03T19:58:49",3,"NO ERROR",4.81,100,1005.47,0.15,0.23,0.25],
    [6374,363171,"Vazduh","Libelium","0004A30B0021DF70",44.979,16.7091,"","","Prijedor","",29352776,"2024-12-03T20:59:31",3,"NO ERROR",4.71,100,1005.53,0.37,0.46,0.46],
    [6375,363171,"Vazduh","Libelium","0004A30B0021DF70",44.979,16.7091,"","","Prijedor","",29353482,"2024-12-03T22:00:13",3,"NO ERROR",4.66,100,1005.61,0.14,0.18,0.18],
    [6376,363171,"Vazduh","Libelium","0004A30B0021DF70",44.979,16.7091,"","","Prijedor","",29354249,"2024-12-03T23:00:55",3,"NO ERROR",4.75,100,1005.69,0.06,0.12,0.13],
    [6377,363171,"Vazduh","Libelium","0004A30B0021DF70",44.979,16.7091,"","","Prijedor","",29354914,"2024-12-04T00:01:37",3,"NO ERROR",4.63,100,1005.68,0.08,0.09,0.09],
    [6378,363171,"Vazduh","Libelium","0004A30B0021DF70",44.979,16.7091,"","","Prijedor","",29355561,"2024-12-04T01:02:19",3,"NO ERROR",4.61,100,1005.7,0.16,0.18,0.18],
    [6379,363171,"Vazduh","Libelium","0004A30B0021DF70",44.979,16.7091,"","","Prijedor","",29356257,"2024-12-04T02:03:01",3,"NO ERROR",4.47,100,1006.07,0.06,0.06,0.06],
    [6380,363171,"Vazduh","Libelium","0004A30B0021DF70",44.979,16.7091,"","","Prijedor","",29356910,"2024-12-04T03:03:43",3,"NO ERROR",4.45,100,1006.33,0.32,0.35,0.35],
    [6381,363171,"Vazduh","Libelium","0004A30B0021DF70",44.979,16.7091,"","","Prijedor","",29357583,"2024-12-04T04:04:26",3,"NO ERROR",4.46,100,1006.24,0.36,0.44,0.44],
    [6382,363171,"Vazduh","Libelium","0004A30B0021DF70",44.979,16.7091,"","","Prijedor","",29358357,"2024-12-04T05:05:08",3,"NO ERROR",4.3,100,1006.27,0.06,0.07,0.07],
    [6383,363171,"Vazduh","Libelium","0004A30B0021DF70",44.979,16.7091,"","","Prijedor","",29359109,"2024-12-04T06:05:50",3,"NO ERROR",4.3,100,1006.28,0.04,0.04,0.04],
    [6384,363171,"Vazduh","Libelium","0004A30B0021DF70",44.979,16.7091,"","","Prijedor","",29359813,"2024-12-04T07:06:32",3,"NO ERROR",4.32,100,1006.75,0.07,0.11,0.13],
    [6385,363171,"Vazduh","Libelium","0004A30B0021DF70",44.979,16.7091,"","","Prijedor","",29360532,"2024-12-04T08:07:14",3,"NO ERROR",4.52,100,1006.88,0.03,0.03,0.03],
    [6386,363171,"Vazduh","Libelium","0004A30B0021DF70",44.979,16.7091,"","","Prijedor","",29361165,"2024-12-04T09:07:56",3,"NO ERROR",5.12,100,1007.29,0.23,0.25,0.25],
    [6387,363171,"Vazduh","Libelium","0004A30B0021DF70",44.979,16.7091,"","","Prijedor","",29361869,"2024-12-04T10:08:38",3,"NO ERROR",5.6,100,1007.67,0.07,0.09,0.09],
    [6388,363171,"Vazduh","Libelium","0004A30B0021DF70",44.979,16.7091,"","","Prijedor","",29362606,"2024-12-04T11:09:20",3,"NO ERROR",6.1,100,1007.58,0.02,0.02,0.02],
    [6389,363171,"Vazduh","Libelium","0004A30B0021DF70",44.979,16.7091,"","","Prijedor","",29363306,"2024-12-04T12:10:08",3,"NO ERROR",6.16,100,1007.48,0.02,0.02,0.02],
    [6390,363171,"Vazduh","Libelium","0004A30B0021DF70",44.979,16.7091,"","","Prijedor","",29364100,"2024-12-04T13:10:50",3,"NO ERROR",6.24,100,1007.54,0.15,0.2,0.2],
    [6391,363171,"Vazduh","Libelium","0004A30B0021DF70",44.979,16.7091,"","","Prijedor","",29364899,"2024-12-04T14:11:32",3,"NO ERROR",6.01,100,1007.68,0.03,0.03,0.03],
    [6392,363171,"Vazduh","Libelium","0004A30B0021DF70",44.979,16.7091,"","","Prijedor","",29365634,"2024-12-04T15:12:14",3,"NO ERROR",6.05,100,1007.88,0,0,0],
    [6393,363171,"Vazduh","Libelium","0004A30B0021DF70",44.979,16.7091,"","","Prijedor","",29366356,"2024-12-04T16:12:57",3,"NO ERROR",5.69,100,1008.13,0.08,0.09,0.09],
    [6394,363171,"Vazduh","Libelium","0004A30B0021DF70",44.979,16.7091,"","","Prijedor","",29367043,"2024-12-04T17:13:45",3,"NO ERROR",5.43,100,1008.6,0.08,0.2,0.24],
    [6395,363171,"Vazduh","Libelium","0004A30B0021DF70",44.979,16.7091,"","","Prijedor","",29367725,"2024-12-04T18:14:27",3,"NO ERROR",5.3,100,1009.01,0.15,0.18,0.18],
    [6396,363171,"Vazduh","Libelium","0004A30B0021DF70",44.979,16.7091,"","","Prijedor","",29368389,"2024-12-04T19:15:15",3,"NO ERROR",5.33,100,1009.39,0.02,0.05,0.05],
    [6397,363171,"Vazduh","Libelium","0004A30B0021DF70",44.979,16.7091,"","","Prijedor","",29369123,"2024-12-04T20:15:57",3,"NO ERROR",5.19,100,1009.86,0.47,0.54,0.55],
    [6398,363171,"Vazduh","Libelium","0004A30B0021DF70",44.979,16.7091,"","","Prijedor","",29369846,"2024-12-04T21:16:39",3,"NO ERROR",5.21,100,1009.98,0.31,0.33,0.33],
    [6399,363171,"Vazduh","Libelium","0004A30B0021DF70",44.979,16.7091,"","","Prijedor","",29370571,"2024-12-04T22:17:21",3,"NO ERROR",4.96,100,1010.38,0.53,0.62,0.62],
    [6400,363171,"Vazduh","Libelium","0004A30B0021DF70",44.979,16.7091,"","","Prijedor","",29371330,"2024-12-04T23:18:03",3,"NO ERROR",5.06,100,1010.48,0.54,0.62,0.62],
    [6401,363171,"Vazduh","Libelium","0004A30B0021DF70",44.979,16.7091,"","","Prijedor","",29372021,"2024-12-05T00:18:45",3,"NO ERROR",4.79,100,1010.41,0.13,0.14,0.14],
    [6402,363171,"Vazduh","Libelium","0004A30B0021DF70",44.979,16.7091,"","","Prijedor","",29372723,"2024-12-05T01:19:27",3,"NO ERROR",4.78,100,1010.4,0.3,0.35,0.36],
    [6403,363171,"Vazduh","Libelium","0004A30B0021DF70",44.979,16.7091,"","","Prijedor","",29373465,"2024-12-05T02:20:09",3,"NO ERROR",4.88,100,1010.56,0.43,0.47,0.47],
    [6404,363171,"Vazduh","Libelium","0004A30B0021DF70",44.979,16.7091,"","","Prijedor","",29374119,"2024-12-05T03:20:51",3,"NO ERROR",5.04,100,1010.61,0.14,0.16,0.16],
    [6405,363171,"Vazduh","Libelium","0004A30B0021DF70",44.979,16.7091,"","","Prijedor","",29374816,"2024-12-05T04:21:33",3,"NO ERROR",4.76,100,1010.52,0.05,0.05,0.05],
    [6406,363171,"Vazduh","Libelium","0004A30B0021DF70",44.979,16.7091,"","","Prijedor","",29375575,"2024-12-05T05:22:22",3,"NO ERROR",4.62,100,1010.52,0.46,0.55,0.55],
    [6407,363171,"Vazduh","Libelium","0004A30B0021DF70",44.979,16.7091,"","","Prijedor","",29376277,"2024-12-05T06:23:04",3,"NO ERROR",4.74,100,1010.95,0.03,0.03,0.03],
    [6408,363171,"Vazduh","Libelium","0004A30B0021DF70",44.979,16.7091,"","","Prijedor","",29377017,"2024-12-05T07:23:46",3,"NO ERROR",4.67,100,1011.31,0.17,0.2,0.2],
    [6409,363171,"Vazduh","Libelium","0004A30B0021DF70",44.979,16.7091,"","","Prijedor","",29377730,"2024-12-05T08:24:28",3,"NO ERROR",4.87,100,1011.59,0.42,0.5,0.5],
    [6410,363171,"Vazduh","Libelium","0004A30B0021DF70",44.979,16.7091,"","","Prijedor","",29378405,"2024-12-05T09:25:10",3,"NO ERROR",5.15,100,1011.55,0.12,0.12,0.12],
    [6411,363171,"Vazduh","Libelium","0004A30B0021DF70",44.979,16.7091,"","","Prijedor","",29379111,"2024-12-05T10:25:52",3,"NO ERROR",5.32,100,1011.55,0.02,0.02,0.02],
    [6412,363171,"Vazduh","Libelium","0004A30B0021DF70",44.979,16.7091,"","","Prijedor","",29379855,"2024-12-05T11:26:34",3,"NO ERROR",5.5,100,1011.06,0.14,0.15,0.15],
    [6413,363171,"Vazduh","Libelium","0004A30B0021DF70",44.979,16.7091,"","","Prijedor","",29380564,"2024-12-05T12:27:16",3,"NO ERROR",5.61,100,1010.65,0.05,0.08,0.08],
    [6414,363171,"Vazduh","Libelium","0004A30B0021DF70",44.979,16.7091,"","","Prijedor","",29381373,"2024-12-05T13:27:58",3,"NO ERROR",5.61,100,1010.18,0.14,0.19,0.19],
    [6415,363171,"Vazduh","Libelium","0004A30B0021DF70",44.979,16.7091,"","","Prijedor","",29382127,"2024-12-05T14:28:40",3,"NO ERROR",5.44,100,1010.04,0.12,0.16,0.16],
    [6416,363171,"Vazduh","Libelium","0004A30B0021DF70",44.979,16.7091,"","","Prijedor","",29382823,"2024-12-05T15:29:22",3,"NO ERROR",5.02,100,1010.33,0.08,0.1,0.1],
    [6417,363171,"Vazduh","Libelium","0004A30B0021DF70",44.979,16.7091,"","","Prijedor","",29383569,"2024-12-05T16:30:04",3,"NO ERROR",4.78,100,1010.45,0.07,0.09,0.09],
    [6418,363171,"Vazduh","Libelium","0004A30B0021DF70",44.979,16.7091,"","","Prijedor","",29384266,"2024-12-05T17:30:59",3,"NO ERROR",4.75,100,1010.22,0.2,0.26,0.26],
    [6419,363171,"Vazduh","Libelium","0004A30B0021DF70",44.979,16.7091,"","","Prijedor","",29384958,"2024-12-05T18:31:41",3,"NO ERROR",4.77,100,1010.17,0.13,0.14,0.14],
    [6420,363171,"Vazduh","Libelium","0004A30B0021DF70",44.979,16.7091,"","","Prijedor","",29385704,"2024-12-05T19:32:23",3,"NO ERROR",4.72,100,1009.84,0.05,0.05,0.05],
    [6421,363171,"Vazduh","Libelium","0004A30B0021DF70",44.979,16.7091,"","","Prijedor","",29386457,"2024-12-05T20:33:05",3,"NO ERROR",4.36,100,1009.07,0.15,0.2,0.2],
    [6422,363171,"Vazduh","Libelium","0004A30B0021DF70",44.979,16.7091,"","","Prijedor","",29387157,"2024-12-05T21:33:47",3,"NO ERROR",3.58,100,1009,0.26,0.44,0.46],
    [6423,363171,"Vazduh","Libelium","0004A30B0021DF70",44.979,16.7091,"","","Prijedor","",29387923,"2024-12-05T22:34:29",3,"NO ERROR",3.79,100,1008.89,0.17,0.18,0.18],
    [6424,363171,"Vazduh","Libelium","0004A30B0021DF70",44.979,16.7091,"","","Prijedor","",29388678,"2024-12-05T23:35:11",3,"NO ERROR",3.83,100,1008.33,0.14,0.16,0.16],
    [6425,363171,"Vazduh","Libelium","0004A30B0021DF70",44.979,16.7091,"","","Prijedor","",29389376,"2024-12-06T00:35:53",3,"NO ERROR",3.74,100,1007.53,0,0,0],
    [6426,363171,"Vazduh","Libelium","0004A30B0021DF70",44.979,16.7091,"","","Prijedor","",29390086,"2024-12-06T01:36:35",3,"NO ERROR",3.75,100,1007.53,0.21,0.26,0.26],
    [6427,363171,"Vazduh","Libelium","0004A30B0021DF70",44.979,16.7091,"","","Prijedor","",29390769,"2024-12-06T02:37:23",3,"NO ERROR",3.71,100,1006.75,0.24,0.31,0.33],
    [6428,363171,"Vazduh","Libelium","0004A30B0021DF70",44.979,16.7091,"","","Prijedor","",29391450,"2024-12-06T03:38:17",3,"NO ERROR",3.42,100,1005.38,0.13,0.14,0.14],
    [6429,363171,"Vazduh","Libelium","0004A30B0021DF70",44.979,16.7091,"","","Prijedor","",29392256,"2024-12-06T04:38:59",3,"NO ERROR",3.53,100,1004.71,0.38,0.45,0.45],
    [6430,363171,"Vazduh","Libelium","0004A30B0021DF70",44.979,16.7091,"","","Prijedor","",29392992,"2024-12-06T05:39:41",3,"NO ERROR",3.91,100,1003.2,0.46,0.56,0.56],
    [6431,363171,"Vazduh","Libelium","0004A30B0021DF70",44.979,16.7091,"","","Prijedor","",29393699,"2024-12-06T06:40:23",3,"NO ERROR",3.67,100,1002.89,0.13,0.16,0.16],
    [6432,363171,"Vazduh","Libelium","0004A30B0021DF70",44.979,16.7091,"","","Prijedor","",29394427,"2024-12-06T07:41:12",3,"NO ERROR",3.33,100,1001.9,0.49,0.54,0.54],
    [6433,363171,"Vazduh","Libelium","0004A30B0021DF70",44.979,16.7091,"","","Prijedor","",29395097,"2024-12-06T08:41:54",3,"NO ERROR",4.03,100,1001.59,0.15,0.21,0.22],
    [6434,363171,"Vazduh","Libelium","0004A30B0021DF70",44.979,16.7091,"","","Prijedor","",29395756,"2024-12-06T09:42:36",3,"NO ERROR",4.27,100,999.9,0.57,0.69,0.69],
    [6435,363171,"Vazduh","Libelium","0004A30B0021DF70",44.979,16.7091,"","","Prijedor","",29396504,"2024-12-06T10:43:18",3,"NO ERROR",5.37,100,998.46,0.07,0.07,0.07],
    [6436,363171,"Vazduh","Libelium","0004A30B0021DF70",44.979,16.7091,"","","Prijedor","",29397234,"2024-12-06T11:44:00",3,"NO ERROR",5.63,100,998.31,0.24,0.29,0.29],
    [6437,363171,"Vazduh","Libelium","0004A30B0021DF70",44.979,16.7091,"","","Prijedor","",29398071,"2024-12-06T12:44:42",3,"NO ERROR",5.82,100,997.72,0.02,0.05,0.05],
    [6438,363171,"Vazduh","Libelium","0004A30B0021DF70",44.979,16.7091,"","","Prijedor","",29398902,"2024-12-06T13:45:24",3,"NO ERROR",5.85,100,998.29,0.13,0.14,0.14],
    [6439,363171,"Vazduh","Libelium","0004A30B0021DF70",44.979,16.7091,"","","Prijedor","",29399677,"2024-12-06T14:46:06",3,"NO ERROR",5.72,100,999.71,0.31,0.38,0.38],
    [6440,363171,"Vazduh","Libelium","0004A30B0021DF70",44.979,16.7091,"","","Prijedor","",29400419,"2024-12-06T15:46:48",3,"NO ERROR",5.15,100,1000.44,0.22,0.24,0.24],
    [6441,363171,"Vazduh","Libelium","0004A30B0021DF70",44.979,16.7091,"","","Prijedor","",29401154,"2024-12-06T16:47:30",3,"NO ERROR",5.02,100,1000.78,0.05,0.06,0.07],
    [6442,363171,"Vazduh","Libelium","0004A30B0021DF70",44.979,16.7091,"","","Prijedor","",29401845,"2024-12-06T17:48:12",3,"NO ERROR",5.04,100,1001.3,0.42,0.46,0.46],
    [6443,363171,"Vazduh","Libelium","0004A30B0021DF70",44.979,16.7091,"","","Prijedor","",29402520,"2024-12-06T18:48:54",3,"NO ERROR",4.79,100,1001.15,0.12,0.12,0.12],
    [6444,363171,"Vazduh","Libelium","0004A30B0021DF70",44.979,16.7091,"","","Prijedor","",29403268,"2024-12-06T19:49:36",3,"NO ERROR",4.15,100,1001.45,0.63,0.72,0.72],
    [6445,363171,"Vazduh","Libelium","0004A30B0021DF70",44.979,16.7091,"","","Prijedor","",29404033,"2024-12-06T20:50:19",3,"NO ERROR",2.81,100,1001.37,1.04,1.1,1.1],
    [6446,363171,"Vazduh","Libelium","0004A30B0021DF70",44.979,16.7091,"","","Prijedor","",29404800,"2024-12-06T21:51:01",3,"NO ERROR",1.69,100,1001.38,2.14,2.38,2.38],
    [6447,363171,"Vazduh","Libelium","0004A30B0021DF70",44.979,16.7091,"","","Prijedor","",29405603,"2024-12-06T22:51:43",3,"NO ERROR",0.38,100,1001.79,14.75,34.79,271.29],
    [6448,363171,"Vazduh","Libelium","0004A30B0021DF70",44.979,16.7091,"","","Prijedor","",29406271,"2024-12-06T23:52:25",3,"NO ERROR",0.17,100,1002.24,11.24,34.25,352.08],
    [6449,363171,"Vazduh","Libelium","0004A30B0021DF70",44.979,16.7091,"","","Prijedor","",29406951,"2024-12-07T00:53:07",3,"NO ERROR",0.31,100,1002.25,5.33,28.85,284.49],
    [6450,363171,"Vazduh","Libelium","0004A30B0021DF70",44.979,16.7091,"","","Prijedor","",29407707,"2024-12-07T01:53:55",3,"NO ERROR",0.12,100,1002.4,3.91,21.91,142.72],
    [6451,363171,"Vazduh","Libelium","0004A30B0021DF70",44.979,16.7091,"","","Prijedor","",29408369,"2024-12-07T02:54:37",3,"NO ERROR",0.42,100,1002.43,24.49,43.34,140.59],
    [6452,363171,"Vazduh","Libelium","0004A30B0021DF70",44.979,16.7091,"","","Prijedor","",29409085,"2024-12-07T03:55:19",3,"NO ERROR",0.53,100,1002.23,6.29,19.57,118.44],
    [6453,363171,"Vazduh","Libelium","0004A30B0021DF70",44.979,16.7091,"","","Prijedor","",29409895,"2024-12-07T04:56:01",3,"NO ERROR",0.68,100,1002.33,4.9,10.79,46.24],
    [6454,363171,"Vazduh","Libelium","0004A30B0021DF70",44.979,16.7091,"","","Prijedor","",29410653,"2024-12-07T05:56:50",3,"NO ERROR",0.37,100,1002.83,8.31,24.06,126.2],
    [6455,363171,"Vazduh","Libelium","0004A30B0021DF70",44.979,16.7091,"","","Prijedor","",29411403,"2024-12-07T06:57:31",3,"NO ERROR",0.18,100,1002.6,2.58,19.07,112.89],
    [6456,363171,"Vazduh","Libelium","0004A30B0021DF70",44.979,16.7091,"","","Prijedor","",29412156,"2024-12-07T07:58:14",3,"NO ERROR",0.53,100,1002.74,1.41,6.28,43.9],
    [6457,363171,"Vazduh","Libelium","0004A30B0021DF70",44.979,16.7091,"","","Prijedor","",29412812,"2024-12-07T08:58:56",3,"NO ERROR",1.47,100,1003.19,0.07,0.68,9.33],
    [6458,363171,"Vazduh","Libelium","0004A30B0021DF70",44.979,16.7091,"","","Prijedor","",29413522,"2024-12-07T09:59:50",3,"NO ERROR",3.34,100,1002.71,0.08,0.09,0.09],
    [6459,363171,"Vazduh","Libelium","0004A30B0021DF70",44.979,16.7091,"","","Prijedor","",29414271,"2024-12-07T11:00:38",3,"NO ERROR",3.45,100,1001.74,0,0,0],
    [6460,363171,"Vazduh","Libelium","0004A30B0021DF70",44.979,16.7091,"","","Prijedor","",29415000,"2024-12-07T12:01:20",3,"NO ERROR",4.32,100,1000.52,0.11,0.21,0.29],
    [6461,363171,"Vazduh","Libelium","0004A30B0021DF70",44.979,16.7091,"","","Prijedor","",29415757,"2024-12-07T13:02:02",3,"NO ERROR",5.36,100,999.45,0.06,0.08,0.09],
    [6462,363171,"Vazduh","Libelium","0004A30B0021DF70",44.979,16.7091,"","","Prijedor","",29416581,"2024-12-07T14:02:44",3,"NO ERROR",4.64,100,998.15,0.18,0.3,0.41],
    [6463,363171,"Vazduh","Libelium","0004A30B0021DF70",44.979,16.7091,"","","Prijedor","",29417356,"2024-12-07T15:03:26",3,"NO ERROR",3.94,100,996.89,2.74,16.51,133.72],
    [6464,363171,"Vazduh","Libelium","0004A30B0021DF70",44.979,16.7091,"","","Prijedor","",29418074,"2024-12-07T16:04:14",3,"NO ERROR",3.38,100,995.82,0.08,0.09,0.09],
    [6465,363171,"Vazduh","Libelium","0004A30B0021DF70",44.979,16.7091,"","","Prijedor","",29418860,"2024-12-07T17:04:56",3,"NO ERROR",2.33,100,995.38,5.87,6.98,7.14],
    [6466,363171,"Vazduh","Libelium","0004A30B0021DF70",44.979,16.7091,"","","Prijedor","",29419584,"2024-12-07T18:05:38",3,"NO ERROR",1.35,100,994.71,3.25,16.23,133.35],
    [6467,363171,"Vazduh","Libelium","0004A30B0021DF70",44.979,16.7091,"","","Prijedor","",29421232,"2024-12-07T19:06:20",3,"NO ERROR",0.79,100,994.25,34.25,65.44,395.64],
    [6468,363171,"Vazduh","Libelium","0004A30B0021DF70",44.979,16.7091,"","","Prijedor","",29421991,"2024-12-07T20:07:03",3,"NO ERROR",1.03,100,993.88,7.86,10.09,11.56],
    [6469,363171,"Vazduh","Libelium","0004A30B0021DF70",44.979,16.7091,"","","Prijedor","",29422765,"2024-12-07T21:07:51",3,"NO ERROR",0.24,100,993.64,1.48,1.61,1.61],
    [6470,363171,"Vazduh","Libelium","0004A30B0021DF70",44.979,16.7091,"","","Prijedor","",29423467,"2024-12-07T22:08:39",3,"NO ERROR",0.65,100,992.94,1,1.11,1.11],
    [6471,363171,"Vazduh","Libelium","0004A30B0021DF70",44.979,16.7091,"","","Prijedor","",29424283,"2024-12-07T23:09:21",3,"NO ERROR",1.34,100,992.23,0.5,0.61,0.61],
    [6472,363171,"Vazduh","Libelium","0004A30B0021DF70",44.979,16.7091,"","","Prijedor","",29424986,"2024-12-08T00:10:03",3,"NO ERROR",1.91,100,991.37,0.15,0.18,0.18],
    [6473,363171,"Vazduh","Libelium","0004A30B0021DF70",44.979,16.7091,"","","Prijedor","",29425651,"2024-12-08T01:10:45",3,"NO ERROR",1.43,100,990.97,0.05,0.05,0.05],
    [6474,363171,"Vazduh","Libelium","0004A30B0021DF70",44.979,16.7091,"","","Prijedor","",29426412,"2024-12-08T02:11:27",3,"NO ERROR",2.25,100,990.3,0.03,0.03,0.03],
    [6475,363171,"Vazduh","Libelium","0004A30B0021DF70",44.979,16.7091,"","","Prijedor","",29427078,"2024-12-08T03:12:09",3,"NO ERROR",2.55,100,989.99,0.05,0.08,0.08],
    [6476,363171,"Vazduh","Libelium","0004A30B0021DF70",44.979,16.7091,"","","Prijedor","",29427789,"2024-12-08T04:12:51",3,"NO ERROR",2,100,989.99,0.08,0.1,0.1],
    [6477,363171,"Vazduh","Libelium","0004A30B0021DF70",44.979,16.7091,"","","Prijedor","",29428577,"2024-12-08T05:13:33",3,"NO ERROR",2.39,100,989.18,0,0,0],
    [6478,363171,"Vazduh","Libelium","0004A30B0021DF70",44.979,16.7091,"","","Prijedor","",29429302,"2024-12-08T06:14:15",3,"NO ERROR",1.66,100,989.15,0.02,0.02,0.02],
    [6479,363171,"Vazduh","Libelium","0004A30B0021DF70",44.979,16.7091,"","","Prijedor","",29430007,"2024-12-08T07:14:57",3,"NO ERROR",1.3,100,989.62,0.46,0.49,0.49],
    [6480,363171,"Vazduh","Libelium","0004A30B0021DF70",44.979,16.7091,"","","Prijedor","",29430765,"2024-12-08T08:15:40",3,"NO ERROR",2.05,100,989.53,0.03,0.03,0.03],
    [6481,363171,"Vazduh","Libelium","0004A30B0021DF70",44.979,16.7091,"","","Prijedor","",29431436,"2024-12-08T09:16:22",3,"NO ERROR",3.61,100,989.67,0.2,0.21,0.21],
    [6482,363171,"Vazduh","Libelium","0004A30B0021DF70",44.979,16.7091,"","","Prijedor","",29432163,"2024-12-08T10:17:04",3,"NO ERROR",4.87,100,990.15,0.03,0.03,0.03],
    [6483,363171,"Vazduh","Libelium","0004A30B0021DF70",44.979,16.7091,"","","Prijedor","",29432949,"2024-12-08T11:17:52",3,"NO ERROR",5.17,100,989.41,0.18,0.2,0.2],
    [6484,363171,"Vazduh","Libelium","0004A30B0021DF70",44.979,16.7091,"","","Prijedor","",29433649,"2024-12-08T12:18:34",3,"NO ERROR",5.76,100,988.39,0.02,0.02,0.02],
    [6485,363171,"Vazduh","Libelium","0004A30B0021DF70",44.979,16.7091,"","","Prijedor","",29434385,"2024-12-08T13:19:22",3,"NO ERROR",5.55,100,987.97,0.05,0.05,0.05],
    [6486,363171,"Vazduh","Libelium","0004A30B0021DF70",44.979,16.7091,"","","Prijedor","",29435150,"2024-12-08T14:20:04",3,"NO ERROR",4.41,100,987.95,0.02,0.02,0.02],
    [6487,363171,"Vazduh","Libelium","0004A30B0021DF70",44.979,16.7091,"","","Prijedor","",29435903,"2024-12-08T15:20:46",3,"NO ERROR",3.46,100,988.57,0.07,0.07,0.07],
    [6488,363171,"Vazduh","Libelium","0004A30B0021DF70",44.979,16.7091,"","","Prijedor","",29436577,"2024-12-08T16:21:28",3,"NO ERROR",2.17,100,989.29,0.35,0.37,0.37],
    [6489,363171,"Vazduh","Libelium","0004A30B0021DF70",44.979,16.7091,"","","Prijedor","",29437261,"2024-12-08T17:22:10",3,"NO ERROR",0.97,100,989.98,1.85,2.02,2.02],
    [6490,363171,"Vazduh","Libelium","0004A30B0021DF70",44.979,16.7091,"","","Prijedor","",29437936,"2024-12-08T18:22:52",3,"NO ERROR",0.88,100,990.26,0.88,0.97,0.97],
    [6491,363171,"Vazduh","Libelium","0004A30B0021DF70",44.979,16.7091,"","","Prijedor","",29438422,"2024-12-08T19:23:34",3,"NO ERROR",0.87,100,990.65,0.12,0.14,0.14],
    [6492,363171,"Vazduh","Libelium","0004A30B0021DF70",44.979,16.7091,"","","Prijedor","",29439027,"2024-12-08T20:24:17",3,"NO ERROR",0.99,100,990.99,0.03,0.03,0.03],
    [6493,363171,"Vazduh","Libelium","0004A30B0021DF70",44.979,16.7091,"","","Prijedor","",29439504,"2024-12-08T21:24:59",3,"NO ERROR",1.17,100,991.81,0.13,0.14,0.14],
    [6494,363171,"Vazduh","Libelium","0004A30B0021DF70",44.979,16.7091,"","","Prijedor","",29440184,"2024-12-08T22:25:47",3,"NO ERROR",1.2,100,992.28,0.98,1.07,1.07],
    [6495,363171,"Vazduh","Libelium","0004A30B0021DF70",44.979,16.7091,"","","Prijedor","",29440903,"2024-12-08T23:26:29",3,"NO ERROR",1.31,100,992.53,0.35,0.37,0.37],
    [6496,363171,"Vazduh","Libelium","0004A30B0021DF70",44.979,16.7091,"","","Prijedor","",29441592,"2024-12-09T00:27:11",3,"NO ERROR",1.4,100,992.84,0.28,0.29,0.29],
    [6497,363171,"Vazduh","Libelium","0004A30B0021DF70",44.979,16.7091,"","","Prijedor","",29442287,"2024-12-09T01:27:53",3,"NO ERROR",1.48,100,993.14,0.46,0.48,0.48],
    [6498,363171,"Vazduh","Libelium","0004A30B0021DF70",44.979,16.7091,"","","Prijedor","",29442982,"2024-12-09T02:28:35",3,"NO ERROR",1.87,100,993.51,0.08,0.09,0.09],
    [6499,363171,"Vazduh","Libelium","0004A30B0021DF70",44.979,16.7091,"","","Prijedor","",29443658,"2024-12-09T03:29:23",3,"NO ERROR",1.43,100,993.88,5.87,6.59,6.59],
    [6500,363171,"Vazduh","Libelium","0004A30B0021DF70",44.979,16.7091,"","","Prijedor","",29444430,"2024-12-09T04:30:05",3,"NO ERROR",1.53,100,994.31,4.33,4.8,4.81],
    [6501,363171,"Vazduh","Libelium","0004A30B0021DF70",44.979,16.7091,"","","Prijedor","",29445208,"2024-12-09T05:30:47",3,"NO ERROR",1.75,100,994.79,4.68,5.19,5.19],
    [6502,363171,"Vazduh","Libelium","0004A30B0021DF70",44.979,16.7091,"","","Prijedor","",29445930,"2024-12-09T06:31:35",3,"NO ERROR",2.02,100,995.26,0.5,0.55,0.55],
    [6503,363171,"Vazduh","Libelium","0004A30B0021DF70",44.979,16.7091,"","","Prijedor","",29446650,"2024-12-09T07:32:17",3,"NO ERROR",2.25,100,995.79,2.59,2.96,2.99],
    [6504,363171,"Vazduh","Libelium","0004A30B0021DF70",44.979,16.7091,"","","Prijedor","",29447386,"2024-12-09T08:33:00",3,"NO ERROR",2.69,100,996.44,0.24,0.25,0.25],
    [6505,363171,"Vazduh","Libelium","0004A30B0021DF70",44.979,16.7091,"","","Prijedor","",29448043,"2024-12-09T09:33:42",3,"NO ERROR",2.76,100,997.22,0.53,0.56,0.56],
    [6506,363171,"Vazduh","Libelium","0004A30B0021DF70",44.979,16.7091,"","","Prijedor","",29448763,"2024-12-09T10:34:24",3,"NO ERROR",2.95,100,997.6,0.13,0.14,0.14],
    [6507,363171,"Vazduh","Libelium","0004A30B0021DF70",44.979,16.7091,"","","Prijedor","",29449520,"2024-12-09T11:35:06",3,"NO ERROR",3.4,100,997.83,0.07,0.08,0.08],
    [6508,363171,"Vazduh","Libelium","0004A30B0021DF70",44.979,16.7091,"","","Prijedor","",29450245,"2024-12-09T12:35:48",3,"NO ERROR",3.81,100,997.92,0.06,0.08,0.08],
    [6509,363171,"Vazduh","Libelium","0004A30B0021DF70",44.979,16.7091,"","","Prijedor","",29450943,"2024-12-09T13:36:30",3,"NO ERROR",3.76,100,998.33,0.02,0.05,0.05],
    [6510,363171,"Vazduh","Libelium","0004A30B0021DF70",44.979,16.7091,"","","Prijedor","",29451689,"2024-12-09T14:37:24",3,"NO ERROR",3.31,100,998.89,0.24,0.25,0.25],
    [6511,363171,"Vazduh","Libelium","0004A30B0021DF70",44.979,16.7091,"","","Prijedor","",29452359,"2024-12-09T15:38:06",3,"NO ERROR",3.23,100,999.55,0.05,0.05,0.05],
    [6512,363171,"Vazduh","Libelium","0004A30B0021DF70",44.979,16.7091,"","","Prijedor","",29453090,"2024-12-09T16:38:48",3,"NO ERROR",3.6,100,1000.19,0.12,0.13,0.13],
    [6513,363171,"Vazduh","Libelium","0004A30B0021DF70",44.979,16.7091,"","","Prijedor","",29453759,"2024-12-09T17:39:30",3,"NO ERROR",3.42,100,1000.74,0.11,0.12,0.12],
    [6514,363171,"Vazduh","Libelium","0004A30B0021DF70",44.979,16.7091,"","","Prijedor","",29454431,"2024-12-09T18:40:12",3,"NO ERROR",3.04,100,1001.34,0.02,0.02,0.02],
    [6515,363171,"Vazduh","Libelium","0004A30B0021DF70",44.979,16.7091,"","","Prijedor","",29455146,"2024-12-09T19:40:54",3,"NO ERROR",2.93,100,1001.83,0.29,0.34,0.34],
    [6516,363171,"Vazduh","Libelium","0004A30B0021DF70",44.979,16.7091,"","","Prijedor","",29455892,"2024-12-09T20:41:37",3,"NO ERROR",2.74,100,1002.14,0.18,0.21,0.21],
    [6517,363171,"Vazduh","Libelium","0004A30B0021DF70",44.979,16.7091,"","","Prijedor","",29456617,"2024-12-09T21:42:19",3,"NO ERROR",2.65,100,1002.39,0.15,0.17,0.17],
    [6518,363171,"Vazduh","Libelium","0004A30B0021DF70",44.979,16.7091,"","","Prijedor","",29457412,"2024-12-09T22:43:07",3,"NO ERROR",2.84,100,1002.95,0.17,0.22,0.23],
    [6519,363171,"Vazduh","Libelium","0004A30B0021DF70",44.979,16.7091,"","","Prijedor","",29458106,"2024-12-09T23:43:55",3,"NO ERROR",2.85,100,1003.26,0.35,0.38,0.38],
    [6520,363171,"Vazduh","Libelium","0004A30B0021DF70",44.979,16.7091,"","","Prijedor","",29458788,"2024-12-10T00:44:43",3,"NO ERROR",2.84,100,1003.69,0.41,0.46,0.46],
    [6521,363171,"Vazduh","Libelium","0004A30B0021DF70",44.979,16.7091,"","","Prijedor","",29459517,"2024-12-10T01:45:25",3,"NO ERROR",2.65,100,1004.23,3.24,3.84,4],
    [6522,363171,"Vazduh","Libelium","0004A30B0021DF70",44.979,16.7091,"","","Prijedor","",29460209,"2024-12-10T02:46:07",3,"NO ERROR",2.86,100,1004.23,5.93,7.15,13.11],
    [6523,363171,"Vazduh","Libelium","0004A30B0021DF70",44.979,16.7091,"","","Prijedor","",29460898,"2024-12-10T03:46:49",3,"NO ERROR",2.67,100,1004.23,5.68,7.11,25.52],
    [6524,363171,"Vazduh","Libelium","0004A30B0021DF70",44.979,16.7091,"","","Prijedor","",29461728,"2024-12-10T04:47:31",3,"NO ERROR",2.89,100,1004.17,3.97,4.57,4.71],
    [6525,363171,"Vazduh","Libelium","0004A30B0021DF70",44.979,16.7091,"","","Prijedor","",29462475,"2024-12-10T05:48:19",3,"NO ERROR",2.97,100,1004.58,1.5,1.76,1.77],
    [6526,363171,"Vazduh","Libelium","0004A30B0021DF70",44.979,16.7091,"","","Prijedor","",29463220,"2024-12-10T06:49:01",3,"NO ERROR",3.06,100,1004.96,0.68,0.74,0.74],
    [6527,363171,"Vazduh","Libelium","0004A30B0021DF70",44.979,16.7091,"","","Prijedor","",29463962,"2024-12-10T07:49:50",3,"NO ERROR",3.15,100,1005.46,0.4,0.43,0.43],
    [6528,363171,"Vazduh","Libelium","0004A30B0021DF70",44.979,16.7091,"","","Prijedor","",29464610,"2024-12-10T08:50:32",3,"NO ERROR",3.56,100,1006.17,0.24,0.25,0.25],
    [6529,363171,"Vazduh","Libelium","0004A30B0021DF70",44.979,16.7091,"","","Prijedor","",29465301,"2024-12-10T09:51:14",3,"NO ERROR",3.79,100,1006.55,0.15,0.18,0.18],
    [6530,363171,"Vazduh","Libelium","0004A30B0021DF70",44.979,16.7091,"","","Prijedor","",29466060,"2024-12-10T10:51:56",3,"NO ERROR",4.44,100,1006.67,0.18,0.19,0.19],
    [6531,363171,"Vazduh","Libelium","0004A30B0021DF70",44.979,16.7091,"","","Prijedor","",29466759,"2024-12-10T11:52:38",3,"NO ERROR",4.62,100,1006.67,0.22,0.24,0.24],
    [6532,363171,"Vazduh","Libelium","0004A30B0021DF70",44.979,16.7091,"","","Prijedor","",29467509,"2024-12-10T12:53:20",3,"NO ERROR",4.53,100,1006.71,0.38,0.42,0.42],
    [6533,363171,"Vazduh","Libelium","0004A30B0021DF70",44.979,16.7091,"","","Prijedor","",29468291,"2024-12-10T13:54:08",3,"NO ERROR",4.62,100,1006.77,0.02,0.02,0.02],
    [6534,363171,"Vazduh","Libelium","0004A30B0021DF70",44.979,16.7091,"","","Prijedor","",29469044,"2024-12-10T14:54:50",3,"NO ERROR",4.67,100,1007.15,0.05,0.05,0.05],
    [6535,363171,"Vazduh","Libelium","0004A30B0021DF70",44.979,16.7091,"","","Prijedor","",29469741,"2024-12-10T15:55:32",3,"NO ERROR",4.47,100,1007.39,0.25,0.27,0.27],
    [6536,363171,"Vazduh","Libelium","0004A30B0021DF70",44.979,16.7091,"","","Prijedor","",29470453,"2024-12-10T16:56:14",3,"NO ERROR",4.26,100,1007.71,0.24,0.26,0.26],
    [6537,363171,"Vazduh","Libelium","0004A30B0021DF70",44.979,16.7091,"","","Prijedor","",29471138,"2024-12-10T17:56:56",3,"NO ERROR",3.95,100,1008.04,0.12,0.14,0.14],
    [6538,363171,"Vazduh","Libelium","0004A30B0021DF70",44.979,16.7091,"","","Prijedor","",29471817,"2024-12-10T18:57:38",3,"NO ERROR",3.92,100,1008.12,0.08,0.09,0.09],
    [6539,363171,"Vazduh","Libelium","0004A30B0021DF70",44.979,16.7091,"","","Prijedor","",29472585,"2024-12-10T19:58:20",3,"NO ERROR",3.99,100,1008.51,0.02,0.02,0.02],
    [6540,363171,"Vazduh","Libelium","0004A30B0021DF70",44.979,16.7091,"","","Prijedor","",29473316,"2024-12-10T20:59:02",3,"NO ERROR",3.55,100,1008.65,0.21,0.22,0.22],
    [6541,363171,"Vazduh","Libelium","0004A30B0021DF70",44.979,16.7091,"","","Prijedor","",29474027,"2024-12-10T21:59:45",3,"NO ERROR",3.47,100,1008.79,0.22,0.24,0.24],
    [6542,363171,"Vazduh","Libelium","0004A30B0021DF70",44.979,16.7091,"","","Prijedor","",29474827,"2024-12-10T23:00:33",3,"NO ERROR",3.78,100,1009.01,0.07,0.07,0.07],
    [6543,363171,"Vazduh","Libelium","0004A30B0021DF70",44.979,16.7091,"","","Prijedor","",29475481,"2024-12-11T00:01:15",3,"NO ERROR",3.96,100,1008.67,0.22,0.24,0.24],
    [6544,363171,"Vazduh","Libelium","0004A30B0021DF70",44.979,16.7091,"","","Prijedor","",29476156,"2024-12-11T01:01:57",3,"NO ERROR",4,100,1008.67,0.48,0.53,0.53],
    [6545,363171,"Vazduh","Libelium","0004A30B0021DF70",44.979,16.7091,"","","Prijedor","",29476912,"2024-12-11T02:02:45",3,"NO ERROR",4.63,100,1008.78,0.73,0.86,0.86],
    [6546,363171,"Vazduh","Libelium","0004A30B0021DF70",44.979,16.7091,"","","Prijedor","",29477572,"2024-12-11T03:03:27",3,"NO ERROR",4.46,100,1008.63,0.09,0.1,0.1],
    [6547,363171,"Vazduh","Libelium","0004A30B0021DF70",44.979,16.7091,"","","Prijedor","",29478299,"2024-12-11T04:04:09",3,"NO ERROR",4.25,100,1008.5,0.15,0.18,0.18],
    [6548,363171,"Vazduh","Libelium","0004A30B0021DF70",44.979,16.7091,"","","Prijedor","",29479162,"2024-12-11T05:04:57",3,"NO ERROR",4.19,100,1008.75,0.02,0.02,0.02],
    [6549,363171,"Vazduh","Libelium","0004A30B0021DF70",44.979,16.7091,"","","Prijedor","",29479882,"2024-12-11T06:05:39",3,"NO ERROR",3.99,100,1008.88,0,0,0],
    [6550,363171,"Vazduh","Libelium","0004A30B0021DF70",44.979,16.7091,"","","Prijedor","",29480613,"2024-12-11T07:06:21",3,"NO ERROR",3.83,100,1009.06,0,0,0],
    [6551,363171,"Vazduh","Libelium","0004A30B0021DF70",44.979,16.7091,"","","Prijedor","",29481380,"2024-12-11T08:07:03",3,"NO ERROR",3.91,100,1009.64,0,0,0],
    [6552,363171,"Vazduh","Libelium","0004A30B0021DF70",44.979,16.7091,"","","Prijedor","",29482047,"2024-12-11T09:07:45",3,"NO ERROR",4.49,100,1010.2,0,0,0],
    [6553,363171,"Vazduh","Libelium","0004A30B0021DF70",44.979,16.7091,"","","Prijedor","",29482761,"2024-12-11T10:08:27",3,"NO ERROR",5.02,100,1010.92,0.02,0.02,0.02],
    [6554,363171,"Vazduh","Libelium","0004A30B0021DF70",44.979,16.7091,"","","Prijedor","",29483555,"2024-12-11T11:09:16",3,"NO ERROR",5.35,100,1011.04,0,0,0],
    [6555,363171,"Vazduh","Libelium","0004A30B0021DF70",44.979,16.7091,"","","Prijedor","",29484255,"2024-12-11T12:09:58",3,"NO ERROR",5.77,100,1010.95,0.03,0.11,0.18],
    [6556,363171,"Vazduh","Libelium","0004A30B0021DF70",44.979,16.7091,"","","Prijedor","",29485069,"2024-12-11T13:10:40",3,"NO ERROR",5.98,100,1010.72,0.05,0.08,0.08],
    [6557,363171,"Vazduh","Libelium","0004A30B0021DF70",44.979,16.7091,"","","Prijedor","",29485904,"2024-12-11T14:11:22",3,"NO ERROR",5.43,100,1010.74,0,0,0],
    [6558,363171,"Vazduh","Libelium","0004A30B0021DF70",44.979,16.7091,"","","Prijedor","",29486659,"2024-12-11T15:12:04",3,"NO ERROR",4.65,100,1011.17,0.04,0.1,0.12],
    [6559,363171,"Vazduh","Libelium","0004A30B0021DF70",44.979,16.7091,"","","Prijedor","",29487411,"2024-12-11T16:12:46",3,"NO ERROR",3.94,100,1011.84,0.02,0.02,0.02],
    [6560,363171,"Vazduh","Libelium","0004A30B0021DF70",44.979,16.7091,"","","Prijedor","",29488194,"2024-12-11T17:13:28",3,"NO ERROR",3.73,100,1012.16,0.02,0.02,0.02],
    [6561,363171,"Vazduh","Libelium","0004A30B0021DF70",44.979,16.7091,"","","Prijedor","",29488923,"2024-12-11T18:14:10",3,"NO ERROR",3.54,100,1012.5,0,0,0],
    [6562,363171,"Vazduh","Libelium","0004A30B0021DF70",44.979,16.7091,"","","Prijedor","",29489660,"2024-12-11T19:14:52",3,"NO ERROR",3.55,100,1013.06,0.08,0.09,0.09],
    [6563,363171,"Vazduh","Libelium","0004A30B0021DF70",44.979,16.7091,"","","Prijedor","",29490490,"2024-12-11T20:15:34",3,"NO ERROR",3.31,100,1013.35,0,0,0],
    [6564,363171,"Vazduh","Libelium","0004A30B0021DF70",44.979,16.7091,"","","Prijedor","",29491236,"2024-12-11T21:16:16",3,"NO ERROR",3.25,100,1013.89,0.03,0.03,0.03],
    [6565,363171,"Vazduh","Libelium","0004A30B0021DF70",44.979,16.7091,"","","Prijedor","",29492011,"2024-12-11T22:16:58",3,"NO ERROR",3.05,100,1014.26,0.03,0.03,0.03],
    [6566,363171,"Vazduh","Libelium","0004A30B0021DF70",44.979,16.7091,"","","Prijedor","",29492856,"2024-12-11T23:17:41",3,"NO ERROR",3.01,100,1014.49,0.01,0.03,0.03],
    [6567,363171,"Vazduh","Libelium","0004A30B0021DF70",44.979,16.7091,"","","Prijedor","",29493546,"2024-12-12T00:18:23",3,"NO ERROR",2.79,100,1014.56,0.05,0.05,0.05],
    [6568,363171,"Vazduh","Libelium","0004A30B0021DF70",44.979,16.7091,"","","Prijedor","",29494202,"2024-12-12T01:19:05",3,"NO ERROR",2.73,100,1014.77,0.08,0.11,0.11],
    [6569,363171,"Vazduh","Libelium","0004A30B0021DF70",44.979,16.7091,"","","Prijedor","",29494897,"2024-12-12T02:19:53",3,"NO ERROR",2.68,100,1014.93,0.03,0.03,0.03],
    [6570,363171,"Vazduh","Libelium","0004A30B0021DF70",44.979,16.7091,"","","Prijedor","",29495558,"2024-12-12T03:20:35",3,"NO ERROR",2.6,100,1015.08,0.05,0.05,0.05],
    [6571,363171,"Vazduh","Libelium","0004A30B0021DF70",44.979,16.7091,"","","Prijedor","",29496276,"2024-12-12T04:21:17",3,"NO ERROR",2.54,100,1015.07,0.03,0.03,0.03],
    [6572,363171,"Vazduh","Libelium","0004A30B0021DF70",44.979,16.7091,"","","Prijedor","",29497078,"2024-12-12T05:22:05",3,"NO ERROR",2.52,100,1015.17,0.03,0.03,0.03],
    [6573,363171,"Vazduh","Libelium","0004A30B0021DF70",44.979,16.7091,"","","Prijedor","",29497798,"2024-12-12T06:22:47",3,"NO ERROR",2.51,100,1015.31,0.05,0.08,0.08],
    [6574,363171,"Vazduh","Libelium","0004A30B0021DF70",44.979,16.7091,"","","Prijedor","",29498499,"2024-12-12T07:23:29",3,"NO ERROR",2.5,100,1015.66,0.12,0.23,0.25],
    [6575,363171,"Vazduh","Libelium","0004A30B0021DF70",44.979,16.7091,"","","Prijedor","",29499242,"2024-12-12T08:24:11",3,"NO ERROR",2.83,100,1016.1,0.03,0.05,0.05],
    [6576,363171,"Vazduh","Libelium","0004A30B0021DF70",44.979,16.7091,"","","Prijedor","",29499860,"2024-12-12T09:24:53",3,"NO ERROR",3.27,100,1016.58,0.04,0.07,0.07],
    [6577,363171,"Vazduh","Libelium","0004A30B0021DF70",44.979,16.7091,"","","Prijedor","",29500600,"2024-12-12T10:25:42",3,"NO ERROR",3.66,100,1016.71,0.05,0.05,0.05],
    [6578,363171,"Vazduh","Libelium","0004A30B0021DF70",44.979,16.7091,"","","Prijedor","",29501353,"2024-12-12T11:26:23",3,"NO ERROR",4.28,100,1016.27,0.02,0.02,0.02],
    [6579,363171,"Vazduh","Libelium","0004A30B0021DF70",44.979,16.7091,"","","Prijedor","",29502076,"2024-12-12T12:27:06",3,"NO ERROR",4.94,100,1015.89,0.03,0.05,0.05],
    [6580,363171,"Vazduh","Libelium","0004A30B0021DF70",44.979,16.7091,"","","Prijedor","",29502841,"2024-12-12T13:27:48",3,"NO ERROR",5.14,100,1015.63,0,0,0],
    [6581,363171,"Vazduh","Libelium","0004A30B0021DF70",44.979,16.7091,"","","Prijedor","",29503594,"2024-12-12T14:28:30",3,"NO ERROR",5.07,100,1015.35,0.1,0.11,0.11],
    [6582,363171,"Vazduh","Libelium","0004A30B0021DF70",44.979,16.7091,"","","Prijedor","",29504292,"2024-12-12T15:29:18",3,"NO ERROR",4.76,100,1015.42,0.11,0.12,0.12],
    [6583,363171,"Vazduh","Libelium","0004A30B0021DF70",44.979,16.7091,"","","Prijedor","",29504984,"2024-12-12T16:30:00",3,"NO ERROR",4.25,100,1015.54,0.25,0.32,0.32],
    [6584,363171,"Vazduh","Libelium","0004A30B0021DF70",44.979,16.7091,"","","Prijedor","",29505686,"2024-12-12T17:30:42",3,"NO ERROR",3.99,100,1015.65,0.18,0.2,0.2],
    [6585,363171,"Vazduh","Libelium","0004A30B0021DF70",44.979,16.7091,"","","Prijedor","",29506322,"2024-12-12T18:31:24",3,"NO ERROR",3.77,100,1016.01,0.02,0.02,0.02],
    [6586,363171,"Vazduh","Libelium","0004A30B0021DF70",44.979,16.7091,"","","Prijedor","",29507040,"2024-12-12T19:32:12",3,"NO ERROR",3.75,100,1016.19,0.02,0.02,0.02],
    [6587,363171,"Vazduh","Libelium","0004A30B0021DF70",44.979,16.7091,"","","Prijedor","",29507833,"2024-12-12T20:32:54",3,"NO ERROR",3.66,100,1016.15,0.02,0.02,0.02],
    [6588,363171,"Vazduh","Libelium","0004A30B0021DF70",44.979,16.7091,"","","Prijedor","",29508509,"2024-12-12T21:33:36",3,"NO ERROR",3.53,100,1016.31,0.03,0.06,0.06],
    [6589,363171,"Vazduh","Libelium","0004A30B0021DF70",44.979,16.7091,"","","Prijedor","",29509222,"2024-12-12T22:34:18",3,"NO ERROR",3.34,100,1016.6,0,0,0],
    [6590,363171,"Vazduh","Libelium","0004A30B0021DF70",44.979,16.7091,"","","Prijedor","",29509951,"2024-12-12T23:35:00",3,"NO ERROR",3.19,100,1016.89,0.26,0.34,0.34],
    [6591,363171,"Vazduh","Libelium","0004A30B0021DF70",44.979,16.7091,"","","Prijedor","",29510649,"2024-12-13T00:35:43",3,"NO ERROR",3.19,100,1017.11,0.05,0.05,0.05],
    [6592,363171,"Vazduh","Libelium","0004A30B0021DF70",44.979,16.7091,"","","Prijedor","",29511346,"2024-12-13T01:36:25",3,"NO ERROR",3.05,100,1017.09,0.02,0.02,0.02],
    [6593,363171,"Vazduh","Libelium","0004A30B0021DF70",44.979,16.7091,"","","Prijedor","",29512063,"2024-12-13T02:37:07",3,"NO ERROR",3.11,100,1017.17,0.02,0.02,0.02],
    [6594,363171,"Vazduh","Libelium","0004A30B0021DF70",44.979,16.7091,"","","Prijedor","",29512731,"2024-12-13T03:37:49",3,"NO ERROR",3.03,100,1016.81,0.33,0.35,0.35],
    [6595,363171,"Vazduh","Libelium","0004A30B0021DF70",44.979,16.7091,"","","Prijedor","",29513523,"2024-12-13T04:38:31",3,"NO ERROR",3.23,100,1016.79,0.1,0.13,0.13],
    [6596,363171,"Vazduh","Libelium","0004A30B0021DF70",44.979,16.7091,"","","Prijedor","",29514262,"2024-12-13T05:39:13",3,"NO ERROR",3.44,100,1017.16,0.05,0.06,0.06],
    [6597,363171,"Vazduh","Libelium","0004A30B0021DF70",44.979,16.7091,"","","Prijedor","",29515007,"2024-12-13T06:40:01",3,"NO ERROR",3.33,100,1017.64,0.07,0.08,0.08],
    [6598,363171,"Vazduh","Libelium","0004A30B0021DF70",44.979,16.7091,"","","Prijedor","",29515753,"2024-12-13T07:40:43",3,"NO ERROR",3.21,100,1018.21,0.1,0.13,0.13],
    [6599,363171,"Vazduh","Libelium","0004A30B0021DF70",44.979,16.7091,"","","Prijedor","",29516467,"2024-12-13T08:41:25",3,"NO ERROR",3.49,100,1018.8,0.07,0.09,0.09],
    [6600,363171,"Vazduh","Libelium","0004A30B0021DF70",44.979,16.7091,"","","Prijedor","",29517089,"2024-12-13T09:42:20",3,"NO ERROR",3.91,100,1019.3,0.07,0.09,0.09],
    [6601,363171,"Vazduh","Libelium","0004A30B0021DF70",44.979,16.7091,"","","Prijedor","",29518516,"2024-12-13T11:43:55",3,"NO ERROR",3.99,94.8,1018.85,0.03,0.06,0.06],
    [6602,363171,"Vazduh","Libelium","0004A30B0021DF70",44.979,16.7091,"","","Prijedor","",29519298,"2024-12-13T12:44:38",3,"NO ERROR",4.31,94.2,1018.24,0.07,0.09,0.09],
    [6603,363171,"Vazduh","Libelium","0004A30B0021DF70",44.979,16.7091,"","","Prijedor","",29520107,"2024-12-13T13:45:20",3,"NO ERROR",3.97,94.9,1018.08,0.08,0.09,0.09],
    [6604,363171,"Vazduh","Libelium","0004A30B0021DF70",44.979,16.7091,"","","Prijedor","",29520877,"2024-12-13T14:46:02",3,"NO ERROR",4.05,97.6,1017.84,0.01,0.03,0.04],
    [6605,363171,"Vazduh","Libelium","0004A30B0021DF70",44.979,16.7091,"","","Prijedor","",29521591,"2024-12-13T15:46:44",3,"NO ERROR",3.73,100,1017.71,0.01,0.06,0.07],
    [6606,363171,"Vazduh","Libelium","0004A30B0021DF70",44.979,16.7091,"","","Prijedor","",29522359,"2024-12-13T16:47:26",3,"NO ERROR",3.59,100,1017.67,0.01,0.03,0.03],
    [6607,363171,"Vazduh","Libelium","0004A30B0021DF70",44.979,16.7091,"","","Prijedor","",29523090,"2024-12-13T17:48:08",3,"NO ERROR",3.4,100,1017.57,0.12,0.18,0.18],
    [6608,363171,"Vazduh","Libelium","0004A30B0021DF70",44.979,16.7091,"","","Prijedor","",29523774,"2024-12-13T18:48:56",3,"NO ERROR",3.47,100,1017.38,0.31,0.51,0.55],
    [6609,363171,"Vazduh","Libelium","0004A30B0021DF70",44.979,16.7091,"","","Prijedor","",29524580,"2024-12-13T19:49:38",3,"NO ERROR",3.47,100,1016.91,0.3,0.45,0.45],
    [6610,363171,"Vazduh","Libelium","0004A30B0021DF70",44.979,16.7091,"","","Prijedor","",29526934,"2024-12-13T22:51:44",3,"NO ERROR",3.24,100,1015.4,0.15,0.19,0.19],
    [6611,363171,"Vazduh","Libelium","0004A30B0021DF70",44.979,16.7091,"","","Prijedor","",29527643,"2024-12-13T23:52:26",3,"NO ERROR",3.06,100,1014.52,0.02,0.02,0.02],
    [6612,363171,"Vazduh","Libelium","0004A30B0021DF70",44.979,16.7091,"","","Prijedor","",29528348,"2024-12-14T00:53:08",3,"NO ERROR",3.07,100,1013.38,0.2,0.22,0.22],
    [6613,363171,"Vazduh","Libelium","0004A30B0021DF70",44.979,16.7091,"","","Prijedor","",29529110,"2024-12-14T01:53:51",3,"NO ERROR",2.93,100,1012.47,0.3,0.38,0.38],
    [6614,363171,"Vazduh","Libelium","0004A30B0021DF70",44.979,16.7091,"","","Prijedor","",29529811,"2024-12-14T02:54:33",3,"NO ERROR",2.8,100,1011.85,0.07,0.07,0.07],
    [6615,363171,"Vazduh","Libelium","0004A30B0021DF70",44.979,16.7091,"","","Prijedor","",29530515,"2024-12-14T03:55:27",3,"NO ERROR",2.48,100,1010.84,0.02,0.02,0.02],
    [6616,363171,"Vazduh","Libelium","0004A30B0021DF70",44.979,16.7091,"","","Prijedor","",29531301,"2024-12-14T04:56:09",3,"NO ERROR",2.45,100,1009.8,0.05,0.08,0.08],
    [6617,363171,"Vazduh","Libelium","0004A30B0021DF70",44.979,16.7091,"","","Prijedor","",29532049,"2024-12-14T05:56:51",3,"NO ERROR",2.33,100,1008.94,0.05,0.05,0.05],
    [6618,363171,"Vazduh","Libelium","0004A30B0021DF70",44.979,16.7091,"","","Prijedor","",29532757,"2024-12-14T06:57:33",3,"NO ERROR",2.16,100,1008.52,0.03,0.03,0.03],
    [6619,363171,"Vazduh","Libelium","0004A30B0021DF70",44.979,16.7091,"","","Prijedor","",29533463,"2024-12-14T07:58:15",3,"NO ERROR",2.02,100,1008.36,0.67,0.75,0.75],
    [6620,363171,"Vazduh","Libelium","0004A30B0021DF70",44.979,16.7091,"","","Prijedor","",29534130,"2024-12-14T08:58:57",3,"NO ERROR",1.91,100,1007.65,1.24,1.34,1.34],
    [6621,363171,"Vazduh","Libelium","0004A30B0021DF70",44.979,16.7091,"","","Prijedor","",29534755,"2024-12-14T09:59:45",3,"NO ERROR",2.79,100,1007.46,0.74,0.77,0.77],
    [6622,363171,"Vazduh","Libelium","0004A30B0021DF70",44.979,16.7091,"","","Prijedor","",29535482,"2024-12-14T11:00:27",3,"NO ERROR",3.42,100,1006.99,0.12,0.12,0.12],
    [6623,363171,"Vazduh","Libelium","0004A30B0021DF70",44.979,16.7091,"","","Prijedor","",29562519,"2024-12-16T01:27:12",3,"NO ERROR",0.91,100,1018.1,0.65,3.09,17.09],
    [6624,363171,"Vazduh","Libelium","0004A30B0021DF70",44.979,16.7091,"","","Prijedor","",29563231,"2024-12-16T02:27:54",3,"NO ERROR",0.74,100,1018.39,0.57,2.76,32.39],
    [6625,363171,"Vazduh","Libelium","0004A30B0021DF70",44.979,16.7091,"","","Prijedor","",29563882,"2024-12-16T03:28:43",3,"NO ERROR",0.79,100,1018.2,1.28,5.77,29.23],
    [6626,363171,"Vazduh","Libelium","0004A30B0021DF70",44.979,16.7091,"","","Prijedor","",29564619,"2024-12-16T04:29:25",3,"NO ERROR",0.5,100,1017.81,0.78,4.15,12.96],
    [6627,363171,"Vazduh","Libelium","0004A30B0021DF70",44.979,16.7091,"","","Prijedor","",29565398,"2024-12-16T05:30:07",3,"NO ERROR",0.78,100,1017.77,0.02,0.02,0.02],
    [6628,363171,"Vazduh","Libelium","0004A30B0021DF70",44.979,16.7091,"","","Prijedor","",29566131,"2024-12-16T06:30:49",3,"NO ERROR",0.33,100,1017.85,0.77,1.99,3.62],
    [6629,363171,"Vazduh","Libelium","0004A30B0021DF70",44.979,16.7091,"","","Prijedor","",29566803,"2024-12-16T07:31:31",3,"NO ERROR",0.12,100,1018.13,0.89,1.06,1.09],
    [6630,363171,"Vazduh","Libelium","0004A30B0021DF70",44.979,16.7091,"","","Prijedor","",29567539,"2024-12-16T08:32:13",3,"NO ERROR",1.32,100,1019.06,0.12,0.12,0.12],
    [6631,363171,"Vazduh","Libelium","0004A30B0021DF70",44.979,16.7091,"","","Prijedor","",29568181,"2024-12-16T09:32:55",3,"NO ERROR",2.42,100,1019.33,0.04,0.07,0.07],
    [6632,363171,"Vazduh","Libelium","0004A30B0021DF70",44.979,16.7091,"","","Prijedor","",29568885,"2024-12-16T10:33:37",3,"NO ERROR",3.96,100,1019.09,0.03,0.11,0.42],
    [6633,363171,"Vazduh","Libelium","0004A30B0021DF70",44.979,16.7091,"","","Prijedor","",29569676,"2024-12-16T11:34:19",3,"NO ERROR",7,100,1018.36,0,0,0],
    [6634,363171,"Vazduh","Libelium","0004A30B0021DF70",44.979,16.7091,"","","Prijedor","",29570465,"2024-12-16T12:35:01",3,"NO ERROR",9.13,100,1017.65,0.02,0.06,0.07],
    [6635,363171,"Vazduh","Libelium","0004A30B0021DF70",44.979,16.7091,"","","Prijedor","",29571250,"2024-12-16T13:35:56",3,"NO ERROR",9.24,100,1016.96,0,0.04,0.06],
    [6636,363171,"Vazduh","Libelium","0004A30B0021DF70",44.979,16.7091,"","","Prijedor","",29572072,"2024-12-16T14:36:44",3,"NO ERROR",10.03,100,1016.68,0.25,0.28,0.28],
    [6637,363171,"Vazduh","Libelium","0004A30B0021DF70",44.979,16.7091,"","","Prijedor","",29572847,"2024-12-16T15:37:26",3,"NO ERROR",8.59,100,1016.35,0.55,0.93,0.99],
    [6638,363171,"Vazduh","Libelium","0004A30B0021DF70",44.979,16.7091,"","","Prijedor","",29573584,"2024-12-16T16:38:14",3,"NO ERROR",6.55,100,1016.5,0.16,0.24,0.24],
    [6639,363171,"Vazduh","Libelium","0004A30B0021DF70",44.979,16.7091,"","","Prijedor","",29574286,"2024-12-16T17:38:56",3,"NO ERROR",5.06,100,1016.58,0.33,0.48,0.5],
    [6640,363171,"Vazduh","Libelium","0004A30B0021DF70",44.979,16.7091,"","","Prijedor","",29574932,"2024-12-16T18:39:38",3,"NO ERROR",4.19,100,1016.65,0.22,0.32,0.33],
    [6641,363171,"Vazduh","Libelium","0004A30B0021DF70",44.979,16.7091,"","","Prijedor","",29575634,"2024-12-16T19:40:20",3,"NO ERROR",3.12,100,1017.01,0.1,0.12,0.12],
    [6642,363171,"Vazduh","Libelium","0004A30B0021DF70",44.979,16.7091,"","","Prijedor","",29576438,"2024-12-16T20:41:02",3,"NO ERROR",2.07,100,1016.77,0.7,0.81,0.81],
    [6643,363171,"Vazduh","Libelium","0004A30B0021DF70",44.979,16.7091,"","","Prijedor","",29577160,"2024-12-16T21:41:44",3,"NO ERROR",1.97,100,1016.41,0.32,0.38,0.38],
    [6644,363171,"Vazduh","Libelium","0004A30B0021DF70",44.979,16.7091,"","","Prijedor","",29577907,"2024-12-16T22:42:26",3,"NO ERROR",0.69,100,1016.19,0.3,0.32,0.32],
    [6645,363171,"Vazduh","Libelium","0004A30B0021DF70",44.979,16.7091,"","","Prijedor","",29578537,"2024-12-16T23:43:08",3,"NO ERROR",-0.13,100,1015.78,0.97,3.13,6.9],
    [6646,363171,"Vazduh","Libelium","0004A30B0021DF70",44.979,16.7091,"","","Prijedor","",29579197,"2024-12-17T00:43:50",3,"NO ERROR",-0.02,100,1015.12,1.23,1.48,1.49],
    [6647,363171,"Vazduh","Libelium","0004A30B0021DF70",44.979,16.7091,"","","Prijedor","",29579911,"2024-12-17T01:44:32",3,"NO ERROR",-0.51,100,1015.02,9.12,24.02,238.72],
    [6648,363171,"Vazduh","Libelium","0004A30B0021DF70",44.979,16.7091,"","","Prijedor","",29580610,"2024-12-17T02:45:14",3,"NO ERROR",-0.67,100,1014.87,6.78,12.84,115.24],
    [6649,363171,"Vazduh","Libelium","0004A30B0021DF70",44.979,16.7091,"","","Prijedor","",29581301,"2024-12-17T03:46:03",3,"NO ERROR",-0.8,100,1014.35,7.42,28.82,224.1],
    [6650,363171,"Vazduh","Libelium","0004A30B0021DF70",44.979,16.7091,"","","Prijedor","",29582041,"2024-12-17T04:46:45",3,"NO ERROR",-0.77,100,1014.15,6.44,11.8,96.88],
    [6651,363171,"Vazduh","Libelium","0004A30B0021DF70",44.979,16.7091,"","","Prijedor","",29582815,"2024-12-17T05:47:27",3,"NO ERROR",-0.77,100,1014.14,7.49,19.87,273.95],
    [6652,363171,"Vazduh","Libelium","0004A30B0021DF70",44.979,16.7091,"","","Prijedor","",29583521,"2024-12-17T06:48:09",3,"NO ERROR",-0.92,100,1014.22,3.1,11.73,74.6],
    [6653,363171,"Vazduh","Libelium","0004A30B0021DF70",44.979,16.7091,"","","Prijedor","",29584237,"2024-12-17T07:48:51",3,"NO ERROR",-0.54,100,1014.44,3.22,11.17,102.12],
    [6654,363171,"Vazduh","Libelium","0004A30B0021DF70",44.979,16.7091,"","","Prijedor","",29584938,"2024-12-17T08:49:33",3,"NO ERROR",-0.21,100,1014.92,5.99,22.09,157.33],
    [6655,363171,"Vazduh","Libelium","0004A30B0021DF70",44.979,16.7091,"","","Prijedor","",29585609,"2024-12-17T09:50:15",3,"NO ERROR",0.81,100,1014.88,2.86,7.36,94.04],
    [6656,363171,"Vazduh","Libelium","0004A30B0021DF70",44.979,16.7091,"","","Prijedor","",29586311,"2024-12-17T10:50:57",3,"NO ERROR",3.07,100,1014.02,0.38,0.47,0.47],
    [6657,363171,"Vazduh","Libelium","0004A30B0021DF70",44.979,16.7091,"","","Prijedor","",29587063,"2024-12-17T11:51:39",3,"NO ERROR",4.82,100,1013.42,0.1,0.1,0.1],
    [6658,363171,"Vazduh","Libelium","0004A30B0021DF70",44.979,16.7091,"","","Prijedor","",29587802,"2024-12-17T12:52:28",3,"NO ERROR",7.87,100,1012.25,0.13,0.18,0.19],
    [6659,363171,"Vazduh","Libelium","0004A30B0021DF70",44.979,16.7091,"","","Prijedor","",29588568,"2024-12-17T13:53:09",3,"NO ERROR",10.94,100,1012.19,0.12,0.14,0.14],
    [6660,363171,"Vazduh","Libelium","0004A30B0021DF70",44.979,16.7091,"","","Prijedor","",29589382,"2024-12-17T14:53:52",3,"NO ERROR",13.99,85,1012.4,0.09,0.12,0.12],
    [6661,363171,"Vazduh","Libelium","0004A30B0021DF70",44.979,16.7091,"","","Prijedor","",29590103,"2024-12-17T15:54:34",3,"NO ERROR",10.33,100,1012.52,0.45,0.62,0.63],
    [6662,363171,"Vazduh","Libelium","0004A30B0021DF70",44.979,16.7091,"","","Prijedor","",29590861,"2024-12-17T16:55:16",3,"NO ERROR",7.65,100,1013.01,1.38,2.05,2.26],
    [6663,363171,"Vazduh","Libelium","0004A30B0021DF70",44.979,16.7091,"","","Prijedor","",29591644,"2024-12-17T17:55:58",3,"NO ERROR",6.25,100,1013.29,1.06,1.53,1.57],
    [6664,363171,"Vazduh","Libelium","0004A30B0021DF70",44.979,16.7091,"","","Prijedor","",29592323,"2024-12-17T18:56:40",3,"NO ERROR",5.09,100,1013.93,0.63,0.81,0.81],
    [6665,363171,"Vazduh","Libelium","0004A30B0021DF70",44.979,16.7091,"","","Prijedor","",29593089,"2024-12-17T19:57:22",3,"NO ERROR",3.67,100,1014.29,0.74,0.84,0.84],
    [6666,363171,"Vazduh","Libelium","0004A30B0021DF70",44.979,16.7091,"","","Prijedor","",29593915,"2024-12-17T20:58:04",3,"NO ERROR",2.86,100,1014.66,0.31,0.4,0.4],
    [6667,363171,"Vazduh","Libelium","0004A30B0021DF70",44.979,16.7091,"","","Prijedor","",29594648,"2024-12-17T21:58:52",3,"NO ERROR",2.16,100,1014.61,0.25,0.28,0.28],
    [6668,363171,"Vazduh","Libelium","0004A30B0021DF70",44.979,16.7091,"","","Prijedor","",29595448,"2024-12-17T22:59:34",3,"NO ERROR",1.25,100,1014.55,0.2,0.22,0.22],
    [6669,363171,"Vazduh","Libelium","0004A30B0021DF70",44.979,16.7091,"","","Prijedor","",29596147,"2024-12-18T00:00:16",3,"NO ERROR",0.13,100,1014.41,8,20.6,64.22],
    [6670,363171,"Vazduh","Libelium","0004A30B0021DF70",44.979,16.7091,"","","Prijedor","",29596825,"2024-12-18T01:00:58",3,"NO ERROR",-0.57,100,1014.15,0.2,0.25,0.25],
    [6671,363171,"Vazduh","Libelium","0004A30B0021DF70",44.979,16.7091,"","","Prijedor","",29597544,"2024-12-18T02:01:40",3,"NO ERROR",-0.93,100,1014.05,0.07,0.07,0.07],
    [6672,363171,"Vazduh","Libelium","0004A30B0021DF70",44.979,16.7091,"","","Prijedor","",29598225,"2024-12-18T03:02:22",3,"NO ERROR",-0.85,100,1013.74,0.31,0.33,0.33],
    [6673,363171,"Vazduh","Libelium","0004A30B0021DF70",44.979,16.7091,"","","Prijedor","",29598924,"2024-12-18T04:03:05",3,"NO ERROR",-1.12,100,1013.35,0.06,0.08,0.08],
    [6674,363171,"Vazduh","Libelium","0004A30B0021DF70",44.979,16.7091,"","","Prijedor","",29599748,"2024-12-18T05:03:47",3,"NO ERROR",-0.44,100,1012.96,7.57,21.99,253.34],
    [6675,363171,"Vazduh","Libelium","0004A30B0021DF70",44.979,16.7091,"","","Prijedor","",29600507,"2024-12-18T06:04:41",3,"NO ERROR",-0.93,100,1012.7,0.43,0.63,0.65],
    [6676,363171,"Vazduh","Libelium","0004A30B0021DF70",44.979,16.7091,"","","Prijedor","",29601206,"2024-12-18T07:05:23",3,"NO ERROR",-0.8,100,1012.36,0.45,0.51,0.51],
    [6677,363171,"Vazduh","Libelium","0004A30B0021DF70",44.979,16.7091,"","","Prijedor","",29601919,"2024-12-18T08:06:05",3,"NO ERROR",-1.06,100,1012.4,11.36,29.81,147.17],
    [6678,363171,"Vazduh","Libelium","0004A30B0021DF70",44.979,16.7091,"","","Prijedor","",29602584,"2024-12-18T09:06:47",3,"NO ERROR",-0.61,100,1012.25,2.58,4.45,15.06],
    [6679,363171,"Vazduh","Libelium","0004A30B0021DF70",44.979,16.7091,"","","Prijedor","",29603272,"2024-12-18T10:07:29",3,"NO ERROR",1.2,100,1011.96,1.14,1.33,1.34],
    [6680,363171,"Vazduh","Libelium","0004A30B0021DF70",44.979,16.7091,"","","Prijedor","",29604030,"2024-12-18T11:08:11",3,"NO ERROR",2.07,100,1011.46,0.35,0.38,0.38],
    [6681,363171,"Vazduh","Libelium","0004A30B0021DF70",44.979,16.7091,"","","Prijedor","",29604729,"2024-12-18T12:08:53",3,"NO ERROR",4.94,100,1010.66,0.11,0.13,0.13],
    [6682,363171,"Vazduh","Libelium","0004A30B0021DF70",44.979,16.7091,"","","Prijedor","",29605459,"2024-12-18T13:09:35",3,"NO ERROR",7.32,100,1009.65,0.19,0.24,0.24],
    [6683,363171,"Vazduh","Libelium","0004A30B0021DF70",44.979,16.7091,"","","Prijedor","",29606245,"2024-12-18T14:10:17",3,"NO ERROR",7.55,100,1009,0.19,0.29,0.31],
    [6684,363171,"Vazduh","Libelium","0004A30B0021DF70",44.979,16.7091,"","","Prijedor","",29606981,"2024-12-18T15:10:59",3,"NO ERROR",6.46,100,1008.69,0.14,0.16,0.16],
    [6685,363171,"Vazduh","Libelium","0004A30B0021DF70",44.979,16.7091,"","","Prijedor","",29607636,"2024-12-18T16:11:42",3,"NO ERROR",5.33,100,1008.42,0.5,0.77,0.78],
    [6686,363171,"Vazduh","Libelium","0004A30B0021DF70",44.979,16.7091,"","","Prijedor","",29608355,"2024-12-18T17:12:24",3,"NO ERROR",4.2,100,1008.65,0.87,1.14,1.15],
    [6687,363171,"Vazduh","Libelium","0004A30B0021DF70",44.979,16.7091,"","","Prijedor","",29609078,"2024-12-18T18:13:06",3,"NO ERROR",3.43,100,1008.7,0.9,1.3,1.5],
    [6688,363171,"Vazduh","Libelium","0004A30B0021DF70",44.979,16.7091,"","","Prijedor","",29609720,"2024-12-18T19:13:48",3,"NO ERROR",2.06,100,1008.69,0.81,1.02,1.03],
    [6689,363171,"Vazduh","Libelium","0004A30B0021DF70",44.979,16.7091,"","","Prijedor","",29610490,"2024-12-18T20:14:30",3,"NO ERROR",1.55,100,1008.59,0.34,0.41,0.41],
    [6690,363171,"Vazduh","Libelium","0004A30B0021DF70",44.979,16.7091,"","","Prijedor","",29611270,"2024-12-18T21:15:12",3,"NO ERROR",0.54,100,1008.49,1.27,1.42,1.43],
    [6691,363171,"Vazduh","Libelium","0004A30B0021DF70",44.979,16.7091,"","","Prijedor","",29612006,"2024-12-18T22:15:54",3,"NO ERROR",-0.32,100,1008.17,44.86,76.7,203.18],
    [6692,363171,"Vazduh","Libelium","0004A30B0021DF70",44.979,16.7091,"","","Prijedor","",29612759,"2024-12-18T23:16:36",3,"NO ERROR",-0.4,100,1007.77,38.69,57.23,173.21],
    [6693,363171,"Vazduh","Libelium","0004A30B0021DF70",44.979,16.7091,"","","Prijedor","",29613419,"2024-12-19T00:17:18",3,"NO ERROR",-0.96,100,1007.6,41.81,86.81,577.73],
    [6694,363171,"Vazduh","Libelium","0004A30B0021DF70",44.979,16.7091,"","","Prijedor","",29614040,"2024-12-19T01:18:00",3,"NO ERROR",-0.65,100,1007.24,6.6,17.33,226.05],
    [6695,363171,"Vazduh","Libelium","0004A30B0021DF70",44.979,16.7091,"","","Prijedor","",29614782,"2024-12-19T02:18:42",3,"NO ERROR",-0.7,100,1006.81,31.25,58.36,645.49],
    [6696,363171,"Vazduh","Libelium","0004A30B0021DF70",44.979,16.7091,"","","Prijedor","",29615423,"2024-12-19T03:19:25",3,"NO ERROR",-1.1,100,1006.28,4.64,26.71,128.49],
    [6697,363171,"Vazduh","Libelium","0004A30B0021DF70",44.979,16.7091,"","","Prijedor","",29616091,"2024-12-19T04:20:07",3,"NO ERROR",-1.74,100,1005.28,5.35,24.48,147.39],
    [6698,363171,"Vazduh","Libelium","0004A30B0021DF70",44.979,16.7091,"","","Prijedor","",29616885,"2024-12-19T05:20:49",3,"NO ERROR",-1.79,100,1004.64,3.55,23,311.89],
    [6699,363171,"Vazduh","Libelium","0004A30B0021DF70",44.979,16.7091,"","","Prijedor","",29617608,"2024-12-19T06:21:31",3,"NO ERROR",-1.8,100,1003.93,6.51,35.63,228.45],
    [6700,363171,"Vazduh","Libelium","0004A30B0021DF70",44.979,16.7091,"","","Prijedor","",29618318,"2024-12-19T07:22:13",3,"NO ERROR",-1.68,100,1003.86,4.01,17.93,135.16],
    [6701,363171,"Vazduh","Libelium","0004A30B0021DF70",44.979,16.7091,"","","Prijedor","",29619048,"2024-12-19T08:22:55",3,"NO ERROR",-1.54,100,1003.88,8.27,28.08,172.84],
    [6702,363171,"Vazduh","Libelium","0004A30B0021DF70",44.979,16.7091,"","","Prijedor","",29619680,"2024-12-19T09:23:43",3,"NO ERROR",-1.2,100,1003.39,1.76,7.12,97.62],
    [6703,363171,"Vazduh","Libelium","0004A30B0021DF70",44.979,16.7091,"","","Prijedor","",29620339,"2024-12-19T10:24:37",3,"NO ERROR",-0.63,100,1002.6,0.98,2.9,20.43],
    [6704,363171,"Vazduh","Libelium","0004A30B0021DF70",44.979,16.7091,"","","Prijedor","",29621065,"2024-12-19T11:25:19",3,"NO ERROR",0.92,100,1001.02,0.31,0.44,0.45],
    [6705,363171,"Vazduh","Libelium","0004A30B0021DF70",44.979,16.7091,"","","Prijedor","",29621782,"2024-12-19T12:26:01",3,"NO ERROR",4.5,100,999.22,0.04,0.09,0.09],
    [6706,363171,"Vazduh","Libelium","0004A30B0021DF70",44.979,16.7091,"","","Prijedor","",29622502,"2024-12-19T13:26:43",3,"NO ERROR",6.27,100,997.84,0.18,0.21,0.21],
    [6707,363171,"Vazduh","Libelium","0004A30B0021DF70",44.979,16.7091,"","","Prijedor","",29623321,"2024-12-19T14:27:25",3,"NO ERROR",9.37,100,996.56,0.02,0.14,0.46],
    [6708,363171,"Vazduh","Libelium","0004A30B0021DF70",44.979,16.7091,"","","Prijedor","",29624067,"2024-12-19T15:28:08",3,"NO ERROR",7.92,100,995.75,0.04,0.07,0.07],
    [6709,363171,"Vazduh","Libelium","0004A30B0021DF70",44.979,16.7091,"","","Prijedor","",29624826,"2024-12-19T16:28:50",3,"NO ERROR",5.93,100,995.3,0.43,0.59,0.59],
    [6710,363171,"Vazduh","Libelium","0004A30B0021DF70",44.979,16.7091,"","","Prijedor","",29625609,"2024-12-19T17:29:32",3,"NO ERROR",5.99,100,994.74,0.12,0.14,0.14],
    [6711,363171,"Vazduh","Libelium","0004A30B0021DF70",44.979,16.7091,"","","Prijedor","",29626281,"2024-12-19T18:30:14",3,"NO ERROR",5.76,100,993.81,0.06,0.12,0.13],
    [6712,363171,"Vazduh","Libelium","0004A30B0021DF70",44.979,16.7091,"","","Prijedor","",29626922,"2024-12-19T19:30:56",3,"NO ERROR",5.57,100,993.15,0.07,0.11,0.13],
    [6713,363171,"Vazduh","Libelium","0004A30B0021DF70",44.979,16.7091,"","","Prijedor","",29627757,"2024-12-19T20:31:38",3,"NO ERROR",4.92,100,992.89,0.03,0.03,0.03],
    [6714,363171,"Vazduh","Libelium","0004A30B0021DF70",44.979,16.7091,"","","Prijedor","",29628487,"2024-12-19T21:32:20",3,"NO ERROR",6.19,100,992.27,0.62,0.74,0.74],
    [6715,363171,"Vazduh","Libelium","0004A30B0021DF70",44.979,16.7091,"","","Prijedor","",29629187,"2024-12-19T22:33:02",3,"NO ERROR",7.69,100,991.93,0,0,0],
    [6716,363171,"Vazduh","Libelium","0004A30B0021DF70",44.979,16.7091,"","","Prijedor","",29629942,"2024-12-19T23:33:44",3,"NO ERROR",9.32,100,990.79,0,0,0],
    [6717,363171,"Vazduh","Libelium","0004A30B0021DF70",44.979,16.7091,"","","Prijedor","",29630635,"2024-12-20T00:34:26",3,"NO ERROR",9.84,100,990.44,0,0,0],
    [6718,363171,"Vazduh","Libelium","0004A30B0021DF70",44.979,16.7091,"","","Prijedor","",29631299,"2024-12-20T01:35:08",3,"NO ERROR",10,100,989.74,0.02,0.02,0.02],
    [6719,363171,"Vazduh","Libelium","0004A30B0021DF70",44.979,16.7091,"","","Prijedor","",29631983,"2024-12-20T02:35:50",3,"NO ERROR",10.25,100,989.44,0.06,0.08,0.08],
    [6720,363171,"Vazduh","Libelium","0004A30B0021DF70",44.979,16.7091,"","","Prijedor","",29632616,"2024-12-20T03:36:32",3,"NO ERROR",10.38,100,989.05,0.16,0.18,0.18],
    [6721,363171,"Vazduh","Libelium","0004A30B0021DF70",44.979,16.7091,"","","Prijedor","",29633393,"2024-12-20T04:37:15",3,"NO ERROR",10.01,100,988.28,0.03,0.05,0.05],
    [6722,363171,"Vazduh","Libelium","0004A30B0021DF70",44.979,16.7091,"","","Prijedor","",29634232,"2024-12-20T05:37:57",3,"NO ERROR",9.99,100,987.86,0.03,0.03,0.03],
    [6723,363171,"Vazduh","Libelium","0004A30B0021DF70",44.979,16.7091,"","","Prijedor","",29635040,"2024-12-20T06:38:45",3,"NO ERROR",8.23,100,988.89,0.02,0.02,0.02],
    [6724,363171,"Vazduh","Libelium","0004A30B0021DF70",44.979,16.7091,"","","Prijedor","",29635761,"2024-12-20T07:39:33",3,"NO ERROR",6.78,100,990.88,0,0,0],
    [6725,363171,"Vazduh","Libelium","0004A30B0021DF70",44.979,16.7091,"","","Prijedor","",29636496,"2024-12-20T08:40:15",3,"NO ERROR",5.9,100,993.13,0.03,0.06,0.06],
    [6726,363171,"Vazduh","Libelium","0004A30B0021DF70",44.979,16.7091,"","","Prijedor","",29637174,"2024-12-20T09:40:57",3,"NO ERROR",5.37,100,994.95,0,0,0],
    [6727,363171,"Vazduh","Libelium","0004A30B0021DF70",44.979,16.7091,"","","Prijedor","",29637892,"2024-12-20T10:41:39",3,"NO ERROR",5.25,100,995.56,0,0,0],
    [6728,363171,"Vazduh","Libelium","0004A30B0021DF70",44.979,16.7091,"","","Prijedor","",29638569,"2024-12-20T11:42:21",3,"NO ERROR",4.6,100,996.19,0.13,0.18,0.19],
    [6729,363171,"Vazduh","Libelium","0004A30B0021DF70",44.979,16.7091,"","","Prijedor","",29639185,"2024-12-20T12:43:03",3,"NO ERROR",4.67,100,996.99,0,0,0],
    [6730,363171,"Vazduh","Libelium","0004A30B0021DF70",44.979,16.7091,"","","Prijedor","",29639939,"2024-12-20T13:43:45",3,"NO ERROR",5.59,100,997.98,0.12,0.13,0.13],
    [6731,363171,"Vazduh","Libelium","0004A30B0021DF70",44.979,16.7091,"","","Prijedor","",29640677,"2024-12-20T14:44:33",3,"NO ERROR",4.51,100,998.52,0.07,0.09,0.09],
    [6732,363171,"Vazduh","Libelium","0004A30B0021DF70",44.979,16.7091,"","","Prijedor","",29641351,"2024-12-20T15:45:15",3,"NO ERROR",4.1,100,999.27,0.07,0.17,0.19],
    [6733,363171,"Vazduh","Libelium","0004A30B0021DF70",44.979,16.7091,"","","Prijedor","",29642019,"2024-12-20T16:45:57",3,"NO ERROR",4.43,100,999.73,0.31,0.43,0.44],
    [6734,363171,"Vazduh","Libelium","0004A30B0021DF70",44.979,16.7091,"","","Prijedor","",29642705,"2024-12-20T17:46:40",3,"NO ERROR",5.84,100,1000.27,0.02,0.02,0.02],
    [6735,363171,"Vazduh","Libelium","0004A30B0021DF70",44.979,16.7091,"","","Prijedor","",29643357,"2024-12-20T18:47:22",3,"NO ERROR",6.22,100,1001.17,0.03,0.03,0.03],
    [6736,363171,"Vazduh","Libelium","0004A30B0021DF70",44.979,16.7091,"","","Prijedor","",29644048,"2024-12-20T19:48:04",3,"NO ERROR",5.99,100,1002.12,0,0,0],
    [6737,363171,"Vazduh","Libelium","0004A30B0021DF70",44.979,16.7091,"","","Prijedor","",29644776,"2024-12-20T20:48:52",3,"NO ERROR",5.24,100,1003.51,0.02,0.02,0.02],
    [6738,363171,"Vazduh","Libelium","0004A30B0021DF70",44.979,16.7091,"","","Prijedor","",29645439,"2024-12-20T21:49:34",3,"NO ERROR",5.05,100,1003.74,0.06,0.08,0.08],
    [6739,363171,"Vazduh","Libelium","0004A30B0021DF70",44.979,16.7091,"","","Prijedor","",29646190,"2024-12-20T22:50:16",3,"NO ERROR",4.61,100,1004.08,0.09,0.1,0.1],
    [6740,363171,"Vazduh","Libelium","0004A30B0021DF70",44.979,16.7091,"","","Prijedor","",29646864,"2024-12-20T23:50:58",3,"NO ERROR",4.5,100,1004.58,0.23,0.4,0.44],
    [6741,363171,"Vazduh","Libelium","0004A30B0021DF70",44.979,16.7091,"","","Prijedor","",29647525,"2024-12-21T00:51:40",3,"NO ERROR",5.38,100,1005.2,0.02,0.02,0.02],
    [6742,363171,"Vazduh","Libelium","0004A30B0021DF70",44.979,16.7091,"","","Prijedor","",29648200,"2024-12-21T01:52:22",3,"NO ERROR",5.37,95.8,1005.51,0.06,0.06,0.06],
    [6743,363171,"Vazduh","Libelium","0004A30B0021DF70",44.979,16.7091,"","","Prijedor","",29648889,"2024-12-21T02:53:04",3,"NO ERROR",5.15,95.6,1005.96,0.06,0.06,0.06],
    [6744,363171,"Vazduh","Libelium","0004A30B0021DF70",44.979,16.7091,"","","Prijedor","",29649552,"2024-12-21T03:53:46",3,"NO ERROR",5.15,89.4,1006.44,0.19,0.2,0.2],
    [6745,363171,"Vazduh","Libelium","0004A30B0021DF70",44.979,16.7091,"","","Prijedor","",29650329,"2024-12-21T04:54:28",3,"NO ERROR",3.99,96.3,1006.72,0.09,0.14,0.14],
    [6746,363171,"Vazduh","Libelium","0004A30B0021DF70",44.979,16.7091,"","","Prijedor","",29651104,"2024-12-21T05:55:10",3,"NO ERROR",3.02,100,1007.37,0.15,0.16,0.16],
    [6747,363171,"Vazduh","Libelium","0004A30B0021DF70",44.979,16.7091,"","","Prijedor","",29651819,"2024-12-21T06:55:53",3,"NO ERROR",1.92,100,1007.76,0.42,0.46,0.46],
    [6748,363171,"Vazduh","Libelium","0004A30B0021DF70",44.979,16.7091,"","","Prijedor","",29652471,"2024-12-21T07:56:35",3,"NO ERROR",2.05,100,1008.22,0.1,0.11,0.11],
    [6749,363171,"Vazduh","Libelium","0004A30B0021DF70",44.979,16.7091,"","","Prijedor","",29653106,"2024-12-21T08:57:17",3,"NO ERROR",3.15,100,1008.65,0.05,0.08,0.08],
    [6750,363171,"Vazduh","Libelium","0004A30B0021DF70",44.979,16.7091,"","","Prijedor","",29653784,"2024-12-21T09:57:59",3,"NO ERROR",5.99,88.6,1008.89,0.09,0.12,0.12],
    [6751,363171,"Vazduh","Libelium","0004A30B0021DF70",44.979,16.7091,"","","Prijedor","",29654507,"2024-12-21T10:58:47",3,"NO ERROR",5.6,87.9,1008.77,0.02,0.02,0.02],
    [6752,363171,"Vazduh","Libelium","0004A30B0021DF70",44.979,16.7091,"","","Prijedor","",29655156,"2024-12-21T11:59:29",3,"NO ERROR",7.25,75.6,1008.03,0.02,0.02,0.02],
    [6753,363171,"Vazduh","Libelium","0004A30B0021DF70",44.979,16.7091,"","","Prijedor","",29682127,"2024-12-23T02:26:50",3,"NO ERROR",4.04,100,985.33,0,0,0],
    [6754,363171,"Vazduh","Libelium","0004A30B0021DF70",44.979,16.7091,"","","Prijedor","",29682832,"2024-12-23T03:27:32",3,"NO ERROR",2.67,100,985.26,0,0,0],
    [6755,363171,"Vazduh","Libelium","0004A30B0021DF70",44.979,16.7091,"","","Prijedor","",29683539,"2024-12-23T04:28:14",3,"NO ERROR",0.44,100,986.41,0.79,2.27,6.87],
    [6756,363171,"Vazduh","Libelium","0004A30B0021DF70",44.979,16.7091,"","","Prijedor","",29684292,"2024-12-23T05:28:56",3,"NO ERROR",0.39,100,986.54,0.07,0.2,0.23],
    [6757,363171,"Vazduh","Libelium","0004A30B0021DF70",44.979,16.7091,"","","Prijedor","",29685002,"2024-12-23T06:29:38",3,"NO ERROR",0.48,100,986.76,0.03,0.11,0.18],
    [6758,363171,"Vazduh","Libelium","0004A30B0021DF70",44.979,16.7091,"","","Prijedor","",29685742,"2024-12-23T07:30:27",3,"NO ERROR",1.08,100,987.4,0,0,0],
    [6759,363171,"Vazduh","Libelium","0004A30B0021DF70",44.979,16.7091,"","","Prijedor","",29686431,"2024-12-23T08:31:09",3,"NO ERROR",0.92,100,987.51,0.24,0.4,0.4],
    [6760,363171,"Vazduh","Libelium","0004A30B0021DF70",44.979,16.7091,"","","Prijedor","",29687083,"2024-12-23T09:31:51",3,"NO ERROR",1.17,100,987.95,0,0,0],
    [6761,363171,"Vazduh","Libelium","0004A30B0021DF70",44.979,16.7091,"","","Prijedor","",29687727,"2024-12-23T10:32:33",3,"NO ERROR",1.02,100,987.87,0.03,0.05,0.05],
    [6762,363171,"Vazduh","Libelium","0004A30B0021DF70",44.979,16.7091,"","","Prijedor","",29688352,"2024-12-23T11:33:15",3,"NO ERROR",0.98,100,987.66,0,0,0],
    [6763,363171,"Vazduh","Libelium","0004A30B0021DF70",44.979,16.7091,"","","Prijedor","",29689900,"2024-12-23T13:34:51",3,"NO ERROR",1.11,100,987.31,0,0,0],
    [6764,363171,"Vazduh","Libelium","0004A30B0021DF70",44.979,16.7091,"","","Prijedor","",29690641,"2024-12-23T14:35:39",3,"NO ERROR",0.92,100,987.37,0.2,0.22,0.22],
    [6765,363171,"Vazduh","Libelium","0004A30B0021DF70",44.979,16.7091,"","","Prijedor","",29691347,"2024-12-23T15:36:21",3,"NO ERROR",0.8,100,988.04,0.09,0.1,0.1],
    [6766,363171,"Vazduh","Libelium","0004A30B0021DF70",44.979,16.7091,"","","Prijedor","",29692079,"2024-12-23T16:37:03",3,"NO ERROR",0.51,100,988.85,0.09,0.13,0.14],
    [6767,363171,"Vazduh","Libelium","0004A30B0021DF70",44.979,16.7091,"","","Prijedor","",29692757,"2024-12-23T17:37:46",3,"NO ERROR",0.57,100,989.75,0.21,0.5,0.72],
    [6768,363171,"Vazduh","Libelium","0004A30B0021DF70",44.979,16.7091,"","","Prijedor","",29693461,"2024-12-23T18:38:28",3,"NO ERROR",0.66,100,990.72,0.01,0.03,0.03],
    [6769,363171,"Vazduh","Libelium","0004A30B0021DF70",44.979,16.7091,"","","Prijedor","",29694154,"2024-12-23T19:39:22",3,"NO ERROR",0.65,100,991.69,0,0,0],
    [6770,363171,"Vazduh","Libelium","0004A30B0021DF70",44.979,16.7091,"","","Prijedor","",29694890,"2024-12-23T20:40:04",3,"NO ERROR",0.81,100,992.42,0.05,0.05,0.05],
    [6771,363171,"Vazduh","Libelium","0004A30B0021DF70",44.979,16.7091,"","","Prijedor","",29695607,"2024-12-23T21:40:46",3,"NO ERROR",0.84,100,992.99,0.18,0.19,0.19],
    [6772,363171,"Vazduh","Libelium","0004A30B0021DF70",44.979,16.7091,"","","Prijedor","",29696356,"2024-12-23T22:41:28",3,"NO ERROR",0.75,100,993.98,0,0,0],
    [6773,363171,"Vazduh","Libelium","0004A30B0021DF70",44.979,16.7091,"","","Prijedor","",29697019,"2024-12-23T23:42:10",3,"NO ERROR",0.78,100,994.35,0.02,0.02,0.02],
    [6774,363171,"Vazduh","Libelium","0004A30B0021DF70",44.979,16.7091,"","","Prijedor","",29697734,"2024-12-24T00:42:52",3,"NO ERROR",0.71,100,994.56,0.08,0.13,0.14],
    [6775,363171,"Vazduh","Libelium","0004A30B0021DF70",44.979,16.7091,"","","Prijedor","",29698425,"2024-12-24T01:43:34",3,"NO ERROR",0.68,100,994.9,0.05,0.09,0.09],
    [6776,363171,"Vazduh","Libelium","0004A30B0021DF70",44.979,16.7091,"","","Prijedor","",29699107,"2024-12-24T02:44:16",3,"NO ERROR",0.67,100,995.26,0.03,0.04,0.05],
    [6777,363171,"Vazduh","Libelium","0004A30B0021DF70",44.979,16.7091,"","","Prijedor","",29699784,"2024-12-24T03:44:58",3,"NO ERROR",1.04,100,996.06,0.11,0.12,0.12],
    [6778,363171,"Vazduh","Libelium","0004A30B0021DF70",44.979,16.7091,"","","Prijedor","",29700548,"2024-12-24T04:45:47",3,"NO ERROR",1.25,100,996.5,0.39,0.63,0.64],
    [6779,363171,"Vazduh","Libelium","0004A30B0021DF70",44.979,16.7091,"","","Prijedor","",29701261,"2024-12-24T05:46:29",3,"NO ERROR",1.51,100,997,0.39,0.66,0.71],
    [6780,363171,"Vazduh","Libelium","0004A30B0021DF70",44.979,16.7091,"","","Prijedor","",29701980,"2024-12-24T06:47:11",3,"NO ERROR",2.73,100,998.03,0.21,0.23,0.23],
    [6781,363171,"Vazduh","Libelium","0004A30B0021DF70",44.979,16.7091,"","","Prijedor","",29702730,"2024-12-24T07:47:53",3,"NO ERROR",2.38,100,998.95,0.35,0.49,0.49],
    [6782,363171,"Vazduh","Libelium","0004A30B0021DF70",44.979,16.7091,"","","Prijedor","",29703433,"2024-12-24T08:48:35",3,"NO ERROR",2.46,100,999.6,0.05,0.05,0.05],
    [6783,363171,"Vazduh","Libelium","0004A30B0021DF70",44.979,16.7091,"","","Prijedor","",29704074,"2024-12-24T09:49:17",3,"NO ERROR",2.68,100,999.92,0.77,0.9,0.9],
    [6784,363171,"Vazduh","Libelium","0004A30B0021DF70",44.979,16.7091,"","","Prijedor","",29704800,"2024-12-24T10:49:59",3,"NO ERROR",2.92,100,1000.47,0.25,0.27,0.27],
    [6785,363171,"Vazduh","Libelium","0004A30B0021DF70",44.979,16.7091,"","","Prijedor","",29705502,"2024-12-24T11:50:41",3,"NO ERROR",2.41,100,1000.34,0,0,0],
    [6786,363171,"Vazduh","Libelium","0004A30B0021DF70",44.979,16.7091,"","","Prijedor","",29706103,"2024-12-24T12:51:23",3,"NO ERROR",2.46,100,1000.85,0.03,0.03,0.03],
    [6787,363171,"Vazduh","Libelium","0004A30B0021DF70",44.979,16.7091,"","","Prijedor","",29706888,"2024-12-24T13:52:11",3,"NO ERROR",2.34,100,1001.12,0.1,0.12,0.12],
    [6788,363171,"Vazduh","Libelium","0004A30B0021DF70",44.979,16.7091,"","","Prijedor","",29707616,"2024-12-24T14:52:53",3,"NO ERROR",2.46,100,1001.59,0.1,0.13,0.13],
    [6789,363171,"Vazduh","Libelium","0004A30B0021DF70",44.979,16.7091,"","","Prijedor","",29708287,"2024-12-24T15:53:35",3,"NO ERROR",2.36,100,1002.28,0.09,0.15,0.17],
    [6790,363171,"Vazduh","Libelium","0004A30B0021DF70",44.979,16.7091,"","","Prijedor","",29709001,"2024-12-24T16:54:18",3,"NO ERROR",2.67,100,1002.99,0.32,0.47,0.47],
    [6791,363171,"Vazduh","Libelium","0004A30B0021DF70",44.979,16.7091,"","","Prijedor","",29709684,"2024-12-24T17:55:00",3,"NO ERROR",4.32,100,1004.05,0,0,0],
    [6792,363171,"Vazduh","Libelium","0004A30B0021DF70",44.979,16.7091,"","","Prijedor","",29710329,"2024-12-24T18:55:48",3,"NO ERROR",3.04,100,1005.17,0.05,0.06,0.06],
    [6793,363171,"Vazduh","Libelium","0004A30B0021DF70",44.979,16.7091,"","","Prijedor","",29711045,"2024-12-24T19:56:30",3,"NO ERROR",2.36,100,1006.17,0.25,0.39,0.39],
    [6794,363171,"Vazduh","Libelium","0004A30B0021DF70",44.979,16.7091,"","","Prijedor","",29711631,"2024-12-24T20:57:12",3,"NO ERROR",2.07,100,1007.33,0.2,0.29,0.29],
    [6795,363171,"Vazduh","Libelium","0004A30B0021DF70",44.979,16.7091,"","","Prijedor","",29712405,"2024-12-24T21:57:54",3,"NO ERROR",1.97,100,1008.07,0.43,0.49,0.5],
    [6796,363171,"Vazduh","Libelium","0004A30B0021DF70",44.979,16.7091,"","","Prijedor","",29713135,"2024-12-24T22:58:36",3,"NO ERROR",2.59,100,1009.06,0.05,0.08,0.08],
    [6797,363171,"Vazduh","Libelium","0004A30B0021DF70",44.979,16.7091,"","","Prijedor","",29713844,"2024-12-24T23:59:18",3,"NO ERROR",2.5,100,1009.48,0.02,0.02,0.02],
    [6798,363171,"Vazduh","Libelium","0004A30B0021DF70",44.979,16.7091,"","","Prijedor","",29714534,"2024-12-25T01:00:00",3,"NO ERROR",2.4,100,1010.12,0,0,0],
    [6799,363171,"Vazduh","Libelium","0004A30B0021DF70",44.979,16.7091,"","","Prijedor","",29715253,"2024-12-25T02:00:42",3,"NO ERROR",2.49,100,1011.3,0.02,0.02,0.02],
    [6800,363171,"Vazduh","Libelium","0004A30B0021DF70",44.979,16.7091,"","","Prijedor","",29715892,"2024-12-25T03:01:24",3,"NO ERROR",2.53,100,1012.01,0.02,0.02,0.02],
    [6801,363171,"Vazduh","Libelium","0004A30B0021DF70",44.979,16.7091,"","","Prijedor","",29716564,"2024-12-25T04:02:06",3,"NO ERROR",3.03,100,1012.25,0.02,0.02,0.02],
    [6802,363171,"Vazduh","Libelium","0004A30B0021DF70",44.979,16.7091,"","","Prijedor","",29717332,"2024-12-25T05:02:49",3,"NO ERROR",3.29,100,1012.97,0.05,0.08,0.08],
    [6803,363171,"Vazduh","Libelium","0004A30B0021DF70",44.979,16.7091,"","","Prijedor","",29718054,"2024-12-25T06:03:31",3,"NO ERROR",3.31,100,1013.62,0.02,0.02,0.02],
    [6804,363171,"Vazduh","Libelium","0004A30B0021DF70",44.979,16.7091,"","","Prijedor","",29718771,"2024-12-25T07:04:19",3,"NO ERROR",2.99,100,1014.32,0.03,0.03,0.03],
    [6805,363171,"Vazduh","Libelium","0004A30B0021DF70",44.979,16.7091,"","","Prijedor","",29719497,"2024-12-25T08:05:01",3,"NO ERROR",3.07,100,1015.03,0.03,0.03,0.03],
    [6806,363171,"Vazduh","Libelium","0004A30B0021DF70",44.979,16.7091,"","","Prijedor","",29720184,"2024-12-25T09:05:43",3,"NO ERROR",3.15,100,1015.41,0.02,0.02,0.02],
    [6807,363171,"Vazduh","Libelium","0004A30B0021DF70",44.979,16.7091,"","","Prijedor","",29720904,"2024-12-25T10:06:25",3,"NO ERROR",3.73,100,1016.05,0,0,0],
    [6808,363171,"Vazduh","Libelium","0004A30B0021DF70",44.979,16.7091,"","","Prijedor","",29721663,"2024-12-25T11:07:07",3,"NO ERROR",3.92,100,1015.94,0.02,0.02,0.02],
    [6809,363171,"Vazduh","Libelium","0004A30B0021DF70",44.979,16.7091,"","","Prijedor","",29722385,"2024-12-25T12:07:49",3,"NO ERROR",4,100,1015.67,0,0,0],
    [6810,363171,"Vazduh","Libelium","0004A30B0021DF70",44.979,16.7091,"","","Prijedor","",29723114,"2024-12-25T13:08:31",3,"NO ERROR",4.41,100,1015.48,0,0,0],
    [6811,363171,"Vazduh","Libelium","0004A30B0021DF70",44.979,16.7091,"","","Prijedor","",29723915,"2024-12-25T14:09:13",3,"NO ERROR",4.53,100,1015.76,0,0,0],
    [6812,363171,"Vazduh","Libelium","0004A30B0021DF70",44.979,16.7091,"","","Prijedor","",29724644,"2024-12-25T15:09:55",3,"NO ERROR",4.59,100,1016,0.02,0.02,0.02],
    [6813,363171,"Vazduh","Libelium","0004A30B0021DF70",44.979,16.7091,"","","Prijedor","",29725308,"2024-12-25T16:10:37",3,"NO ERROR",4.63,100,1016.41,0,0,0],
    [6814,363171,"Vazduh","Libelium","0004A30B0021DF70",44.979,16.7091,"","","Prijedor","",29725961,"2024-12-25T17:11:26",3,"NO ERROR",4.76,100,1016.95,0.02,0.02,0.02],
    [6815,363171,"Vazduh","Libelium","0004A30B0021DF70",44.979,16.7091,"","","Prijedor","",29726672,"2024-12-25T18:12:08",3,"NO ERROR",4.46,100,1017.47,0,0,0],
    [6816,363171,"Vazduh","Libelium","0004A30B0021DF70",44.979,16.7091,"","","Prijedor","",29727311,"2024-12-25T19:12:50",3,"NO ERROR",4.32,100,1017.89,0.02,0.02,0.02],
    [6817,363171,"Vazduh","Libelium","0004A30B0021DF70",44.979,16.7091,"","","Prijedor","",29728048,"2024-12-25T20:13:32",3,"NO ERROR",3.29,100,1018.05,0.11,0.12,0.12],
    [6818,363171,"Vazduh","Libelium","0004A30B0021DF70",44.979,16.7091,"","","Prijedor","",29728778,"2024-12-25T21:14:14",3,"NO ERROR",2.94,100,1018.4,0.02,0.02,0.02],
    [6819,363171,"Vazduh","Libelium","0004A30B0021DF70",44.979,16.7091,"","","Prijedor","",29729497,"2024-12-25T22:14:56",3,"NO ERROR",2.73,100,1018.62,0,0,0],
    [6820,363171,"Vazduh","Libelium","0004A30B0021DF70",44.979,16.7091,"","","Prijedor","",29730250,"2024-12-25T23:15:50",3,"NO ERROR",2.08,100,1018.57,0.15,0.17,0.17],
    [6821,363171,"Vazduh","Libelium","0004A30B0021DF70",44.979,16.7091,"","","Prijedor","",29730920,"2024-12-26T00:16:32",3,"NO ERROR",1.6,100,1018.82,0,0,0],
    [6822,363171,"Vazduh","Libelium","0004A30B0021DF70",44.979,16.7091,"","","Prijedor","",29731593,"2024-12-26T01:17:14",3,"NO ERROR",1.39,100,1018.6,0.09,0.1,0.1],
    [6823,363171,"Vazduh","Libelium","0004A30B0021DF70",44.979,16.7091,"","","Prijedor","",29732304,"2024-12-26T02:17:56",3,"NO ERROR",0.73,100,1018.94,0.27,0.3,0.3],
    [6824,363171,"Vazduh","Libelium","0004A30B0021DF70",44.979,16.7091,"","","Prijedor","",29732953,"2024-12-26T03:18:45",3,"NO ERROR",0.33,100,1019.38,0.09,0.15,0.17],
    [6825,363171,"Vazduh","Libelium","0004A30B0021DF70",44.979,16.7091,"","","Prijedor","",29733651,"2024-12-26T04:19:27",3,"NO ERROR",-0.51,100,1019.29,0.08,0.11,0.11],
    [6826,363171,"Vazduh","Libelium","0004A30B0021DF70",44.979,16.7091,"","","Prijedor","",29734421,"2024-12-26T05:20:09",3,"NO ERROR",-0.84,100,1019.78,0.02,0.02,0.02],
    [6827,363171,"Vazduh","Libelium","0004A30B0021DF70",44.979,16.7091,"","","Prijedor","",29735124,"2024-12-26T06:20:51",3,"NO ERROR",-1.03,100,1020.31,0.02,0.02,0.02],
    [6828,363171,"Vazduh","Libelium","0004A30B0021DF70",44.979,16.7091,"","","Prijedor","",29735800,"2024-12-26T07:21:33",3,"NO ERROR",-1.55,100,1020.72,0.07,0.07,0.07],
    [6829,363171,"Vazduh","Libelium","0004A30B0021DF70",44.979,16.7091,"","","Prijedor","",29736522,"2024-12-26T08:22:15",3,"NO ERROR",-1.21,100,1021.26,0.22,0.24,0.24],
    [6830,363171,"Vazduh","Libelium","0004A30B0021DF70",44.979,16.7091,"","","Prijedor","",29737154,"2024-12-26T09:22:57",3,"NO ERROR",2.55,100,1021.85,0,0,0],
    [6831,363171,"Vazduh","Libelium","0004A30B0021DF70",44.979,16.7091,"","","Prijedor","",29737833,"2024-12-26T10:23:39",3,"NO ERROR",2.68,100,1021.63,0,0,0],
    [6832,363171,"Vazduh","Libelium","0004A30B0021DF70",44.979,16.7091,"","","Prijedor","",29738555,"2024-12-26T11:24:21",3,"NO ERROR",3.59,100,1021.51,0.02,0.02,0.02],
    [6833,363171,"Vazduh","Libelium","0004A30B0021DF70",44.979,16.7091,"","","Prijedor","",29739288,"2024-12-26T12:25:03",3,"NO ERROR",4.49,98.3,1021.02,0.03,0.06,0.06],
    [6834,363171,"Vazduh","Libelium","0004A30B0021DF70",44.979,16.7091,"","","Prijedor","",29740067,"2024-12-26T13:25:45",3,"NO ERROR",4.91,94.1,1020.68,0,0,0],
    [6835,363171,"Vazduh","Libelium","0004A30B0021DF70",44.979,16.7091,"","","Prijedor","",29740836,"2024-12-26T14:26:27",3,"NO ERROR",6.01,83.7,1020.97,0,0,0],
    [6836,363171,"Vazduh","Libelium","0004A30B0021DF70",44.979,16.7091,"","","Prijedor","",29741598,"2024-12-26T15:27:09",3,"NO ERROR",6.26,84.1,1020.98,0.15,0.17,0.17],
    [6837,363171,"Vazduh","Libelium","0004A30B0021DF70",44.979,16.7091,"","","Prijedor","",29742304,"2024-12-26T16:27:52",3,"NO ERROR",3.12,100,1021.09,0.14,0.16,0.16],
    [6838,363171,"Vazduh","Libelium","0004A30B0021DF70",44.979,16.7091,"","","Prijedor","",29743028,"2024-12-26T17:28:34",3,"NO ERROR",2.15,100,1021.62,0.1,0.13,0.13],
    [6839,363171,"Vazduh","Libelium","0004A30B0021DF70",44.979,16.7091,"","","Prijedor","",29743732,"2024-12-26T18:29:16",3,"NO ERROR",0.45,100,1022.05,0.07,0.08,0.08],
    [6840,363171,"Vazduh","Libelium","0004A30B0021DF70",44.979,16.7091,"","","Prijedor","",29744445,"2024-12-26T19:29:58",3,"NO ERROR",-0.19,100,1022.44,0.05,0.05,0.05],
    [6841,363171,"Vazduh","Libelium","0004A30B0021DF70",44.979,16.7091,"","","Prijedor","",29745215,"2024-12-26T20:30:40",3,"NO ERROR",-0.13,100,1022.69,0.2,0.22,0.22],
    [6842,363171,"Vazduh","Libelium","0004A30B0021DF70",44.979,16.7091,"","","Prijedor","",29745978,"2024-12-26T21:31:22",3,"NO ERROR",0.12,100,1022.83,0.02,0.02,0.02],
    [6843,363171,"Vazduh","Libelium","0004A30B0021DF70",44.979,16.7091,"","","Prijedor","",29746718,"2024-12-26T22:32:04",3,"NO ERROR",-1.06,100,1022.86,0.02,0.02,0.02],
    [6844,363171,"Vazduh","Libelium","0004A30B0021DF70",44.979,16.7091,"","","Prijedor","",29747443,"2024-12-26T23:32:46",3,"NO ERROR",-1.69,100,1022.52,0.42,0.44,0.44],
    [6845,363171,"Vazduh","Libelium","0004A30B0021DF70",44.979,16.7091,"","","Prijedor","",29748108,"2024-12-27T00:33:28",3,"NO ERROR",-1.87,100,1022.36,0.08,0.09,0.09],
    [6846,363171,"Vazduh","Libelium","0004A30B0021DF70",44.979,16.7091,"","","Prijedor","",29748772,"2024-12-27T01:34:10",3,"NO ERROR",-2.66,100,1022.29,0.13,0.14,0.14],
    [6847,363171,"Vazduh","Libelium","0004A30B0021DF70",44.979,16.7091,"","","Prijedor","",29749451,"2024-12-27T02:34:52",3,"NO ERROR",-3,100,1022.03,0.27,0.29,0.29],
    [6848,363171,"Vazduh","Libelium","0004A30B0021DF70",44.979,16.7091,"","","Prijedor","",29750112,"2024-12-27T03:35:41",3,"NO ERROR",-3.37,100,1021.87,0.07,0.07,0.07],
    [6849,363171,"Vazduh","Libelium","0004A30B0021DF70",44.979,16.7091,"","","Prijedor","",29750851,"2024-12-27T04:36:23",3,"NO ERROR",-3.79,100,1021.74,0.07,0.07,0.07],
    [6850,363171,"Vazduh","Libelium","0004A30B0021DF70",44.979,16.7091,"","","Prijedor","",29751560,"2024-12-27T05:37:05",3,"NO ERROR",-4.15,100,1021.96,0.02,0.02,0.02],
    [6851,363171,"Vazduh","Libelium","0004A30B0021DF70",44.979,16.7091,"","","Prijedor","",29752266,"2024-12-27T06:37:47",3,"NO ERROR",-3.77,100,1022.21,0.31,0.44,0.47],
    [6852,363171,"Vazduh","Libelium","0004A30B0021DF70",44.979,16.7091,"","","Prijedor","",29752969,"2024-12-27T07:38:29",3,"NO ERROR",-3.69,100,1022.28,0.61,0.75,0.75],
    [6853,363171,"Vazduh","Libelium","0004A30B0021DF70",44.979,16.7091,"","","Prijedor","",29753673,"2024-12-27T08:39:11",3,"NO ERROR",-3.17,100,1022.38,4.22,8.21,32.32],
    [6854,363171,"Vazduh","Libelium","0004A30B0021DF70",44.979,16.7091,"","","Prijedor","",29754176,"2024-12-27T09:39:53",3,"NO ERROR",-2.38,100,1022.35,12.79,18.55,36.39],
    [6855,363171,"Vazduh","Libelium","0004A30B0021DF70",44.979,16.7091,"","","Prijedor","",29754878,"2024-12-27T10:40:35",3,"NO ERROR",-1.55,100,1021.95,4.5,5.39,5.41],
    [6856,363171,"Vazduh","Libelium","0004A30B0021DF70",44.979,16.7091,"","","Prijedor","",29755586,"2024-12-27T11:41:17",3,"NO ERROR",0.11,100,1021.1,2.7,2.82,2.82],
    [6857,363171,"Vazduh","Libelium","0004A30B0021DF70",44.979,16.7091,"","","Prijedor","",29756332,"2024-12-27T12:41:59",3,"NO ERROR",0.37,100,1020.31,1.78,2.04,2.05],
    [6858,363171,"Vazduh","Libelium","0004A30B0021DF70",44.979,16.7091,"","","Prijedor","",29757121,"2024-12-27T13:42:42",3,"NO ERROR",2.33,100,1019.27,0.6,0.7,0.71],
    [6859,363171,"Vazduh","Libelium","0004A30B0021DF70",44.979,16.7091,"","","Prijedor","",29757859,"2024-12-27T14:43:24",3,"NO ERROR",6.01,100,1018.43,0.09,0.1,0.1],
    [6860,363171,"Vazduh","Libelium","0004A30B0021DF70",44.979,16.7091,"","","Prijedor","",29758556,"2024-12-27T15:44:06",3,"NO ERROR",4.07,100,1018.15,0.29,0.49,0.52],
    [6861,363171,"Vazduh","Libelium","0004A30B0021DF70",44.979,16.7091,"","","Prijedor","",29759271,"2024-12-27T16:44:48",3,"NO ERROR",1.2,100,1017.91,0.24,0.26,0.26],
    [6862,363171,"Vazduh","Libelium","0004A30B0021DF70",44.979,16.7091,"","","Prijedor","",29759900,"2024-12-27T17:45:30",3,"NO ERROR",0.23,100,1018.04,0.7,0.87,0.87],
    [6863,363171,"Vazduh","Libelium","0004A30B0021DF70",44.979,16.7091,"","","Prijedor","",29760591,"2024-12-27T18:46:18",3,"NO ERROR",-0.45,100,1017.99,1.14,1.19,1.19],
    [6864,363171,"Vazduh","Libelium","0004A30B0021DF70",44.979,16.7091,"","","Prijedor","",29761292,"2024-12-27T19:47:53",3,"NO ERROR",-1.27,100,1018.13,0.44,0.59,0.62],
    [6865,363171,"Vazduh","Libelium","0004A30B0021DF70",44.979,16.7091,"","","Prijedor","",29761290,"2024-12-27T19:47:53",3,"NO ERROR",-1.27,100,1018.13,0.44,0.59,0.62],
    [6866,363171,"Vazduh","Libelium","0004A30B0021DF70",44.979,16.7091,"","","Prijedor","",29761219,"2024-12-27T19:47:00",3,"NO ERROR",-1.27,100,1018.13,0.44,0.59,0.62],
    [6867,363171,"Vazduh","Libelium","0004A30B0021DF70",44.979,16.7091,"","","Prijedor","",29762095,"2024-12-27T20:47:42",3,"NO ERROR",-1.72,100,1017.86,0.69,0.77,0.77],
    [6868,363171,"Vazduh","Libelium","0004A30B0021DF70",44.979,16.7091,"","","Prijedor","",29762779,"2024-12-27T21:48:30",3,"NO ERROR",-2.29,100,1017.49,0.88,0.95,0.95],
    [6869,363171,"Vazduh","Libelium","0004A30B0021DF70",44.979,16.7091,"","","Prijedor","",29763516,"2024-12-27T22:49:12",3,"NO ERROR",-2.88,100,1017.49,1.23,1.37,1.37],
    [6870,363171,"Vazduh","Libelium","0004A30B0021DF70",44.979,16.7091,"","","Prijedor","",29764226,"2024-12-27T23:49:54",3,"NO ERROR",-3.39,100,1017.1,0.23,0.24,0.24],
    [6871,363171,"Vazduh","Libelium","0004A30B0021DF70",44.979,16.7091,"","","Prijedor","",29764873,"2024-12-28T00:50:36",3,"NO ERROR",-4.24,100,1016.91,1,1.12,1.12],
    [6872,363171,"Vazduh","Libelium","0004A30B0021DF70",44.979,16.7091,"","","Prijedor","",29765538,"2024-12-28T01:51:19",3,"NO ERROR",-4.69,100,1016.71,0.12,0.14,0.14],
    [6873,363171,"Vazduh","Libelium","0004A30B0021DF70",44.979,16.7091,"","","Prijedor","",29766193,"2024-12-28T02:52:01",3,"NO ERROR",-4.76,100,1016.77,26.36,51.53,171.73],
    [6874,363171,"Vazduh","Libelium","0004A30B0021DF70",44.979,16.7091,"","","Prijedor","",29799142,"2024-12-30T01:24:41",3,"NO ERROR",-3.36,100,1014.94,0.07,0.07,0.07],
    [6875,363171,"Vazduh","Libelium","0004A30B0021DF70",44.979,16.7091,"","","Prijedor","",29799863,"2024-12-30T02:25:23",3,"NO ERROR",-3.34,100,1015.19,0.05,0.05,0.05],
    [6876,363171,"Vazduh","Libelium","0004A30B0021DF70",44.979,16.7091,"","","Prijedor","",29800514,"2024-12-30T03:26:05",3,"NO ERROR",-3.6,100,1015.21,0.32,0.46,0.47],
    [6877,363171,"Vazduh","Libelium","0004A30B0021DF70",44.979,16.7091,"","","Prijedor","",29801245,"2024-12-30T04:26:47",3,"NO ERROR",-3.37,100,1015.18,0.11,0.19,0.22],
    [6878,363171,"Vazduh","Libelium","0004A30B0021DF70",44.979,16.7091,"","","Prijedor","",29801982,"2024-12-30T05:27:29",3,"NO ERROR",-4.06,100,1015.38,17.19,36.09,92.75],
    [6879,363171,"Vazduh","Libelium","0004A30B0021DF70",44.979,16.7091,"","","Prijedor","",29802723,"2024-12-30T06:28:11",3,"NO ERROR",-4.01,100,1015.69,28.4,52.27,184.69],
    [6880,363171,"Vazduh","Libelium","0004A30B0021DF70",44.979,16.7091,"","","Prijedor","",29803446,"2024-12-30T07:28:54",3,"NO ERROR",-4.41,100,1015.98,1.84,6.64,33.87],
    [6881,363171,"Vazduh","Libelium","0004A30B0021DF70",44.979,16.7091,"","","Prijedor","",29804143,"2024-12-30T08:29:36",3,"NO ERROR",-3.83,100,1016.36,10.92,27.45,155.87],
    [6882,363171,"Vazduh","Libelium","0004A30B0021DF70",44.979,16.7091,"","","Prijedor","",29804814,"2024-12-30T09:30:18",3,"NO ERROR",-3.14,100,1016.97,1.45,2,2.14],
    [6883,363171,"Vazduh","Libelium","0004A30B0021DF70",44.979,16.7091,"","","Prijedor","",29805465,"2024-12-30T10:31:00",3,"NO ERROR",-1.61,100,1017.24,0.87,0.92,0.92],
    [6884,363171,"Vazduh","Libelium","0004A30B0021DF70",44.979,16.7091,"","","Prijedor","",29806249,"2024-12-30T11:31:42",3,"NO ERROR",0.65,100,1016.63,0.2,0.21,0.21],
    [6885,363171,"Vazduh","Libelium","0004A30B0021DF70",44.979,16.7091,"","","Prijedor","",29807020,"2024-12-30T12:32:24",3,"NO ERROR",2.69,100,1015.78,0.07,0.07,0.07],
    [6886,363171,"Vazduh","Libelium","0004A30B0021DF70",44.979,16.7091,"","","Prijedor","",29807718,"2024-12-30T13:33:06",3,"NO ERROR",5.19,100,1015.44,0,0,0],
    [6887,363171,"Vazduh","Libelium","0004A30B0021DF70",44.979,16.7091,"","","Prijedor","",29808463,"2024-12-30T14:33:48",3,"NO ERROR",7.07,100,1015.35,0.05,0.05,0.05],
    [6888,363171,"Vazduh","Libelium","0004A30B0021DF70",44.979,16.7091,"","","Prijedor","",29809203,"2024-12-30T15:34:30",3,"NO ERROR",7.62,100,1015.52,0.02,0.02,0.02],
    [6889,363171,"Vazduh","Libelium","0004A30B0021DF70",44.979,16.7091,"","","Prijedor","",29809875,"2024-12-30T16:35:12",3,"NO ERROR",2.91,100,1015.77,0.03,0.05,0.05],
    [6890,363171,"Vazduh","Libelium","0004A30B0021DF70",44.979,16.7091,"","","Prijedor","",29810514,"2024-12-30T17:35:54",3,"NO ERROR",1.51,100,1015.8,0.14,0.16,0.16],
    [6891,363171,"Vazduh","Libelium","0004A30B0021DF70",44.979,16.7091,"","","Prijedor","",29811187,"2024-12-30T18:36:36",3,"NO ERROR",0.51,100,1015.94,0.23,0.26,0.26],
    [6892,363171,"Vazduh","Libelium","0004A30B0021DF70",44.979,16.7091,"","","Prijedor","",29811883,"2024-12-30T19:37:19",3,"NO ERROR",-0.78,100,1016.21,0.3,0.32,0.32],
    [6893,363171,"Vazduh","Libelium","0004A30B0021DF70",44.979,16.7091,"","","Prijedor","",29812620,"2024-12-30T20:38:01",3,"NO ERROR",-0.81,100,1016.53,0.27,0.27,0.27],
    [6894,363171,"Vazduh","Libelium","0004A30B0021DF70",44.979,16.7091,"","","Prijedor","",29813326,"2024-12-30T21:38:43",3,"NO ERROR",-1.37,100,1016.81,0.89,1.02,1.03],
    [6895,363171,"Vazduh","Libelium","0004A30B0021DF70",44.979,16.7091,"","","Prijedor","",29814062,"2024-12-30T22:39:25",3,"NO ERROR",-2.57,100,1017.07,0.98,1.06,1.06],
    [6896,363171,"Vazduh","Libelium","0004A30B0021DF70",44.979,16.7091,"","","Prijedor","",29814761,"2024-12-30T23:40:19",3,"NO ERROR",-3.42,100,1017.22,6.8,8.99,14.74],
    [6897,363171,"Vazduh","Libelium","0004A30B0021DF70",44.979,16.7091,"","","Prijedor","",29815468,"2024-12-31T00:41:01",3,"NO ERROR",-2.94,100,1016.99,43.72,74.23,194.15],
    [6898,363171,"Vazduh","Libelium","0004A30B0021DF70",44.979,16.7091,"","","Prijedor","",29816185,"2024-12-31T01:41:43",3,"NO ERROR",-2.51,100,1017.15,48.61,73.52,166.17],
    [6899,363171,"Vazduh","Libelium","0004A30B0021DF70",44.979,16.7091,"","","Prijedor","",29819127,"2024-12-31T02:42:31",3,"NO ERROR",-2.78,100,1017.27,8.51,35.81,220.54],
    [6900,363171,"Vazduh","Libelium","0004A30B0021DF70",44.979,16.7091,"","","Prijedor","",29819809,"2024-12-31T03:43:13",3,"NO ERROR",-3.14,100,1017.17,4.7,11.75,34.98],
    [6901,363171,"Vazduh","Libelium","0004A30B0021DF70",44.979,16.7091,"","","Prijedor","",29820607,"2024-12-31T04:43:55",3,"NO ERROR",-3.39,100,1017.17,4.07,11.95,79.58],
    [6902,363171,"Vazduh","Libelium","0004A30B0021DF70",44.979,16.7091,"","","Prijedor","",29821342,"2024-12-31T05:44:38",3,"NO ERROR",-3.7,100,1017.25,5.99,18.87,67.42],
    [6903,363171,"Vazduh","Libelium","0004A30B0021DF70",44.979,16.7091,"","","Prijedor","",29822051,"2024-12-31T06:45:20",3,"NO ERROR",-3.77,100,1017.51,15.1,24.46,44.19],
    [6904,363171,"Vazduh","Libelium","0004A30B0021DF70",44.979,16.7091,"","","Prijedor","",29822785,"2024-12-31T07:46:02",3,"NO ERROR",-3.49,100,1017.73,5.68,16.39,65.58],
    [6905,363171,"Vazduh","Libelium","0004A30B0021DF70",44.979,16.7091,"","","Prijedor","",29823502,"2024-12-31T08:46:44",3,"NO ERROR",-3.3,100,1017.89,2.32,8.7,56.56],
    [6906,363171,"Vazduh","Libelium","0004A30B0021DF70",44.979,16.7091,"","","Prijedor","",29824144,"2024-12-31T09:47:26",3,"NO ERROR",-2.74,100,1018.13,10.73,16.28,49],
    [6907,363171,"Vazduh","Libelium","0004A30B0021DF70",44.979,16.7091,"","","Prijedor","",29824902,"2024-12-31T10:48:08",3,"NO ERROR",-1.68,100,1018.08,2.78,4.91,20],
    [6908,363171,"Vazduh","Libelium","0004A30B0021DF70",44.979,16.7091,"","","Prijedor","",29825606,"2024-12-31T11:48:50",3,"NO ERROR",-1.43,100,1017.5,0.4,0.56,0.94],
    [6909,363171,"Vazduh","Libelium","0004A30B0021DF70",44.979,16.7091,"","","Prijedor","",29826382,"2024-12-31T12:49:32",3,"NO ERROR",-0.03,100,1016.8,0.81,0.9,0.9],
    [6910,363171,"Vazduh","Libelium","0004A30B0021DF70",44.979,16.7091,"","","Prijedor","",29827037,"2024-12-31T13:50:14",3,"NO ERROR",-0.29,100,1016.31,2.26,2.53,2.54],
    [6911,363171,"Vazduh","Libelium","0004A30B0021DF70",44.979,16.7091,"","","Prijedor","",29827684,"2024-12-31T14:50:56",3,"NO ERROR",-0.02,100,1016.12,1.71,2.11,2.27],
    [6912,363171,"Vazduh","Libelium","0004A30B0021DF70",44.979,16.7091,"","","Prijedor","",29827954,"2024-12-31T15:51:38",3,"NO ERROR",-0.77,100,1016.25,2.73,3.1,3.1],
    [6913,363171,"Vazduh","Libelium","0004A30B0021DF70",44.979,16.7091,"","","Prijedor","",29828250,"2024-12-31T16:52:21",3,"NO ERROR",-1.02,100,1016.23,26.7,81.18,242.01],
    [6914,363171,"Vazduh","Libelium","0004A30B0021DF70",44.979,16.7091,"","","Prijedor","",29828506,"2024-12-31T17:53:03",3,"NO ERROR",-1.5,100,1016.53,109.36,208.18,586.72],
    [6915,363171,"Vazduh","Libelium","0004A30B0021DF70",44.979,16.7091,"","","Prijedor","",29828757,"2024-12-31T18:53:45",3,"NO ERROR",-1.89,100,1016.88,87.61,150.73,314.9],
    [6916,363171,"Vazduh","Libelium","0004A30B0021DF70",44.979,16.7091,"","","Prijedor","",29829055,"2024-12-31T19:54:27",3,"NO ERROR",-2.24,100,1017.08,15.43,33.34,185.85],
    [6917,363171,"Vazduh","Libelium","0004A30B0021DF70",44.979,16.7091,"","","Prijedor","",29829358,"2024-12-31T20:55:09",3,"NO ERROR",-3.58,100,1017.26,72.3,122.6,233.84],
    [6918,363171,"Vazduh","Libelium","0004A30B0021DF70",44.979,16.7091,"","","Prijedor","",29829621,"2024-12-31T21:55:51",3,"NO ERROR",-3.76,100,1017.34,112.1,191.66,337.89],
    [6919,363171,"Vazduh","Libelium","0004A30B0021DF70",44.979,16.7091,"","","Prijedor","",29829965,"2024-12-31T22:56:33",3,"NO ERROR",-3.82,100,1017.3,83.76,127.49,182.49]
]}
